<?xml version="1.0" encoding="UTF-8" standalone="no" ?>
<gpx xmlns="http://www.topografix.com/GPX/1/1" xmlns:xsi="http://www.w3.org/2001/XMLSchema-instance" xsi:schemaLocation="http://www.topografix.com/GPX/1/1 http://www.topografix.com/GPX/1/1/gpx.xsd" version="1.1" creator="VisuGPX - https://www.visugpx.com">
  <metadata>
    <name>vélo route : allos cayole champs</name>
    <desc><![CDATA[velo route : allos cayole champs]]></desc>
  </metadata>
  <trk>
    <name><![CDATA[--Colmars-- OR-5442905:Allos - Cayole - Champs]]></name>
    <trkseg>
      <trkpt lat="44.18367" lon="6.63018">
        <ele>1268</ele>
        <time>2016-03-19T10:59:18Z</time>
      </trkpt>
      <trkpt lat="44.18372" lon="6.63026">
        <ele>1268</ele>
        <time>2016-03-19T11:01:18Z</time>
      </trkpt>
      <trkpt lat="44.18377" lon="6.63039">
        <ele>1269</ele>
        <time>2016-03-19T11:03:18Z</time>
      </trkpt>
      <trkpt lat="44.1838" lon="6.63051">
        <ele>1269</ele>
        <time>2016-03-19T11:05:18Z</time>
      </trkpt>
      <trkpt lat="44.18386" lon="6.6307">
        <ele>1270</ele>
        <time>2016-03-19T11:07:18Z</time>
      </trkpt>
      <trkpt lat="44.18405" lon="6.63128">
        <ele>1279</ele>
        <time>2016-03-19T11:09:18Z</time>
      </trkpt>
      <trkpt lat="44.18413" lon="6.63148">
        <ele>1284</ele>
        <time>2016-03-19T11:11:18Z</time>
      </trkpt>
      <trkpt lat="44.18414" lon="6.63151">
        <ele>1284</ele>
        <time>2016-03-19T11:13:18Z</time>
      </trkpt>
      <trkpt lat="44.18419" lon="6.6316">
        <ele>1286</ele>
        <time>2016-03-19T11:15:18Z</time>
      </trkpt>
      <trkpt lat="44.18425" lon="6.63166">
        <ele>1287</ele>
        <time>2016-03-19T11:17:18Z</time>
      </trkpt>
      <trkpt lat="44.18429" lon="6.63169">
        <ele>1288</ele>
        <time>2016-03-19T11:19:18Z</time>
      </trkpt>
      <trkpt lat="44.1844" lon="6.63177">
        <ele>1290</ele>
        <time>2016-03-19T11:21:18Z</time>
      </trkpt>
      <trkpt lat="44.1845" lon="6.6318">
        <ele>1291</ele>
        <time>2016-03-19T11:23:18Z</time>
      </trkpt>
      <trkpt lat="44.1846" lon="6.63181">
        <ele>1290</ele>
        <time>2016-03-19T11:25:18Z</time>
      </trkpt>
      <trkpt lat="44.18469" lon="6.63181">
        <ele>1289</ele>
        <time>2016-03-19T11:27:18Z</time>
      </trkpt>
      <trkpt lat="44.18489" lon="6.63178">
        <ele>1287</ele>
        <time>2016-03-19T11:29:18Z</time>
      </trkpt>
      <trkpt lat="44.18499" lon="6.63176">
        <ele>1285</ele>
        <time>2016-03-19T11:31:18Z</time>
      </trkpt>
      <trkpt lat="44.18511" lon="6.63176">
        <ele>1285</ele>
        <time>2016-03-19T11:33:18Z</time>
      </trkpt>
      <trkpt lat="44.18526" lon="6.63178">
        <ele>1285</ele>
        <time>2016-03-19T11:35:18Z</time>
      </trkpt>
      <trkpt lat="44.18532" lon="6.63179">
        <ele>1286</ele>
        <time>2016-03-19T11:37:18Z</time>
      </trkpt>
      <trkpt lat="44.1854" lon="6.63179">
        <ele>1285</ele>
        <time>2016-03-19T11:39:18Z</time>
      </trkpt>
      <trkpt lat="44.18547" lon="6.63179">
        <ele>1285</ele>
        <time>2016-03-19T11:41:18Z</time>
      </trkpt>
      <trkpt lat="44.18551" lon="6.63178">
        <ele>1285</ele>
        <time>2016-03-19T11:43:18Z</time>
      </trkpt>
      <trkpt lat="44.18562" lon="6.63176">
        <ele>1284</ele>
        <time>2016-03-19T11:45:18Z</time>
      </trkpt>
      <trkpt lat="44.18572" lon="6.63174">
        <ele>1283</ele>
        <time>2016-03-19T11:47:18Z</time>
      </trkpt>
      <trkpt lat="44.18588" lon="6.63171">
        <ele>1282</ele>
        <time>2016-03-19T11:49:18Z</time>
      </trkpt>
      <trkpt lat="44.18606" lon="6.63169">
        <ele>1282</ele>
        <time>2016-03-19T11:51:18Z</time>
      </trkpt>
      <trkpt lat="44.18611" lon="6.63169">
        <ele>1282</ele>
        <time>2016-03-19T11:53:18Z</time>
      </trkpt>
      <trkpt lat="44.1862" lon="6.6317">
        <ele>1283</ele>
        <time>2016-03-19T11:55:18Z</time>
      </trkpt>
      <trkpt lat="44.18627" lon="6.6317">
        <ele>1284</ele>
        <time>2016-03-19T11:57:18Z</time>
      </trkpt>
      <trkpt lat="44.18639" lon="6.63174">
        <ele>1285</ele>
        <time>2016-03-19T11:59:18Z</time>
      </trkpt>
      <trkpt lat="44.18647" lon="6.63178">
        <ele>1287</ele>
        <time>2016-03-19T12:01:18Z</time>
      </trkpt>
      <trkpt lat="44.18655" lon="6.63182">
        <ele>1288</ele>
        <time>2016-03-19T12:03:18Z</time>
      </trkpt>
      <trkpt lat="44.18663" lon="6.6319">
        <ele>1291</ele>
        <time>2016-03-19T12:05:18Z</time>
      </trkpt>
      <trkpt lat="44.18678" lon="6.63207">
        <ele>1293</ele>
        <time>2016-03-19T12:07:18Z</time>
      </trkpt>
      <trkpt lat="44.18688" lon="6.63217">
        <ele>1293</ele>
        <time>2016-03-19T12:09:18Z</time>
      </trkpt>
      <trkpt lat="44.18701" lon="6.63226">
        <ele>1292</ele>
        <time>2016-03-19T12:11:18Z</time>
      </trkpt>
      <trkpt lat="44.18716" lon="6.63233">
        <ele>1288</ele>
        <time>2016-03-19T12:13:18Z</time>
      </trkpt>
      <trkpt lat="44.18721" lon="6.63237">
        <ele>1287</ele>
        <time>2016-03-19T12:15:18Z</time>
      </trkpt>
      <trkpt lat="44.18729" lon="6.63244">
        <ele>1285</ele>
        <time>2016-03-19T12:17:18Z</time>
      </trkpt>
      <trkpt lat="44.18735" lon="6.63252">
        <ele>1283</ele>
        <time>2016-03-19T12:19:18Z</time>
      </trkpt>
      <trkpt lat="44.18745" lon="6.63265">
        <ele>1284</ele>
        <time>2016-03-19T12:21:18Z</time>
      </trkpt>
      <trkpt lat="44.18764" lon="6.63295">
        <ele>1288</ele>
        <time>2016-03-19T12:23:18Z</time>
      </trkpt>
      <trkpt lat="44.18778" lon="6.63315">
        <ele>1289</ele>
        <time>2016-03-19T12:25:18Z</time>
      </trkpt>
      <trkpt lat="44.18837" lon="6.63387">
        <ele>1286</ele>
        <time>2016-03-19T12:27:18Z</time>
      </trkpt>
      <trkpt lat="44.18874" lon="6.63432">
        <ele>1290</ele>
        <time>2016-03-19T12:29:18Z</time>
      </trkpt>
      <trkpt lat="44.18902" lon="6.63468">
        <ele>1293</ele>
        <time>2016-03-19T12:31:18Z</time>
      </trkpt>
      <trkpt lat="44.18912" lon="6.63476">
        <ele>1292</ele>
        <time>2016-03-19T12:33:18Z</time>
      </trkpt>
      <trkpt lat="44.18923" lon="6.63479">
        <ele>1291</ele>
        <time>2016-03-19T12:35:18Z</time>
      </trkpt>
      <trkpt lat="44.18942" lon="6.63482">
        <ele>1290</ele>
        <time>2016-03-19T12:37:18Z</time>
      </trkpt>
      <trkpt lat="44.18956" lon="6.63484">
        <ele>1289</ele>
        <time>2016-03-19T12:39:18Z</time>
      </trkpt>
      <trkpt lat="44.18966" lon="6.63486">
        <ele>1289</ele>
        <time>2016-03-19T12:41:18Z</time>
      </trkpt>
      <trkpt lat="44.18987" lon="6.63489">
        <ele>1287</ele>
        <time>2016-03-19T12:43:18Z</time>
      </trkpt>
      <trkpt lat="44.19002" lon="6.63493">
        <ele>1286</ele>
        <time>2016-03-19T12:45:18Z</time>
      </trkpt>
      <trkpt lat="44.19017" lon="6.63495">
        <ele>1287</ele>
        <time>2016-03-19T12:47:18Z</time>
      </trkpt>
      <trkpt lat="44.19027" lon="6.63499">
        <ele>1288</ele>
        <time>2016-03-19T12:49:18Z</time>
      </trkpt>
      <trkpt lat="44.19042" lon="6.63503">
        <ele>1289</ele>
        <time>2016-03-19T12:51:18Z</time>
      </trkpt>
      <trkpt lat="44.19059" lon="6.63509">
        <ele>1291</ele>
        <time>2016-03-19T12:53:18Z</time>
      </trkpt>
      <trkpt lat="44.19081" lon="6.63516">
        <ele>1293</ele>
        <time>2016-03-19T12:55:18Z</time>
      </trkpt>
      <trkpt lat="44.19096" lon="6.63516">
        <ele>1293</ele>
        <time>2016-03-19T12:57:18Z</time>
      </trkpt>
      <trkpt lat="44.19111" lon="6.63513">
        <ele>1292</ele>
        <time>2016-03-19T12:59:18Z</time>
      </trkpt>
      <trkpt lat="44.19128" lon="6.63509">
        <ele>1290</ele>
        <time>2016-03-19T13:01:18Z</time>
      </trkpt>
      <trkpt lat="44.19176" lon="6.63492">
        <ele>1288</ele>
        <time>2016-03-19T13:03:18Z</time>
      </trkpt>
      <trkpt lat="44.19213" lon="6.63481">
        <ele>1289</ele>
        <time>2016-03-19T13:05:18Z</time>
      </trkpt>
      <trkpt lat="44.19247" lon="6.63475">
        <ele>1290</ele>
        <time>2016-03-19T13:07:18Z</time>
      </trkpt>
      <trkpt lat="44.19257" lon="6.63475">
        <ele>1290</ele>
        <time>2016-03-19T13:09:18Z</time>
      </trkpt>
      <trkpt lat="44.19271" lon="6.63475">
        <ele>1291</ele>
        <time>2016-03-19T13:11:18Z</time>
      </trkpt>
      <trkpt lat="44.19287" lon="6.63477">
        <ele>1292</ele>
        <time>2016-03-19T13:13:18Z</time>
      </trkpt>
      <trkpt lat="44.19295" lon="6.63479">
        <ele>1293</ele>
        <time>2016-03-19T13:15:18Z</time>
      </trkpt>
      <trkpt lat="44.19304" lon="6.63483">
        <ele>1294</ele>
        <time>2016-03-19T13:17:18Z</time>
      </trkpt>
      <trkpt lat="44.19314" lon="6.63487">
        <ele>1295</ele>
        <time>2016-03-19T13:19:18Z</time>
      </trkpt>
      <trkpt lat="44.19334" lon="6.63498">
        <ele>1297</ele>
        <time>2016-03-19T13:21:18Z</time>
      </trkpt>
      <trkpt lat="44.19344" lon="6.63505">
        <ele>1297</ele>
        <time>2016-03-19T13:23:18Z</time>
      </trkpt>
      <trkpt lat="44.19356" lon="6.63516">
        <ele>1298</ele>
        <time>2016-03-19T13:25:18Z</time>
      </trkpt>
      <trkpt lat="44.1937" lon="6.63529">
        <ele>1298</ele>
        <time>2016-03-19T13:27:18Z</time>
      </trkpt>
      <trkpt lat="44.19375" lon="6.63536">
        <ele>1298</ele>
        <time>2016-03-19T13:29:18Z</time>
      </trkpt>
      <trkpt lat="44.19384" lon="6.63544">
        <ele>1299</ele>
        <time>2016-03-19T13:31:18Z</time>
      </trkpt>
      <trkpt lat="44.19392" lon="6.63552">
        <ele>1299</ele>
        <time>2016-03-19T13:33:18Z</time>
      </trkpt>
      <trkpt lat="44.19407" lon="6.63567">
        <ele>1299</ele>
        <time>2016-03-19T13:35:18Z</time>
      </trkpt>
      <trkpt lat="44.19412" lon="6.63572">
        <ele>1300</ele>
        <time>2016-03-19T13:37:18Z</time>
      </trkpt>
      <trkpt lat="44.19425" lon="6.63583">
        <ele>1300</ele>
        <time>2016-03-19T13:39:18Z</time>
      </trkpt>
      <trkpt lat="44.19441" lon="6.63593">
        <ele>1302</ele>
        <time>2016-03-19T13:41:18Z</time>
      </trkpt>
      <trkpt lat="44.1945" lon="6.63598">
        <ele>1303</ele>
        <time>2016-03-19T13:43:18Z</time>
      </trkpt>
      <trkpt lat="44.19465" lon="6.63604">
        <ele>1304</ele>
        <time>2016-03-19T13:45:18Z</time>
      </trkpt>
      <trkpt lat="44.19477" lon="6.63607">
        <ele>1305</ele>
        <time>2016-03-19T13:47:18Z</time>
      </trkpt>
      <trkpt lat="44.19483" lon="6.63609">
        <ele>1306</ele>
        <time>2016-03-19T13:49:18Z</time>
      </trkpt>
      <trkpt lat="44.19492" lon="6.6361">
        <ele>1306</ele>
        <time>2016-03-19T13:51:18Z</time>
      </trkpt>
      <trkpt lat="44.19503" lon="6.63611">
        <ele>1307</ele>
        <time>2016-03-19T13:53:18Z</time>
      </trkpt>
      <trkpt lat="44.19513" lon="6.6361">
        <ele>1308</ele>
        <time>2016-03-19T13:55:18Z</time>
      </trkpt>
      <trkpt lat="44.19524" lon="6.6361">
        <ele>1310</ele>
        <time>2016-03-19T13:57:18Z</time>
      </trkpt>
      <trkpt lat="44.19535" lon="6.63609">
        <ele>1311</ele>
        <time>2016-03-19T13:59:18Z</time>
      </trkpt>
      <trkpt lat="44.19546" lon="6.63606">
        <ele>1311</ele>
        <time>2016-03-19T14:01:18Z</time>
      </trkpt>
      <trkpt lat="44.19557" lon="6.63603">
        <ele>1312</ele>
        <time>2016-03-19T14:03:18Z</time>
      </trkpt>
      <trkpt lat="44.19567" lon="6.636">
        <ele>1312</ele>
        <time>2016-03-19T14:05:18Z</time>
      </trkpt>
      <trkpt lat="44.19577" lon="6.63596">
        <ele>1312</ele>
        <time>2016-03-19T14:07:18Z</time>
      </trkpt>
      <trkpt lat="44.19589" lon="6.63593">
        <ele>1313</ele>
        <time>2016-03-19T14:09:18Z</time>
      </trkpt>
      <trkpt lat="44.19599" lon="6.63589">
        <ele>1313</ele>
        <time>2016-03-19T14:11:18Z</time>
      </trkpt>
      <trkpt lat="44.19609" lon="6.63586">
        <ele>1313</ele>
        <time>2016-03-19T14:13:18Z</time>
      </trkpt>
      <trkpt lat="44.19618" lon="6.63582">
        <ele>1312</ele>
        <time>2016-03-19T14:15:18Z</time>
      </trkpt>
      <trkpt lat="44.19627" lon="6.6358">
        <ele>1313</ele>
        <time>2016-03-19T14:17:18Z</time>
      </trkpt>
      <trkpt lat="44.19636" lon="6.63577">
        <ele>1313</ele>
        <time>2016-03-19T14:19:18Z</time>
      </trkpt>
      <trkpt lat="44.19645" lon="6.63575">
        <ele>1313</ele>
        <time>2016-03-19T14:21:18Z</time>
      </trkpt>
      <trkpt lat="44.19654" lon="6.63575">
        <ele>1314</ele>
        <time>2016-03-19T14:23:18Z</time>
      </trkpt>
      <trkpt lat="44.19663" lon="6.63576">
        <ele>1314</ele>
        <time>2016-03-19T14:25:18Z</time>
      </trkpt>
      <trkpt lat="44.1967" lon="6.63579">
        <ele>1315</ele>
        <time>2016-03-19T14:27:18Z</time>
      </trkpt>
      <trkpt lat="44.19678" lon="6.63583">
        <ele>1315</ele>
        <time>2016-03-19T14:29:18Z</time>
      </trkpt>
      <trkpt lat="44.19685" lon="6.63587">
        <ele>1316</ele>
        <time>2016-03-19T14:31:18Z</time>
      </trkpt>
      <trkpt lat="44.19704" lon="6.63599">
        <ele>1318</ele>
        <time>2016-03-19T14:33:18Z</time>
      </trkpt>
      <trkpt lat="44.19712" lon="6.63605">
        <ele>1319</ele>
        <time>2016-03-19T14:35:18Z</time>
      </trkpt>
      <trkpt lat="44.19716" lon="6.63607">
        <ele>1319</ele>
        <time>2016-03-19T14:37:18Z</time>
      </trkpt>
      <trkpt lat="44.19723" lon="6.63612">
        <ele>1321</ele>
        <time>2016-03-19T14:39:18Z</time>
      </trkpt>
      <trkpt lat="44.19731" lon="6.63617">
        <ele>1322</ele>
        <time>2016-03-19T14:41:18Z</time>
      </trkpt>
      <trkpt lat="44.19737" lon="6.6362">
        <ele>1322</ele>
        <time>2016-03-19T14:43:18Z</time>
      </trkpt>
      <trkpt lat="44.19745" lon="6.63623">
        <ele>1323</ele>
        <time>2016-03-19T14:45:18Z</time>
      </trkpt>
      <trkpt lat="44.19761" lon="6.63628">
        <ele>1324</ele>
        <time>2016-03-19T14:47:18Z</time>
      </trkpt>
      <trkpt lat="44.19773" lon="6.63632">
        <ele>1325</ele>
        <time>2016-03-19T14:49:18Z</time>
      </trkpt>
      <trkpt lat="44.19783" lon="6.63638">
        <ele>1327</ele>
        <time>2016-03-19T14:51:18Z</time>
      </trkpt>
      <trkpt lat="44.1979" lon="6.63644">
        <ele>1328</ele>
        <time>2016-03-19T14:53:18Z</time>
      </trkpt>
      <trkpt lat="44.1981" lon="6.63662">
        <ele>1331</ele>
        <time>2016-03-19T14:55:18Z</time>
      </trkpt>
      <trkpt lat="44.19815" lon="6.63667">
        <ele>1332</ele>
        <time>2016-03-19T14:57:18Z</time>
      </trkpt>
      <trkpt lat="44.1982" lon="6.63671">
        <ele>1333</ele>
        <time>2016-03-19T14:59:18Z</time>
      </trkpt>
      <trkpt lat="44.19825" lon="6.63674">
        <ele>1334</ele>
        <time>2016-03-19T15:01:18Z</time>
      </trkpt>
      <trkpt lat="44.19839" lon="6.63681">
        <ele>1337</ele>
        <time>2016-03-19T15:03:18Z</time>
      </trkpt>
      <trkpt lat="44.19847" lon="6.63683">
        <ele>1338</ele>
        <time>2016-03-19T15:05:18Z</time>
      </trkpt>
      <trkpt lat="44.19854" lon="6.63684">
        <ele>1339</ele>
        <time>2016-03-19T15:07:18Z</time>
      </trkpt>
      <trkpt lat="44.19861" lon="6.63683">
        <ele>1339</ele>
        <time>2016-03-19T15:09:18Z</time>
      </trkpt>
      <trkpt lat="44.19865" lon="6.63682">
        <ele>1339</ele>
        <time>2016-03-19T15:11:18Z</time>
      </trkpt>
      <trkpt lat="44.19871" lon="6.63679">
        <ele>1338</ele>
        <time>2016-03-19T15:13:18Z</time>
      </trkpt>
      <trkpt lat="44.19876" lon="6.63677">
        <ele>1338</ele>
        <time>2016-03-19T15:15:18Z</time>
      </trkpt>
      <trkpt lat="44.19884" lon="6.6367">
        <ele>1335</ele>
        <time>2016-03-19T15:17:18Z</time>
      </trkpt>
      <trkpt lat="44.19892" lon="6.63662">
        <ele>1333</ele>
        <time>2016-03-19T15:19:18Z</time>
      </trkpt>
      <trkpt lat="44.199" lon="6.63652">
        <ele>1331</ele>
        <time>2016-03-19T15:21:18Z</time>
      </trkpt>
      <trkpt lat="44.19909" lon="6.63642">
        <ele>1329</ele>
        <time>2016-03-19T15:23:18Z</time>
      </trkpt>
      <trkpt lat="44.19917" lon="6.63631">
        <ele>1327</ele>
        <time>2016-03-19T15:25:18Z</time>
      </trkpt>
      <trkpt lat="44.19924" lon="6.63618">
        <ele>1324</ele>
        <time>2016-03-19T15:27:18Z</time>
      </trkpt>
      <trkpt lat="44.19929" lon="6.63607">
        <ele>1322</ele>
        <time>2016-03-19T15:29:18Z</time>
      </trkpt>
      <trkpt lat="44.19937" lon="6.63592">
        <ele>1319</ele>
        <time>2016-03-19T15:31:18Z</time>
      </trkpt>
      <trkpt lat="44.19945" lon="6.63585">
        <ele>1318</ele>
        <time>2016-03-19T15:33:18Z</time>
      </trkpt>
      <trkpt lat="44.1995" lon="6.63581">
        <ele>1318</ele>
        <time>2016-03-19T15:35:18Z</time>
      </trkpt>
      <trkpt lat="44.19956" lon="6.63579">
        <ele>1318</ele>
        <time>2016-03-19T15:37:18Z</time>
      </trkpt>
      <trkpt lat="44.19965" lon="6.63576">
        <ele>1319</ele>
        <time>2016-03-19T15:39:18Z</time>
      </trkpt>
      <trkpt lat="44.19977" lon="6.63575">
        <ele>1320</ele>
        <time>2016-03-19T15:41:18Z</time>
      </trkpt>
      <trkpt lat="44.1999" lon="6.63573">
        <ele>1321</ele>
        <time>2016-03-19T15:43:18Z</time>
      </trkpt>
      <trkpt lat="44.19999" lon="6.63571">
        <ele>1321</ele>
        <time>2016-03-19T15:45:18Z</time>
      </trkpt>
      <trkpt lat="44.2002" lon="6.63564">
        <ele>1321</ele>
        <time>2016-03-19T15:47:18Z</time>
      </trkpt>
      <trkpt lat="44.20041" lon="6.63559">
        <ele>1321</ele>
        <time>2016-03-19T15:49:18Z</time>
      </trkpt>
      <trkpt lat="44.20055" lon="6.63557">
        <ele>1321</ele>
        <time>2016-03-19T15:51:18Z</time>
      </trkpt>
      <trkpt lat="44.20063" lon="6.63557">
        <ele>1321</ele>
        <time>2016-03-19T15:53:18Z</time>
      </trkpt>
      <trkpt lat="44.20072" lon="6.63559">
        <ele>1321</ele>
        <time>2016-03-19T15:55:18Z</time>
      </trkpt>
      <trkpt lat="44.20086" lon="6.63563">
        <ele>1322</ele>
        <time>2016-03-19T15:57:18Z</time>
      </trkpt>
      <trkpt lat="44.20094" lon="6.63568">
        <ele>1322</ele>
        <time>2016-03-19T15:59:18Z</time>
      </trkpt>
      <trkpt lat="44.20101" lon="6.63572">
        <ele>1321</ele>
        <time>2016-03-19T16:01:18Z</time>
      </trkpt>
      <trkpt lat="44.20111" lon="6.63582">
        <ele>1321</ele>
        <time>2016-03-19T16:03:18Z</time>
      </trkpt>
      <trkpt lat="44.20116" lon="6.63588">
        <ele>1322</ele>
        <time>2016-03-19T16:05:18Z</time>
      </trkpt>
      <trkpt lat="44.20122" lon="6.63593">
        <ele>1324</ele>
        <time>2016-03-19T16:07:18Z</time>
      </trkpt>
      <trkpt lat="44.2013" lon="6.63599">
        <ele>1325</ele>
        <time>2016-03-19T16:09:18Z</time>
      </trkpt>
      <trkpt lat="44.20139" lon="6.63603">
        <ele>1326</ele>
        <time>2016-03-19T16:11:18Z</time>
      </trkpt>
      <trkpt lat="44.20155" lon="6.63608">
        <ele>1326</ele>
        <time>2016-03-19T16:13:18Z</time>
      </trkpt>
      <trkpt lat="44.20166" lon="6.6361">
        <ele>1326</ele>
        <time>2016-03-19T16:15:18Z</time>
      </trkpt>
      <trkpt lat="44.20168" lon="6.63611">
        <ele>1327</ele>
        <time>2016-03-19T16:17:18Z</time>
      </trkpt>
      <trkpt lat="44.20175" lon="6.63615">
        <ele>1328</ele>
        <time>2016-03-19T16:19:18Z</time>
      </trkpt>
      <trkpt lat="44.20188" lon="6.6362">
        <ele>1329</ele>
        <time>2016-03-19T16:21:18Z</time>
      </trkpt>
      <trkpt lat="44.20204" lon="6.63628">
        <ele>1331</ele>
        <time>2016-03-19T16:23:18Z</time>
      </trkpt>
      <trkpt lat="44.20223" lon="6.63638">
        <ele>1333</ele>
        <time>2016-03-19T16:25:18Z</time>
      </trkpt>
      <trkpt lat="44.20242" lon="6.63649">
        <ele>1334</ele>
        <time>2016-03-19T16:27:18Z</time>
      </trkpt>
      <trkpt lat="44.20273" lon="6.63667">
        <ele>1338</ele>
        <time>2016-03-19T16:29:18Z</time>
      </trkpt>
      <trkpt lat="44.20283" lon="6.63667">
        <ele>1338</ele>
        <time>2016-03-19T16:31:18Z</time>
      </trkpt>
      <trkpt lat="44.20292" lon="6.63667">
        <ele>1338</ele>
        <time>2016-03-19T16:33:18Z</time>
      </trkpt>
      <trkpt lat="44.20302" lon="6.63664">
        <ele>1337</ele>
        <time>2016-03-19T16:35:18Z</time>
      </trkpt>
      <trkpt lat="44.2031" lon="6.6366">
        <ele>1336</ele>
        <time>2016-03-19T16:37:18Z</time>
      </trkpt>
      <trkpt lat="44.20317" lon="6.63655">
        <ele>1335</ele>
        <time>2016-03-19T16:39:18Z</time>
      </trkpt>
      <trkpt lat="44.20326" lon="6.63648">
        <ele>1333</ele>
        <time>2016-03-19T16:41:18Z</time>
      </trkpt>
      <trkpt lat="44.20334" lon="6.6364">
        <ele>1331</ele>
        <time>2016-03-19T16:43:18Z</time>
      </trkpt>
      <trkpt lat="44.20341" lon="6.63636">
        <ele>1330</ele>
        <time>2016-03-19T16:45:18Z</time>
      </trkpt>
      <trkpt lat="44.20353" lon="6.63634">
        <ele>1330</ele>
        <time>2016-03-19T16:47:18Z</time>
      </trkpt>
      <trkpt lat="44.20366" lon="6.63634">
        <ele>1330</ele>
        <time>2016-03-19T16:49:18Z</time>
      </trkpt>
      <trkpt lat="44.20377" lon="6.63637">
        <ele>1331</ele>
        <time>2016-03-19T16:51:18Z</time>
      </trkpt>
      <trkpt lat="44.20414" lon="6.63647">
        <ele>1335</ele>
        <time>2016-03-19T16:53:18Z</time>
      </trkpt>
      <trkpt lat="44.20463" lon="6.63655">
        <ele>1335</ele>
        <time>2016-03-19T16:55:18Z</time>
      </trkpt>
      <trkpt lat="44.20486" lon="6.63662">
        <ele>1335</ele>
        <time>2016-03-19T16:57:18Z</time>
      </trkpt>
      <trkpt lat="44.20518" lon="6.63675">
        <ele>1336</ele>
        <time>2016-03-19T16:59:18Z</time>
      </trkpt>
      <trkpt lat="44.20551" lon="6.63682">
        <ele>1336</ele>
        <time>2016-03-19T17:01:18Z</time>
      </trkpt>
      <trkpt lat="44.20576" lon="6.63681">
        <ele>1334</ele>
        <time>2016-03-19T17:03:18Z</time>
      </trkpt>
      <trkpt lat="44.20616" lon="6.63673">
        <ele>1331</ele>
        <time>2016-03-19T17:05:18Z</time>
      </trkpt>
      <trkpt lat="44.20653" lon="6.63664">
        <ele>1329</ele>
        <time>2016-03-19T17:07:18Z</time>
      </trkpt>
      <trkpt lat="44.20663" lon="6.63665">
        <ele>1330</ele>
        <time>2016-03-19T17:09:18Z</time>
      </trkpt>
      <trkpt lat="44.20673" lon="6.63668">
        <ele>1330</ele>
        <time>2016-03-19T17:11:18Z</time>
      </trkpt>
      <trkpt lat="44.2068" lon="6.63672">
        <ele>1331</ele>
        <time>2016-03-19T17:13:18Z</time>
      </trkpt>
      <trkpt lat="44.20688" lon="6.63676">
        <ele>1332</ele>
        <time>2016-03-19T17:15:18Z</time>
      </trkpt>
      <trkpt lat="44.20696" lon="6.63681">
        <ele>1333</ele>
        <time>2016-03-19T17:17:18Z</time>
      </trkpt>
      <trkpt lat="44.20704" lon="6.63688">
        <ele>1334</ele>
        <time>2016-03-19T17:19:18Z</time>
      </trkpt>
      <trkpt lat="44.20721" lon="6.63703">
        <ele>1336</ele>
        <time>2016-03-19T17:21:18Z</time>
      </trkpt>
      <trkpt lat="44.2073" lon="6.6371">
        <ele>1336</ele>
        <time>2016-03-19T17:23:18Z</time>
      </trkpt>
      <trkpt lat="44.20746" lon="6.63723">
        <ele>1336</ele>
        <time>2016-03-19T17:25:18Z</time>
      </trkpt>
      <trkpt lat="44.20768" lon="6.6374">
        <ele>1337</ele>
        <time>2016-03-19T17:27:18Z</time>
      </trkpt>
      <trkpt lat="44.20778" lon="6.63746">
        <ele>1338</ele>
        <time>2016-03-19T17:29:18Z</time>
      </trkpt>
      <trkpt lat="44.20787" lon="6.63753">
        <ele>1339</ele>
        <time>2016-03-19T17:31:18Z</time>
      </trkpt>
      <trkpt lat="44.20791" lon="6.63756">
        <ele>1340</ele>
        <time>2016-03-19T17:33:18Z</time>
      </trkpt>
      <trkpt lat="44.20806" lon="6.63764">
        <ele>1341</ele>
        <time>2016-03-19T17:35:18Z</time>
      </trkpt>
      <trkpt lat="44.20816" lon="6.63769">
        <ele>1342</ele>
        <time>2016-03-19T17:37:18Z</time>
      </trkpt>
      <trkpt lat="44.20826" lon="6.63773">
        <ele>1342</ele>
        <time>2016-03-19T17:39:18Z</time>
      </trkpt>
      <trkpt lat="44.20836" lon="6.63777">
        <ele>1342</ele>
        <time>2016-03-19T17:41:18Z</time>
      </trkpt>
      <trkpt lat="44.20845" lon="6.6378">
        <ele>1343</ele>
        <time>2016-03-19T17:43:18Z</time>
      </trkpt>
      <trkpt lat="44.20855" lon="6.63783">
        <ele>1344</ele>
        <time>2016-03-19T17:45:18Z</time>
      </trkpt>
      <trkpt lat="44.20864" lon="6.63785">
        <ele>1345</ele>
        <time>2016-03-19T17:47:18Z</time>
      </trkpt>
      <trkpt lat="44.20875" lon="6.63786">
        <ele>1345</ele>
        <time>2016-03-19T17:49:18Z</time>
      </trkpt>
      <trkpt lat="44.20884" lon="6.63785">
        <ele>1344</ele>
        <time>2016-03-19T17:51:18Z</time>
      </trkpt>
      <trkpt lat="44.20894" lon="6.63784">
        <ele>1344</ele>
        <time>2016-03-19T17:53:18Z</time>
      </trkpt>
      <trkpt lat="44.20904" lon="6.63781">
        <ele>1344</ele>
        <time>2016-03-19T17:55:18Z</time>
      </trkpt>
      <trkpt lat="44.20914" lon="6.63778">
        <ele>1343</ele>
        <time>2016-03-19T17:57:18Z</time>
      </trkpt>
      <trkpt lat="44.20925" lon="6.63777">
        <ele>1343</ele>
        <time>2016-03-19T17:59:18Z</time>
      </trkpt>
      <trkpt lat="44.20936" lon="6.63775">
        <ele>1343</ele>
        <time>2016-03-19T18:01:18Z</time>
      </trkpt>
      <trkpt lat="44.20958" lon="6.63774">
        <ele>1344</ele>
        <time>2016-03-19T18:03:18Z</time>
      </trkpt>
      <trkpt lat="44.20978" lon="6.63772">
        <ele>1345</ele>
        <time>2016-03-19T18:05:18Z</time>
      </trkpt>
      <trkpt lat="44.2099" lon="6.63769">
        <ele>1344</ele>
        <time>2016-03-19T18:07:18Z</time>
      </trkpt>
      <trkpt lat="44.21001" lon="6.63765">
        <ele>1344</ele>
        <time>2016-03-19T18:09:18Z</time>
      </trkpt>
      <trkpt lat="44.21012" lon="6.63761">
        <ele>1343</ele>
        <time>2016-03-19T18:11:18Z</time>
      </trkpt>
      <trkpt lat="44.21023" lon="6.63757">
        <ele>1342</ele>
        <time>2016-03-19T18:13:18Z</time>
      </trkpt>
      <trkpt lat="44.21033" lon="6.63754">
        <ele>1342</ele>
        <time>2016-03-19T18:15:18Z</time>
      </trkpt>
      <trkpt lat="44.21054" lon="6.6375">
        <ele>1341</ele>
        <time>2016-03-19T18:17:18Z</time>
      </trkpt>
      <trkpt lat="44.21086" lon="6.63744">
        <ele>1340</ele>
        <time>2016-03-19T18:19:18Z</time>
      </trkpt>
      <trkpt lat="44.21118" lon="6.63737">
        <ele>1342</ele>
        <time>2016-03-19T18:21:18Z</time>
      </trkpt>
      <trkpt lat="44.21148" lon="6.63726">
        <ele>1342</ele>
        <time>2016-03-19T18:23:18Z</time>
      </trkpt>
      <trkpt lat="44.21158" lon="6.63723">
        <ele>1343</ele>
        <time>2016-03-19T18:25:18Z</time>
      </trkpt>
      <trkpt lat="44.21168" lon="6.6372">
        <ele>1343</ele>
        <time>2016-03-19T18:27:18Z</time>
      </trkpt>
      <trkpt lat="44.21178" lon="6.63719">
        <ele>1344</ele>
        <time>2016-03-19T18:29:18Z</time>
      </trkpt>
      <trkpt lat="44.21198" lon="6.63717">
        <ele>1345</ele>
        <time>2016-03-19T18:31:18Z</time>
      </trkpt>
      <trkpt lat="44.21217" lon="6.63717">
        <ele>1347</ele>
        <time>2016-03-19T18:33:18Z</time>
      </trkpt>
      <trkpt lat="44.21227" lon="6.63716">
        <ele>1348</ele>
        <time>2016-03-19T18:35:18Z</time>
      </trkpt>
      <trkpt lat="44.21237" lon="6.63715">
        <ele>1349</ele>
        <time>2016-03-19T18:37:18Z</time>
      </trkpt>
      <trkpt lat="44.21246" lon="6.63712">
        <ele>1349</ele>
        <time>2016-03-19T18:39:18Z</time>
      </trkpt>
      <trkpt lat="44.21265" lon="6.63705">
        <ele>1349</ele>
        <time>2016-03-19T18:41:18Z</time>
      </trkpt>
      <trkpt lat="44.21283" lon="6.63695">
        <ele>1349</ele>
        <time>2016-03-19T18:43:18Z</time>
      </trkpt>
      <trkpt lat="44.213" lon="6.63684">
        <ele>1348</ele>
        <time>2016-03-19T18:45:18Z</time>
      </trkpt>
      <trkpt lat="44.21326" lon="6.63671">
        <ele>1347</ele>
        <time>2016-03-19T18:47:18Z</time>
      </trkpt>
      <trkpt lat="44.21335" lon="6.63668">
        <ele>1348</ele>
        <time>2016-03-19T18:49:18Z</time>
      </trkpt>
      <trkpt lat="44.21362" lon="6.63662">
        <ele>1351</ele>
        <time>2016-03-19T18:51:18Z</time>
      </trkpt>
      <trkpt lat="44.2137" lon="6.63659">
        <ele>1352</ele>
        <time>2016-03-19T18:53:18Z</time>
      </trkpt>
      <trkpt lat="44.21379" lon="6.63656">
        <ele>1353</ele>
        <time>2016-03-19T18:55:18Z</time>
      </trkpt>
      <trkpt lat="44.21388" lon="6.63652">
        <ele>1353</ele>
        <time>2016-03-19T18:57:18Z</time>
      </trkpt>
      <trkpt lat="44.21396" lon="6.63647">
        <ele>1354</ele>
        <time>2016-03-19T18:59:18Z</time>
      </trkpt>
      <trkpt lat="44.21402" lon="6.63642">
        <ele>1354</ele>
        <time>2016-03-19T19:01:18Z</time>
      </trkpt>
      <trkpt lat="44.21412" lon="6.63636">
        <ele>1354</ele>
        <time>2016-03-19T19:03:18Z</time>
      </trkpt>
      <trkpt lat="44.21427" lon="6.63625">
        <ele>1354</ele>
        <time>2016-03-19T19:05:18Z</time>
      </trkpt>
      <trkpt lat="44.2145" lon="6.6361">
        <ele>1352</ele>
        <time>2016-03-19T19:07:18Z</time>
      </trkpt>
      <trkpt lat="44.21458" lon="6.63605">
        <ele>1352</ele>
        <time>2016-03-19T19:09:18Z</time>
      </trkpt>
      <trkpt lat="44.21465" lon="6.63601">
        <ele>1351</ele>
        <time>2016-03-19T19:11:18Z</time>
      </trkpt>
      <trkpt lat="44.21473" lon="6.63598">
        <ele>1350</ele>
        <time>2016-03-19T19:13:18Z</time>
      </trkpt>
      <trkpt lat="44.2148" lon="6.63596">
        <ele>1350</ele>
        <time>2016-03-19T19:15:18Z</time>
      </trkpt>
      <trkpt lat="44.21488" lon="6.63596">
        <ele>1350</ele>
        <time>2016-03-19T19:17:18Z</time>
      </trkpt>
      <trkpt lat="44.21496" lon="6.63596">
        <ele>1351</ele>
        <time>2016-03-19T19:19:18Z</time>
      </trkpt>
      <trkpt lat="44.21504" lon="6.63596">
        <ele>1351</ele>
        <time>2016-03-19T19:21:18Z</time>
      </trkpt>
      <trkpt lat="44.21513" lon="6.63598">
        <ele>1352</ele>
        <time>2016-03-19T19:23:18Z</time>
      </trkpt>
      <trkpt lat="44.2153" lon="6.63601">
        <ele>1354</ele>
        <time>2016-03-19T19:25:18Z</time>
      </trkpt>
      <trkpt lat="44.21533" lon="6.63601">
        <ele>1354</ele>
        <time>2016-03-19T19:27:18Z</time>
      </trkpt>
      <trkpt lat="44.21536" lon="6.63601">
        <ele>1354</ele>
        <time>2016-03-19T19:29:18Z</time>
      </trkpt>
      <trkpt lat="44.21552" lon="6.63601">
        <ele>1354</ele>
        <time>2016-03-19T19:31:18Z</time>
      </trkpt>
      <trkpt lat="44.21559" lon="6.63599">
        <ele>1354</ele>
        <time>2016-03-19T19:33:18Z</time>
      </trkpt>
      <trkpt lat="44.21567" lon="6.63594">
        <ele>1353</ele>
        <time>2016-03-19T19:35:18Z</time>
      </trkpt>
      <trkpt lat="44.21573" lon="6.6359">
        <ele>1353</ele>
        <time>2016-03-19T19:37:18Z</time>
      </trkpt>
      <trkpt lat="44.2158" lon="6.63584">
        <ele>1352</ele>
        <time>2016-03-19T19:39:18Z</time>
      </trkpt>
      <trkpt lat="44.21587" lon="6.63578">
        <ele>1354</ele>
        <time>2016-03-19T19:41:18Z</time>
      </trkpt>
      <trkpt lat="44.21593" lon="6.63571">
        <ele>1356</ele>
        <time>2016-03-19T19:43:18Z</time>
      </trkpt>
      <trkpt lat="44.21605" lon="6.63557">
        <ele>1360</ele>
        <time>2016-03-19T19:45:18Z</time>
      </trkpt>
      <trkpt lat="44.21617" lon="6.63543">
        <ele>1362</ele>
        <time>2016-03-19T19:47:18Z</time>
      </trkpt>
      <trkpt lat="44.21639" lon="6.63517">
        <ele>1361</ele>
        <time>2016-03-19T19:49:18Z</time>
      </trkpt>
      <trkpt lat="44.21663" lon="6.63495">
        <ele>1358</ele>
        <time>2016-03-19T19:51:18Z</time>
      </trkpt>
      <trkpt lat="44.21672" lon="6.63487">
        <ele>1360</ele>
        <time>2016-03-19T19:53:18Z</time>
      </trkpt>
      <trkpt lat="44.21684" lon="6.6348">
        <ele>1361</ele>
        <time>2016-03-19T19:55:18Z</time>
      </trkpt>
      <trkpt lat="44.21696" lon="6.63475">
        <ele>1362</ele>
        <time>2016-03-19T19:57:18Z</time>
      </trkpt>
      <trkpt lat="44.21704" lon="6.63472">
        <ele>1362</ele>
        <time>2016-03-19T19:59:18Z</time>
      </trkpt>
      <trkpt lat="44.21712" lon="6.63471">
        <ele>1362</ele>
        <time>2016-03-19T20:01:18Z</time>
      </trkpt>
      <trkpt lat="44.21763" lon="6.63461">
        <ele>1361</ele>
        <time>2016-03-19T20:03:18Z</time>
      </trkpt>
      <trkpt lat="44.21823" lon="6.63453">
        <ele>1364</ele>
        <time>2016-03-19T20:05:18Z</time>
      </trkpt>
      <trkpt lat="44.21831" lon="6.63452">
        <ele>1364</ele>
        <time>2016-03-19T20:07:18Z</time>
      </trkpt>
      <trkpt lat="44.21933" lon="6.63437">
        <ele>1358</ele>
        <time>2016-03-19T20:09:18Z</time>
      </trkpt>
      <trkpt lat="44.22097" lon="6.63412">
        <ele>1357</ele>
        <time>2016-03-19T20:11:18Z</time>
      </trkpt>
      <trkpt lat="44.22172" lon="6.63402">
        <ele>1359</ele>
        <time>2016-03-19T20:13:18Z</time>
      </trkpt>
      <trkpt lat="44.22235" lon="6.63392">
        <ele>1360</ele>
        <time>2016-03-19T20:15:18Z</time>
      </trkpt>
      <trkpt lat="44.22312" lon="6.63383">
        <ele>1364</ele>
        <time>2016-03-19T20:17:18Z</time>
      </trkpt>
      <trkpt lat="44.22364" lon="6.63374">
        <ele>1367</ele>
        <time>2016-03-19T20:19:18Z</time>
      </trkpt>
      <trkpt lat="44.22443" lon="6.63362">
        <ele>1373</ele>
        <time>2016-03-19T20:21:18Z</time>
      </trkpt>
      <trkpt lat="44.2248" lon="6.63357">
        <ele>1376</ele>
        <time>2016-03-19T20:23:18Z</time>
      </trkpt>
      <trkpt lat="44.22524" lon="6.63346">
        <ele>1377</ele>
        <time>2016-03-19T20:25:18Z</time>
      </trkpt>
      <trkpt lat="44.22529" lon="6.63344">
        <ele>1377</ele>
        <time>2016-03-19T20:27:18Z</time>
      </trkpt>
      <trkpt lat="44.22537" lon="6.63342">
        <ele>1378</ele>
        <time>2016-03-19T20:29:18Z</time>
      </trkpt>
      <trkpt lat="44.22545" lon="6.63339">
        <ele>1377</ele>
        <time>2016-03-19T20:31:18Z</time>
      </trkpt>
      <trkpt lat="44.22561" lon="6.63333">
        <ele>1377</ele>
        <time>2016-03-19T20:33:18Z</time>
      </trkpt>
      <trkpt lat="44.22575" lon="6.63327">
        <ele>1378</ele>
        <time>2016-03-19T20:35:18Z</time>
      </trkpt>
      <trkpt lat="44.22614" lon="6.63307">
        <ele>1381</ele>
        <time>2016-03-19T20:37:18Z</time>
      </trkpt>
      <trkpt lat="44.22646" lon="6.63287">
        <ele>1381</ele>
        <time>2016-03-19T20:39:18Z</time>
      </trkpt>
      <trkpt lat="44.22654" lon="6.63282">
        <ele>1381</ele>
        <time>2016-03-19T20:41:18Z</time>
      </trkpt>
      <trkpt lat="44.22661" lon="6.63276">
        <ele>1380</ele>
        <time>2016-03-19T20:43:18Z</time>
      </trkpt>
      <trkpt lat="44.22668" lon="6.63271">
        <ele>1380</ele>
        <time>2016-03-19T20:45:18Z</time>
      </trkpt>
      <trkpt lat="44.22675" lon="6.63265">
        <ele>1380</ele>
        <time>2016-03-19T20:47:18Z</time>
      </trkpt>
      <trkpt lat="44.2268" lon="6.6326">
        <ele>1380</ele>
        <time>2016-03-19T20:49:18Z</time>
      </trkpt>
      <trkpt lat="44.22688" lon="6.63252">
        <ele>1379</ele>
        <time>2016-03-19T20:51:18Z</time>
      </trkpt>
      <trkpt lat="44.22695" lon="6.63243">
        <ele>1380</ele>
        <time>2016-03-19T20:53:18Z</time>
      </trkpt>
      <trkpt lat="44.22701" lon="6.63236">
        <ele>1380</ele>
        <time>2016-03-19T20:55:18Z</time>
      </trkpt>
      <trkpt lat="44.22724" lon="6.63205">
        <ele>1381</ele>
        <time>2016-03-19T20:57:18Z</time>
      </trkpt>
      <trkpt lat="44.2273" lon="6.63197">
        <ele>1381</ele>
        <time>2016-03-19T20:59:18Z</time>
      </trkpt>
      <trkpt lat="44.22736" lon="6.63188">
        <ele>1381</ele>
        <time>2016-03-19T21:01:18Z</time>
      </trkpt>
      <trkpt lat="44.22753" lon="6.63163">
        <ele>1381</ele>
        <time>2016-03-19T21:03:18Z</time>
      </trkpt>
      <trkpt lat="44.22759" lon="6.63155">
        <ele>1382</ele>
        <time>2016-03-19T21:05:18Z</time>
      </trkpt>
      <trkpt lat="44.22767" lon="6.63145">
        <ele>1383</ele>
        <time>2016-03-19T21:07:18Z</time>
      </trkpt>
      <trkpt lat="44.22771" lon="6.63139">
        <ele>1383</ele>
        <time>2016-03-19T21:09:18Z</time>
      </trkpt>
      <trkpt lat="44.22776" lon="6.63134">
        <ele>1384</ele>
        <time>2016-03-19T21:11:18Z</time>
      </trkpt>
      <trkpt lat="44.22778" lon="6.63132">
        <ele>1384</ele>
        <time>2016-03-19T21:13:18Z</time>
      </trkpt>
      <trkpt lat="44.22791" lon="6.63118">
        <ele>1385</ele>
        <time>2016-03-19T21:15:18Z</time>
      </trkpt>
      <trkpt lat="44.22797" lon="6.63113">
        <ele>1385</ele>
        <time>2016-03-19T21:17:18Z</time>
      </trkpt>
      <trkpt lat="44.22804" lon="6.63107">
        <ele>1385</ele>
        <time>2016-03-19T21:19:18Z</time>
      </trkpt>
      <trkpt lat="44.22811" lon="6.63103">
        <ele>1385</ele>
        <time>2016-03-19T21:21:18Z</time>
      </trkpt>
      <trkpt lat="44.22817" lon="6.63099">
        <ele>1386</ele>
        <time>2016-03-19T21:23:18Z</time>
      </trkpt>
      <trkpt lat="44.22831" lon="6.63091">
        <ele>1386</ele>
        <time>2016-03-19T21:25:18Z</time>
      </trkpt>
      <trkpt lat="44.22869" lon="6.63071">
        <ele>1388</ele>
        <time>2016-03-19T21:27:18Z</time>
      </trkpt>
      <trkpt lat="44.22879" lon="6.63065">
        <ele>1388</ele>
        <time>2016-03-19T21:29:18Z</time>
      </trkpt>
      <trkpt lat="44.22886" lon="6.63061">
        <ele>1389</ele>
        <time>2016-03-19T21:31:18Z</time>
      </trkpt>
      <trkpt lat="44.22896" lon="6.63054">
        <ele>1389</ele>
        <time>2016-03-19T21:33:18Z</time>
      </trkpt>
      <trkpt lat="44.22978" lon="6.62992">
        <ele>1394</ele>
        <time>2016-03-19T21:35:18Z</time>
      </trkpt>
      <trkpt lat="44.23013" lon="6.62964">
        <ele>1396</ele>
        <time>2016-03-19T21:37:18Z</time>
      </trkpt>
      <trkpt lat="44.23023" lon="6.62958">
        <ele>1397</ele>
        <time>2016-03-19T21:39:18Z</time>
      </trkpt>
      <trkpt lat="44.23034" lon="6.62954">
        <ele>1397</ele>
        <time>2016-03-19T21:41:18Z</time>
      </trkpt>
      <trkpt lat="44.23045" lon="6.62951">
        <ele>1398</ele>
        <time>2016-03-19T21:43:18Z</time>
      </trkpt>
      <trkpt lat="44.23067" lon="6.62948">
        <ele>1400</ele>
        <time>2016-03-19T21:45:18Z</time>
      </trkpt>
      <trkpt lat="44.23105" lon="6.62943">
        <ele>1403</ele>
        <time>2016-03-19T21:47:18Z</time>
      </trkpt>
      <trkpt lat="44.23121" lon="6.62939">
        <ele>1403</ele>
        <time>2016-03-19T21:49:18Z</time>
      </trkpt>
      <trkpt lat="44.23135" lon="6.62935">
        <ele>1404</ele>
        <time>2016-03-19T21:51:18Z</time>
      </trkpt>
      <trkpt lat="44.23168" lon="6.62919">
        <ele>1404</ele>
        <time>2016-03-19T21:53:18Z</time>
      </trkpt>
      <trkpt lat="44.23182" lon="6.62913">
        <ele>1404</ele>
        <time>2016-03-19T21:55:18Z</time>
      </trkpt>
      <trkpt lat="44.23195" lon="6.62906">
        <ele>1404</ele>
        <time>2016-03-19T21:57:18Z</time>
      </trkpt>
      <trkpt lat="44.23212" lon="6.62898">
        <ele>1404</ele>
        <time>2016-03-19T21:59:18Z</time>
      </trkpt>
      <trkpt lat="44.23223" lon="6.62893">
        <ele>1404</ele>
        <time>2016-03-19T22:01:18Z</time>
      </trkpt>
      <trkpt lat="44.23232" lon="6.6289">
        <ele>1404</ele>
        <time>2016-03-19T22:03:18Z</time>
      </trkpt>
      <trkpt lat="44.23239" lon="6.62888">
        <ele>1404</ele>
        <time>2016-03-19T22:05:18Z</time>
      </trkpt>
      <trkpt lat="44.23247" lon="6.62887">
        <ele>1404</ele>
        <time>2016-03-19T22:07:18Z</time>
      </trkpt>
      <trkpt lat="44.23255" lon="6.62887">
        <ele>1404</ele>
        <time>2016-03-19T22:09:18Z</time>
      </trkpt>
      <trkpt lat="44.23268" lon="6.62887">
        <ele>1404</ele>
        <time>2016-03-19T22:11:18Z</time>
      </trkpt>
      <trkpt lat="44.23289" lon="6.62891">
        <ele>1404</ele>
        <time>2016-03-19T22:13:18Z</time>
      </trkpt>
      <trkpt lat="44.23297" lon="6.62893">
        <ele>1404</ele>
        <time>2016-03-19T22:15:18Z</time>
      </trkpt>
      <trkpt lat="44.23311" lon="6.62897">
        <ele>1404</ele>
        <time>2016-03-19T22:17:18Z</time>
      </trkpt>
      <trkpt lat="44.23355" lon="6.6291">
        <ele>1405</ele>
        <time>2016-03-19T22:19:18Z</time>
      </trkpt>
      <trkpt lat="44.23403" lon="6.62924">
        <ele>1407</ele>
        <time>2016-03-19T22:21:18Z</time>
      </trkpt>
      <trkpt lat="44.23412" lon="6.62925">
        <ele>1407</ele>
        <time>2016-03-19T22:23:18Z</time>
      </trkpt>
      <trkpt lat="44.23448" lon="6.62925">
        <ele>1406</ele>
        <time>2016-03-19T22:25:18Z</time>
      </trkpt>
      <trkpt lat="44.23513" lon="6.62925">
        <ele>1406</ele>
        <time>2016-03-19T22:27:18Z</time>
      </trkpt>
      <trkpt lat="44.23542" lon="6.62925">
        <ele>1407</ele>
        <time>2016-03-19T22:29:18Z</time>
      </trkpt>
      <trkpt lat="44.23557" lon="6.62925">
        <ele>1407</ele>
        <time>2016-03-19T22:31:18Z</time>
      </trkpt>
      <trkpt lat="44.23568" lon="6.62924">
        <ele>1408</ele>
        <time>2016-03-19T22:33:18Z</time>
      </trkpt>
      <trkpt lat="44.23574" lon="6.62923">
        <ele>1408</ele>
        <time>2016-03-19T22:35:18Z</time>
      </trkpt>
      <trkpt lat="44.23579" lon="6.62921">
        <ele>1408</ele>
        <time>2016-03-19T22:37:18Z</time>
      </trkpt>
      <trkpt lat="44.23585" lon="6.62919">
        <ele>1408</ele>
        <time>2016-03-19T22:39:18Z</time>
      </trkpt>
      <trkpt lat="44.23591" lon="6.62917">
        <ele>1408</ele>
        <time>2016-03-19T22:41:18Z</time>
      </trkpt>
      <trkpt lat="44.23602" lon="6.6291">
        <ele>1409</ele>
        <time>2016-03-19T22:43:18Z</time>
      </trkpt>
      <trkpt lat="44.23613" lon="6.62904">
        <ele>1410</ele>
        <time>2016-03-19T22:45:18Z</time>
      </trkpt>
      <trkpt lat="44.23629" lon="6.62893">
        <ele>1411</ele>
        <time>2016-03-19T22:47:18Z</time>
      </trkpt>
      <trkpt lat="44.23635" lon="6.62889">
        <ele>1411</ele>
        <time>2016-03-19T22:49:18Z</time>
      </trkpt>
      <trkpt lat="44.23651" lon="6.6288">
        <ele>1412</ele>
        <time>2016-03-19T22:51:18Z</time>
      </trkpt>
      <trkpt lat="44.23662" lon="6.62876">
        <ele>1412</ele>
        <time>2016-03-19T22:53:18Z</time>
      </trkpt>
      <trkpt lat="44.23666" lon="6.62875">
        <ele>1412</ele>
        <time>2016-03-19T22:55:18Z</time>
      </trkpt>
      <trkpt lat="44.23674" lon="6.62874">
        <ele>1413</ele>
        <time>2016-03-19T22:57:18Z</time>
      </trkpt>
      <trkpt lat="44.23685" lon="6.62873">
        <ele>1413</ele>
        <time>2016-03-19T22:59:18Z</time>
      </trkpt>
      <trkpt lat="44.23691" lon="6.62873">
        <ele>1413</ele>
        <time>2016-03-19T23:01:18Z</time>
      </trkpt>
      <trkpt lat="44.23701" lon="6.62875">
        <ele>1414</ele>
        <time>2016-03-19T23:03:18Z</time>
      </trkpt>
      <trkpt lat="44.23702" lon="6.62875">
        <ele>1414</ele>
        <time>2016-03-19T23:05:18Z</time>
      </trkpt>
      <trkpt lat="44.23718" lon="6.6288">
        <ele>1415</ele>
        <time>2016-03-19T23:07:18Z</time>
      </trkpt>
      <trkpt lat="44.23724" lon="6.62882">
        <ele>1415</ele>
        <time>2016-03-19T23:09:18Z</time>
      </trkpt>
      <trkpt lat="44.23735" lon="6.62886">
        <ele>1416</ele>
        <time>2016-03-19T23:11:18Z</time>
      </trkpt>
      <trkpt lat="44.2374" lon="6.62887">
        <ele>1416</ele>
        <time>2016-03-19T23:13:18Z</time>
      </trkpt>
      <trkpt lat="44.23745" lon="6.62888">
        <ele>1416</ele>
        <time>2016-03-19T23:15:18Z</time>
      </trkpt>
      <trkpt lat="44.23751" lon="6.62889">
        <ele>1417</ele>
        <time>2016-03-19T23:17:18Z</time>
      </trkpt>
      <trkpt lat="44.23756" lon="6.62889">
        <ele>1417</ele>
        <time>2016-03-19T23:19:18Z</time>
      </trkpt>
      <trkpt lat="44.23762" lon="6.62889">
        <ele>1417</ele>
        <time>2016-03-19T23:21:18Z</time>
      </trkpt>
      <trkpt lat="44.23767" lon="6.62888">
        <ele>1417</ele>
        <time>2016-03-19T23:23:18Z</time>
      </trkpt>
      <trkpt lat="44.23777" lon="6.62886">
        <ele>1417</ele>
        <time>2016-03-19T23:25:18Z</time>
      </trkpt>
      <trkpt lat="44.23783" lon="6.62884">
        <ele>1417</ele>
        <time>2016-03-19T23:27:18Z</time>
      </trkpt>
      <trkpt lat="44.23792" lon="6.62882">
        <ele>1417</ele>
        <time>2016-03-19T23:29:18Z</time>
      </trkpt>
      <trkpt lat="44.23802" lon="6.62882">
        <ele>1417</ele>
        <time>2016-03-19T23:31:18Z</time>
      </trkpt>
      <trkpt lat="44.23811" lon="6.62883">
        <ele>1417</ele>
        <time>2016-03-19T23:33:18Z</time>
      </trkpt>
      <trkpt lat="44.23823" lon="6.62889">
        <ele>1418</ele>
        <time>2016-03-19T23:35:18Z</time>
      </trkpt>
      <trkpt lat="44.23838" lon="6.62897">
        <ele>1419</ele>
        <time>2016-03-19T23:37:18Z</time>
      </trkpt>
      <trkpt lat="44.23851" lon="6.62904">
        <ele>1419</ele>
        <time>2016-03-19T23:39:18Z</time>
      </trkpt>
      <trkpt lat="44.2386" lon="6.62913">
        <ele>1419</ele>
        <time>2016-03-19T23:41:18Z</time>
      </trkpt>
      <trkpt lat="44.23868" lon="6.62921">
        <ele>1421</ele>
        <time>2016-03-19T23:43:18Z</time>
      </trkpt>
      <trkpt lat="44.23873" lon="6.62926">
        <ele>1422</ele>
        <time>2016-03-19T23:45:18Z</time>
      </trkpt>
      <trkpt lat="44.23895" lon="6.62949">
        <ele>1427</ele>
        <time>2016-03-19T23:47:18Z</time>
      </trkpt>
      <trkpt lat="44.23901" lon="6.62954">
        <ele>1428</ele>
        <time>2016-03-19T23:49:18Z</time>
      </trkpt>
      <trkpt lat="44.23908" lon="6.62958">
        <ele>1429</ele>
        <time>2016-03-19T23:51:18Z</time>
      </trkpt>
      <trkpt lat="44.23915" lon="6.62961">
        <ele>1430</ele>
        <time>2016-03-19T23:53:18Z</time>
      </trkpt>
      <trkpt lat="44.23922" lon="6.62964">
        <ele>1430</ele>
        <time>2016-03-19T23:55:18Z</time>
      </trkpt>
      <trkpt lat="44.23928" lon="6.62966">
        <ele>1430</ele>
        <time>2016-03-19T23:57:18Z</time>
      </trkpt>
      <trkpt lat="44.23957" lon="6.62974">
        <ele>1430</ele>
        <time>2016-03-19T23:59:18Z</time>
      </trkpt>
      <trkpt lat="44.23985" lon="6.6298">
        <ele>1428</ele>
        <time>2016-03-20T00:01:18Z</time>
      </trkpt>
      <trkpt lat="44.23992" lon="6.6298">
        <ele>1428</ele>
        <time>2016-03-20T00:03:18Z</time>
      </trkpt>
      <trkpt lat="44.23999" lon="6.62978">
        <ele>1427</ele>
        <time>2016-03-20T00:05:18Z</time>
      </trkpt>
      <trkpt lat="44.24006" lon="6.62975">
        <ele>1428</ele>
        <time>2016-03-20T00:07:18Z</time>
      </trkpt>
      <trkpt lat="44.2401" lon="6.62974">
        <ele>1428</ele>
        <time>2016-03-20T00:09:18Z</time>
      </trkpt>
      <trkpt lat="44.24018" lon="6.62967">
        <ele>1428</ele>
        <time>2016-03-20T00:11:18Z</time>
      </trkpt>
      <trkpt lat="44.24025" lon="6.62961">
        <ele>1429</ele>
        <time>2016-03-20T00:13:18Z</time>
      </trkpt>
      <trkpt lat="44.2403" lon="6.62956">
        <ele>1429</ele>
        <time>2016-03-20T00:15:18Z</time>
      </trkpt>
      <trkpt lat="44.24035" lon="6.6295">
        <ele>1429</ele>
        <time>2016-03-20T00:17:18Z</time>
      </trkpt>
      <trkpt lat="44.24039" lon="6.62944">
        <ele>1429</ele>
        <time>2016-03-20T00:19:18Z</time>
      </trkpt>
      <trkpt lat="44.24044" lon="6.62937">
        <ele>1430</ele>
        <time>2016-03-20T00:21:18Z</time>
      </trkpt>
      <trkpt lat="44.24052" lon="6.62925">
        <ele>1430</ele>
        <time>2016-03-20T00:23:18Z</time>
      </trkpt>
      <trkpt lat="44.24056" lon="6.62918">
        <ele>1431</ele>
        <time>2016-03-20T00:25:18Z</time>
      </trkpt>
      <trkpt lat="44.2408" lon="6.62882">
        <ele>1434</ele>
        <time>2016-03-20T00:27:18Z</time>
      </trkpt>
      <trkpt lat="44.24099" lon="6.62852">
        <ele>1437</ele>
        <time>2016-03-20T00:29:18Z</time>
      </trkpt>
      <trkpt lat="44.24121" lon="6.62817">
        <ele>1439</ele>
        <time>2016-03-20T00:31:18Z</time>
      </trkpt>
      <trkpt lat="44.24131" lon="6.62801">
        <ele>1440</ele>
        <time>2016-03-20T00:33:18Z</time>
      </trkpt>
      <trkpt lat="44.24146" lon="6.62781">
        <ele>1441</ele>
        <time>2016-03-20T00:35:18Z</time>
      </trkpt>
      <trkpt lat="44.24157" lon="6.62764">
        <ele>1442</ele>
        <time>2016-03-20T00:37:18Z</time>
      </trkpt>
      <trkpt lat="44.24172" lon="6.6274">
        <ele>1442</ele>
        <time>2016-03-20T00:39:18Z</time>
      </trkpt>
      <trkpt lat="44.24177" lon="6.62733">
        <ele>1442</ele>
        <time>2016-03-20T00:41:18Z</time>
      </trkpt>
      <trkpt lat="44.24183" lon="6.62722">
        <ele>1442</ele>
        <time>2016-03-20T00:43:18Z</time>
      </trkpt>
      <trkpt lat="44.24187" lon="6.62715">
        <ele>1442</ele>
        <time>2016-03-20T00:45:18Z</time>
      </trkpt>
      <trkpt lat="44.24191" lon="6.62708">
        <ele>1442</ele>
        <time>2016-03-20T00:47:18Z</time>
      </trkpt>
      <trkpt lat="44.24194" lon="6.62701">
        <ele>1442</ele>
        <time>2016-03-20T00:49:18Z</time>
      </trkpt>
      <trkpt lat="44.24198" lon="6.62694">
        <ele>1442</ele>
        <time>2016-03-20T00:51:18Z</time>
      </trkpt>
      <trkpt lat="44.24201" lon="6.62687">
        <ele>1442</ele>
        <time>2016-03-20T00:53:18Z</time>
      </trkpt>
      <trkpt lat="44.24217" lon="6.62658">
        <ele>1441</ele>
        <time>2016-03-20T00:55:18Z</time>
      </trkpt>
      <trkpt lat="44.24226" lon="6.62644">
        <ele>1440</ele>
        <time>2016-03-20T00:57:18Z</time>
      </trkpt>
      <trkpt lat="44.24234" lon="6.62631">
        <ele>1440</ele>
        <time>2016-03-20T00:59:18Z</time>
      </trkpt>
      <trkpt lat="44.24243" lon="6.62619">
        <ele>1439</ele>
        <time>2016-03-20T01:01:18Z</time>
      </trkpt>
      <trkpt lat="44.24248" lon="6.62614">
        <ele>1439</ele>
        <time>2016-03-20T01:03:18Z</time>
      </trkpt>
      <trkpt lat="44.24253" lon="6.62609">
        <ele>1439</ele>
        <time>2016-03-20T01:05:18Z</time>
      </trkpt>
      <trkpt lat="44.24258" lon="6.62605">
        <ele>1439</ele>
        <time>2016-03-20T01:07:18Z</time>
      </trkpt>
      <trkpt lat="44.24268" lon="6.62597">
        <ele>1440</ele>
        <time>2016-03-20T01:09:18Z</time>
      </trkpt>
      <trkpt lat="44.24281" lon="6.62588">
        <ele>1440</ele>
        <time>2016-03-20T01:11:18Z</time>
      </trkpt>
      <trkpt lat="44.24356" lon="6.62536">
        <ele>1441</ele>
        <time>2016-03-20T01:13:18Z</time>
      </trkpt>
      <trkpt lat="44.24407" lon="6.625">
        <ele>1441</ele>
        <time>2016-03-20T01:15:18Z</time>
      </trkpt>
      <trkpt lat="44.24418" lon="6.62491">
        <ele>1441</ele>
        <time>2016-03-20T01:17:18Z</time>
      </trkpt>
      <trkpt lat="44.24432" lon="6.62482">
        <ele>1441</ele>
        <time>2016-03-20T01:19:18Z</time>
      </trkpt>
      <trkpt lat="44.24439" lon="6.62477">
        <ele>1440</ele>
        <time>2016-03-20T01:21:18Z</time>
      </trkpt>
      <trkpt lat="44.24449" lon="6.62471">
        <ele>1440</ele>
        <time>2016-03-20T01:23:18Z</time>
      </trkpt>
      <trkpt lat="44.24455" lon="6.62469">
        <ele>1440</ele>
        <time>2016-03-20T01:25:18Z</time>
      </trkpt>
      <trkpt lat="44.24461" lon="6.62468">
        <ele>1440</ele>
        <time>2016-03-20T01:27:18Z</time>
      </trkpt>
      <trkpt lat="44.24472" lon="6.62466">
        <ele>1440</ele>
        <time>2016-03-20T01:29:18Z</time>
      </trkpt>
      <trkpt lat="44.24484" lon="6.62466">
        <ele>1440</ele>
        <time>2016-03-20T01:31:18Z</time>
      </trkpt>
      <trkpt lat="44.2449" lon="6.62465">
        <ele>1440</ele>
        <time>2016-03-20T01:33:18Z</time>
      </trkpt>
      <trkpt lat="44.24496" lon="6.62464">
        <ele>1441</ele>
        <time>2016-03-20T01:35:18Z</time>
      </trkpt>
      <trkpt lat="44.24502" lon="6.62463">
        <ele>1441</ele>
        <time>2016-03-20T01:37:18Z</time>
      </trkpt>
      <trkpt lat="44.24508" lon="6.62461">
        <ele>1441</ele>
        <time>2016-03-20T01:39:18Z</time>
      </trkpt>
      <trkpt lat="44.24513" lon="6.62458">
        <ele>1441</ele>
        <time>2016-03-20T01:41:18Z</time>
      </trkpt>
      <trkpt lat="44.24518" lon="6.62454">
        <ele>1440</ele>
        <time>2016-03-20T01:43:18Z</time>
      </trkpt>
      <trkpt lat="44.24522" lon="6.62448">
        <ele>1440</ele>
        <time>2016-03-20T01:45:18Z</time>
      </trkpt>
      <trkpt lat="44.24526" lon="6.62442">
        <ele>1439</ele>
        <time>2016-03-20T01:47:18Z</time>
      </trkpt>
      <trkpt lat="44.24529" lon="6.62434">
        <ele>1439</ele>
        <time>2016-03-20T01:49:18Z</time>
      </trkpt>
      <trkpt lat="44.24531" lon="6.62426">
        <ele>1438</ele>
        <time>2016-03-20T01:51:18Z</time>
      </trkpt>
      <trkpt lat="44.24536" lon="6.62409">
        <ele>1437</ele>
        <time>2016-03-20T01:53:18Z</time>
      </trkpt>
      <trkpt lat="44.24546" lon="6.62369">
        <ele>1436</ele>
        <time>2016-03-20T01:55:18Z</time>
      </trkpt>
      <trkpt lat="44.24549" lon="6.62361">
        <ele>1436</ele>
        <time>2016-03-20T01:57:18Z</time>
      </trkpt>
      <trkpt lat="44.24551" lon="6.62354">
        <ele>1436</ele>
        <time>2016-03-20T01:59:18Z</time>
      </trkpt>
      <trkpt lat="44.24557" lon="6.6233">
        <ele>1436</ele>
        <time>2016-03-20T02:01:18Z</time>
      </trkpt>
      <trkpt lat="44.24563" lon="6.62306">
        <ele>1439</ele>
        <time>2016-03-20T02:03:18Z</time>
      </trkpt>
      <trkpt lat="44.24564" lon="6.62297">
        <ele>1440</ele>
        <time>2016-03-20T02:05:18Z</time>
      </trkpt>
      <trkpt lat="44.24564" lon="6.62291">
        <ele>1441</ele>
        <time>2016-03-20T02:07:18Z</time>
      </trkpt>
      <trkpt lat="44.24562" lon="6.62279">
        <ele>1442</ele>
        <time>2016-03-20T02:09:18Z</time>
      </trkpt>
      <trkpt lat="44.2456" lon="6.6227">
        <ele>1442</ele>
        <time>2016-03-20T02:11:18Z</time>
      </trkpt>
      <trkpt lat="44.24556" lon="6.62262">
        <ele>1443</ele>
        <time>2016-03-20T02:13:18Z</time>
      </trkpt>
      <trkpt lat="44.24552" lon="6.62255">
        <ele>1443</ele>
        <time>2016-03-20T02:15:18Z</time>
      </trkpt>
      <trkpt lat="44.24548" lon="6.62248">
        <ele>1443</ele>
        <time>2016-03-20T02:17:18Z</time>
      </trkpt>
      <trkpt lat="44.24539" lon="6.62233">
        <ele>1444</ele>
        <time>2016-03-20T02:19:18Z</time>
      </trkpt>
      <trkpt lat="44.24536" lon="6.62225">
        <ele>1444</ele>
        <time>2016-03-20T02:21:18Z</time>
      </trkpt>
      <trkpt lat="44.24533" lon="6.62216">
        <ele>1445</ele>
        <time>2016-03-20T02:23:18Z</time>
      </trkpt>
      <trkpt lat="44.24532" lon="6.62207">
        <ele>1446</ele>
        <time>2016-03-20T02:25:18Z</time>
      </trkpt>
      <trkpt lat="44.24531" lon="6.62198">
        <ele>1446</ele>
        <time>2016-03-20T02:27:18Z</time>
      </trkpt>
      <trkpt lat="44.2453" lon="6.62163">
        <ele>1450</ele>
        <time>2016-03-20T02:29:18Z</time>
      </trkpt>
      <trkpt lat="44.2453" lon="6.6216">
        <ele>1450</ele>
        <time>2016-03-20T02:31:18Z</time>
      </trkpt>
      <trkpt lat="44.24525" lon="6.62132">
        <ele>1452</ele>
        <time>2016-03-20T02:33:18Z</time>
      </trkpt>
      <trkpt lat="44.24523" lon="6.62123">
        <ele>1452</ele>
        <time>2016-03-20T02:35:18Z</time>
      </trkpt>
      <trkpt lat="44.2452" lon="6.62115">
        <ele>1452</ele>
        <time>2016-03-20T02:37:18Z</time>
      </trkpt>
      <trkpt lat="44.24515" lon="6.62107">
        <ele>1452</ele>
        <time>2016-03-20T02:39:18Z</time>
      </trkpt>
      <trkpt lat="44.24509" lon="6.62096">
        <ele>1451</ele>
        <time>2016-03-20T02:41:18Z</time>
      </trkpt>
      <trkpt lat="44.24498" lon="6.6208">
        <ele>1450</ele>
        <time>2016-03-20T02:43:18Z</time>
      </trkpt>
      <trkpt lat="44.24494" lon="6.62073">
        <ele>1449</ele>
        <time>2016-03-20T02:45:18Z</time>
      </trkpt>
      <trkpt lat="44.2449" lon="6.62065">
        <ele>1449</ele>
        <time>2016-03-20T02:47:18Z</time>
      </trkpt>
      <trkpt lat="44.24487" lon="6.62058">
        <ele>1449</ele>
        <time>2016-03-20T02:49:18Z</time>
      </trkpt>
      <trkpt lat="44.24481" lon="6.62042">
        <ele>1448</ele>
        <time>2016-03-20T02:51:18Z</time>
      </trkpt>
      <trkpt lat="44.24479" lon="6.62034">
        <ele>1448</ele>
        <time>2016-03-20T02:53:18Z</time>
      </trkpt>
      <trkpt lat="44.24477" lon="6.62025">
        <ele>1448</ele>
        <time>2016-03-20T02:55:18Z</time>
      </trkpt>
      <trkpt lat="44.24474" lon="6.62007">
        <ele>1449</ele>
        <time>2016-03-20T02:57:18Z</time>
      </trkpt>
      <trkpt lat="44.24472" lon="6.61992">
        <ele>1449</ele>
        <time>2016-03-20T02:59:18Z</time>
      </trkpt>
      <trkpt lat="44.24471" lon="6.61984">
        <ele>1448</ele>
        <time>2016-03-20T03:01:18Z</time>
      </trkpt>
      <trkpt lat="44.2447" lon="6.61976">
        <ele>1448</ele>
        <time>2016-03-20T03:03:18Z</time>
      </trkpt>
      <trkpt lat="44.2447" lon="6.61968">
        <ele>1448</ele>
        <time>2016-03-20T03:05:18Z</time>
      </trkpt>
      <trkpt lat="44.2447" lon="6.6196">
        <ele>1448</ele>
        <time>2016-03-20T03:07:18Z</time>
      </trkpt>
      <trkpt lat="44.24472" lon="6.61945">
        <ele>1449</ele>
        <time>2016-03-20T03:09:18Z</time>
      </trkpt>
      <trkpt lat="44.24472" lon="6.61937">
        <ele>1449</ele>
        <time>2016-03-20T03:11:18Z</time>
      </trkpt>
      <trkpt lat="44.24474" lon="6.619">
        <ele>1448</ele>
        <time>2016-03-20T03:13:18Z</time>
      </trkpt>
      <trkpt lat="44.24475" lon="6.61894">
        <ele>1448</ele>
        <time>2016-03-20T03:15:18Z</time>
      </trkpt>
      <trkpt lat="44.24476" lon="6.61887">
        <ele>1448</ele>
        <time>2016-03-20T03:17:18Z</time>
      </trkpt>
      <trkpt lat="44.24477" lon="6.61881">
        <ele>1448</ele>
        <time>2016-03-20T03:19:18Z</time>
      </trkpt>
      <trkpt lat="44.24479" lon="6.61874">
        <ele>1448</ele>
        <time>2016-03-20T03:21:18Z</time>
      </trkpt>
      <trkpt lat="44.24481" lon="6.61869">
        <ele>1448</ele>
        <time>2016-03-20T03:23:18Z</time>
      </trkpt>
      <trkpt lat="44.24486" lon="6.61861">
        <ele>1448</ele>
        <time>2016-03-20T03:25:18Z</time>
      </trkpt>
      <trkpt lat="44.24491" lon="6.61857">
        <ele>1448</ele>
        <time>2016-03-20T03:27:18Z</time>
      </trkpt>
      <trkpt lat="44.24497" lon="6.61853">
        <ele>1449</ele>
        <time>2016-03-20T03:29:18Z</time>
      </trkpt>
      <trkpt lat="44.24503" lon="6.61847">
        <ele>1450</ele>
        <time>2016-03-20T03:31:18Z</time>
      </trkpt>
      <trkpt lat="44.24509" lon="6.6184">
        <ele>1451</ele>
        <time>2016-03-20T03:33:18Z</time>
      </trkpt>
      <trkpt lat="44.24514" lon="6.61832">
        <ele>1453</ele>
        <time>2016-03-20T03:35:18Z</time>
      </trkpt>
      <trkpt lat="44.24517" lon="6.61822">
        <ele>1454</ele>
        <time>2016-03-20T03:37:18Z</time>
      </trkpt>
      <trkpt lat="44.24521" lon="6.61803">
        <ele>1455</ele>
        <time>2016-03-20T03:39:18Z</time>
      </trkpt>
      <trkpt lat="44.24524" lon="6.61784">
        <ele>1456</ele>
        <time>2016-03-20T03:41:18Z</time>
      </trkpt>
      <trkpt lat="44.24525" lon="6.61774">
        <ele>1457</ele>
        <time>2016-03-20T03:43:18Z</time>
      </trkpt>
      <trkpt lat="44.24525" lon="6.61767">
        <ele>1457</ele>
        <time>2016-03-20T03:45:18Z</time>
      </trkpt>
      <trkpt lat="44.24526" lon="6.61761">
        <ele>1457</ele>
        <time>2016-03-20T03:47:18Z</time>
      </trkpt>
      <trkpt lat="44.24526" lon="6.61752">
        <ele>1457</ele>
        <time>2016-03-20T03:49:18Z</time>
      </trkpt>
      <trkpt lat="44.24524" lon="6.61742">
        <ele>1457</ele>
        <time>2016-03-20T03:51:18Z</time>
      </trkpt>
      <trkpt lat="44.24522" lon="6.61735">
        <ele>1458</ele>
        <time>2016-03-20T03:53:18Z</time>
      </trkpt>
      <trkpt lat="44.2452" lon="6.6173">
        <ele>1458</ele>
        <time>2016-03-20T03:55:18Z</time>
      </trkpt>
      <trkpt lat="44.24517" lon="6.61718">
        <ele>1458</ele>
        <time>2016-03-20T03:57:18Z</time>
      </trkpt>
      <trkpt lat="44.24514" lon="6.61712">
        <ele>1457</ele>
        <time>2016-03-20T03:59:18Z</time>
      </trkpt>
      <trkpt lat="44.24511" lon="6.61706">
        <ele>1457</ele>
        <time>2016-03-20T04:01:18Z</time>
      </trkpt>
      <trkpt lat="44.24509" lon="6.617">
        <ele>1457</ele>
        <time>2016-03-20T04:03:18Z</time>
      </trkpt>
      <trkpt lat="44.24505" lon="6.61695">
        <ele>1455</ele>
        <time>2016-03-20T04:05:18Z</time>
      </trkpt>
      <trkpt lat="44.24502" lon="6.6169">
        <ele>1454</ele>
        <time>2016-03-20T04:07:18Z</time>
      </trkpt>
      <trkpt lat="44.24498" lon="6.61685">
        <ele>1454</ele>
        <time>2016-03-20T04:09:18Z</time>
      </trkpt>
      <trkpt lat="44.24494" lon="6.61679">
        <ele>1454</ele>
        <time>2016-03-20T04:11:18Z</time>
      </trkpt>
      <trkpt lat="44.2449" lon="6.61674">
        <ele>1454</ele>
        <time>2016-03-20T04:13:18Z</time>
      </trkpt>
      <trkpt lat="44.24487" lon="6.61668">
        <ele>1454</ele>
        <time>2016-03-20T04:15:18Z</time>
      </trkpt>
      <trkpt lat="44.24483" lon="6.61661">
        <ele>1455</ele>
        <time>2016-03-20T04:17:18Z</time>
      </trkpt>
      <trkpt lat="44.2448" lon="6.61654">
        <ele>1456</ele>
        <time>2016-03-20T04:19:18Z</time>
      </trkpt>
      <trkpt lat="44.24478" lon="6.61647">
        <ele>1456</ele>
        <time>2016-03-20T04:21:18Z</time>
      </trkpt>
      <trkpt lat="44.24477" lon="6.61642">
        <ele>1457</ele>
        <time>2016-03-20T04:23:18Z</time>
      </trkpt>
      <trkpt lat="44.24477" lon="6.61638">
        <ele>1458</ele>
        <time>2016-03-20T04:25:18Z</time>
      </trkpt>
      <trkpt lat="44.24477" lon="6.61631">
        <ele>1459</ele>
        <time>2016-03-20T04:27:18Z</time>
      </trkpt>
      <trkpt lat="44.24477" lon="6.61615">
        <ele>1462</ele>
        <time>2016-03-20T04:29:18Z</time>
      </trkpt>
      <trkpt lat="44.24476" lon="6.61608">
        <ele>1462</ele>
        <time>2016-03-20T04:31:18Z</time>
      </trkpt>
      <trkpt lat="44.24475" lon="6.616">
        <ele>1463</ele>
        <time>2016-03-20T04:33:18Z</time>
      </trkpt>
      <trkpt lat="44.24474" lon="6.61591">
        <ele>1465</ele>
        <time>2016-03-20T04:35:18Z</time>
      </trkpt>
      <trkpt lat="44.24472" lon="6.61584">
        <ele>1465</ele>
        <time>2016-03-20T04:37:18Z</time>
      </trkpt>
      <trkpt lat="44.2447" lon="6.61577">
        <ele>1465</ele>
        <time>2016-03-20T04:39:18Z</time>
      </trkpt>
      <trkpt lat="44.24469" lon="6.6157">
        <ele>1464</ele>
        <time>2016-03-20T04:41:18Z</time>
      </trkpt>
      <trkpt lat="44.24469" lon="6.61563">
        <ele>1464</ele>
        <time>2016-03-20T04:43:18Z</time>
      </trkpt>
      <trkpt lat="44.24469" lon="6.61558">
        <ele>1464</ele>
        <time>2016-03-20T04:45:18Z</time>
      </trkpt>
      <trkpt lat="44.2447" lon="6.61549">
        <ele>1465</ele>
        <time>2016-03-20T04:47:18Z</time>
      </trkpt>
      <trkpt lat="44.24472" lon="6.61544">
        <ele>1465</ele>
        <time>2016-03-20T04:49:18Z</time>
      </trkpt>
      <trkpt lat="44.24478" lon="6.6153">
        <ele>1467</ele>
        <time>2016-03-20T04:51:18Z</time>
      </trkpt>
      <trkpt lat="44.24479" lon="6.61526">
        <ele>1467</ele>
        <time>2016-03-20T04:53:18Z</time>
      </trkpt>
      <trkpt lat="44.2448" lon="6.6152">
        <ele>1467</ele>
        <time>2016-03-20T04:55:18Z</time>
      </trkpt>
      <trkpt lat="44.24481" lon="6.61514">
        <ele>1467</ele>
        <time>2016-03-20T04:57:18Z</time>
      </trkpt>
      <trkpt lat="44.24481" lon="6.61505">
        <ele>1467</ele>
        <time>2016-03-20T04:59:18Z</time>
      </trkpt>
      <trkpt lat="44.24479" lon="6.6149">
        <ele>1466</ele>
        <time>2016-03-20T05:01:18Z</time>
      </trkpt>
      <trkpt lat="44.24479" lon="6.61482">
        <ele>1465</ele>
        <time>2016-03-20T05:03:18Z</time>
      </trkpt>
      <trkpt lat="44.24478" lon="6.61475">
        <ele>1465</ele>
        <time>2016-03-20T05:05:18Z</time>
      </trkpt>
      <trkpt lat="44.24479" lon="6.61467">
        <ele>1465</ele>
        <time>2016-03-20T05:07:18Z</time>
      </trkpt>
      <trkpt lat="44.24479" lon="6.61459">
        <ele>1464</ele>
        <time>2016-03-20T05:09:18Z</time>
      </trkpt>
      <trkpt lat="44.24481" lon="6.61443">
        <ele>1464</ele>
        <time>2016-03-20T05:11:18Z</time>
      </trkpt>
      <trkpt lat="44.24485" lon="6.61426">
        <ele>1463</ele>
        <time>2016-03-20T05:13:18Z</time>
      </trkpt>
      <trkpt lat="44.24489" lon="6.61409">
        <ele>1461</ele>
        <time>2016-03-20T05:15:18Z</time>
      </trkpt>
      <trkpt lat="44.24495" lon="6.61391">
        <ele>1460</ele>
        <time>2016-03-20T05:17:18Z</time>
      </trkpt>
      <trkpt lat="44.24498" lon="6.61382">
        <ele>1459</ele>
        <time>2016-03-20T05:19:18Z</time>
      </trkpt>
      <trkpt lat="44.24502" lon="6.61373">
        <ele>1459</ele>
        <time>2016-03-20T05:21:18Z</time>
      </trkpt>
      <trkpt lat="44.24505" lon="6.61365">
        <ele>1460</ele>
        <time>2016-03-20T05:23:18Z</time>
      </trkpt>
      <trkpt lat="44.24509" lon="6.61353">
        <ele>1461</ele>
        <time>2016-03-20T05:25:18Z</time>
      </trkpt>
      <trkpt lat="44.24524" lon="6.61311">
        <ele>1466</ele>
        <time>2016-03-20T05:27:18Z</time>
      </trkpt>
      <trkpt lat="44.24538" lon="6.61266">
        <ele>1467</ele>
        <time>2016-03-20T05:29:18Z</time>
      </trkpt>
      <trkpt lat="44.24543" lon="6.61254">
        <ele>1468</ele>
        <time>2016-03-20T05:31:18Z</time>
      </trkpt>
      <trkpt lat="44.24564" lon="6.61209">
        <ele>1472</ele>
        <time>2016-03-20T05:33:18Z</time>
      </trkpt>
      <trkpt lat="44.24575" lon="6.61185">
        <ele>1472</ele>
        <time>2016-03-20T05:35:18Z</time>
      </trkpt>
      <trkpt lat="44.24579" lon="6.61172">
        <ele>1471</ele>
        <time>2016-03-20T05:37:18Z</time>
      </trkpt>
      <trkpt lat="44.24584" lon="6.61159">
        <ele>1471</ele>
        <time>2016-03-20T05:39:18Z</time>
      </trkpt>
      <trkpt lat="44.24588" lon="6.61146">
        <ele>1472</ele>
        <time>2016-03-20T05:41:18Z</time>
      </trkpt>
      <trkpt lat="44.24592" lon="6.61132">
        <ele>1473</ele>
        <time>2016-03-20T05:43:18Z</time>
      </trkpt>
      <trkpt lat="44.24595" lon="6.61118">
        <ele>1473</ele>
        <time>2016-03-20T05:45:18Z</time>
      </trkpt>
      <trkpt lat="44.24603" lon="6.61076">
        <ele>1475</ele>
        <time>2016-03-20T05:47:18Z</time>
      </trkpt>
      <trkpt lat="44.24611" lon="6.61034">
        <ele>1476</ele>
        <time>2016-03-20T05:49:18Z</time>
      </trkpt>
      <trkpt lat="44.24618" lon="6.61008">
        <ele>1478</ele>
        <time>2016-03-20T05:51:18Z</time>
      </trkpt>
      <trkpt lat="44.24624" lon="6.60982">
        <ele>1480</ele>
        <time>2016-03-20T05:53:18Z</time>
      </trkpt>
      <trkpt lat="44.24631" lon="6.60956">
        <ele>1481</ele>
        <time>2016-03-20T05:55:18Z</time>
      </trkpt>
      <trkpt lat="44.24635" lon="6.60942">
        <ele>1482</ele>
        <time>2016-03-20T05:57:18Z</time>
      </trkpt>
      <trkpt lat="44.24643" lon="6.60917">
        <ele>1482</ele>
        <time>2016-03-20T05:59:18Z</time>
      </trkpt>
      <trkpt lat="44.24654" lon="6.60881">
        <ele>1481</ele>
        <time>2016-03-20T06:01:18Z</time>
      </trkpt>
      <trkpt lat="44.24667" lon="6.60844">
        <ele>1479</ele>
        <time>2016-03-20T06:03:18Z</time>
      </trkpt>
      <trkpt lat="44.24681" lon="6.60809">
        <ele>1483</ele>
        <time>2016-03-20T06:05:18Z</time>
      </trkpt>
      <trkpt lat="44.24684" lon="6.60798">
        <ele>1484</ele>
        <time>2016-03-20T06:07:18Z</time>
      </trkpt>
      <trkpt lat="44.24688" lon="6.60786">
        <ele>1486</ele>
        <time>2016-03-20T06:09:18Z</time>
      </trkpt>
      <trkpt lat="44.24691" lon="6.60774">
        <ele>1486</ele>
        <time>2016-03-20T06:11:18Z</time>
      </trkpt>
      <trkpt lat="44.24694" lon="6.60761">
        <ele>1487</ele>
        <time>2016-03-20T06:13:18Z</time>
      </trkpt>
      <trkpt lat="44.24696" lon="6.60748">
        <ele>1487</ele>
        <time>2016-03-20T06:15:18Z</time>
      </trkpt>
      <trkpt lat="44.24698" lon="6.60736">
        <ele>1488</ele>
        <time>2016-03-20T06:17:18Z</time>
      </trkpt>
      <trkpt lat="44.24699" lon="6.60723">
        <ele>1489</ele>
        <time>2016-03-20T06:19:18Z</time>
      </trkpt>
      <trkpt lat="44.24699" lon="6.60711">
        <ele>1489</ele>
        <time>2016-03-20T06:21:18Z</time>
      </trkpt>
      <trkpt lat="44.247" lon="6.60698">
        <ele>1490</ele>
        <time>2016-03-20T06:23:18Z</time>
      </trkpt>
      <trkpt lat="44.24699" lon="6.60686">
        <ele>1490</ele>
        <time>2016-03-20T06:25:18Z</time>
      </trkpt>
      <trkpt lat="44.24698" lon="6.60673">
        <ele>1490</ele>
        <time>2016-03-20T06:27:18Z</time>
      </trkpt>
      <trkpt lat="44.24696" lon="6.60661">
        <ele>1489</ele>
        <time>2016-03-20T06:29:18Z</time>
      </trkpt>
      <trkpt lat="44.24689" lon="6.60619">
        <ele>1486</ele>
        <time>2016-03-20T06:31:18Z</time>
      </trkpt>
      <trkpt lat="44.24688" lon="6.60612">
        <ele>1486</ele>
        <time>2016-03-20T06:33:18Z</time>
      </trkpt>
      <trkpt lat="44.24687" lon="6.606">
        <ele>1485</ele>
        <time>2016-03-20T06:35:18Z</time>
      </trkpt>
      <trkpt lat="44.24686" lon="6.60588">
        <ele>1485</ele>
        <time>2016-03-20T06:37:18Z</time>
      </trkpt>
      <trkpt lat="44.24687" lon="6.60575">
        <ele>1485</ele>
        <time>2016-03-20T06:39:18Z</time>
      </trkpt>
      <trkpt lat="44.24688" lon="6.60564">
        <ele>1485</ele>
        <time>2016-03-20T06:41:18Z</time>
      </trkpt>
      <trkpt lat="44.2469" lon="6.60552">
        <ele>1485</ele>
        <time>2016-03-20T06:43:18Z</time>
      </trkpt>
      <trkpt lat="44.24693" lon="6.60542">
        <ele>1485</ele>
        <time>2016-03-20T06:45:18Z</time>
      </trkpt>
      <trkpt lat="44.24698" lon="6.6053">
        <ele>1487</ele>
        <time>2016-03-20T06:47:18Z</time>
      </trkpt>
      <trkpt lat="44.24702" lon="6.6052">
        <ele>1488</ele>
        <time>2016-03-20T06:49:18Z</time>
      </trkpt>
      <trkpt lat="44.24708" lon="6.6051">
        <ele>1490</ele>
        <time>2016-03-20T06:51:18Z</time>
      </trkpt>
      <trkpt lat="44.24714" lon="6.60501">
        <ele>1492</ele>
        <time>2016-03-20T06:53:18Z</time>
      </trkpt>
      <trkpt lat="44.2472" lon="6.60493">
        <ele>1493</ele>
        <time>2016-03-20T06:55:18Z</time>
      </trkpt>
      <trkpt lat="44.24761" lon="6.60444">
        <ele>1498</ele>
        <time>2016-03-20T06:57:18Z</time>
      </trkpt>
      <trkpt lat="44.24816" lon="6.60382">
        <ele>1505</ele>
        <time>2016-03-20T06:59:18Z</time>
      </trkpt>
      <trkpt lat="44.24821" lon="6.60376">
        <ele>1505</ele>
        <time>2016-03-20T07:01:18Z</time>
      </trkpt>
      <trkpt lat="44.24825" lon="6.60371">
        <ele>1505</ele>
        <time>2016-03-20T07:03:18Z</time>
      </trkpt>
      <trkpt lat="44.24829" lon="6.60367">
        <ele>1505</ele>
        <time>2016-03-20T07:05:18Z</time>
      </trkpt>
      <trkpt lat="44.24834" lon="6.6036">
        <ele>1504</ele>
        <time>2016-03-20T07:07:18Z</time>
      </trkpt>
      <trkpt lat="44.24842" lon="6.60351">
        <ele>1504</ele>
        <time>2016-03-20T07:09:18Z</time>
      </trkpt>
      <trkpt lat="44.24852" lon="6.60342">
        <ele>1505</ele>
        <time>2016-03-20T07:11:18Z</time>
      </trkpt>
      <trkpt lat="44.24861" lon="6.60333">
        <ele>1505</ele>
        <time>2016-03-20T07:13:18Z</time>
      </trkpt>
      <trkpt lat="44.24871" lon="6.60324">
        <ele>1507</ele>
        <time>2016-03-20T07:15:18Z</time>
      </trkpt>
      <trkpt lat="44.24879" lon="6.60317">
        <ele>1509</ele>
        <time>2016-03-20T07:17:18Z</time>
      </trkpt>
      <trkpt lat="44.24883" lon="6.60313">
        <ele>1510</ele>
        <time>2016-03-20T07:19:18Z</time>
      </trkpt>
      <trkpt lat="44.24888" lon="6.60307">
        <ele>1511</ele>
        <time>2016-03-20T07:21:18Z</time>
      </trkpt>
      <trkpt lat="44.24891" lon="6.60302">
        <ele>1511</ele>
        <time>2016-03-20T07:23:18Z</time>
      </trkpt>
      <trkpt lat="44.24894" lon="6.60296">
        <ele>1512</ele>
        <time>2016-03-20T07:25:18Z</time>
      </trkpt>
      <trkpt lat="44.24895" lon="6.60291">
        <ele>1511</ele>
        <time>2016-03-20T07:27:18Z</time>
      </trkpt>
      <trkpt lat="44.24896" lon="6.60284">
        <ele>1510</ele>
        <time>2016-03-20T07:29:18Z</time>
      </trkpt>
      <trkpt lat="44.24897" lon="6.60279">
        <ele>1510</ele>
        <time>2016-03-20T07:31:18Z</time>
      </trkpt>
      <trkpt lat="44.24896" lon="6.60273">
        <ele>1509</ele>
        <time>2016-03-20T07:33:18Z</time>
      </trkpt>
      <trkpt lat="44.24896" lon="6.60267">
        <ele>1507</ele>
        <time>2016-03-20T07:35:18Z</time>
      </trkpt>
      <trkpt lat="44.24895" lon="6.60256">
        <ele>1505</ele>
        <time>2016-03-20T07:37:18Z</time>
      </trkpt>
      <trkpt lat="44.24895" lon="6.6025">
        <ele>1504</ele>
        <time>2016-03-20T07:39:18Z</time>
      </trkpt>
      <trkpt lat="44.24896" lon="6.60244">
        <ele>1504</ele>
        <time>2016-03-20T07:41:18Z</time>
      </trkpt>
      <trkpt lat="44.24897" lon="6.60239">
        <ele>1503</ele>
        <time>2016-03-20T07:43:18Z</time>
      </trkpt>
      <trkpt lat="44.24898" lon="6.60234">
        <ele>1503</ele>
        <time>2016-03-20T07:45:18Z</time>
      </trkpt>
      <trkpt lat="44.249" lon="6.60229">
        <ele>1502</ele>
        <time>2016-03-20T07:47:18Z</time>
      </trkpt>
      <trkpt lat="44.24903" lon="6.60224">
        <ele>1503</ele>
        <time>2016-03-20T07:49:18Z</time>
      </trkpt>
      <trkpt lat="44.24908" lon="6.60215">
        <ele>1503</ele>
        <time>2016-03-20T07:51:18Z</time>
      </trkpt>
      <trkpt lat="44.24911" lon="6.60211">
        <ele>1503</ele>
        <time>2016-03-20T07:53:18Z</time>
      </trkpt>
      <trkpt lat="44.24914" lon="6.60207">
        <ele>1503</ele>
        <time>2016-03-20T07:55:18Z</time>
      </trkpt>
      <trkpt lat="44.24917" lon="6.60204">
        <ele>1504</ele>
        <time>2016-03-20T07:57:18Z</time>
      </trkpt>
      <trkpt lat="44.24923" lon="6.60196">
        <ele>1505</ele>
        <time>2016-03-20T07:59:18Z</time>
      </trkpt>
      <trkpt lat="44.24926" lon="6.60192">
        <ele>1505</ele>
        <time>2016-03-20T08:01:18Z</time>
      </trkpt>
      <trkpt lat="44.24928" lon="6.60188">
        <ele>1505</ele>
        <time>2016-03-20T08:03:18Z</time>
      </trkpt>
      <trkpt lat="44.24931" lon="6.60183">
        <ele>1505</ele>
        <time>2016-03-20T08:05:18Z</time>
      </trkpt>
      <trkpt lat="44.24932" lon="6.60179">
        <ele>1505</ele>
        <time>2016-03-20T08:07:18Z</time>
      </trkpt>
      <trkpt lat="44.24938" lon="6.60166">
        <ele>1505</ele>
        <time>2016-03-20T08:09:18Z</time>
      </trkpt>
      <trkpt lat="44.24941" lon="6.60158">
        <ele>1504</ele>
        <time>2016-03-20T08:11:18Z</time>
      </trkpt>
      <trkpt lat="44.24943" lon="6.60154">
        <ele>1503</ele>
        <time>2016-03-20T08:13:18Z</time>
      </trkpt>
      <trkpt lat="44.24945" lon="6.6015">
        <ele>1503</ele>
        <time>2016-03-20T08:15:18Z</time>
      </trkpt>
      <trkpt lat="44.24947" lon="6.60147">
        <ele>1503</ele>
        <time>2016-03-20T08:17:18Z</time>
      </trkpt>
      <trkpt lat="44.24949" lon="6.60144">
        <ele>1503</ele>
        <time>2016-03-20T08:19:18Z</time>
      </trkpt>
      <trkpt lat="44.24952" lon="6.60142">
        <ele>1503</ele>
        <time>2016-03-20T08:21:18Z</time>
      </trkpt>
      <trkpt lat="44.24956" lon="6.60141">
        <ele>1504</ele>
        <time>2016-03-20T08:23:18Z</time>
      </trkpt>
      <trkpt lat="44.2496" lon="6.6014">
        <ele>1505</ele>
        <time>2016-03-20T08:25:18Z</time>
      </trkpt>
      <trkpt lat="44.24964" lon="6.6014">
        <ele>1507</ele>
        <time>2016-03-20T08:27:18Z</time>
      </trkpt>
      <trkpt lat="44.24968" lon="6.60139">
        <ele>1508</ele>
        <time>2016-03-20T08:29:18Z</time>
      </trkpt>
      <trkpt lat="44.24973" lon="6.60138">
        <ele>1509</ele>
        <time>2016-03-20T08:31:18Z</time>
      </trkpt>
      <trkpt lat="44.24978" lon="6.60136">
        <ele>1510</ele>
        <time>2016-03-20T08:33:18Z</time>
      </trkpt>
      <trkpt lat="44.24984" lon="6.60132">
        <ele>1511</ele>
        <time>2016-03-20T08:35:18Z</time>
      </trkpt>
      <trkpt lat="44.24989" lon="6.60129">
        <ele>1511</ele>
        <time>2016-03-20T08:37:18Z</time>
      </trkpt>
      <trkpt lat="44.24993" lon="6.60124">
        <ele>1510</ele>
        <time>2016-03-20T08:39:18Z</time>
      </trkpt>
      <trkpt lat="44.24999" lon="6.6012">
        <ele>1511</ele>
        <time>2016-03-20T08:41:18Z</time>
      </trkpt>
      <trkpt lat="44.25006" lon="6.60117">
        <ele>1512</ele>
        <time>2016-03-20T08:43:18Z</time>
      </trkpt>
      <trkpt lat="44.25009" lon="6.60115">
        <ele>1512</ele>
        <time>2016-03-20T08:45:18Z</time>
      </trkpt>
      <trkpt lat="44.25015" lon="6.60112">
        <ele>1513</ele>
        <time>2016-03-20T08:47:18Z</time>
      </trkpt>
      <trkpt lat="44.25021" lon="6.60109">
        <ele>1514</ele>
        <time>2016-03-20T08:49:18Z</time>
      </trkpt>
      <trkpt lat="44.25025" lon="6.60105">
        <ele>1514</ele>
        <time>2016-03-20T08:51:18Z</time>
      </trkpt>
      <trkpt lat="44.2503" lon="6.601">
        <ele>1513</ele>
        <time>2016-03-20T08:53:18Z</time>
      </trkpt>
      <trkpt lat="44.25035" lon="6.60096">
        <ele>1513</ele>
        <time>2016-03-20T08:55:18Z</time>
      </trkpt>
      <trkpt lat="44.2504" lon="6.60092">
        <ele>1513</ele>
        <time>2016-03-20T08:57:18Z</time>
      </trkpt>
      <trkpt lat="44.25057" lon="6.60085">
        <ele>1516</ele>
        <time>2016-03-20T08:59:18Z</time>
      </trkpt>
      <trkpt lat="44.25075" lon="6.60075">
        <ele>1518</ele>
        <time>2016-03-20T09:01:18Z</time>
      </trkpt>
      <trkpt lat="44.25081" lon="6.60072">
        <ele>1519</ele>
        <time>2016-03-20T09:03:18Z</time>
      </trkpt>
      <trkpt lat="44.25087" lon="6.6007">
        <ele>1520</ele>
        <time>2016-03-20T09:05:18Z</time>
      </trkpt>
      <trkpt lat="44.25093" lon="6.60066">
        <ele>1521</ele>
        <time>2016-03-20T09:07:18Z</time>
      </trkpt>
      <trkpt lat="44.25099" lon="6.60062">
        <ele>1522</ele>
        <time>2016-03-20T09:09:18Z</time>
      </trkpt>
      <trkpt lat="44.25105" lon="6.60058">
        <ele>1523</ele>
        <time>2016-03-20T09:11:18Z</time>
      </trkpt>
      <trkpt lat="44.2511" lon="6.60054">
        <ele>1523</ele>
        <time>2016-03-20T09:13:18Z</time>
      </trkpt>
      <trkpt lat="44.25116" lon="6.60049">
        <ele>1524</ele>
        <time>2016-03-20T09:15:18Z</time>
      </trkpt>
      <trkpt lat="44.25128" lon="6.60038">
        <ele>1524</ele>
        <time>2016-03-20T09:17:18Z</time>
      </trkpt>
      <trkpt lat="44.25136" lon="6.60034">
        <ele>1526</ele>
        <time>2016-03-20T09:19:18Z</time>
      </trkpt>
      <trkpt lat="44.25143" lon="6.6003">
        <ele>1528</ele>
        <time>2016-03-20T09:21:18Z</time>
      </trkpt>
      <trkpt lat="44.25146" lon="6.60028">
        <ele>1528</ele>
        <time>2016-03-20T09:23:18Z</time>
      </trkpt>
      <trkpt lat="44.2515" lon="6.60025">
        <ele>1529</ele>
        <time>2016-03-20T09:25:18Z</time>
      </trkpt>
      <trkpt lat="44.25153" lon="6.60021">
        <ele>1528</ele>
        <time>2016-03-20T09:27:18Z</time>
      </trkpt>
      <trkpt lat="44.25157" lon="6.6001">
        <ele>1526</ele>
        <time>2016-03-20T09:29:18Z</time>
      </trkpt>
      <trkpt lat="44.25161" lon="6.59998">
        <ele>1524</ele>
        <time>2016-03-20T09:31:18Z</time>
      </trkpt>
      <trkpt lat="44.25163" lon="6.5999">
        <ele>1523</ele>
        <time>2016-03-20T09:33:18Z</time>
      </trkpt>
      <trkpt lat="44.25166" lon="6.59981">
        <ele>1521</ele>
        <time>2016-03-20T09:35:18Z</time>
      </trkpt>
      <trkpt lat="44.25169" lon="6.59972">
        <ele>1520</ele>
        <time>2016-03-20T09:37:18Z</time>
      </trkpt>
      <trkpt lat="44.25173" lon="6.59962">
        <ele>1519</ele>
        <time>2016-03-20T09:39:18Z</time>
      </trkpt>
      <trkpt lat="44.25176" lon="6.59954">
        <ele>1519</ele>
        <time>2016-03-20T09:41:18Z</time>
      </trkpt>
      <trkpt lat="44.25185" lon="6.59936">
        <ele>1518</ele>
        <time>2016-03-20T09:43:18Z</time>
      </trkpt>
      <trkpt lat="44.25194" lon="6.59921">
        <ele>1518</ele>
        <time>2016-03-20T09:45:18Z</time>
      </trkpt>
      <trkpt lat="44.25199" lon="6.59914">
        <ele>1519</ele>
        <time>2016-03-20T09:47:18Z</time>
      </trkpt>
      <trkpt lat="44.25205" lon="6.59907">
        <ele>1521</ele>
        <time>2016-03-20T09:49:18Z</time>
      </trkpt>
      <trkpt lat="44.25211" lon="6.59901">
        <ele>1522</ele>
        <time>2016-03-20T09:51:18Z</time>
      </trkpt>
      <trkpt lat="44.25221" lon="6.59889">
        <ele>1524</ele>
        <time>2016-03-20T09:53:18Z</time>
      </trkpt>
      <trkpt lat="44.25232" lon="6.59876">
        <ele>1525</ele>
        <time>2016-03-20T09:55:18Z</time>
      </trkpt>
      <trkpt lat="44.25242" lon="6.59863">
        <ele>1526</ele>
        <time>2016-03-20T09:57:18Z</time>
      </trkpt>
      <trkpt lat="44.25251" lon="6.5985">
        <ele>1525</ele>
        <time>2016-03-20T09:59:18Z</time>
      </trkpt>
      <trkpt lat="44.25265" lon="6.59832">
        <ele>1524</ele>
        <time>2016-03-20T10:01:18Z</time>
      </trkpt>
      <trkpt lat="44.25269" lon="6.59829">
        <ele>1524</ele>
        <time>2016-03-20T10:03:18Z</time>
      </trkpt>
      <trkpt lat="44.25275" lon="6.59826">
        <ele>1526</ele>
        <time>2016-03-20T10:05:18Z</time>
      </trkpt>
      <trkpt lat="44.2528" lon="6.59824">
        <ele>1527</ele>
        <time>2016-03-20T10:07:18Z</time>
      </trkpt>
      <trkpt lat="44.25285" lon="6.59824">
        <ele>1529</ele>
        <time>2016-03-20T10:09:18Z</time>
      </trkpt>
      <trkpt lat="44.25296" lon="6.59826">
        <ele>1533</ele>
        <time>2016-03-20T10:11:18Z</time>
      </trkpt>
      <trkpt lat="44.25311" lon="6.59832">
        <ele>1539</ele>
        <time>2016-03-20T10:13:18Z</time>
      </trkpt>
      <trkpt lat="44.25325" lon="6.59839">
        <ele>1545</ele>
        <time>2016-03-20T10:15:18Z</time>
      </trkpt>
      <trkpt lat="44.25329" lon="6.59842">
        <ele>1547</ele>
        <time>2016-03-20T10:17:18Z</time>
      </trkpt>
      <trkpt lat="44.25333" lon="6.59843">
        <ele>1549</ele>
        <time>2016-03-20T10:19:18Z</time>
      </trkpt>
      <trkpt lat="44.25339" lon="6.59843">
        <ele>1551</ele>
        <time>2016-03-20T10:21:18Z</time>
      </trkpt>
      <trkpt lat="44.25344" lon="6.59839">
        <ele>1552</ele>
        <time>2016-03-20T10:23:18Z</time>
      </trkpt>
      <trkpt lat="44.25348" lon="6.59834">
        <ele>1553</ele>
        <time>2016-03-20T10:25:18Z</time>
      </trkpt>
      <trkpt lat="44.2535" lon="6.59828">
        <ele>1553</ele>
        <time>2016-03-20T10:27:18Z</time>
      </trkpt>
      <trkpt lat="44.2535" lon="6.59827">
        <ele>1553</ele>
        <time>2016-03-20T10:29:18Z</time>
      </trkpt>
      <trkpt lat="44.25351" lon="6.59826">
        <ele>1553</ele>
        <time>2016-03-20T10:31:18Z</time>
      </trkpt>
      <trkpt lat="44.2535" lon="6.59816">
        <ele>1552</ele>
        <time>2016-03-20T10:33:18Z</time>
      </trkpt>
      <trkpt lat="44.25349" lon="6.5981">
        <ele>1551</ele>
        <time>2016-03-20T10:35:18Z</time>
      </trkpt>
      <trkpt lat="44.25346" lon="6.59804">
        <ele>1549</ele>
        <time>2016-03-20T10:37:18Z</time>
      </trkpt>
      <trkpt lat="44.25342" lon="6.59798">
        <ele>1547</ele>
        <time>2016-03-20T10:39:18Z</time>
      </trkpt>
      <trkpt lat="44.25339" lon="6.59792">
        <ele>1545</ele>
        <time>2016-03-20T10:41:18Z</time>
      </trkpt>
      <trkpt lat="44.25332" lon="6.5978">
        <ele>1540</ele>
        <time>2016-03-20T10:43:18Z</time>
      </trkpt>
      <trkpt lat="44.25326" lon="6.59767">
        <ele>1537</ele>
        <time>2016-03-20T10:45:18Z</time>
      </trkpt>
      <trkpt lat="44.25324" lon="6.5976">
        <ele>1535</ele>
        <time>2016-03-20T10:47:18Z</time>
      </trkpt>
      <trkpt lat="44.25323" lon="6.59753">
        <ele>1534</ele>
        <time>2016-03-20T10:49:18Z</time>
      </trkpt>
      <trkpt lat="44.25323" lon="6.59746">
        <ele>1533</ele>
        <time>2016-03-20T10:51:18Z</time>
      </trkpt>
      <trkpt lat="44.25324" lon="6.5974">
        <ele>1533</ele>
        <time>2016-03-20T10:53:18Z</time>
      </trkpt>
      <trkpt lat="44.25326" lon="6.59734">
        <ele>1532</ele>
        <time>2016-03-20T10:55:18Z</time>
      </trkpt>
      <trkpt lat="44.25329" lon="6.59729">
        <ele>1532</ele>
        <time>2016-03-20T10:57:18Z</time>
      </trkpt>
      <trkpt lat="44.25333" lon="6.59725">
        <ele>1533</ele>
        <time>2016-03-20T10:59:18Z</time>
      </trkpt>
      <trkpt lat="44.25338" lon="6.59721">
        <ele>1534</ele>
        <time>2016-03-20T11:01:18Z</time>
      </trkpt>
      <trkpt lat="44.25343" lon="6.59717">
        <ele>1536</ele>
        <time>2016-03-20T11:03:18Z</time>
      </trkpt>
      <trkpt lat="44.25349" lon="6.59712">
        <ele>1538</ele>
        <time>2016-03-20T11:05:18Z</time>
      </trkpt>
      <trkpt lat="44.25357" lon="6.59704">
        <ele>1540</ele>
        <time>2016-03-20T11:07:18Z</time>
      </trkpt>
      <trkpt lat="44.25362" lon="6.59697">
        <ele>1540</ele>
        <time>2016-03-20T11:09:18Z</time>
      </trkpt>
      <trkpt lat="44.25367" lon="6.59689">
        <ele>1541</ele>
        <time>2016-03-20T11:11:18Z</time>
      </trkpt>
      <trkpt lat="44.2537" lon="6.59683">
        <ele>1540</ele>
        <time>2016-03-20T11:13:18Z</time>
      </trkpt>
      <trkpt lat="44.25373" lon="6.59675">
        <ele>1540</ele>
        <time>2016-03-20T11:15:18Z</time>
      </trkpt>
      <trkpt lat="44.25378" lon="6.59664">
        <ele>1539</ele>
        <time>2016-03-20T11:17:18Z</time>
      </trkpt>
      <trkpt lat="44.25387" lon="6.59648">
        <ele>1539</ele>
        <time>2016-03-20T11:19:18Z</time>
      </trkpt>
      <trkpt lat="44.25392" lon="6.59639">
        <ele>1538</ele>
        <time>2016-03-20T11:21:18Z</time>
      </trkpt>
      <trkpt lat="44.25397" lon="6.59631">
        <ele>1538</ele>
        <time>2016-03-20T11:23:18Z</time>
      </trkpt>
      <trkpt lat="44.25401" lon="6.59623">
        <ele>1537</ele>
        <time>2016-03-20T11:25:18Z</time>
      </trkpt>
      <trkpt lat="44.25406" lon="6.59616">
        <ele>1536</ele>
        <time>2016-03-20T11:27:18Z</time>
      </trkpt>
      <trkpt lat="44.25412" lon="6.59611">
        <ele>1536</ele>
        <time>2016-03-20T11:29:18Z</time>
      </trkpt>
      <trkpt lat="44.25419" lon="6.59606">
        <ele>1537</ele>
        <time>2016-03-20T11:31:18Z</time>
      </trkpt>
      <trkpt lat="44.25426" lon="6.59604">
        <ele>1540</ele>
        <time>2016-03-20T11:33:18Z</time>
      </trkpt>
      <trkpt lat="44.25432" lon="6.59602">
        <ele>1542</ele>
        <time>2016-03-20T11:35:18Z</time>
      </trkpt>
      <trkpt lat="44.2544" lon="6.59599">
        <ele>1546</ele>
        <time>2016-03-20T11:37:18Z</time>
      </trkpt>
      <trkpt lat="44.25447" lon="6.59595">
        <ele>1548</ele>
        <time>2016-03-20T11:39:18Z</time>
      </trkpt>
      <trkpt lat="44.25454" lon="6.5959">
        <ele>1549</ele>
        <time>2016-03-20T11:41:18Z</time>
      </trkpt>
      <trkpt lat="44.2546" lon="6.59583">
        <ele>1550</ele>
        <time>2016-03-20T11:43:18Z</time>
      </trkpt>
      <trkpt lat="44.25475" lon="6.59564">
        <ele>1551</ele>
        <time>2016-03-20T11:45:18Z</time>
      </trkpt>
      <trkpt lat="44.25479" lon="6.5956">
        <ele>1552</ele>
        <time>2016-03-20T11:47:18Z</time>
      </trkpt>
      <trkpt lat="44.2548" lon="6.59559">
        <ele>1552</ele>
        <time>2016-03-20T11:49:18Z</time>
      </trkpt>
      <trkpt lat="44.25484" lon="6.59555">
        <ele>1552</ele>
        <time>2016-03-20T11:51:18Z</time>
      </trkpt>
      <trkpt lat="44.25489" lon="6.59549">
        <ele>1552</ele>
        <time>2016-03-20T11:53:18Z</time>
      </trkpt>
      <trkpt lat="44.25494" lon="6.59544">
        <ele>1553</ele>
        <time>2016-03-20T11:55:18Z</time>
      </trkpt>
      <trkpt lat="44.25497" lon="6.59539">
        <ele>1552</ele>
        <time>2016-03-20T11:57:18Z</time>
      </trkpt>
      <trkpt lat="44.25522" lon="6.59491">
        <ele>1550</ele>
        <time>2016-03-20T11:59:18Z</time>
      </trkpt>
      <trkpt lat="44.25525" lon="6.59486">
        <ele>1550</ele>
        <time>2016-03-20T12:01:18Z</time>
      </trkpt>
      <trkpt lat="44.25528" lon="6.5948">
        <ele>1550</ele>
        <time>2016-03-20T12:03:18Z</time>
      </trkpt>
      <trkpt lat="44.25531" lon="6.59474">
        <ele>1550</ele>
        <time>2016-03-20T12:05:18Z</time>
      </trkpt>
      <trkpt lat="44.25534" lon="6.59469">
        <ele>1550</ele>
        <time>2016-03-20T12:07:18Z</time>
      </trkpt>
      <trkpt lat="44.25537" lon="6.59463">
        <ele>1550</ele>
        <time>2016-03-20T12:09:18Z</time>
      </trkpt>
      <trkpt lat="44.25543" lon="6.59454">
        <ele>1551</ele>
        <time>2016-03-20T12:11:18Z</time>
      </trkpt>
      <trkpt lat="44.25548" lon="6.59448">
        <ele>1552</ele>
        <time>2016-03-20T12:13:18Z</time>
      </trkpt>
      <trkpt lat="44.25564" lon="6.59431">
        <ele>1554</ele>
        <time>2016-03-20T12:15:18Z</time>
      </trkpt>
      <trkpt lat="44.25567" lon="6.59427">
        <ele>1554</ele>
        <time>2016-03-20T12:17:18Z</time>
      </trkpt>
      <trkpt lat="44.2557" lon="6.59423">
        <ele>1554</ele>
        <time>2016-03-20T12:19:18Z</time>
      </trkpt>
      <trkpt lat="44.25577" lon="6.59414">
        <ele>1554</ele>
        <time>2016-03-20T12:21:18Z</time>
      </trkpt>
      <trkpt lat="44.25579" lon="6.5941">
        <ele>1554</ele>
        <time>2016-03-20T12:23:18Z</time>
      </trkpt>
      <trkpt lat="44.25582" lon="6.59406">
        <ele>1554</ele>
        <time>2016-03-20T12:25:18Z</time>
      </trkpt>
      <trkpt lat="44.25589" lon="6.59394">
        <ele>1554</ele>
        <time>2016-03-20T12:27:18Z</time>
      </trkpt>
      <trkpt lat="44.25595" lon="6.59384">
        <ele>1555</ele>
        <time>2016-03-20T12:29:18Z</time>
      </trkpt>
      <trkpt lat="44.25599" lon="6.59377">
        <ele>1555</ele>
        <time>2016-03-20T12:31:18Z</time>
      </trkpt>
      <trkpt lat="44.25602" lon="6.59374">
        <ele>1556</ele>
        <time>2016-03-20T12:33:18Z</time>
      </trkpt>
      <trkpt lat="44.25605" lon="6.5937">
        <ele>1556</ele>
        <time>2016-03-20T12:35:18Z</time>
      </trkpt>
      <trkpt lat="44.25608" lon="6.59366">
        <ele>1556</ele>
        <time>2016-03-20T12:37:18Z</time>
      </trkpt>
      <trkpt lat="44.25622" lon="6.59349">
        <ele>1559</ele>
        <time>2016-03-20T12:39:18Z</time>
      </trkpt>
      <trkpt lat="44.25637" lon="6.59327">
        <ele>1560</ele>
        <time>2016-03-20T12:41:18Z</time>
      </trkpt>
      <trkpt lat="44.25639" lon="6.59323">
        <ele>1561</ele>
        <time>2016-03-20T12:43:18Z</time>
      </trkpt>
      <trkpt lat="44.25642" lon="6.59317">
        <ele>1561</ele>
        <time>2016-03-20T12:45:18Z</time>
      </trkpt>
      <trkpt lat="44.25644" lon="6.59314">
        <ele>1561</ele>
        <time>2016-03-20T12:47:18Z</time>
      </trkpt>
      <trkpt lat="44.25645" lon="6.59311">
        <ele>1561</ele>
        <time>2016-03-20T12:49:18Z</time>
      </trkpt>
      <trkpt lat="44.25647" lon="6.59307">
        <ele>1561</ele>
        <time>2016-03-20T12:51:18Z</time>
      </trkpt>
      <trkpt lat="44.25648" lon="6.59303">
        <ele>1561</ele>
        <time>2016-03-20T12:53:18Z</time>
      </trkpt>
      <trkpt lat="44.2565" lon="6.593">
        <ele>1561</ele>
        <time>2016-03-20T12:55:18Z</time>
      </trkpt>
      <trkpt lat="44.25653" lon="6.59291">
        <ele>1561</ele>
        <time>2016-03-20T12:57:18Z</time>
      </trkpt>
      <trkpt lat="44.25658" lon="6.59281">
        <ele>1561</ele>
        <time>2016-03-20T12:59:18Z</time>
      </trkpt>
      <trkpt lat="44.25663" lon="6.59271">
        <ele>1561</ele>
        <time>2016-03-20T13:01:18Z</time>
      </trkpt>
      <trkpt lat="44.25669" lon="6.59263">
        <ele>1562</ele>
        <time>2016-03-20T13:03:18Z</time>
      </trkpt>
      <trkpt lat="44.25674" lon="6.59253">
        <ele>1562</ele>
        <time>2016-03-20T13:05:18Z</time>
      </trkpt>
      <trkpt lat="44.25679" lon="6.59244">
        <ele>1563</ele>
        <time>2016-03-20T13:07:18Z</time>
      </trkpt>
      <trkpt lat="44.25683" lon="6.59233">
        <ele>1562</ele>
        <time>2016-03-20T13:09:18Z</time>
      </trkpt>
      <trkpt lat="44.25685" lon="6.59226">
        <ele>1562</ele>
        <time>2016-03-20T13:11:18Z</time>
      </trkpt>
      <trkpt lat="44.2569" lon="6.59214">
        <ele>1561</ele>
        <time>2016-03-20T13:13:18Z</time>
      </trkpt>
      <trkpt lat="44.25696" lon="6.59205">
        <ele>1562</ele>
        <time>2016-03-20T13:15:18Z</time>
      </trkpt>
      <trkpt lat="44.25701" lon="6.59197">
        <ele>1562</ele>
        <time>2016-03-20T13:17:18Z</time>
      </trkpt>
      <trkpt lat="44.25708" lon="6.59191">
        <ele>1564</ele>
        <time>2016-03-20T13:19:18Z</time>
      </trkpt>
      <trkpt lat="44.25721" lon="6.59176">
        <ele>1566</ele>
        <time>2016-03-20T13:21:18Z</time>
      </trkpt>
      <trkpt lat="44.25728" lon="6.59168">
        <ele>1567</ele>
        <time>2016-03-20T13:23:18Z</time>
      </trkpt>
      <trkpt lat="44.25735" lon="6.59159">
        <ele>1567</ele>
        <time>2016-03-20T13:25:18Z</time>
      </trkpt>
      <trkpt lat="44.25742" lon="6.59148">
        <ele>1567</ele>
        <time>2016-03-20T13:27:18Z</time>
      </trkpt>
      <trkpt lat="44.25784" lon="6.59087">
        <ele>1568</ele>
        <time>2016-03-20T13:29:18Z</time>
      </trkpt>
      <trkpt lat="44.25803" lon="6.59059">
        <ele>1571</ele>
        <time>2016-03-20T13:31:18Z</time>
      </trkpt>
      <trkpt lat="44.25813" lon="6.59041">
        <ele>1573</ele>
        <time>2016-03-20T13:33:18Z</time>
      </trkpt>
      <trkpt lat="44.2582" lon="6.59027">
        <ele>1573</ele>
        <time>2016-03-20T13:35:18Z</time>
      </trkpt>
      <trkpt lat="44.25825" lon="6.59014">
        <ele>1573</ele>
        <time>2016-03-20T13:37:18Z</time>
      </trkpt>
      <trkpt lat="44.25829" lon="6.59004">
        <ele>1573</ele>
        <time>2016-03-20T13:39:18Z</time>
      </trkpt>
      <trkpt lat="44.25832" lon="6.58992">
        <ele>1573</ele>
        <time>2016-03-20T13:41:18Z</time>
      </trkpt>
      <trkpt lat="44.25837" lon="6.58968">
        <ele>1572</ele>
        <time>2016-03-20T13:43:18Z</time>
      </trkpt>
      <trkpt lat="44.25841" lon="6.58944">
        <ele>1571</ele>
        <time>2016-03-20T13:45:18Z</time>
      </trkpt>
      <trkpt lat="44.25847" lon="6.58922">
        <ele>1570</ele>
        <time>2016-03-20T13:47:18Z</time>
      </trkpt>
      <trkpt lat="44.25851" lon="6.58911">
        <ele>1570</ele>
        <time>2016-03-20T13:49:18Z</time>
      </trkpt>
      <trkpt lat="44.25855" lon="6.58903">
        <ele>1570</ele>
        <time>2016-03-20T13:51:18Z</time>
      </trkpt>
      <trkpt lat="44.25859" lon="6.58897">
        <ele>1570</ele>
        <time>2016-03-20T13:53:18Z</time>
      </trkpt>
      <trkpt lat="44.25863" lon="6.58892">
        <ele>1571</ele>
        <time>2016-03-20T13:55:18Z</time>
      </trkpt>
      <trkpt lat="44.25868" lon="6.58886">
        <ele>1571</ele>
        <time>2016-03-20T13:57:18Z</time>
      </trkpt>
      <trkpt lat="44.25876" lon="6.58879">
        <ele>1572</ele>
        <time>2016-03-20T13:59:18Z</time>
      </trkpt>
      <trkpt lat="44.25884" lon="6.58874">
        <ele>1573</ele>
        <time>2016-03-20T14:01:18Z</time>
      </trkpt>
      <trkpt lat="44.25892" lon="6.58871">
        <ele>1575</ele>
        <time>2016-03-20T14:03:18Z</time>
      </trkpt>
      <trkpt lat="44.25901" lon="6.58868">
        <ele>1576</ele>
        <time>2016-03-20T14:05:18Z</time>
      </trkpt>
      <trkpt lat="44.25909" lon="6.58867">
        <ele>1578</ele>
        <time>2016-03-20T14:07:18Z</time>
      </trkpt>
      <trkpt lat="44.25937" lon="6.58863">
        <ele>1585</ele>
        <time>2016-03-20T14:09:18Z</time>
      </trkpt>
      <trkpt lat="44.25946" lon="6.5886">
        <ele>1587</ele>
        <time>2016-03-20T14:11:18Z</time>
      </trkpt>
      <trkpt lat="44.25951" lon="6.58856">
        <ele>1588</ele>
        <time>2016-03-20T14:13:18Z</time>
      </trkpt>
      <trkpt lat="44.25959" lon="6.58851">
        <ele>1589</ele>
        <time>2016-03-20T14:15:18Z</time>
      </trkpt>
      <trkpt lat="44.25966" lon="6.58844">
        <ele>1590</ele>
        <time>2016-03-20T14:17:18Z</time>
      </trkpt>
      <trkpt lat="44.25972" lon="6.58836">
        <ele>1591</ele>
        <time>2016-03-20T14:19:18Z</time>
      </trkpt>
      <trkpt lat="44.25981" lon="6.58821">
        <ele>1592</ele>
        <time>2016-03-20T14:21:18Z</time>
      </trkpt>
      <trkpt lat="44.25985" lon="6.58811">
        <ele>1592</ele>
        <time>2016-03-20T14:23:18Z</time>
      </trkpt>
      <trkpt lat="44.25988" lon="6.58801">
        <ele>1591</ele>
        <time>2016-03-20T14:25:18Z</time>
      </trkpt>
      <trkpt lat="44.25991" lon="6.58784">
        <ele>1590</ele>
        <time>2016-03-20T14:27:18Z</time>
      </trkpt>
      <trkpt lat="44.25993" lon="6.58773">
        <ele>1589</ele>
        <time>2016-03-20T14:29:18Z</time>
      </trkpt>
      <trkpt lat="44.25995" lon="6.58761">
        <ele>1588</ele>
        <time>2016-03-20T14:31:18Z</time>
      </trkpt>
      <trkpt lat="44.25999" lon="6.58738">
        <ele>1586</ele>
        <time>2016-03-20T14:33:18Z</time>
      </trkpt>
      <trkpt lat="44.26003" lon="6.58727">
        <ele>1586</ele>
        <time>2016-03-20T14:35:18Z</time>
      </trkpt>
      <trkpt lat="44.26007" lon="6.58717">
        <ele>1587</ele>
        <time>2016-03-20T14:37:18Z</time>
      </trkpt>
      <trkpt lat="44.26012" lon="6.58707">
        <ele>1587</ele>
        <time>2016-03-20T14:39:18Z</time>
      </trkpt>
      <trkpt lat="44.26018" lon="6.58699">
        <ele>1589</ele>
        <time>2016-03-20T14:41:18Z</time>
      </trkpt>
      <trkpt lat="44.26025" lon="6.58691">
        <ele>1590</ele>
        <time>2016-03-20T14:43:18Z</time>
      </trkpt>
      <trkpt lat="44.26031" lon="6.58685">
        <ele>1592</ele>
        <time>2016-03-20T14:45:18Z</time>
      </trkpt>
      <trkpt lat="44.26041" lon="6.58676">
        <ele>1594</ele>
        <time>2016-03-20T14:47:18Z</time>
      </trkpt>
      <trkpt lat="44.26053" lon="6.58667">
        <ele>1597</ele>
        <time>2016-03-20T14:49:18Z</time>
      </trkpt>
      <trkpt lat="44.26061" lon="6.58661">
        <ele>1599</ele>
        <time>2016-03-20T14:51:18Z</time>
      </trkpt>
      <trkpt lat="44.2607" lon="6.58655">
        <ele>1601</ele>
        <time>2016-03-20T14:53:18Z</time>
      </trkpt>
      <trkpt lat="44.26075" lon="6.58648">
        <ele>1602</ele>
        <time>2016-03-20T14:55:18Z</time>
      </trkpt>
      <trkpt lat="44.26083" lon="6.5864">
        <ele>1603</ele>
        <time>2016-03-20T14:57:18Z</time>
      </trkpt>
      <trkpt lat="44.26089" lon="6.58631">
        <ele>1603</ele>
        <time>2016-03-20T14:59:18Z</time>
      </trkpt>
      <trkpt lat="44.26095" lon="6.58622">
        <ele>1604</ele>
        <time>2016-03-20T15:01:18Z</time>
      </trkpt>
      <trkpt lat="44.26101" lon="6.58612">
        <ele>1604</ele>
        <time>2016-03-20T15:03:18Z</time>
      </trkpt>
      <trkpt lat="44.2611" lon="6.58596">
        <ele>1604</ele>
        <time>2016-03-20T15:05:18Z</time>
      </trkpt>
      <trkpt lat="44.2612" lon="6.5858">
        <ele>1604</ele>
        <time>2016-03-20T15:07:18Z</time>
      </trkpt>
      <trkpt lat="44.26126" lon="6.58572">
        <ele>1605</ele>
        <time>2016-03-20T15:09:18Z</time>
      </trkpt>
      <trkpt lat="44.26131" lon="6.58567">
        <ele>1606</ele>
        <time>2016-03-20T15:11:18Z</time>
      </trkpt>
      <trkpt lat="44.26138" lon="6.5856">
        <ele>1606</ele>
        <time>2016-03-20T15:13:18Z</time>
      </trkpt>
      <trkpt lat="44.26145" lon="6.58554">
        <ele>1607</ele>
        <time>2016-03-20T15:15:18Z</time>
      </trkpt>
      <trkpt lat="44.26168" lon="6.58534">
        <ele>1609</ele>
        <time>2016-03-20T15:17:18Z</time>
      </trkpt>
      <trkpt lat="44.26174" lon="6.5853">
        <ele>1610</ele>
        <time>2016-03-20T15:19:18Z</time>
      </trkpt>
      <trkpt lat="44.26192" lon="6.58516">
        <ele>1610</ele>
        <time>2016-03-20T15:21:18Z</time>
      </trkpt>
      <trkpt lat="44.26209" lon="6.58504">
        <ele>1610</ele>
        <time>2016-03-20T15:23:18Z</time>
      </trkpt>
      <trkpt lat="44.26225" lon="6.58494">
        <ele>1612</ele>
        <time>2016-03-20T15:25:18Z</time>
      </trkpt>
      <trkpt lat="44.26241" lon="6.58483">
        <ele>1614</ele>
        <time>2016-03-20T15:27:18Z</time>
      </trkpt>
      <trkpt lat="44.26248" lon="6.58477">
        <ele>1614</ele>
        <time>2016-03-20T15:29:18Z</time>
      </trkpt>
      <trkpt lat="44.26255" lon="6.58471">
        <ele>1615</ele>
        <time>2016-03-20T15:31:18Z</time>
      </trkpt>
      <trkpt lat="44.26262" lon="6.58465">
        <ele>1616</ele>
        <time>2016-03-20T15:33:18Z</time>
      </trkpt>
      <trkpt lat="44.26269" lon="6.58458">
        <ele>1617</ele>
        <time>2016-03-20T15:35:18Z</time>
      </trkpt>
      <trkpt lat="44.26281" lon="6.58443">
        <ele>1618</ele>
        <time>2016-03-20T15:37:18Z</time>
      </trkpt>
      <trkpt lat="44.2631" lon="6.58409">
        <ele>1620</ele>
        <time>2016-03-20T15:39:18Z</time>
      </trkpt>
      <trkpt lat="44.26316" lon="6.58401">
        <ele>1621</ele>
        <time>2016-03-20T15:41:18Z</time>
      </trkpt>
      <trkpt lat="44.26321" lon="6.58393">
        <ele>1622</ele>
        <time>2016-03-20T15:43:18Z</time>
      </trkpt>
      <trkpt lat="44.26324" lon="6.58388">
        <ele>1623</ele>
        <time>2016-03-20T15:45:18Z</time>
      </trkpt>
      <trkpt lat="44.26325" lon="6.58383">
        <ele>1623</ele>
        <time>2016-03-20T15:47:18Z</time>
      </trkpt>
      <trkpt lat="44.26327" lon="6.58378">
        <ele>1623</ele>
        <time>2016-03-20T15:49:18Z</time>
      </trkpt>
      <trkpt lat="44.26327" lon="6.58373">
        <ele>1623</ele>
        <time>2016-03-20T15:51:18Z</time>
      </trkpt>
      <trkpt lat="44.26328" lon="6.58367">
        <ele>1624</ele>
        <time>2016-03-20T15:53:18Z</time>
      </trkpt>
      <trkpt lat="44.26327" lon="6.58362">
        <ele>1623</ele>
        <time>2016-03-20T15:55:18Z</time>
      </trkpt>
      <trkpt lat="44.26327" lon="6.58359">
        <ele>1623</ele>
        <time>2016-03-20T15:57:18Z</time>
      </trkpt>
      <trkpt lat="44.26325" lon="6.58351">
        <ele>1623</ele>
        <time>2016-03-20T15:59:18Z</time>
      </trkpt>
      <trkpt lat="44.26319" lon="6.58336">
        <ele>1621</ele>
        <time>2016-03-20T16:01:18Z</time>
      </trkpt>
      <trkpt lat="44.26317" lon="6.5833">
        <ele>1620</ele>
        <time>2016-03-20T16:03:18Z</time>
      </trkpt>
      <trkpt lat="44.26315" lon="6.58322">
        <ele>1618</ele>
        <time>2016-03-20T16:05:18Z</time>
      </trkpt>
      <trkpt lat="44.26314" lon="6.58315">
        <ele>1616</ele>
        <time>2016-03-20T16:07:18Z</time>
      </trkpt>
      <trkpt lat="44.26314" lon="6.58308">
        <ele>1615</ele>
        <time>2016-03-20T16:09:18Z</time>
      </trkpt>
      <trkpt lat="44.26316" lon="6.58301">
        <ele>1614</ele>
        <time>2016-03-20T16:11:18Z</time>
      </trkpt>
      <trkpt lat="44.26319" lon="6.58295">
        <ele>1614</ele>
        <time>2016-03-20T16:13:18Z</time>
      </trkpt>
      <trkpt lat="44.26323" lon="6.5829">
        <ele>1614</ele>
        <time>2016-03-20T16:15:18Z</time>
      </trkpt>
      <trkpt lat="44.26327" lon="6.58286">
        <ele>1615</ele>
        <time>2016-03-20T16:17:18Z</time>
      </trkpt>
      <trkpt lat="44.26332" lon="6.58281">
        <ele>1616</ele>
        <time>2016-03-20T16:19:18Z</time>
      </trkpt>
      <trkpt lat="44.26345" lon="6.58275">
        <ele>1618</ele>
        <time>2016-03-20T16:21:18Z</time>
      </trkpt>
      <trkpt lat="44.26358" lon="6.5827">
        <ele>1621</ele>
        <time>2016-03-20T16:23:18Z</time>
      </trkpt>
      <trkpt lat="44.26381" lon="6.58263">
        <ele>1625</ele>
        <time>2016-03-20T16:25:18Z</time>
      </trkpt>
      <trkpt lat="44.26406" lon="6.58256">
        <ele>1630</ele>
        <time>2016-03-20T16:27:18Z</time>
      </trkpt>
      <trkpt lat="44.26424" lon="6.5825">
        <ele>1632</ele>
        <time>2016-03-20T16:29:18Z</time>
      </trkpt>
      <trkpt lat="44.2646" lon="6.58241">
        <ele>1634</ele>
        <time>2016-03-20T16:31:18Z</time>
      </trkpt>
      <trkpt lat="44.26471" lon="6.58239">
        <ele>1635</ele>
        <time>2016-03-20T16:33:18Z</time>
      </trkpt>
      <trkpt lat="44.2649" lon="6.58234">
        <ele>1637</ele>
        <time>2016-03-20T16:35:18Z</time>
      </trkpt>
      <trkpt lat="44.26499" lon="6.58231">
        <ele>1637</ele>
        <time>2016-03-20T16:37:18Z</time>
      </trkpt>
      <trkpt lat="44.26508" lon="6.58228">
        <ele>1638</ele>
        <time>2016-03-20T16:39:18Z</time>
      </trkpt>
      <trkpt lat="44.26526" lon="6.58219">
        <ele>1639</ele>
        <time>2016-03-20T16:41:18Z</time>
      </trkpt>
      <trkpt lat="44.26535" lon="6.58214">
        <ele>1640</ele>
        <time>2016-03-20T16:43:18Z</time>
      </trkpt>
      <trkpt lat="44.26551" lon="6.58203">
        <ele>1640</ele>
        <time>2016-03-20T16:45:18Z</time>
      </trkpt>
      <trkpt lat="44.26576" lon="6.58185">
        <ele>1640</ele>
        <time>2016-03-20T16:47:18Z</time>
      </trkpt>
      <trkpt lat="44.26639" lon="6.58142">
        <ele>1644</ele>
        <time>2016-03-20T16:49:18Z</time>
      </trkpt>
      <trkpt lat="44.26647" lon="6.58136">
        <ele>1644</ele>
        <time>2016-03-20T16:51:18Z</time>
      </trkpt>
      <trkpt lat="44.26672" lon="6.58118">
        <ele>1646</ele>
        <time>2016-03-20T16:53:18Z</time>
      </trkpt>
      <trkpt lat="44.26687" lon="6.58106">
        <ele>1646</ele>
        <time>2016-03-20T16:55:18Z</time>
      </trkpt>
      <trkpt lat="44.26702" lon="6.58094">
        <ele>1646</ele>
        <time>2016-03-20T16:57:18Z</time>
      </trkpt>
      <trkpt lat="44.26716" lon="6.58083">
        <ele>1646</ele>
        <time>2016-03-20T16:59:18Z</time>
      </trkpt>
      <trkpt lat="44.26722" lon="6.58078">
        <ele>1646</ele>
        <time>2016-03-20T17:01:18Z</time>
      </trkpt>
      <trkpt lat="44.2673" lon="6.58074">
        <ele>1646</ele>
        <time>2016-03-20T17:03:18Z</time>
      </trkpt>
      <trkpt lat="44.26739" lon="6.58071">
        <ele>1647</ele>
        <time>2016-03-20T17:05:18Z</time>
      </trkpt>
      <trkpt lat="44.26744" lon="6.58069">
        <ele>1647</ele>
        <time>2016-03-20T17:07:18Z</time>
      </trkpt>
      <trkpt lat="44.26752" lon="6.58068">
        <ele>1648</ele>
        <time>2016-03-20T17:09:18Z</time>
      </trkpt>
      <trkpt lat="44.26759" lon="6.58068">
        <ele>1650</ele>
        <time>2016-03-20T17:11:18Z</time>
      </trkpt>
      <trkpt lat="44.26773" lon="6.5807">
        <ele>1653</ele>
        <time>2016-03-20T17:13:18Z</time>
      </trkpt>
      <trkpt lat="44.26781" lon="6.5807">
        <ele>1655</ele>
        <time>2016-03-20T17:15:18Z</time>
      </trkpt>
      <trkpt lat="44.26788" lon="6.58069">
        <ele>1656</ele>
        <time>2016-03-20T17:17:18Z</time>
      </trkpt>
      <trkpt lat="44.26796" lon="6.58068">
        <ele>1658</ele>
        <time>2016-03-20T17:19:18Z</time>
      </trkpt>
      <trkpt lat="44.26804" lon="6.58066">
        <ele>1659</ele>
        <time>2016-03-20T17:21:18Z</time>
      </trkpt>
      <trkpt lat="44.26811" lon="6.58062">
        <ele>1659</ele>
        <time>2016-03-20T17:23:18Z</time>
      </trkpt>
      <trkpt lat="44.26821" lon="6.5806">
        <ele>1661</ele>
        <time>2016-03-20T17:25:18Z</time>
      </trkpt>
      <trkpt lat="44.26834" lon="6.58057">
        <ele>1663</ele>
        <time>2016-03-20T17:27:18Z</time>
      </trkpt>
      <trkpt lat="44.26842" lon="6.58056">
        <ele>1664</ele>
        <time>2016-03-20T17:29:18Z</time>
      </trkpt>
      <trkpt lat="44.2686" lon="6.58055">
        <ele>1667</ele>
        <time>2016-03-20T17:31:18Z</time>
      </trkpt>
      <trkpt lat="44.26878" lon="6.58053">
        <ele>1669</ele>
        <time>2016-03-20T17:33:18Z</time>
      </trkpt>
      <trkpt lat="44.2693" lon="6.58048">
        <ele>1675</ele>
        <time>2016-03-20T17:35:18Z</time>
      </trkpt>
      <trkpt lat="44.26952" lon="6.58046">
        <ele>1677</ele>
        <time>2016-03-20T17:37:18Z</time>
      </trkpt>
      <trkpt lat="44.2697" lon="6.58043">
        <ele>1677</ele>
        <time>2016-03-20T17:39:18Z</time>
      </trkpt>
      <trkpt lat="44.26986" lon="6.5804">
        <ele>1678</ele>
        <time>2016-03-20T17:41:18Z</time>
      </trkpt>
      <trkpt lat="44.26997" lon="6.58038">
        <ele>1678</ele>
        <time>2016-03-20T17:43:18Z</time>
      </trkpt>
      <trkpt lat="44.27019" lon="6.58034">
        <ele>1678</ele>
        <time>2016-03-20T17:45:18Z</time>
      </trkpt>
      <trkpt lat="44.27041" lon="6.58029">
        <ele>1679</ele>
        <time>2016-03-20T17:47:18Z</time>
      </trkpt>
      <trkpt lat="44.27063" lon="6.58025">
        <ele>1680</ele>
        <time>2016-03-20T17:49:18Z</time>
      </trkpt>
      <trkpt lat="44.27083" lon="6.5802">
        <ele>1680</ele>
        <time>2016-03-20T17:51:18Z</time>
      </trkpt>
      <trkpt lat="44.27138" lon="6.58005">
        <ele>1683</ele>
        <time>2016-03-20T17:53:18Z</time>
      </trkpt>
      <trkpt lat="44.27145" lon="6.58004">
        <ele>1684</ele>
        <time>2016-03-20T17:55:18Z</time>
      </trkpt>
      <trkpt lat="44.27157" lon="6.57997">
        <ele>1684</ele>
        <time>2016-03-20T17:57:18Z</time>
      </trkpt>
      <trkpt lat="44.27163" lon="6.57993">
        <ele>1683</ele>
        <time>2016-03-20T17:59:18Z</time>
      </trkpt>
      <trkpt lat="44.27173" lon="6.57983">
        <ele>1682</ele>
        <time>2016-03-20T18:01:18Z</time>
      </trkpt>
      <trkpt lat="44.27178" lon="6.57977">
        <ele>1682</ele>
        <time>2016-03-20T18:03:18Z</time>
      </trkpt>
      <trkpt lat="44.27197" lon="6.5795">
        <ele>1678</ele>
        <time>2016-03-20T18:05:18Z</time>
      </trkpt>
      <trkpt lat="44.27204" lon="6.57938">
        <ele>1677</ele>
        <time>2016-03-20T18:07:18Z</time>
      </trkpt>
      <trkpt lat="44.27211" lon="6.5793">
        <ele>1676</ele>
        <time>2016-03-20T18:09:18Z</time>
      </trkpt>
      <trkpt lat="44.27216" lon="6.57925">
        <ele>1676</ele>
        <time>2016-03-20T18:11:18Z</time>
      </trkpt>
      <trkpt lat="44.27226" lon="6.57916">
        <ele>1676</ele>
        <time>2016-03-20T18:13:18Z</time>
      </trkpt>
      <trkpt lat="44.27234" lon="6.57912">
        <ele>1677</ele>
        <time>2016-03-20T18:15:18Z</time>
      </trkpt>
      <trkpt lat="44.27242" lon="6.57908">
        <ele>1677</ele>
        <time>2016-03-20T18:17:18Z</time>
      </trkpt>
      <trkpt lat="44.27251" lon="6.57905">
        <ele>1678</ele>
        <time>2016-03-20T18:19:18Z</time>
      </trkpt>
      <trkpt lat="44.27259" lon="6.57904">
        <ele>1679</ele>
        <time>2016-03-20T18:21:18Z</time>
      </trkpt>
      <trkpt lat="44.27267" lon="6.57904">
        <ele>1680</ele>
        <time>2016-03-20T18:23:18Z</time>
      </trkpt>
      <trkpt lat="44.27275" lon="6.57905">
        <ele>1682</ele>
        <time>2016-03-20T18:25:18Z</time>
      </trkpt>
      <trkpt lat="44.27283" lon="6.57907">
        <ele>1683</ele>
        <time>2016-03-20T18:27:18Z</time>
      </trkpt>
      <trkpt lat="44.27291" lon="6.57911">
        <ele>1686</ele>
        <time>2016-03-20T18:29:18Z</time>
      </trkpt>
      <trkpt lat="44.27298" lon="6.57915">
        <ele>1688</ele>
        <time>2016-03-20T18:31:18Z</time>
      </trkpt>
      <trkpt lat="44.27303" lon="6.57919">
        <ele>1689</ele>
        <time>2016-03-20T18:33:18Z</time>
      </trkpt>
      <trkpt lat="44.2731" lon="6.57925">
        <ele>1691</ele>
        <time>2016-03-20T18:35:18Z</time>
      </trkpt>
      <trkpt lat="44.27327" lon="6.57943">
        <ele>1696</ele>
        <time>2016-03-20T18:37:18Z</time>
      </trkpt>
      <trkpt lat="44.27341" lon="6.57954">
        <ele>1698</ele>
        <time>2016-03-20T18:39:18Z</time>
      </trkpt>
      <trkpt lat="44.27348" lon="6.57958">
        <ele>1699</ele>
        <time>2016-03-20T18:41:18Z</time>
      </trkpt>
      <trkpt lat="44.27355" lon="6.57962">
        <ele>1700</ele>
        <time>2016-03-20T18:43:18Z</time>
      </trkpt>
      <trkpt lat="44.2736" lon="6.57964">
        <ele>1701</ele>
        <time>2016-03-20T18:45:18Z</time>
      </trkpt>
      <trkpt lat="44.27367" lon="6.57966">
        <ele>1702</ele>
        <time>2016-03-20T18:47:18Z</time>
      </trkpt>
      <trkpt lat="44.27374" lon="6.57967">
        <ele>1702</ele>
        <time>2016-03-20T18:49:18Z</time>
      </trkpt>
      <trkpt lat="44.27386" lon="6.57967">
        <ele>1703</ele>
        <time>2016-03-20T18:51:18Z</time>
      </trkpt>
      <trkpt lat="44.27389" lon="6.57967">
        <ele>1703</ele>
        <time>2016-03-20T18:53:18Z</time>
      </trkpt>
      <trkpt lat="44.27391" lon="6.57967">
        <ele>1704</ele>
        <time>2016-03-20T18:55:18Z</time>
      </trkpt>
      <trkpt lat="44.27406" lon="6.57964">
        <ele>1704</ele>
        <time>2016-03-20T18:57:18Z</time>
      </trkpt>
      <trkpt lat="44.27415" lon="6.57962">
        <ele>1704</ele>
        <time>2016-03-20T18:59:18Z</time>
      </trkpt>
      <trkpt lat="44.27436" lon="6.57955">
        <ele>1706</ele>
        <time>2016-03-20T19:01:18Z</time>
      </trkpt>
      <trkpt lat="44.2744" lon="6.57954">
        <ele>1706</ele>
        <time>2016-03-20T19:03:18Z</time>
      </trkpt>
      <trkpt lat="44.27447" lon="6.57949">
        <ele>1706</ele>
        <time>2016-03-20T19:05:18Z</time>
      </trkpt>
      <trkpt lat="44.27455" lon="6.57943">
        <ele>1706</ele>
        <time>2016-03-20T19:07:18Z</time>
      </trkpt>
      <trkpt lat="44.27461" lon="6.57936">
        <ele>1705</ele>
        <time>2016-03-20T19:09:18Z</time>
      </trkpt>
      <trkpt lat="44.27468" lon="6.57928">
        <ele>1704</ele>
        <time>2016-03-20T19:11:18Z</time>
      </trkpt>
      <trkpt lat="44.27473" lon="6.5792">
        <ele>1703</ele>
        <time>2016-03-20T19:13:18Z</time>
      </trkpt>
      <trkpt lat="44.27479" lon="6.57911">
        <ele>1701</ele>
        <time>2016-03-20T19:15:18Z</time>
      </trkpt>
      <trkpt lat="44.27485" lon="6.57902">
        <ele>1699</ele>
        <time>2016-03-20T19:17:18Z</time>
      </trkpt>
      <trkpt lat="44.2749" lon="6.57894">
        <ele>1697</ele>
        <time>2016-03-20T19:19:18Z</time>
      </trkpt>
      <trkpt lat="44.27496" lon="6.57886">
        <ele>1695</ele>
        <time>2016-03-20T19:21:18Z</time>
      </trkpt>
      <trkpt lat="44.27502" lon="6.57879">
        <ele>1693</ele>
        <time>2016-03-20T19:23:18Z</time>
      </trkpt>
      <trkpt lat="44.27508" lon="6.57872">
        <ele>1692</ele>
        <time>2016-03-20T19:25:18Z</time>
      </trkpt>
      <trkpt lat="44.27515" lon="6.57868">
        <ele>1691</ele>
        <time>2016-03-20T19:27:18Z</time>
      </trkpt>
      <trkpt lat="44.27521" lon="6.57865">
        <ele>1691</ele>
        <time>2016-03-20T19:29:18Z</time>
      </trkpt>
      <trkpt lat="44.27523" lon="6.57864">
        <ele>1691</ele>
        <time>2016-03-20T19:31:18Z</time>
      </trkpt>
      <trkpt lat="44.27528" lon="6.57863">
        <ele>1691</ele>
        <time>2016-03-20T19:33:18Z</time>
      </trkpt>
      <trkpt lat="44.2753" lon="6.57863">
        <ele>1692</ele>
        <time>2016-03-20T19:35:18Z</time>
      </trkpt>
      <trkpt lat="44.27537" lon="6.57862">
        <ele>1692</ele>
        <time>2016-03-20T19:37:18Z</time>
      </trkpt>
      <trkpt lat="44.27544" lon="6.57863">
        <ele>1693</ele>
        <time>2016-03-20T19:39:18Z</time>
      </trkpt>
      <trkpt lat="44.27551" lon="6.57866">
        <ele>1695</ele>
        <time>2016-03-20T19:41:18Z</time>
      </trkpt>
      <trkpt lat="44.27557" lon="6.57869">
        <ele>1696</ele>
        <time>2016-03-20T19:43:18Z</time>
      </trkpt>
      <trkpt lat="44.27564" lon="6.57874">
        <ele>1698</ele>
        <time>2016-03-20T19:45:18Z</time>
      </trkpt>
      <trkpt lat="44.2757" lon="6.57878">
        <ele>1700</ele>
        <time>2016-03-20T19:47:18Z</time>
      </trkpt>
      <trkpt lat="44.27577" lon="6.57883">
        <ele>1702</ele>
        <time>2016-03-20T19:49:18Z</time>
      </trkpt>
      <trkpt lat="44.27583" lon="6.57888">
        <ele>1704</ele>
        <time>2016-03-20T19:51:18Z</time>
      </trkpt>
      <trkpt lat="44.27606" lon="6.57909">
        <ele>1710</ele>
        <time>2016-03-20T19:53:18Z</time>
      </trkpt>
      <trkpt lat="44.2761" lon="6.57911">
        <ele>1710</ele>
        <time>2016-03-20T19:55:18Z</time>
      </trkpt>
      <trkpt lat="44.27615" lon="6.57914">
        <ele>1711</ele>
        <time>2016-03-20T19:57:18Z</time>
      </trkpt>
      <trkpt lat="44.27621" lon="6.57914">
        <ele>1711</ele>
        <time>2016-03-20T19:59:18Z</time>
      </trkpt>
      <trkpt lat="44.27626" lon="6.57913">
        <ele>1711</ele>
        <time>2016-03-20T20:01:18Z</time>
      </trkpt>
      <trkpt lat="44.27631" lon="6.57909">
        <ele>1711</ele>
        <time>2016-03-20T20:03:18Z</time>
      </trkpt>
      <trkpt lat="44.27635" lon="6.57904">
        <ele>1710</ele>
        <time>2016-03-20T20:05:18Z</time>
      </trkpt>
      <trkpt lat="44.27638" lon="6.57897">
        <ele>1709</ele>
        <time>2016-03-20T20:07:18Z</time>
      </trkpt>
      <trkpt lat="44.27641" lon="6.5789">
        <ele>1709</ele>
        <time>2016-03-20T20:09:18Z</time>
      </trkpt>
      <trkpt lat="44.27643" lon="6.57881">
        <ele>1707</ele>
        <time>2016-03-20T20:11:18Z</time>
      </trkpt>
      <trkpt lat="44.27646" lon="6.57874">
        <ele>1707</ele>
        <time>2016-03-20T20:13:18Z</time>
      </trkpt>
      <trkpt lat="44.27648" lon="6.57869">
        <ele>1706</ele>
        <time>2016-03-20T20:15:18Z</time>
      </trkpt>
      <trkpt lat="44.27653" lon="6.57862">
        <ele>1706</ele>
        <time>2016-03-20T20:17:18Z</time>
      </trkpt>
      <trkpt lat="44.27659" lon="6.57856">
        <ele>1706</ele>
        <time>2016-03-20T20:19:18Z</time>
      </trkpt>
      <trkpt lat="44.27666" lon="6.57851">
        <ele>1707</ele>
        <time>2016-03-20T20:21:18Z</time>
      </trkpt>
      <trkpt lat="44.27671" lon="6.57849">
        <ele>1707</ele>
        <time>2016-03-20T20:23:18Z</time>
      </trkpt>
      <trkpt lat="44.27676" lon="6.57848">
        <ele>1708</ele>
        <time>2016-03-20T20:25:18Z</time>
      </trkpt>
      <trkpt lat="44.27679" lon="6.57847">
        <ele>1708</ele>
        <time>2016-03-20T20:27:18Z</time>
      </trkpt>
      <trkpt lat="44.27708" lon="6.57845">
        <ele>1712</ele>
        <time>2016-03-20T20:29:18Z</time>
      </trkpt>
      <trkpt lat="44.27711" lon="6.57844">
        <ele>1713</ele>
        <time>2016-03-20T20:31:18Z</time>
      </trkpt>
      <trkpt lat="44.27715" lon="6.57843">
        <ele>1713</ele>
        <time>2016-03-20T20:33:18Z</time>
      </trkpt>
      <trkpt lat="44.27718" lon="6.57842">
        <ele>1713</ele>
        <time>2016-03-20T20:35:18Z</time>
      </trkpt>
      <trkpt lat="44.27721" lon="6.5784">
        <ele>1714</ele>
        <time>2016-03-20T20:37:18Z</time>
      </trkpt>
      <trkpt lat="44.27727" lon="6.57836">
        <ele>1714</ele>
        <time>2016-03-20T20:39:18Z</time>
      </trkpt>
      <trkpt lat="44.27733" lon="6.57832">
        <ele>1714</ele>
        <time>2016-03-20T20:41:18Z</time>
      </trkpt>
      <trkpt lat="44.27748" lon="6.57815">
        <ele>1715</ele>
        <time>2016-03-20T20:43:18Z</time>
      </trkpt>
      <trkpt lat="44.27755" lon="6.57807">
        <ele>1716</ele>
        <time>2016-03-20T20:45:18Z</time>
      </trkpt>
      <trkpt lat="44.27771" lon="6.57792">
        <ele>1718</ele>
        <time>2016-03-20T20:47:18Z</time>
      </trkpt>
      <trkpt lat="44.27779" lon="6.57786">
        <ele>1719</ele>
        <time>2016-03-20T20:49:18Z</time>
      </trkpt>
      <trkpt lat="44.27786" lon="6.5778">
        <ele>1720</ele>
        <time>2016-03-20T20:51:18Z</time>
      </trkpt>
      <trkpt lat="44.2779" lon="6.57777">
        <ele>1721</ele>
        <time>2016-03-20T20:53:18Z</time>
      </trkpt>
      <trkpt lat="44.27792" lon="6.57774">
        <ele>1721</ele>
        <time>2016-03-20T20:55:18Z</time>
      </trkpt>
      <trkpt lat="44.27795" lon="6.5777">
        <ele>1721</ele>
        <time>2016-03-20T20:57:18Z</time>
      </trkpt>
      <trkpt lat="44.27799" lon="6.57764">
        <ele>1721</ele>
        <time>2016-03-20T20:59:18Z</time>
      </trkpt>
      <trkpt lat="44.27803" lon="6.57754">
        <ele>1721</ele>
        <time>2016-03-20T21:01:18Z</time>
      </trkpt>
      <trkpt lat="44.27816" lon="6.57724">
        <ele>1720</ele>
        <time>2016-03-20T21:03:18Z</time>
      </trkpt>
      <trkpt lat="44.27822" lon="6.57712">
        <ele>1720</ele>
        <time>2016-03-20T21:05:18Z</time>
      </trkpt>
      <trkpt lat="44.27836" lon="6.57688">
        <ele>1721</ele>
        <time>2016-03-20T21:07:18Z</time>
      </trkpt>
      <trkpt lat="44.27883" lon="6.57617">
        <ele>1729</ele>
        <time>2016-03-20T21:09:18Z</time>
      </trkpt>
      <trkpt lat="44.27928" lon="6.57547">
        <ele>1732</ele>
        <time>2016-03-20T21:11:18Z</time>
      </trkpt>
      <trkpt lat="44.27936" lon="6.57537">
        <ele>1732</ele>
        <time>2016-03-20T21:13:18Z</time>
      </trkpt>
      <trkpt lat="44.27944" lon="6.57528">
        <ele>1733</ele>
        <time>2016-03-20T21:15:18Z</time>
      </trkpt>
      <trkpt lat="44.27952" lon="6.57519">
        <ele>1734</ele>
        <time>2016-03-20T21:17:18Z</time>
      </trkpt>
      <trkpt lat="44.27961" lon="6.57512">
        <ele>1735</ele>
        <time>2016-03-20T21:19:18Z</time>
      </trkpt>
      <trkpt lat="44.27977" lon="6.575">
        <ele>1737</ele>
        <time>2016-03-20T21:21:18Z</time>
      </trkpt>
      <trkpt lat="44.27983" lon="6.57494">
        <ele>1737</ele>
        <time>2016-03-20T21:23:18Z</time>
      </trkpt>
      <trkpt lat="44.27989" lon="6.57488">
        <ele>1737</ele>
        <time>2016-03-20T21:25:18Z</time>
      </trkpt>
      <trkpt lat="44.27994" lon="6.57481">
        <ele>1737</ele>
        <time>2016-03-20T21:27:18Z</time>
      </trkpt>
      <trkpt lat="44.28" lon="6.57474">
        <ele>1736</ele>
        <time>2016-03-20T21:29:18Z</time>
      </trkpt>
      <trkpt lat="44.28005" lon="6.57466">
        <ele>1736</ele>
        <time>2016-03-20T21:31:18Z</time>
      </trkpt>
      <trkpt lat="44.28021" lon="6.57448">
        <ele>1735</ele>
        <time>2016-03-20T21:33:18Z</time>
      </trkpt>
      <trkpt lat="44.28034" lon="6.57435">
        <ele>1734</ele>
        <time>2016-03-20T21:35:18Z</time>
      </trkpt>
      <trkpt lat="44.28038" lon="6.57432">
        <ele>1734</ele>
        <time>2016-03-20T21:37:18Z</time>
      </trkpt>
      <trkpt lat="44.2805" lon="6.57423">
        <ele>1733</ele>
        <time>2016-03-20T21:39:18Z</time>
      </trkpt>
      <trkpt lat="44.28056" lon="6.57419">
        <ele>1733</ele>
        <time>2016-03-20T21:41:18Z</time>
      </trkpt>
      <trkpt lat="44.28072" lon="6.57413">
        <ele>1734</ele>
        <time>2016-03-20T21:43:18Z</time>
      </trkpt>
      <trkpt lat="44.28086" lon="6.5741">
        <ele>1736</ele>
        <time>2016-03-20T21:45:18Z</time>
      </trkpt>
      <trkpt lat="44.28101" lon="6.57406">
        <ele>1739</ele>
        <time>2016-03-20T21:47:18Z</time>
      </trkpt>
      <trkpt lat="44.28115" lon="6.57402">
        <ele>1741</ele>
        <time>2016-03-20T21:49:18Z</time>
      </trkpt>
      <trkpt lat="44.28146" lon="6.57394">
        <ele>1747</ele>
        <time>2016-03-20T21:51:18Z</time>
      </trkpt>
      <trkpt lat="44.28155" lon="6.57392">
        <ele>1749</ele>
        <time>2016-03-20T21:53:18Z</time>
      </trkpt>
      <trkpt lat="44.28163" lon="6.5739">
        <ele>1750</ele>
        <time>2016-03-20T21:55:18Z</time>
      </trkpt>
      <trkpt lat="44.2819" lon="6.57379">
        <ele>1753</ele>
        <time>2016-03-20T21:57:18Z</time>
      </trkpt>
      <trkpt lat="44.28235" lon="6.5736">
        <ele>1757</ele>
        <time>2016-03-20T21:59:18Z</time>
      </trkpt>
      <trkpt lat="44.28248" lon="6.57354">
        <ele>1759</ele>
        <time>2016-03-20T22:01:18Z</time>
      </trkpt>
      <trkpt lat="44.28265" lon="6.57346">
        <ele>1760</ele>
        <time>2016-03-20T22:03:18Z</time>
      </trkpt>
      <trkpt lat="44.28289" lon="6.57338">
        <ele>1760</ele>
        <time>2016-03-20T22:05:18Z</time>
      </trkpt>
      <trkpt lat="44.28295" lon="6.57336">
        <ele>1761</ele>
        <time>2016-03-20T22:07:18Z</time>
      </trkpt>
      <trkpt lat="44.28307" lon="6.57334">
        <ele>1761</ele>
        <time>2016-03-20T22:09:18Z</time>
      </trkpt>
      <trkpt lat="44.28319" lon="6.57334">
        <ele>1762</ele>
        <time>2016-03-20T22:11:18Z</time>
      </trkpt>
      <trkpt lat="44.28375" lon="6.57338">
        <ele>1761</ele>
        <time>2016-03-20T22:13:18Z</time>
      </trkpt>
      <trkpt lat="44.28389" lon="6.57339">
        <ele>1760</ele>
        <time>2016-03-20T22:15:18Z</time>
      </trkpt>
      <trkpt lat="44.28394" lon="6.5734">
        <ele>1760</ele>
        <time>2016-03-20T22:17:18Z</time>
      </trkpt>
      <trkpt lat="44.28399" lon="6.57343">
        <ele>1761</ele>
        <time>2016-03-20T22:19:18Z</time>
      </trkpt>
      <trkpt lat="44.28403" lon="6.57346">
        <ele>1761</ele>
        <time>2016-03-20T22:21:18Z</time>
      </trkpt>
      <trkpt lat="44.28408" lon="6.5735">
        <ele>1761</ele>
        <time>2016-03-20T22:23:18Z</time>
      </trkpt>
      <trkpt lat="44.28411" lon="6.57355">
        <ele>1762</ele>
        <time>2016-03-20T22:25:18Z</time>
      </trkpt>
      <trkpt lat="44.28414" lon="6.57361">
        <ele>1763</ele>
        <time>2016-03-20T22:27:18Z</time>
      </trkpt>
      <trkpt lat="44.28417" lon="6.57367">
        <ele>1764</ele>
        <time>2016-03-20T22:29:18Z</time>
      </trkpt>
      <trkpt lat="44.28419" lon="6.57373">
        <ele>1765</ele>
        <time>2016-03-20T22:31:18Z</time>
      </trkpt>
      <trkpt lat="44.28421" lon="6.5738">
        <ele>1766</ele>
        <time>2016-03-20T22:33:18Z</time>
      </trkpt>
      <trkpt lat="44.28422" lon="6.57391">
        <ele>1768</ele>
        <time>2016-03-20T22:35:18Z</time>
      </trkpt>
      <trkpt lat="44.28425" lon="6.57409">
        <ele>1771</ele>
        <time>2016-03-20T22:37:18Z</time>
      </trkpt>
      <trkpt lat="44.28427" lon="6.57417">
        <ele>1772</ele>
        <time>2016-03-20T22:39:18Z</time>
      </trkpt>
      <trkpt lat="44.2843" lon="6.57423">
        <ele>1774</ele>
        <time>2016-03-20T22:41:18Z</time>
      </trkpt>
      <trkpt lat="44.28434" lon="6.57427">
        <ele>1775</ele>
        <time>2016-03-20T22:43:18Z</time>
      </trkpt>
      <trkpt lat="44.28438" lon="6.5743">
        <ele>1775</ele>
        <time>2016-03-20T22:45:18Z</time>
      </trkpt>
      <trkpt lat="44.28442" lon="6.57432">
        <ele>1776</ele>
        <time>2016-03-20T22:47:18Z</time>
      </trkpt>
      <trkpt lat="44.28446" lon="6.57434">
        <ele>1776</ele>
        <time>2016-03-20T22:49:18Z</time>
      </trkpt>
      <trkpt lat="44.2845" lon="6.57434">
        <ele>1776</ele>
        <time>2016-03-20T22:51:18Z</time>
      </trkpt>
      <trkpt lat="44.28455" lon="6.57434">
        <ele>1777</ele>
        <time>2016-03-20T22:53:18Z</time>
      </trkpt>
      <trkpt lat="44.28459" lon="6.57433">
        <ele>1776</ele>
        <time>2016-03-20T22:55:18Z</time>
      </trkpt>
      <trkpt lat="44.28463" lon="6.57432">
        <ele>1776</ele>
        <time>2016-03-20T22:57:18Z</time>
      </trkpt>
      <trkpt lat="44.28467" lon="6.57429">
        <ele>1775</ele>
        <time>2016-03-20T22:59:18Z</time>
      </trkpt>
      <trkpt lat="44.28471" lon="6.57426">
        <ele>1775</ele>
        <time>2016-03-20T23:01:18Z</time>
      </trkpt>
      <trkpt lat="44.28474" lon="6.57422">
        <ele>1773</ele>
        <time>2016-03-20T23:03:18Z</time>
      </trkpt>
      <trkpt lat="44.28484" lon="6.57403">
        <ele>1770</ele>
        <time>2016-03-20T23:05:18Z</time>
      </trkpt>
      <trkpt lat="44.28491" lon="6.57396">
        <ele>1768</ele>
        <time>2016-03-20T23:07:18Z</time>
      </trkpt>
      <trkpt lat="44.28494" lon="6.57393">
        <ele>1768</ele>
        <time>2016-03-20T23:09:18Z</time>
      </trkpt>
      <trkpt lat="44.28498" lon="6.5739">
        <ele>1767</ele>
        <time>2016-03-20T23:11:18Z</time>
      </trkpt>
      <trkpt lat="44.28506" lon="6.57386">
        <ele>1768</ele>
        <time>2016-03-20T23:13:18Z</time>
      </trkpt>
      <trkpt lat="44.28514" lon="6.57385">
        <ele>1770</ele>
        <time>2016-03-20T23:15:18Z</time>
      </trkpt>
      <trkpt lat="44.28531" lon="6.57382">
        <ele>1774</ele>
        <time>2016-03-20T23:17:18Z</time>
      </trkpt>
      <trkpt lat="44.28535" lon="6.5738">
        <ele>1774</ele>
        <time>2016-03-20T23:19:18Z</time>
      </trkpt>
      <trkpt lat="44.28539" lon="6.57376">
        <ele>1774</ele>
        <time>2016-03-20T23:21:18Z</time>
      </trkpt>
      <trkpt lat="44.28543" lon="6.57372">
        <ele>1774</ele>
        <time>2016-03-20T23:23:18Z</time>
      </trkpt>
      <trkpt lat="44.28553" lon="6.5736">
        <ele>1772</ele>
        <time>2016-03-20T23:25:18Z</time>
      </trkpt>
      <trkpt lat="44.28564" lon="6.57349">
        <ele>1771</ele>
        <time>2016-03-20T23:27:18Z</time>
      </trkpt>
      <trkpt lat="44.28582" lon="6.57334">
        <ele>1768</ele>
        <time>2016-03-20T23:29:18Z</time>
      </trkpt>
      <trkpt lat="44.28596" lon="6.57326">
        <ele>1771</ele>
        <time>2016-03-20T23:31:18Z</time>
      </trkpt>
      <trkpt lat="44.2861" lon="6.57318">
        <ele>1774</ele>
        <time>2016-03-20T23:33:18Z</time>
      </trkpt>
      <trkpt lat="44.28625" lon="6.57312">
        <ele>1777</ele>
        <time>2016-03-20T23:35:18Z</time>
      </trkpt>
      <trkpt lat="44.28641" lon="6.57307">
        <ele>1780</ele>
        <time>2016-03-20T23:37:18Z</time>
      </trkpt>
      <trkpt lat="44.28658" lon="6.57304">
        <ele>1783</ele>
        <time>2016-03-20T23:39:18Z</time>
      </trkpt>
      <trkpt lat="44.28673" lon="6.57301">
        <ele>1784</ele>
        <time>2016-03-20T23:41:18Z</time>
      </trkpt>
      <trkpt lat="44.28684" lon="6.573">
        <ele>1786</ele>
        <time>2016-03-20T23:43:18Z</time>
      </trkpt>
      <trkpt lat="44.28711" lon="6.57298">
        <ele>1789</ele>
        <time>2016-03-20T23:45:18Z</time>
      </trkpt>
      <trkpt lat="44.28729" lon="6.57296">
        <ele>1791</ele>
        <time>2016-03-20T23:47:18Z</time>
      </trkpt>
      <trkpt lat="44.28738" lon="6.57293">
        <ele>1791</ele>
        <time>2016-03-20T23:49:18Z</time>
      </trkpt>
      <trkpt lat="44.28748" lon="6.57288">
        <ele>1790</ele>
        <time>2016-03-20T23:51:18Z</time>
      </trkpt>
      <trkpt lat="44.28756" lon="6.57283">
        <ele>1789</ele>
        <time>2016-03-20T23:53:18Z</time>
      </trkpt>
      <trkpt lat="44.28775" lon="6.57273">
        <ele>1786</ele>
        <time>2016-03-20T23:55:18Z</time>
      </trkpt>
      <trkpt lat="44.28793" lon="6.57265">
        <ele>1785</ele>
        <time>2016-03-20T23:57:18Z</time>
      </trkpt>
      <trkpt lat="44.28802" lon="6.57262">
        <ele>1784</ele>
        <time>2016-03-20T23:59:18Z</time>
      </trkpt>
      <trkpt lat="44.28812" lon="6.57258">
        <ele>1783</ele>
        <time>2016-03-21T00:01:18Z</time>
      </trkpt>
      <trkpt lat="44.28821" lon="6.57256">
        <ele>1783</ele>
        <time>2016-03-21T00:03:18Z</time>
      </trkpt>
      <trkpt lat="44.28839" lon="6.5725">
        <ele>1783</ele>
        <time>2016-03-21T00:05:18Z</time>
      </trkpt>
      <trkpt lat="44.28865" lon="6.57241">
        <ele>1786</ele>
        <time>2016-03-21T00:07:18Z</time>
      </trkpt>
      <trkpt lat="44.28869" lon="6.57239">
        <ele>1786</ele>
        <time>2016-03-21T00:09:18Z</time>
      </trkpt>
      <trkpt lat="44.28876" lon="6.57238">
        <ele>1787</ele>
        <time>2016-03-21T00:11:18Z</time>
      </trkpt>
      <trkpt lat="44.2889" lon="6.57234">
        <ele>1789</ele>
        <time>2016-03-21T00:13:18Z</time>
      </trkpt>
      <trkpt lat="44.28902" lon="6.5723">
        <ele>1790</ele>
        <time>2016-03-21T00:15:18Z</time>
      </trkpt>
      <trkpt lat="44.28913" lon="6.57228">
        <ele>1791</ele>
        <time>2016-03-21T00:17:18Z</time>
      </trkpt>
      <trkpt lat="44.28925" lon="6.57226">
        <ele>1792</ele>
        <time>2016-03-21T00:19:18Z</time>
      </trkpt>
      <trkpt lat="44.28926" lon="6.57231">
        <ele>1793</ele>
        <time>2016-03-21T00:21:18Z</time>
      </trkpt>
      <trkpt lat="44.28927" lon="6.57233">
        <ele>1794</ele>
        <time>2016-03-21T00:23:18Z</time>
      </trkpt>
      <trkpt lat="44.28929" lon="6.57234">
        <ele>1794</ele>
        <time>2016-03-21T00:25:18Z</time>
      </trkpt>
      <trkpt lat="44.2893" lon="6.57234">
        <ele>1795</ele>
        <time>2016-03-21T00:27:18Z</time>
      </trkpt>
      <trkpt lat="44.28931" lon="6.57234">
        <ele>1795</ele>
        <time>2016-03-21T00:29:18Z</time>
      </trkpt>
      <trkpt lat="44.28933" lon="6.57234">
        <ele>1795</ele>
        <time>2016-03-21T00:31:18Z</time>
      </trkpt>
      <trkpt lat="44.28935" lon="6.57234">
        <ele>1795</ele>
        <time>2016-03-21T00:33:18Z</time>
      </trkpt>
      <trkpt lat="44.28937" lon="6.57232">
        <ele>1795</ele>
        <time>2016-03-21T00:35:18Z</time>
      </trkpt>
      <trkpt lat="44.28938" lon="6.5723">
        <ele>1795</ele>
        <time>2016-03-21T00:37:18Z</time>
      </trkpt>
      <trkpt lat="44.28938" lon="6.57228">
        <ele>1795</ele>
        <time>2016-03-21T00:39:18Z</time>
      </trkpt>
      <trkpt lat="44.28939" lon="6.57226">
        <ele>1794</ele>
        <time>2016-03-21T00:41:18Z</time>
      </trkpt>
      <trkpt lat="44.28943" lon="6.57229">
        <ele>1795</ele>
        <time>2016-03-21T00:43:18Z</time>
      </trkpt>
      <trkpt lat="44.28945" lon="6.57229">
        <ele>1796</ele>
        <time>2016-03-21T00:45:18Z</time>
      </trkpt>
      <trkpt lat="44.28946" lon="6.5723">
        <ele>1796</ele>
        <time>2016-03-21T00:47:18Z</time>
      </trkpt>
      <trkpt lat="44.28948" lon="6.57231">
        <ele>1797</ele>
        <time>2016-03-21T00:49:18Z</time>
      </trkpt>
      <trkpt lat="44.28952" lon="6.57229">
        <ele>1797</ele>
        <time>2016-03-21T00:51:18Z</time>
      </trkpt>
      <trkpt lat="44.28958" lon="6.57224">
        <ele>1796</ele>
        <time>2016-03-21T00:53:18Z</time>
      </trkpt>
      <trkpt lat="44.28961" lon="6.57219">
        <ele>1796</ele>
        <time>2016-03-21T00:55:18Z</time>
      </trkpt>
      <trkpt lat="44.28965" lon="6.57214">
        <ele>1795</ele>
        <time>2016-03-21T00:57:18Z</time>
      </trkpt>
      <trkpt lat="44.28969" lon="6.5721">
        <ele>1795</ele>
        <time>2016-03-21T00:59:18Z</time>
      </trkpt>
      <trkpt lat="44.28973" lon="6.57207">
        <ele>1795</ele>
        <time>2016-03-21T01:01:18Z</time>
      </trkpt>
      <trkpt lat="44.28978" lon="6.57204">
        <ele>1795</ele>
        <time>2016-03-21T01:03:18Z</time>
      </trkpt>
      <trkpt lat="44.28982" lon="6.57202">
        <ele>1795</ele>
        <time>2016-03-21T01:05:18Z</time>
      </trkpt>
      <trkpt lat="44.28987" lon="6.57201">
        <ele>1796</ele>
        <time>2016-03-21T01:07:18Z</time>
      </trkpt>
      <trkpt lat="44.29027" lon="6.57193">
        <ele>1801</ele>
        <time>2016-03-21T01:09:18Z</time>
      </trkpt>
      <trkpt lat="44.29037" lon="6.5719">
        <ele>1803</ele>
        <time>2016-03-21T01:11:18Z</time>
      </trkpt>
      <trkpt lat="44.29046" lon="6.57185">
        <ele>1803</ele>
        <time>2016-03-21T01:13:18Z</time>
      </trkpt>
      <trkpt lat="44.29056" lon="6.5718">
        <ele>1804</ele>
        <time>2016-03-21T01:15:18Z</time>
      </trkpt>
      <trkpt lat="44.29065" lon="6.57174">
        <ele>1805</ele>
        <time>2016-03-21T01:17:18Z</time>
      </trkpt>
      <trkpt lat="44.29074" lon="6.57167">
        <ele>1805</ele>
        <time>2016-03-21T01:19:18Z</time>
      </trkpt>
      <trkpt lat="44.29083" lon="6.57159">
        <ele>1806</ele>
        <time>2016-03-21T01:21:18Z</time>
      </trkpt>
      <trkpt lat="44.29091" lon="6.57151">
        <ele>1807</ele>
        <time>2016-03-21T01:23:18Z</time>
      </trkpt>
      <trkpt lat="44.29099" lon="6.57142">
        <ele>1807</ele>
        <time>2016-03-21T01:25:18Z</time>
      </trkpt>
      <trkpt lat="44.29123" lon="6.57113">
        <ele>1809</ele>
        <time>2016-03-21T01:27:18Z</time>
      </trkpt>
      <trkpt lat="44.29145" lon="6.57084">
        <ele>1809</ele>
        <time>2016-03-21T01:29:18Z</time>
      </trkpt>
      <trkpt lat="44.29174" lon="6.57046">
        <ele>1809</ele>
        <time>2016-03-21T01:31:18Z</time>
      </trkpt>
      <trkpt lat="44.29199" lon="6.57015">
        <ele>1808</ele>
        <time>2016-03-21T01:33:18Z</time>
      </trkpt>
      <trkpt lat="44.29203" lon="6.5701">
        <ele>1807</ele>
        <time>2016-03-21T01:35:18Z</time>
      </trkpt>
      <trkpt lat="44.29208" lon="6.57008">
        <ele>1808</ele>
        <time>2016-03-21T01:37:18Z</time>
      </trkpt>
      <trkpt lat="44.29212" lon="6.57006">
        <ele>1808</ele>
        <time>2016-03-21T01:39:18Z</time>
      </trkpt>
      <trkpt lat="44.29218" lon="6.57004">
        <ele>1808</ele>
        <time>2016-03-21T01:41:18Z</time>
      </trkpt>
      <trkpt lat="44.29228" lon="6.57004">
        <ele>1809</ele>
        <time>2016-03-21T01:43:18Z</time>
      </trkpt>
      <trkpt lat="44.29237" lon="6.57007">
        <ele>1811</ele>
        <time>2016-03-21T01:45:18Z</time>
      </trkpt>
      <trkpt lat="44.29249" lon="6.5701">
        <ele>1813</ele>
        <time>2016-03-21T01:47:18Z</time>
      </trkpt>
      <trkpt lat="44.29259" lon="6.5701">
        <ele>1815</ele>
        <time>2016-03-21T01:49:18Z</time>
      </trkpt>
      <trkpt lat="44.29267" lon="6.57009">
        <ele>1816</ele>
        <time>2016-03-21T01:51:18Z</time>
      </trkpt>
      <trkpt lat="44.29277" lon="6.57004">
        <ele>1816</ele>
        <time>2016-03-21T01:53:18Z</time>
      </trkpt>
      <trkpt lat="44.29284" lon="6.56998">
        <ele>1816</ele>
        <time>2016-03-21T01:55:18Z</time>
      </trkpt>
      <trkpt lat="44.29291" lon="6.56993">
        <ele>1817</ele>
        <time>2016-03-21T01:57:18Z</time>
      </trkpt>
      <trkpt lat="44.29297" lon="6.56986">
        <ele>1817</ele>
        <time>2016-03-21T01:59:18Z</time>
      </trkpt>
      <trkpt lat="44.29301" lon="6.56977">
        <ele>1816</ele>
        <time>2016-03-21T02:01:18Z</time>
      </trkpt>
      <trkpt lat="44.29305" lon="6.56969">
        <ele>1815</ele>
        <time>2016-03-21T02:03:18Z</time>
      </trkpt>
      <trkpt lat="44.29311" lon="6.56957">
        <ele>1814</ele>
        <time>2016-03-21T02:05:18Z</time>
      </trkpt>
      <trkpt lat="44.29314" lon="6.56953">
        <ele>1814</ele>
        <time>2016-03-21T02:07:18Z</time>
      </trkpt>
      <trkpt lat="44.29319" lon="6.56949">
        <ele>1814</ele>
        <time>2016-03-21T02:09:18Z</time>
      </trkpt>
      <trkpt lat="44.29323" lon="6.56947">
        <ele>1814</ele>
        <time>2016-03-21T02:11:18Z</time>
      </trkpt>
      <trkpt lat="44.29327" lon="6.56945">
        <ele>1814</ele>
        <time>2016-03-21T02:13:18Z</time>
      </trkpt>
      <trkpt lat="44.29331" lon="6.56945">
        <ele>1814</ele>
        <time>2016-03-21T02:15:18Z</time>
      </trkpt>
      <trkpt lat="44.29337" lon="6.56946">
        <ele>1815</ele>
        <time>2016-03-21T02:17:18Z</time>
      </trkpt>
      <trkpt lat="44.29341" lon="6.56947">
        <ele>1816</ele>
        <time>2016-03-21T02:19:18Z</time>
      </trkpt>
      <trkpt lat="44.29346" lon="6.56948">
        <ele>1817</ele>
        <time>2016-03-21T02:21:18Z</time>
      </trkpt>
      <trkpt lat="44.29352" lon="6.56949">
        <ele>1818</ele>
        <time>2016-03-21T02:23:18Z</time>
      </trkpt>
      <trkpt lat="44.29367" lon="6.56948">
        <ele>1819</ele>
        <time>2016-03-21T02:25:18Z</time>
      </trkpt>
      <trkpt lat="44.29394" lon="6.56945">
        <ele>1822</ele>
        <time>2016-03-21T02:27:18Z</time>
      </trkpt>
      <trkpt lat="44.2942" lon="6.56944">
        <ele>1825</ele>
        <time>2016-03-21T02:29:18Z</time>
      </trkpt>
      <trkpt lat="44.29443" lon="6.56943">
        <ele>1827</ele>
        <time>2016-03-21T02:31:18Z</time>
      </trkpt>
      <trkpt lat="44.29479" lon="6.56942">
        <ele>1831</ele>
        <time>2016-03-21T02:33:18Z</time>
      </trkpt>
      <trkpt lat="44.29487" lon="6.56942">
        <ele>1832</ele>
        <time>2016-03-21T02:35:18Z</time>
      </trkpt>
      <trkpt lat="44.29504" lon="6.56941">
        <ele>1834</ele>
        <time>2016-03-21T02:37:18Z</time>
      </trkpt>
      <trkpt lat="44.29512" lon="6.56939">
        <ele>1834</ele>
        <time>2016-03-21T02:39:18Z</time>
      </trkpt>
      <trkpt lat="44.29547" lon="6.56929">
        <ele>1835</ele>
        <time>2016-03-21T02:41:18Z</time>
      </trkpt>
      <trkpt lat="44.29548" lon="6.56929">
        <ele>1835</ele>
        <time>2016-03-21T02:43:18Z</time>
      </trkpt>
      <trkpt lat="44.29551" lon="6.56928">
        <ele>1835</ele>
        <time>2016-03-21T02:45:18Z</time>
      </trkpt>
      <trkpt lat="44.29565" lon="6.56924">
        <ele>1835</ele>
        <time>2016-03-21T02:47:18Z</time>
      </trkpt>
      <trkpt lat="44.29569" lon="6.56923">
        <ele>1836</ele>
        <time>2016-03-21T02:49:18Z</time>
      </trkpt>
      <trkpt lat="44.29574" lon="6.56923">
        <ele>1836</ele>
        <time>2016-03-21T02:51:18Z</time>
      </trkpt>
      <trkpt lat="44.29579" lon="6.56924">
        <ele>1836</ele>
        <time>2016-03-21T02:53:18Z</time>
      </trkpt>
      <trkpt lat="44.29584" lon="6.56926">
        <ele>1837</ele>
        <time>2016-03-21T02:55:18Z</time>
      </trkpt>
      <trkpt lat="44.29588" lon="6.56929">
        <ele>1838</ele>
        <time>2016-03-21T02:57:18Z</time>
      </trkpt>
      <trkpt lat="44.29614" lon="6.56962">
        <ele>1844</ele>
        <time>2016-03-21T02:59:18Z</time>
      </trkpt>
      <trkpt lat="44.29617" lon="6.56965">
        <ele>1845</ele>
        <time>2016-03-21T03:01:18Z</time>
      </trkpt>
      <trkpt lat="44.2962" lon="6.56967">
        <ele>1845</ele>
        <time>2016-03-21T03:03:18Z</time>
      </trkpt>
      <trkpt lat="44.29624" lon="6.56968">
        <ele>1846</ele>
        <time>2016-03-21T03:05:18Z</time>
      </trkpt>
      <trkpt lat="44.29627" lon="6.56969">
        <ele>1846</ele>
        <time>2016-03-21T03:07:18Z</time>
      </trkpt>
      <trkpt lat="44.29631" lon="6.56969">
        <ele>1846</ele>
        <time>2016-03-21T03:09:18Z</time>
      </trkpt>
      <trkpt lat="44.29635" lon="6.56968">
        <ele>1847</ele>
        <time>2016-03-21T03:11:18Z</time>
      </trkpt>
      <trkpt lat="44.29639" lon="6.56965">
        <ele>1847</ele>
        <time>2016-03-21T03:13:18Z</time>
      </trkpt>
      <trkpt lat="44.29652" lon="6.56955">
        <ele>1848</ele>
        <time>2016-03-21T03:15:18Z</time>
      </trkpt>
      <trkpt lat="44.29658" lon="6.5695">
        <ele>1849</ele>
        <time>2016-03-21T03:17:18Z</time>
      </trkpt>
      <trkpt lat="44.2967" lon="6.56941">
        <ele>1850</ele>
        <time>2016-03-21T03:19:18Z</time>
      </trkpt>
      <trkpt lat="44.29718" lon="6.56916">
        <ele>1855</ele>
        <time>2016-03-21T03:21:18Z</time>
      </trkpt>
      <trkpt lat="44.29734" lon="6.56907">
        <ele>1857</ele>
        <time>2016-03-21T03:23:18Z</time>
      </trkpt>
      <trkpt lat="44.29744" lon="6.56902">
        <ele>1858</ele>
        <time>2016-03-21T03:25:18Z</time>
      </trkpt>
      <trkpt lat="44.29755" lon="6.56895">
        <ele>1859</ele>
        <time>2016-03-21T03:27:18Z</time>
      </trkpt>
      <trkpt lat="44.29765" lon="6.56888">
        <ele>1860</ele>
        <time>2016-03-21T03:29:18Z</time>
      </trkpt>
      <trkpt lat="44.29773" lon="6.56881">
        <ele>1861</ele>
        <time>2016-03-21T03:31:18Z</time>
      </trkpt>
      <trkpt lat="44.29796" lon="6.56858">
        <ele>1861</ele>
        <time>2016-03-21T03:33:18Z</time>
      </trkpt>
      <trkpt lat="44.29814" lon="6.56842">
        <ele>1861</ele>
        <time>2016-03-21T03:35:18Z</time>
      </trkpt>
      <trkpt lat="44.29832" lon="6.56823">
        <ele>1861</ele>
        <time>2016-03-21T03:37:18Z</time>
      </trkpt>
      <trkpt lat="44.2984" lon="6.56818">
        <ele>1862</ele>
        <time>2016-03-21T03:39:18Z</time>
      </trkpt>
      <trkpt lat="44.29861" lon="6.56804">
        <ele>1865</ele>
        <time>2016-03-21T03:41:18Z</time>
      </trkpt>
      <trkpt lat="44.29872" lon="6.56797">
        <ele>1866</ele>
        <time>2016-03-21T03:43:18Z</time>
      </trkpt>
      <trkpt lat="44.29883" lon="6.56791">
        <ele>1868</ele>
        <time>2016-03-21T03:45:18Z</time>
      </trkpt>
      <trkpt lat="44.29898" lon="6.56782">
        <ele>1870</ele>
        <time>2016-03-21T03:47:18Z</time>
      </trkpt>
      <trkpt lat="44.29907" lon="6.56776">
        <ele>1871</ele>
        <time>2016-03-21T03:49:18Z</time>
      </trkpt>
      <trkpt lat="44.29912" lon="6.56772">
        <ele>1871</ele>
        <time>2016-03-21T03:51:18Z</time>
      </trkpt>
      <trkpt lat="44.29921" lon="6.56761">
        <ele>1871</ele>
        <time>2016-03-21T03:53:18Z</time>
      </trkpt>
      <trkpt lat="44.29926" lon="6.5675">
        <ele>1871</ele>
        <time>2016-03-21T03:55:18Z</time>
      </trkpt>
      <trkpt lat="44.2993" lon="6.56742">
        <ele>1871</ele>
        <time>2016-03-21T03:57:18Z</time>
      </trkpt>
      <trkpt lat="44.29935" lon="6.56729">
        <ele>1871</ele>
        <time>2016-03-21T03:59:18Z</time>
      </trkpt>
      <trkpt lat="44.29937" lon="6.56725">
        <ele>1871</ele>
        <time>2016-03-21T04:01:18Z</time>
      </trkpt>
      <trkpt lat="44.2994" lon="6.56721">
        <ele>1871</ele>
        <time>2016-03-21T04:03:18Z</time>
      </trkpt>
      <trkpt lat="44.29943" lon="6.56719">
        <ele>1871</ele>
        <time>2016-03-21T04:05:18Z</time>
      </trkpt>
      <trkpt lat="44.29946" lon="6.56718">
        <ele>1872</ele>
        <time>2016-03-21T04:07:18Z</time>
      </trkpt>
      <trkpt lat="44.29949" lon="6.56718">
        <ele>1872</ele>
        <time>2016-03-21T04:09:18Z</time>
      </trkpt>
      <trkpt lat="44.29951" lon="6.56718">
        <ele>1873</ele>
        <time>2016-03-21T04:11:18Z</time>
      </trkpt>
      <trkpt lat="44.29955" lon="6.5672">
        <ele>1874</ele>
        <time>2016-03-21T04:13:18Z</time>
      </trkpt>
      <trkpt lat="44.29959" lon="6.56724">
        <ele>1875</ele>
        <time>2016-03-21T04:15:18Z</time>
      </trkpt>
      <trkpt lat="44.2996" lon="6.56728">
        <ele>1876</ele>
        <time>2016-03-21T04:17:18Z</time>
      </trkpt>
      <trkpt lat="44.29961" lon="6.56732">
        <ele>1876</ele>
        <time>2016-03-21T04:19:18Z</time>
      </trkpt>
      <trkpt lat="44.29961" lon="6.56736">
        <ele>1877</ele>
        <time>2016-03-21T04:21:18Z</time>
      </trkpt>
      <trkpt lat="44.29961" lon="6.56742">
        <ele>1877</ele>
        <time>2016-03-21T04:23:18Z</time>
      </trkpt>
      <trkpt lat="44.2996" lon="6.5675">
        <ele>1878</ele>
        <time>2016-03-21T04:25:18Z</time>
      </trkpt>
      <trkpt lat="44.29956" lon="6.56769">
        <ele>1880</ele>
        <time>2016-03-21T04:27:18Z</time>
      </trkpt>
      <trkpt lat="44.29953" lon="6.56789">
        <ele>1882</ele>
        <time>2016-03-21T04:29:18Z</time>
      </trkpt>
      <trkpt lat="44.29949" lon="6.56804">
        <ele>1883</ele>
        <time>2016-03-21T04:31:18Z</time>
      </trkpt>
      <trkpt lat="44.29947" lon="6.56815">
        <ele>1884</ele>
        <time>2016-03-21T04:33:18Z</time>
      </trkpt>
      <trkpt lat="44.29945" lon="6.56821">
        <ele>1884</ele>
        <time>2016-03-21T04:35:18Z</time>
      </trkpt>
      <trkpt lat="44.2994" lon="6.56831">
        <ele>1885</ele>
        <time>2016-03-21T04:37:18Z</time>
      </trkpt>
      <trkpt lat="44.29935" lon="6.56844">
        <ele>1886</ele>
        <time>2016-03-21T04:39:18Z</time>
      </trkpt>
      <trkpt lat="44.29926" lon="6.56864">
        <ele>1887</ele>
        <time>2016-03-21T04:41:18Z</time>
      </trkpt>
      <trkpt lat="44.29917" lon="6.56883">
        <ele>1888</ele>
        <time>2016-03-21T04:43:18Z</time>
      </trkpt>
      <trkpt lat="44.29911" lon="6.56894">
        <ele>1889</ele>
        <time>2016-03-21T04:45:18Z</time>
      </trkpt>
      <trkpt lat="44.29902" lon="6.56905">
        <ele>1888</ele>
        <time>2016-03-21T04:47:18Z</time>
      </trkpt>
      <trkpt lat="44.29889" lon="6.56922">
        <ele>1888</ele>
        <time>2016-03-21T04:49:18Z</time>
      </trkpt>
      <trkpt lat="44.29877" lon="6.56945">
        <ele>1891</ele>
        <time>2016-03-21T04:51:18Z</time>
      </trkpt>
      <trkpt lat="44.29873" lon="6.56949">
        <ele>1891</ele>
        <time>2016-03-21T04:53:18Z</time>
      </trkpt>
      <trkpt lat="44.29867" lon="6.56954">
        <ele>1890</ele>
        <time>2016-03-21T04:55:18Z</time>
      </trkpt>
      <trkpt lat="44.29861" lon="6.5696">
        <ele>1890</ele>
        <time>2016-03-21T04:57:18Z</time>
      </trkpt>
      <trkpt lat="44.29857" lon="6.56966">
        <ele>1890</ele>
        <time>2016-03-21T04:59:18Z</time>
      </trkpt>
      <trkpt lat="44.29855" lon="6.56971">
        <ele>1891</ele>
        <time>2016-03-21T05:01:18Z</time>
      </trkpt>
      <trkpt lat="44.29851" lon="6.56982">
        <ele>1892</ele>
        <time>2016-03-21T05:03:18Z</time>
      </trkpt>
      <trkpt lat="44.29849" lon="6.56989">
        <ele>1893</ele>
        <time>2016-03-21T05:05:18Z</time>
      </trkpt>
      <trkpt lat="44.29846" lon="6.57008">
        <ele>1896</ele>
        <time>2016-03-21T05:07:18Z</time>
      </trkpt>
      <trkpt lat="44.29845" lon="6.57014">
        <ele>1897</ele>
        <time>2016-03-21T05:09:18Z</time>
      </trkpt>
      <trkpt lat="44.29843" lon="6.57018">
        <ele>1897</ele>
        <time>2016-03-21T05:11:18Z</time>
      </trkpt>
      <trkpt lat="44.29837" lon="6.5703">
        <ele>1897</ele>
        <time>2016-03-21T05:13:18Z</time>
      </trkpt>
      <trkpt lat="44.29834" lon="6.5704">
        <ele>1898</ele>
        <time>2016-03-21T05:15:18Z</time>
      </trkpt>
      <trkpt lat="44.29831" lon="6.5705">
        <ele>1899</ele>
        <time>2016-03-21T05:17:18Z</time>
      </trkpt>
      <trkpt lat="44.29827" lon="6.57075">
        <ele>1902</ele>
        <time>2016-03-21T05:19:18Z</time>
      </trkpt>
      <trkpt lat="44.29821" lon="6.57091">
        <ele>1904</ele>
        <time>2016-03-21T05:21:18Z</time>
      </trkpt>
      <trkpt lat="44.29808" lon="6.57121">
        <ele>1906</ele>
        <time>2016-03-21T05:23:18Z</time>
      </trkpt>
      <trkpt lat="44.29803" lon="6.57138">
        <ele>1908</ele>
        <time>2016-03-21T05:25:18Z</time>
      </trkpt>
      <trkpt lat="44.29788" lon="6.57193">
        <ele>1913</ele>
        <time>2016-03-21T05:27:18Z</time>
      </trkpt>
      <trkpt lat="44.29785" lon="6.57205">
        <ele>1914</ele>
        <time>2016-03-21T05:29:18Z</time>
      </trkpt>
      <trkpt lat="44.29782" lon="6.57222">
        <ele>1915</ele>
        <time>2016-03-21T05:31:18Z</time>
      </trkpt>
      <trkpt lat="44.29781" lon="6.57226">
        <ele>1916</ele>
        <time>2016-03-21T05:33:18Z</time>
      </trkpt>
      <trkpt lat="44.2978" lon="6.57231">
        <ele>1916</ele>
        <time>2016-03-21T05:35:18Z</time>
      </trkpt>
      <trkpt lat="44.29778" lon="6.57235">
        <ele>1916</ele>
        <time>2016-03-21T05:37:18Z</time>
      </trkpt>
      <trkpt lat="44.29777" lon="6.57238">
        <ele>1917</ele>
        <time>2016-03-21T05:39:18Z</time>
      </trkpt>
      <trkpt lat="44.29771" lon="6.57245">
        <ele>1916</ele>
        <time>2016-03-21T05:41:18Z</time>
      </trkpt>
      <trkpt lat="44.29766" lon="6.57248">
        <ele>1915</ele>
        <time>2016-03-21T05:43:18Z</time>
      </trkpt>
      <trkpt lat="44.29757" lon="6.5725">
        <ele>1913</ele>
        <time>2016-03-21T05:45:18Z</time>
      </trkpt>
      <trkpt lat="44.29748" lon="6.57251">
        <ele>1911</ele>
        <time>2016-03-21T05:47:18Z</time>
      </trkpt>
      <trkpt lat="44.29739" lon="6.57254">
        <ele>1909</ele>
        <time>2016-03-21T05:49:18Z</time>
      </trkpt>
      <trkpt lat="44.29736" lon="6.57256">
        <ele>1908</ele>
        <time>2016-03-21T05:51:18Z</time>
      </trkpt>
      <trkpt lat="44.29733" lon="6.57259">
        <ele>1908</ele>
        <time>2016-03-21T05:53:18Z</time>
      </trkpt>
      <trkpt lat="44.29731" lon="6.57262">
        <ele>1908</ele>
        <time>2016-03-21T05:55:18Z</time>
      </trkpt>
      <trkpt lat="44.2973" lon="6.57265">
        <ele>1908</ele>
        <time>2016-03-21T05:57:18Z</time>
      </trkpt>
      <trkpt lat="44.2973" lon="6.5727">
        <ele>1908</ele>
        <time>2016-03-21T05:59:18Z</time>
      </trkpt>
      <trkpt lat="44.2973" lon="6.57271">
        <ele>1908</ele>
        <time>2016-03-21T06:01:18Z</time>
      </trkpt>
      <trkpt lat="44.29732" lon="6.57274">
        <ele>1909</ele>
        <time>2016-03-21T06:03:18Z</time>
      </trkpt>
      <trkpt lat="44.29734" lon="6.57276">
        <ele>1910</ele>
        <time>2016-03-21T06:05:18Z</time>
      </trkpt>
      <trkpt lat="44.29737" lon="6.57278">
        <ele>1911</ele>
        <time>2016-03-21T06:07:18Z</time>
      </trkpt>
      <trkpt lat="44.29746" lon="6.57276">
        <ele>1913</ele>
        <time>2016-03-21T06:09:18Z</time>
      </trkpt>
      <trkpt lat="44.29765" lon="6.5727">
        <ele>1917</ele>
        <time>2016-03-21T06:11:18Z</time>
      </trkpt>
      <trkpt lat="44.29786" lon="6.57262">
        <ele>1922</ele>
        <time>2016-03-21T06:13:18Z</time>
      </trkpt>
      <trkpt lat="44.2979" lon="6.5726">
        <ele>1923</ele>
        <time>2016-03-21T06:15:18Z</time>
      </trkpt>
      <trkpt lat="44.29793" lon="6.5726">
        <ele>1924</ele>
        <time>2016-03-21T06:17:18Z</time>
      </trkpt>
      <trkpt lat="44.29796" lon="6.57261">
        <ele>1925</ele>
        <time>2016-03-21T06:19:18Z</time>
      </trkpt>
      <trkpt lat="44.29798" lon="6.57263">
        <ele>1925</ele>
        <time>2016-03-21T06:21:18Z</time>
      </trkpt>
      <trkpt lat="44.29799" lon="6.57267">
        <ele>1926</ele>
        <time>2016-03-21T06:23:18Z</time>
      </trkpt>
      <trkpt lat="44.29799" lon="6.57271">
        <ele>1927</ele>
        <time>2016-03-21T06:25:18Z</time>
      </trkpt>
      <trkpt lat="44.29798" lon="6.57276">
        <ele>1927</ele>
        <time>2016-03-21T06:27:18Z</time>
      </trkpt>
      <trkpt lat="44.29796" lon="6.5728">
        <ele>1927</ele>
        <time>2016-03-21T06:29:18Z</time>
      </trkpt>
      <trkpt lat="44.29791" lon="6.57284">
        <ele>1926</ele>
        <time>2016-03-21T06:31:18Z</time>
      </trkpt>
      <trkpt lat="44.29781" lon="6.57288">
        <ele>1923</ele>
        <time>2016-03-21T06:33:18Z</time>
      </trkpt>
      <trkpt lat="44.29762" lon="6.5729">
        <ele>1918</ele>
        <time>2016-03-21T06:35:18Z</time>
      </trkpt>
      <trkpt lat="44.29756" lon="6.57292">
        <ele>1917</ele>
        <time>2016-03-21T06:37:18Z</time>
      </trkpt>
      <trkpt lat="44.29753" lon="6.57294">
        <ele>1916</ele>
        <time>2016-03-21T06:39:18Z</time>
      </trkpt>
      <trkpt lat="44.2975" lon="6.57297">
        <ele>1916</ele>
        <time>2016-03-21T06:41:18Z</time>
      </trkpt>
      <trkpt lat="44.29749" lon="6.57301">
        <ele>1916</ele>
        <time>2016-03-21T06:43:18Z</time>
      </trkpt>
      <trkpt lat="44.29749" lon="6.57305">
        <ele>1916</ele>
        <time>2016-03-21T06:45:18Z</time>
      </trkpt>
      <trkpt lat="44.2975" lon="6.57308">
        <ele>1917</ele>
        <time>2016-03-21T06:47:18Z</time>
      </trkpt>
      <trkpt lat="44.29752" lon="6.57312">
        <ele>1918</ele>
        <time>2016-03-21T06:49:18Z</time>
      </trkpt>
      <trkpt lat="44.29757" lon="6.57315">
        <ele>1919</ele>
        <time>2016-03-21T06:51:18Z</time>
      </trkpt>
      <trkpt lat="44.29771" lon="6.57314">
        <ele>1923</ele>
        <time>2016-03-21T06:53:18Z</time>
      </trkpt>
      <trkpt lat="44.29787" lon="6.57312">
        <ele>1927</ele>
        <time>2016-03-21T06:55:18Z</time>
      </trkpt>
      <trkpt lat="44.29796" lon="6.5731">
        <ele>1929</ele>
        <time>2016-03-21T06:57:18Z</time>
      </trkpt>
      <trkpt lat="44.29802" lon="6.57307">
        <ele>1931</ele>
        <time>2016-03-21T06:59:18Z</time>
      </trkpt>
      <trkpt lat="44.29811" lon="6.57303">
        <ele>1933</ele>
        <time>2016-03-21T07:01:18Z</time>
      </trkpt>
      <trkpt lat="44.29815" lon="6.573">
        <ele>1934</ele>
        <time>2016-03-21T07:03:18Z</time>
      </trkpt>
      <trkpt lat="44.2982" lon="6.57295">
        <ele>1935</ele>
        <time>2016-03-21T07:05:18Z</time>
      </trkpt>
      <trkpt lat="44.29823" lon="6.57293">
        <ele>1935</ele>
        <time>2016-03-21T07:07:18Z</time>
      </trkpt>
      <trkpt lat="44.29826" lon="6.57289">
        <ele>1936</ele>
        <time>2016-03-21T07:09:18Z</time>
      </trkpt>
      <trkpt lat="44.29827" lon="6.57283">
        <ele>1935</ele>
        <time>2016-03-21T07:11:18Z</time>
      </trkpt>
      <trkpt lat="44.29828" lon="6.57278">
        <ele>1935</ele>
        <time>2016-03-21T07:13:18Z</time>
      </trkpt>
      <trkpt lat="44.29828" lon="6.57273">
        <ele>1935</ele>
        <time>2016-03-21T07:15:18Z</time>
      </trkpt>
      <trkpt lat="44.29828" lon="6.57267">
        <ele>1934</ele>
        <time>2016-03-21T07:17:18Z</time>
      </trkpt>
      <trkpt lat="44.29828" lon="6.57262">
        <ele>1934</ele>
        <time>2016-03-21T07:19:18Z</time>
      </trkpt>
      <trkpt lat="44.29829" lon="6.57259">
        <ele>1934</ele>
        <time>2016-03-21T07:21:18Z</time>
      </trkpt>
      <trkpt lat="44.2983" lon="6.57257">
        <ele>1934</ele>
        <time>2016-03-21T07:23:18Z</time>
      </trkpt>
      <trkpt lat="44.29832" lon="6.57255">
        <ele>1934</ele>
        <time>2016-03-21T07:25:18Z</time>
      </trkpt>
      <trkpt lat="44.29834" lon="6.57254">
        <ele>1935</ele>
        <time>2016-03-21T07:27:18Z</time>
      </trkpt>
      <trkpt lat="44.29836" lon="6.57254">
        <ele>1936</ele>
        <time>2016-03-21T07:29:18Z</time>
      </trkpt>
      <trkpt lat="44.29838" lon="6.57254">
        <ele>1937</ele>
        <time>2016-03-21T07:31:18Z</time>
      </trkpt>
      <trkpt lat="44.2984" lon="6.57256">
        <ele>1938</ele>
        <time>2016-03-21T07:33:18Z</time>
      </trkpt>
      <trkpt lat="44.29841" lon="6.57257">
        <ele>1939</ele>
        <time>2016-03-21T07:35:18Z</time>
      </trkpt>
      <trkpt lat="44.29843" lon="6.5726">
        <ele>1940</ele>
        <time>2016-03-21T07:37:18Z</time>
      </trkpt>
      <trkpt lat="44.29844" lon="6.57263">
        <ele>1941</ele>
        <time>2016-03-21T07:39:18Z</time>
      </trkpt>
      <trkpt lat="44.29844" lon="6.57265">
        <ele>1941</ele>
        <time>2016-03-21T07:41:18Z</time>
      </trkpt>
      <trkpt lat="44.29844" lon="6.57268">
        <ele>1941</ele>
        <time>2016-03-21T07:43:18Z</time>
      </trkpt>
      <trkpt lat="44.29844" lon="6.5727">
        <ele>1941</ele>
        <time>2016-03-21T07:45:18Z</time>
      </trkpt>
      <trkpt lat="44.29841" lon="6.57281">
        <ele>1941</ele>
        <time>2016-03-21T07:47:18Z</time>
      </trkpt>
      <trkpt lat="44.29836" lon="6.57293">
        <ele>1939</ele>
        <time>2016-03-21T07:49:18Z</time>
      </trkpt>
      <trkpt lat="44.29831" lon="6.57306">
        <ele>1939</ele>
        <time>2016-03-21T07:51:18Z</time>
      </trkpt>
      <trkpt lat="44.29825" lon="6.57321">
        <ele>1939</ele>
        <time>2016-03-21T07:53:18Z</time>
      </trkpt>
      <trkpt lat="44.2982" lon="6.57332">
        <ele>1938</ele>
        <time>2016-03-21T07:55:18Z</time>
      </trkpt>
      <trkpt lat="44.29818" lon="6.57334">
        <ele>1938</ele>
        <time>2016-03-21T07:57:18Z</time>
      </trkpt>
      <trkpt lat="44.29813" lon="6.5734">
        <ele>1937</ele>
        <time>2016-03-21T07:59:18Z</time>
      </trkpt>
      <trkpt lat="44.298" lon="6.57348">
        <ele>1934</ele>
        <time>2016-03-21T08:01:18Z</time>
      </trkpt>
      <trkpt lat="44.29792" lon="6.57353">
        <ele>1932</ele>
        <time>2016-03-21T08:03:18Z</time>
      </trkpt>
      <trkpt lat="44.29789" lon="6.57357">
        <ele>1931</ele>
        <time>2016-03-21T08:05:18Z</time>
      </trkpt>
      <trkpt lat="44.29787" lon="6.57362">
        <ele>1931</ele>
        <time>2016-03-21T08:07:18Z</time>
      </trkpt>
      <trkpt lat="44.29786" lon="6.57367">
        <ele>1931</ele>
        <time>2016-03-21T08:09:18Z</time>
      </trkpt>
      <trkpt lat="44.29786" lon="6.57378">
        <ele>1932</ele>
        <time>2016-03-21T08:11:18Z</time>
      </trkpt>
      <trkpt lat="44.29787" lon="6.57389">
        <ele>1933</ele>
        <time>2016-03-21T08:13:18Z</time>
      </trkpt>
      <trkpt lat="44.29791" lon="6.57406">
        <ele>1935</ele>
        <time>2016-03-21T08:15:18Z</time>
      </trkpt>
      <trkpt lat="44.29796" lon="6.57417">
        <ele>1938</ele>
        <time>2016-03-21T08:17:18Z</time>
      </trkpt>
      <trkpt lat="44.29802" lon="6.57427">
        <ele>1941</ele>
        <time>2016-03-21T08:19:18Z</time>
      </trkpt>
      <trkpt lat="44.29805" lon="6.57434">
        <ele>1942</ele>
        <time>2016-03-21T08:21:18Z</time>
      </trkpt>
      <trkpt lat="44.2981" lon="6.57451">
        <ele>1945</ele>
        <time>2016-03-21T08:23:18Z</time>
      </trkpt>
      <trkpt lat="44.29815" lon="6.57466">
        <ele>1947</ele>
        <time>2016-03-21T08:25:18Z</time>
      </trkpt>
      <trkpt lat="44.29818" lon="6.57473">
        <ele>1949</ele>
        <time>2016-03-21T08:27:18Z</time>
      </trkpt>
      <trkpt lat="44.29821" lon="6.5748">
        <ele>1950</ele>
        <time>2016-03-21T08:29:18Z</time>
      </trkpt>
      <trkpt lat="44.29823" lon="6.57487">
        <ele>1951</ele>
        <time>2016-03-21T08:31:18Z</time>
      </trkpt>
      <trkpt lat="44.29825" lon="6.57495">
        <ele>1952</ele>
        <time>2016-03-21T08:33:18Z</time>
      </trkpt>
      <trkpt lat="44.29825" lon="6.57502">
        <ele>1953</ele>
        <time>2016-03-21T08:35:18Z</time>
      </trkpt>
      <trkpt lat="44.29825" lon="6.57509">
        <ele>1953</ele>
        <time>2016-03-21T08:37:18Z</time>
      </trkpt>
      <trkpt lat="44.29824" lon="6.57517">
        <ele>1953</ele>
        <time>2016-03-21T08:39:18Z</time>
      </trkpt>
      <trkpt lat="44.29817" lon="6.57552">
        <ele>1953</ele>
        <time>2016-03-21T08:41:18Z</time>
      </trkpt>
      <trkpt lat="44.29814" lon="6.57583">
        <ele>1955</ele>
        <time>2016-03-21T08:43:18Z</time>
      </trkpt>
      <trkpt lat="44.29811" lon="6.57603">
        <ele>1956</ele>
        <time>2016-03-21T08:45:18Z</time>
      </trkpt>
      <trkpt lat="44.2981" lon="6.57612">
        <ele>1957</ele>
        <time>2016-03-21T08:47:18Z</time>
      </trkpt>
      <trkpt lat="44.29808" lon="6.57621">
        <ele>1957</ele>
        <time>2016-03-21T08:49:18Z</time>
      </trkpt>
      <trkpt lat="44.29803" lon="6.5764">
        <ele>1958</ele>
        <time>2016-03-21T08:51:18Z</time>
      </trkpt>
      <trkpt lat="44.298" lon="6.57651">
        <ele>1959</ele>
        <time>2016-03-21T08:53:18Z</time>
      </trkpt>
      <trkpt lat="44.29795" lon="6.57689">
        <ele>1961</ele>
        <time>2016-03-21T08:55:18Z</time>
      </trkpt>
      <trkpt lat="44.29795" lon="6.57693">
        <ele>1962</ele>
        <time>2016-03-21T08:57:18Z</time>
      </trkpt>
      <trkpt lat="44.29796" lon="6.57696">
        <ele>1962</ele>
        <time>2016-03-21T08:59:18Z</time>
      </trkpt>
      <trkpt lat="44.29798" lon="6.57699">
        <ele>1963</ele>
        <time>2016-03-21T09:01:18Z</time>
      </trkpt>
      <trkpt lat="44.298" lon="6.577">
        <ele>1963</ele>
        <time>2016-03-21T09:03:18Z</time>
      </trkpt>
      <trkpt lat="44.29802" lon="6.57702">
        <ele>1964</ele>
        <time>2016-03-21T09:05:18Z</time>
      </trkpt>
      <trkpt lat="44.29804" lon="6.57702">
        <ele>1964</ele>
        <time>2016-03-21T09:07:18Z</time>
      </trkpt>
      <trkpt lat="44.29806" lon="6.57701">
        <ele>1964</ele>
        <time>2016-03-21T09:09:18Z</time>
      </trkpt>
      <trkpt lat="44.29809" lon="6.577">
        <ele>1965</ele>
        <time>2016-03-21T09:11:18Z</time>
      </trkpt>
      <trkpt lat="44.2981" lon="6.57697">
        <ele>1965</ele>
        <time>2016-03-21T09:13:18Z</time>
      </trkpt>
      <trkpt lat="44.29811" lon="6.57694">
        <ele>1965</ele>
        <time>2016-03-21T09:15:18Z</time>
      </trkpt>
      <trkpt lat="44.29812" lon="6.57691">
        <ele>1965</ele>
        <time>2016-03-21T09:17:18Z</time>
      </trkpt>
      <trkpt lat="44.29812" lon="6.57657">
        <ele>1962</ele>
        <time>2016-03-21T09:19:18Z</time>
      </trkpt>
      <trkpt lat="44.29814" lon="6.57648">
        <ele>1962</ele>
        <time>2016-03-21T09:21:18Z</time>
      </trkpt>
      <trkpt lat="44.29815" lon="6.57644">
        <ele>1961</ele>
        <time>2016-03-21T09:23:18Z</time>
      </trkpt>
      <trkpt lat="44.29817" lon="6.5764">
        <ele>1962</ele>
        <time>2016-03-21T09:25:18Z</time>
      </trkpt>
      <trkpt lat="44.29838" lon="6.57606">
        <ele>1965</ele>
        <time>2016-03-21T09:27:18Z</time>
      </trkpt>
      <trkpt lat="44.29842" lon="6.57597">
        <ele>1966</ele>
        <time>2016-03-21T09:29:18Z</time>
      </trkpt>
      <trkpt lat="44.29847" lon="6.57587">
        <ele>1968</ele>
        <time>2016-03-21T09:31:18Z</time>
      </trkpt>
      <trkpt lat="44.2985" lon="6.57577">
        <ele>1969</ele>
        <time>2016-03-21T09:33:18Z</time>
      </trkpt>
      <trkpt lat="44.29866" lon="6.57516">
        <ele>1972</ele>
        <time>2016-03-21T09:35:18Z</time>
      </trkpt>
      <trkpt lat="44.29868" lon="6.57502">
        <ele>1972</ele>
        <time>2016-03-21T09:37:18Z</time>
      </trkpt>
      <trkpt lat="44.29868" lon="6.57482">
        <ele>1971</ele>
        <time>2016-03-21T09:39:18Z</time>
      </trkpt>
      <trkpt lat="44.29869" lon="6.57467">
        <ele>1971</ele>
        <time>2016-03-21T09:41:18Z</time>
      </trkpt>
      <trkpt lat="44.29871" lon="6.57453">
        <ele>1972</ele>
        <time>2016-03-21T09:43:18Z</time>
      </trkpt>
      <trkpt lat="44.29873" lon="6.5744">
        <ele>1973</ele>
        <time>2016-03-21T09:45:18Z</time>
      </trkpt>
      <trkpt lat="44.29877" lon="6.57423">
        <ele>1974</ele>
        <time>2016-03-21T09:47:18Z</time>
      </trkpt>
      <trkpt lat="44.29879" lon="6.57421">
        <ele>1975</ele>
        <time>2016-03-21T09:49:18Z</time>
      </trkpt>
      <trkpt lat="44.29881" lon="6.57419">
        <ele>1976</ele>
        <time>2016-03-21T09:51:18Z</time>
      </trkpt>
      <trkpt lat="44.29882" lon="6.57417">
        <ele>1977</ele>
        <time>2016-03-21T09:53:18Z</time>
      </trkpt>
      <trkpt lat="44.29885" lon="6.57416">
        <ele>1978</ele>
        <time>2016-03-21T09:55:18Z</time>
      </trkpt>
      <trkpt lat="44.29888" lon="6.57417">
        <ele>1980</ele>
        <time>2016-03-21T09:57:18Z</time>
      </trkpt>
      <trkpt lat="44.2989" lon="6.57419">
        <ele>1981</ele>
        <time>2016-03-21T09:59:18Z</time>
      </trkpt>
      <trkpt lat="44.29892" lon="6.57422">
        <ele>1982</ele>
        <time>2016-03-21T10:01:18Z</time>
      </trkpt>
      <trkpt lat="44.29892" lon="6.57424">
        <ele>1982</ele>
        <time>2016-03-21T10:03:18Z</time>
      </trkpt>
      <trkpt lat="44.29893" lon="6.57428">
        <ele>1982</ele>
        <time>2016-03-21T10:05:18Z</time>
      </trkpt>
      <trkpt lat="44.29892" lon="6.5743">
        <ele>1982</ele>
        <time>2016-03-21T10:07:18Z</time>
      </trkpt>
      <trkpt lat="44.29887" lon="6.57447">
        <ele>1980</ele>
        <time>2016-03-21T10:09:18Z</time>
      </trkpt>
      <trkpt lat="44.29885" lon="6.57457">
        <ele>1979</ele>
        <time>2016-03-21T10:11:18Z</time>
      </trkpt>
      <trkpt lat="44.29884" lon="6.57463">
        <ele>1978</ele>
        <time>2016-03-21T10:13:18Z</time>
      </trkpt>
      <trkpt lat="44.29885" lon="6.57469">
        <ele>1979</ele>
        <time>2016-03-21T10:15:18Z</time>
      </trkpt>
      <trkpt lat="44.29887" lon="6.57481">
        <ele>1980</ele>
        <time>2016-03-21T10:17:18Z</time>
      </trkpt>
      <trkpt lat="44.29889" lon="6.5749">
        <ele>1981</ele>
        <time>2016-03-21T10:19:18Z</time>
      </trkpt>
      <trkpt lat="44.29893" lon="6.57509">
        <ele>1984</ele>
        <time>2016-03-21T10:21:18Z</time>
      </trkpt>
      <trkpt lat="44.29897" lon="6.57533">
        <ele>1988</ele>
        <time>2016-03-21T10:23:18Z</time>
      </trkpt>
      <trkpt lat="44.29901" lon="6.57558">
        <ele>1991</ele>
        <time>2016-03-21T10:25:18Z</time>
      </trkpt>
      <trkpt lat="44.29902" lon="6.57583">
        <ele>1994</ele>
        <time>2016-03-21T10:27:18Z</time>
      </trkpt>
      <trkpt lat="44.29904" lon="6.57606">
        <ele>1995</ele>
        <time>2016-03-21T10:29:18Z</time>
      </trkpt>
      <trkpt lat="44.29905" lon="6.57623">
        <ele>1996</ele>
        <time>2016-03-21T10:31:18Z</time>
      </trkpt>
      <trkpt lat="44.29905" lon="6.57639">
        <ele>1996</ele>
        <time>2016-03-21T10:33:18Z</time>
      </trkpt>
      <trkpt lat="44.29904" lon="6.57663">
        <ele>1996</ele>
        <time>2016-03-21T10:35:18Z</time>
      </trkpt>
      <trkpt lat="44.29904" lon="6.57671">
        <ele>1996</ele>
        <time>2016-03-21T10:37:18Z</time>
      </trkpt>
      <trkpt lat="44.29906" lon="6.57687">
        <ele>1998</ele>
        <time>2016-03-21T10:39:18Z</time>
      </trkpt>
      <trkpt lat="44.29908" lon="6.57694">
        <ele>1999</ele>
        <time>2016-03-21T10:41:18Z</time>
      </trkpt>
      <trkpt lat="44.29912" lon="6.57705">
        <ele>2001</ele>
        <time>2016-03-21T10:43:18Z</time>
      </trkpt>
      <trkpt lat="44.29913" lon="6.57713">
        <ele>2002</ele>
        <time>2016-03-21T10:45:18Z</time>
      </trkpt>
      <trkpt lat="44.29913" lon="6.57717">
        <ele>2002</ele>
        <time>2016-03-21T10:47:18Z</time>
      </trkpt>
      <trkpt lat="44.29913" lon="6.5772">
        <ele>2002</ele>
        <time>2016-03-21T10:49:18Z</time>
      </trkpt>
      <trkpt lat="44.29913" lon="6.57723">
        <ele>2002</ele>
        <time>2016-03-21T10:51:18Z</time>
      </trkpt>
      <trkpt lat="44.29913" lon="6.57725">
        <ele>2002</ele>
        <time>2016-03-21T10:53:18Z</time>
      </trkpt>
      <trkpt lat="44.29912" lon="6.57728">
        <ele>2002</ele>
        <time>2016-03-21T10:55:18Z</time>
      </trkpt>
      <trkpt lat="44.29912" lon="6.57733">
        <ele>2002</ele>
        <time>2016-03-21T10:57:18Z</time>
      </trkpt>
      <trkpt lat="44.29911" lon="6.57739">
        <ele>2002</ele>
        <time>2016-03-21T10:59:18Z</time>
      </trkpt>
      <trkpt lat="44.29911" lon="6.57751">
        <ele>2003</ele>
        <time>2016-03-21T11:01:18Z</time>
      </trkpt>
      <trkpt lat="44.29914" lon="6.57767">
        <ele>2004</ele>
        <time>2016-03-21T11:03:18Z</time>
      </trkpt>
      <trkpt lat="44.29916" lon="6.57783">
        <ele>2005</ele>
        <time>2016-03-21T11:05:18Z</time>
      </trkpt>
      <trkpt lat="44.29916" lon="6.578">
        <ele>2005</ele>
        <time>2016-03-21T11:07:18Z</time>
      </trkpt>
      <trkpt lat="44.29916" lon="6.57815">
        <ele>2006</ele>
        <time>2016-03-21T11:09:18Z</time>
      </trkpt>
      <trkpt lat="44.29917" lon="6.57829">
        <ele>2006</ele>
        <time>2016-03-21T11:11:18Z</time>
      </trkpt>
      <trkpt lat="44.29923" lon="6.57872">
        <ele>2009</ele>
        <time>2016-03-21T11:13:18Z</time>
      </trkpt>
      <trkpt lat="44.29925" lon="6.57885">
        <ele>2010</ele>
        <time>2016-03-21T11:15:18Z</time>
      </trkpt>
      <trkpt lat="44.29925" lon="6.57899">
        <ele>2010</ele>
        <time>2016-03-21T11:17:18Z</time>
      </trkpt>
      <trkpt lat="44.29926" lon="6.57913">
        <ele>2010</ele>
        <time>2016-03-21T11:19:18Z</time>
      </trkpt>
      <trkpt lat="44.29927" lon="6.57937">
        <ele>2010</ele>
        <time>2016-03-21T11:21:18Z</time>
      </trkpt>
      <trkpt lat="44.29927" lon="6.57956">
        <ele>2010</ele>
        <time>2016-03-21T11:23:18Z</time>
      </trkpt>
      <trkpt lat="44.29926" lon="6.57967">
        <ele>2010</ele>
        <time>2016-03-21T11:25:18Z</time>
      </trkpt>
      <trkpt lat="44.29927" lon="6.57974">
        <ele>2010</ele>
        <time>2016-03-21T11:27:18Z</time>
      </trkpt>
      <trkpt lat="44.29927" lon="6.57977">
        <ele>2010</ele>
        <time>2016-03-21T11:29:18Z</time>
      </trkpt>
      <trkpt lat="44.29927" lon="6.57979">
        <ele>2010</ele>
        <time>2016-03-21T11:31:18Z</time>
      </trkpt>
      <trkpt lat="44.29929" lon="6.57981">
        <ele>2011</ele>
        <time>2016-03-21T11:33:18Z</time>
      </trkpt>
      <trkpt lat="44.29931" lon="6.57983">
        <ele>2012</ele>
        <time>2016-03-21T11:35:18Z</time>
      </trkpt>
      <trkpt lat="44.29933" lon="6.57983">
        <ele>2013</ele>
        <time>2016-03-21T11:37:18Z</time>
      </trkpt>
      <trkpt lat="44.29935" lon="6.57983">
        <ele>2014</ele>
        <time>2016-03-21T11:39:18Z</time>
      </trkpt>
      <trkpt lat="44.29937" lon="6.57982">
        <ele>2015</ele>
        <time>2016-03-21T11:41:18Z</time>
      </trkpt>
      <trkpt lat="44.29939" lon="6.5798">
        <ele>2016</ele>
        <time>2016-03-21T11:43:18Z</time>
      </trkpt>
      <trkpt lat="44.29941" lon="6.57978">
        <ele>2017</ele>
        <time>2016-03-21T11:45:18Z</time>
      </trkpt>
      <trkpt lat="44.29942" lon="6.57973">
        <ele>2017</ele>
        <time>2016-03-21T11:47:18Z</time>
      </trkpt>
      <trkpt lat="44.29942" lon="6.57968">
        <ele>2017</ele>
        <time>2016-03-21T11:49:18Z</time>
      </trkpt>
      <trkpt lat="44.29942" lon="6.57963">
        <ele>2017</ele>
        <time>2016-03-21T11:51:18Z</time>
      </trkpt>
      <trkpt lat="44.29941" lon="6.57957">
        <ele>2017</ele>
        <time>2016-03-21T11:53:18Z</time>
      </trkpt>
      <trkpt lat="44.29939" lon="6.5795">
        <ele>2016</ele>
        <time>2016-03-21T11:55:18Z</time>
      </trkpt>
      <trkpt lat="44.29937" lon="6.57938">
        <ele>2015</ele>
        <time>2016-03-21T11:57:18Z</time>
      </trkpt>
      <trkpt lat="44.29937" lon="6.5793">
        <ele>2016</ele>
        <time>2016-03-21T11:59:18Z</time>
      </trkpt>
      <trkpt lat="44.2994" lon="6.57911">
        <ele>2017</ele>
        <time>2016-03-21T12:01:18Z</time>
      </trkpt>
      <trkpt lat="44.29943" lon="6.57895">
        <ele>2019</ele>
        <time>2016-03-21T12:03:18Z</time>
      </trkpt>
      <trkpt lat="44.29944" lon="6.57874">
        <ele>2020</ele>
        <time>2016-03-21T12:05:18Z</time>
      </trkpt>
      <trkpt lat="44.29946" lon="6.57851">
        <ele>2021</ele>
        <time>2016-03-21T12:07:18Z</time>
      </trkpt>
      <trkpt lat="44.29951" lon="6.57827">
        <ele>2024</ele>
        <time>2016-03-21T12:09:18Z</time>
      </trkpt>
      <trkpt lat="44.29954" lon="6.57817">
        <ele>2025</ele>
        <time>2016-03-21T12:11:18Z</time>
      </trkpt>
      <trkpt lat="44.29957" lon="6.57808">
        <ele>2027</ele>
        <time>2016-03-21T12:13:18Z</time>
      </trkpt>
      <trkpt lat="44.2996" lon="6.57794">
        <ele>2028</ele>
        <time>2016-03-21T12:15:18Z</time>
      </trkpt>
      <trkpt lat="44.29962" lon="6.57781">
        <ele>2029</ele>
        <time>2016-03-21T12:17:18Z</time>
      </trkpt>
      <trkpt lat="44.29964" lon="6.57765">
        <ele>2030</ele>
        <time>2016-03-21T12:19:18Z</time>
      </trkpt>
      <trkpt lat="44.2997" lon="6.57738">
        <ele>2032</ele>
        <time>2016-03-21T12:21:18Z</time>
      </trkpt>
      <trkpt lat="44.29976" lon="6.57724">
        <ele>2035</ele>
        <time>2016-03-21T12:23:18Z</time>
      </trkpt>
      <trkpt lat="44.29979" lon="6.57718">
        <ele>2036</ele>
        <time>2016-03-21T12:25:18Z</time>
      </trkpt>
      <trkpt lat="44.29982" lon="6.57712">
        <ele>2037</ele>
        <time>2016-03-21T12:27:18Z</time>
      </trkpt>
      <trkpt lat="44.29983" lon="6.57707">
        <ele>2037</ele>
        <time>2016-03-21T12:29:18Z</time>
      </trkpt>
      <trkpt lat="44.29985" lon="6.57699">
        <ele>2038</ele>
        <time>2016-03-21T12:31:18Z</time>
      </trkpt>
      <trkpt lat="44.29987" lon="6.57692">
        <ele>2038</ele>
        <time>2016-03-21T12:33:18Z</time>
      </trkpt>
      <trkpt lat="44.29988" lon="6.57685">
        <ele>2038</ele>
        <time>2016-03-21T12:35:18Z</time>
      </trkpt>
      <trkpt lat="44.29989" lon="6.57677">
        <ele>2038</ele>
        <time>2016-03-21T12:37:18Z</time>
      </trkpt>
      <trkpt lat="44.2999" lon="6.57671">
        <ele>2038</ele>
        <time>2016-03-21T12:39:18Z</time>
      </trkpt>
      <trkpt lat="44.2999" lon="6.57663">
        <ele>2038</ele>
        <time>2016-03-21T12:41:18Z</time>
      </trkpt>
      <trkpt lat="44.29991" lon="6.57656">
        <ele>2038</ele>
        <time>2016-03-21T12:43:18Z</time>
      </trkpt>
      <trkpt lat="44.29991" lon="6.57649">
        <ele>2037</ele>
        <time>2016-03-21T12:45:18Z</time>
      </trkpt>
      <trkpt lat="44.29992" lon="6.57642">
        <ele>2037</ele>
        <time>2016-03-21T12:47:18Z</time>
      </trkpt>
      <trkpt lat="44.29992" lon="6.57635">
        <ele>2037</ele>
        <time>2016-03-21T12:49:18Z</time>
      </trkpt>
      <trkpt lat="44.29993" lon="6.57628">
        <ele>2037</ele>
        <time>2016-03-21T12:51:18Z</time>
      </trkpt>
      <trkpt lat="44.29994" lon="6.57621">
        <ele>2037</ele>
        <time>2016-03-21T12:53:18Z</time>
      </trkpt>
      <trkpt lat="44.29995" lon="6.57615">
        <ele>2037</ele>
        <time>2016-03-21T12:55:18Z</time>
      </trkpt>
      <trkpt lat="44.29997" lon="6.57608">
        <ele>2037</ele>
        <time>2016-03-21T12:57:18Z</time>
      </trkpt>
      <trkpt lat="44.29999" lon="6.57602">
        <ele>2038</ele>
        <time>2016-03-21T12:59:18Z</time>
      </trkpt>
      <trkpt lat="44.30005" lon="6.57591">
        <ele>2040</ele>
        <time>2016-03-21T13:01:18Z</time>
      </trkpt>
      <trkpt lat="44.30011" lon="6.5758">
        <ele>2042</ele>
        <time>2016-03-21T13:03:18Z</time>
      </trkpt>
      <trkpt lat="44.30014" lon="6.57575">
        <ele>2043</ele>
        <time>2016-03-21T13:05:18Z</time>
      </trkpt>
      <trkpt lat="44.30018" lon="6.57567">
        <ele>2045</ele>
        <time>2016-03-21T13:07:18Z</time>
      </trkpt>
      <trkpt lat="44.30025" lon="6.57556">
        <ele>2048</ele>
        <time>2016-03-21T13:09:18Z</time>
      </trkpt>
      <trkpt lat="44.30029" lon="6.57553">
        <ele>2049</ele>
        <time>2016-03-21T13:11:18Z</time>
      </trkpt>
      <trkpt lat="44.30033" lon="6.57552">
        <ele>2051</ele>
        <time>2016-03-21T13:13:18Z</time>
      </trkpt>
      <trkpt lat="44.30035" lon="6.57552">
        <ele>2052</ele>
        <time>2016-03-21T13:15:18Z</time>
      </trkpt>
      <trkpt lat="44.30037" lon="6.57555">
        <ele>2053</ele>
        <time>2016-03-21T13:17:18Z</time>
      </trkpt>
      <trkpt lat="44.30039" lon="6.57557">
        <ele>2054</ele>
        <time>2016-03-21T13:19:18Z</time>
      </trkpt>
      <trkpt lat="44.3004" lon="6.57561">
        <ele>2054</ele>
        <time>2016-03-21T13:21:18Z</time>
      </trkpt>
      <trkpt lat="44.30039" lon="6.57566">
        <ele>2054</ele>
        <time>2016-03-21T13:23:18Z</time>
      </trkpt>
      <trkpt lat="44.30039" lon="6.57571">
        <ele>2054</ele>
        <time>2016-03-21T13:25:18Z</time>
      </trkpt>
      <trkpt lat="44.30034" lon="6.57579">
        <ele>2052</ele>
        <time>2016-03-21T13:27:18Z</time>
      </trkpt>
      <trkpt lat="44.30029" lon="6.57587">
        <ele>2051</ele>
        <time>2016-03-21T13:29:18Z</time>
      </trkpt>
      <trkpt lat="44.30022" lon="6.57595">
        <ele>2048</ele>
        <time>2016-03-21T13:31:18Z</time>
      </trkpt>
      <trkpt lat="44.30017" lon="6.57605">
        <ele>2047</ele>
        <time>2016-03-21T13:33:18Z</time>
      </trkpt>
      <trkpt lat="44.30015" lon="6.57612">
        <ele>2046</ele>
        <time>2016-03-21T13:35:18Z</time>
      </trkpt>
      <trkpt lat="44.30013" lon="6.57618">
        <ele>2046</ele>
        <time>2016-03-21T13:37:18Z</time>
      </trkpt>
      <trkpt lat="44.30012" lon="6.57624">
        <ele>2046</ele>
        <time>2016-03-21T13:39:18Z</time>
      </trkpt>
      <trkpt lat="44.30012" lon="6.57631">
        <ele>2046</ele>
        <time>2016-03-21T13:41:18Z</time>
      </trkpt>
      <trkpt lat="44.30012" lon="6.57638">
        <ele>2047</ele>
        <time>2016-03-21T13:43:18Z</time>
      </trkpt>
      <trkpt lat="44.30013" lon="6.57646">
        <ele>2048</ele>
        <time>2016-03-21T13:45:18Z</time>
      </trkpt>
      <trkpt lat="44.30014" lon="6.57653">
        <ele>2049</ele>
        <time>2016-03-21T13:47:18Z</time>
      </trkpt>
      <trkpt lat="44.30015" lon="6.57659">
        <ele>2050</ele>
        <time>2016-03-21T13:49:18Z</time>
      </trkpt>
      <trkpt lat="44.30015" lon="6.57666">
        <ele>2051</ele>
        <time>2016-03-21T13:51:18Z</time>
      </trkpt>
      <trkpt lat="44.30017" lon="6.57673">
        <ele>2052</ele>
        <time>2016-03-21T13:53:18Z</time>
      </trkpt>
      <trkpt lat="44.30018" lon="6.57682">
        <ele>2053</ele>
        <time>2016-03-21T13:55:18Z</time>
      </trkpt>
      <trkpt lat="44.30018" lon="6.5769">
        <ele>2054</ele>
        <time>2016-03-21T13:57:18Z</time>
      </trkpt>
      <trkpt lat="44.30024" lon="6.57765">
        <ele>2060</ele>
        <time>2016-03-21T13:59:18Z</time>
      </trkpt>
      <trkpt lat="44.30026" lon="6.57784">
        <ele>2061</ele>
        <time>2016-03-21T14:01:18Z</time>
      </trkpt>
      <trkpt lat="44.30033" lon="6.57864">
        <ele>2063</ele>
        <time>2016-03-21T14:03:18Z</time>
      </trkpt>
      <trkpt lat="44.30039" lon="6.57926">
        <ele>2065</ele>
        <time>2016-03-21T14:05:18Z</time>
      </trkpt>
      <trkpt lat="44.30041" lon="6.57939">
        <ele>2065</ele>
        <time>2016-03-21T14:07:18Z</time>
      </trkpt>
      <trkpt lat="44.30044" lon="6.57952">
        <ele>2066</ele>
        <time>2016-03-21T14:09:18Z</time>
      </trkpt>
      <trkpt lat="44.30047" lon="6.57964">
        <ele>2066</ele>
        <time>2016-03-21T14:11:18Z</time>
      </trkpt>
      <trkpt lat="44.30051" lon="6.57976">
        <ele>2067</ele>
        <time>2016-03-21T14:13:18Z</time>
      </trkpt>
      <trkpt lat="44.30055" lon="6.57987">
        <ele>2068</ele>
        <time>2016-03-21T14:15:18Z</time>
      </trkpt>
      <trkpt lat="44.3006" lon="6.57998">
        <ele>2070</ele>
        <time>2016-03-21T14:17:18Z</time>
      </trkpt>
      <trkpt lat="44.30065" lon="6.58009">
        <ele>2070</ele>
        <time>2016-03-21T14:19:18Z</time>
      </trkpt>
      <trkpt lat="44.30071" lon="6.58019">
        <ele>2071</ele>
        <time>2016-03-21T14:21:18Z</time>
      </trkpt>
      <trkpt lat="44.30084" lon="6.5804">
        <ele>2073</ele>
        <time>2016-03-21T14:23:18Z</time>
      </trkpt>
      <trkpt lat="44.30091" lon="6.5805">
        <ele>2074</ele>
        <time>2016-03-21T14:25:18Z</time>
      </trkpt>
      <trkpt lat="44.30106" lon="6.58068">
        <ele>2076</ele>
        <time>2016-03-21T14:27:18Z</time>
      </trkpt>
      <trkpt lat="44.30114" lon="6.58077">
        <ele>2077</ele>
        <time>2016-03-21T14:29:18Z</time>
      </trkpt>
      <trkpt lat="44.3013" lon="6.58092">
        <ele>2079</ele>
        <time>2016-03-21T14:31:18Z</time>
      </trkpt>
      <trkpt lat="44.30134" lon="6.58096">
        <ele>2080</ele>
        <time>2016-03-21T14:33:18Z</time>
      </trkpt>
      <trkpt lat="44.30139" lon="6.581">
        <ele>2081</ele>
        <time>2016-03-21T14:35:18Z</time>
      </trkpt>
      <trkpt lat="44.30143" lon="6.58104">
        <ele>2082</ele>
        <time>2016-03-21T14:37:18Z</time>
      </trkpt>
      <trkpt lat="44.30148" lon="6.58107">
        <ele>2083</ele>
        <time>2016-03-21T14:39:18Z</time>
      </trkpt>
      <trkpt lat="44.30153" lon="6.58109">
        <ele>2084</ele>
        <time>2016-03-21T14:41:18Z</time>
      </trkpt>
      <trkpt lat="44.30164" lon="6.58112">
        <ele>2087</ele>
        <time>2016-03-21T14:43:18Z</time>
      </trkpt>
      <trkpt lat="44.30168" lon="6.58114">
        <ele>2088</ele>
        <time>2016-03-21T14:45:18Z</time>
      </trkpt>
      <trkpt lat="44.3017" lon="6.58116">
        <ele>2088</ele>
        <time>2016-03-21T14:47:18Z</time>
      </trkpt>
      <trkpt lat="44.30171" lon="6.58116">
        <ele>2088</ele>
        <time>2016-03-21T14:49:18Z</time>
      </trkpt>
      <trkpt lat="44.30172" lon="6.58118">
        <ele>2088</ele>
        <time>2016-03-21T14:51:18Z</time>
      </trkpt>
      <trkpt lat="44.30174" lon="6.58119">
        <ele>2089</ele>
        <time>2016-03-21T14:53:18Z</time>
      </trkpt>
      <trkpt lat="44.30175" lon="6.58121">
        <ele>2089</ele>
        <time>2016-03-21T14:55:18Z</time>
      </trkpt>
      <trkpt lat="44.30176" lon="6.58123">
        <ele>2088</ele>
        <time>2016-03-21T14:57:18Z</time>
      </trkpt>
      <trkpt lat="44.30179" lon="6.5813">
        <ele>2088</ele>
        <time>2016-03-21T14:59:18Z</time>
      </trkpt>
      <trkpt lat="44.30182" lon="6.58134">
        <ele>2088</ele>
        <time>2016-03-21T15:01:18Z</time>
      </trkpt>
      <trkpt lat="44.30184" lon="6.58138">
        <ele>2088</ele>
        <time>2016-03-21T15:03:18Z</time>
      </trkpt>
      <trkpt lat="44.30191" lon="6.58144">
        <ele>2089</ele>
        <time>2016-03-21T15:05:18Z</time>
      </trkpt>
      <trkpt lat="44.30198" lon="6.58148">
        <ele>2090</ele>
        <time>2016-03-21T15:07:18Z</time>
      </trkpt>
      <trkpt lat="44.30236" lon="6.58164">
        <ele>2096</ele>
        <time>2016-03-21T15:09:18Z</time>
      </trkpt>
      <trkpt lat="44.30263" lon="6.5817">
        <ele>2102</ele>
        <time>2016-03-21T15:11:18Z</time>
      </trkpt>
      <trkpt lat="44.30266" lon="6.58172">
        <ele>2103</ele>
        <time>2016-03-21T15:13:18Z</time>
      </trkpt>
      <trkpt lat="44.30268" lon="6.58174">
        <ele>2103</ele>
        <time>2016-03-21T15:15:18Z</time>
      </trkpt>
      <trkpt lat="44.30271" lon="6.58177">
        <ele>2104</ele>
        <time>2016-03-21T15:17:18Z</time>
      </trkpt>
      <trkpt lat="44.30272" lon="6.58181">
        <ele>2104</ele>
        <time>2016-03-21T15:19:18Z</time>
      </trkpt>
      <trkpt lat="44.30272" lon="6.58182">
        <ele>2104</ele>
        <time>2016-03-21T15:21:18Z</time>
      </trkpt>
      <trkpt lat="44.30273" lon="6.58186">
        <ele>2105</ele>
        <time>2016-03-21T15:23:18Z</time>
      </trkpt>
      <trkpt lat="44.30273" lon="6.5819">
        <ele>2105</ele>
        <time>2016-03-21T15:25:18Z</time>
      </trkpt>
      <trkpt lat="44.30273" lon="6.58195">
        <ele>2105</ele>
        <time>2016-03-21T15:27:18Z</time>
      </trkpt>
      <trkpt lat="44.30273" lon="6.58198">
        <ele>2105</ele>
        <time>2016-03-21T15:29:18Z</time>
      </trkpt>
      <trkpt lat="44.30272" lon="6.58202">
        <ele>2105</ele>
        <time>2016-03-21T15:31:18Z</time>
      </trkpt>
      <trkpt lat="44.3027" lon="6.58205">
        <ele>2105</ele>
        <time>2016-03-21T15:33:18Z</time>
      </trkpt>
      <trkpt lat="44.30268" lon="6.58208">
        <ele>2104</ele>
        <time>2016-03-21T15:35:18Z</time>
      </trkpt>
      <trkpt lat="44.30266" lon="6.58211">
        <ele>2104</ele>
        <time>2016-03-21T15:37:18Z</time>
      </trkpt>
      <trkpt lat="44.30263" lon="6.58213">
        <ele>2103</ele>
        <time>2016-03-21T15:39:18Z</time>
      </trkpt>
      <trkpt lat="44.30253" lon="6.58216">
        <ele>2101</ele>
        <time>2016-03-21T15:41:18Z</time>
      </trkpt>
      <trkpt lat="44.30244" lon="6.58217">
        <ele>2099</ele>
        <time>2016-03-21T15:43:18Z</time>
      </trkpt>
      <trkpt lat="44.30235" lon="6.58221">
        <ele>2098</ele>
        <time>2016-03-21T15:45:18Z</time>
      </trkpt>
      <trkpt lat="44.30227" lon="6.58226">
        <ele>2096</ele>
        <time>2016-03-21T15:47:18Z</time>
      </trkpt>
      <trkpt lat="44.30219" lon="6.58235">
        <ele>2095</ele>
        <time>2016-03-21T15:49:18Z</time>
      </trkpt>
      <trkpt lat="44.30197" lon="6.5826">
        <ele>2094</ele>
        <time>2016-03-21T15:51:18Z</time>
      </trkpt>
      <trkpt lat="44.30194" lon="6.58265">
        <ele>2094</ele>
        <time>2016-03-21T15:53:18Z</time>
      </trkpt>
      <trkpt lat="44.30191" lon="6.5827">
        <ele>2095</ele>
        <time>2016-03-21T15:55:18Z</time>
      </trkpt>
      <trkpt lat="44.3019" lon="6.58274">
        <ele>2096</ele>
        <time>2016-03-21T15:57:18Z</time>
      </trkpt>
      <trkpt lat="44.30189" lon="6.58275">
        <ele>2096</ele>
        <time>2016-03-21T15:59:18Z</time>
      </trkpt>
      <trkpt lat="44.30187" lon="6.58284">
        <ele>2098</ele>
        <time>2016-03-21T16:01:18Z</time>
      </trkpt>
      <trkpt lat="44.30187" lon="6.58287">
        <ele>2098</ele>
        <time>2016-03-21T16:03:18Z</time>
      </trkpt>
      <trkpt lat="44.30185" lon="6.58291">
        <ele>2099</ele>
        <time>2016-03-21T16:05:18Z</time>
      </trkpt>
      <trkpt lat="44.30182" lon="6.58296">
        <ele>2099</ele>
        <time>2016-03-21T16:07:18Z</time>
      </trkpt>
      <trkpt lat="44.30179" lon="6.58299">
        <ele>2100</ele>
        <time>2016-03-21T16:09:18Z</time>
      </trkpt>
      <trkpt lat="44.30174" lon="6.58301">
        <ele>2099</ele>
        <time>2016-03-21T16:11:18Z</time>
      </trkpt>
      <trkpt lat="44.30172" lon="6.58301">
        <ele>2098</ele>
        <time>2016-03-21T16:13:18Z</time>
      </trkpt>
      <trkpt lat="44.30165" lon="6.58301">
        <ele>2097</ele>
        <time>2016-03-21T16:15:18Z</time>
      </trkpt>
      <trkpt lat="44.30158" lon="6.58303">
        <ele>2096</ele>
        <time>2016-03-21T16:17:18Z</time>
      </trkpt>
      <trkpt lat="44.30155" lon="6.58304">
        <ele>2096</ele>
        <time>2016-03-21T16:19:18Z</time>
      </trkpt>
      <trkpt lat="44.3015" lon="6.58309">
        <ele>2096</ele>
        <time>2016-03-21T16:21:18Z</time>
      </trkpt>
      <trkpt lat="44.30143" lon="6.5832">
        <ele>2098</ele>
        <time>2016-03-21T16:23:18Z</time>
      </trkpt>
      <trkpt lat="44.3013" lon="6.58339">
        <ele>2100</ele>
        <time>2016-03-21T16:25:18Z</time>
      </trkpt>
      <trkpt lat="44.30123" lon="6.58348">
        <ele>2101</ele>
        <time>2016-03-21T16:27:18Z</time>
      </trkpt>
      <trkpt lat="44.30104" lon="6.58369">
        <ele>2102</ele>
        <time>2016-03-21T16:29:18Z</time>
      </trkpt>
      <trkpt lat="44.30101" lon="6.58373">
        <ele>2103</ele>
        <time>2016-03-21T16:31:18Z</time>
      </trkpt>
      <trkpt lat="44.30098" lon="6.58378">
        <ele>2103</ele>
        <time>2016-03-21T16:33:18Z</time>
      </trkpt>
      <trkpt lat="44.30096" lon="6.58383">
        <ele>2104</ele>
        <time>2016-03-21T16:35:18Z</time>
      </trkpt>
      <trkpt lat="44.30083" lon="6.58411">
        <ele>2107</ele>
        <time>2016-03-21T16:37:18Z</time>
      </trkpt>
      <trkpt lat="44.30082" lon="6.58414">
        <ele>2107</ele>
        <time>2016-03-21T16:39:18Z</time>
      </trkpt>
      <trkpt lat="44.3008" lon="6.58418">
        <ele>2107</ele>
        <time>2016-03-21T16:41:18Z</time>
      </trkpt>
      <trkpt lat="44.30079" lon="6.58423">
        <ele>2107</ele>
        <time>2016-03-21T16:43:18Z</time>
      </trkpt>
      <trkpt lat="44.30079" lon="6.58429">
        <ele>2108</ele>
        <time>2016-03-21T16:45:18Z</time>
      </trkpt>
      <trkpt lat="44.3008" lon="6.58469">
        <ele>2113</ele>
        <time>2016-03-21T16:47:18Z</time>
      </trkpt>
      <trkpt lat="44.30081" lon="6.58478">
        <ele>2115</ele>
        <time>2016-03-21T16:49:18Z</time>
      </trkpt>
      <trkpt lat="44.30087" lon="6.58494">
        <ele>2119</ele>
        <time>2016-03-21T16:51:18Z</time>
      </trkpt>
      <trkpt lat="44.30089" lon="6.58499">
        <ele>2120</ele>
        <time>2016-03-21T16:53:18Z</time>
      </trkpt>
      <trkpt lat="44.3009" lon="6.58505">
        <ele>2121</ele>
        <time>2016-03-21T16:55:18Z</time>
      </trkpt>
      <trkpt lat="44.3009" lon="6.5851">
        <ele>2122</ele>
        <time>2016-03-21T16:57:18Z</time>
      </trkpt>
      <trkpt lat="44.30091" lon="6.58515">
        <ele>2123</ele>
        <time>2016-03-21T16:59:18Z</time>
      </trkpt>
      <trkpt lat="44.3009" lon="6.58517">
        <ele>2123</ele>
        <time>2016-03-21T17:01:18Z</time>
      </trkpt>
      <trkpt lat="44.30087" lon="6.58531">
        <ele>2123</ele>
        <time>2016-03-21T17:03:18Z</time>
      </trkpt>
      <trkpt lat="44.30085" lon="6.58536">
        <ele>2123</ele>
        <time>2016-03-21T17:05:18Z</time>
      </trkpt>
      <trkpt lat="44.30083" lon="6.58541">
        <ele>2123</ele>
        <time>2016-03-21T17:07:18Z</time>
      </trkpt>
      <trkpt lat="44.30081" lon="6.58544">
        <ele>2123</ele>
        <time>2016-03-21T17:09:18Z</time>
      </trkpt>
      <trkpt lat="44.30078" lon="6.58548">
        <ele>2123</ele>
        <time>2016-03-21T17:11:18Z</time>
      </trkpt>
      <trkpt lat="44.30074" lon="6.5855">
        <ele>2122</ele>
        <time>2016-03-21T17:13:18Z</time>
      </trkpt>
      <trkpt lat="44.30067" lon="6.58553">
        <ele>2121</ele>
        <time>2016-03-21T17:15:18Z</time>
      </trkpt>
      <trkpt lat="44.30064" lon="6.58556">
        <ele>2121</ele>
        <time>2016-03-21T17:17:18Z</time>
      </trkpt>
      <trkpt lat="44.30059" lon="6.58562">
        <ele>2120</ele>
        <time>2016-03-21T17:19:18Z</time>
      </trkpt>
      <trkpt lat="44.30057" lon="6.58566">
        <ele>2121</ele>
        <time>2016-03-21T17:21:18Z</time>
      </trkpt>
      <trkpt lat="44.30054" lon="6.58576">
        <ele>2122</ele>
        <time>2016-03-21T17:23:18Z</time>
      </trkpt>
      <trkpt lat="44.30052" lon="6.58586">
        <ele>2123</ele>
        <time>2016-03-21T17:25:18Z</time>
      </trkpt>
      <trkpt lat="44.30053" lon="6.58594">
        <ele>2126</ele>
        <time>2016-03-21T17:27:18Z</time>
      </trkpt>
      <trkpt lat="44.30052" lon="6.58597">
        <ele>2126</ele>
        <time>2016-03-21T17:29:18Z</time>
      </trkpt>
      <trkpt lat="44.30052" lon="6.586">
        <ele>2127</ele>
        <time>2016-03-21T17:31:18Z</time>
      </trkpt>
      <trkpt lat="44.3005" lon="6.58603">
        <ele>2128</ele>
        <time>2016-03-21T17:33:18Z</time>
      </trkpt>
      <trkpt lat="44.30049" lon="6.58606">
        <ele>2128</ele>
        <time>2016-03-21T17:35:18Z</time>
      </trkpt>
      <trkpt lat="44.30045" lon="6.58609">
        <ele>2128</ele>
        <time>2016-03-21T17:37:18Z</time>
      </trkpt>
      <trkpt lat="44.30036" lon="6.58613">
        <ele>2127</ele>
        <time>2016-03-21T17:39:18Z</time>
      </trkpt>
      <trkpt lat="44.30031" lon="6.58618">
        <ele>2127</ele>
        <time>2016-03-21T17:41:18Z</time>
      </trkpt>
      <trkpt lat="44.30021" lon="6.58633">
        <ele>2129</ele>
        <time>2016-03-21T17:43:18Z</time>
      </trkpt>
      <trkpt lat="44.30017" lon="6.5864">
        <ele>2129</ele>
        <time>2016-03-21T17:45:18Z</time>
      </trkpt>
      <trkpt lat="44.30014" lon="6.58646">
        <ele>2130</ele>
        <time>2016-03-21T17:47:18Z</time>
      </trkpt>
      <trkpt lat="44.3001" lon="6.58651">
        <ele>2130</ele>
        <time>2016-03-21T17:49:18Z</time>
      </trkpt>
      <trkpt lat="44.30004" lon="6.58664">
        <ele>2131</ele>
        <time>2016-03-21T17:51:18Z</time>
      </trkpt>
      <trkpt lat="44.29997" lon="6.58679">
        <ele>2135</ele>
        <time>2016-03-21T17:53:18Z</time>
      </trkpt>
      <trkpt lat="44.29992" lon="6.58688">
        <ele>2137</ele>
        <time>2016-03-21T17:55:18Z</time>
      </trkpt>
      <trkpt lat="44.29989" lon="6.58691">
        <ele>2137</ele>
        <time>2016-03-21T17:57:18Z</time>
      </trkpt>
      <trkpt lat="44.29986" lon="6.58694">
        <ele>2138</ele>
        <time>2016-03-21T17:59:18Z</time>
      </trkpt>
      <trkpt lat="44.29982" lon="6.58696">
        <ele>2138</ele>
        <time>2016-03-21T18:01:18Z</time>
      </trkpt>
      <trkpt lat="44.29973" lon="6.58701">
        <ele>2137</ele>
        <time>2016-03-21T18:03:18Z</time>
      </trkpt>
      <trkpt lat="44.29939" lon="6.5874">
        <ele>2141</ele>
        <time>2016-03-21T18:05:18Z</time>
      </trkpt>
      <trkpt lat="44.29935" lon="6.58743">
        <ele>2140</ele>
        <time>2016-03-21T18:07:18Z</time>
      </trkpt>
      <trkpt lat="44.29931" lon="6.58746">
        <ele>2140</ele>
        <time>2016-03-21T18:09:18Z</time>
      </trkpt>
      <trkpt lat="44.29926" lon="6.58747">
        <ele>2139</ele>
        <time>2016-03-21T18:11:18Z</time>
      </trkpt>
      <trkpt lat="44.29921" lon="6.58748">
        <ele>2138</ele>
        <time>2016-03-21T18:13:18Z</time>
      </trkpt>
      <trkpt lat="44.29913" lon="6.58747">
        <ele>2136</ele>
        <time>2016-03-21T18:15:18Z</time>
      </trkpt>
      <trkpt lat="44.2991" lon="6.58748">
        <ele>2136</ele>
        <time>2016-03-21T18:17:18Z</time>
      </trkpt>
      <trkpt lat="44.29904" lon="6.5875">
        <ele>2137</ele>
        <time>2016-03-21T18:19:18Z</time>
      </trkpt>
      <trkpt lat="44.29903" lon="6.58753">
        <ele>2138</ele>
        <time>2016-03-21T18:21:18Z</time>
      </trkpt>
      <trkpt lat="44.29902" lon="6.58756">
        <ele>2139</ele>
        <time>2016-03-21T18:23:18Z</time>
      </trkpt>
      <trkpt lat="44.29902" lon="6.58759">
        <ele>2140</ele>
        <time>2016-03-21T18:25:18Z</time>
      </trkpt>
      <trkpt lat="44.29903" lon="6.58764">
        <ele>2142</ele>
        <time>2016-03-21T18:27:18Z</time>
      </trkpt>
      <trkpt lat="44.29903" lon="6.58764">
        <ele>2142</ele>
        <time>2016-03-21T18:29:18Z</time>
      </trkpt>
      <trkpt lat="44.29904" lon="6.58767">
        <ele>2143</ele>
        <time>2016-03-21T18:31:18Z</time>
      </trkpt>
      <trkpt lat="44.29906" lon="6.58769">
        <ele>2144</ele>
        <time>2016-03-21T18:33:18Z</time>
      </trkpt>
      <trkpt lat="44.29908" lon="6.5877">
        <ele>2145</ele>
        <time>2016-03-21T18:35:18Z</time>
      </trkpt>
      <trkpt lat="44.2991" lon="6.5877">
        <ele>2145</ele>
        <time>2016-03-21T18:37:18Z</time>
      </trkpt>
      <trkpt lat="44.29914" lon="6.58769">
        <ele>2145</ele>
        <time>2016-03-21T18:39:18Z</time>
      </trkpt>
      <trkpt lat="44.29916" lon="6.58767">
        <ele>2144</ele>
        <time>2016-03-21T18:41:18Z</time>
      </trkpt>
      <trkpt lat="44.29965" lon="6.58734">
        <ele>2146</ele>
        <time>2016-03-21T18:43:18Z</time>
      </trkpt>
      <trkpt lat="44.29983" lon="6.58722">
        <ele>2147</ele>
        <time>2016-03-21T18:45:18Z</time>
      </trkpt>
      <trkpt lat="44.29989" lon="6.58718">
        <ele>2147</ele>
        <time>2016-03-21T18:47:18Z</time>
      </trkpt>
      <trkpt lat="44.29998" lon="6.58712">
        <ele>2147</ele>
        <time>2016-03-21T18:49:18Z</time>
      </trkpt>
      <trkpt lat="44.30006" lon="6.58706">
        <ele>2147</ele>
        <time>2016-03-21T18:51:18Z</time>
      </trkpt>
      <trkpt lat="44.30013" lon="6.58702">
        <ele>2148</ele>
        <time>2016-03-21T18:53:18Z</time>
      </trkpt>
      <trkpt lat="44.30023" lon="6.58695">
        <ele>2148</ele>
        <time>2016-03-21T18:55:18Z</time>
      </trkpt>
      <trkpt lat="44.30049" lon="6.58675">
        <ele>2148</ele>
        <time>2016-03-21T18:57:18Z</time>
      </trkpt>
      <trkpt lat="44.30057" lon="6.58669">
        <ele>2148</ele>
        <time>2016-03-21T18:59:18Z</time>
      </trkpt>
      <trkpt lat="44.30066" lon="6.58666">
        <ele>2149</ele>
        <time>2016-03-21T19:01:18Z</time>
      </trkpt>
      <trkpt lat="44.30073" lon="6.58665">
        <ele>2151</ele>
        <time>2016-03-21T19:03:18Z</time>
      </trkpt>
      <trkpt lat="44.30081" lon="6.58664">
        <ele>2153</ele>
        <time>2016-03-21T19:05:18Z</time>
      </trkpt>
      <trkpt lat="44.30084" lon="6.58663">
        <ele>2153</ele>
        <time>2016-03-21T19:07:18Z</time>
      </trkpt>
      <trkpt lat="44.3009" lon="6.58659">
        <ele>2153</ele>
        <time>2016-03-21T19:09:18Z</time>
      </trkpt>
      <trkpt lat="44.30097" lon="6.58654">
        <ele>2154</ele>
        <time>2016-03-21T19:11:18Z</time>
      </trkpt>
      <trkpt lat="44.30102" lon="6.58652">
        <ele>2154</ele>
        <time>2016-03-21T19:13:18Z</time>
      </trkpt>
      <trkpt lat="44.30107" lon="6.5865">
        <ele>2155</ele>
        <time>2016-03-21T19:15:18Z</time>
      </trkpt>
      <trkpt lat="44.30113" lon="6.5865">
        <ele>2157</ele>
        <time>2016-03-21T19:17:18Z</time>
      </trkpt>
      <trkpt lat="44.30117" lon="6.5865">
        <ele>2158</ele>
        <time>2016-03-21T19:19:18Z</time>
      </trkpt>
      <trkpt lat="44.30124" lon="6.58647">
        <ele>2159</ele>
        <time>2016-03-21T19:21:18Z</time>
      </trkpt>
      <trkpt lat="44.30131" lon="6.58645">
        <ele>2160</ele>
        <time>2016-03-21T19:23:18Z</time>
      </trkpt>
      <trkpt lat="44.30147" lon="6.58639">
        <ele>2163</ele>
        <time>2016-03-21T19:25:18Z</time>
      </trkpt>
      <trkpt lat="44.30152" lon="6.58636">
        <ele>2163</ele>
        <time>2016-03-21T19:27:18Z</time>
      </trkpt>
      <trkpt lat="44.30157" lon="6.58631">
        <ele>2164</ele>
        <time>2016-03-21T19:29:18Z</time>
      </trkpt>
      <trkpt lat="44.3016" lon="6.58627">
        <ele>2164</ele>
        <time>2016-03-21T19:31:18Z</time>
      </trkpt>
      <trkpt lat="44.30165" lon="6.58617">
        <ele>2163</ele>
        <time>2016-03-21T19:33:18Z</time>
      </trkpt>
      <trkpt lat="44.30167" lon="6.58614">
        <ele>2163</ele>
        <time>2016-03-21T19:35:18Z</time>
      </trkpt>
      <trkpt lat="44.3017" lon="6.58611">
        <ele>2163</ele>
        <time>2016-03-21T19:37:18Z</time>
      </trkpt>
      <trkpt lat="44.30181" lon="6.58605">
        <ele>2166</ele>
        <time>2016-03-21T19:39:18Z</time>
      </trkpt>
      <trkpt lat="44.30183" lon="6.58603">
        <ele>2167</ele>
        <time>2016-03-21T19:41:18Z</time>
      </trkpt>
      <trkpt lat="44.30186" lon="6.58599">
        <ele>2167</ele>
        <time>2016-03-21T19:43:18Z</time>
      </trkpt>
      <trkpt lat="44.30188" lon="6.58595">
        <ele>2167</ele>
        <time>2016-03-21T19:45:18Z</time>
      </trkpt>
      <trkpt lat="44.30189" lon="6.58594">
        <ele>2167</ele>
        <time>2016-03-21T19:47:18Z</time>
      </trkpt>
      <trkpt lat="44.30191" lon="6.5859">
        <ele>2167</ele>
        <time>2016-03-21T19:49:18Z</time>
      </trkpt>
      <trkpt lat="44.30191" lon="6.58587">
        <ele>2166</ele>
        <time>2016-03-21T19:51:18Z</time>
      </trkpt>
      <trkpt lat="44.30194" lon="6.58564">
        <ele>2164</ele>
        <time>2016-03-21T19:53:18Z</time>
      </trkpt>
      <trkpt lat="44.30197" lon="6.58551">
        <ele>2164</ele>
        <time>2016-03-21T19:55:18Z</time>
      </trkpt>
      <trkpt lat="44.30201" lon="6.58539">
        <ele>2164</ele>
        <time>2016-03-21T19:57:18Z</time>
      </trkpt>
      <trkpt lat="44.30206" lon="6.58529">
        <ele>2165</ele>
        <time>2016-03-21T19:59:18Z</time>
      </trkpt>
      <trkpt lat="44.30212" lon="6.58516">
        <ele>2165</ele>
        <time>2016-03-21T20:01:18Z</time>
      </trkpt>
      <trkpt lat="44.30214" lon="6.5851">
        <ele>2165</ele>
        <time>2016-03-21T20:03:18Z</time>
      </trkpt>
      <trkpt lat="44.30217" lon="6.58498">
        <ele>2164</ele>
        <time>2016-03-21T20:05:18Z</time>
      </trkpt>
      <trkpt lat="44.30219" lon="6.58476">
        <ele>2159</ele>
        <time>2016-03-21T20:07:18Z</time>
      </trkpt>
      <trkpt lat="44.30221" lon="6.58473">
        <ele>2159</ele>
        <time>2016-03-21T20:09:18Z</time>
      </trkpt>
      <trkpt lat="44.30223" lon="6.5847">
        <ele>2159</ele>
        <time>2016-03-21T20:11:18Z</time>
      </trkpt>
      <trkpt lat="44.30225" lon="6.58468">
        <ele>2159</ele>
        <time>2016-03-21T20:13:18Z</time>
      </trkpt>
      <trkpt lat="44.30227" lon="6.58466">
        <ele>2159</ele>
        <time>2016-03-21T20:15:18Z</time>
      </trkpt>
      <trkpt lat="44.3023" lon="6.58465">
        <ele>2159</ele>
        <time>2016-03-21T20:17:18Z</time>
      </trkpt>
      <trkpt lat="44.30233" lon="6.58466">
        <ele>2160</ele>
        <time>2016-03-21T20:19:18Z</time>
      </trkpt>
      <trkpt lat="44.30236" lon="6.58466">
        <ele>2161</ele>
        <time>2016-03-21T20:21:18Z</time>
      </trkpt>
      <trkpt lat="44.30238" lon="6.58468">
        <ele>2162</ele>
        <time>2016-03-21T20:23:18Z</time>
      </trkpt>
      <trkpt lat="44.3024" lon="6.58471">
        <ele>2163</ele>
        <time>2016-03-21T20:25:18Z</time>
      </trkpt>
      <trkpt lat="44.30242" lon="6.58474">
        <ele>2165</ele>
        <time>2016-03-21T20:27:18Z</time>
      </trkpt>
      <trkpt lat="44.30243" lon="6.58478">
        <ele>2166</ele>
        <time>2016-03-21T20:29:18Z</time>
      </trkpt>
      <trkpt lat="44.30244" lon="6.58482">
        <ele>2167</ele>
        <time>2016-03-21T20:31:18Z</time>
      </trkpt>
      <trkpt lat="44.30243" lon="6.58486">
        <ele>2168</ele>
        <time>2016-03-21T20:33:18Z</time>
      </trkpt>
      <trkpt lat="44.30243" lon="6.5849">
        <ele>2169</ele>
        <time>2016-03-21T20:35:18Z</time>
      </trkpt>
      <trkpt lat="44.30232" lon="6.58514">
        <ele>2171</ele>
        <time>2016-03-21T20:37:18Z</time>
      </trkpt>
      <trkpt lat="44.30227" lon="6.58526">
        <ele>2171</ele>
        <time>2016-03-21T20:39:18Z</time>
      </trkpt>
      <trkpt lat="44.30223" lon="6.5854">
        <ele>2172</ele>
        <time>2016-03-21T20:41:18Z</time>
      </trkpt>
      <trkpt lat="44.3022" lon="6.58555">
        <ele>2172</ele>
        <time>2016-03-21T20:43:18Z</time>
      </trkpt>
      <trkpt lat="44.30216" lon="6.58609">
        <ele>2181</ele>
        <time>2016-03-21T20:45:18Z</time>
      </trkpt>
      <trkpt lat="44.30214" lon="6.58621">
        <ele>2183</ele>
        <time>2016-03-21T20:47:18Z</time>
      </trkpt>
      <trkpt lat="44.30212" lon="6.58624">
        <ele>2183</ele>
        <time>2016-03-21T20:49:18Z</time>
      </trkpt>
      <trkpt lat="44.30209" lon="6.58632">
        <ele>2183</ele>
        <time>2016-03-21T20:51:18Z</time>
      </trkpt>
      <trkpt lat="44.30206" lon="6.58637">
        <ele>2183</ele>
        <time>2016-03-21T20:53:18Z</time>
      </trkpt>
      <trkpt lat="44.302" lon="6.58646">
        <ele>2183</ele>
        <time>2016-03-21T20:55:18Z</time>
      </trkpt>
      <trkpt lat="44.30194" lon="6.58657">
        <ele>2183</ele>
        <time>2016-03-21T20:57:18Z</time>
      </trkpt>
      <trkpt lat="44.30183" lon="6.58673">
        <ele>2183</ele>
        <time>2016-03-21T20:59:18Z</time>
      </trkpt>
      <trkpt lat="44.30173" lon="6.58688">
        <ele>2185</ele>
        <time>2016-03-21T21:01:18Z</time>
      </trkpt>
      <trkpt lat="44.3017" lon="6.58691">
        <ele>2186</ele>
        <time>2016-03-21T21:03:18Z</time>
      </trkpt>
      <trkpt lat="44.30161" lon="6.58698">
        <ele>2186</ele>
        <time>2016-03-21T21:05:18Z</time>
      </trkpt>
      <trkpt lat="44.30157" lon="6.58702">
        <ele>2187</ele>
        <time>2016-03-21T21:07:18Z</time>
      </trkpt>
      <trkpt lat="44.3015" lon="6.58711">
        <ele>2189</ele>
        <time>2016-03-21T21:09:18Z</time>
      </trkpt>
      <trkpt lat="44.30145" lon="6.58716">
        <ele>2190</ele>
        <time>2016-03-21T21:11:18Z</time>
      </trkpt>
      <trkpt lat="44.30141" lon="6.58718">
        <ele>2189</ele>
        <time>2016-03-21T21:13:18Z</time>
      </trkpt>
      <trkpt lat="44.30137" lon="6.58718">
        <ele>2188</ele>
        <time>2016-03-21T21:15:18Z</time>
      </trkpt>
      <trkpt lat="44.30134" lon="6.58719">
        <ele>2188</ele>
        <time>2016-03-21T21:17:18Z</time>
      </trkpt>
      <trkpt lat="44.30131" lon="6.58719">
        <ele>2187</ele>
        <time>2016-03-21T21:19:18Z</time>
      </trkpt>
      <trkpt lat="44.30128" lon="6.58719">
        <ele>2187</ele>
        <time>2016-03-21T21:21:18Z</time>
      </trkpt>
      <trkpt lat="44.30126" lon="6.58721">
        <ele>2187</ele>
        <time>2016-03-21T21:23:18Z</time>
      </trkpt>
      <trkpt lat="44.30123" lon="6.58723">
        <ele>2187</ele>
        <time>2016-03-21T21:25:18Z</time>
      </trkpt>
      <trkpt lat="44.30118" lon="6.58733">
        <ele>2190</ele>
        <time>2016-03-21T21:27:18Z</time>
      </trkpt>
      <trkpt lat="44.30115" lon="6.58735">
        <ele>2190</ele>
        <time>2016-03-21T21:29:18Z</time>
      </trkpt>
      <trkpt lat="44.30112" lon="6.58737">
        <ele>2190</ele>
        <time>2016-03-21T21:31:18Z</time>
      </trkpt>
      <trkpt lat="44.30109" lon="6.58739">
        <ele>2191</ele>
        <time>2016-03-21T21:33:18Z</time>
      </trkpt>
      <trkpt lat="44.30105" lon="6.58739">
        <ele>2190</ele>
        <time>2016-03-21T21:35:18Z</time>
      </trkpt>
      <trkpt lat="44.30101" lon="6.58739">
        <ele>2189</ele>
        <time>2016-03-21T21:37:18Z</time>
      </trkpt>
      <trkpt lat="44.30099" lon="6.58738">
        <ele>2188</ele>
        <time>2016-03-21T21:39:18Z</time>
      </trkpt>
      <trkpt lat="44.30092" lon="6.58739">
        <ele>2186</ele>
        <time>2016-03-21T21:41:18Z</time>
      </trkpt>
      <trkpt lat="44.30086" lon="6.58742">
        <ele>2186</ele>
        <time>2016-03-21T21:43:18Z</time>
      </trkpt>
      <trkpt lat="44.30083" lon="6.58744">
        <ele>2186</ele>
        <time>2016-03-21T21:45:18Z</time>
      </trkpt>
      <trkpt lat="44.30063" lon="6.58765">
        <ele>2188</ele>
        <time>2016-03-21T21:47:18Z</time>
      </trkpt>
      <trkpt lat="44.30059" lon="6.58772">
        <ele>2189</ele>
        <time>2016-03-21T21:49:18Z</time>
      </trkpt>
      <trkpt lat="44.30055" lon="6.58779">
        <ele>2191</ele>
        <time>2016-03-21T21:51:18Z</time>
      </trkpt>
      <trkpt lat="44.30045" lon="6.58813">
        <ele>2200</ele>
        <time>2016-03-21T21:53:18Z</time>
      </trkpt>
      <trkpt lat="44.30042" lon="6.58817">
        <ele>2201</ele>
        <time>2016-03-21T21:55:18Z</time>
      </trkpt>
      <trkpt lat="44.30036" lon="6.58824">
        <ele>2201</ele>
        <time>2016-03-21T21:57:18Z</time>
      </trkpt>
      <trkpt lat="44.30029" lon="6.58828">
        <ele>2200</ele>
        <time>2016-03-21T21:59:18Z</time>
      </trkpt>
      <trkpt lat="44.30021" lon="6.5883">
        <ele>2198</ele>
        <time>2016-03-21T22:01:18Z</time>
      </trkpt>
      <trkpt lat="44.30015" lon="6.58831">
        <ele>2196</ele>
        <time>2016-03-21T22:03:18Z</time>
      </trkpt>
      <trkpt lat="44.30012" lon="6.58832">
        <ele>2196</ele>
        <time>2016-03-21T22:05:18Z</time>
      </trkpt>
      <trkpt lat="44.30008" lon="6.58835">
        <ele>2196</ele>
        <time>2016-03-21T22:07:18Z</time>
      </trkpt>
      <trkpt lat="44.30004" lon="6.58841">
        <ele>2197</ele>
        <time>2016-03-21T22:09:18Z</time>
      </trkpt>
      <trkpt lat="44.29997" lon="6.58862">
        <ele>2204</ele>
        <time>2016-03-21T22:11:18Z</time>
      </trkpt>
      <trkpt lat="44.29996" lon="6.58865">
        <ele>2205</ele>
        <time>2016-03-21T22:13:18Z</time>
      </trkpt>
      <trkpt lat="44.29992" lon="6.5887">
        <ele>2206</ele>
        <time>2016-03-21T22:15:18Z</time>
      </trkpt>
      <trkpt lat="44.29988" lon="6.58873">
        <ele>2206</ele>
        <time>2016-03-21T22:17:18Z</time>
      </trkpt>
      <trkpt lat="44.29941" lon="6.589">
        <ele>2206</ele>
        <time>2016-03-21T22:19:18Z</time>
      </trkpt>
      <trkpt lat="44.2992" lon="6.58915">
        <ele>2206</ele>
        <time>2016-03-21T22:21:18Z</time>
      </trkpt>
      <trkpt lat="44.299" lon="6.58932">
        <ele>2205</ele>
        <time>2016-03-21T22:23:18Z</time>
      </trkpt>
      <trkpt lat="44.29891" lon="6.58942">
        <ele>2206</ele>
        <time>2016-03-21T22:25:18Z</time>
      </trkpt>
      <trkpt lat="44.29882" lon="6.58952">
        <ele>2206</ele>
        <time>2016-03-21T22:27:18Z</time>
      </trkpt>
      <trkpt lat="44.29879" lon="6.58956">
        <ele>2206</ele>
        <time>2016-03-21T22:29:18Z</time>
      </trkpt>
      <trkpt lat="44.29875" lon="6.58964">
        <ele>2207</ele>
        <time>2016-03-21T22:31:18Z</time>
      </trkpt>
      <trkpt lat="44.29872" lon="6.58974">
        <ele>2208</ele>
        <time>2016-03-21T22:33:18Z</time>
      </trkpt>
      <trkpt lat="44.29871" lon="6.5898">
        <ele>2210</ele>
        <time>2016-03-21T22:35:18Z</time>
      </trkpt>
      <trkpt lat="44.2987" lon="6.5902">
        <ele>2219</ele>
        <time>2016-03-21T22:37:18Z</time>
      </trkpt>
      <trkpt lat="44.2987" lon="6.59028">
        <ele>2221</ele>
        <time>2016-03-21T22:39:18Z</time>
      </trkpt>
      <trkpt lat="44.29869" lon="6.59036">
        <ele>2223</ele>
        <time>2016-03-21T22:41:18Z</time>
      </trkpt>
      <trkpt lat="44.29867" lon="6.59044">
        <ele>2224</ele>
        <time>2016-03-21T22:43:18Z</time>
      </trkpt>
      <trkpt lat="44.29865" lon="6.59051">
        <ele>2224</ele>
        <time>2016-03-21T22:45:18Z</time>
      </trkpt>
      <trkpt lat="44.29862" lon="6.59058">
        <ele>2225</ele>
        <time>2016-03-21T22:47:18Z</time>
      </trkpt>
      <trkpt lat="44.29858" lon="6.59065">
        <ele>2225</ele>
        <time>2016-03-21T22:49:18Z</time>
      </trkpt>
      <trkpt lat="44.29855" lon="6.59071">
        <ele>2225</ele>
        <time>2016-03-21T22:51:18Z</time>
      </trkpt>
      <trkpt lat="44.29851" lon="6.59076">
        <ele>2224</ele>
        <time>2016-03-21T22:53:18Z</time>
      </trkpt>
      <trkpt lat="44.29842" lon="6.59085">
        <ele>2223</ele>
        <time>2016-03-21T22:55:18Z</time>
      </trkpt>
      <trkpt lat="44.29826" lon="6.59102">
        <ele>2221</ele>
        <time>2016-03-21T22:57:18Z</time>
      </trkpt>
      <trkpt lat="44.29819" lon="6.59112">
        <ele>2222</ele>
        <time>2016-03-21T22:59:18Z</time>
      </trkpt>
      <trkpt lat="44.29805" lon="6.59132">
        <ele>2224</ele>
        <time>2016-03-21T23:01:18Z</time>
      </trkpt>
      <trkpt lat="44.29803" lon="6.59137">
        <ele>2225</ele>
        <time>2016-03-21T23:03:18Z</time>
      </trkpt>
      <trkpt lat="44.29802" lon="6.59141">
        <ele>2225</ele>
        <time>2016-03-21T23:05:18Z</time>
      </trkpt>
      <trkpt lat="44.29802" lon="6.59147">
        <ele>2226</ele>
        <time>2016-03-21T23:07:18Z</time>
      </trkpt>
      <trkpt lat="44.29802" lon="6.59152">
        <ele>2227</ele>
        <time>2016-03-21T23:09:18Z</time>
      </trkpt>
      <trkpt lat="44.29803" lon="6.59161">
        <ele>2229</ele>
        <time>2016-03-21T23:11:18Z</time>
      </trkpt>
      <trkpt lat="44.29807" lon="6.5917">
        <ele>2231</ele>
        <time>2016-03-21T23:13:18Z</time>
      </trkpt>
      <trkpt lat="44.2981" lon="6.59174">
        <ele>2231</ele>
        <time>2016-03-21T23:15:18Z</time>
      </trkpt>
      <trkpt lat="44.29813" lon="6.59177">
        <ele>2232</ele>
        <time>2016-03-21T23:17:18Z</time>
      </trkpt>
      <trkpt lat="44.29832" lon="6.59192">
        <ele>2235</ele>
        <time>2016-03-21T23:19:18Z</time>
      </trkpt>
      <trkpt lat="44.29838" lon="6.59197">
        <ele>2237</ele>
        <time>2016-03-21T23:21:18Z</time>
      </trkpt>
      <trkpt lat="44.29844" lon="6.59203">
        <ele>2239</ele>
        <time>2016-03-21T23:23:18Z</time>
      </trkpt>
      <trkpt lat="44.29847" lon="6.59209">
        <ele>2240</ele>
        <time>2016-03-21T23:25:18Z</time>
      </trkpt>
      <trkpt lat="44.29851" lon="6.59215">
        <ele>2241</ele>
        <time>2016-03-21T23:27:18Z</time>
      </trkpt>
      <trkpt lat="44.29852" lon="6.59219">
        <ele>2242</ele>
        <time>2016-03-21T23:29:18Z</time>
      </trkpt>
      <trkpt lat="44.29854" lon="6.59228">
        <ele>2243</ele>
        <time>2016-03-21T23:31:18Z</time>
      </trkpt>
      <trkpt lat="44.29854" lon="6.59238">
        <ele>2243</ele>
        <time>2016-03-21T23:33:18Z</time>
      </trkpt>
      <trkpt lat="44.29853" lon="6.59247">
        <ele>2244</ele>
        <time>2016-03-21T23:35:18Z</time>
      </trkpt>
      <trkpt lat="44.2985" lon="6.59256">
        <ele>2244</ele>
        <time>2016-03-21T23:37:18Z</time>
      </trkpt>
      <trkpt lat="44.29848" lon="6.5926">
        <ele>2244</ele>
        <time>2016-03-21T23:39:18Z</time>
      </trkpt>
      <trkpt lat="44.29843" lon="6.59267">
        <ele>2243</ele>
        <time>2016-03-21T23:41:18Z</time>
      </trkpt>
      <trkpt lat="44.29806" lon="6.59309">
        <ele>2243</ele>
        <time>2016-03-21T23:43:18Z</time>
      </trkpt>
      <trkpt lat="44.29798" lon="6.59316">
        <ele>2243</ele>
        <time>2016-03-21T23:45:18Z</time>
      </trkpt>
      <trkpt lat="44.2979" lon="6.59322">
        <ele>2243</ele>
        <time>2016-03-21T23:47:18Z</time>
      </trkpt>
      <trkpt lat="44.29782" lon="6.59328">
        <ele>2242</ele>
        <time>2016-03-21T23:49:18Z</time>
      </trkpt>
      <trkpt lat="44.29772" lon="6.59333">
        <ele>2242</ele>
        <time>2016-03-21T23:51:18Z</time>
      </trkpt>
      <trkpt lat="44.29733" lon="6.59353">
        <ele>2242</ele>
        <time>2016-03-21T23:53:18Z</time>
      </trkpt>
      <trkpt lat="44.2973" lon="6.59355">
        <ele>2242</ele>
        <time>2016-03-21T23:55:18Z</time>
      </trkpt>
      <trkpt lat="44.29728" lon="6.59358">
        <ele>2242</ele>
        <time>2016-03-21T23:57:18Z</time>
      </trkpt>
      <trkpt lat="44.29726" lon="6.59361">
        <ele>2242</ele>
        <time>2016-03-21T23:59:18Z</time>
      </trkpt>
      <trkpt lat="44.29723" lon="6.59366">
        <ele>2243</ele>
        <time>2016-03-22T00:01:18Z</time>
      </trkpt>
      <trkpt lat="44.29723" lon="6.59368">
        <ele>2243</ele>
        <time>2016-03-22T00:03:18Z</time>
      </trkpt>
      <trkpt lat="44.29723" lon="6.59369">
        <ele>2243</ele>
        <time>2016-03-22T00:05:18Z</time>
      </trkpt>
      <trkpt lat="44.29723" lon="6.59379">
        <ele>2243</ele>
        <time>2016-03-22T00:07:18Z</time>
      </trkpt>
      <trkpt lat="44.29724" lon="6.59392">
        <ele>2244</ele>
        <time>2016-03-22T00:09:18Z</time>
      </trkpt>
      <trkpt lat="44.29725" lon="6.59414">
        <ele>2245</ele>
        <time>2016-03-22T00:11:18Z</time>
      </trkpt>
      <trkpt lat="44.29724" lon="6.59423">
        <ele>2244</ele>
        <time>2016-03-22T00:13:18Z</time>
      </trkpt>
      <trkpt lat="44.29722" lon="6.59431">
        <ele>2244</ele>
        <time>2016-03-22T00:15:18Z</time>
      </trkpt>
      <trkpt lat="44.29721" lon="6.59433">
        <ele>2243</ele>
        <time>2016-03-22T00:17:18Z</time>
      </trkpt>
      <trkpt lat="44.29718" lon="6.59436">
        <ele>2243</ele>
        <time>2016-03-22T00:19:18Z</time>
      </trkpt>
      <trkpt lat="44.29715" lon="6.59438">
        <ele>2243</ele>
        <time>2016-03-22T00:21:18Z</time>
      </trkpt>
      <trkpt lat="44.29689" lon="6.59451">
        <ele>2241</ele>
        <time>2016-03-22T00:23:18Z</time>
      </trkpt>
      <trkpt lat="44.2968" lon="6.59458">
        <ele>2240</ele>
        <time>2016-03-22T00:25:18Z</time>
      </trkpt>
      <trkpt lat="44.29673" lon="6.59464">
        <ele>2239</ele>
        <time>2016-03-22T00:27:18Z</time>
      </trkpt>
      <trkpt lat="44.2967" lon="6.5947">
        <ele>2238</ele>
        <time>2016-03-22T00:29:18Z</time>
      </trkpt>
      <trkpt lat="44.29669" lon="6.59475">
        <ele>2237</ele>
        <time>2016-03-22T00:31:18Z</time>
      </trkpt>
      <trkpt lat="44.29667" lon="6.59482">
        <ele>2236</ele>
        <time>2016-03-22T00:33:18Z</time>
      </trkpt>
      <trkpt lat="44.29668" lon="6.59488">
        <ele>2235</ele>
        <time>2016-03-22T00:35:18Z</time>
      </trkpt>
      <trkpt lat="44.29668" lon="6.59492">
        <ele>2234</ele>
        <time>2016-03-22T00:37:18Z</time>
      </trkpt>
      <trkpt lat="44.2967" lon="6.59501">
        <ele>2233</ele>
        <time>2016-03-22T00:39:18Z</time>
      </trkpt>
      <trkpt lat="44.29675" lon="6.5951">
        <ele>2232</ele>
        <time>2016-03-22T00:41:18Z</time>
      </trkpt>
      <trkpt lat="44.29684" lon="6.59522">
        <ele>2230</ele>
        <time>2016-03-22T00:43:18Z</time>
      </trkpt>
      <trkpt lat="44.29698" lon="6.59537">
        <ele>2228</ele>
        <time>2016-03-22T00:45:18Z</time>
      </trkpt>
      <trkpt lat="44.29737" lon="6.59574">
        <ele>2226</ele>
        <time>2016-03-22T00:47:18Z</time>
      </trkpt>
      <trkpt lat="44.29767" lon="6.59605">
        <ele>2221</ele>
        <time>2016-03-22T00:49:18Z</time>
      </trkpt>
      <trkpt lat="44.29775" lon="6.59612">
        <ele>2220</ele>
        <time>2016-03-22T00:51:18Z</time>
      </trkpt>
      <trkpt lat="44.29779" lon="6.59615">
        <ele>2219</ele>
        <time>2016-03-22T00:53:18Z</time>
      </trkpt>
      <trkpt lat="44.29788" lon="6.5962">
        <ele>2218</ele>
        <time>2016-03-22T00:55:18Z</time>
      </trkpt>
      <trkpt lat="44.29806" lon="6.59626">
        <ele>2218</ele>
        <time>2016-03-22T00:57:18Z</time>
      </trkpt>
      <trkpt lat="44.29826" lon="6.59633">
        <ele>2217</ele>
        <time>2016-03-22T00:59:18Z</time>
      </trkpt>
      <trkpt lat="44.29835" lon="6.59634">
        <ele>2217</ele>
        <time>2016-03-22T01:01:18Z</time>
      </trkpt>
      <trkpt lat="44.29845" lon="6.59633">
        <ele>2216</ele>
        <time>2016-03-22T01:03:18Z</time>
      </trkpt>
      <trkpt lat="44.29868" lon="6.59627">
        <ele>2215</ele>
        <time>2016-03-22T01:05:18Z</time>
      </trkpt>
      <trkpt lat="44.29887" lon="6.59622">
        <ele>2214</ele>
        <time>2016-03-22T01:07:18Z</time>
      </trkpt>
      <trkpt lat="44.29892" lon="6.5962">
        <ele>2214</ele>
        <time>2016-03-22T01:09:18Z</time>
      </trkpt>
      <trkpt lat="44.29897" lon="6.59618">
        <ele>2214</ele>
        <time>2016-03-22T01:11:18Z</time>
      </trkpt>
      <trkpt lat="44.29902" lon="6.59614">
        <ele>2215</ele>
        <time>2016-03-22T01:13:18Z</time>
      </trkpt>
      <trkpt lat="44.29906" lon="6.5961">
        <ele>2216</ele>
        <time>2016-03-22T01:15:18Z</time>
      </trkpt>
      <trkpt lat="44.29914" lon="6.59601">
        <ele>2218</ele>
        <time>2016-03-22T01:17:18Z</time>
      </trkpt>
      <trkpt lat="44.29918" lon="6.59597">
        <ele>2219</ele>
        <time>2016-03-22T01:19:18Z</time>
      </trkpt>
      <trkpt lat="44.29923" lon="6.59595">
        <ele>2218</ele>
        <time>2016-03-22T01:21:18Z</time>
      </trkpt>
      <trkpt lat="44.29928" lon="6.59593">
        <ele>2218</ele>
        <time>2016-03-22T01:23:18Z</time>
      </trkpt>
      <trkpt lat="44.29933" lon="6.59592">
        <ele>2217</ele>
        <time>2016-03-22T01:25:18Z</time>
      </trkpt>
      <trkpt lat="44.29938" lon="6.59592">
        <ele>2217</ele>
        <time>2016-03-22T01:27:18Z</time>
      </trkpt>
      <trkpt lat="44.29942" lon="6.59591">
        <ele>2216</ele>
        <time>2016-03-22T01:29:18Z</time>
      </trkpt>
      <trkpt lat="44.2995" lon="6.59589">
        <ele>2216</ele>
        <time>2016-03-22T01:31:18Z</time>
      </trkpt>
      <trkpt lat="44.29958" lon="6.59584">
        <ele>2216</ele>
        <time>2016-03-22T01:33:18Z</time>
      </trkpt>
      <trkpt lat="44.29967" lon="6.59576">
        <ele>2217</ele>
        <time>2016-03-22T01:35:18Z</time>
      </trkpt>
      <trkpt lat="44.29974" lon="6.59574">
        <ele>2216</ele>
        <time>2016-03-22T01:37:18Z</time>
      </trkpt>
      <trkpt lat="44.29977" lon="6.59573">
        <ele>2216</ele>
        <time>2016-03-22T01:39:18Z</time>
      </trkpt>
      <trkpt lat="44.2998" lon="6.59573">
        <ele>2216</ele>
        <time>2016-03-22T01:41:18Z</time>
      </trkpt>
      <trkpt lat="44.29985" lon="6.59575">
        <ele>2214</ele>
        <time>2016-03-22T01:43:18Z</time>
      </trkpt>
      <trkpt lat="44.29999" lon="6.59581">
        <ele>2210</ele>
        <time>2016-03-22T01:45:18Z</time>
      </trkpt>
      <trkpt lat="44.30005" lon="6.59582">
        <ele>2209</ele>
        <time>2016-03-22T01:47:18Z</time>
      </trkpt>
      <trkpt lat="44.30011" lon="6.59583">
        <ele>2209</ele>
        <time>2016-03-22T01:49:18Z</time>
      </trkpt>
      <trkpt lat="44.30027" lon="6.59583">
        <ele>2209</ele>
        <time>2016-03-22T01:51:18Z</time>
      </trkpt>
      <trkpt lat="44.30034" lon="6.59585">
        <ele>2209</ele>
        <time>2016-03-22T01:53:18Z</time>
      </trkpt>
      <trkpt lat="44.30038" lon="6.59587">
        <ele>2208</ele>
        <time>2016-03-22T01:55:18Z</time>
      </trkpt>
      <trkpt lat="44.30045" lon="6.59591">
        <ele>2207</ele>
        <time>2016-03-22T01:57:18Z</time>
      </trkpt>
      <trkpt lat="44.30056" lon="6.59601">
        <ele>2204</ele>
        <time>2016-03-22T01:59:18Z</time>
      </trkpt>
      <trkpt lat="44.30062" lon="6.59605">
        <ele>2203</ele>
        <time>2016-03-22T02:01:18Z</time>
      </trkpt>
      <trkpt lat="44.30074" lon="6.59613">
        <ele>2200</ele>
        <time>2016-03-22T02:03:18Z</time>
      </trkpt>
      <trkpt lat="44.30081" lon="6.59616">
        <ele>2199</ele>
        <time>2016-03-22T02:05:18Z</time>
      </trkpt>
      <trkpt lat="44.30107" lon="6.59633">
        <ele>2196</ele>
        <time>2016-03-22T02:07:18Z</time>
      </trkpt>
      <trkpt lat="44.30134" lon="6.5965">
        <ele>2193</ele>
        <time>2016-03-22T02:09:18Z</time>
      </trkpt>
      <trkpt lat="44.30138" lon="6.59653">
        <ele>2192</ele>
        <time>2016-03-22T02:11:18Z</time>
      </trkpt>
      <trkpt lat="44.30143" lon="6.59657">
        <ele>2191</ele>
        <time>2016-03-22T02:13:18Z</time>
      </trkpt>
      <trkpt lat="44.30152" lon="6.5966">
        <ele>2191</ele>
        <time>2016-03-22T02:15:18Z</time>
      </trkpt>
      <trkpt lat="44.30157" lon="6.59662">
        <ele>2191</ele>
        <time>2016-03-22T02:17:18Z</time>
      </trkpt>
      <trkpt lat="44.30162" lon="6.59662">
        <ele>2191</ele>
        <time>2016-03-22T02:19:18Z</time>
      </trkpt>
      <trkpt lat="44.30214" lon="6.59653">
        <ele>2188</ele>
        <time>2016-03-22T02:21:18Z</time>
      </trkpt>
      <trkpt lat="44.30226" lon="6.59649">
        <ele>2188</ele>
        <time>2016-03-22T02:23:18Z</time>
      </trkpt>
      <trkpt lat="44.30238" lon="6.59644">
        <ele>2188</ele>
        <time>2016-03-22T02:25:18Z</time>
      </trkpt>
      <trkpt lat="44.30249" lon="6.59638">
        <ele>2188</ele>
        <time>2016-03-22T02:27:18Z</time>
      </trkpt>
      <trkpt lat="44.30261" lon="6.59631">
        <ele>2188</ele>
        <time>2016-03-22T02:29:18Z</time>
      </trkpt>
      <trkpt lat="44.30335" lon="6.5958">
        <ele>2184</ele>
        <time>2016-03-22T02:31:18Z</time>
      </trkpt>
      <trkpt lat="44.3034" lon="6.59576">
        <ele>2184</ele>
        <time>2016-03-22T02:33:18Z</time>
      </trkpt>
      <trkpt lat="44.30348" lon="6.59567">
        <ele>2183</ele>
        <time>2016-03-22T02:35:18Z</time>
      </trkpt>
      <trkpt lat="44.30376" lon="6.59529">
        <ele>2184</ele>
        <time>2016-03-22T02:37:18Z</time>
      </trkpt>
      <trkpt lat="44.30379" lon="6.59525">
        <ele>2184</ele>
        <time>2016-03-22T02:39:18Z</time>
      </trkpt>
      <trkpt lat="44.30383" lon="6.59523">
        <ele>2183</ele>
        <time>2016-03-22T02:41:18Z</time>
      </trkpt>
      <trkpt lat="44.30387" lon="6.59521">
        <ele>2182</ele>
        <time>2016-03-22T02:43:18Z</time>
      </trkpt>
      <trkpt lat="44.30391" lon="6.5952">
        <ele>2181</ele>
        <time>2016-03-22T02:45:18Z</time>
      </trkpt>
      <trkpt lat="44.30395" lon="6.5952">
        <ele>2180</ele>
        <time>2016-03-22T02:47:18Z</time>
      </trkpt>
      <trkpt lat="44.30399" lon="6.59521">
        <ele>2179</ele>
        <time>2016-03-22T02:49:18Z</time>
      </trkpt>
      <trkpt lat="44.30405" lon="6.59521">
        <ele>2177</ele>
        <time>2016-03-22T02:51:18Z</time>
      </trkpt>
      <trkpt lat="44.30412" lon="6.59519">
        <ele>2175</ele>
        <time>2016-03-22T02:53:18Z</time>
      </trkpt>
      <trkpt lat="44.30418" lon="6.59516">
        <ele>2174</ele>
        <time>2016-03-22T02:55:18Z</time>
      </trkpt>
      <trkpt lat="44.30429" lon="6.5951">
        <ele>2174</ele>
        <time>2016-03-22T02:57:18Z</time>
      </trkpt>
      <trkpt lat="44.30434" lon="6.59507">
        <ele>2174</ele>
        <time>2016-03-22T02:59:18Z</time>
      </trkpt>
      <trkpt lat="44.30444" lon="6.59504">
        <ele>2173</ele>
        <time>2016-03-22T03:01:18Z</time>
      </trkpt>
      <trkpt lat="44.3045" lon="6.59504">
        <ele>2172</ele>
        <time>2016-03-22T03:03:18Z</time>
      </trkpt>
      <trkpt lat="44.30455" lon="6.59505">
        <ele>2171</ele>
        <time>2016-03-22T03:05:18Z</time>
      </trkpt>
      <trkpt lat="44.30481" lon="6.59508">
        <ele>2166</ele>
        <time>2016-03-22T03:07:18Z</time>
      </trkpt>
      <trkpt lat="44.30488" lon="6.5951">
        <ele>2165</ele>
        <time>2016-03-22T03:09:18Z</time>
      </trkpt>
      <trkpt lat="44.30492" lon="6.5951">
        <ele>2164</ele>
        <time>2016-03-22T03:11:18Z</time>
      </trkpt>
      <trkpt lat="44.30499" lon="6.59507">
        <ele>2164</ele>
        <time>2016-03-22T03:13:18Z</time>
      </trkpt>
      <trkpt lat="44.30505" lon="6.59503">
        <ele>2164</ele>
        <time>2016-03-22T03:15:18Z</time>
      </trkpt>
      <trkpt lat="44.30508" lon="6.595">
        <ele>2164</ele>
        <time>2016-03-22T03:17:18Z</time>
      </trkpt>
      <trkpt lat="44.30537" lon="6.59455">
        <ele>2170</ele>
        <time>2016-03-22T03:19:18Z</time>
      </trkpt>
      <trkpt lat="44.3054" lon="6.59452">
        <ele>2170</ele>
        <time>2016-03-22T03:21:18Z</time>
      </trkpt>
      <trkpt lat="44.30546" lon="6.59446">
        <ele>2171</ele>
        <time>2016-03-22T03:23:18Z</time>
      </trkpt>
      <trkpt lat="44.30553" lon="6.59442">
        <ele>2170</ele>
        <time>2016-03-22T03:25:18Z</time>
      </trkpt>
      <trkpt lat="44.30566" lon="6.59438">
        <ele>2168</ele>
        <time>2016-03-22T03:27:18Z</time>
      </trkpt>
      <trkpt lat="44.30579" lon="6.59436">
        <ele>2166</ele>
        <time>2016-03-22T03:29:18Z</time>
      </trkpt>
      <trkpt lat="44.30595" lon="6.59437">
        <ele>2166</ele>
        <time>2016-03-22T03:31:18Z</time>
      </trkpt>
      <trkpt lat="44.30598" lon="6.59438">
        <ele>2166</ele>
        <time>2016-03-22T03:33:18Z</time>
      </trkpt>
      <trkpt lat="44.30604" lon="6.5944">
        <ele>2166</ele>
        <time>2016-03-22T03:35:18Z</time>
      </trkpt>
      <trkpt lat="44.30606" lon="6.59442">
        <ele>2166</ele>
        <time>2016-03-22T03:37:18Z</time>
      </trkpt>
      <trkpt lat="44.30615" lon="6.5945">
        <ele>2165</ele>
        <time>2016-03-22T03:39:18Z</time>
      </trkpt>
      <trkpt lat="44.30622" lon="6.59455">
        <ele>2164</ele>
        <time>2016-03-22T03:41:18Z</time>
      </trkpt>
      <trkpt lat="44.30629" lon="6.5946">
        <ele>2163</ele>
        <time>2016-03-22T03:43:18Z</time>
      </trkpt>
      <trkpt lat="44.30635" lon="6.59463">
        <ele>2163</ele>
        <time>2016-03-22T03:45:18Z</time>
      </trkpt>
      <trkpt lat="44.30643" lon="6.59466">
        <ele>2163</ele>
        <time>2016-03-22T03:47:18Z</time>
      </trkpt>
      <trkpt lat="44.30649" lon="6.59471">
        <ele>2162</ele>
        <time>2016-03-22T03:49:18Z</time>
      </trkpt>
      <trkpt lat="44.30653" lon="6.59474">
        <ele>2162</ele>
        <time>2016-03-22T03:51:18Z</time>
      </trkpt>
      <trkpt lat="44.30655" lon="6.59478">
        <ele>2161</ele>
        <time>2016-03-22T03:53:18Z</time>
      </trkpt>
      <trkpt lat="44.30676" lon="6.59505">
        <ele>2156</ele>
        <time>2016-03-22T03:55:18Z</time>
      </trkpt>
      <trkpt lat="44.30678" lon="6.59509">
        <ele>2156</ele>
        <time>2016-03-22T03:57:18Z</time>
      </trkpt>
      <trkpt lat="44.30685" lon="6.59523">
        <ele>2154</ele>
        <time>2016-03-22T03:59:18Z</time>
      </trkpt>
      <trkpt lat="44.30687" lon="6.59531">
        <ele>2152</ele>
        <time>2016-03-22T04:01:18Z</time>
      </trkpt>
      <trkpt lat="44.30692" lon="6.59546">
        <ele>2149</ele>
        <time>2016-03-22T04:03:18Z</time>
      </trkpt>
      <trkpt lat="44.30695" lon="6.59553">
        <ele>2147</ele>
        <time>2016-03-22T04:05:18Z</time>
      </trkpt>
      <trkpt lat="44.30699" lon="6.59561">
        <ele>2146</ele>
        <time>2016-03-22T04:07:18Z</time>
      </trkpt>
      <trkpt lat="44.30704" lon="6.59568">
        <ele>2145</ele>
        <time>2016-03-22T04:09:18Z</time>
      </trkpt>
      <trkpt lat="44.30709" lon="6.59575">
        <ele>2145</ele>
        <time>2016-03-22T04:11:18Z</time>
      </trkpt>
      <trkpt lat="44.30715" lon="6.59582">
        <ele>2144</ele>
        <time>2016-03-22T04:13:18Z</time>
      </trkpt>
      <trkpt lat="44.30721" lon="6.59587">
        <ele>2145</ele>
        <time>2016-03-22T04:15:18Z</time>
      </trkpt>
      <trkpt lat="44.30727" lon="6.59592">
        <ele>2145</ele>
        <time>2016-03-22T04:17:18Z</time>
      </trkpt>
      <trkpt lat="44.30734" lon="6.59597">
        <ele>2145</ele>
        <time>2016-03-22T04:19:18Z</time>
      </trkpt>
      <trkpt lat="44.3074" lon="6.596">
        <ele>2146</ele>
        <time>2016-03-22T04:21:18Z</time>
      </trkpt>
      <trkpt lat="44.30757" lon="6.59608">
        <ele>2147</ele>
        <time>2016-03-22T04:23:18Z</time>
      </trkpt>
      <trkpt lat="44.30773" lon="6.59617">
        <ele>2145</ele>
        <time>2016-03-22T04:25:18Z</time>
      </trkpt>
      <trkpt lat="44.30781" lon="6.59623">
        <ele>2144</ele>
        <time>2016-03-22T04:27:18Z</time>
      </trkpt>
      <trkpt lat="44.3079" lon="6.59627">
        <ele>2143</ele>
        <time>2016-03-22T04:29:18Z</time>
      </trkpt>
      <trkpt lat="44.30806" lon="6.59631">
        <ele>2143</ele>
        <time>2016-03-22T04:31:18Z</time>
      </trkpt>
      <trkpt lat="44.30814" lon="6.59632">
        <ele>2143</ele>
        <time>2016-03-22T04:33:18Z</time>
      </trkpt>
      <trkpt lat="44.30829" lon="6.59633">
        <ele>2144</ele>
        <time>2016-03-22T04:35:18Z</time>
      </trkpt>
      <trkpt lat="44.30833" lon="6.59633">
        <ele>2145</ele>
        <time>2016-03-22T04:37:18Z</time>
      </trkpt>
      <trkpt lat="44.30838" lon="6.59634">
        <ele>2145</ele>
        <time>2016-03-22T04:39:18Z</time>
      </trkpt>
      <trkpt lat="44.30846" lon="6.59639">
        <ele>2144</ele>
        <time>2016-03-22T04:41:18Z</time>
      </trkpt>
      <trkpt lat="44.30853" lon="6.59645">
        <ele>2143</ele>
        <time>2016-03-22T04:43:18Z</time>
      </trkpt>
      <trkpt lat="44.30868" lon="6.59662">
        <ele>2139</ele>
        <time>2016-03-22T04:45:18Z</time>
      </trkpt>
      <trkpt lat="44.30882" lon="6.5968">
        <ele>2135</ele>
        <time>2016-03-22T04:47:18Z</time>
      </trkpt>
      <trkpt lat="44.30886" lon="6.59686">
        <ele>2133</ele>
        <time>2016-03-22T04:49:18Z</time>
      </trkpt>
      <trkpt lat="44.30892" lon="6.5969">
        <ele>2133</ele>
        <time>2016-03-22T04:51:18Z</time>
      </trkpt>
      <trkpt lat="44.30897" lon="6.59695">
        <ele>2132</ele>
        <time>2016-03-22T04:53:18Z</time>
      </trkpt>
      <trkpt lat="44.30902" lon="6.59698">
        <ele>2131</ele>
        <time>2016-03-22T04:55:18Z</time>
      </trkpt>
      <trkpt lat="44.30908" lon="6.59701">
        <ele>2131</ele>
        <time>2016-03-22T04:57:18Z</time>
      </trkpt>
      <trkpt lat="44.30914" lon="6.59703">
        <ele>2131</ele>
        <time>2016-03-22T04:59:18Z</time>
      </trkpt>
      <trkpt lat="44.30935" lon="6.59708">
        <ele>2129</ele>
        <time>2016-03-22T05:01:18Z</time>
      </trkpt>
      <trkpt lat="44.30944" lon="6.59712">
        <ele>2128</ele>
        <time>2016-03-22T05:03:18Z</time>
      </trkpt>
      <trkpt lat="44.30952" lon="6.59718">
        <ele>2126</ele>
        <time>2016-03-22T05:05:18Z</time>
      </trkpt>
      <trkpt lat="44.30956" lon="6.59721">
        <ele>2125</ele>
        <time>2016-03-22T05:07:18Z</time>
      </trkpt>
      <trkpt lat="44.30965" lon="6.59733">
        <ele>2122</ele>
        <time>2016-03-22T05:09:18Z</time>
      </trkpt>
      <trkpt lat="44.30969" lon="6.59737">
        <ele>2122</ele>
        <time>2016-03-22T05:11:18Z</time>
      </trkpt>
      <trkpt lat="44.30972" lon="6.59739">
        <ele>2121</ele>
        <time>2016-03-22T05:13:18Z</time>
      </trkpt>
      <trkpt lat="44.3098" lon="6.59744">
        <ele>2121</ele>
        <time>2016-03-22T05:15:18Z</time>
      </trkpt>
      <trkpt lat="44.30999" lon="6.59751">
        <ele>2121</ele>
        <time>2016-03-22T05:17:18Z</time>
      </trkpt>
      <trkpt lat="44.31012" lon="6.59754">
        <ele>2116</ele>
        <time>2016-03-22T05:19:18Z</time>
      </trkpt>
      <trkpt lat="44.31019" lon="6.59755">
        <ele>2114</ele>
        <time>2016-03-22T05:21:18Z</time>
      </trkpt>
      <trkpt lat="44.31025" lon="6.59755">
        <ele>2112</ele>
        <time>2016-03-22T05:23:18Z</time>
      </trkpt>
      <trkpt lat="44.31032" lon="6.59754">
        <ele>2111</ele>
        <time>2016-03-22T05:25:18Z</time>
      </trkpt>
      <trkpt lat="44.31039" lon="6.59752">
        <ele>2109</ele>
        <time>2016-03-22T05:27:18Z</time>
      </trkpt>
      <trkpt lat="44.31045" lon="6.5975">
        <ele>2108</ele>
        <time>2016-03-22T05:29:18Z</time>
      </trkpt>
      <trkpt lat="44.31049" lon="6.59748">
        <ele>2107</ele>
        <time>2016-03-22T05:31:18Z</time>
      </trkpt>
      <trkpt lat="44.31052" lon="6.59745">
        <ele>2106</ele>
        <time>2016-03-22T05:33:18Z</time>
      </trkpt>
      <trkpt lat="44.31054" lon="6.59741">
        <ele>2106</ele>
        <time>2016-03-22T05:35:18Z</time>
      </trkpt>
      <trkpt lat="44.31057" lon="6.59737">
        <ele>2105</ele>
        <time>2016-03-22T05:37:18Z</time>
      </trkpt>
      <trkpt lat="44.31058" lon="6.59733">
        <ele>2104</ele>
        <time>2016-03-22T05:39:18Z</time>
      </trkpt>
      <trkpt lat="44.31059" lon="6.59728">
        <ele>2104</ele>
        <time>2016-03-22T05:41:18Z</time>
      </trkpt>
      <trkpt lat="44.3106" lon="6.59723">
        <ele>2104</ele>
        <time>2016-03-22T05:43:18Z</time>
      </trkpt>
      <trkpt lat="44.3106" lon="6.59718">
        <ele>2104</ele>
        <time>2016-03-22T05:45:18Z</time>
      </trkpt>
      <trkpt lat="44.3106" lon="6.59709">
        <ele>2104</ele>
        <time>2016-03-22T05:47:18Z</time>
      </trkpt>
      <trkpt lat="44.31058" lon="6.59691">
        <ele>2105</ele>
        <time>2016-03-22T05:49:18Z</time>
      </trkpt>
      <trkpt lat="44.31054" lon="6.59674">
        <ele>2107</ele>
        <time>2016-03-22T05:51:18Z</time>
      </trkpt>
      <trkpt lat="44.31034" lon="6.59603">
        <ele>2113</ele>
        <time>2016-03-22T05:53:18Z</time>
      </trkpt>
      <trkpt lat="44.31014" lon="6.59527">
        <ele>2112</ele>
        <time>2016-03-22T05:55:18Z</time>
      </trkpt>
      <trkpt lat="44.31011" lon="6.59514">
        <ele>2112</ele>
        <time>2016-03-22T05:57:18Z</time>
      </trkpt>
      <trkpt lat="44.3101" lon="6.595">
        <ele>2109</ele>
        <time>2016-03-22T05:59:18Z</time>
      </trkpt>
      <trkpt lat="44.31007" lon="6.59477">
        <ele>2109</ele>
        <time>2016-03-22T06:01:18Z</time>
      </trkpt>
      <trkpt lat="44.31007" lon="6.5946">
        <ele>2108</ele>
        <time>2016-03-22T06:03:18Z</time>
      </trkpt>
      <trkpt lat="44.31008" lon="6.59442">
        <ele>2106</ele>
        <time>2016-03-22T06:05:18Z</time>
      </trkpt>
      <trkpt lat="44.31009" lon="6.59433">
        <ele>2105</ele>
        <time>2016-03-22T06:07:18Z</time>
      </trkpt>
      <trkpt lat="44.31014" lon="6.59384">
        <ele>2099</ele>
        <time>2016-03-22T06:09:18Z</time>
      </trkpt>
      <trkpt lat="44.31021" lon="6.59335">
        <ele>2095</ele>
        <time>2016-03-22T06:11:18Z</time>
      </trkpt>
      <trkpt lat="44.31022" lon="6.59319">
        <ele>2095</ele>
        <time>2016-03-22T06:13:18Z</time>
      </trkpt>
      <trkpt lat="44.31021" lon="6.59303">
        <ele>2096</ele>
        <time>2016-03-22T06:15:18Z</time>
      </trkpt>
      <trkpt lat="44.31021" lon="6.59298">
        <ele>2097</ele>
        <time>2016-03-22T06:17:18Z</time>
      </trkpt>
      <trkpt lat="44.31022" lon="6.59289">
        <ele>2097</ele>
        <time>2016-03-22T06:19:18Z</time>
      </trkpt>
      <trkpt lat="44.31024" lon="6.5928">
        <ele>2097</ele>
        <time>2016-03-22T06:21:18Z</time>
      </trkpt>
      <trkpt lat="44.31026" lon="6.59276">
        <ele>2096</ele>
        <time>2016-03-22T06:23:18Z</time>
      </trkpt>
      <trkpt lat="44.31035" lon="6.59259">
        <ele>2095</ele>
        <time>2016-03-22T06:25:18Z</time>
      </trkpt>
      <trkpt lat="44.3104" lon="6.59253">
        <ele>2094</ele>
        <time>2016-03-22T06:27:18Z</time>
      </trkpt>
      <trkpt lat="44.31046" lon="6.59247">
        <ele>2094</ele>
        <time>2016-03-22T06:29:18Z</time>
      </trkpt>
      <trkpt lat="44.31052" lon="6.59243">
        <ele>2093</ele>
        <time>2016-03-22T06:31:18Z</time>
      </trkpt>
      <trkpt lat="44.31121" lon="6.59235">
        <ele>2086</ele>
        <time>2016-03-22T06:33:18Z</time>
      </trkpt>
      <trkpt lat="44.31131" lon="6.59235">
        <ele>2086</ele>
        <time>2016-03-22T06:35:18Z</time>
      </trkpt>
      <trkpt lat="44.3114" lon="6.59239">
        <ele>2084</ele>
        <time>2016-03-22T06:37:18Z</time>
      </trkpt>
      <trkpt lat="44.31145" lon="6.59241">
        <ele>2083</ele>
        <time>2016-03-22T06:39:18Z</time>
      </trkpt>
      <trkpt lat="44.31149" lon="6.59244">
        <ele>2082</ele>
        <time>2016-03-22T06:41:18Z</time>
      </trkpt>
      <trkpt lat="44.31157" lon="6.59252">
        <ele>2079</ele>
        <time>2016-03-22T06:43:18Z</time>
      </trkpt>
      <trkpt lat="44.31165" lon="6.59257">
        <ele>2078</ele>
        <time>2016-03-22T06:45:18Z</time>
      </trkpt>
      <trkpt lat="44.31241" lon="6.59294">
        <ele>2072</ele>
        <time>2016-03-22T06:47:18Z</time>
      </trkpt>
      <trkpt lat="44.31251" lon="6.59301">
        <ele>2070</ele>
        <time>2016-03-22T06:49:18Z</time>
      </trkpt>
      <trkpt lat="44.3126" lon="6.59308">
        <ele>2068</ele>
        <time>2016-03-22T06:51:18Z</time>
      </trkpt>
      <trkpt lat="44.31273" lon="6.59315">
        <ele>2065</ele>
        <time>2016-03-22T06:53:18Z</time>
      </trkpt>
      <trkpt lat="44.31287" lon="6.5932">
        <ele>2064</ele>
        <time>2016-03-22T06:55:18Z</time>
      </trkpt>
      <trkpt lat="44.31346" lon="6.59329">
        <ele>2059</ele>
        <time>2016-03-22T06:57:18Z</time>
      </trkpt>
      <trkpt lat="44.31353" lon="6.59329">
        <ele>2058</ele>
        <time>2016-03-22T06:59:18Z</time>
      </trkpt>
      <trkpt lat="44.31359" lon="6.59329">
        <ele>2057</ele>
        <time>2016-03-22T07:01:18Z</time>
      </trkpt>
      <trkpt lat="44.31365" lon="6.59327">
        <ele>2057</ele>
        <time>2016-03-22T07:03:18Z</time>
      </trkpt>
      <trkpt lat="44.31371" lon="6.59325">
        <ele>2056</ele>
        <time>2016-03-22T07:05:18Z</time>
      </trkpt>
      <trkpt lat="44.31377" lon="6.59322">
        <ele>2056</ele>
        <time>2016-03-22T07:07:18Z</time>
      </trkpt>
      <trkpt lat="44.31383" lon="6.59319">
        <ele>2056</ele>
        <time>2016-03-22T07:09:18Z</time>
      </trkpt>
      <trkpt lat="44.31464" lon="6.59257">
        <ele>2061</ele>
        <time>2016-03-22T07:11:18Z</time>
      </trkpt>
      <trkpt lat="44.31471" lon="6.59254">
        <ele>2060</ele>
        <time>2016-03-22T07:13:18Z</time>
      </trkpt>
      <trkpt lat="44.31496" lon="6.59245">
        <ele>2056</ele>
        <time>2016-03-22T07:15:18Z</time>
      </trkpt>
      <trkpt lat="44.315" lon="6.59243">
        <ele>2056</ele>
        <time>2016-03-22T07:17:18Z</time>
      </trkpt>
      <trkpt lat="44.31505" lon="6.59242">
        <ele>2056</ele>
        <time>2016-03-22T07:19:18Z</time>
      </trkpt>
      <trkpt lat="44.31514" lon="6.59247">
        <ele>2053</ele>
        <time>2016-03-22T07:21:18Z</time>
      </trkpt>
      <trkpt lat="44.31524" lon="6.5925">
        <ele>2051</ele>
        <time>2016-03-22T07:23:18Z</time>
      </trkpt>
      <trkpt lat="44.31534" lon="6.59251">
        <ele>2050</ele>
        <time>2016-03-22T07:25:18Z</time>
      </trkpt>
      <trkpt lat="44.31539" lon="6.59251">
        <ele>2049</ele>
        <time>2016-03-22T07:27:18Z</time>
      </trkpt>
      <trkpt lat="44.3155" lon="6.59252">
        <ele>2048</ele>
        <time>2016-03-22T07:29:18Z</time>
      </trkpt>
      <trkpt lat="44.31555" lon="6.59252">
        <ele>2048</ele>
        <time>2016-03-22T07:31:18Z</time>
      </trkpt>
      <trkpt lat="44.31569" lon="6.59258">
        <ele>2044</ele>
        <time>2016-03-22T07:33:18Z</time>
      </trkpt>
      <trkpt lat="44.31573" lon="6.59259">
        <ele>2043</ele>
        <time>2016-03-22T07:35:18Z</time>
      </trkpt>
      <trkpt lat="44.31577" lon="6.59259">
        <ele>2042</ele>
        <time>2016-03-22T07:37:18Z</time>
      </trkpt>
      <trkpt lat="44.31601" lon="6.59256">
        <ele>2043</ele>
        <time>2016-03-22T07:39:18Z</time>
      </trkpt>
      <trkpt lat="44.31606" lon="6.59256">
        <ele>2043</ele>
        <time>2016-03-22T07:41:18Z</time>
      </trkpt>
      <trkpt lat="44.31618" lon="6.59257">
        <ele>2042</ele>
        <time>2016-03-22T07:43:18Z</time>
      </trkpt>
      <trkpt lat="44.31623" lon="6.59258">
        <ele>2042</ele>
        <time>2016-03-22T07:45:18Z</time>
      </trkpt>
      <trkpt lat="44.31646" lon="6.59265">
        <ele>2039</ele>
        <time>2016-03-22T07:47:18Z</time>
      </trkpt>
      <trkpt lat="44.3165" lon="6.59265">
        <ele>2039</ele>
        <time>2016-03-22T07:49:18Z</time>
      </trkpt>
      <trkpt lat="44.31654" lon="6.59265">
        <ele>2039</ele>
        <time>2016-03-22T07:51:18Z</time>
      </trkpt>
      <trkpt lat="44.31658" lon="6.59263">
        <ele>2040</ele>
        <time>2016-03-22T07:53:18Z</time>
      </trkpt>
      <trkpt lat="44.31674" lon="6.59262">
        <ele>2040</ele>
        <time>2016-03-22T07:55:18Z</time>
      </trkpt>
      <trkpt lat="44.31681" lon="6.59262">
        <ele>2041</ele>
        <time>2016-03-22T07:57:18Z</time>
      </trkpt>
      <trkpt lat="44.31692" lon="6.59263">
        <ele>2041</ele>
        <time>2016-03-22T07:59:18Z</time>
      </trkpt>
      <trkpt lat="44.31699" lon="6.59265">
        <ele>2041</ele>
        <time>2016-03-22T08:01:18Z</time>
      </trkpt>
      <trkpt lat="44.31705" lon="6.5927">
        <ele>2040</ele>
        <time>2016-03-22T08:03:18Z</time>
      </trkpt>
      <trkpt lat="44.31707" lon="6.59272">
        <ele>2039</ele>
        <time>2016-03-22T08:05:18Z</time>
      </trkpt>
      <trkpt lat="44.3171" lon="6.59276">
        <ele>2038</ele>
        <time>2016-03-22T08:07:18Z</time>
      </trkpt>
      <trkpt lat="44.31712" lon="6.5928">
        <ele>2036</ele>
        <time>2016-03-22T08:09:18Z</time>
      </trkpt>
      <trkpt lat="44.31713" lon="6.59283">
        <ele>2035</ele>
        <time>2016-03-22T08:11:18Z</time>
      </trkpt>
      <trkpt lat="44.31715" lon="6.5929">
        <ele>2033</ele>
        <time>2016-03-22T08:13:18Z</time>
      </trkpt>
      <trkpt lat="44.31718" lon="6.59298">
        <ele>2030</ele>
        <time>2016-03-22T08:15:18Z</time>
      </trkpt>
      <trkpt lat="44.3172" lon="6.59301">
        <ele>2029</ele>
        <time>2016-03-22T08:17:18Z</time>
      </trkpt>
      <trkpt lat="44.31725" lon="6.59306">
        <ele>2028</ele>
        <time>2016-03-22T08:19:18Z</time>
      </trkpt>
      <trkpt lat="44.31741" lon="6.59314">
        <ele>2027</ele>
        <time>2016-03-22T08:21:18Z</time>
      </trkpt>
      <trkpt lat="44.31752" lon="6.59315">
        <ele>2028</ele>
        <time>2016-03-22T08:23:18Z</time>
      </trkpt>
      <trkpt lat="44.31757" lon="6.59314">
        <ele>2030</ele>
        <time>2016-03-22T08:25:18Z</time>
      </trkpt>
      <trkpt lat="44.31768" lon="6.59312">
        <ele>2034</ele>
        <time>2016-03-22T08:27:18Z</time>
      </trkpt>
      <trkpt lat="44.31774" lon="6.59313">
        <ele>2036</ele>
        <time>2016-03-22T08:29:18Z</time>
      </trkpt>
      <trkpt lat="44.31779" lon="6.59315">
        <ele>2037</ele>
        <time>2016-03-22T08:31:18Z</time>
      </trkpt>
      <trkpt lat="44.31809" lon="6.59337">
        <ele>2040</ele>
        <time>2016-03-22T08:33:18Z</time>
      </trkpt>
      <trkpt lat="44.31812" lon="6.5934">
        <ele>2040</ele>
        <time>2016-03-22T08:35:18Z</time>
      </trkpt>
      <trkpt lat="44.31817" lon="6.59347">
        <ele>2041</ele>
        <time>2016-03-22T08:37:18Z</time>
      </trkpt>
      <trkpt lat="44.31821" lon="6.59354">
        <ele>2041</ele>
        <time>2016-03-22T08:39:18Z</time>
      </trkpt>
      <trkpt lat="44.31822" lon="6.59358">
        <ele>2040</ele>
        <time>2016-03-22T08:41:18Z</time>
      </trkpt>
      <trkpt lat="44.31823" lon="6.59362">
        <ele>2040</ele>
        <time>2016-03-22T08:43:18Z</time>
      </trkpt>
      <trkpt lat="44.31824" lon="6.59366">
        <ele>2039</ele>
        <time>2016-03-22T08:45:18Z</time>
      </trkpt>
      <trkpt lat="44.31823" lon="6.5937">
        <ele>2038</ele>
        <time>2016-03-22T08:47:18Z</time>
      </trkpt>
      <trkpt lat="44.31822" lon="6.59374">
        <ele>2037</ele>
        <time>2016-03-22T08:49:18Z</time>
      </trkpt>
      <trkpt lat="44.31818" lon="6.59379">
        <ele>2035</ele>
        <time>2016-03-22T08:51:18Z</time>
      </trkpt>
      <trkpt lat="44.31814" lon="6.59382">
        <ele>2032</ele>
        <time>2016-03-22T08:53:18Z</time>
      </trkpt>
      <trkpt lat="44.31812" lon="6.59382">
        <ele>2032</ele>
        <time>2016-03-22T08:55:18Z</time>
      </trkpt>
      <trkpt lat="44.31809" lon="6.59382">
        <ele>2031</ele>
        <time>2016-03-22T08:57:18Z</time>
      </trkpt>
      <trkpt lat="44.31804" lon="6.5938">
        <ele>2029</ele>
        <time>2016-03-22T08:59:18Z</time>
      </trkpt>
      <trkpt lat="44.31792" lon="6.59367">
        <ele>2028</ele>
        <time>2016-03-22T09:01:18Z</time>
      </trkpt>
      <trkpt lat="44.31788" lon="6.59361">
        <ele>2028</ele>
        <time>2016-03-22T09:03:18Z</time>
      </trkpt>
      <trkpt lat="44.31784" lon="6.59356">
        <ele>2027</ele>
        <time>2016-03-22T09:05:18Z</time>
      </trkpt>
      <trkpt lat="44.3178" lon="6.59352">
        <ele>2027</ele>
        <time>2016-03-22T09:07:18Z</time>
      </trkpt>
      <trkpt lat="44.31772" lon="6.59346">
        <ele>2025</ele>
        <time>2016-03-22T09:09:18Z</time>
      </trkpt>
      <trkpt lat="44.31766" lon="6.59344">
        <ele>2024</ele>
        <time>2016-03-22T09:11:18Z</time>
      </trkpt>
      <trkpt lat="44.3176" lon="6.59344">
        <ele>2022</ele>
        <time>2016-03-22T09:13:18Z</time>
      </trkpt>
      <trkpt lat="44.31753" lon="6.59346">
        <ele>2019</ele>
        <time>2016-03-22T09:15:18Z</time>
      </trkpt>
      <trkpt lat="44.31733" lon="6.59359">
        <ele>2012</ele>
        <time>2016-03-22T09:17:18Z</time>
      </trkpt>
      <trkpt lat="44.3173" lon="6.59361">
        <ele>2011</ele>
        <time>2016-03-22T09:19:18Z</time>
      </trkpt>
      <trkpt lat="44.31722" lon="6.59364">
        <ele>2009</ele>
        <time>2016-03-22T09:21:18Z</time>
      </trkpt>
      <trkpt lat="44.31714" lon="6.59363">
        <ele>2008</ele>
        <time>2016-03-22T09:23:18Z</time>
      </trkpt>
      <trkpt lat="44.31697" lon="6.59355">
        <ele>2008</ele>
        <time>2016-03-22T09:25:18Z</time>
      </trkpt>
      <trkpt lat="44.31693" lon="6.5935">
        <ele>2009</ele>
        <time>2016-03-22T09:27:18Z</time>
      </trkpt>
      <trkpt lat="44.31689" lon="6.59345">
        <ele>2010</ele>
        <time>2016-03-22T09:29:18Z</time>
      </trkpt>
      <trkpt lat="44.31686" lon="6.5934">
        <ele>2011</ele>
        <time>2016-03-22T09:31:18Z</time>
      </trkpt>
      <trkpt lat="44.31683" lon="6.59333">
        <ele>2012</ele>
        <time>2016-03-22T09:33:18Z</time>
      </trkpt>
      <trkpt lat="44.3168" lon="6.5933">
        <ele>2013</ele>
        <time>2016-03-22T09:35:18Z</time>
      </trkpt>
      <trkpt lat="44.31678" lon="6.59328">
        <ele>2014</ele>
        <time>2016-03-22T09:37:18Z</time>
      </trkpt>
      <trkpt lat="44.31676" lon="6.59327">
        <ele>2014</ele>
        <time>2016-03-22T09:39:18Z</time>
      </trkpt>
      <trkpt lat="44.31671" lon="6.59326">
        <ele>2014</ele>
        <time>2016-03-22T09:41:18Z</time>
      </trkpt>
      <trkpt lat="44.31653" lon="6.59334">
        <ele>2009</ele>
        <time>2016-03-22T09:43:18Z</time>
      </trkpt>
      <trkpt lat="44.31643" lon="6.59339">
        <ele>2007</ele>
        <time>2016-03-22T09:45:18Z</time>
      </trkpt>
      <trkpt lat="44.31633" lon="6.59339">
        <ele>2007</ele>
        <time>2016-03-22T09:47:18Z</time>
      </trkpt>
      <trkpt lat="44.31619" lon="6.59341">
        <ele>2006</ele>
        <time>2016-03-22T09:49:18Z</time>
      </trkpt>
      <trkpt lat="44.31603" lon="6.59345">
        <ele>2004</ele>
        <time>2016-03-22T09:51:18Z</time>
      </trkpt>
      <trkpt lat="44.31587" lon="6.59355">
        <ele>2000</ele>
        <time>2016-03-22T09:53:18Z</time>
      </trkpt>
      <trkpt lat="44.31576" lon="6.59361">
        <ele>2000</ele>
        <time>2016-03-22T09:55:18Z</time>
      </trkpt>
      <trkpt lat="44.31564" lon="6.59362">
        <ele>2002</ele>
        <time>2016-03-22T09:57:18Z</time>
      </trkpt>
      <trkpt lat="44.31555" lon="6.59362">
        <ele>2004</ele>
        <time>2016-03-22T09:59:18Z</time>
      </trkpt>
      <trkpt lat="44.31548" lon="6.59362">
        <ele>2006</ele>
        <time>2016-03-22T10:01:18Z</time>
      </trkpt>
      <trkpt lat="44.31544" lon="6.59363">
        <ele>2006</ele>
        <time>2016-03-22T10:03:18Z</time>
      </trkpt>
      <trkpt lat="44.3154" lon="6.59366">
        <ele>2006</ele>
        <time>2016-03-22T10:05:18Z</time>
      </trkpt>
      <trkpt lat="44.31533" lon="6.59374">
        <ele>2005</ele>
        <time>2016-03-22T10:07:18Z</time>
      </trkpt>
      <trkpt lat="44.31528" lon="6.59383">
        <ele>2004</ele>
        <time>2016-03-22T10:09:18Z</time>
      </trkpt>
      <trkpt lat="44.31527" lon="6.59386">
        <ele>2003</ele>
        <time>2016-03-22T10:11:18Z</time>
      </trkpt>
      <trkpt lat="44.31526" lon="6.5939">
        <ele>2002</ele>
        <time>2016-03-22T10:13:18Z</time>
      </trkpt>
      <trkpt lat="44.31525" lon="6.59394">
        <ele>2001</ele>
        <time>2016-03-22T10:15:18Z</time>
      </trkpt>
      <trkpt lat="44.31523" lon="6.59404">
        <ele>1998</ele>
        <time>2016-03-22T10:17:18Z</time>
      </trkpt>
      <trkpt lat="44.31522" lon="6.59415">
        <ele>1995</ele>
        <time>2016-03-22T10:19:18Z</time>
      </trkpt>
      <trkpt lat="44.31521" lon="6.5942">
        <ele>1994</ele>
        <time>2016-03-22T10:21:18Z</time>
      </trkpt>
      <trkpt lat="44.31517" lon="6.59429">
        <ele>1993</ele>
        <time>2016-03-22T10:23:18Z</time>
      </trkpt>
      <trkpt lat="44.31512" lon="6.59436">
        <ele>1992</ele>
        <time>2016-03-22T10:25:18Z</time>
      </trkpt>
      <trkpt lat="44.31466" lon="6.59472">
        <ele>1994</ele>
        <time>2016-03-22T10:27:18Z</time>
      </trkpt>
      <trkpt lat="44.31465" lon="6.59474">
        <ele>1994</ele>
        <time>2016-03-22T10:29:18Z</time>
      </trkpt>
      <trkpt lat="44.31464" lon="6.59477">
        <ele>1993</ele>
        <time>2016-03-22T10:31:18Z</time>
      </trkpt>
      <trkpt lat="44.31464" lon="6.5948">
        <ele>1992</ele>
        <time>2016-03-22T10:33:18Z</time>
      </trkpt>
      <trkpt lat="44.31464" lon="6.59483">
        <ele>1991</ele>
        <time>2016-03-22T10:35:18Z</time>
      </trkpt>
      <trkpt lat="44.31465" lon="6.59486">
        <ele>1990</ele>
        <time>2016-03-22T10:37:18Z</time>
      </trkpt>
      <trkpt lat="44.31466" lon="6.59488">
        <ele>1989</ele>
        <time>2016-03-22T10:39:18Z</time>
      </trkpt>
      <trkpt lat="44.31468" lon="6.59489">
        <ele>1989</ele>
        <time>2016-03-22T10:41:18Z</time>
      </trkpt>
      <trkpt lat="44.31471" lon="6.5949">
        <ele>1988</ele>
        <time>2016-03-22T10:43:18Z</time>
      </trkpt>
      <trkpt lat="44.31473" lon="6.59489">
        <ele>1988</ele>
        <time>2016-03-22T10:45:18Z</time>
      </trkpt>
      <trkpt lat="44.31523" lon="6.59452">
        <ele>1986</ele>
        <time>2016-03-22T10:47:18Z</time>
      </trkpt>
      <trkpt lat="44.31527" lon="6.59448">
        <ele>1986</ele>
        <time>2016-03-22T10:49:18Z</time>
      </trkpt>
      <trkpt lat="44.31531" lon="6.59444">
        <ele>1986</ele>
        <time>2016-03-22T10:51:18Z</time>
      </trkpt>
      <trkpt lat="44.31534" lon="6.59438">
        <ele>1987</ele>
        <time>2016-03-22T10:53:18Z</time>
      </trkpt>
      <trkpt lat="44.31537" lon="6.59433">
        <ele>1987</ele>
        <time>2016-03-22T10:55:18Z</time>
      </trkpt>
      <trkpt lat="44.31539" lon="6.59427">
        <ele>1988</ele>
        <time>2016-03-22T10:57:18Z</time>
      </trkpt>
      <trkpt lat="44.3154" lon="6.59421">
        <ele>1990</ele>
        <time>2016-03-22T10:59:18Z</time>
      </trkpt>
      <trkpt lat="44.31541" lon="6.59414">
        <ele>1991</ele>
        <time>2016-03-22T11:01:18Z</time>
      </trkpt>
      <trkpt lat="44.31542" lon="6.59408">
        <ele>1993</ele>
        <time>2016-03-22T11:03:18Z</time>
      </trkpt>
      <trkpt lat="44.31544" lon="6.59403">
        <ele>1994</ele>
        <time>2016-03-22T11:05:18Z</time>
      </trkpt>
      <trkpt lat="44.31547" lon="6.59397">
        <ele>1995</ele>
        <time>2016-03-22T11:07:18Z</time>
      </trkpt>
      <trkpt lat="44.31549" lon="6.59393">
        <ele>1996</ele>
        <time>2016-03-22T11:09:18Z</time>
      </trkpt>
      <trkpt lat="44.31551" lon="6.59392">
        <ele>1996</ele>
        <time>2016-03-22T11:11:18Z</time>
      </trkpt>
      <trkpt lat="44.31555" lon="6.59391">
        <ele>1995</ele>
        <time>2016-03-22T11:13:18Z</time>
      </trkpt>
      <trkpt lat="44.31557" lon="6.59392">
        <ele>1995</ele>
        <time>2016-03-22T11:15:18Z</time>
      </trkpt>
      <trkpt lat="44.31563" lon="6.59396">
        <ele>1992</ele>
        <time>2016-03-22T11:17:18Z</time>
      </trkpt>
      <trkpt lat="44.31569" lon="6.59403">
        <ele>1989</ele>
        <time>2016-03-22T11:19:18Z</time>
      </trkpt>
      <trkpt lat="44.31577" lon="6.59407">
        <ele>1986</ele>
        <time>2016-03-22T11:21:18Z</time>
      </trkpt>
      <trkpt lat="44.31582" lon="6.59408">
        <ele>1985</ele>
        <time>2016-03-22T11:23:18Z</time>
      </trkpt>
      <trkpt lat="44.31586" lon="6.59409">
        <ele>1984</ele>
        <time>2016-03-22T11:25:18Z</time>
      </trkpt>
      <trkpt lat="44.31594" lon="6.59408">
        <ele>1985</ele>
        <time>2016-03-22T11:27:18Z</time>
      </trkpt>
      <trkpt lat="44.31613" lon="6.59405">
        <ele>1987</ele>
        <time>2016-03-22T11:29:18Z</time>
      </trkpt>
      <trkpt lat="44.31632" lon="6.59403">
        <ele>1989</ele>
        <time>2016-03-22T11:31:18Z</time>
      </trkpt>
      <trkpt lat="44.31637" lon="6.59404">
        <ele>1989</ele>
        <time>2016-03-22T11:33:18Z</time>
      </trkpt>
      <trkpt lat="44.31642" lon="6.59405">
        <ele>1989</ele>
        <time>2016-03-22T11:35:18Z</time>
      </trkpt>
      <trkpt lat="44.31646" lon="6.59407">
        <ele>1988</ele>
        <time>2016-03-22T11:37:18Z</time>
      </trkpt>
      <trkpt lat="44.3165" lon="6.5941">
        <ele>1988</ele>
        <time>2016-03-22T11:39:18Z</time>
      </trkpt>
      <trkpt lat="44.31654" lon="6.59414">
        <ele>1987</ele>
        <time>2016-03-22T11:41:18Z</time>
      </trkpt>
      <trkpt lat="44.31658" lon="6.59418">
        <ele>1986</ele>
        <time>2016-03-22T11:43:18Z</time>
      </trkpt>
      <trkpt lat="44.31666" lon="6.59431">
        <ele>1983</ele>
        <time>2016-03-22T11:45:18Z</time>
      </trkpt>
      <trkpt lat="44.3167" lon="6.59437">
        <ele>1981</ele>
        <time>2016-03-22T11:47:18Z</time>
      </trkpt>
      <trkpt lat="44.31679" lon="6.59447">
        <ele>1980</ele>
        <time>2016-03-22T11:49:18Z</time>
      </trkpt>
      <trkpt lat="44.31698" lon="6.59465">
        <ele>1978</ele>
        <time>2016-03-22T11:51:18Z</time>
      </trkpt>
      <trkpt lat="44.31711" lon="6.5948">
        <ele>1976</ele>
        <time>2016-03-22T11:53:18Z</time>
      </trkpt>
      <trkpt lat="44.31715" lon="6.59485">
        <ele>1975</ele>
        <time>2016-03-22T11:55:18Z</time>
      </trkpt>
      <trkpt lat="44.31725" lon="6.59492">
        <ele>1975</ele>
        <time>2016-03-22T11:57:18Z</time>
      </trkpt>
      <trkpt lat="44.3173" lon="6.59495">
        <ele>1976</ele>
        <time>2016-03-22T11:59:18Z</time>
      </trkpt>
      <trkpt lat="44.3174" lon="6.59505">
        <ele>1975</ele>
        <time>2016-03-22T12:01:18Z</time>
      </trkpt>
      <trkpt lat="44.31748" lon="6.59516">
        <ele>1973</ele>
        <time>2016-03-22T12:03:18Z</time>
      </trkpt>
      <trkpt lat="44.3176" lon="6.59536">
        <ele>1973</ele>
        <time>2016-03-22T12:05:18Z</time>
      </trkpt>
      <trkpt lat="44.31765" lon="6.59541">
        <ele>1974</ele>
        <time>2016-03-22T12:07:18Z</time>
      </trkpt>
      <trkpt lat="44.3177" lon="6.59547">
        <ele>1975</ele>
        <time>2016-03-22T12:09:18Z</time>
      </trkpt>
      <trkpt lat="44.3178" lon="6.59555">
        <ele>1978</ele>
        <time>2016-03-22T12:11:18Z</time>
      </trkpt>
      <trkpt lat="44.31784" lon="6.5956">
        <ele>1978</ele>
        <time>2016-03-22T12:13:18Z</time>
      </trkpt>
      <trkpt lat="44.31788" lon="6.59566">
        <ele>1979</ele>
        <time>2016-03-22T12:15:18Z</time>
      </trkpt>
      <trkpt lat="44.31791" lon="6.59572">
        <ele>1979</ele>
        <time>2016-03-22T12:17:18Z</time>
      </trkpt>
      <trkpt lat="44.31794" lon="6.59579">
        <ele>1979</ele>
        <time>2016-03-22T12:19:18Z</time>
      </trkpt>
      <trkpt lat="44.31796" lon="6.59587">
        <ele>1978</ele>
        <time>2016-03-22T12:21:18Z</time>
      </trkpt>
      <trkpt lat="44.31809" lon="6.59616">
        <ele>1974</ele>
        <time>2016-03-22T12:23:18Z</time>
      </trkpt>
      <trkpt lat="44.31814" lon="6.59627">
        <ele>1972</ele>
        <time>2016-03-22T12:25:18Z</time>
      </trkpt>
      <trkpt lat="44.31818" lon="6.59638">
        <ele>1970</ele>
        <time>2016-03-22T12:27:18Z</time>
      </trkpt>
      <trkpt lat="44.31825" lon="6.59662">
        <ele>1963</ele>
        <time>2016-03-22T12:29:18Z</time>
      </trkpt>
      <trkpt lat="44.3183" lon="6.59687">
        <ele>1956</ele>
        <time>2016-03-22T12:31:18Z</time>
      </trkpt>
      <trkpt lat="44.31832" lon="6.59696">
        <ele>1954</ele>
        <time>2016-03-22T12:33:18Z</time>
      </trkpt>
      <trkpt lat="44.31833" lon="6.59705">
        <ele>1951</ele>
        <time>2016-03-22T12:35:18Z</time>
      </trkpt>
      <trkpt lat="44.31833" lon="6.59714">
        <ele>1948</ele>
        <time>2016-03-22T12:37:18Z</time>
      </trkpt>
      <trkpt lat="44.31833" lon="6.59723">
        <ele>1945</ele>
        <time>2016-03-22T12:39:18Z</time>
      </trkpt>
      <trkpt lat="44.31832" lon="6.59732">
        <ele>1941</ele>
        <time>2016-03-22T12:41:18Z</time>
      </trkpt>
      <trkpt lat="44.3183" lon="6.59745">
        <ele>1936</ele>
        <time>2016-03-22T12:43:18Z</time>
      </trkpt>
      <trkpt lat="44.31831" lon="6.59749">
        <ele>1935</ele>
        <time>2016-03-22T12:45:18Z</time>
      </trkpt>
      <trkpt lat="44.31831" lon="6.59753">
        <ele>1933</ele>
        <time>2016-03-22T12:47:18Z</time>
      </trkpt>
      <trkpt lat="44.31832" lon="6.59756">
        <ele>1933</ele>
        <time>2016-03-22T12:49:18Z</time>
      </trkpt>
      <trkpt lat="44.31834" lon="6.59759">
        <ele>1932</ele>
        <time>2016-03-22T12:51:18Z</time>
      </trkpt>
      <trkpt lat="44.31836" lon="6.59761">
        <ele>1932</ele>
        <time>2016-03-22T12:53:18Z</time>
      </trkpt>
      <trkpt lat="44.31839" lon="6.59763">
        <ele>1932</ele>
        <time>2016-03-22T12:55:18Z</time>
      </trkpt>
      <trkpt lat="44.31841" lon="6.59764">
        <ele>1932</ele>
        <time>2016-03-22T12:57:18Z</time>
      </trkpt>
      <trkpt lat="44.31889" lon="6.59774">
        <ele>1940</ele>
        <time>2016-03-22T12:59:18Z</time>
      </trkpt>
      <trkpt lat="44.31903" lon="6.59778">
        <ele>1942</ele>
        <time>2016-03-22T13:01:18Z</time>
      </trkpt>
      <trkpt lat="44.31917" lon="6.59786">
        <ele>1941</ele>
        <time>2016-03-22T13:03:18Z</time>
      </trkpt>
      <trkpt lat="44.31925" lon="6.59789">
        <ele>1941</ele>
        <time>2016-03-22T13:05:18Z</time>
      </trkpt>
      <trkpt lat="44.31929" lon="6.59789">
        <ele>1942</ele>
        <time>2016-03-22T13:07:18Z</time>
      </trkpt>
      <trkpt lat="44.31937" lon="6.59788">
        <ele>1944</ele>
        <time>2016-03-22T13:09:18Z</time>
      </trkpt>
      <trkpt lat="44.31947" lon="6.59784">
        <ele>1947</ele>
        <time>2016-03-22T13:11:18Z</time>
      </trkpt>
      <trkpt lat="44.31959" lon="6.59781">
        <ele>1950</ele>
        <time>2016-03-22T13:13:18Z</time>
      </trkpt>
      <trkpt lat="44.31983" lon="6.59779">
        <ele>1954</ele>
        <time>2016-03-22T13:15:18Z</time>
      </trkpt>
      <trkpt lat="44.32003" lon="6.59779">
        <ele>1957</ele>
        <time>2016-03-22T13:17:18Z</time>
      </trkpt>
      <trkpt lat="44.32005" lon="6.59779">
        <ele>1958</ele>
        <time>2016-03-22T13:19:18Z</time>
      </trkpt>
      <trkpt lat="44.32008" lon="6.59781">
        <ele>1959</ele>
        <time>2016-03-22T13:21:18Z</time>
      </trkpt>
      <trkpt lat="44.3201" lon="6.59783">
        <ele>1959</ele>
        <time>2016-03-22T13:23:18Z</time>
      </trkpt>
      <trkpt lat="44.32012" lon="6.59786">
        <ele>1959</ele>
        <time>2016-03-22T13:25:18Z</time>
      </trkpt>
      <trkpt lat="44.32013" lon="6.5979">
        <ele>1958</ele>
        <time>2016-03-22T13:27:18Z</time>
      </trkpt>
      <trkpt lat="44.32013" lon="6.59793">
        <ele>1957</ele>
        <time>2016-03-22T13:29:18Z</time>
      </trkpt>
      <trkpt lat="44.32013" lon="6.59797">
        <ele>1956</ele>
        <time>2016-03-22T13:31:18Z</time>
      </trkpt>
      <trkpt lat="44.32011" lon="6.5981">
        <ele>1951</ele>
        <time>2016-03-22T13:33:18Z</time>
      </trkpt>
      <trkpt lat="44.3201" lon="6.59814">
        <ele>1949</ele>
        <time>2016-03-22T13:35:18Z</time>
      </trkpt>
      <trkpt lat="44.32009" lon="6.59819">
        <ele>1947</ele>
        <time>2016-03-22T13:37:18Z</time>
      </trkpt>
      <trkpt lat="44.32009" lon="6.59824">
        <ele>1946</ele>
        <time>2016-03-22T13:39:18Z</time>
      </trkpt>
      <trkpt lat="44.32009" lon="6.59829">
        <ele>1944</ele>
        <time>2016-03-22T13:41:18Z</time>
      </trkpt>
      <trkpt lat="44.3201" lon="6.59834">
        <ele>1943</ele>
        <time>2016-03-22T13:43:18Z</time>
      </trkpt>
      <trkpt lat="44.32017" lon="6.59859">
        <ele>1942</ele>
        <time>2016-03-22T13:45:18Z</time>
      </trkpt>
      <trkpt lat="44.32025" lon="6.59885">
        <ele>1942</ele>
        <time>2016-03-22T13:47:18Z</time>
      </trkpt>
      <trkpt lat="44.32027" lon="6.59896">
        <ele>1940</ele>
        <time>2016-03-22T13:49:18Z</time>
      </trkpt>
      <trkpt lat="44.32027" lon="6.59908">
        <ele>1938</ele>
        <time>2016-03-22T13:51:18Z</time>
      </trkpt>
      <trkpt lat="44.32027" lon="6.59914">
        <ele>1937</ele>
        <time>2016-03-22T13:53:18Z</time>
      </trkpt>
      <trkpt lat="44.32023" lon="6.59938">
        <ele>1930</ele>
        <time>2016-03-22T13:55:18Z</time>
      </trkpt>
      <trkpt lat="44.32022" lon="6.59946">
        <ele>1929</ele>
        <time>2016-03-22T13:57:18Z</time>
      </trkpt>
      <trkpt lat="44.32022" lon="6.59961">
        <ele>1926</ele>
        <time>2016-03-22T13:59:18Z</time>
      </trkpt>
      <trkpt lat="44.32024" lon="6.59976">
        <ele>1925</ele>
        <time>2016-03-22T14:01:18Z</time>
      </trkpt>
      <trkpt lat="44.32026" lon="6.59983">
        <ele>1925</ele>
        <time>2016-03-22T14:03:18Z</time>
      </trkpt>
      <trkpt lat="44.3203" lon="6.60006">
        <ele>1923</ele>
        <time>2016-03-22T14:05:18Z</time>
      </trkpt>
      <trkpt lat="44.32033" lon="6.6003">
        <ele>1918</ele>
        <time>2016-03-22T14:07:18Z</time>
      </trkpt>
      <trkpt lat="44.32034" lon="6.60036">
        <ele>1917</ele>
        <time>2016-03-22T14:09:18Z</time>
      </trkpt>
      <trkpt lat="44.32034" lon="6.60038">
        <ele>1916</ele>
        <time>2016-03-22T14:11:18Z</time>
      </trkpt>
      <trkpt lat="44.32035" lon="6.60043">
        <ele>1915</ele>
        <time>2016-03-22T14:13:18Z</time>
      </trkpt>
      <trkpt lat="44.32036" lon="6.6005">
        <ele>1913</ele>
        <time>2016-03-22T14:15:18Z</time>
      </trkpt>
      <trkpt lat="44.32038" lon="6.60056">
        <ele>1912</ele>
        <time>2016-03-22T14:17:18Z</time>
      </trkpt>
      <trkpt lat="44.32041" lon="6.60062">
        <ele>1912</ele>
        <time>2016-03-22T14:19:18Z</time>
      </trkpt>
      <trkpt lat="44.32044" lon="6.60067">
        <ele>1912</ele>
        <time>2016-03-22T14:21:18Z</time>
      </trkpt>
      <trkpt lat="44.32047" lon="6.60072">
        <ele>1911</ele>
        <time>2016-03-22T14:23:18Z</time>
      </trkpt>
      <trkpt lat="44.32052" lon="6.60077">
        <ele>1912</ele>
        <time>2016-03-22T14:25:18Z</time>
      </trkpt>
      <trkpt lat="44.32056" lon="6.60081">
        <ele>1912</ele>
        <time>2016-03-22T14:27:18Z</time>
      </trkpt>
      <trkpt lat="44.32061" lon="6.60084">
        <ele>1913</ele>
        <time>2016-03-22T14:29:18Z</time>
      </trkpt>
      <trkpt lat="44.32066" lon="6.60086">
        <ele>1914</ele>
        <time>2016-03-22T14:31:18Z</time>
      </trkpt>
      <trkpt lat="44.32072" lon="6.60087">
        <ele>1915</ele>
        <time>2016-03-22T14:33:18Z</time>
      </trkpt>
      <trkpt lat="44.32085" lon="6.60088">
        <ele>1920</ele>
        <time>2016-03-22T14:35:18Z</time>
      </trkpt>
      <trkpt lat="44.32099" lon="6.6009">
        <ele>1922</ele>
        <time>2016-03-22T14:37:18Z</time>
      </trkpt>
      <trkpt lat="44.32107" lon="6.60092">
        <ele>1923</ele>
        <time>2016-03-22T14:39:18Z</time>
      </trkpt>
      <trkpt lat="44.3212" lon="6.60097">
        <ele>1924</ele>
        <time>2016-03-22T14:41:18Z</time>
      </trkpt>
      <trkpt lat="44.32134" lon="6.601">
        <ele>1926</ele>
        <time>2016-03-22T14:43:18Z</time>
      </trkpt>
      <trkpt lat="44.3215" lon="6.60099">
        <ele>1931</ele>
        <time>2016-03-22T14:45:18Z</time>
      </trkpt>
      <trkpt lat="44.32168" lon="6.60096">
        <ele>1937</ele>
        <time>2016-03-22T14:47:18Z</time>
      </trkpt>
      <trkpt lat="44.32176" lon="6.60097">
        <ele>1939</ele>
        <time>2016-03-22T14:49:18Z</time>
      </trkpt>
      <trkpt lat="44.32179" lon="6.60098">
        <ele>1940</ele>
        <time>2016-03-22T14:51:18Z</time>
      </trkpt>
      <trkpt lat="44.32183" lon="6.60104">
        <ele>1938</ele>
        <time>2016-03-22T14:53:18Z</time>
      </trkpt>
      <trkpt lat="44.32185" lon="6.60107">
        <ele>1937</ele>
        <time>2016-03-22T14:55:18Z</time>
      </trkpt>
      <trkpt lat="44.32186" lon="6.60115">
        <ele>1934</ele>
        <time>2016-03-22T14:57:18Z</time>
      </trkpt>
      <trkpt lat="44.32187" lon="6.6012">
        <ele>1932</ele>
        <time>2016-03-22T14:59:18Z</time>
      </trkpt>
      <trkpt lat="44.32186" lon="6.60138">
        <ele>1922</ele>
        <time>2016-03-22T15:01:18Z</time>
      </trkpt>
      <trkpt lat="44.32185" lon="6.60165">
        <ele>1908</ele>
        <time>2016-03-22T15:03:18Z</time>
      </trkpt>
      <trkpt lat="44.32185" lon="6.60173">
        <ele>1904</ele>
        <time>2016-03-22T15:05:18Z</time>
      </trkpt>
      <trkpt lat="44.32186" lon="6.6018">
        <ele>1902</ele>
        <time>2016-03-22T15:07:18Z</time>
      </trkpt>
      <trkpt lat="44.32188" lon="6.60188">
        <ele>1900</ele>
        <time>2016-03-22T15:09:18Z</time>
      </trkpt>
      <trkpt lat="44.3219" lon="6.60192">
        <ele>1899</ele>
        <time>2016-03-22T15:11:18Z</time>
      </trkpt>
      <trkpt lat="44.32192" lon="6.60196">
        <ele>1899</ele>
        <time>2016-03-22T15:13:18Z</time>
      </trkpt>
      <trkpt lat="44.32194" lon="6.602">
        <ele>1898</ele>
        <time>2016-03-22T15:15:18Z</time>
      </trkpt>
      <trkpt lat="44.32197" lon="6.60203">
        <ele>1899</ele>
        <time>2016-03-22T15:17:18Z</time>
      </trkpt>
      <trkpt lat="44.322" lon="6.60206">
        <ele>1899</ele>
        <time>2016-03-22T15:19:18Z</time>
      </trkpt>
      <trkpt lat="44.32204" lon="6.60207">
        <ele>1901</ele>
        <time>2016-03-22T15:21:18Z</time>
      </trkpt>
      <trkpt lat="44.32218" lon="6.60217">
        <ele>1904</ele>
        <time>2016-03-22T15:23:18Z</time>
      </trkpt>
      <trkpt lat="44.32225" lon="6.60223">
        <ele>1905</ele>
        <time>2016-03-22T15:25:18Z</time>
      </trkpt>
      <trkpt lat="44.32237" lon="6.60235">
        <ele>1905</ele>
        <time>2016-03-22T15:27:18Z</time>
      </trkpt>
      <trkpt lat="44.32249" lon="6.60246">
        <ele>1906</ele>
        <time>2016-03-22T15:29:18Z</time>
      </trkpt>
      <trkpt lat="44.32263" lon="6.60256">
        <ele>1903</ele>
        <time>2016-03-22T15:31:18Z</time>
      </trkpt>
      <trkpt lat="44.32271" lon="6.6026">
        <ele>1902</ele>
        <time>2016-03-22T15:33:18Z</time>
      </trkpt>
      <trkpt lat="44.32279" lon="6.60264">
        <ele>1901</ele>
        <time>2016-03-22T15:35:18Z</time>
      </trkpt>
      <trkpt lat="44.32295" lon="6.60269">
        <ele>1901</ele>
        <time>2016-03-22T15:37:18Z</time>
      </trkpt>
      <trkpt lat="44.3231" lon="6.60272">
        <ele>1903</ele>
        <time>2016-03-22T15:39:18Z</time>
      </trkpt>
      <trkpt lat="44.32317" lon="6.60272">
        <ele>1904</ele>
        <time>2016-03-22T15:41:18Z</time>
      </trkpt>
      <trkpt lat="44.32328" lon="6.60274">
        <ele>1906</ele>
        <time>2016-03-22T15:43:18Z</time>
      </trkpt>
      <trkpt lat="44.32338" lon="6.60278">
        <ele>1905</ele>
        <time>2016-03-22T15:45:18Z</time>
      </trkpt>
      <trkpt lat="44.32347" lon="6.60285">
        <ele>1903</ele>
        <time>2016-03-22T15:47:18Z</time>
      </trkpt>
      <trkpt lat="44.32351" lon="6.60291">
        <ele>1901</ele>
        <time>2016-03-22T15:49:18Z</time>
      </trkpt>
      <trkpt lat="44.32355" lon="6.60295">
        <ele>1900</ele>
        <time>2016-03-22T15:51:18Z</time>
      </trkpt>
      <trkpt lat="44.32361" lon="6.60299">
        <ele>1899</ele>
        <time>2016-03-22T15:53:18Z</time>
      </trkpt>
      <trkpt lat="44.32368" lon="6.603">
        <ele>1901</ele>
        <time>2016-03-22T15:55:18Z</time>
      </trkpt>
      <trkpt lat="44.3237" lon="6.60301">
        <ele>1901</ele>
        <time>2016-03-22T15:57:18Z</time>
      </trkpt>
      <trkpt lat="44.32374" lon="6.60304">
        <ele>1901</ele>
        <time>2016-03-22T15:59:18Z</time>
      </trkpt>
      <trkpt lat="44.32378" lon="6.60309">
        <ele>1899</ele>
        <time>2016-03-22T16:01:18Z</time>
      </trkpt>
      <trkpt lat="44.3238" lon="6.60314">
        <ele>1897</ele>
        <time>2016-03-22T16:03:18Z</time>
      </trkpt>
      <trkpt lat="44.32382" lon="6.60319">
        <ele>1895</ele>
        <time>2016-03-22T16:05:18Z</time>
      </trkpt>
      <trkpt lat="44.32391" lon="6.60368">
        <ele>1879</ele>
        <time>2016-03-22T16:07:18Z</time>
      </trkpt>
      <trkpt lat="44.32392" lon="6.60374">
        <ele>1877</ele>
        <time>2016-03-22T16:09:18Z</time>
      </trkpt>
      <trkpt lat="44.32394" lon="6.60381">
        <ele>1876</ele>
        <time>2016-03-22T16:11:18Z</time>
      </trkpt>
      <trkpt lat="44.32399" lon="6.60388">
        <ele>1875</ele>
        <time>2016-03-22T16:13:18Z</time>
      </trkpt>
      <trkpt lat="44.32405" lon="6.60396">
        <ele>1875</ele>
        <time>2016-03-22T16:15:18Z</time>
      </trkpt>
      <trkpt lat="44.32411" lon="6.604">
        <ele>1876</ele>
        <time>2016-03-22T16:17:18Z</time>
      </trkpt>
      <trkpt lat="44.32419" lon="6.60403">
        <ele>1877</ele>
        <time>2016-03-22T16:19:18Z</time>
      </trkpt>
      <trkpt lat="44.3245" lon="6.60401">
        <ele>1877</ele>
        <time>2016-03-22T16:21:18Z</time>
      </trkpt>
      <trkpt lat="44.3249" lon="6.60396">
        <ele>1877</ele>
        <time>2016-03-22T16:23:18Z</time>
      </trkpt>
      <trkpt lat="44.32527" lon="6.60391">
        <ele>1872</ele>
        <time>2016-03-22T16:25:18Z</time>
      </trkpt>
      <trkpt lat="44.32532" lon="6.6039">
        <ele>1871</ele>
        <time>2016-03-22T16:27:18Z</time>
      </trkpt>
      <trkpt lat="44.32539" lon="6.60386">
        <ele>1871</ele>
        <time>2016-03-22T16:29:18Z</time>
      </trkpt>
      <trkpt lat="44.32574" lon="6.60358">
        <ele>1872</ele>
        <time>2016-03-22T16:31:18Z</time>
      </trkpt>
      <trkpt lat="44.32594" lon="6.60338">
        <ele>1870</ele>
        <time>2016-03-22T16:33:18Z</time>
      </trkpt>
      <trkpt lat="44.32613" lon="6.60314">
        <ele>1865</ele>
        <time>2016-03-22T16:35:18Z</time>
      </trkpt>
      <trkpt lat="44.32622" lon="6.60297">
        <ele>1863</ele>
        <time>2016-03-22T16:37:18Z</time>
      </trkpt>
      <trkpt lat="44.32636" lon="6.60265">
        <ele>1861</ele>
        <time>2016-03-22T16:39:18Z</time>
      </trkpt>
      <trkpt lat="44.32639" lon="6.60255">
        <ele>1861</ele>
        <time>2016-03-22T16:41:18Z</time>
      </trkpt>
      <trkpt lat="44.32643" lon="6.60237">
        <ele>1864</ele>
        <time>2016-03-22T16:43:18Z</time>
      </trkpt>
      <trkpt lat="44.32644" lon="6.60226">
        <ele>1866</ele>
        <time>2016-03-22T16:45:18Z</time>
      </trkpt>
      <trkpt lat="44.32647" lon="6.60215">
        <ele>1868</ele>
        <time>2016-03-22T16:47:18Z</time>
      </trkpt>
      <trkpt lat="44.3265" lon="6.60204">
        <ele>1870</ele>
        <time>2016-03-22T16:49:18Z</time>
      </trkpt>
      <trkpt lat="44.32667" lon="6.6017">
        <ele>1872</ele>
        <time>2016-03-22T16:51:18Z</time>
      </trkpt>
      <trkpt lat="44.32673" lon="6.60156">
        <ele>1872</ele>
        <time>2016-03-22T16:53:18Z</time>
      </trkpt>
      <trkpt lat="44.32682" lon="6.6014">
        <ele>1872</ele>
        <time>2016-03-22T16:55:18Z</time>
      </trkpt>
      <trkpt lat="44.32702" lon="6.60119">
        <ele>1865</ele>
        <time>2016-03-22T16:57:18Z</time>
      </trkpt>
      <trkpt lat="44.32704" lon="6.60116">
        <ele>1865</ele>
        <time>2016-03-22T16:59:18Z</time>
      </trkpt>
      <trkpt lat="44.32706" lon="6.60114">
        <ele>1864</ele>
        <time>2016-03-22T17:01:18Z</time>
      </trkpt>
      <trkpt lat="44.3271" lon="6.60111">
        <ele>1863</ele>
        <time>2016-03-22T17:03:18Z</time>
      </trkpt>
      <trkpt lat="44.32712" lon="6.60109">
        <ele>1862</ele>
        <time>2016-03-22T17:05:18Z</time>
      </trkpt>
      <trkpt lat="44.32715" lon="6.60106">
        <ele>1861</ele>
        <time>2016-03-22T17:07:18Z</time>
      </trkpt>
      <trkpt lat="44.32716" lon="6.60104">
        <ele>1861</ele>
        <time>2016-03-22T17:09:18Z</time>
      </trkpt>
      <trkpt lat="44.32718" lon="6.60099">
        <ele>1861</ele>
        <time>2016-03-22T17:11:18Z</time>
      </trkpt>
      <trkpt lat="44.32719" lon="6.60096">
        <ele>1862</ele>
        <time>2016-03-22T17:13:18Z</time>
      </trkpt>
      <trkpt lat="44.3272" lon="6.60092">
        <ele>1862</ele>
        <time>2016-03-22T17:15:18Z</time>
      </trkpt>
      <trkpt lat="44.32721" lon="6.60085">
        <ele>1864</ele>
        <time>2016-03-22T17:17:18Z</time>
      </trkpt>
      <trkpt lat="44.32723" lon="6.60073">
        <ele>1866</ele>
        <time>2016-03-22T17:19:18Z</time>
      </trkpt>
      <trkpt lat="44.32729" lon="6.60039">
        <ele>1874</ele>
        <time>2016-03-22T17:21:18Z</time>
      </trkpt>
      <trkpt lat="44.3273" lon="6.60036">
        <ele>1874</ele>
        <time>2016-03-22T17:23:18Z</time>
      </trkpt>
      <trkpt lat="44.32731" lon="6.60034">
        <ele>1874</ele>
        <time>2016-03-22T17:25:18Z</time>
      </trkpt>
      <trkpt lat="44.32732" lon="6.60032">
        <ele>1874</ele>
        <time>2016-03-22T17:27:18Z</time>
      </trkpt>
      <trkpt lat="44.32733" lon="6.6003">
        <ele>1874</ele>
        <time>2016-03-22T17:29:18Z</time>
      </trkpt>
      <trkpt lat="44.32735" lon="6.60028">
        <ele>1873</ele>
        <time>2016-03-22T17:31:18Z</time>
      </trkpt>
      <trkpt lat="44.32736" lon="6.60027">
        <ele>1873</ele>
        <time>2016-03-22T17:33:18Z</time>
      </trkpt>
      <trkpt lat="44.32738" lon="6.60025">
        <ele>1872</ele>
        <time>2016-03-22T17:35:18Z</time>
      </trkpt>
      <trkpt lat="44.3274" lon="6.60024">
        <ele>1871</ele>
        <time>2016-03-22T17:37:18Z</time>
      </trkpt>
      <trkpt lat="44.32741" lon="6.60023">
        <ele>1871</ele>
        <time>2016-03-22T17:39:18Z</time>
      </trkpt>
      <trkpt lat="44.32743" lon="6.60022">
        <ele>1870</ele>
        <time>2016-03-22T17:41:18Z</time>
      </trkpt>
      <trkpt lat="44.32744" lon="6.60021">
        <ele>1870</ele>
        <time>2016-03-22T17:43:18Z</time>
      </trkpt>
      <trkpt lat="44.32745" lon="6.60021">
        <ele>1869</ele>
        <time>2016-03-22T17:45:18Z</time>
      </trkpt>
      <trkpt lat="44.32748" lon="6.6002">
        <ele>1868</ele>
        <time>2016-03-22T17:47:18Z</time>
      </trkpt>
      <trkpt lat="44.3275" lon="6.60019">
        <ele>1867</ele>
        <time>2016-03-22T17:49:18Z</time>
      </trkpt>
      <trkpt lat="44.32753" lon="6.60019">
        <ele>1864</ele>
        <time>2016-03-22T17:51:18Z</time>
      </trkpt>
      <trkpt lat="44.32754" lon="6.60019">
        <ele>1864</ele>
        <time>2016-03-22T17:53:18Z</time>
      </trkpt>
      <trkpt lat="44.32758" lon="6.60018">
        <ele>1861</ele>
        <time>2016-03-22T17:55:18Z</time>
      </trkpt>
      <trkpt lat="44.32759" lon="6.60018">
        <ele>1860</ele>
        <time>2016-03-22T17:57:18Z</time>
      </trkpt>
      <trkpt lat="44.32768" lon="6.60017">
        <ele>1854</ele>
        <time>2016-03-22T17:59:18Z</time>
      </trkpt>
      <trkpt lat="44.32772" lon="6.60017">
        <ele>1851</ele>
        <time>2016-03-22T18:01:18Z</time>
      </trkpt>
      <trkpt lat="44.32775" lon="6.60018">
        <ele>1849</ele>
        <time>2016-03-22T18:03:18Z</time>
      </trkpt>
      <trkpt lat="44.32777" lon="6.60019">
        <ele>1847</ele>
        <time>2016-03-22T18:05:18Z</time>
      </trkpt>
      <trkpt lat="44.3278" lon="6.6002">
        <ele>1845</ele>
        <time>2016-03-22T18:07:18Z</time>
      </trkpt>
      <trkpt lat="44.32782" lon="6.6002">
        <ele>1843</ele>
        <time>2016-03-22T18:09:18Z</time>
      </trkpt>
      <trkpt lat="44.32785" lon="6.6002">
        <ele>1841</ele>
        <time>2016-03-22T18:11:18Z</time>
      </trkpt>
      <trkpt lat="44.32787" lon="6.6002">
        <ele>1840</ele>
        <time>2016-03-22T18:13:18Z</time>
      </trkpt>
      <trkpt lat="44.32789" lon="6.6002">
        <ele>1838</ele>
        <time>2016-03-22T18:15:18Z</time>
      </trkpt>
      <trkpt lat="44.32791" lon="6.6002">
        <ele>1837</ele>
        <time>2016-03-22T18:17:18Z</time>
      </trkpt>
      <trkpt lat="44.32792" lon="6.60019">
        <ele>1836</ele>
        <time>2016-03-22T18:19:18Z</time>
      </trkpt>
      <trkpt lat="44.32793" lon="6.60018">
        <ele>1836</ele>
        <time>2016-03-22T18:21:18Z</time>
      </trkpt>
      <trkpt lat="44.32795" lon="6.60016">
        <ele>1835</ele>
        <time>2016-03-22T18:23:18Z</time>
      </trkpt>
      <trkpt lat="44.32796" lon="6.60013">
        <ele>1835</ele>
        <time>2016-03-22T18:25:18Z</time>
      </trkpt>
      <trkpt lat="44.32797" lon="6.6001">
        <ele>1835</ele>
        <time>2016-03-22T18:27:18Z</time>
      </trkpt>
      <trkpt lat="44.32798" lon="6.60008">
        <ele>1835</ele>
        <time>2016-03-22T18:29:18Z</time>
      </trkpt>
      <trkpt lat="44.32798" lon="6.60006">
        <ele>1836</ele>
        <time>2016-03-22T18:31:18Z</time>
      </trkpt>
      <trkpt lat="44.32798" lon="6.60003">
        <ele>1837</ele>
        <time>2016-03-22T18:33:18Z</time>
      </trkpt>
      <trkpt lat="44.32798" lon="6.6">
        <ele>1838</ele>
        <time>2016-03-22T18:35:18Z</time>
      </trkpt>
      <trkpt lat="44.32797" lon="6.59998">
        <ele>1839</ele>
        <time>2016-03-22T18:37:18Z</time>
      </trkpt>
      <trkpt lat="44.32797" lon="6.59996">
        <ele>1839</ele>
        <time>2016-03-22T18:39:18Z</time>
      </trkpt>
      <trkpt lat="44.32796" lon="6.59994">
        <ele>1840</ele>
        <time>2016-03-22T18:41:18Z</time>
      </trkpt>
      <trkpt lat="44.32795" lon="6.59993">
        <ele>1841</ele>
        <time>2016-03-22T18:43:18Z</time>
      </trkpt>
      <trkpt lat="44.32794" lon="6.59991">
        <ele>1842</ele>
        <time>2016-03-22T18:45:18Z</time>
      </trkpt>
      <trkpt lat="44.32794" lon="6.59988">
        <ele>1843</ele>
        <time>2016-03-22T18:47:18Z</time>
      </trkpt>
      <trkpt lat="44.32793" lon="6.59985">
        <ele>1844</ele>
        <time>2016-03-22T18:49:18Z</time>
      </trkpt>
      <trkpt lat="44.32793" lon="6.59982">
        <ele>1844</ele>
        <time>2016-03-22T18:51:18Z</time>
      </trkpt>
      <trkpt lat="44.32793" lon="6.59979">
        <ele>1845</ele>
        <time>2016-03-22T18:53:18Z</time>
      </trkpt>
      <trkpt lat="44.32793" lon="6.59975">
        <ele>1845</ele>
        <time>2016-03-22T18:55:18Z</time>
      </trkpt>
      <trkpt lat="44.32793" lon="6.59972">
        <ele>1846</ele>
        <time>2016-03-22T18:57:18Z</time>
      </trkpt>
      <trkpt lat="44.32793" lon="6.59969">
        <ele>1846</ele>
        <time>2016-03-22T18:59:18Z</time>
      </trkpt>
      <trkpt lat="44.32793" lon="6.59964">
        <ele>1847</ele>
        <time>2016-03-22T19:01:18Z</time>
      </trkpt>
      <trkpt lat="44.32794" lon="6.59955">
        <ele>1847</ele>
        <time>2016-03-22T19:03:18Z</time>
      </trkpt>
      <trkpt lat="44.32794" lon="6.59945">
        <ele>1849</ele>
        <time>2016-03-22T19:05:18Z</time>
      </trkpt>
      <trkpt lat="44.32798" lon="6.59898">
        <ele>1852</ele>
        <time>2016-03-22T19:07:18Z</time>
      </trkpt>
      <trkpt lat="44.32798" lon="6.59893">
        <ele>1852</ele>
        <time>2016-03-22T19:09:18Z</time>
      </trkpt>
      <trkpt lat="44.32799" lon="6.59889">
        <ele>1852</ele>
        <time>2016-03-22T19:11:18Z</time>
      </trkpt>
      <trkpt lat="44.328" lon="6.59886">
        <ele>1851</ele>
        <time>2016-03-22T19:13:18Z</time>
      </trkpt>
      <trkpt lat="44.32803" lon="6.59881">
        <ele>1850</ele>
        <time>2016-03-22T19:15:18Z</time>
      </trkpt>
      <trkpt lat="44.32822" lon="6.59851">
        <ele>1839</ele>
        <time>2016-03-22T19:17:18Z</time>
      </trkpt>
      <trkpt lat="44.3283" lon="6.59833">
        <ele>1835</ele>
        <time>2016-03-22T19:19:18Z</time>
      </trkpt>
      <trkpt lat="44.32837" lon="6.59809">
        <ele>1830</ele>
        <time>2016-03-22T19:21:18Z</time>
      </trkpt>
      <trkpt lat="44.3284" lon="6.59793">
        <ele>1828</ele>
        <time>2016-03-22T19:23:18Z</time>
      </trkpt>
      <trkpt lat="44.32841" lon="6.59743">
        <ele>1826</ele>
        <time>2016-03-22T19:25:18Z</time>
      </trkpt>
      <trkpt lat="44.32838" lon="6.59698">
        <ele>1822</ele>
        <time>2016-03-22T19:27:18Z</time>
      </trkpt>
      <trkpt lat="44.32838" lon="6.59694">
        <ele>1821</ele>
        <time>2016-03-22T19:29:18Z</time>
      </trkpt>
      <trkpt lat="44.32837" lon="6.59692">
        <ele>1822</ele>
        <time>2016-03-22T19:31:18Z</time>
      </trkpt>
      <trkpt lat="44.32835" lon="6.59688">
        <ele>1823</ele>
        <time>2016-03-22T19:33:18Z</time>
      </trkpt>
      <trkpt lat="44.32834" lon="6.59685">
        <ele>1823</ele>
        <time>2016-03-22T19:35:18Z</time>
      </trkpt>
      <trkpt lat="44.32832" lon="6.59683">
        <ele>1824</ele>
        <time>2016-03-22T19:37:18Z</time>
      </trkpt>
      <trkpt lat="44.32814" lon="6.59673">
        <ele>1835</ele>
        <time>2016-03-22T19:39:18Z</time>
      </trkpt>
      <trkpt lat="44.32812" lon="6.59671">
        <ele>1836</ele>
        <time>2016-03-22T19:41:18Z</time>
      </trkpt>
      <trkpt lat="44.3281" lon="6.59668">
        <ele>1837</ele>
        <time>2016-03-22T19:43:18Z</time>
      </trkpt>
      <trkpt lat="44.32809" lon="6.59664">
        <ele>1838</ele>
        <time>2016-03-22T19:45:18Z</time>
      </trkpt>
      <trkpt lat="44.32807" lon="6.5966">
        <ele>1839</ele>
        <time>2016-03-22T19:47:18Z</time>
      </trkpt>
      <trkpt lat="44.32807" lon="6.59654">
        <ele>1838</ele>
        <time>2016-03-22T19:49:18Z</time>
      </trkpt>
      <trkpt lat="44.32811" lon="6.59621">
        <ele>1833</ele>
        <time>2016-03-22T19:51:18Z</time>
      </trkpt>
      <trkpt lat="44.32814" lon="6.59575">
        <ele>1828</ele>
        <time>2016-03-22T19:53:18Z</time>
      </trkpt>
      <trkpt lat="44.32827" lon="6.59525">
        <ele>1820</ele>
        <time>2016-03-22T19:55:18Z</time>
      </trkpt>
      <trkpt lat="44.3283" lon="6.59494">
        <ele>1818</ele>
        <time>2016-03-22T19:57:18Z</time>
      </trkpt>
      <trkpt lat="44.32827" lon="6.59458">
        <ele>1815</ele>
        <time>2016-03-22T19:59:18Z</time>
      </trkpt>
      <trkpt lat="44.32818" lon="6.59401">
        <ele>1814</ele>
        <time>2016-03-22T20:01:18Z</time>
      </trkpt>
      <trkpt lat="44.32816" lon="6.5939">
        <ele>1814</ele>
        <time>2016-03-22T20:03:18Z</time>
      </trkpt>
      <trkpt lat="44.32814" lon="6.59378">
        <ele>1813</ele>
        <time>2016-03-22T20:05:18Z</time>
      </trkpt>
      <trkpt lat="44.32813" lon="6.59368">
        <ele>1812</ele>
        <time>2016-03-22T20:07:18Z</time>
      </trkpt>
      <trkpt lat="44.32813" lon="6.59357">
        <ele>1810</ele>
        <time>2016-03-22T20:09:18Z</time>
      </trkpt>
      <trkpt lat="44.32814" lon="6.5935">
        <ele>1808</ele>
        <time>2016-03-22T20:11:18Z</time>
      </trkpt>
      <trkpt lat="44.32814" lon="6.59341">
        <ele>1807</ele>
        <time>2016-03-22T20:13:18Z</time>
      </trkpt>
      <trkpt lat="44.32814" lon="6.59332">
        <ele>1805</ele>
        <time>2016-03-22T20:15:18Z</time>
      </trkpt>
      <trkpt lat="44.3278" lon="6.59255">
        <ele>1814</ele>
        <time>2016-03-22T20:17:18Z</time>
      </trkpt>
      <trkpt lat="44.3278" lon="6.59249">
        <ele>1813</ele>
        <time>2016-03-22T20:19:18Z</time>
      </trkpt>
      <trkpt lat="44.32779" lon="6.59244">
        <ele>1814</ele>
        <time>2016-03-22T20:21:18Z</time>
      </trkpt>
      <trkpt lat="44.3278" lon="6.59239">
        <ele>1813</ele>
        <time>2016-03-22T20:23:18Z</time>
      </trkpt>
      <trkpt lat="44.32781" lon="6.59234">
        <ele>1813</ele>
        <time>2016-03-22T20:25:18Z</time>
      </trkpt>
      <trkpt lat="44.32783" lon="6.59229">
        <ele>1812</ele>
        <time>2016-03-22T20:27:18Z</time>
      </trkpt>
      <trkpt lat="44.32785" lon="6.59226">
        <ele>1811</ele>
        <time>2016-03-22T20:29:18Z</time>
      </trkpt>
      <trkpt lat="44.32815" lon="6.59204">
        <ele>1801</ele>
        <time>2016-03-22T20:31:18Z</time>
      </trkpt>
      <trkpt lat="44.32821" lon="6.59199">
        <ele>1799</ele>
        <time>2016-03-22T20:33:18Z</time>
      </trkpt>
      <trkpt lat="44.32831" lon="6.59187">
        <ele>1797</ele>
        <time>2016-03-22T20:35:18Z</time>
      </trkpt>
      <trkpt lat="44.32835" lon="6.5918">
        <ele>1796</ele>
        <time>2016-03-22T20:37:18Z</time>
      </trkpt>
      <trkpt lat="44.32843" lon="6.59166">
        <ele>1794</ele>
        <time>2016-03-22T20:39:18Z</time>
      </trkpt>
      <trkpt lat="44.3285" lon="6.5915">
        <ele>1793</ele>
        <time>2016-03-22T20:41:18Z</time>
      </trkpt>
      <trkpt lat="44.32862" lon="6.59117">
        <ele>1791</ele>
        <time>2016-03-22T20:43:18Z</time>
      </trkpt>
      <trkpt lat="44.32863" lon="6.5911">
        <ele>1792</ele>
        <time>2016-03-22T20:45:18Z</time>
      </trkpt>
      <trkpt lat="44.32864" lon="6.59101">
        <ele>1792</ele>
        <time>2016-03-22T20:47:18Z</time>
      </trkpt>
      <trkpt lat="44.32865" lon="6.59093">
        <ele>1792</ele>
        <time>2016-03-22T20:49:18Z</time>
      </trkpt>
      <trkpt lat="44.32864" lon="6.59067">
        <ele>1795</ele>
        <time>2016-03-22T20:51:18Z</time>
      </trkpt>
      <trkpt lat="44.32864" lon="6.59064">
        <ele>1796</ele>
        <time>2016-03-22T20:53:18Z</time>
      </trkpt>
      <trkpt lat="44.32864" lon="6.59061">
        <ele>1796</ele>
        <time>2016-03-22T20:55:18Z</time>
      </trkpt>
      <trkpt lat="44.32867" lon="6.59055">
        <ele>1795</ele>
        <time>2016-03-22T20:57:18Z</time>
      </trkpt>
      <trkpt lat="44.32869" lon="6.59053">
        <ele>1795</ele>
        <time>2016-03-22T20:59:18Z</time>
      </trkpt>
      <trkpt lat="44.32873" lon="6.59051">
        <ele>1793</ele>
        <time>2016-03-22T21:01:18Z</time>
      </trkpt>
      <trkpt lat="44.32875" lon="6.59051">
        <ele>1792</ele>
        <time>2016-03-22T21:03:18Z</time>
      </trkpt>
      <trkpt lat="44.32883" lon="6.59052">
        <ele>1789</ele>
        <time>2016-03-22T21:05:18Z</time>
      </trkpt>
      <trkpt lat="44.32886" lon="6.59054">
        <ele>1787</ele>
        <time>2016-03-22T21:07:18Z</time>
      </trkpt>
      <trkpt lat="44.32888" lon="6.59058">
        <ele>1786</ele>
        <time>2016-03-22T21:09:18Z</time>
      </trkpt>
      <trkpt lat="44.3289" lon="6.59062">
        <ele>1785</ele>
        <time>2016-03-22T21:11:18Z</time>
      </trkpt>
      <trkpt lat="44.32892" lon="6.59069">
        <ele>1783</ele>
        <time>2016-03-22T21:13:18Z</time>
      </trkpt>
      <trkpt lat="44.32891" lon="6.59102">
        <ele>1780</ele>
        <time>2016-03-22T21:15:18Z</time>
      </trkpt>
      <trkpt lat="44.32894" lon="6.59151">
        <ele>1776</ele>
        <time>2016-03-22T21:17:18Z</time>
      </trkpt>
      <trkpt lat="44.32893" lon="6.59165">
        <ele>1775</ele>
        <time>2016-03-22T21:19:18Z</time>
      </trkpt>
      <trkpt lat="44.32889" lon="6.59185">
        <ele>1776</ele>
        <time>2016-03-22T21:21:18Z</time>
      </trkpt>
      <trkpt lat="44.32888" lon="6.59189">
        <ele>1776</ele>
        <time>2016-03-22T21:23:18Z</time>
      </trkpt>
      <trkpt lat="44.32887" lon="6.59199">
        <ele>1776</ele>
        <time>2016-03-22T21:25:18Z</time>
      </trkpt>
      <trkpt lat="44.32888" lon="6.59217">
        <ele>1774</ele>
        <time>2016-03-22T21:27:18Z</time>
      </trkpt>
      <trkpt lat="44.3289" lon="6.59229">
        <ele>1773</ele>
        <time>2016-03-22T21:29:18Z</time>
      </trkpt>
      <trkpt lat="44.32891" lon="6.59235">
        <ele>1772</ele>
        <time>2016-03-22T21:31:18Z</time>
      </trkpt>
      <trkpt lat="44.3289" lon="6.59244">
        <ele>1772</ele>
        <time>2016-03-22T21:33:18Z</time>
      </trkpt>
      <trkpt lat="44.32889" lon="6.59248">
        <ele>1772</ele>
        <time>2016-03-22T21:35:18Z</time>
      </trkpt>
      <trkpt lat="44.32887" lon="6.59253">
        <ele>1773</ele>
        <time>2016-03-22T21:37:18Z</time>
      </trkpt>
      <trkpt lat="44.32887" lon="6.59255">
        <ele>1773</ele>
        <time>2016-03-22T21:39:18Z</time>
      </trkpt>
      <trkpt lat="44.32885" lon="6.59259">
        <ele>1773</ele>
        <time>2016-03-22T21:41:18Z</time>
      </trkpt>
      <trkpt lat="44.32883" lon="6.59262">
        <ele>1774</ele>
        <time>2016-03-22T21:43:18Z</time>
      </trkpt>
      <trkpt lat="44.32882" lon="6.59264">
        <ele>1774</ele>
        <time>2016-03-22T21:45:18Z</time>
      </trkpt>
      <trkpt lat="44.3288" lon="6.59267">
        <ele>1774</ele>
        <time>2016-03-22T21:47:18Z</time>
      </trkpt>
      <trkpt lat="44.32879" lon="6.59271">
        <ele>1775</ele>
        <time>2016-03-22T21:49:18Z</time>
      </trkpt>
      <trkpt lat="44.32877" lon="6.59274">
        <ele>1775</ele>
        <time>2016-03-22T21:51:18Z</time>
      </trkpt>
      <trkpt lat="44.32875" lon="6.59278">
        <ele>1776</ele>
        <time>2016-03-22T21:53:18Z</time>
      </trkpt>
      <trkpt lat="44.32872" lon="6.59282">
        <ele>1777</ele>
        <time>2016-03-22T21:55:18Z</time>
      </trkpt>
      <trkpt lat="44.32871" lon="6.59286">
        <ele>1777</ele>
        <time>2016-03-22T21:57:18Z</time>
      </trkpt>
      <trkpt lat="44.3287" lon="6.59288">
        <ele>1777</ele>
        <time>2016-03-22T21:59:18Z</time>
      </trkpt>
      <trkpt lat="44.32868" lon="6.59292">
        <ele>1778</ele>
        <time>2016-03-22T22:01:18Z</time>
      </trkpt>
      <trkpt lat="44.32867" lon="6.59296">
        <ele>1779</ele>
        <time>2016-03-22T22:03:18Z</time>
      </trkpt>
      <trkpt lat="44.32867" lon="6.593">
        <ele>1779</ele>
        <time>2016-03-22T22:05:18Z</time>
      </trkpt>
      <trkpt lat="44.32867" lon="6.59305">
        <ele>1778</ele>
        <time>2016-03-22T22:07:18Z</time>
      </trkpt>
      <trkpt lat="44.32867" lon="6.59309">
        <ele>1778</ele>
        <time>2016-03-22T22:09:18Z</time>
      </trkpt>
      <trkpt lat="44.32869" lon="6.59313">
        <ele>1778</ele>
        <time>2016-03-22T22:11:18Z</time>
      </trkpt>
      <trkpt lat="44.3287" lon="6.59316">
        <ele>1777</ele>
        <time>2016-03-22T22:13:18Z</time>
      </trkpt>
      <trkpt lat="44.32872" lon="6.59317">
        <ele>1776</ele>
        <time>2016-03-22T22:15:18Z</time>
      </trkpt>
      <trkpt lat="44.32874" lon="6.59319">
        <ele>1775</ele>
        <time>2016-03-22T22:17:18Z</time>
      </trkpt>
      <trkpt lat="44.32879" lon="6.59321">
        <ele>1773</ele>
        <time>2016-03-22T22:19:18Z</time>
      </trkpt>
      <trkpt lat="44.32881" lon="6.59321">
        <ele>1772</ele>
        <time>2016-03-22T22:21:18Z</time>
      </trkpt>
      <trkpt lat="44.32883" lon="6.59321">
        <ele>1771</ele>
        <time>2016-03-22T22:23:18Z</time>
      </trkpt>
      <trkpt lat="44.32884" lon="6.59321">
        <ele>1771</ele>
        <time>2016-03-22T22:25:18Z</time>
      </trkpt>
      <trkpt lat="44.32886" lon="6.5932">
        <ele>1770</ele>
        <time>2016-03-22T22:27:18Z</time>
      </trkpt>
      <trkpt lat="44.32888" lon="6.59319">
        <ele>1769</ele>
        <time>2016-03-22T22:29:18Z</time>
      </trkpt>
      <trkpt lat="44.32889" lon="6.59318">
        <ele>1769</ele>
        <time>2016-03-22T22:31:18Z</time>
      </trkpt>
      <trkpt lat="44.32891" lon="6.59317">
        <ele>1768</ele>
        <time>2016-03-22T22:33:18Z</time>
      </trkpt>
      <trkpt lat="44.32893" lon="6.59315">
        <ele>1767</ele>
        <time>2016-03-22T22:35:18Z</time>
      </trkpt>
      <trkpt lat="44.32895" lon="6.59312">
        <ele>1767</ele>
        <time>2016-03-22T22:37:18Z</time>
      </trkpt>
      <trkpt lat="44.329" lon="6.59307">
        <ele>1765</ele>
        <time>2016-03-22T22:39:18Z</time>
      </trkpt>
      <trkpt lat="44.32911" lon="6.5929">
        <ele>1762</ele>
        <time>2016-03-22T22:41:18Z</time>
      </trkpt>
      <trkpt lat="44.32922" lon="6.59278">
        <ele>1758</ele>
        <time>2016-03-22T22:43:18Z</time>
      </trkpt>
      <trkpt lat="44.32924" lon="6.59275">
        <ele>1758</ele>
        <time>2016-03-22T22:45:18Z</time>
      </trkpt>
      <trkpt lat="44.32925" lon="6.59272">
        <ele>1757</ele>
        <time>2016-03-22T22:47:18Z</time>
      </trkpt>
      <trkpt lat="44.32926" lon="6.59269">
        <ele>1757</ele>
        <time>2016-03-22T22:49:18Z</time>
      </trkpt>
      <trkpt lat="44.32927" lon="6.59267">
        <ele>1757</ele>
        <time>2016-03-22T22:51:18Z</time>
      </trkpt>
      <trkpt lat="44.32928" lon="6.59263">
        <ele>1757</ele>
        <time>2016-03-22T22:53:18Z</time>
      </trkpt>
      <trkpt lat="44.32929" lon="6.5926">
        <ele>1757</ele>
        <time>2016-03-22T22:55:18Z</time>
      </trkpt>
      <trkpt lat="44.32929" lon="6.59256">
        <ele>1757</ele>
        <time>2016-03-22T22:57:18Z</time>
      </trkpt>
      <trkpt lat="44.32929" lon="6.59252">
        <ele>1758</ele>
        <time>2016-03-22T22:59:18Z</time>
      </trkpt>
      <trkpt lat="44.32929" lon="6.59248">
        <ele>1758</ele>
        <time>2016-03-22T23:01:18Z</time>
      </trkpt>
      <trkpt lat="44.32929" lon="6.59244">
        <ele>1758</ele>
        <time>2016-03-22T23:03:18Z</time>
      </trkpt>
      <trkpt lat="44.32929" lon="6.59242">
        <ele>1758</ele>
        <time>2016-03-22T23:05:18Z</time>
      </trkpt>
      <trkpt lat="44.32928" lon="6.59237">
        <ele>1759</ele>
        <time>2016-03-22T23:07:18Z</time>
      </trkpt>
      <trkpt lat="44.32927" lon="6.59233">
        <ele>1760</ele>
        <time>2016-03-22T23:09:18Z</time>
      </trkpt>
      <trkpt lat="44.32927" lon="6.59229">
        <ele>1760</ele>
        <time>2016-03-22T23:11:18Z</time>
      </trkpt>
      <trkpt lat="44.32925" lon="6.59223">
        <ele>1761</ele>
        <time>2016-03-22T23:13:18Z</time>
      </trkpt>
      <trkpt lat="44.32924" lon="6.59219">
        <ele>1761</ele>
        <time>2016-03-22T23:15:18Z</time>
      </trkpt>
      <trkpt lat="44.32924" lon="6.59215">
        <ele>1761</ele>
        <time>2016-03-22T23:17:18Z</time>
      </trkpt>
      <trkpt lat="44.32925" lon="6.59211">
        <ele>1761</ele>
        <time>2016-03-22T23:19:18Z</time>
      </trkpt>
      <trkpt lat="44.32926" lon="6.59207">
        <ele>1761</ele>
        <time>2016-03-22T23:21:18Z</time>
      </trkpt>
      <trkpt lat="44.32927" lon="6.59204">
        <ele>1760</ele>
        <time>2016-03-22T23:23:18Z</time>
      </trkpt>
      <trkpt lat="44.32928" lon="6.59201">
        <ele>1760</ele>
        <time>2016-03-22T23:25:18Z</time>
      </trkpt>
      <trkpt lat="44.32931" lon="6.59197">
        <ele>1759</ele>
        <time>2016-03-22T23:27:18Z</time>
      </trkpt>
      <trkpt lat="44.32945" lon="6.59179">
        <ele>1753</ele>
        <time>2016-03-22T23:29:18Z</time>
      </trkpt>
      <trkpt lat="44.32947" lon="6.59178">
        <ele>1752</ele>
        <time>2016-03-22T23:31:18Z</time>
      </trkpt>
      <trkpt lat="44.32948" lon="6.59176">
        <ele>1752</ele>
        <time>2016-03-22T23:33:18Z</time>
      </trkpt>
      <trkpt lat="44.32949" lon="6.59173">
        <ele>1751</ele>
        <time>2016-03-22T23:35:18Z</time>
      </trkpt>
      <trkpt lat="44.32951" lon="6.5917">
        <ele>1751</ele>
        <time>2016-03-22T23:37:18Z</time>
      </trkpt>
      <trkpt lat="44.32951" lon="6.59167">
        <ele>1751</ele>
        <time>2016-03-22T23:39:18Z</time>
      </trkpt>
      <trkpt lat="44.32951" lon="6.59163">
        <ele>1751</ele>
        <time>2016-03-22T23:41:18Z</time>
      </trkpt>
      <trkpt lat="44.32952" lon="6.59158">
        <ele>1751</ele>
        <time>2016-03-22T23:43:18Z</time>
      </trkpt>
      <trkpt lat="44.32952" lon="6.59153">
        <ele>1751</ele>
        <time>2016-03-22T23:45:18Z</time>
      </trkpt>
      <trkpt lat="44.32953" lon="6.59148">
        <ele>1751</ele>
        <time>2016-03-22T23:47:18Z</time>
      </trkpt>
      <trkpt lat="44.32953" lon="6.59143">
        <ele>1751</ele>
        <time>2016-03-22T23:49:18Z</time>
      </trkpt>
      <trkpt lat="44.32954" lon="6.59138">
        <ele>1751</ele>
        <time>2016-03-22T23:51:18Z</time>
      </trkpt>
      <trkpt lat="44.32954" lon="6.59135">
        <ele>1752</ele>
        <time>2016-03-22T23:53:18Z</time>
      </trkpt>
      <trkpt lat="44.32954" lon="6.59131">
        <ele>1752</ele>
        <time>2016-03-22T23:55:18Z</time>
      </trkpt>
      <trkpt lat="44.32954" lon="6.59126">
        <ele>1752</ele>
        <time>2016-03-22T23:57:18Z</time>
      </trkpt>
      <trkpt lat="44.32956" lon="6.59114">
        <ele>1752</ele>
        <time>2016-03-22T23:59:18Z</time>
      </trkpt>
      <trkpt lat="44.32961" lon="6.59094">
        <ele>1752</ele>
        <time>2016-03-23T00:01:18Z</time>
      </trkpt>
      <trkpt lat="44.32971" lon="6.59066">
        <ele>1752</ele>
        <time>2016-03-23T00:03:18Z</time>
      </trkpt>
      <trkpt lat="44.32982" lon="6.5905">
        <ele>1752</ele>
        <time>2016-03-23T00:05:18Z</time>
      </trkpt>
      <trkpt lat="44.32996" lon="6.59021">
        <ele>1754</ele>
        <time>2016-03-23T00:07:18Z</time>
      </trkpt>
      <trkpt lat="44.33008" lon="6.59008">
        <ele>1753</ele>
        <time>2016-03-23T00:09:18Z</time>
      </trkpt>
      <trkpt lat="44.33027" lon="6.58999">
        <ele>1749</ele>
        <time>2016-03-23T00:11:18Z</time>
      </trkpt>
      <trkpt lat="44.33054" lon="6.58991">
        <ele>1741</ele>
        <time>2016-03-23T00:13:18Z</time>
      </trkpt>
      <trkpt lat="44.33073" lon="6.58986">
        <ele>1735</ele>
        <time>2016-03-23T00:15:18Z</time>
      </trkpt>
      <trkpt lat="44.33087" lon="6.58978">
        <ele>1731</ele>
        <time>2016-03-23T00:17:18Z</time>
      </trkpt>
      <trkpt lat="44.33108" lon="6.58957">
        <ele>1725</ele>
        <time>2016-03-23T00:19:18Z</time>
      </trkpt>
      <trkpt lat="44.33111" lon="6.58949">
        <ele>1724</ele>
        <time>2016-03-23T00:21:18Z</time>
      </trkpt>
      <trkpt lat="44.33112" lon="6.58941">
        <ele>1724</ele>
        <time>2016-03-23T00:23:18Z</time>
      </trkpt>
      <trkpt lat="44.33113" lon="6.58932">
        <ele>1724</ele>
        <time>2016-03-23T00:25:18Z</time>
      </trkpt>
      <trkpt lat="44.33113" lon="6.58923">
        <ele>1725</ele>
        <time>2016-03-23T00:27:18Z</time>
      </trkpt>
      <trkpt lat="44.33111" lon="6.58897">
        <ele>1723</ele>
        <time>2016-03-23T00:29:18Z</time>
      </trkpt>
      <trkpt lat="44.33109" lon="6.58889">
        <ele>1722</ele>
        <time>2016-03-23T00:31:18Z</time>
      </trkpt>
      <trkpt lat="44.33107" lon="6.58882">
        <ele>1722</ele>
        <time>2016-03-23T00:33:18Z</time>
      </trkpt>
      <trkpt lat="44.33105" lon="6.58877">
        <ele>1722</ele>
        <time>2016-03-23T00:35:18Z</time>
      </trkpt>
      <trkpt lat="44.33099" lon="6.58867">
        <ele>1722</ele>
        <time>2016-03-23T00:37:18Z</time>
      </trkpt>
      <trkpt lat="44.33097" lon="6.58865">
        <ele>1723</ele>
        <time>2016-03-23T00:39:18Z</time>
      </trkpt>
      <trkpt lat="44.33078" lon="6.58844">
        <ele>1727</ele>
        <time>2016-03-23T00:41:18Z</time>
      </trkpt>
      <trkpt lat="44.3307" lon="6.58833">
        <ele>1729</ele>
        <time>2016-03-23T00:43:18Z</time>
      </trkpt>
      <trkpt lat="44.33058" lon="6.58819">
        <ele>1733</ele>
        <time>2016-03-23T00:45:18Z</time>
      </trkpt>
      <trkpt lat="44.33049" lon="6.58808">
        <ele>1736</ele>
        <time>2016-03-23T00:47:18Z</time>
      </trkpt>
      <trkpt lat="44.33035" lon="6.58799">
        <ele>1742</ele>
        <time>2016-03-23T00:49:18Z</time>
      </trkpt>
      <trkpt lat="44.33025" lon="6.58792">
        <ele>1745</ele>
        <time>2016-03-23T00:51:18Z</time>
      </trkpt>
      <trkpt lat="44.33014" lon="6.58782">
        <ele>1749</ele>
        <time>2016-03-23T00:53:18Z</time>
      </trkpt>
      <trkpt lat="44.3301" lon="6.58774">
        <ele>1750</ele>
        <time>2016-03-23T00:55:18Z</time>
      </trkpt>
      <trkpt lat="44.33009" lon="6.58768">
        <ele>1750</ele>
        <time>2016-03-23T00:57:18Z</time>
      </trkpt>
      <trkpt lat="44.33009" lon="6.58763">
        <ele>1750</ele>
        <time>2016-03-23T00:59:18Z</time>
      </trkpt>
      <trkpt lat="44.33011" lon="6.58757">
        <ele>1748</ele>
        <time>2016-03-23T01:01:18Z</time>
      </trkpt>
      <trkpt lat="44.33013" lon="6.58753">
        <ele>1747</ele>
        <time>2016-03-23T01:03:18Z</time>
      </trkpt>
      <trkpt lat="44.33015" lon="6.58751">
        <ele>1746</ele>
        <time>2016-03-23T01:05:18Z</time>
      </trkpt>
      <trkpt lat="44.33057" lon="6.58735">
        <ele>1732</ele>
        <time>2016-03-23T01:07:18Z</time>
      </trkpt>
      <trkpt lat="44.33071" lon="6.58731">
        <ele>1727</ele>
        <time>2016-03-23T01:09:18Z</time>
      </trkpt>
      <trkpt lat="44.33085" lon="6.58725">
        <ele>1722</ele>
        <time>2016-03-23T01:11:18Z</time>
      </trkpt>
      <trkpt lat="44.33113" lon="6.58703">
        <ele>1716</ele>
        <time>2016-03-23T01:13:18Z</time>
      </trkpt>
      <trkpt lat="44.33114" lon="6.58702">
        <ele>1716</ele>
        <time>2016-03-23T01:15:18Z</time>
      </trkpt>
      <trkpt lat="44.33118" lon="6.58696">
        <ele>1716</ele>
        <time>2016-03-23T01:17:18Z</time>
      </trkpt>
      <trkpt lat="44.33122" lon="6.58687">
        <ele>1716</ele>
        <time>2016-03-23T01:19:18Z</time>
      </trkpt>
      <trkpt lat="44.33124" lon="6.58678">
        <ele>1716</ele>
        <time>2016-03-23T01:21:18Z</time>
      </trkpt>
      <trkpt lat="44.33129" lon="6.58652">
        <ele>1719</ele>
        <time>2016-03-23T01:23:18Z</time>
      </trkpt>
      <trkpt lat="44.33132" lon="6.5864">
        <ele>1719</ele>
        <time>2016-03-23T01:25:18Z</time>
      </trkpt>
      <trkpt lat="44.33136" lon="6.58628">
        <ele>1719</ele>
        <time>2016-03-23T01:27:18Z</time>
      </trkpt>
      <trkpt lat="44.3314" lon="6.58619">
        <ele>1719</ele>
        <time>2016-03-23T01:29:18Z</time>
      </trkpt>
      <trkpt lat="44.33144" lon="6.58612">
        <ele>1718</ele>
        <time>2016-03-23T01:31:18Z</time>
      </trkpt>
      <trkpt lat="44.33145" lon="6.5861">
        <ele>1718</ele>
        <time>2016-03-23T01:33:18Z</time>
      </trkpt>
      <trkpt lat="44.33151" lon="6.58602">
        <ele>1717</ele>
        <time>2016-03-23T01:35:18Z</time>
      </trkpt>
      <trkpt lat="44.33157" lon="6.58595">
        <ele>1715</ele>
        <time>2016-03-23T01:37:18Z</time>
      </trkpt>
      <trkpt lat="44.33163" lon="6.58585">
        <ele>1714</ele>
        <time>2016-03-23T01:39:18Z</time>
      </trkpt>
      <trkpt lat="44.33167" lon="6.58579">
        <ele>1713</ele>
        <time>2016-03-23T01:41:18Z</time>
      </trkpt>
      <trkpt lat="44.33172" lon="6.58571">
        <ele>1712</ele>
        <time>2016-03-23T01:43:18Z</time>
      </trkpt>
      <trkpt lat="44.33178" lon="6.58561">
        <ele>1710</ele>
        <time>2016-03-23T01:45:18Z</time>
      </trkpt>
      <trkpt lat="44.33184" lon="6.58547">
        <ele>1709</ele>
        <time>2016-03-23T01:47:18Z</time>
      </trkpt>
      <trkpt lat="44.3319" lon="6.58534">
        <ele>1708</ele>
        <time>2016-03-23T01:49:18Z</time>
      </trkpt>
      <trkpt lat="44.33194" lon="6.5852">
        <ele>1708</ele>
        <time>2016-03-23T01:51:18Z</time>
      </trkpt>
      <trkpt lat="44.33195" lon="6.58514">
        <ele>1709</ele>
        <time>2016-03-23T01:53:18Z</time>
      </trkpt>
      <trkpt lat="44.33195" lon="6.58506">
        <ele>1709</ele>
        <time>2016-03-23T01:55:18Z</time>
      </trkpt>
      <trkpt lat="44.33195" lon="6.585">
        <ele>1710</ele>
        <time>2016-03-23T01:57:18Z</time>
      </trkpt>
      <trkpt lat="44.33194" lon="6.58495">
        <ele>1711</ele>
        <time>2016-03-23T01:59:18Z</time>
      </trkpt>
      <trkpt lat="44.33192" lon="6.5849">
        <ele>1712</ele>
        <time>2016-03-23T02:01:18Z</time>
      </trkpt>
      <trkpt lat="44.3319" lon="6.58485">
        <ele>1713</ele>
        <time>2016-03-23T02:03:18Z</time>
      </trkpt>
      <trkpt lat="44.33186" lon="6.58475">
        <ele>1714</ele>
        <time>2016-03-23T02:05:18Z</time>
      </trkpt>
      <trkpt lat="44.33184" lon="6.58469">
        <ele>1715</ele>
        <time>2016-03-23T02:07:18Z</time>
      </trkpt>
      <trkpt lat="44.33182" lon="6.58463">
        <ele>1716</ele>
        <time>2016-03-23T02:09:18Z</time>
      </trkpt>
      <trkpt lat="44.33181" lon="6.58459">
        <ele>1716</ele>
        <time>2016-03-23T02:11:18Z</time>
      </trkpt>
      <trkpt lat="44.33182" lon="6.58456">
        <ele>1716</ele>
        <time>2016-03-23T02:13:18Z</time>
      </trkpt>
      <trkpt lat="44.33183" lon="6.58451">
        <ele>1717</ele>
        <time>2016-03-23T02:15:18Z</time>
      </trkpt>
      <trkpt lat="44.33186" lon="6.58447">
        <ele>1717</ele>
        <time>2016-03-23T02:17:18Z</time>
      </trkpt>
      <trkpt lat="44.33188" lon="6.58443">
        <ele>1717</ele>
        <time>2016-03-23T02:19:18Z</time>
      </trkpt>
      <trkpt lat="44.33191" lon="6.58438">
        <ele>1717</ele>
        <time>2016-03-23T02:21:18Z</time>
      </trkpt>
      <trkpt lat="44.33195" lon="6.58435">
        <ele>1716</ele>
        <time>2016-03-23T02:23:18Z</time>
      </trkpt>
      <trkpt lat="44.33197" lon="6.58435">
        <ele>1716</ele>
        <time>2016-03-23T02:25:18Z</time>
      </trkpt>
      <trkpt lat="44.332" lon="6.58435">
        <ele>1716</ele>
        <time>2016-03-23T02:27:18Z</time>
      </trkpt>
      <trkpt lat="44.33205" lon="6.58435">
        <ele>1715</ele>
        <time>2016-03-23T02:29:18Z</time>
      </trkpt>
      <trkpt lat="44.33209" lon="6.58438">
        <ele>1714</ele>
        <time>2016-03-23T02:31:18Z</time>
      </trkpt>
      <trkpt lat="44.33216" lon="6.58443">
        <ele>1713</ele>
        <time>2016-03-23T02:33:18Z</time>
      </trkpt>
      <trkpt lat="44.33234" lon="6.58456">
        <ele>1708</ele>
        <time>2016-03-23T02:35:18Z</time>
      </trkpt>
      <trkpt lat="44.33239" lon="6.58463">
        <ele>1705</ele>
        <time>2016-03-23T02:37:18Z</time>
      </trkpt>
      <trkpt lat="44.33245" lon="6.58476">
        <ele>1701</ele>
        <time>2016-03-23T02:39:18Z</time>
      </trkpt>
      <trkpt lat="44.33251" lon="6.5849">
        <ele>1697</ele>
        <time>2016-03-23T02:41:18Z</time>
      </trkpt>
      <trkpt lat="44.33256" lon="6.58498">
        <ele>1695</ele>
        <time>2016-03-23T02:43:18Z</time>
      </trkpt>
      <trkpt lat="44.33263" lon="6.58505">
        <ele>1693</ele>
        <time>2016-03-23T02:45:18Z</time>
      </trkpt>
      <trkpt lat="44.33274" lon="6.5851">
        <ele>1692</ele>
        <time>2016-03-23T02:47:18Z</time>
      </trkpt>
      <trkpt lat="44.33281" lon="6.58511">
        <ele>1692</ele>
        <time>2016-03-23T02:49:18Z</time>
      </trkpt>
      <trkpt lat="44.33289" lon="6.58511">
        <ele>1691</ele>
        <time>2016-03-23T02:51:18Z</time>
      </trkpt>
      <trkpt lat="44.33347" lon="6.585">
        <ele>1691</ele>
        <time>2016-03-23T02:53:18Z</time>
      </trkpt>
      <trkpt lat="44.33357" lon="6.58497">
        <ele>1689</ele>
        <time>2016-03-23T02:55:18Z</time>
      </trkpt>
      <trkpt lat="44.33362" lon="6.58493">
        <ele>1689</ele>
        <time>2016-03-23T02:57:18Z</time>
      </trkpt>
      <trkpt lat="44.33366" lon="6.5849">
        <ele>1689</ele>
        <time>2016-03-23T02:59:18Z</time>
      </trkpt>
      <trkpt lat="44.33401" lon="6.58461">
        <ele>1689</ele>
        <time>2016-03-23T03:01:18Z</time>
      </trkpt>
      <trkpt lat="44.33407" lon="6.58457">
        <ele>1688</ele>
        <time>2016-03-23T03:03:18Z</time>
      </trkpt>
      <trkpt lat="44.33419" lon="6.5845">
        <ele>1688</ele>
        <time>2016-03-23T03:05:18Z</time>
      </trkpt>
      <trkpt lat="44.33425" lon="6.58448">
        <ele>1687</ele>
        <time>2016-03-23T03:07:18Z</time>
      </trkpt>
      <trkpt lat="44.33438" lon="6.58445">
        <ele>1685</ele>
        <time>2016-03-23T03:09:18Z</time>
      </trkpt>
      <trkpt lat="44.33471" lon="6.58444">
        <ele>1679</ele>
        <time>2016-03-23T03:11:18Z</time>
      </trkpt>
      <trkpt lat="44.33476" lon="6.58444">
        <ele>1678</ele>
        <time>2016-03-23T03:13:18Z</time>
      </trkpt>
      <trkpt lat="44.33483" lon="6.58441">
        <ele>1677</ele>
        <time>2016-03-23T03:15:18Z</time>
      </trkpt>
      <trkpt lat="44.33491" lon="6.58435">
        <ele>1677</ele>
        <time>2016-03-23T03:17:18Z</time>
      </trkpt>
      <trkpt lat="44.33497" lon="6.58428">
        <ele>1678</ele>
        <time>2016-03-23T03:19:18Z</time>
      </trkpt>
      <trkpt lat="44.335" lon="6.58423">
        <ele>1679</ele>
        <time>2016-03-23T03:21:18Z</time>
      </trkpt>
      <trkpt lat="44.33508" lon="6.58407">
        <ele>1682</ele>
        <time>2016-03-23T03:23:18Z</time>
      </trkpt>
      <trkpt lat="44.33526" lon="6.58372">
        <ele>1686</ele>
        <time>2016-03-23T03:25:18Z</time>
      </trkpt>
      <trkpt lat="44.3353" lon="6.58363">
        <ele>1687</ele>
        <time>2016-03-23T03:27:18Z</time>
      </trkpt>
      <trkpt lat="44.33546" lon="6.58336">
        <ele>1689</ele>
        <time>2016-03-23T03:29:18Z</time>
      </trkpt>
      <trkpt lat="44.33552" lon="6.58325">
        <ele>1690</ele>
        <time>2016-03-23T03:31:18Z</time>
      </trkpt>
      <trkpt lat="44.33555" lon="6.58322">
        <ele>1690</ele>
        <time>2016-03-23T03:33:18Z</time>
      </trkpt>
      <trkpt lat="44.33561" lon="6.58317">
        <ele>1690</ele>
        <time>2016-03-23T03:35:18Z</time>
      </trkpt>
      <trkpt lat="44.33567" lon="6.58313">
        <ele>1689</ele>
        <time>2016-03-23T03:37:18Z</time>
      </trkpt>
      <trkpt lat="44.33571" lon="6.58312">
        <ele>1688</ele>
        <time>2016-03-23T03:39:18Z</time>
      </trkpt>
      <trkpt lat="44.33582" lon="6.58311">
        <ele>1686</ele>
        <time>2016-03-23T03:41:18Z</time>
      </trkpt>
      <trkpt lat="44.33601" lon="6.58305">
        <ele>1690</ele>
        <time>2016-03-23T03:43:18Z</time>
      </trkpt>
      <trkpt lat="44.33607" lon="6.58303">
        <ele>1692</ele>
        <time>2016-03-23T03:45:18Z</time>
      </trkpt>
      <trkpt lat="44.33613" lon="6.58298">
        <ele>1694</ele>
        <time>2016-03-23T03:47:18Z</time>
      </trkpt>
      <trkpt lat="44.33617" lon="6.58293">
        <ele>1695</ele>
        <time>2016-03-23T03:49:18Z</time>
      </trkpt>
      <trkpt lat="44.33624" lon="6.58287">
        <ele>1697</ele>
        <time>2016-03-23T03:51:18Z</time>
      </trkpt>
      <trkpt lat="44.33629" lon="6.58284">
        <ele>1699</ele>
        <time>2016-03-23T03:53:18Z</time>
      </trkpt>
      <trkpt lat="44.33635" lon="6.58285">
        <ele>1699</ele>
        <time>2016-03-23T03:55:18Z</time>
      </trkpt>
      <trkpt lat="44.3364" lon="6.58289">
        <ele>1699</ele>
        <time>2016-03-23T03:57:18Z</time>
      </trkpt>
      <trkpt lat="44.33645" lon="6.58295">
        <ele>1699</ele>
        <time>2016-03-23T03:59:18Z</time>
      </trkpt>
      <trkpt lat="44.33646" lon="6.58306">
        <ele>1698</ele>
        <time>2016-03-23T04:01:18Z</time>
      </trkpt>
      <trkpt lat="44.33647" lon="6.58317">
        <ele>1696</ele>
        <time>2016-03-23T04:03:18Z</time>
      </trkpt>
      <trkpt lat="44.33645" lon="6.58339">
        <ele>1694</ele>
        <time>2016-03-23T04:05:18Z</time>
      </trkpt>
      <trkpt lat="44.33644" lon="6.58343">
        <ele>1694</ele>
        <time>2016-03-23T04:07:18Z</time>
      </trkpt>
      <trkpt lat="44.33642" lon="6.58348">
        <ele>1694</ele>
        <time>2016-03-23T04:09:18Z</time>
      </trkpt>
      <trkpt lat="44.33641" lon="6.5835">
        <ele>1694</ele>
        <time>2016-03-23T04:11:18Z</time>
      </trkpt>
      <trkpt lat="44.33639" lon="6.58353">
        <ele>1693</ele>
        <time>2016-03-23T04:13:18Z</time>
      </trkpt>
      <trkpt lat="44.33625" lon="6.5837">
        <ele>1689</ele>
        <time>2016-03-23T04:15:18Z</time>
      </trkpt>
      <trkpt lat="44.33622" lon="6.58378">
        <ele>1687</ele>
        <time>2016-03-23T04:17:18Z</time>
      </trkpt>
      <trkpt lat="44.33621" lon="6.58379">
        <ele>1687</ele>
        <time>2016-03-23T04:19:18Z</time>
      </trkpt>
      <trkpt lat="44.3362" lon="6.58387">
        <ele>1686</ele>
        <time>2016-03-23T04:21:18Z</time>
      </trkpt>
      <trkpt lat="44.3361" lon="6.58463">
        <ele>1677</ele>
        <time>2016-03-23T04:23:18Z</time>
      </trkpt>
      <trkpt lat="44.3361" lon="6.58474">
        <ele>1677</ele>
        <time>2016-03-23T04:25:18Z</time>
      </trkpt>
      <trkpt lat="44.33613" lon="6.58495">
        <ele>1678</ele>
        <time>2016-03-23T04:27:18Z</time>
      </trkpt>
      <trkpt lat="44.33613" lon="6.58501">
        <ele>1678</ele>
        <time>2016-03-23T04:29:18Z</time>
      </trkpt>
      <trkpt lat="44.33613" lon="6.58504">
        <ele>1678</ele>
        <time>2016-03-23T04:31:18Z</time>
      </trkpt>
      <trkpt lat="44.33581" lon="6.58569">
        <ele>1662</ele>
        <time>2016-03-23T04:33:18Z</time>
      </trkpt>
      <trkpt lat="44.33552" lon="6.58638">
        <ele>1663</ele>
        <time>2016-03-23T04:35:18Z</time>
      </trkpt>
      <trkpt lat="44.33537" lon="6.58676">
        <ele>1660</ele>
        <time>2016-03-23T04:37:18Z</time>
      </trkpt>
      <trkpt lat="44.33529" lon="6.58692">
        <ele>1659</ele>
        <time>2016-03-23T04:39:18Z</time>
      </trkpt>
      <trkpt lat="44.33519" lon="6.58706">
        <ele>1656</ele>
        <time>2016-03-23T04:41:18Z</time>
      </trkpt>
      <trkpt lat="44.33513" lon="6.58716">
        <ele>1654</ele>
        <time>2016-03-23T04:43:18Z</time>
      </trkpt>
      <trkpt lat="44.33509" lon="6.58723">
        <ele>1653</ele>
        <time>2016-03-23T04:45:18Z</time>
      </trkpt>
      <trkpt lat="44.33505" lon="6.58733">
        <ele>1653</ele>
        <time>2016-03-23T04:47:18Z</time>
      </trkpt>
      <trkpt lat="44.33495" lon="6.5879">
        <ele>1655</ele>
        <time>2016-03-23T04:49:18Z</time>
      </trkpt>
      <trkpt lat="44.33493" lon="6.58801">
        <ele>1655</ele>
        <time>2016-03-23T04:51:18Z</time>
      </trkpt>
      <trkpt lat="44.33487" lon="6.58834">
        <ele>1654</ele>
        <time>2016-03-23T04:53:18Z</time>
      </trkpt>
      <trkpt lat="44.33481" lon="6.58911">
        <ele>1653</ele>
        <time>2016-03-23T04:55:18Z</time>
      </trkpt>
      <trkpt lat="44.33481" lon="6.58928">
        <ele>1652</ele>
        <time>2016-03-23T04:57:18Z</time>
      </trkpt>
      <trkpt lat="44.3348" lon="6.58945">
        <ele>1649</ele>
        <time>2016-03-23T04:59:18Z</time>
      </trkpt>
      <trkpt lat="44.33482" lon="6.58961">
        <ele>1649</ele>
        <time>2016-03-23T05:01:18Z</time>
      </trkpt>
      <trkpt lat="44.33489" lon="6.59008">
        <ele>1647</ele>
        <time>2016-03-23T05:03:18Z</time>
      </trkpt>
      <trkpt lat="44.33493" lon="6.59024">
        <ele>1645</ele>
        <time>2016-03-23T05:05:18Z</time>
      </trkpt>
      <trkpt lat="44.33499" lon="6.59038">
        <ele>1644</ele>
        <time>2016-03-23T05:07:18Z</time>
      </trkpt>
      <trkpt lat="44.33508" lon="6.59057">
        <ele>1644</ele>
        <time>2016-03-23T05:09:18Z</time>
      </trkpt>
      <trkpt lat="44.33512" lon="6.59066">
        <ele>1643</ele>
        <time>2016-03-23T05:11:18Z</time>
      </trkpt>
      <trkpt lat="44.3352" lon="6.59086">
        <ele>1641</ele>
        <time>2016-03-23T05:13:18Z</time>
      </trkpt>
      <trkpt lat="44.33523" lon="6.59096">
        <ele>1639</ele>
        <time>2016-03-23T05:15:18Z</time>
      </trkpt>
      <trkpt lat="44.33526" lon="6.59101">
        <ele>1638</ele>
        <time>2016-03-23T05:17:18Z</time>
      </trkpt>
      <trkpt lat="44.33529" lon="6.59106">
        <ele>1638</ele>
        <time>2016-03-23T05:19:18Z</time>
      </trkpt>
      <trkpt lat="44.33533" lon="6.5911">
        <ele>1639</ele>
        <time>2016-03-23T05:21:18Z</time>
      </trkpt>
      <trkpt lat="44.33536" lon="6.59112">
        <ele>1639</ele>
        <time>2016-03-23T05:23:18Z</time>
      </trkpt>
      <trkpt lat="44.33544" lon="6.59115">
        <ele>1642</ele>
        <time>2016-03-23T05:25:18Z</time>
      </trkpt>
      <trkpt lat="44.33559" lon="6.59116">
        <ele>1649</ele>
        <time>2016-03-23T05:27:18Z</time>
      </trkpt>
      <trkpt lat="44.33566" lon="6.59117">
        <ele>1652</ele>
        <time>2016-03-23T05:29:18Z</time>
      </trkpt>
      <trkpt lat="44.33571" lon="6.59119">
        <ele>1654</ele>
        <time>2016-03-23T05:31:18Z</time>
      </trkpt>
      <trkpt lat="44.33592" lon="6.59137">
        <ele>1658</ele>
        <time>2016-03-23T05:33:18Z</time>
      </trkpt>
      <trkpt lat="44.33594" lon="6.5914">
        <ele>1658</ele>
        <time>2016-03-23T05:35:18Z</time>
      </trkpt>
      <trkpt lat="44.33596" lon="6.59143">
        <ele>1658</ele>
        <time>2016-03-23T05:37:18Z</time>
      </trkpt>
      <trkpt lat="44.33597" lon="6.59147">
        <ele>1657</ele>
        <time>2016-03-23T05:39:18Z</time>
      </trkpt>
      <trkpt lat="44.33597" lon="6.59151">
        <ele>1656</ele>
        <time>2016-03-23T05:41:18Z</time>
      </trkpt>
      <trkpt lat="44.33597" lon="6.59156">
        <ele>1654</ele>
        <time>2016-03-23T05:43:18Z</time>
      </trkpt>
      <trkpt lat="44.33596" lon="6.5916">
        <ele>1653</ele>
        <time>2016-03-23T05:45:18Z</time>
      </trkpt>
      <trkpt lat="44.33586" lon="6.59191">
        <ele>1651</ele>
        <time>2016-03-23T05:47:18Z</time>
      </trkpt>
      <trkpt lat="44.33584" lon="6.59194">
        <ele>1650</ele>
        <time>2016-03-23T05:49:18Z</time>
      </trkpt>
      <trkpt lat="44.33582" lon="6.59196">
        <ele>1649</ele>
        <time>2016-03-23T05:51:18Z</time>
      </trkpt>
      <trkpt lat="44.33579" lon="6.59198">
        <ele>1648</ele>
        <time>2016-03-23T05:53:18Z</time>
      </trkpt>
      <trkpt lat="44.33563" lon="6.59207">
        <ele>1640</ele>
        <time>2016-03-23T05:55:18Z</time>
      </trkpt>
      <trkpt lat="44.33555" lon="6.59213">
        <ele>1637</ele>
        <time>2016-03-23T05:57:18Z</time>
      </trkpt>
      <trkpt lat="44.33542" lon="6.59226">
        <ele>1630</ele>
        <time>2016-03-23T05:59:18Z</time>
      </trkpt>
      <trkpt lat="44.33526" lon="6.59241">
        <ele>1622</ele>
        <time>2016-03-23T06:01:18Z</time>
      </trkpt>
      <trkpt lat="44.33521" lon="6.59245">
        <ele>1619</ele>
        <time>2016-03-23T06:03:18Z</time>
      </trkpt>
      <trkpt lat="44.33517" lon="6.59252">
        <ele>1617</ele>
        <time>2016-03-23T06:05:18Z</time>
      </trkpt>
      <trkpt lat="44.33516" lon="6.59261">
        <ele>1617</ele>
        <time>2016-03-23T06:07:18Z</time>
      </trkpt>
      <trkpt lat="44.33512" lon="6.59294">
        <ele>1619</ele>
        <time>2016-03-23T06:09:18Z</time>
      </trkpt>
      <trkpt lat="44.33511" lon="6.59324">
        <ele>1622</ele>
        <time>2016-03-23T06:11:18Z</time>
      </trkpt>
      <trkpt lat="44.33504" lon="6.5936">
        <ele>1619</ele>
        <time>2016-03-23T06:13:18Z</time>
      </trkpt>
      <trkpt lat="44.33501" lon="6.59383">
        <ele>1618</ele>
        <time>2016-03-23T06:15:18Z</time>
      </trkpt>
      <trkpt lat="44.33499" lon="6.59394">
        <ele>1617</ele>
        <time>2016-03-23T06:17:18Z</time>
      </trkpt>
      <trkpt lat="44.33499" lon="6.59403">
        <ele>1618</ele>
        <time>2016-03-23T06:19:18Z</time>
      </trkpt>
      <trkpt lat="44.33501" lon="6.59413">
        <ele>1621</ele>
        <time>2016-03-23T06:21:18Z</time>
      </trkpt>
      <trkpt lat="44.33504" lon="6.59425">
        <ele>1623</ele>
        <time>2016-03-23T06:23:18Z</time>
      </trkpt>
      <trkpt lat="44.33511" lon="6.59454">
        <ele>1625</ele>
        <time>2016-03-23T06:25:18Z</time>
      </trkpt>
      <trkpt lat="44.33516" lon="6.5948">
        <ele>1626</ele>
        <time>2016-03-23T06:27:18Z</time>
      </trkpt>
      <trkpt lat="44.33516" lon="6.59484">
        <ele>1626</ele>
        <time>2016-03-23T06:29:18Z</time>
      </trkpt>
      <trkpt lat="44.33518" lon="6.59491">
        <ele>1626</ele>
        <time>2016-03-23T06:31:18Z</time>
      </trkpt>
      <trkpt lat="44.33521" lon="6.59498">
        <ele>1628</ele>
        <time>2016-03-23T06:33:18Z</time>
      </trkpt>
      <trkpt lat="44.33525" lon="6.59503">
        <ele>1631</ele>
        <time>2016-03-23T06:35:18Z</time>
      </trkpt>
      <trkpt lat="44.33529" lon="6.59507">
        <ele>1634</ele>
        <time>2016-03-23T06:37:18Z</time>
      </trkpt>
      <trkpt lat="44.3353" lon="6.59515">
        <ele>1636</ele>
        <time>2016-03-23T06:39:18Z</time>
      </trkpt>
      <trkpt lat="44.33531" lon="6.59521">
        <ele>1637</ele>
        <time>2016-03-23T06:41:18Z</time>
      </trkpt>
      <trkpt lat="44.33531" lon="6.59532">
        <ele>1638</ele>
        <time>2016-03-23T06:43:18Z</time>
      </trkpt>
      <trkpt lat="44.33529" lon="6.59541">
        <ele>1637</ele>
        <time>2016-03-23T06:45:18Z</time>
      </trkpt>
      <trkpt lat="44.33527" lon="6.59546">
        <ele>1636</ele>
        <time>2016-03-23T06:47:18Z</time>
      </trkpt>
      <trkpt lat="44.33512" lon="6.59583">
        <ele>1625</ele>
        <time>2016-03-23T06:49:18Z</time>
      </trkpt>
      <trkpt lat="44.33508" lon="6.59601">
        <ele>1622</ele>
        <time>2016-03-23T06:51:18Z</time>
      </trkpt>
      <trkpt lat="44.33502" lon="6.59662">
        <ele>1618</ele>
        <time>2016-03-23T06:53:18Z</time>
      </trkpt>
      <trkpt lat="44.33503" lon="6.59667">
        <ele>1619</ele>
        <time>2016-03-23T06:55:18Z</time>
      </trkpt>
      <trkpt lat="44.33504" lon="6.59672">
        <ele>1620</ele>
        <time>2016-03-23T06:57:18Z</time>
      </trkpt>
      <trkpt lat="44.33509" lon="6.59681">
        <ele>1624</ele>
        <time>2016-03-23T06:59:18Z</time>
      </trkpt>
      <trkpt lat="44.33511" lon="6.59687">
        <ele>1626</ele>
        <time>2016-03-23T07:01:18Z</time>
      </trkpt>
      <trkpt lat="44.33512" lon="6.59694">
        <ele>1627</ele>
        <time>2016-03-23T07:03:18Z</time>
      </trkpt>
      <trkpt lat="44.33512" lon="6.59702">
        <ele>1627</ele>
        <time>2016-03-23T07:05:18Z</time>
      </trkpt>
      <trkpt lat="44.33511" lon="6.59707">
        <ele>1625</ele>
        <time>2016-03-23T07:07:18Z</time>
      </trkpt>
      <trkpt lat="44.3351" lon="6.59712">
        <ele>1624</ele>
        <time>2016-03-23T07:09:18Z</time>
      </trkpt>
      <trkpt lat="44.33483" lon="6.59761">
        <ele>1605</ele>
        <time>2016-03-23T07:11:18Z</time>
      </trkpt>
      <trkpt lat="44.33478" lon="6.59775">
        <ele>1605</ele>
        <time>2016-03-23T07:13:18Z</time>
      </trkpt>
      <trkpt lat="44.33476" lon="6.5979">
        <ele>1607</ele>
        <time>2016-03-23T07:15:18Z</time>
      </trkpt>
      <trkpt lat="44.33476" lon="6.598">
        <ele>1609</ele>
        <time>2016-03-23T07:17:18Z</time>
      </trkpt>
      <trkpt lat="44.33476" lon="6.59808">
        <ele>1611</ele>
        <time>2016-03-23T07:19:18Z</time>
      </trkpt>
      <trkpt lat="44.33473" lon="6.59815">
        <ele>1611</ele>
        <time>2016-03-23T07:21:18Z</time>
      </trkpt>
      <trkpt lat="44.33469" lon="6.59823">
        <ele>1611</ele>
        <time>2016-03-23T07:23:18Z</time>
      </trkpt>
      <trkpt lat="44.33461" lon="6.59832">
        <ele>1609</ele>
        <time>2016-03-23T07:25:18Z</time>
      </trkpt>
      <trkpt lat="44.33444" lon="6.59847">
        <ele>1603</ele>
        <time>2016-03-23T07:27:18Z</time>
      </trkpt>
      <trkpt lat="44.33417" lon="6.59874">
        <ele>1593</ele>
        <time>2016-03-23T07:29:18Z</time>
      </trkpt>
      <trkpt lat="44.33413" lon="6.59881">
        <ele>1592</ele>
        <time>2016-03-23T07:31:18Z</time>
      </trkpt>
      <trkpt lat="44.33411" lon="6.59887">
        <ele>1592</ele>
        <time>2016-03-23T07:33:18Z</time>
      </trkpt>
      <trkpt lat="44.33409" lon="6.59895">
        <ele>1592</ele>
        <time>2016-03-23T07:35:18Z</time>
      </trkpt>
      <trkpt lat="44.33409" lon="6.59899">
        <ele>1593</ele>
        <time>2016-03-23T07:37:18Z</time>
      </trkpt>
      <trkpt lat="44.33409" lon="6.59905">
        <ele>1594</ele>
        <time>2016-03-23T07:39:18Z</time>
      </trkpt>
      <trkpt lat="44.3341" lon="6.59912">
        <ele>1596</ele>
        <time>2016-03-23T07:41:18Z</time>
      </trkpt>
      <trkpt lat="44.33413" lon="6.5992">
        <ele>1598</ele>
        <time>2016-03-23T07:43:18Z</time>
      </trkpt>
      <trkpt lat="44.33414" lon="6.59925">
        <ele>1598</ele>
        <time>2016-03-23T07:45:18Z</time>
      </trkpt>
      <trkpt lat="44.33415" lon="6.59936">
        <ele>1598</ele>
        <time>2016-03-23T07:47:18Z</time>
      </trkpt>
      <trkpt lat="44.33414" lon="6.59946">
        <ele>1596</ele>
        <time>2016-03-23T07:49:18Z</time>
      </trkpt>
      <trkpt lat="44.33413" lon="6.59951">
        <ele>1595</ele>
        <time>2016-03-23T07:51:18Z</time>
      </trkpt>
      <trkpt lat="44.33411" lon="6.59957">
        <ele>1593</ele>
        <time>2016-03-23T07:53:18Z</time>
      </trkpt>
      <trkpt lat="44.33409" lon="6.59966">
        <ele>1590</ele>
        <time>2016-03-23T07:55:18Z</time>
      </trkpt>
      <trkpt lat="44.33409" lon="6.59971">
        <ele>1590</ele>
        <time>2016-03-23T07:57:18Z</time>
      </trkpt>
      <trkpt lat="44.33409" lon="6.59978">
        <ele>1589</ele>
        <time>2016-03-23T07:59:18Z</time>
      </trkpt>
      <trkpt lat="44.33411" lon="6.59988">
        <ele>1589</ele>
        <time>2016-03-23T08:01:18Z</time>
      </trkpt>
      <trkpt lat="44.33412" lon="6.59992">
        <ele>1589</ele>
        <time>2016-03-23T08:03:18Z</time>
      </trkpt>
      <trkpt lat="44.33415" lon="6.59998">
        <ele>1590</ele>
        <time>2016-03-23T08:05:18Z</time>
      </trkpt>
      <trkpt lat="44.33418" lon="6.60004">
        <ele>1591</ele>
        <time>2016-03-23T08:07:18Z</time>
      </trkpt>
      <trkpt lat="44.33422" lon="6.60008">
        <ele>1592</ele>
        <time>2016-03-23T08:09:18Z</time>
      </trkpt>
      <trkpt lat="44.33439" lon="6.60018">
        <ele>1597</ele>
        <time>2016-03-23T08:11:18Z</time>
      </trkpt>
      <trkpt lat="44.33458" lon="6.60023">
        <ele>1603</ele>
        <time>2016-03-23T08:13:18Z</time>
      </trkpt>
      <trkpt lat="44.33474" lon="6.60027">
        <ele>1608</ele>
        <time>2016-03-23T08:15:18Z</time>
      </trkpt>
      <trkpt lat="44.3348" lon="6.60027">
        <ele>1610</ele>
        <time>2016-03-23T08:17:18Z</time>
      </trkpt>
      <trkpt lat="44.33486" lon="6.60025">
        <ele>1614</ele>
        <time>2016-03-23T08:19:18Z</time>
      </trkpt>
      <trkpt lat="44.3352" lon="6.60003">
        <ele>1631</ele>
        <time>2016-03-23T08:21:18Z</time>
      </trkpt>
      <trkpt lat="44.33524" lon="6.60001">
        <ele>1632</ele>
        <time>2016-03-23T08:23:18Z</time>
      </trkpt>
      <trkpt lat="44.33528" lon="6.60001">
        <ele>1632</ele>
        <time>2016-03-23T08:25:18Z</time>
      </trkpt>
      <trkpt lat="44.33533" lon="6.60002">
        <ele>1630</ele>
        <time>2016-03-23T08:27:18Z</time>
      </trkpt>
      <trkpt lat="44.33534" lon="6.60002">
        <ele>1630</ele>
        <time>2016-03-23T08:29:18Z</time>
      </trkpt>
      <trkpt lat="44.33538" lon="6.60004">
        <ele>1629</ele>
        <time>2016-03-23T08:31:18Z</time>
      </trkpt>
      <trkpt lat="44.33543" lon="6.60009">
        <ele>1625</ele>
        <time>2016-03-23T08:33:18Z</time>
      </trkpt>
      <trkpt lat="44.33545" lon="6.60012">
        <ele>1623</ele>
        <time>2016-03-23T08:35:18Z</time>
      </trkpt>
      <trkpt lat="44.33547" lon="6.60015">
        <ele>1621</ele>
        <time>2016-03-23T08:37:18Z</time>
      </trkpt>
      <trkpt lat="44.33552" lon="6.60018">
        <ele>1618</ele>
        <time>2016-03-23T08:39:18Z</time>
      </trkpt>
      <trkpt lat="44.33557" lon="6.60018">
        <ele>1618</ele>
        <time>2016-03-23T08:41:18Z</time>
      </trkpt>
      <trkpt lat="44.33576" lon="6.60016">
        <ele>1617</ele>
        <time>2016-03-23T08:43:18Z</time>
      </trkpt>
      <trkpt lat="44.33583" lon="6.60019">
        <ele>1614</ele>
        <time>2016-03-23T08:45:18Z</time>
      </trkpt>
      <trkpt lat="44.33592" lon="6.60024">
        <ele>1615</ele>
        <time>2016-03-23T08:47:18Z</time>
      </trkpt>
      <trkpt lat="44.33596" lon="6.60024">
        <ele>1617</ele>
        <time>2016-03-23T08:49:18Z</time>
      </trkpt>
      <trkpt lat="44.33604" lon="6.60021">
        <ele>1621</ele>
        <time>2016-03-23T08:51:18Z</time>
      </trkpt>
      <trkpt lat="44.3361" lon="6.60017">
        <ele>1626</ele>
        <time>2016-03-23T08:53:18Z</time>
      </trkpt>
      <trkpt lat="44.33623" lon="6.60001">
        <ele>1638</ele>
        <time>2016-03-23T08:55:18Z</time>
      </trkpt>
      <trkpt lat="44.33628" lon="6.59998">
        <ele>1642</ele>
        <time>2016-03-23T08:57:18Z</time>
      </trkpt>
      <trkpt lat="44.33635" lon="6.59996">
        <ele>1645</ele>
        <time>2016-03-23T08:59:18Z</time>
      </trkpt>
      <trkpt lat="44.33639" lon="6.59996">
        <ele>1647</ele>
        <time>2016-03-23T09:01:18Z</time>
      </trkpt>
      <trkpt lat="44.33643" lon="6.59998">
        <ele>1647</ele>
        <time>2016-03-23T09:03:18Z</time>
      </trkpt>
      <trkpt lat="44.33646" lon="6.6">
        <ele>1647</ele>
        <time>2016-03-23T09:05:18Z</time>
      </trkpt>
      <trkpt lat="44.3365" lon="6.60004">
        <ele>1647</ele>
        <time>2016-03-23T09:07:18Z</time>
      </trkpt>
      <trkpt lat="44.33651" lon="6.60005">
        <ele>1647</ele>
        <time>2016-03-23T09:09:18Z</time>
      </trkpt>
      <trkpt lat="44.33653" lon="6.60017">
        <ele>1643</ele>
        <time>2016-03-23T09:11:18Z</time>
      </trkpt>
      <trkpt lat="44.33654" lon="6.60028">
        <ele>1640</ele>
        <time>2016-03-23T09:13:18Z</time>
      </trkpt>
      <trkpt lat="44.33652" lon="6.60043">
        <ele>1633</ele>
        <time>2016-03-23T09:15:18Z</time>
      </trkpt>
      <trkpt lat="44.33643" lon="6.60072">
        <ele>1618</ele>
        <time>2016-03-23T09:17:18Z</time>
      </trkpt>
      <trkpt lat="44.33624" lon="6.60118">
        <ele>1604</ele>
        <time>2016-03-23T09:19:18Z</time>
      </trkpt>
      <trkpt lat="44.3362" lon="6.60129">
        <ele>1601</ele>
        <time>2016-03-23T09:21:18Z</time>
      </trkpt>
      <trkpt lat="44.33617" lon="6.60144">
        <ele>1599</ele>
        <time>2016-03-23T09:23:18Z</time>
      </trkpt>
      <trkpt lat="44.33613" lon="6.60149">
        <ele>1596</ele>
        <time>2016-03-23T09:25:18Z</time>
      </trkpt>
      <trkpt lat="44.33594" lon="6.60164">
        <ele>1580</ele>
        <time>2016-03-23T09:27:18Z</time>
      </trkpt>
      <trkpt lat="44.3359" lon="6.60169">
        <ele>1577</ele>
        <time>2016-03-23T09:29:18Z</time>
      </trkpt>
      <trkpt lat="44.33585" lon="6.60201">
        <ele>1580</ele>
        <time>2016-03-23T09:31:18Z</time>
      </trkpt>
      <trkpt lat="44.33578" lon="6.6024">
        <ele>1584</ele>
        <time>2016-03-23T09:33:18Z</time>
      </trkpt>
      <trkpt lat="44.33568" lon="6.60262">
        <ele>1579</ele>
        <time>2016-03-23T09:35:18Z</time>
      </trkpt>
      <trkpt lat="44.33566" lon="6.60269">
        <ele>1578</ele>
        <time>2016-03-23T09:37:18Z</time>
      </trkpt>
      <trkpt lat="44.33566" lon="6.60275">
        <ele>1578</ele>
        <time>2016-03-23T09:39:18Z</time>
      </trkpt>
      <trkpt lat="44.33567" lon="6.6028">
        <ele>1579</ele>
        <time>2016-03-23T09:41:18Z</time>
      </trkpt>
      <trkpt lat="44.33568" lon="6.60285">
        <ele>1580</ele>
        <time>2016-03-23T09:43:18Z</time>
      </trkpt>
      <trkpt lat="44.33574" lon="6.6032">
        <ele>1588</ele>
        <time>2016-03-23T09:45:18Z</time>
      </trkpt>
      <trkpt lat="44.33574" lon="6.60324">
        <ele>1588</ele>
        <time>2016-03-23T09:47:18Z</time>
      </trkpt>
      <trkpt lat="44.33573" lon="6.60331">
        <ele>1588</ele>
        <time>2016-03-23T09:49:18Z</time>
      </trkpt>
      <trkpt lat="44.33571" lon="6.60338">
        <ele>1587</ele>
        <time>2016-03-23T09:51:18Z</time>
      </trkpt>
      <trkpt lat="44.33567" lon="6.60344">
        <ele>1584</ele>
        <time>2016-03-23T09:53:18Z</time>
      </trkpt>
      <trkpt lat="44.33563" lon="6.60348">
        <ele>1581</ele>
        <time>2016-03-23T09:55:18Z</time>
      </trkpt>
      <trkpt lat="44.33561" lon="6.60352">
        <ele>1580</ele>
        <time>2016-03-23T09:57:18Z</time>
      </trkpt>
      <trkpt lat="44.33559" lon="6.60357">
        <ele>1579</ele>
        <time>2016-03-23T09:59:18Z</time>
      </trkpt>
      <trkpt lat="44.33557" lon="6.60363">
        <ele>1578</ele>
        <time>2016-03-23T10:01:18Z</time>
      </trkpt>
      <trkpt lat="44.33556" lon="6.60371">
        <ele>1578</ele>
        <time>2016-03-23T10:03:18Z</time>
      </trkpt>
      <trkpt lat="44.33558" lon="6.604">
        <ele>1583</ele>
        <time>2016-03-23T10:05:18Z</time>
      </trkpt>
      <trkpt lat="44.33557" lon="6.60412">
        <ele>1583</ele>
        <time>2016-03-23T10:07:18Z</time>
      </trkpt>
      <trkpt lat="44.33554" lon="6.60416">
        <ele>1581</ele>
        <time>2016-03-23T10:09:18Z</time>
      </trkpt>
      <trkpt lat="44.33539" lon="6.60428">
        <ele>1570</ele>
        <time>2016-03-23T10:11:18Z</time>
      </trkpt>
      <trkpt lat="44.33537" lon="6.60431">
        <ele>1569</ele>
        <time>2016-03-23T10:13:18Z</time>
      </trkpt>
      <trkpt lat="44.33536" lon="6.60435">
        <ele>1568</ele>
        <time>2016-03-23T10:15:18Z</time>
      </trkpt>
      <trkpt lat="44.33535" lon="6.60439">
        <ele>1568</ele>
        <time>2016-03-23T10:17:18Z</time>
      </trkpt>
      <trkpt lat="44.33535" lon="6.60444">
        <ele>1569</ele>
        <time>2016-03-23T10:19:18Z</time>
      </trkpt>
      <trkpt lat="44.33531" lon="6.60488">
        <ele>1573</ele>
        <time>2016-03-23T10:21:18Z</time>
      </trkpt>
      <trkpt lat="44.3353" lon="6.60497">
        <ele>1574</ele>
        <time>2016-03-23T10:23:18Z</time>
      </trkpt>
      <trkpt lat="44.3352" lon="6.6051">
        <ele>1567</ele>
        <time>2016-03-23T10:25:18Z</time>
      </trkpt>
      <trkpt lat="44.33516" lon="6.60523">
        <ele>1566</ele>
        <time>2016-03-23T10:27:18Z</time>
      </trkpt>
      <trkpt lat="44.33513" lon="6.60558">
        <ele>1572</ele>
        <time>2016-03-23T10:29:18Z</time>
      </trkpt>
      <trkpt lat="44.33509" lon="6.60564">
        <ele>1570</ele>
        <time>2016-03-23T10:31:18Z</time>
      </trkpt>
      <trkpt lat="44.33482" lon="6.60584">
        <ele>1551</ele>
        <time>2016-03-23T10:33:18Z</time>
      </trkpt>
      <trkpt lat="44.33478" lon="6.6059">
        <ele>1549</ele>
        <time>2016-03-23T10:35:18Z</time>
      </trkpt>
      <trkpt lat="44.33475" lon="6.60597">
        <ele>1548</ele>
        <time>2016-03-23T10:37:18Z</time>
      </trkpt>
      <trkpt lat="44.33474" lon="6.60604">
        <ele>1548</ele>
        <time>2016-03-23T10:39:18Z</time>
      </trkpt>
      <trkpt lat="44.33474" lon="6.60612">
        <ele>1550</ele>
        <time>2016-03-23T10:41:18Z</time>
      </trkpt>
      <trkpt lat="44.33485" lon="6.60674">
        <ele>1570</ele>
        <time>2016-03-23T10:43:18Z</time>
      </trkpt>
      <trkpt lat="44.33484" lon="6.60689">
        <ele>1572</ele>
        <time>2016-03-23T10:45:18Z</time>
      </trkpt>
      <trkpt lat="44.33482" lon="6.60705">
        <ele>1573</ele>
        <time>2016-03-23T10:47:18Z</time>
      </trkpt>
      <trkpt lat="44.33475" lon="6.60723">
        <ele>1571</ele>
        <time>2016-03-23T10:49:18Z</time>
      </trkpt>
      <trkpt lat="44.33465" lon="6.60735">
        <ele>1566</ele>
        <time>2016-03-23T10:51:18Z</time>
      </trkpt>
      <trkpt lat="44.33453" lon="6.60745">
        <ele>1559</ele>
        <time>2016-03-23T10:53:18Z</time>
      </trkpt>
      <trkpt lat="44.33445" lon="6.6075">
        <ele>1554</ele>
        <time>2016-03-23T10:55:18Z</time>
      </trkpt>
      <trkpt lat="44.33436" lon="6.60751">
        <ele>1548</ele>
        <time>2016-03-23T10:57:18Z</time>
      </trkpt>
      <trkpt lat="44.33418" lon="6.60751">
        <ele>1535</ele>
        <time>2016-03-23T10:59:18Z</time>
      </trkpt>
      <trkpt lat="44.33416" lon="6.60752">
        <ele>1534</ele>
        <time>2016-03-23T11:01:18Z</time>
      </trkpt>
      <trkpt lat="44.33413" lon="6.60754">
        <ele>1532</ele>
        <time>2016-03-23T11:03:18Z</time>
      </trkpt>
      <trkpt lat="44.3341" lon="6.60758">
        <ele>1531</ele>
        <time>2016-03-23T11:05:18Z</time>
      </trkpt>
      <trkpt lat="44.33408" lon="6.60761">
        <ele>1530</ele>
        <time>2016-03-23T11:07:18Z</time>
      </trkpt>
      <trkpt lat="44.33407" lon="6.60764">
        <ele>1531</ele>
        <time>2016-03-23T11:09:18Z</time>
      </trkpt>
      <trkpt lat="44.334" lon="6.60804">
        <ele>1539</ele>
        <time>2016-03-23T11:11:18Z</time>
      </trkpt>
      <trkpt lat="44.33393" lon="6.60835">
        <ele>1543</ele>
        <time>2016-03-23T11:13:18Z</time>
      </trkpt>
      <trkpt lat="44.33382" lon="6.60859">
        <ele>1540</ele>
        <time>2016-03-23T11:15:18Z</time>
      </trkpt>
      <trkpt lat="44.33379" lon="6.60862">
        <ele>1538</ele>
        <time>2016-03-23T11:17:18Z</time>
      </trkpt>
      <trkpt lat="44.33376" lon="6.60863">
        <ele>1536</ele>
        <time>2016-03-23T11:19:18Z</time>
      </trkpt>
      <trkpt lat="44.33372" lon="6.60865">
        <ele>1534</ele>
        <time>2016-03-23T11:21:18Z</time>
      </trkpt>
      <trkpt lat="44.33357" lon="6.60868">
        <ele>1524</ele>
        <time>2016-03-23T11:23:18Z</time>
      </trkpt>
      <trkpt lat="44.33351" lon="6.60872">
        <ele>1521</ele>
        <time>2016-03-23T11:25:18Z</time>
      </trkpt>
      <trkpt lat="44.33347" lon="6.60878">
        <ele>1520</ele>
        <time>2016-03-23T11:27:18Z</time>
      </trkpt>
      <trkpt lat="44.33335" lon="6.6091">
        <ele>1524</ele>
        <time>2016-03-23T11:29:18Z</time>
      </trkpt>
      <trkpt lat="44.33318" lon="6.60947">
        <ele>1522</ele>
        <time>2016-03-23T11:31:18Z</time>
      </trkpt>
      <trkpt lat="44.33312" lon="6.60956">
        <ele>1520</ele>
        <time>2016-03-23T11:33:18Z</time>
      </trkpt>
      <trkpt lat="44.333" lon="6.60968">
        <ele>1516</ele>
        <time>2016-03-23T11:35:18Z</time>
      </trkpt>
      <trkpt lat="44.33299" lon="6.6097">
        <ele>1516</ele>
        <time>2016-03-23T11:37:18Z</time>
      </trkpt>
      <trkpt lat="44.33297" lon="6.60973">
        <ele>1515</ele>
        <time>2016-03-23T11:39:18Z</time>
      </trkpt>
      <trkpt lat="44.33296" lon="6.6098">
        <ele>1516</ele>
        <time>2016-03-23T11:41:18Z</time>
      </trkpt>
      <trkpt lat="44.33296" lon="6.60985">
        <ele>1516</ele>
        <time>2016-03-23T11:43:18Z</time>
      </trkpt>
      <trkpt lat="44.33297" lon="6.6099">
        <ele>1518</ele>
        <time>2016-03-23T11:45:18Z</time>
      </trkpt>
      <trkpt lat="44.333" lon="6.60995">
        <ele>1520</ele>
        <time>2016-03-23T11:47:18Z</time>
      </trkpt>
      <trkpt lat="44.33303" lon="6.61">
        <ele>1523</ele>
        <time>2016-03-23T11:49:18Z</time>
      </trkpt>
      <trkpt lat="44.3331" lon="6.61006">
        <ele>1526</ele>
        <time>2016-03-23T11:51:18Z</time>
      </trkpt>
      <trkpt lat="44.33322" lon="6.61015">
        <ele>1532</ele>
        <time>2016-03-23T11:53:18Z</time>
      </trkpt>
      <trkpt lat="44.3334" lon="6.61025">
        <ele>1537</ele>
        <time>2016-03-23T11:55:18Z</time>
      </trkpt>
      <trkpt lat="44.33354" lon="6.61032">
        <ele>1539</ele>
        <time>2016-03-23T11:57:18Z</time>
      </trkpt>
      <trkpt lat="44.33367" lon="6.61043">
        <ele>1540</ele>
        <time>2016-03-23T11:59:18Z</time>
      </trkpt>
      <trkpt lat="44.33373" lon="6.61051">
        <ele>1540</ele>
        <time>2016-03-23T12:01:18Z</time>
      </trkpt>
      <trkpt lat="44.33382" lon="6.61066">
        <ele>1539</ele>
        <time>2016-03-23T12:03:18Z</time>
      </trkpt>
      <trkpt lat="44.33409" lon="6.61104">
        <ele>1534</ele>
        <time>2016-03-23T12:05:18Z</time>
      </trkpt>
      <trkpt lat="44.33426" lon="6.61127">
        <ele>1527</ele>
        <time>2016-03-23T12:07:18Z</time>
      </trkpt>
      <trkpt lat="44.33434" lon="6.61133">
        <ele>1525</ele>
        <time>2016-03-23T12:09:18Z</time>
      </trkpt>
      <trkpt lat="44.33442" lon="6.61136">
        <ele>1524</ele>
        <time>2016-03-23T12:11:18Z</time>
      </trkpt>
      <trkpt lat="44.33451" lon="6.61139">
        <ele>1523</ele>
        <time>2016-03-23T12:13:18Z</time>
      </trkpt>
      <trkpt lat="44.3346" lon="6.61139">
        <ele>1524</ele>
        <time>2016-03-23T12:15:18Z</time>
      </trkpt>
      <trkpt lat="44.33512" lon="6.61135">
        <ele>1526</ele>
        <time>2016-03-23T12:17:18Z</time>
      </trkpt>
      <trkpt lat="44.33562" lon="6.6113">
        <ele>1525</ele>
        <time>2016-03-23T12:19:18Z</time>
      </trkpt>
      <trkpt lat="44.33584" lon="6.61134">
        <ele>1522</ele>
        <time>2016-03-23T12:21:18Z</time>
      </trkpt>
      <trkpt lat="44.33626" lon="6.61144">
        <ele>1522</ele>
        <time>2016-03-23T12:23:18Z</time>
      </trkpt>
      <trkpt lat="44.33654" lon="6.61157">
        <ele>1519</ele>
        <time>2016-03-23T12:25:18Z</time>
      </trkpt>
      <trkpt lat="44.33687" lon="6.61178">
        <ele>1514</ele>
        <time>2016-03-23T12:27:18Z</time>
      </trkpt>
      <trkpt lat="44.33709" lon="6.61196">
        <ele>1509</ele>
        <time>2016-03-23T12:29:18Z</time>
      </trkpt>
      <trkpt lat="44.33718" lon="6.61198">
        <ele>1509</ele>
        <time>2016-03-23T12:31:18Z</time>
      </trkpt>
      <trkpt lat="44.33741" lon="6.61199">
        <ele>1513</ele>
        <time>2016-03-23T12:33:18Z</time>
      </trkpt>
      <trkpt lat="44.33764" lon="6.61211">
        <ele>1509</ele>
        <time>2016-03-23T12:35:18Z</time>
      </trkpt>
      <trkpt lat="44.33811" lon="6.61212">
        <ele>1511</ele>
        <time>2016-03-23T12:37:18Z</time>
      </trkpt>
      <trkpt lat="44.33823" lon="6.61217">
        <ele>1508</ele>
        <time>2016-03-23T12:39:18Z</time>
      </trkpt>
      <trkpt lat="44.33844" lon="6.6123">
        <ele>1502</ele>
        <time>2016-03-23T12:41:18Z</time>
      </trkpt>
      <trkpt lat="44.33851" lon="6.61229">
        <ele>1504</ele>
        <time>2016-03-23T12:43:18Z</time>
      </trkpt>
      <trkpt lat="44.33877" lon="6.61216">
        <ele>1517</ele>
        <time>2016-03-23T12:45:18Z</time>
      </trkpt>
      <trkpt lat="44.33881" lon="6.61216">
        <ele>1517</ele>
        <time>2016-03-23T12:47:18Z</time>
      </trkpt>
      <trkpt lat="44.33885" lon="6.61216">
        <ele>1518</ele>
        <time>2016-03-23T12:49:18Z</time>
      </trkpt>
      <trkpt lat="44.33892" lon="6.61219">
        <ele>1518</ele>
        <time>2016-03-23T12:51:18Z</time>
      </trkpt>
      <trkpt lat="44.33897" lon="6.61223">
        <ele>1516</ele>
        <time>2016-03-23T12:53:18Z</time>
      </trkpt>
      <trkpt lat="44.33922" lon="6.61253">
        <ele>1505</ele>
        <time>2016-03-23T12:55:18Z</time>
      </trkpt>
      <trkpt lat="44.33945" lon="6.61283">
        <ele>1503</ele>
        <time>2016-03-23T12:57:18Z</time>
      </trkpt>
      <trkpt lat="44.33952" lon="6.61302">
        <ele>1498</ele>
        <time>2016-03-23T12:59:18Z</time>
      </trkpt>
      <trkpt lat="44.33963" lon="6.61337">
        <ele>1487</ele>
        <time>2016-03-23T13:01:18Z</time>
      </trkpt>
      <trkpt lat="44.3399" lon="6.61383">
        <ele>1474</ele>
        <time>2016-03-23T13:03:18Z</time>
      </trkpt>
      <trkpt lat="44.33995" lon="6.6139">
        <ele>1473</ele>
        <time>2016-03-23T13:05:18Z</time>
      </trkpt>
      <trkpt lat="44.34001" lon="6.61395">
        <ele>1473</ele>
        <time>2016-03-23T13:07:18Z</time>
      </trkpt>
      <trkpt lat="44.34007" lon="6.614">
        <ele>1473</ele>
        <time>2016-03-23T13:09:18Z</time>
      </trkpt>
      <trkpt lat="44.34018" lon="6.61407">
        <ele>1474</ele>
        <time>2016-03-23T13:11:18Z</time>
      </trkpt>
      <trkpt lat="44.34085" lon="6.61429">
        <ele>1496</ele>
        <time>2016-03-23T13:13:18Z</time>
      </trkpt>
      <trkpt lat="44.34091" lon="6.61433">
        <ele>1496</ele>
        <time>2016-03-23T13:15:18Z</time>
      </trkpt>
      <trkpt lat="44.34096" lon="6.61438">
        <ele>1495</ele>
        <time>2016-03-23T13:17:18Z</time>
      </trkpt>
      <trkpt lat="44.34098" lon="6.61443">
        <ele>1492</ele>
        <time>2016-03-23T13:19:18Z</time>
      </trkpt>
      <trkpt lat="44.341" lon="6.61446">
        <ele>1491</ele>
        <time>2016-03-23T13:21:18Z</time>
      </trkpt>
      <trkpt lat="44.34102" lon="6.61456">
        <ele>1484</ele>
        <time>2016-03-23T13:23:18Z</time>
      </trkpt>
      <trkpt lat="44.34102" lon="6.61466">
        <ele>1477</ele>
        <time>2016-03-23T13:25:18Z</time>
      </trkpt>
      <trkpt lat="44.34103" lon="6.61473">
        <ele>1472</ele>
        <time>2016-03-23T13:27:18Z</time>
      </trkpt>
      <trkpt lat="44.34106" lon="6.61481">
        <ele>1468</ele>
        <time>2016-03-23T13:29:18Z</time>
      </trkpt>
      <trkpt lat="44.34109" lon="6.61487">
        <ele>1465</ele>
        <time>2016-03-23T13:31:18Z</time>
      </trkpt>
      <trkpt lat="44.34114" lon="6.61491">
        <ele>1465</ele>
        <time>2016-03-23T13:33:18Z</time>
      </trkpt>
      <trkpt lat="44.34145" lon="6.61516">
        <ele>1465</ele>
        <time>2016-03-23T13:35:18Z</time>
      </trkpt>
      <trkpt lat="44.34163" lon="6.61529">
        <ele>1465</ele>
        <time>2016-03-23T13:37:18Z</time>
      </trkpt>
      <trkpt lat="44.34171" lon="6.61529">
        <ele>1467</ele>
        <time>2016-03-23T13:39:18Z</time>
      </trkpt>
      <trkpt lat="44.34196" lon="6.61521">
        <ele>1478</ele>
        <time>2016-03-23T13:41:18Z</time>
      </trkpt>
      <trkpt lat="44.34204" lon="6.61521">
        <ele>1479</ele>
        <time>2016-03-23T13:43:18Z</time>
      </trkpt>
      <trkpt lat="44.34209" lon="6.61523">
        <ele>1478</ele>
        <time>2016-03-23T13:45:18Z</time>
      </trkpt>
      <trkpt lat="44.34215" lon="6.61526">
        <ele>1477</ele>
        <time>2016-03-23T13:47:18Z</time>
      </trkpt>
      <trkpt lat="44.3422" lon="6.6153">
        <ele>1474</ele>
        <time>2016-03-23T13:49:18Z</time>
      </trkpt>
      <trkpt lat="44.34225" lon="6.61537">
        <ele>1469</ele>
        <time>2016-03-23T13:51:18Z</time>
      </trkpt>
      <trkpt lat="44.3423" lon="6.61541">
        <ele>1466</ele>
        <time>2016-03-23T13:53:18Z</time>
      </trkpt>
      <trkpt lat="44.34236" lon="6.61546">
        <ele>1463</ele>
        <time>2016-03-23T13:55:18Z</time>
      </trkpt>
      <trkpt lat="44.34242" lon="6.61548">
        <ele>1462</ele>
        <time>2016-03-23T13:57:18Z</time>
      </trkpt>
      <trkpt lat="44.34247" lon="6.6155">
        <ele>1460</ele>
        <time>2016-03-23T13:59:18Z</time>
      </trkpt>
      <trkpt lat="44.34252" lon="6.6155">
        <ele>1461</ele>
        <time>2016-03-23T14:01:18Z</time>
      </trkpt>
      <trkpt lat="44.34281" lon="6.61548">
        <ele>1470</ele>
        <time>2016-03-23T14:03:18Z</time>
      </trkpt>
      <trkpt lat="44.34297" lon="6.61556">
        <ele>1467</ele>
        <time>2016-03-23T14:05:18Z</time>
      </trkpt>
      <trkpt lat="44.34327" lon="6.61585">
        <ele>1454</ele>
        <time>2016-03-23T14:07:18Z</time>
      </trkpt>
      <trkpt lat="44.34368" lon="6.61622">
        <ele>1436</ele>
        <time>2016-03-23T14:09:18Z</time>
      </trkpt>
      <trkpt lat="44.34376" lon="6.61628">
        <ele>1433</ele>
        <time>2016-03-23T14:11:18Z</time>
      </trkpt>
      <trkpt lat="44.34381" lon="6.6163">
        <ele>1432</ele>
        <time>2016-03-23T14:13:18Z</time>
      </trkpt>
      <trkpt lat="44.34388" lon="6.61632">
        <ele>1431</ele>
        <time>2016-03-23T14:15:18Z</time>
      </trkpt>
      <trkpt lat="44.34395" lon="6.61633">
        <ele>1432</ele>
        <time>2016-03-23T14:17:18Z</time>
      </trkpt>
      <trkpt lat="44.34402" lon="6.61633">
        <ele>1433</ele>
        <time>2016-03-23T14:19:18Z</time>
      </trkpt>
      <trkpt lat="44.34408" lon="6.61631">
        <ele>1436</ele>
        <time>2016-03-23T14:21:18Z</time>
      </trkpt>
      <trkpt lat="44.34415" lon="6.61629">
        <ele>1438</ele>
        <time>2016-03-23T14:23:18Z</time>
      </trkpt>
      <trkpt lat="44.34421" lon="6.61625">
        <ele>1442</ele>
        <time>2016-03-23T14:25:18Z</time>
      </trkpt>
      <trkpt lat="44.34435" lon="6.61615">
        <ele>1450</ele>
        <time>2016-03-23T14:27:18Z</time>
      </trkpt>
      <trkpt lat="44.34451" lon="6.61595">
        <ele>1465</ele>
        <time>2016-03-23T14:29:18Z</time>
      </trkpt>
      <trkpt lat="44.34455" lon="6.61593">
        <ele>1466</ele>
        <time>2016-03-23T14:31:18Z</time>
      </trkpt>
      <trkpt lat="44.34459" lon="6.61591">
        <ele>1468</ele>
        <time>2016-03-23T14:33:18Z</time>
      </trkpt>
      <trkpt lat="44.34462" lon="6.61591">
        <ele>1467</ele>
        <time>2016-03-23T14:35:18Z</time>
      </trkpt>
      <trkpt lat="44.34473" lon="6.61596">
        <ele>1463</ele>
        <time>2016-03-23T14:37:18Z</time>
      </trkpt>
      <trkpt lat="44.34479" lon="6.616">
        <ele>1460</ele>
        <time>2016-03-23T14:39:18Z</time>
      </trkpt>
      <trkpt lat="44.34483" lon="6.61603">
        <ele>1458</ele>
        <time>2016-03-23T14:41:18Z</time>
      </trkpt>
      <trkpt lat="44.34492" lon="6.61613">
        <ele>1450</ele>
        <time>2016-03-23T14:43:18Z</time>
      </trkpt>
      <trkpt lat="44.34508" lon="6.61616">
        <ele>1449</ele>
        <time>2016-03-23T14:45:18Z</time>
      </trkpt>
      <trkpt lat="44.34511" lon="6.61617">
        <ele>1449</ele>
        <time>2016-03-23T14:47:18Z</time>
      </trkpt>
      <trkpt lat="44.34514" lon="6.6162">
        <ele>1448</ele>
        <time>2016-03-23T14:49:18Z</time>
      </trkpt>
      <trkpt lat="44.34516" lon="6.61622">
        <ele>1447</ele>
        <time>2016-03-23T14:51:18Z</time>
      </trkpt>
      <trkpt lat="44.34518" lon="6.61626">
        <ele>1445</ele>
        <time>2016-03-23T14:53:18Z</time>
      </trkpt>
      <trkpt lat="44.3452" lon="6.61633">
        <ele>1441</ele>
        <time>2016-03-23T14:55:18Z</time>
      </trkpt>
      <trkpt lat="44.34521" lon="6.61637">
        <ele>1438</ele>
        <time>2016-03-23T14:57:18Z</time>
      </trkpt>
      <trkpt lat="44.34529" lon="6.61648">
        <ele>1433</ele>
        <time>2016-03-23T14:59:18Z</time>
      </trkpt>
      <trkpt lat="44.34533" lon="6.61652">
        <ele>1431</ele>
        <time>2016-03-23T15:01:18Z</time>
      </trkpt>
      <trkpt lat="44.34539" lon="6.61654">
        <ele>1431</ele>
        <time>2016-03-23T15:03:18Z</time>
      </trkpt>
      <trkpt lat="44.34558" lon="6.61658">
        <ele>1434</ele>
        <time>2016-03-23T15:05:18Z</time>
      </trkpt>
      <trkpt lat="44.34573" lon="6.61661">
        <ele>1435</ele>
        <time>2016-03-23T15:07:18Z</time>
      </trkpt>
      <trkpt lat="44.34584" lon="6.61665">
        <ele>1436</ele>
        <time>2016-03-23T15:09:18Z</time>
      </trkpt>
      <trkpt lat="44.34594" lon="6.61669">
        <ele>1434</ele>
        <time>2016-03-23T15:11:18Z</time>
      </trkpt>
      <trkpt lat="44.34594" lon="6.6167">
        <ele>1433</ele>
        <time>2016-03-23T15:13:18Z</time>
      </trkpt>
      <trkpt lat="44.34603" lon="6.61673">
        <ele>1431</ele>
        <time>2016-03-23T15:15:18Z</time>
      </trkpt>
      <trkpt lat="44.34612" lon="6.61677">
        <ele>1429</ele>
        <time>2016-03-23T15:17:18Z</time>
      </trkpt>
      <trkpt lat="44.34618" lon="6.61679">
        <ele>1428</ele>
        <time>2016-03-23T15:19:18Z</time>
      </trkpt>
      <trkpt lat="44.34625" lon="6.61681">
        <ele>1426</ele>
        <time>2016-03-23T15:21:18Z</time>
      </trkpt>
      <trkpt lat="44.34636" lon="6.61678">
        <ele>1429</ele>
        <time>2016-03-23T15:23:18Z</time>
      </trkpt>
      <trkpt lat="44.34647" lon="6.61675">
        <ele>1432</ele>
        <time>2016-03-23T15:25:18Z</time>
      </trkpt>
      <trkpt lat="44.34664" lon="6.61668">
        <ele>1438</ele>
        <time>2016-03-23T15:27:18Z</time>
      </trkpt>
      <trkpt lat="44.34728" lon="6.61641">
        <ele>1432</ele>
        <time>2016-03-23T15:29:18Z</time>
      </trkpt>
      <trkpt lat="44.34754" lon="6.61624">
        <ele>1433</ele>
        <time>2016-03-23T15:31:18Z</time>
      </trkpt>
      <trkpt lat="44.34769" lon="6.61613">
        <ele>1435</ele>
        <time>2016-03-23T15:33:18Z</time>
      </trkpt>
      <trkpt lat="44.34781" lon="6.6161">
        <ele>1434</ele>
        <time>2016-03-23T15:35:18Z</time>
      </trkpt>
      <trkpt lat="44.34792" lon="6.61611">
        <ele>1430</ele>
        <time>2016-03-23T15:37:18Z</time>
      </trkpt>
      <trkpt lat="44.34797" lon="6.61612">
        <ele>1429</ele>
        <time>2016-03-23T15:39:18Z</time>
      </trkpt>
      <trkpt lat="44.34804" lon="6.61615">
        <ele>1425</ele>
        <time>2016-03-23T15:41:18Z</time>
      </trkpt>
      <trkpt lat="44.34809" lon="6.61618">
        <ele>1422</ele>
        <time>2016-03-23T15:43:18Z</time>
      </trkpt>
      <trkpt lat="44.34818" lon="6.61624">
        <ele>1417</ele>
        <time>2016-03-23T15:45:18Z</time>
      </trkpt>
      <trkpt lat="44.34825" lon="6.61627">
        <ele>1413</ele>
        <time>2016-03-23T15:47:18Z</time>
      </trkpt>
      <trkpt lat="44.34831" lon="6.61629">
        <ele>1410</ele>
        <time>2016-03-23T15:49:18Z</time>
      </trkpt>
      <trkpt lat="44.34843" lon="6.61628">
        <ele>1409</ele>
        <time>2016-03-23T15:51:18Z</time>
      </trkpt>
      <trkpt lat="44.3485" lon="6.61627">
        <ele>1408</ele>
        <time>2016-03-23T15:53:18Z</time>
      </trkpt>
      <trkpt lat="44.34905" lon="6.61619">
        <ele>1405</ele>
        <time>2016-03-23T15:55:18Z</time>
      </trkpt>
      <trkpt lat="44.34969" lon="6.6161">
        <ele>1395</ele>
        <time>2016-03-23T15:57:18Z</time>
      </trkpt>
      <trkpt lat="44.35045" lon="6.61594">
        <ele>1375</ele>
        <time>2016-03-23T15:59:18Z</time>
      </trkpt>
      <trkpt lat="44.35052" lon="6.61593">
        <ele>1372</ele>
        <time>2016-03-23T16:01:18Z</time>
      </trkpt>
      <trkpt lat="44.35057" lon="6.61588">
        <ele>1372</ele>
        <time>2016-03-23T16:03:18Z</time>
      </trkpt>
      <trkpt lat="44.35062" lon="6.61579">
        <ele>1372</ele>
        <time>2016-03-23T16:05:18Z</time>
      </trkpt>
      <trkpt lat="44.35064" lon="6.61573">
        <ele>1373</ele>
        <time>2016-03-23T16:07:18Z</time>
      </trkpt>
      <trkpt lat="44.35065" lon="6.61567">
        <ele>1374</ele>
        <time>2016-03-23T16:09:18Z</time>
      </trkpt>
      <trkpt lat="44.35064" lon="6.61555">
        <ele>1378</ele>
        <time>2016-03-23T16:11:18Z</time>
      </trkpt>
      <trkpt lat="44.35064" lon="6.6154">
        <ele>1382</ele>
        <time>2016-03-23T16:13:18Z</time>
      </trkpt>
      <trkpt lat="44.35066" lon="6.61527">
        <ele>1385</ele>
        <time>2016-03-23T16:15:18Z</time>
      </trkpt>
      <trkpt lat="44.35073" lon="6.61504">
        <ele>1387</ele>
        <time>2016-03-23T16:17:18Z</time>
      </trkpt>
      <trkpt lat="44.3508" lon="6.61481">
        <ele>1387</ele>
        <time>2016-03-23T16:19:18Z</time>
      </trkpt>
      <trkpt lat="44.35086" lon="6.61462">
        <ele>1387</ele>
        <time>2016-03-23T16:21:18Z</time>
      </trkpt>
      <trkpt lat="44.35092" lon="6.61449">
        <ele>1387</ele>
        <time>2016-03-23T16:23:18Z</time>
      </trkpt>
      <trkpt lat="44.35096" lon="6.61442">
        <ele>1387</ele>
        <time>2016-03-23T16:25:18Z</time>
      </trkpt>
      <trkpt lat="44.351" lon="6.61437">
        <ele>1386</ele>
        <time>2016-03-23T16:27:18Z</time>
      </trkpt>
      <trkpt lat="44.35104" lon="6.61433">
        <ele>1386</ele>
        <time>2016-03-23T16:29:18Z</time>
      </trkpt>
      <trkpt lat="44.35108" lon="6.6143">
        <ele>1385</ele>
        <time>2016-03-23T16:31:18Z</time>
      </trkpt>
      <trkpt lat="44.35112" lon="6.61428">
        <ele>1384</ele>
        <time>2016-03-23T16:33:18Z</time>
      </trkpt>
      <trkpt lat="44.35117" lon="6.61427">
        <ele>1383</ele>
        <time>2016-03-23T16:35:18Z</time>
      </trkpt>
      <trkpt lat="44.35123" lon="6.61426">
        <ele>1381</ele>
        <time>2016-03-23T16:37:18Z</time>
      </trkpt>
      <trkpt lat="44.35152" lon="6.6142">
        <ele>1373</ele>
        <time>2016-03-23T16:39:18Z</time>
      </trkpt>
      <trkpt lat="44.35182" lon="6.61415">
        <ele>1374</ele>
        <time>2016-03-23T16:41:18Z</time>
      </trkpt>
      <trkpt lat="44.35213" lon="6.61409">
        <ele>1384</ele>
        <time>2016-03-23T16:43:18Z</time>
      </trkpt>
      <trkpt lat="44.35214" lon="6.61409">
        <ele>1385</ele>
        <time>2016-03-23T16:45:18Z</time>
      </trkpt>
      <trkpt lat="44.35218" lon="6.61412">
        <ele>1385</ele>
        <time>2016-03-23T16:47:18Z</time>
      </trkpt>
      <trkpt lat="44.35223" lon="6.61417">
        <ele>1384</ele>
        <time>2016-03-23T16:49:18Z</time>
      </trkpt>
      <trkpt lat="44.35227" lon="6.61423">
        <ele>1383</ele>
        <time>2016-03-23T16:51:18Z</time>
      </trkpt>
      <trkpt lat="44.3523" lon="6.61429">
        <ele>1383</ele>
        <time>2016-03-23T16:53:18Z</time>
      </trkpt>
      <trkpt lat="44.35232" lon="6.61435">
        <ele>1382</ele>
        <time>2016-03-23T16:55:18Z</time>
      </trkpt>
      <trkpt lat="44.35237" lon="6.61454">
        <ele>1378</ele>
        <time>2016-03-23T16:57:18Z</time>
      </trkpt>
      <trkpt lat="44.35241" lon="6.61461">
        <ele>1378</ele>
        <time>2016-03-23T16:59:18Z</time>
      </trkpt>
      <trkpt lat="44.35245" lon="6.61468">
        <ele>1377</ele>
        <time>2016-03-23T17:01:18Z</time>
      </trkpt>
      <trkpt lat="44.35255" lon="6.61479">
        <ele>1378</ele>
        <time>2016-03-23T17:03:18Z</time>
      </trkpt>
      <trkpt lat="44.35258" lon="6.61484">
        <ele>1378</ele>
        <time>2016-03-23T17:05:18Z</time>
      </trkpt>
      <trkpt lat="44.3526" lon="6.61492">
        <ele>1377</ele>
        <time>2016-03-23T17:07:18Z</time>
      </trkpt>
      <trkpt lat="44.35261" lon="6.61498">
        <ele>1376</ele>
        <time>2016-03-23T17:09:18Z</time>
      </trkpt>
      <trkpt lat="44.35261" lon="6.61504">
        <ele>1374</ele>
        <time>2016-03-23T17:11:18Z</time>
      </trkpt>
      <trkpt lat="44.3526" lon="6.6151">
        <ele>1371</ele>
        <time>2016-03-23T17:13:18Z</time>
      </trkpt>
      <trkpt lat="44.35259" lon="6.61517">
        <ele>1368</ele>
        <time>2016-03-23T17:15:18Z</time>
      </trkpt>
      <trkpt lat="44.35258" lon="6.61525">
        <ele>1365</ele>
        <time>2016-03-23T17:17:18Z</time>
      </trkpt>
      <trkpt lat="44.35258" lon="6.61532">
        <ele>1362</ele>
        <time>2016-03-23T17:19:18Z</time>
      </trkpt>
      <trkpt lat="44.35259" lon="6.61544">
        <ele>1358</ele>
        <time>2016-03-23T17:21:18Z</time>
      </trkpt>
      <trkpt lat="44.3526" lon="6.61553">
        <ele>1355</ele>
        <time>2016-03-23T17:23:18Z</time>
      </trkpt>
      <trkpt lat="44.35262" lon="6.61561">
        <ele>1352</ele>
        <time>2016-03-23T17:25:18Z</time>
      </trkpt>
      <trkpt lat="44.35271" lon="6.6159">
        <ele>1346</ele>
        <time>2016-03-23T17:27:18Z</time>
      </trkpt>
      <trkpt lat="44.35292" lon="6.61632">
        <ele>1346</ele>
        <time>2016-03-23T17:29:18Z</time>
      </trkpt>
      <trkpt lat="44.35299" lon="6.61643">
        <ele>1346</ele>
        <time>2016-03-23T17:31:18Z</time>
      </trkpt>
      <trkpt lat="44.35311" lon="6.61663">
        <ele>1345</ele>
        <time>2016-03-23T17:33:18Z</time>
      </trkpt>
      <trkpt lat="44.35332" lon="6.61696">
        <ele>1347</ele>
        <time>2016-03-23T17:35:18Z</time>
      </trkpt>
      <trkpt lat="44.35351" lon="6.61719">
        <ele>1347</ele>
        <time>2016-03-23T17:37:18Z</time>
      </trkpt>
      <trkpt lat="44.35373" lon="6.61734">
        <ele>1347</ele>
        <time>2016-03-23T17:39:18Z</time>
      </trkpt>
      <trkpt lat="44.35438" lon="6.61771">
        <ele>1347</ele>
        <time>2016-03-23T17:41:18Z</time>
      </trkpt>
      <trkpt lat="44.35447" lon="6.6178">
        <ele>1346</ele>
        <time>2016-03-23T17:43:18Z</time>
      </trkpt>
      <trkpt lat="44.35463" lon="6.61797">
        <ele>1344</ele>
        <time>2016-03-23T17:45:18Z</time>
      </trkpt>
      <trkpt lat="44.35481" lon="6.61822">
        <ele>1340</ele>
        <time>2016-03-23T17:47:18Z</time>
      </trkpt>
      <trkpt lat="44.35515" lon="6.6187">
        <ele>1331</ele>
        <time>2016-03-23T17:49:18Z</time>
      </trkpt>
      <trkpt lat="44.35529" lon="6.61888">
        <ele>1329</ele>
        <time>2016-03-23T17:51:18Z</time>
      </trkpt>
      <trkpt lat="44.35561" lon="6.61928">
        <ele>1324</ele>
        <time>2016-03-23T17:53:18Z</time>
      </trkpt>
      <trkpt lat="44.35579" lon="6.61953">
        <ele>1321</ele>
        <time>2016-03-23T17:55:18Z</time>
      </trkpt>
      <trkpt lat="44.3559" lon="6.6197">
        <ele>1318</ele>
        <time>2016-03-23T17:57:18Z</time>
      </trkpt>
      <trkpt lat="44.35608" lon="6.62005">
        <ele>1310</ele>
        <time>2016-03-23T17:59:18Z</time>
      </trkpt>
      <trkpt lat="44.35611" lon="6.6201">
        <ele>1309</ele>
        <time>2016-03-23T18:01:18Z</time>
      </trkpt>
      <trkpt lat="44.35615" lon="6.62014">
        <ele>1308</ele>
        <time>2016-03-23T18:03:18Z</time>
      </trkpt>
      <trkpt lat="44.35618" lon="6.62017">
        <ele>1307</ele>
        <time>2016-03-23T18:05:18Z</time>
      </trkpt>
      <trkpt lat="44.35621" lon="6.62018">
        <ele>1307</ele>
        <time>2016-03-23T18:07:18Z</time>
      </trkpt>
      <trkpt lat="44.35627" lon="6.62021">
        <ele>1306</ele>
        <time>2016-03-23T18:09:18Z</time>
      </trkpt>
      <trkpt lat="44.35632" lon="6.62021">
        <ele>1307</ele>
        <time>2016-03-23T18:11:18Z</time>
      </trkpt>
      <trkpt lat="44.35635" lon="6.6202">
        <ele>1307</ele>
        <time>2016-03-23T18:13:18Z</time>
      </trkpt>
      <trkpt lat="44.35639" lon="6.62019">
        <ele>1307</ele>
        <time>2016-03-23T18:15:18Z</time>
      </trkpt>
      <trkpt lat="44.35644" lon="6.62017">
        <ele>1308</ele>
        <time>2016-03-23T18:17:18Z</time>
      </trkpt>
      <trkpt lat="44.35653" lon="6.62009">
        <ele>1310</ele>
        <time>2016-03-23T18:19:18Z</time>
      </trkpt>
      <trkpt lat="44.35663" lon="6.61998">
        <ele>1313</ele>
        <time>2016-03-23T18:21:18Z</time>
      </trkpt>
      <trkpt lat="44.35672" lon="6.61986">
        <ele>1316</ele>
        <time>2016-03-23T18:23:18Z</time>
      </trkpt>
      <trkpt lat="44.35683" lon="6.61972">
        <ele>1320</ele>
        <time>2016-03-23T18:25:18Z</time>
      </trkpt>
      <trkpt lat="44.35689" lon="6.61959">
        <ele>1323</ele>
        <time>2016-03-23T18:27:18Z</time>
      </trkpt>
      <trkpt lat="44.35694" lon="6.61943">
        <ele>1328</ele>
        <time>2016-03-23T18:29:18Z</time>
      </trkpt>
      <trkpt lat="44.35697" lon="6.61939">
        <ele>1329</ele>
        <time>2016-03-23T18:31:18Z</time>
      </trkpt>
      <trkpt lat="44.357" lon="6.61936">
        <ele>1330</ele>
        <time>2016-03-23T18:33:18Z</time>
      </trkpt>
      <trkpt lat="44.35702" lon="6.61934">
        <ele>1331</ele>
        <time>2016-03-23T18:35:18Z</time>
      </trkpt>
      <trkpt lat="44.35704" lon="6.61933">
        <ele>1332</ele>
        <time>2016-03-23T18:37:18Z</time>
      </trkpt>
      <trkpt lat="44.35709" lon="6.61932">
        <ele>1332</ele>
        <time>2016-03-23T18:39:18Z</time>
      </trkpt>
      <trkpt lat="44.35714" lon="6.61934">
        <ele>1332</ele>
        <time>2016-03-23T18:41:18Z</time>
      </trkpt>
      <trkpt lat="44.35717" lon="6.61935">
        <ele>1332</ele>
        <time>2016-03-23T18:43:18Z</time>
      </trkpt>
      <trkpt lat="44.35721" lon="6.61939">
        <ele>1332</ele>
        <time>2016-03-23T18:45:18Z</time>
      </trkpt>
      <trkpt lat="44.35724" lon="6.61944">
        <ele>1330</ele>
        <time>2016-03-23T18:47:18Z</time>
      </trkpt>
      <trkpt lat="44.35739" lon="6.61979">
        <ele>1319</ele>
        <time>2016-03-23T18:49:18Z</time>
      </trkpt>
      <trkpt lat="44.35742" lon="6.61984">
        <ele>1317</ele>
        <time>2016-03-23T18:51:18Z</time>
      </trkpt>
      <trkpt lat="44.35748" lon="6.61991">
        <ele>1314</ele>
        <time>2016-03-23T18:53:18Z</time>
      </trkpt>
      <trkpt lat="44.35758" lon="6.61999">
        <ele>1315</ele>
        <time>2016-03-23T18:55:18Z</time>
      </trkpt>
      <trkpt lat="44.35764" lon="6.62006">
        <ele>1314</ele>
        <time>2016-03-23T18:57:18Z</time>
      </trkpt>
      <trkpt lat="44.35769" lon="6.62015">
        <ele>1313</ele>
        <time>2016-03-23T18:59:18Z</time>
      </trkpt>
      <trkpt lat="44.35773" lon="6.62027">
        <ele>1310</ele>
        <time>2016-03-23T19:01:18Z</time>
      </trkpt>
      <trkpt lat="44.35776" lon="6.62034">
        <ele>1309</ele>
        <time>2016-03-23T19:03:18Z</time>
      </trkpt>
      <trkpt lat="44.3578" lon="6.62039">
        <ele>1308</ele>
        <time>2016-03-23T19:05:18Z</time>
      </trkpt>
      <trkpt lat="44.35788" lon="6.62047">
        <ele>1309</ele>
        <time>2016-03-23T19:07:18Z</time>
      </trkpt>
      <trkpt lat="44.35792" lon="6.62053">
        <ele>1308</ele>
        <time>2016-03-23T19:09:18Z</time>
      </trkpt>
      <trkpt lat="44.35796" lon="6.62064">
        <ele>1306</ele>
        <time>2016-03-23T19:11:18Z</time>
      </trkpt>
      <trkpt lat="44.35802" lon="6.62085">
        <ele>1301</ele>
        <time>2016-03-23T19:13:18Z</time>
      </trkpt>
      <trkpt lat="44.35803" lon="6.6209">
        <ele>1299</ele>
        <time>2016-03-23T19:15:18Z</time>
      </trkpt>
      <trkpt lat="44.35803" lon="6.62093">
        <ele>1298</ele>
        <time>2016-03-23T19:17:18Z</time>
      </trkpt>
      <trkpt lat="44.35807" lon="6.62102">
        <ele>1296</ele>
        <time>2016-03-23T19:19:18Z</time>
      </trkpt>
      <trkpt lat="44.35811" lon="6.62109">
        <ele>1295</ele>
        <time>2016-03-23T19:21:18Z</time>
      </trkpt>
      <trkpt lat="44.35816" lon="6.62116">
        <ele>1294</ele>
        <time>2016-03-23T19:23:18Z</time>
      </trkpt>
      <trkpt lat="44.35828" lon="6.62127">
        <ele>1294</ele>
        <time>2016-03-23T19:25:18Z</time>
      </trkpt>
      <trkpt lat="44.35832" lon="6.62134">
        <ele>1292</ele>
        <time>2016-03-23T19:27:18Z</time>
      </trkpt>
      <trkpt lat="44.35835" lon="6.62139">
        <ele>1291</ele>
        <time>2016-03-23T19:29:18Z</time>
      </trkpt>
      <trkpt lat="44.35838" lon="6.62144">
        <ele>1289</ele>
        <time>2016-03-23T19:31:18Z</time>
      </trkpt>
      <trkpt lat="44.35842" lon="6.62149">
        <ele>1288</ele>
        <time>2016-03-23T19:33:18Z</time>
      </trkpt>
      <trkpt lat="44.35847" lon="6.62153">
        <ele>1287</ele>
        <time>2016-03-23T19:35:18Z</time>
      </trkpt>
      <trkpt lat="44.35856" lon="6.62158">
        <ele>1287</ele>
        <time>2016-03-23T19:37:18Z</time>
      </trkpt>
      <trkpt lat="44.35866" lon="6.62163">
        <ele>1287</ele>
        <time>2016-03-23T19:39:18Z</time>
      </trkpt>
      <trkpt lat="44.35887" lon="6.62171">
        <ele>1288</ele>
        <time>2016-03-23T19:41:18Z</time>
      </trkpt>
      <trkpt lat="44.35898" lon="6.62174">
        <ele>1289</ele>
        <time>2016-03-23T19:43:18Z</time>
      </trkpt>
      <trkpt lat="44.35909" lon="6.62176">
        <ele>1291</ele>
        <time>2016-03-23T19:45:18Z</time>
      </trkpt>
      <trkpt lat="44.35919" lon="6.62178">
        <ele>1292</ele>
        <time>2016-03-23T19:47:18Z</time>
      </trkpt>
      <trkpt lat="44.35929" lon="6.62182">
        <ele>1290</ele>
        <time>2016-03-23T19:49:18Z</time>
      </trkpt>
      <trkpt lat="44.35933" lon="6.62186">
        <ele>1289</ele>
        <time>2016-03-23T19:51:18Z</time>
      </trkpt>
      <trkpt lat="44.3594" lon="6.62195">
        <ele>1286</ele>
        <time>2016-03-23T19:53:18Z</time>
      </trkpt>
      <trkpt lat="44.35947" lon="6.62206">
        <ele>1282</ele>
        <time>2016-03-23T19:55:18Z</time>
      </trkpt>
      <trkpt lat="44.35955" lon="6.6222">
        <ele>1277</ele>
        <time>2016-03-23T19:57:18Z</time>
      </trkpt>
      <trkpt lat="44.35962" lon="6.62228">
        <ele>1274</ele>
        <time>2016-03-23T19:59:18Z</time>
      </trkpt>
      <trkpt lat="44.35965" lon="6.62231">
        <ele>1274</ele>
        <time>2016-03-23T20:01:18Z</time>
      </trkpt>
      <trkpt lat="44.35969" lon="6.62233">
        <ele>1273</ele>
        <time>2016-03-23T20:03:18Z</time>
      </trkpt>
      <trkpt lat="44.35974" lon="6.62234">
        <ele>1273</ele>
        <time>2016-03-23T20:05:18Z</time>
      </trkpt>
      <trkpt lat="44.3598" lon="6.62232">
        <ele>1274</ele>
        <time>2016-03-23T20:07:18Z</time>
      </trkpt>
      <trkpt lat="44.35983" lon="6.6223">
        <ele>1275</ele>
        <time>2016-03-23T20:09:18Z</time>
      </trkpt>
      <trkpt lat="44.35989" lon="6.62223">
        <ele>1277</ele>
        <time>2016-03-23T20:11:18Z</time>
      </trkpt>
      <trkpt lat="44.35996" lon="6.62214">
        <ele>1281</ele>
        <time>2016-03-23T20:13:18Z</time>
      </trkpt>
      <trkpt lat="44.36005" lon="6.62202">
        <ele>1285</ele>
        <time>2016-03-23T20:15:18Z</time>
      </trkpt>
      <trkpt lat="44.36009" lon="6.62198">
        <ele>1286</ele>
        <time>2016-03-23T20:17:18Z</time>
      </trkpt>
      <trkpt lat="44.36013" lon="6.62196">
        <ele>1287</ele>
        <time>2016-03-23T20:19:18Z</time>
      </trkpt>
      <trkpt lat="44.36017" lon="6.62194">
        <ele>1288</ele>
        <time>2016-03-23T20:21:18Z</time>
      </trkpt>
      <trkpt lat="44.36021" lon="6.62194">
        <ele>1288</ele>
        <time>2016-03-23T20:23:18Z</time>
      </trkpt>
      <trkpt lat="44.36025" lon="6.62196">
        <ele>1288</ele>
        <time>2016-03-23T20:25:18Z</time>
      </trkpt>
      <trkpt lat="44.36029" lon="6.62198">
        <ele>1287</ele>
        <time>2016-03-23T20:27:18Z</time>
      </trkpt>
      <trkpt lat="44.36032" lon="6.62201">
        <ele>1286</ele>
        <time>2016-03-23T20:29:18Z</time>
      </trkpt>
      <trkpt lat="44.36035" lon="6.62206">
        <ele>1285</ele>
        <time>2016-03-23T20:31:18Z</time>
      </trkpt>
      <trkpt lat="44.36037" lon="6.6221">
        <ele>1284</ele>
        <time>2016-03-23T20:33:18Z</time>
      </trkpt>
      <trkpt lat="44.36038" lon="6.62215">
        <ele>1282</ele>
        <time>2016-03-23T20:35:18Z</time>
      </trkpt>
      <trkpt lat="44.36039" lon="6.62221">
        <ele>1280</ele>
        <time>2016-03-23T20:37:18Z</time>
      </trkpt>
      <trkpt lat="44.3604" lon="6.62226">
        <ele>1279</ele>
        <time>2016-03-23T20:39:18Z</time>
      </trkpt>
      <trkpt lat="44.36042" lon="6.62236">
        <ele>1276</ele>
        <time>2016-03-23T20:41:18Z</time>
      </trkpt>
      <trkpt lat="44.36043" lon="6.62241">
        <ele>1274</ele>
        <time>2016-03-23T20:43:18Z</time>
      </trkpt>
      <trkpt lat="44.36045" lon="6.62246">
        <ele>1272</ele>
        <time>2016-03-23T20:45:18Z</time>
      </trkpt>
      <trkpt lat="44.36047" lon="6.6225">
        <ele>1271</ele>
        <time>2016-03-23T20:47:18Z</time>
      </trkpt>
      <trkpt lat="44.36051" lon="6.62253">
        <ele>1270</ele>
        <time>2016-03-23T20:49:18Z</time>
      </trkpt>
      <trkpt lat="44.36054" lon="6.62255">
        <ele>1270</ele>
        <time>2016-03-23T20:51:18Z</time>
      </trkpt>
      <trkpt lat="44.36058" lon="6.62256">
        <ele>1270</ele>
        <time>2016-03-23T20:53:18Z</time>
      </trkpt>
      <trkpt lat="44.36067" lon="6.62257">
        <ele>1270</ele>
        <time>2016-03-23T20:55:18Z</time>
      </trkpt>
      <trkpt lat="44.36078" lon="6.62258">
        <ele>1270</ele>
        <time>2016-03-23T20:57:18Z</time>
      </trkpt>
      <trkpt lat="44.36083" lon="6.62259">
        <ele>1270</ele>
        <time>2016-03-23T20:59:18Z</time>
      </trkpt>
      <trkpt lat="44.36099" lon="6.62263">
        <ele>1267</ele>
        <time>2016-03-23T21:01:18Z</time>
      </trkpt>
      <trkpt lat="44.36109" lon="6.62265">
        <ele>1265</ele>
        <time>2016-03-23T21:03:18Z</time>
      </trkpt>
      <trkpt lat="44.3612" lon="6.62266">
        <ele>1264</ele>
        <time>2016-03-23T21:05:18Z</time>
      </trkpt>
      <trkpt lat="44.36131" lon="6.62267">
        <ele>1263</ele>
        <time>2016-03-23T21:07:18Z</time>
      </trkpt>
      <trkpt lat="44.36141" lon="6.62266">
        <ele>1262</ele>
        <time>2016-03-23T21:09:18Z</time>
      </trkpt>
      <trkpt lat="44.36146" lon="6.62264">
        <ele>1262</ele>
        <time>2016-03-23T21:11:18Z</time>
      </trkpt>
      <trkpt lat="44.36151" lon="6.62262">
        <ele>1262</ele>
        <time>2016-03-23T21:13:18Z</time>
      </trkpt>
      <trkpt lat="44.36156" lon="6.6226">
        <ele>1263</ele>
        <time>2016-03-23T21:15:18Z</time>
      </trkpt>
      <trkpt lat="44.36161" lon="6.62257">
        <ele>1263</ele>
        <time>2016-03-23T21:17:18Z</time>
      </trkpt>
      <trkpt lat="44.3617" lon="6.62249">
        <ele>1264</ele>
        <time>2016-03-23T21:19:18Z</time>
      </trkpt>
      <trkpt lat="44.36174" lon="6.62245">
        <ele>1265</ele>
        <time>2016-03-23T21:21:18Z</time>
      </trkpt>
      <trkpt lat="44.36178" lon="6.62242">
        <ele>1266</ele>
        <time>2016-03-23T21:23:18Z</time>
      </trkpt>
      <trkpt lat="44.36182" lon="6.62239">
        <ele>1267</ele>
        <time>2016-03-23T21:25:18Z</time>
      </trkpt>
      <trkpt lat="44.36187" lon="6.62237">
        <ele>1268</ele>
        <time>2016-03-23T21:27:18Z</time>
      </trkpt>
      <trkpt lat="44.36192" lon="6.62236">
        <ele>1268</ele>
        <time>2016-03-23T21:29:18Z</time>
      </trkpt>
      <trkpt lat="44.36197" lon="6.62236">
        <ele>1268</ele>
        <time>2016-03-23T21:31:18Z</time>
      </trkpt>
      <trkpt lat="44.36202" lon="6.62238">
        <ele>1267</ele>
        <time>2016-03-23T21:33:18Z</time>
      </trkpt>
      <trkpt lat="44.36207" lon="6.6224">
        <ele>1266</ele>
        <time>2016-03-23T21:35:18Z</time>
      </trkpt>
      <trkpt lat="44.36216" lon="6.62245">
        <ele>1263</ele>
        <time>2016-03-23T21:37:18Z</time>
      </trkpt>
      <trkpt lat="44.36226" lon="6.62249">
        <ele>1262</ele>
        <time>2016-03-23T21:39:18Z</time>
      </trkpt>
      <trkpt lat="44.3624" lon="6.62253">
        <ele>1260</ele>
        <time>2016-03-23T21:41:18Z</time>
      </trkpt>
      <trkpt lat="44.3625" lon="6.62255">
        <ele>1259</ele>
        <time>2016-03-23T21:43:18Z</time>
      </trkpt>
      <trkpt lat="44.36255" lon="6.62255">
        <ele>1259</ele>
        <time>2016-03-23T21:45:18Z</time>
      </trkpt>
      <trkpt lat="44.36264" lon="6.62254">
        <ele>1260</ele>
        <time>2016-03-23T21:47:18Z</time>
      </trkpt>
      <trkpt lat="44.36269" lon="6.62253">
        <ele>1261</ele>
        <time>2016-03-23T21:49:18Z</time>
      </trkpt>
      <trkpt lat="44.36277" lon="6.62253">
        <ele>1262</ele>
        <time>2016-03-23T21:51:18Z</time>
      </trkpt>
      <trkpt lat="44.36281" lon="6.62254">
        <ele>1262</ele>
        <time>2016-03-23T21:53:18Z</time>
      </trkpt>
      <trkpt lat="44.36285" lon="6.62256">
        <ele>1262</ele>
        <time>2016-03-23T21:55:18Z</time>
      </trkpt>
      <trkpt lat="44.36289" lon="6.62259">
        <ele>1261</ele>
        <time>2016-03-23T21:57:18Z</time>
      </trkpt>
      <trkpt lat="44.36295" lon="6.62266">
        <ele>1260</ele>
        <time>2016-03-23T21:59:18Z</time>
      </trkpt>
      <trkpt lat="44.363" lon="6.62277">
        <ele>1257</ele>
        <time>2016-03-23T22:01:18Z</time>
      </trkpt>
      <trkpt lat="44.36303" lon="6.62291">
        <ele>1252</ele>
        <time>2016-03-23T22:03:18Z</time>
      </trkpt>
      <trkpt lat="44.36307" lon="6.62305">
        <ele>1248</ele>
        <time>2016-03-23T22:05:18Z</time>
      </trkpt>
      <trkpt lat="44.36312" lon="6.62319">
        <ele>1244</ele>
        <time>2016-03-23T22:07:18Z</time>
      </trkpt>
      <trkpt lat="44.36314" lon="6.62325">
        <ele>1242</ele>
        <time>2016-03-23T22:09:18Z</time>
      </trkpt>
      <trkpt lat="44.36317" lon="6.62332">
        <ele>1240</ele>
        <time>2016-03-23T22:11:18Z</time>
      </trkpt>
      <trkpt lat="44.3632" lon="6.62338">
        <ele>1239</ele>
        <time>2016-03-23T22:13:18Z</time>
      </trkpt>
      <trkpt lat="44.36328" lon="6.6235">
        <ele>1237</ele>
        <time>2016-03-23T22:15:18Z</time>
      </trkpt>
      <trkpt lat="44.36332" lon="6.62356">
        <ele>1236</ele>
        <time>2016-03-23T22:17:18Z</time>
      </trkpt>
      <trkpt lat="44.36337" lon="6.6236">
        <ele>1236</ele>
        <time>2016-03-23T22:19:18Z</time>
      </trkpt>
      <trkpt lat="44.36342" lon="6.62364">
        <ele>1235</ele>
        <time>2016-03-23T22:21:18Z</time>
      </trkpt>
      <trkpt lat="44.36348" lon="6.62368">
        <ele>1235</ele>
        <time>2016-03-23T22:23:18Z</time>
      </trkpt>
      <trkpt lat="44.36354" lon="6.62371">
        <ele>1235</ele>
        <time>2016-03-23T22:25:18Z</time>
      </trkpt>
      <trkpt lat="44.36359" lon="6.62374">
        <ele>1234</ele>
        <time>2016-03-23T22:27:18Z</time>
      </trkpt>
      <trkpt lat="44.36365" lon="6.62375">
        <ele>1235</ele>
        <time>2016-03-23T22:29:18Z</time>
      </trkpt>
      <trkpt lat="44.36371" lon="6.62377">
        <ele>1235</ele>
        <time>2016-03-23T22:31:18Z</time>
      </trkpt>
      <trkpt lat="44.36397" lon="6.62381">
        <ele>1236</ele>
        <time>2016-03-23T22:33:18Z</time>
      </trkpt>
      <trkpt lat="44.36416" lon="6.62384">
        <ele>1237</ele>
        <time>2016-03-23T22:35:18Z</time>
      </trkpt>
      <trkpt lat="44.36429" lon="6.62386">
        <ele>1236</ele>
        <time>2016-03-23T22:37:18Z</time>
      </trkpt>
      <trkpt lat="44.36436" lon="6.62388">
        <ele>1235</ele>
        <time>2016-03-23T22:39:18Z</time>
      </trkpt>
      <trkpt lat="44.36441" lon="6.62388">
        <ele>1235</ele>
        <time>2016-03-23T22:41:18Z</time>
      </trkpt>
      <trkpt lat="44.36448" lon="6.6239">
        <ele>1234</ele>
        <time>2016-03-23T22:43:18Z</time>
      </trkpt>
      <trkpt lat="44.36472" lon="6.62397">
        <ele>1232</ele>
        <time>2016-03-23T22:45:18Z</time>
      </trkpt>
      <trkpt lat="44.36492" lon="6.62402">
        <ele>1230</ele>
        <time>2016-03-23T22:47:18Z</time>
      </trkpt>
      <trkpt lat="44.36509" lon="6.62409">
        <ele>1228</ele>
        <time>2016-03-23T22:49:18Z</time>
      </trkpt>
      <trkpt lat="44.36526" lon="6.62417">
        <ele>1226</ele>
        <time>2016-03-23T22:51:18Z</time>
      </trkpt>
      <trkpt lat="44.36547" lon="6.62429">
        <ele>1223</ele>
        <time>2016-03-23T22:53:18Z</time>
      </trkpt>
      <trkpt lat="44.36574" lon="6.62451">
        <ele>1218</ele>
        <time>2016-03-23T22:55:18Z</time>
      </trkpt>
      <trkpt lat="44.36574" lon="6.62451">
        <ele>1218</ele>
        <time>2016-03-23T22:57:18Z</time>
      </trkpt>
      <trkpt lat="44.36573" lon="6.62457">
        <ele>1217</ele>
        <time>2016-03-23T22:59:18Z</time>
      </trkpt>
      <trkpt lat="44.36573" lon="6.62459">
        <ele>1217</ele>
        <time>2016-03-23T23:01:18Z</time>
      </trkpt>
      <trkpt lat="44.36572" lon="6.62461">
        <ele>1216</ele>
        <time>2016-03-23T23:03:18Z</time>
      </trkpt>
      <trkpt lat="44.36571" lon="6.62464">
        <ele>1215</ele>
        <time>2016-03-23T23:05:18Z</time>
      </trkpt>
      <trkpt lat="44.36569" lon="6.62466">
        <ele>1215</ele>
        <time>2016-03-23T23:07:18Z</time>
      </trkpt>
      <trkpt lat="44.36568" lon="6.62466">
        <ele>1215</ele>
        <time>2016-03-23T23:09:18Z</time>
      </trkpt>
      <trkpt lat="44.36566" lon="6.62467">
        <ele>1215</ele>
        <time>2016-03-23T23:11:18Z</time>
      </trkpt>
      <trkpt lat="44.36564" lon="6.62467">
        <ele>1215</ele>
        <time>2016-03-23T23:13:18Z</time>
      </trkpt>
      <trkpt lat="44.36561" lon="6.62466">
        <ele>1215</ele>
        <time>2016-03-23T23:15:18Z</time>
      </trkpt>
      <trkpt lat="44.36559" lon="6.62465">
        <ele>1215</ele>
        <time>2016-03-23T23:17:18Z</time>
      </trkpt>
      <trkpt lat="44.36544" lon="6.62452">
        <ele>1218</ele>
        <time>2016-03-23T23:19:18Z</time>
      </trkpt>
      <trkpt lat="44.36535" lon="6.62447">
        <ele>1219</ele>
        <time>2016-03-23T23:21:18Z</time>
      </trkpt>
      <trkpt lat="44.36525" lon="6.62444">
        <ele>1219</ele>
        <time>2016-03-23T23:23:18Z</time>
      </trkpt>
      <trkpt lat="44.36515" lon="6.62442">
        <ele>1220</ele>
        <time>2016-03-23T23:25:18Z</time>
      </trkpt>
      <trkpt lat="44.36506" lon="6.62441">
        <ele>1220</ele>
        <time>2016-03-23T23:27:18Z</time>
      </trkpt>
      <trkpt lat="44.36477" lon="6.62443">
        <ele>1219</ele>
        <time>2016-03-23T23:29:18Z</time>
      </trkpt>
      <trkpt lat="44.36466" lon="6.62445">
        <ele>1219</ele>
        <time>2016-03-23T23:31:18Z</time>
      </trkpt>
      <trkpt lat="44.36457" lon="6.62449">
        <ele>1218</ele>
        <time>2016-03-23T23:33:18Z</time>
      </trkpt>
      <trkpt lat="44.36412" lon="6.62474">
        <ele>1210</ele>
        <time>2016-03-23T23:35:18Z</time>
      </trkpt>
      <trkpt lat="44.3639" lon="6.62483">
        <ele>1207</ele>
        <time>2016-03-23T23:37:18Z</time>
      </trkpt>
      <trkpt lat="44.36379" lon="6.62486">
        <ele>1206</ele>
        <time>2016-03-23T23:39:18Z</time>
      </trkpt>
      <trkpt lat="44.36367" lon="6.62486">
        <ele>1205</ele>
        <time>2016-03-23T23:41:18Z</time>
      </trkpt>
      <trkpt lat="44.3629" lon="6.62474">
        <ele>1209</ele>
        <time>2016-03-23T23:43:18Z</time>
      </trkpt>
      <trkpt lat="44.36283" lon="6.62472">
        <ele>1210</ele>
        <time>2016-03-23T23:45:18Z</time>
      </trkpt>
      <trkpt lat="44.36279" lon="6.62472">
        <ele>1210</ele>
        <time>2016-03-23T23:47:18Z</time>
      </trkpt>
      <trkpt lat="44.36273" lon="6.62475">
        <ele>1210</ele>
        <time>2016-03-23T23:49:18Z</time>
      </trkpt>
      <trkpt lat="44.36269" lon="6.62478">
        <ele>1209</ele>
        <time>2016-03-23T23:51:18Z</time>
      </trkpt>
      <trkpt lat="44.36266" lon="6.62482">
        <ele>1209</ele>
        <time>2016-03-23T23:53:18Z</time>
      </trkpt>
      <trkpt lat="44.36242" lon="6.62532">
        <ele>1198</ele>
        <time>2016-03-23T23:55:18Z</time>
      </trkpt>
      <trkpt lat="44.36239" lon="6.62537">
        <ele>1196</ele>
        <time>2016-03-23T23:57:18Z</time>
      </trkpt>
      <trkpt lat="44.36237" lon="6.6254">
        <ele>1195</ele>
        <time>2016-03-23T23:59:18Z</time>
      </trkpt>
      <trkpt lat="44.36231" lon="6.62545">
        <ele>1194</ele>
        <time>2016-03-24T00:01:18Z</time>
      </trkpt>
      <trkpt lat="44.3618" lon="6.62566">
        <ele>1190</ele>
        <time>2016-03-24T00:03:18Z</time>
      </trkpt>
      <trkpt lat="44.36177" lon="6.62567">
        <ele>1189</ele>
        <time>2016-03-24T00:05:18Z</time>
      </trkpt>
      <trkpt lat="44.36172" lon="6.62569">
        <ele>1189</ele>
        <time>2016-03-24T00:07:18Z</time>
      </trkpt>
      <trkpt lat="44.36168" lon="6.62569">
        <ele>1189</ele>
        <time>2016-03-24T00:09:18Z</time>
      </trkpt>
      <trkpt lat="44.36165" lon="6.62568">
        <ele>1189</ele>
        <time>2016-03-24T00:11:18Z</time>
      </trkpt>
      <trkpt lat="44.36161" lon="6.62567">
        <ele>1189</ele>
        <time>2016-03-24T00:13:18Z</time>
      </trkpt>
      <trkpt lat="44.36159" lon="6.62566">
        <ele>1190</ele>
        <time>2016-03-24T00:15:18Z</time>
      </trkpt>
      <trkpt lat="44.36156" lon="6.62563">
        <ele>1190</ele>
        <time>2016-03-24T00:17:18Z</time>
      </trkpt>
      <trkpt lat="44.36156" lon="6.62563">
        <ele>1190</ele>
        <time>2016-03-24T00:19:18Z</time>
      </trkpt>
      <trkpt lat="44.36154" lon="6.62561">
        <ele>1190</ele>
        <time>2016-03-24T00:21:18Z</time>
      </trkpt>
      <trkpt lat="44.36153" lon="6.62559">
        <ele>1191</ele>
        <time>2016-03-24T00:23:18Z</time>
      </trkpt>
      <trkpt lat="44.36152" lon="6.62557">
        <ele>1191</ele>
        <time>2016-03-24T00:25:18Z</time>
      </trkpt>
      <trkpt lat="44.3615" lon="6.62553">
        <ele>1192</ele>
        <time>2016-03-24T00:27:18Z</time>
      </trkpt>
      <trkpt lat="44.36146" lon="6.62544">
        <ele>1193</ele>
        <time>2016-03-24T00:29:18Z</time>
      </trkpt>
      <trkpt lat="44.36141" lon="6.62532">
        <ele>1195</ele>
        <time>2016-03-24T00:31:18Z</time>
      </trkpt>
      <trkpt lat="44.36136" lon="6.62521">
        <ele>1196</ele>
        <time>2016-03-24T00:33:18Z</time>
      </trkpt>
      <trkpt lat="44.36129" lon="6.62511">
        <ele>1196</ele>
        <time>2016-03-24T00:35:18Z</time>
      </trkpt>
      <trkpt lat="44.36123" lon="6.62501">
        <ele>1197</ele>
        <time>2016-03-24T00:37:18Z</time>
      </trkpt>
      <trkpt lat="44.36119" lon="6.62497">
        <ele>1197</ele>
        <time>2016-03-24T00:39:18Z</time>
      </trkpt>
      <trkpt lat="44.36112" lon="6.62491">
        <ele>1198</ele>
        <time>2016-03-24T00:41:18Z</time>
      </trkpt>
      <trkpt lat="44.36105" lon="6.62487">
        <ele>1198</ele>
        <time>2016-03-24T00:43:18Z</time>
      </trkpt>
      <trkpt lat="44.36096" lon="6.62484">
        <ele>1198</ele>
        <time>2016-03-24T00:45:18Z</time>
      </trkpt>
      <trkpt lat="44.36088" lon="6.62483">
        <ele>1197</ele>
        <time>2016-03-24T00:47:18Z</time>
      </trkpt>
      <trkpt lat="44.36079" lon="6.62484">
        <ele>1196</ele>
        <time>2016-03-24T00:49:18Z</time>
      </trkpt>
      <trkpt lat="44.36074" lon="6.62485">
        <ele>1195</ele>
        <time>2016-03-24T00:51:18Z</time>
      </trkpt>
      <trkpt lat="44.36069" lon="6.62486">
        <ele>1195</ele>
        <time>2016-03-24T00:53:18Z</time>
      </trkpt>
      <trkpt lat="44.36063" lon="6.62487">
        <ele>1195</ele>
        <time>2016-03-24T00:55:18Z</time>
      </trkpt>
      <trkpt lat="44.36059" lon="6.62487">
        <ele>1195</ele>
        <time>2016-03-24T00:57:18Z</time>
      </trkpt>
      <trkpt lat="44.36055" lon="6.62488">
        <ele>1194</ele>
        <time>2016-03-24T00:59:18Z</time>
      </trkpt>
      <trkpt lat="44.36052" lon="6.62489">
        <ele>1194</ele>
        <time>2016-03-24T01:01:18Z</time>
      </trkpt>
      <trkpt lat="44.36049" lon="6.62491">
        <ele>1193</ele>
        <time>2016-03-24T01:03:18Z</time>
      </trkpt>
      <trkpt lat="44.36044" lon="6.62496">
        <ele>1191</ele>
        <time>2016-03-24T01:05:18Z</time>
      </trkpt>
      <trkpt lat="44.36044" lon="6.62496">
        <ele>1191</ele>
        <time>2016-03-24T01:07:18Z</time>
      </trkpt>
      <trkpt lat="44.3604" lon="6.62492">
        <ele>1193</ele>
        <time>2016-03-24T01:09:18Z</time>
      </trkpt>
      <trkpt lat="44.36037" lon="6.6249">
        <ele>1193</ele>
        <time>2016-03-24T01:11:18Z</time>
      </trkpt>
      <trkpt lat="44.36031" lon="6.62485">
        <ele>1195</ele>
        <time>2016-03-24T01:13:18Z</time>
      </trkpt>
      <trkpt lat="44.36025" lon="6.62482">
        <ele>1196</ele>
        <time>2016-03-24T01:15:18Z</time>
      </trkpt>
      <trkpt lat="44.36021" lon="6.6248">
        <ele>1196</ele>
        <time>2016-03-24T01:17:18Z</time>
      </trkpt>
      <trkpt lat="44.36017" lon="6.62478">
        <ele>1197</ele>
        <time>2016-03-24T01:19:18Z</time>
      </trkpt>
      <trkpt lat="44.36013" lon="6.62477">
        <ele>1197</ele>
        <time>2016-03-24T01:21:18Z</time>
      </trkpt>
      <trkpt lat="44.36008" lon="6.62475">
        <ele>1198</ele>
        <time>2016-03-24T01:23:18Z</time>
      </trkpt>
      <trkpt lat="44.35997" lon="6.62472">
        <ele>1198</ele>
        <time>2016-03-24T01:25:18Z</time>
      </trkpt>
      <trkpt lat="44.3599" lon="6.62471">
        <ele>1198</ele>
        <time>2016-03-24T01:27:18Z</time>
      </trkpt>
      <trkpt lat="44.35984" lon="6.62469">
        <ele>1198</ele>
        <time>2016-03-24T01:29:18Z</time>
      </trkpt>
      <trkpt lat="44.35978" lon="6.62468">
        <ele>1198</ele>
        <time>2016-03-24T01:31:18Z</time>
      </trkpt>
      <trkpt lat="44.35974" lon="6.62466">
        <ele>1198</ele>
        <time>2016-03-24T01:33:18Z</time>
      </trkpt>
      <trkpt lat="44.35968" lon="6.62463">
        <ele>1198</ele>
        <time>2016-03-24T01:35:18Z</time>
      </trkpt>
      <trkpt lat="44.35963" lon="6.62459">
        <ele>1199</ele>
        <time>2016-03-24T01:37:18Z</time>
      </trkpt>
      <trkpt lat="44.35958" lon="6.62456">
        <ele>1199</ele>
        <time>2016-03-24T01:39:18Z</time>
      </trkpt>
      <trkpt lat="44.35948" lon="6.62447">
        <ele>1200</ele>
        <time>2016-03-24T01:41:18Z</time>
      </trkpt>
      <trkpt lat="44.35937" lon="6.62438">
        <ele>1201</ele>
        <time>2016-03-24T01:43:18Z</time>
      </trkpt>
      <trkpt lat="44.35929" lon="6.62433">
        <ele>1201</ele>
        <time>2016-03-24T01:45:18Z</time>
      </trkpt>
      <trkpt lat="44.35923" lon="6.62429">
        <ele>1201</ele>
        <time>2016-03-24T01:47:18Z</time>
      </trkpt>
      <trkpt lat="44.3591" lon="6.62424">
        <ele>1200</ele>
        <time>2016-03-24T01:49:18Z</time>
      </trkpt>
      <trkpt lat="44.35891" lon="6.62418">
        <ele>1200</ele>
        <time>2016-03-24T01:51:18Z</time>
      </trkpt>
      <trkpt lat="44.35867" lon="6.6241">
        <ele>1200</ele>
        <time>2016-03-24T01:53:18Z</time>
      </trkpt>
      <trkpt lat="44.35852" lon="6.62403">
        <ele>1200</ele>
        <time>2016-03-24T01:55:18Z</time>
      </trkpt>
      <trkpt lat="44.35839" lon="6.62395">
        <ele>1201</ele>
        <time>2016-03-24T01:57:18Z</time>
      </trkpt>
      <trkpt lat="44.35825" lon="6.62385">
        <ele>1203</ele>
        <time>2016-03-24T01:59:18Z</time>
      </trkpt>
      <trkpt lat="44.35778" lon="6.62351">
        <ele>1207</ele>
        <time>2016-03-24T02:01:18Z</time>
      </trkpt>
      <trkpt lat="44.35726" lon="6.62318">
        <ele>1209</ele>
        <time>2016-03-24T02:03:18Z</time>
      </trkpt>
      <trkpt lat="44.35685" lon="6.62299">
        <ele>1211</ele>
        <time>2016-03-24T02:05:18Z</time>
      </trkpt>
      <trkpt lat="44.35661" lon="6.62292">
        <ele>1211</ele>
        <time>2016-03-24T02:07:18Z</time>
      </trkpt>
      <trkpt lat="44.35644" lon="6.62282">
        <ele>1213</ele>
        <time>2016-03-24T02:09:18Z</time>
      </trkpt>
      <trkpt lat="44.35602" lon="6.62255">
        <ele>1217</ele>
        <time>2016-03-24T02:11:18Z</time>
      </trkpt>
      <trkpt lat="44.35589" lon="6.62248">
        <ele>1218</ele>
        <time>2016-03-24T02:13:18Z</time>
      </trkpt>
      <trkpt lat="44.3557" lon="6.62241">
        <ele>1219</ele>
        <time>2016-03-24T02:15:18Z</time>
      </trkpt>
      <trkpt lat="44.35552" lon="6.62236">
        <ele>1219</ele>
        <time>2016-03-24T02:17:18Z</time>
      </trkpt>
      <trkpt lat="44.3554" lon="6.62235">
        <ele>1218</ele>
        <time>2016-03-24T02:19:18Z</time>
      </trkpt>
      <trkpt lat="44.35528" lon="6.62234">
        <ele>1217</ele>
        <time>2016-03-24T02:21:18Z</time>
      </trkpt>
      <trkpt lat="44.35523" lon="6.62235">
        <ele>1216</ele>
        <time>2016-03-24T02:23:18Z</time>
      </trkpt>
      <trkpt lat="44.35515" lon="6.62237">
        <ele>1214</ele>
        <time>2016-03-24T02:25:18Z</time>
      </trkpt>
      <trkpt lat="44.3551" lon="6.62237">
        <ele>1214</ele>
        <time>2016-03-24T02:27:18Z</time>
      </trkpt>
      <trkpt lat="44.35504" lon="6.62236">
        <ele>1214</ele>
        <time>2016-03-24T02:29:18Z</time>
      </trkpt>
      <trkpt lat="44.35498" lon="6.62233">
        <ele>1214</ele>
        <time>2016-03-24T02:31:18Z</time>
      </trkpt>
      <trkpt lat="44.35492" lon="6.62229">
        <ele>1215</ele>
        <time>2016-03-24T02:33:18Z</time>
      </trkpt>
      <trkpt lat="44.35487" lon="6.62223">
        <ele>1216</ele>
        <time>2016-03-24T02:35:18Z</time>
      </trkpt>
      <trkpt lat="44.35453" lon="6.62177">
        <ele>1226</ele>
        <time>2016-03-24T02:37:18Z</time>
      </trkpt>
      <trkpt lat="44.35443" lon="6.62168">
        <ele>1227</ele>
        <time>2016-03-24T02:39:18Z</time>
      </trkpt>
      <trkpt lat="44.35431" lon="6.62159">
        <ele>1229</ele>
        <time>2016-03-24T02:41:18Z</time>
      </trkpt>
      <trkpt lat="44.35422" lon="6.62154">
        <ele>1229</ele>
        <time>2016-03-24T02:43:18Z</time>
      </trkpt>
      <trkpt lat="44.35413" lon="6.62151">
        <ele>1229</ele>
        <time>2016-03-24T02:45:18Z</time>
      </trkpt>
      <trkpt lat="44.35346" lon="6.62134">
        <ele>1225</ele>
        <time>2016-03-24T02:47:18Z</time>
      </trkpt>
      <trkpt lat="44.35334" lon="6.62133">
        <ele>1223</ele>
        <time>2016-03-24T02:49:18Z</time>
      </trkpt>
      <trkpt lat="44.35326" lon="6.6213">
        <ele>1223</ele>
        <time>2016-03-24T02:51:18Z</time>
      </trkpt>
      <trkpt lat="44.35314" lon="6.62125">
        <ele>1223</ele>
        <time>2016-03-24T02:53:18Z</time>
      </trkpt>
      <trkpt lat="44.35301" lon="6.62117">
        <ele>1223</ele>
        <time>2016-03-24T02:55:18Z</time>
      </trkpt>
      <trkpt lat="44.3529" lon="6.62108">
        <ele>1224</ele>
        <time>2016-03-24T02:57:18Z</time>
      </trkpt>
      <trkpt lat="44.35281" lon="6.62098">
        <ele>1224</ele>
        <time>2016-03-24T02:59:18Z</time>
      </trkpt>
      <trkpt lat="44.35266" lon="6.62078">
        <ele>1226</ele>
        <time>2016-03-24T03:01:18Z</time>
      </trkpt>
      <trkpt lat="44.3525" lon="6.62052">
        <ele>1232</ele>
        <time>2016-03-24T03:03:18Z</time>
      </trkpt>
      <trkpt lat="44.35245" lon="6.62046">
        <ele>1233</ele>
        <time>2016-03-24T03:05:18Z</time>
      </trkpt>
      <trkpt lat="44.35239" lon="6.62041">
        <ele>1234</ele>
        <time>2016-03-24T03:07:18Z</time>
      </trkpt>
      <trkpt lat="44.35232" lon="6.62036">
        <ele>1234</ele>
        <time>2016-03-24T03:09:18Z</time>
      </trkpt>
      <trkpt lat="44.35222" lon="6.62031">
        <ele>1234</ele>
        <time>2016-03-24T03:11:18Z</time>
      </trkpt>
      <trkpt lat="44.35203" lon="6.62024">
        <ele>1233</ele>
        <time>2016-03-24T03:13:18Z</time>
      </trkpt>
      <trkpt lat="44.35189" lon="6.62019">
        <ele>1232</ele>
        <time>2016-03-24T03:15:18Z</time>
      </trkpt>
      <trkpt lat="44.35172" lon="6.62015">
        <ele>1231</ele>
        <time>2016-03-24T03:17:18Z</time>
      </trkpt>
      <trkpt lat="44.35141" lon="6.62013">
        <ele>1227</ele>
        <time>2016-03-24T03:19:18Z</time>
      </trkpt>
      <trkpt lat="44.3513" lon="6.6201">
        <ele>1226</ele>
        <time>2016-03-24T03:21:18Z</time>
      </trkpt>
      <trkpt lat="44.35122" lon="6.62007">
        <ele>1226</ele>
        <time>2016-03-24T03:23:18Z</time>
      </trkpt>
      <trkpt lat="44.35117" lon="6.62004">
        <ele>1226</ele>
        <time>2016-03-24T03:25:18Z</time>
      </trkpt>
      <trkpt lat="44.35112" lon="6.62001">
        <ele>1226</ele>
        <time>2016-03-24T03:27:18Z</time>
      </trkpt>
      <trkpt lat="44.35105" lon="6.61995">
        <ele>1226</ele>
        <time>2016-03-24T03:29:18Z</time>
      </trkpt>
      <trkpt lat="44.35092" lon="6.61983">
        <ele>1226</ele>
        <time>2016-03-24T03:31:18Z</time>
      </trkpt>
      <trkpt lat="44.3508" lon="6.61971">
        <ele>1226</ele>
        <time>2016-03-24T03:33:18Z</time>
      </trkpt>
      <trkpt lat="44.35056" lon="6.61947">
        <ele>1230</ele>
        <time>2016-03-24T03:35:18Z</time>
      </trkpt>
      <trkpt lat="44.3504" lon="6.61937">
        <ele>1232</ele>
        <time>2016-03-24T03:37:18Z</time>
      </trkpt>
      <trkpt lat="44.35026" lon="6.61929">
        <ele>1235</ele>
        <time>2016-03-24T03:39:18Z</time>
      </trkpt>
      <trkpt lat="44.35009" lon="6.61923">
        <ele>1237</ele>
        <time>2016-03-24T03:41:18Z</time>
      </trkpt>
      <trkpt lat="44.34995" lon="6.61919">
        <ele>1239</ele>
        <time>2016-03-24T03:43:18Z</time>
      </trkpt>
      <trkpt lat="44.34989" lon="6.61918">
        <ele>1239</ele>
        <time>2016-03-24T03:45:18Z</time>
      </trkpt>
      <trkpt lat="44.34981" lon="6.61917">
        <ele>1240</ele>
        <time>2016-03-24T03:47:18Z</time>
      </trkpt>
      <trkpt lat="44.34966" lon="6.61918">
        <ele>1240</ele>
        <time>2016-03-24T03:49:18Z</time>
      </trkpt>
      <trkpt lat="44.34956" lon="6.61919">
        <ele>1240</ele>
        <time>2016-03-24T03:51:18Z</time>
      </trkpt>
      <trkpt lat="44.34943" lon="6.61922">
        <ele>1240</ele>
        <time>2016-03-24T03:53:18Z</time>
      </trkpt>
      <trkpt lat="44.34891" lon="6.61937">
        <ele>1242</ele>
        <time>2016-03-24T03:55:18Z</time>
      </trkpt>
      <trkpt lat="44.34882" lon="6.61941">
        <ele>1242</ele>
        <time>2016-03-24T03:57:18Z</time>
      </trkpt>
      <trkpt lat="44.34874" lon="6.61948">
        <ele>1241</ele>
        <time>2016-03-24T03:59:18Z</time>
      </trkpt>
      <trkpt lat="44.34863" lon="6.61953">
        <ele>1241</ele>
        <time>2016-03-24T04:01:18Z</time>
      </trkpt>
      <trkpt lat="44.34851" lon="6.61957">
        <ele>1242</ele>
        <time>2016-03-24T04:03:18Z</time>
      </trkpt>
      <trkpt lat="44.34835" lon="6.61961">
        <ele>1243</ele>
        <time>2016-03-24T04:05:18Z</time>
      </trkpt>
      <trkpt lat="44.34765" lon="6.61972">
        <ele>1247</ele>
        <time>2016-03-24T04:07:18Z</time>
      </trkpt>
      <trkpt lat="44.34748" lon="6.61976">
        <ele>1247</ele>
        <time>2016-03-24T04:09:18Z</time>
      </trkpt>
      <trkpt lat="44.34735" lon="6.61979">
        <ele>1248</ele>
        <time>2016-03-24T04:11:18Z</time>
      </trkpt>
      <trkpt lat="44.34722" lon="6.61984">
        <ele>1247</ele>
        <time>2016-03-24T04:13:18Z</time>
      </trkpt>
      <trkpt lat="44.34705" lon="6.61991">
        <ele>1246</ele>
        <time>2016-03-24T04:15:18Z</time>
      </trkpt>
      <trkpt lat="44.34669" lon="6.62006">
        <ele>1245</ele>
        <time>2016-03-24T04:17:18Z</time>
      </trkpt>
      <trkpt lat="44.34658" lon="6.62009">
        <ele>1243</ele>
        <time>2016-03-24T04:19:18Z</time>
      </trkpt>
      <trkpt lat="44.34646" lon="6.6201">
        <ele>1242</ele>
        <time>2016-03-24T04:21:18Z</time>
      </trkpt>
      <trkpt lat="44.34642" lon="6.62009">
        <ele>1242</ele>
        <time>2016-03-24T04:23:18Z</time>
      </trkpt>
      <trkpt lat="44.34625" lon="6.62006">
        <ele>1241</ele>
        <time>2016-03-24T04:25:18Z</time>
      </trkpt>
      <trkpt lat="44.34621" lon="6.62005">
        <ele>1241</ele>
        <time>2016-03-24T04:27:18Z</time>
      </trkpt>
      <trkpt lat="44.34618" lon="6.62005">
        <ele>1240</ele>
        <time>2016-03-24T04:29:18Z</time>
      </trkpt>
      <trkpt lat="44.34614" lon="6.62005">
        <ele>1240</ele>
        <time>2016-03-24T04:31:18Z</time>
      </trkpt>
      <trkpt lat="44.34612" lon="6.62005">
        <ele>1240</ele>
        <time>2016-03-24T04:33:18Z</time>
      </trkpt>
      <trkpt lat="44.34605" lon="6.62001">
        <ele>1239</ele>
        <time>2016-03-24T04:35:18Z</time>
      </trkpt>
      <trkpt lat="44.34597" lon="6.61994">
        <ele>1242</ele>
        <time>2016-03-24T04:37:18Z</time>
      </trkpt>
      <trkpt lat="44.34591" lon="6.61991">
        <ele>1243</ele>
        <time>2016-03-24T04:39:18Z</time>
      </trkpt>
      <trkpt lat="44.34587" lon="6.61991">
        <ele>1243</ele>
        <time>2016-03-24T04:41:18Z</time>
      </trkpt>
      <trkpt lat="44.34577" lon="6.61992">
        <ele>1242</ele>
        <time>2016-03-24T04:43:18Z</time>
      </trkpt>
      <trkpt lat="44.34569" lon="6.61992">
        <ele>1242</ele>
        <time>2016-03-24T04:45:18Z</time>
      </trkpt>
      <trkpt lat="44.34562" lon="6.6199">
        <ele>1243</ele>
        <time>2016-03-24T04:47:18Z</time>
      </trkpt>
      <trkpt lat="44.34551" lon="6.61984">
        <ele>1246</ele>
        <time>2016-03-24T04:49:18Z</time>
      </trkpt>
      <trkpt lat="44.34544" lon="6.61982">
        <ele>1247</ele>
        <time>2016-03-24T04:51:18Z</time>
      </trkpt>
      <trkpt lat="44.34537" lon="6.61982">
        <ele>1247</ele>
        <time>2016-03-24T04:53:18Z</time>
      </trkpt>
      <trkpt lat="44.34526" lon="6.61985">
        <ele>1245</ele>
        <time>2016-03-24T04:55:18Z</time>
      </trkpt>
      <trkpt lat="44.3452" lon="6.61984">
        <ele>1245</ele>
        <time>2016-03-24T04:57:18Z</time>
      </trkpt>
      <trkpt lat="44.34512" lon="6.61981">
        <ele>1246</ele>
        <time>2016-03-24T04:59:18Z</time>
      </trkpt>
      <trkpt lat="44.34496" lon="6.61969">
        <ele>1252</ele>
        <time>2016-03-24T05:01:18Z</time>
      </trkpt>
      <trkpt lat="44.34489" lon="6.61966">
        <ele>1254</ele>
        <time>2016-03-24T05:03:18Z</time>
      </trkpt>
      <trkpt lat="44.34482" lon="6.61966">
        <ele>1254</ele>
        <time>2016-03-24T05:05:18Z</time>
      </trkpt>
      <trkpt lat="44.34448" lon="6.61972">
        <ele>1250</ele>
        <time>2016-03-24T05:07:18Z</time>
      </trkpt>
      <trkpt lat="44.3443" lon="6.61971">
        <ele>1250</ele>
        <time>2016-03-24T05:09:18Z</time>
      </trkpt>
      <trkpt lat="44.34424" lon="6.61971">
        <ele>1250</ele>
        <time>2016-03-24T05:11:18Z</time>
      </trkpt>
      <trkpt lat="44.34415" lon="6.61969">
        <ele>1251</ele>
        <time>2016-03-24T05:13:18Z</time>
      </trkpt>
      <trkpt lat="44.34406" lon="6.61967">
        <ele>1251</ele>
        <time>2016-03-24T05:15:18Z</time>
      </trkpt>
      <trkpt lat="44.34397" lon="6.61965">
        <ele>1250</ele>
        <time>2016-03-24T05:17:18Z</time>
      </trkpt>
      <trkpt lat="44.34386" lon="6.61963">
        <ele>1250</ele>
        <time>2016-03-24T05:19:18Z</time>
      </trkpt>
      <trkpt lat="44.34351" lon="6.61959">
        <ele>1247</ele>
        <time>2016-03-24T05:21:18Z</time>
      </trkpt>
      <trkpt lat="44.34342" lon="6.61955">
        <ele>1247</ele>
        <time>2016-03-24T05:23:18Z</time>
      </trkpt>
      <trkpt lat="44.34335" lon="6.6195">
        <ele>1247</ele>
        <time>2016-03-24T05:25:18Z</time>
      </trkpt>
      <trkpt lat="44.34333" lon="6.61948">
        <ele>1248</ele>
        <time>2016-03-24T05:27:18Z</time>
      </trkpt>
      <trkpt lat="44.34321" lon="6.61931">
        <ele>1252</ele>
        <time>2016-03-24T05:29:18Z</time>
      </trkpt>
      <trkpt lat="44.34316" lon="6.61926">
        <ele>1253</ele>
        <time>2016-03-24T05:31:18Z</time>
      </trkpt>
      <trkpt lat="44.34313" lon="6.61924">
        <ele>1254</ele>
        <time>2016-03-24T05:33:18Z</time>
      </trkpt>
      <trkpt lat="44.34308" lon="6.61921">
        <ele>1254</ele>
        <time>2016-03-24T05:35:18Z</time>
      </trkpt>
      <trkpt lat="44.34282" lon="6.61913">
        <ele>1254</ele>
        <time>2016-03-24T05:37:18Z</time>
      </trkpt>
      <trkpt lat="44.34273" lon="6.6191">
        <ele>1254</ele>
        <time>2016-03-24T05:39:18Z</time>
      </trkpt>
      <trkpt lat="44.34266" lon="6.61907">
        <ele>1255</ele>
        <time>2016-03-24T05:41:18Z</time>
      </trkpt>
      <trkpt lat="44.3426" lon="6.61903">
        <ele>1256</ele>
        <time>2016-03-24T05:43:18Z</time>
      </trkpt>
      <trkpt lat="44.34254" lon="6.61901">
        <ele>1257</ele>
        <time>2016-03-24T05:45:18Z</time>
      </trkpt>
      <trkpt lat="44.3425" lon="6.61901">
        <ele>1256</ele>
        <time>2016-03-24T05:47:18Z</time>
      </trkpt>
      <trkpt lat="44.34246" lon="6.61901">
        <ele>1256</ele>
        <time>2016-03-24T05:49:18Z</time>
      </trkpt>
      <trkpt lat="44.34208" lon="6.61913">
        <ele>1251</ele>
        <time>2016-03-24T05:51:18Z</time>
      </trkpt>
      <trkpt lat="44.34192" lon="6.61918">
        <ele>1249</ele>
        <time>2016-03-24T05:53:18Z</time>
      </trkpt>
      <trkpt lat="44.34178" lon="6.61921">
        <ele>1249</ele>
        <time>2016-03-24T05:55:18Z</time>
      </trkpt>
      <trkpt lat="44.34138" lon="6.6193">
        <ele>1248</ele>
        <time>2016-03-24T05:57:18Z</time>
      </trkpt>
      <trkpt lat="44.34131" lon="6.61931">
        <ele>1248</ele>
        <time>2016-03-24T05:59:18Z</time>
      </trkpt>
      <trkpt lat="44.34123" lon="6.61931">
        <ele>1248</ele>
        <time>2016-03-24T06:01:18Z</time>
      </trkpt>
      <trkpt lat="44.34093" lon="6.6192">
        <ele>1247</ele>
        <time>2016-03-24T06:03:18Z</time>
      </trkpt>
      <trkpt lat="44.34087" lon="6.61914">
        <ele>1247</ele>
        <time>2016-03-24T06:05:18Z</time>
      </trkpt>
      <trkpt lat="44.34082" lon="6.61908">
        <ele>1249</ele>
        <time>2016-03-24T06:07:18Z</time>
      </trkpt>
      <trkpt lat="44.34076" lon="6.619">
        <ele>1252</ele>
        <time>2016-03-24T06:09:18Z</time>
      </trkpt>
      <trkpt lat="44.34059" lon="6.61851">
        <ele>1264</ele>
        <time>2016-03-24T06:11:18Z</time>
      </trkpt>
      <trkpt lat="44.34054" lon="6.61841">
        <ele>1265</ele>
        <time>2016-03-24T06:13:18Z</time>
      </trkpt>
      <trkpt lat="44.34046" lon="6.6183">
        <ele>1265</ele>
        <time>2016-03-24T06:15:18Z</time>
      </trkpt>
      <trkpt lat="44.34038" lon="6.61819">
        <ele>1267</ele>
        <time>2016-03-24T06:17:18Z</time>
      </trkpt>
      <trkpt lat="44.3403" lon="6.61809">
        <ele>1269</ele>
        <time>2016-03-24T06:19:18Z</time>
      </trkpt>
      <trkpt lat="44.34021" lon="6.618">
        <ele>1269</ele>
        <time>2016-03-24T06:21:18Z</time>
      </trkpt>
      <trkpt lat="44.33987" lon="6.61775">
        <ele>1268</ele>
        <time>2016-03-24T06:23:18Z</time>
      </trkpt>
      <trkpt lat="44.33968" lon="6.61766">
        <ele>1266</ele>
        <time>2016-03-24T06:25:18Z</time>
      </trkpt>
      <trkpt lat="44.33912" lon="6.61747">
        <ele>1254</ele>
        <time>2016-03-24T06:27:18Z</time>
      </trkpt>
      <trkpt lat="44.33902" lon="6.61738">
        <ele>1257</ele>
        <time>2016-03-24T06:29:18Z</time>
      </trkpt>
      <trkpt lat="44.33897" lon="6.61731">
        <ele>1259</ele>
        <time>2016-03-24T06:31:18Z</time>
      </trkpt>
      <trkpt lat="44.33884" lon="6.61713">
        <ele>1263</ele>
        <time>2016-03-24T06:33:18Z</time>
      </trkpt>
      <trkpt lat="44.33882" lon="6.61709">
        <ele>1264</ele>
        <time>2016-03-24T06:35:18Z</time>
      </trkpt>
      <trkpt lat="44.33881" lon="6.61703">
        <ele>1265</ele>
        <time>2016-03-24T06:37:18Z</time>
      </trkpt>
      <trkpt lat="44.33881" lon="6.61677">
        <ele>1272</ele>
        <time>2016-03-24T06:39:18Z</time>
      </trkpt>
      <trkpt lat="44.3388" lon="6.6167">
        <ele>1273</ele>
        <time>2016-03-24T06:41:18Z</time>
      </trkpt>
      <trkpt lat="44.33877" lon="6.61663">
        <ele>1276</ele>
        <time>2016-03-24T06:43:18Z</time>
      </trkpt>
      <trkpt lat="44.33875" lon="6.61659">
        <ele>1277</ele>
        <time>2016-03-24T06:45:18Z</time>
      </trkpt>
      <trkpt lat="44.33854" lon="6.61648">
        <ele>1278</ele>
        <time>2016-03-24T06:47:18Z</time>
      </trkpt>
      <trkpt lat="44.33839" lon="6.61644">
        <ele>1276</ele>
        <time>2016-03-24T06:49:18Z</time>
      </trkpt>
      <trkpt lat="44.33821" lon="6.61641">
        <ele>1277</ele>
        <time>2016-03-24T06:51:18Z</time>
      </trkpt>
      <trkpt lat="44.33791" lon="6.61644">
        <ele>1279</ele>
        <time>2016-03-24T06:53:18Z</time>
      </trkpt>
      <trkpt lat="44.33759" lon="6.61642">
        <ele>1283</ele>
        <time>2016-03-24T06:55:18Z</time>
      </trkpt>
      <trkpt lat="44.33733" lon="6.61643">
        <ele>1286</ele>
        <time>2016-03-24T06:57:18Z</time>
      </trkpt>
      <trkpt lat="44.33714" lon="6.61639">
        <ele>1290</ele>
        <time>2016-03-24T06:59:18Z</time>
      </trkpt>
      <trkpt lat="44.33688" lon="6.61622">
        <ele>1298</ele>
        <time>2016-03-24T07:01:18Z</time>
      </trkpt>
      <trkpt lat="44.33681" lon="6.6162">
        <ele>1300</ele>
        <time>2016-03-24T07:03:18Z</time>
      </trkpt>
      <trkpt lat="44.33645" lon="6.6162">
        <ele>1294</ele>
        <time>2016-03-24T07:05:18Z</time>
      </trkpt>
      <trkpt lat="44.33618" lon="6.61625">
        <ele>1285</ele>
        <time>2016-03-24T07:07:18Z</time>
      </trkpt>
      <trkpt lat="44.33613" lon="6.61625">
        <ele>1283</ele>
        <time>2016-03-24T07:09:18Z</time>
      </trkpt>
      <trkpt lat="44.33607" lon="6.61623">
        <ele>1281</ele>
        <time>2016-03-24T07:11:18Z</time>
      </trkpt>
      <trkpt lat="44.33601" lon="6.6162">
        <ele>1280</ele>
        <time>2016-03-24T07:13:18Z</time>
      </trkpt>
      <trkpt lat="44.33596" lon="6.61615">
        <ele>1278</ele>
        <time>2016-03-24T07:15:18Z</time>
      </trkpt>
      <trkpt lat="44.33568" lon="6.61574">
        <ele>1278</ele>
        <time>2016-03-24T07:17:18Z</time>
      </trkpt>
      <trkpt lat="44.33557" lon="6.61565">
        <ele>1282</ele>
        <time>2016-03-24T07:19:18Z</time>
      </trkpt>
      <trkpt lat="44.33529" lon="6.61546">
        <ele>1287</ele>
        <time>2016-03-24T07:21:18Z</time>
      </trkpt>
      <trkpt lat="44.3351" lon="6.61528">
        <ele>1288</ele>
        <time>2016-03-24T07:23:18Z</time>
      </trkpt>
      <trkpt lat="44.33484" lon="6.61509">
        <ele>1277</ele>
        <time>2016-03-24T07:25:18Z</time>
      </trkpt>
      <trkpt lat="44.33465" lon="6.61498">
        <ele>1284</ele>
        <time>2016-03-24T07:27:18Z</time>
      </trkpt>
      <trkpt lat="44.33444" lon="6.61477">
        <ele>1289</ele>
        <time>2016-03-24T07:29:18Z</time>
      </trkpt>
      <trkpt lat="44.33441" lon="6.61474">
        <ele>1290</ele>
        <time>2016-03-24T07:31:18Z</time>
      </trkpt>
      <trkpt lat="44.33435" lon="6.61471">
        <ele>1289</ele>
        <time>2016-03-24T07:33:18Z</time>
      </trkpt>
      <trkpt lat="44.3343" lon="6.6147">
        <ele>1288</ele>
        <time>2016-03-24T07:35:18Z</time>
      </trkpt>
      <trkpt lat="44.33393" lon="6.61473">
        <ele>1279</ele>
        <time>2016-03-24T07:37:18Z</time>
      </trkpt>
      <trkpt lat="44.33387" lon="6.61472">
        <ele>1279</ele>
        <time>2016-03-24T07:39:18Z</time>
      </trkpt>
      <trkpt lat="44.33383" lon="6.6147">
        <ele>1279</ele>
        <time>2016-03-24T07:41:18Z</time>
      </trkpt>
      <trkpt lat="44.3338" lon="6.61466">
        <ele>1280</ele>
        <time>2016-03-24T07:43:18Z</time>
      </trkpt>
      <trkpt lat="44.3337" lon="6.6145">
        <ele>1284</ele>
        <time>2016-03-24T07:45:18Z</time>
      </trkpt>
      <trkpt lat="44.33369" lon="6.61446">
        <ele>1285</ele>
        <time>2016-03-24T07:47:18Z</time>
      </trkpt>
      <trkpt lat="44.33367" lon="6.61443">
        <ele>1285</ele>
        <time>2016-03-24T07:49:18Z</time>
      </trkpt>
      <trkpt lat="44.33364" lon="6.61443">
        <ele>1285</ele>
        <time>2016-03-24T07:51:18Z</time>
      </trkpt>
      <trkpt lat="44.33355" lon="6.61443">
        <ele>1282</ele>
        <time>2016-03-24T07:53:18Z</time>
      </trkpt>
      <trkpt lat="44.33345" lon="6.61444">
        <ele>1280</ele>
        <time>2016-03-24T07:55:18Z</time>
      </trkpt>
      <trkpt lat="44.3334" lon="6.61444">
        <ele>1278</ele>
        <time>2016-03-24T07:57:18Z</time>
      </trkpt>
      <trkpt lat="44.33335" lon="6.61443">
        <ele>1277</ele>
        <time>2016-03-24T07:59:18Z</time>
      </trkpt>
      <trkpt lat="44.33333" lon="6.6144">
        <ele>1331</ele>
        <time>2016-03-24T08:01:18Z</time>
      </trkpt>
      <trkpt lat="44.3333" lon="6.61436">
        <ele>1331</ele>
        <time>2016-03-24T08:03:18Z</time>
      </trkpt>
      <trkpt lat="44.33328" lon="6.61431">
        <ele>1331</ele>
        <time>2016-03-24T08:05:18Z</time>
      </trkpt>
      <trkpt lat="44.33325" lon="6.61425">
        <ele>1331</ele>
        <time>2016-03-24T08:07:18Z</time>
      </trkpt>
      <trkpt lat="44.33324" lon="6.61423">
        <ele>1331</ele>
        <time>2016-03-24T08:09:18Z</time>
      </trkpt>
      <trkpt lat="44.33321" lon="6.61419">
        <ele>1331</ele>
        <time>2016-03-24T08:11:18Z</time>
      </trkpt>
      <trkpt lat="44.33313" lon="6.61414">
        <ele>1331</ele>
        <time>2016-03-24T08:13:18Z</time>
      </trkpt>
      <trkpt lat="44.33305" lon="6.6141">
        <ele>1331</ele>
        <time>2016-03-24T08:15:18Z</time>
      </trkpt>
      <trkpt lat="44.33289" lon="6.61407">
        <ele>1331</ele>
        <time>2016-03-24T08:17:18Z</time>
      </trkpt>
      <trkpt lat="44.33277" lon="6.61405">
        <ele>1331</ele>
        <time>2016-03-24T08:19:18Z</time>
      </trkpt>
      <trkpt lat="44.33252" lon="6.61396">
        <ele>1331</ele>
        <time>2016-03-24T08:21:18Z</time>
      </trkpt>
      <trkpt lat="44.33217" lon="6.61381">
        <ele>1331</ele>
        <time>2016-03-24T08:23:18Z</time>
      </trkpt>
      <trkpt lat="44.33207" lon="6.61378">
        <ele>1331</ele>
        <time>2016-03-24T08:25:18Z</time>
      </trkpt>
      <trkpt lat="44.33202" lon="6.61377">
        <ele>1331</ele>
        <time>2016-03-24T08:27:18Z</time>
      </trkpt>
      <trkpt lat="44.33197" lon="6.61377">
        <ele>1331</ele>
        <time>2016-03-24T08:29:18Z</time>
      </trkpt>
      <trkpt lat="44.33192" lon="6.61378">
        <ele>1331</ele>
        <time>2016-03-24T08:31:18Z</time>
      </trkpt>
      <trkpt lat="44.33184" lon="6.61381">
        <ele>1331</ele>
        <time>2016-03-24T08:33:18Z</time>
      </trkpt>
      <trkpt lat="44.33177" lon="6.61386">
        <ele>1331</ele>
        <time>2016-03-24T08:35:18Z</time>
      </trkpt>
      <trkpt lat="44.33163" lon="6.61399">
        <ele>1331</ele>
        <time>2016-03-24T08:37:18Z</time>
      </trkpt>
      <trkpt lat="44.33149" lon="6.61417">
        <ele>1465</ele>
        <time>2016-03-24T08:39:18Z</time>
      </trkpt>
      <trkpt lat="44.33139" lon="6.61428">
        <ele>1465</ele>
        <time>2016-03-24T08:41:18Z</time>
      </trkpt>
      <trkpt lat="44.33135" lon="6.61431">
        <ele>1465</ele>
        <time>2016-03-24T08:43:18Z</time>
      </trkpt>
      <trkpt lat="44.33131" lon="6.61433">
        <ele>1465</ele>
        <time>2016-03-24T08:45:18Z</time>
      </trkpt>
      <trkpt lat="44.33125" lon="6.61435">
        <ele>1465</ele>
        <time>2016-03-24T08:47:18Z</time>
      </trkpt>
      <trkpt lat="44.33086" lon="6.61437">
        <ele>1465</ele>
        <time>2016-03-24T08:49:18Z</time>
      </trkpt>
      <trkpt lat="44.33065" lon="6.61435">
        <ele>1504</ele>
        <time>2016-03-24T08:51:18Z</time>
      </trkpt>
      <trkpt lat="44.33058" lon="6.61433">
        <ele>1504</ele>
        <time>2016-03-24T08:53:18Z</time>
      </trkpt>
      <trkpt lat="44.33051" lon="6.61428">
        <ele>1504</ele>
        <time>2016-03-24T08:55:18Z</time>
      </trkpt>
      <trkpt lat="44.33027" lon="6.61402">
        <ele>1320</ele>
        <time>2016-03-24T08:57:18Z</time>
      </trkpt>
      <trkpt lat="44.33023" lon="6.614">
        <ele>1320</ele>
        <time>2016-03-24T08:59:18Z</time>
      </trkpt>
      <trkpt lat="44.33016" lon="6.61396">
        <ele>1320</ele>
        <time>2016-03-24T09:01:18Z</time>
      </trkpt>
      <trkpt lat="44.33011" lon="6.61394">
        <ele>1320</ele>
        <time>2016-03-24T09:03:18Z</time>
      </trkpt>
      <trkpt lat="44.32995" lon="6.61392">
        <ele>1340</ele>
        <time>2016-03-24T09:05:18Z</time>
      </trkpt>
      <trkpt lat="44.32984" lon="6.61384">
        <ele>1340</ele>
        <time>2016-03-24T09:07:18Z</time>
      </trkpt>
      <trkpt lat="44.32947" lon="6.6136">
        <ele>1340</ele>
        <time>2016-03-24T09:09:18Z</time>
      </trkpt>
      <trkpt lat="44.32933" lon="6.61348">
        <ele>1340</ele>
        <time>2016-03-24T09:11:18Z</time>
      </trkpt>
      <trkpt lat="44.32927" lon="6.61346">
        <ele>1340</ele>
        <time>2016-03-24T09:13:18Z</time>
      </trkpt>
      <trkpt lat="44.32919" lon="6.61343">
        <ele>1340</ele>
        <time>2016-03-24T09:15:18Z</time>
      </trkpt>
      <trkpt lat="44.32884" lon="6.6134">
        <ele>1326</ele>
        <time>2016-03-24T09:17:18Z</time>
      </trkpt>
      <trkpt lat="44.32874" lon="6.61343">
        <ele>1328</ele>
        <time>2016-03-24T09:19:18Z</time>
      </trkpt>
      <trkpt lat="44.32851" lon="6.61349">
        <ele>1331</ele>
        <time>2016-03-24T09:21:18Z</time>
      </trkpt>
      <trkpt lat="44.3283" lon="6.61344">
        <ele>1326</ele>
        <time>2016-03-24T09:23:18Z</time>
      </trkpt>
      <trkpt lat="44.32805" lon="6.61329">
        <ele>1320</ele>
        <time>2016-03-24T09:25:18Z</time>
      </trkpt>
      <trkpt lat="44.32801" lon="6.61328">
        <ele>1320</ele>
        <time>2016-03-24T09:27:18Z</time>
      </trkpt>
      <trkpt lat="44.32797" lon="6.61328">
        <ele>1320</ele>
        <time>2016-03-24T09:29:18Z</time>
      </trkpt>
      <trkpt lat="44.32789" lon="6.6133">
        <ele>1319</ele>
        <time>2016-03-24T09:31:18Z</time>
      </trkpt>
      <trkpt lat="44.32762" lon="6.61348">
        <ele>1322</ele>
        <time>2016-03-24T09:33:18Z</time>
      </trkpt>
      <trkpt lat="44.32731" lon="6.61371">
        <ele>1331</ele>
        <time>2016-03-24T09:35:18Z</time>
      </trkpt>
      <trkpt lat="44.32719" lon="6.61375">
        <ele>1333</ele>
        <time>2016-03-24T09:37:18Z</time>
      </trkpt>
      <trkpt lat="44.32709" lon="6.61378">
        <ele>1334</ele>
        <time>2016-03-24T09:39:18Z</time>
      </trkpt>
      <trkpt lat="44.32697" lon="6.61377">
        <ele>1334</ele>
        <time>2016-03-24T09:41:18Z</time>
      </trkpt>
      <trkpt lat="44.32684" lon="6.61376">
        <ele>1333</ele>
        <time>2016-03-24T09:43:18Z</time>
      </trkpt>
      <trkpt lat="44.32649" lon="6.6136">
        <ele>1336</ele>
        <time>2016-03-24T09:45:18Z</time>
      </trkpt>
      <trkpt lat="44.32641" lon="6.61354">
        <ele>1338</ele>
        <time>2016-03-24T09:47:18Z</time>
      </trkpt>
      <trkpt lat="44.3263" lon="6.61348">
        <ele>1341</ele>
        <time>2016-03-24T09:49:18Z</time>
      </trkpt>
      <trkpt lat="44.32622" lon="6.61344">
        <ele>1344</ele>
        <time>2016-03-24T09:51:18Z</time>
      </trkpt>
      <trkpt lat="44.32618" lon="6.61344">
        <ele>1345</ele>
        <time>2016-03-24T09:53:18Z</time>
      </trkpt>
      <trkpt lat="44.32614" lon="6.61345">
        <ele>1346</ele>
        <time>2016-03-24T09:55:18Z</time>
      </trkpt>
      <trkpt lat="44.3261" lon="6.61348">
        <ele>1346</ele>
        <time>2016-03-24T09:57:18Z</time>
      </trkpt>
      <trkpt lat="44.32602" lon="6.61358">
        <ele>1345</ele>
        <time>2016-03-24T09:59:18Z</time>
      </trkpt>
      <trkpt lat="44.32589" lon="6.6137">
        <ele>1344</ele>
        <time>2016-03-24T10:01:18Z</time>
      </trkpt>
      <trkpt lat="44.32576" lon="6.61377">
        <ele>1342</ele>
        <time>2016-03-24T10:03:18Z</time>
      </trkpt>
      <trkpt lat="44.32541" lon="6.61381">
        <ele>1342</ele>
        <time>2016-03-24T10:05:18Z</time>
      </trkpt>
      <trkpt lat="44.32484" lon="6.61382">
        <ele>1349</ele>
        <time>2016-03-24T10:07:18Z</time>
      </trkpt>
      <trkpt lat="44.3248" lon="6.61382">
        <ele>1351</ele>
        <time>2016-03-24T10:09:18Z</time>
      </trkpt>
      <trkpt lat="44.32471" lon="6.61382">
        <ele>1354</ele>
        <time>2016-03-24T10:11:18Z</time>
      </trkpt>
      <trkpt lat="44.32462" lon="6.61382">
        <ele>1358</ele>
        <time>2016-03-24T10:13:18Z</time>
      </trkpt>
      <trkpt lat="44.32453" lon="6.61383">
        <ele>1361</ele>
        <time>2016-03-24T10:15:18Z</time>
      </trkpt>
      <trkpt lat="44.32449" lon="6.61383">
        <ele>1362</ele>
        <time>2016-03-24T10:17:18Z</time>
      </trkpt>
      <trkpt lat="44.32443" lon="6.61386">
        <ele>1363</ele>
        <time>2016-03-24T10:19:18Z</time>
      </trkpt>
      <trkpt lat="44.32432" lon="6.61392">
        <ele>1362</ele>
        <time>2016-03-24T10:21:18Z</time>
      </trkpt>
      <trkpt lat="44.32419" lon="6.61402">
        <ele>1359</ele>
        <time>2016-03-24T10:23:18Z</time>
      </trkpt>
      <trkpt lat="44.32388" lon="6.61434">
        <ele>1352</ele>
        <time>2016-03-24T10:25:18Z</time>
      </trkpt>
      <trkpt lat="44.32345" lon="6.61471">
        <ele>1346</ele>
        <time>2016-03-24T10:27:18Z</time>
      </trkpt>
      <trkpt lat="44.32333" lon="6.61478">
        <ele>1344</ele>
        <time>2016-03-24T10:29:18Z</time>
      </trkpt>
      <trkpt lat="44.323" lon="6.61491">
        <ele>1344</ele>
        <time>2016-03-24T10:31:18Z</time>
      </trkpt>
      <trkpt lat="44.32276" lon="6.615">
        <ele>1346</ele>
        <time>2016-03-24T10:33:18Z</time>
      </trkpt>
      <trkpt lat="44.32267" lon="6.61506">
        <ele>1347</ele>
        <time>2016-03-24T10:35:18Z</time>
      </trkpt>
      <trkpt lat="44.32259" lon="6.61512">
        <ele>1348</ele>
        <time>2016-03-24T10:37:18Z</time>
      </trkpt>
      <trkpt lat="44.32253" lon="6.61518">
        <ele>1348</ele>
        <time>2016-03-24T10:39:18Z</time>
      </trkpt>
      <trkpt lat="44.32243" lon="6.61528">
        <ele>1351</ele>
        <time>2016-03-24T10:41:18Z</time>
      </trkpt>
      <trkpt lat="44.32237" lon="6.61539">
        <ele>1353</ele>
        <time>2016-03-24T10:43:18Z</time>
      </trkpt>
      <trkpt lat="44.32232" lon="6.61548">
        <ele>1353</ele>
        <time>2016-03-24T10:45:18Z</time>
      </trkpt>
      <trkpt lat="44.32229" lon="6.61554">
        <ele>1353</ele>
        <time>2016-03-24T10:47:18Z</time>
      </trkpt>
      <trkpt lat="44.32228" lon="6.61562">
        <ele>1351</ele>
        <time>2016-03-24T10:49:18Z</time>
      </trkpt>
      <trkpt lat="44.32238" lon="6.6162">
        <ele>1342</ele>
        <time>2016-03-24T10:51:18Z</time>
      </trkpt>
      <trkpt lat="44.3224" lon="6.6163">
        <ele>1343</ele>
        <time>2016-03-24T10:53:18Z</time>
      </trkpt>
      <trkpt lat="44.32242" lon="6.6164">
        <ele>1344</ele>
        <time>2016-03-24T10:55:18Z</time>
      </trkpt>
      <trkpt lat="44.32242" lon="6.61646">
        <ele>1345</ele>
        <time>2016-03-24T10:57:18Z</time>
      </trkpt>
      <trkpt lat="44.32241" lon="6.61653">
        <ele>1346</ele>
        <time>2016-03-24T10:59:18Z</time>
      </trkpt>
      <trkpt lat="44.3224" lon="6.6166">
        <ele>1347</ele>
        <time>2016-03-24T11:01:18Z</time>
      </trkpt>
      <trkpt lat="44.32238" lon="6.61665">
        <ele>1347</ele>
        <time>2016-03-24T11:03:18Z</time>
      </trkpt>
      <trkpt lat="44.32234" lon="6.6167">
        <ele>1348</ele>
        <time>2016-03-24T11:05:18Z</time>
      </trkpt>
      <trkpt lat="44.32167" lon="6.61733">
        <ele>1344</ele>
        <time>2016-03-24T11:07:18Z</time>
      </trkpt>
      <trkpt lat="44.32152" lon="6.61745">
        <ele>1346</ele>
        <time>2016-03-24T11:09:18Z</time>
      </trkpt>
      <trkpt lat="44.32135" lon="6.61756">
        <ele>1348</ele>
        <time>2016-03-24T11:11:18Z</time>
      </trkpt>
      <trkpt lat="44.3213" lon="6.6176">
        <ele>1349</ele>
        <time>2016-03-24T11:13:18Z</time>
      </trkpt>
      <trkpt lat="44.32126" lon="6.61765">
        <ele>1350</ele>
        <time>2016-03-24T11:15:18Z</time>
      </trkpt>
      <trkpt lat="44.32116" lon="6.6179">
        <ele>1356</ele>
        <time>2016-03-24T11:17:18Z</time>
      </trkpt>
      <trkpt lat="44.3211" lon="6.61804">
        <ele>1358</ele>
        <time>2016-03-24T11:19:18Z</time>
      </trkpt>
      <trkpt lat="44.32107" lon="6.61812">
        <ele>1359</ele>
        <time>2016-03-24T11:21:18Z</time>
      </trkpt>
      <trkpt lat="44.32102" lon="6.61818">
        <ele>1358</ele>
        <time>2016-03-24T11:23:18Z</time>
      </trkpt>
      <trkpt lat="44.32096" lon="6.61826">
        <ele>1357</ele>
        <time>2016-03-24T11:25:18Z</time>
      </trkpt>
      <trkpt lat="44.32093" lon="6.61829">
        <ele>1356</ele>
        <time>2016-03-24T11:27:18Z</time>
      </trkpt>
      <trkpt lat="44.32081" lon="6.61839">
        <ele>1354</ele>
        <time>2016-03-24T11:29:18Z</time>
      </trkpt>
      <trkpt lat="44.32076" lon="6.61844">
        <ele>1358</ele>
        <time>2016-03-24T11:31:18Z</time>
      </trkpt>
      <trkpt lat="44.32074" lon="6.61848">
        <ele>1361</ele>
        <time>2016-03-24T11:33:18Z</time>
      </trkpt>
      <trkpt lat="44.32071" lon="6.61854">
        <ele>1364</ele>
        <time>2016-03-24T11:35:18Z</time>
      </trkpt>
      <trkpt lat="44.32069" lon="6.6186">
        <ele>1366</ele>
        <time>2016-03-24T11:37:18Z</time>
      </trkpt>
      <trkpt lat="44.32068" lon="6.61865">
        <ele>1368</ele>
        <time>2016-03-24T11:39:18Z</time>
      </trkpt>
      <trkpt lat="44.32054" lon="6.6192">
        <ele>1384</ele>
        <time>2016-03-24T11:41:18Z</time>
      </trkpt>
      <trkpt lat="44.32045" lon="6.61969">
        <ele>1387</ele>
        <time>2016-03-24T11:43:18Z</time>
      </trkpt>
      <trkpt lat="44.3204" lon="6.62005">
        <ele>1387</ele>
        <time>2016-03-24T11:45:18Z</time>
      </trkpt>
      <trkpt lat="44.32039" lon="6.62031">
        <ele>1383</ele>
        <time>2016-03-24T11:47:18Z</time>
      </trkpt>
      <trkpt lat="44.32039" lon="6.62049">
        <ele>1381</ele>
        <time>2016-03-24T11:49:18Z</time>
      </trkpt>
      <trkpt lat="44.32039" lon="6.62061">
        <ele>1379</ele>
        <time>2016-03-24T11:51:18Z</time>
      </trkpt>
      <trkpt lat="44.32037" lon="6.62128">
        <ele>1370</ele>
        <time>2016-03-24T11:53:18Z</time>
      </trkpt>
      <trkpt lat="44.32035" lon="6.6214">
        <ele>1370</ele>
        <time>2016-03-24T11:55:18Z</time>
      </trkpt>
      <trkpt lat="44.32034" lon="6.62151">
        <ele>1370</ele>
        <time>2016-03-24T11:57:18Z</time>
      </trkpt>
      <trkpt lat="44.32027" lon="6.62184">
        <ele>1357</ele>
        <time>2016-03-24T11:59:18Z</time>
      </trkpt>
      <trkpt lat="44.32023" lon="6.6221">
        <ele>1357</ele>
        <time>2016-03-24T12:01:18Z</time>
      </trkpt>
      <trkpt lat="44.32019" lon="6.62241">
        <ele>1357</ele>
        <time>2016-03-24T12:03:18Z</time>
      </trkpt>
      <trkpt lat="44.32018" lon="6.62264">
        <ele>1365</ele>
        <time>2016-03-24T12:05:18Z</time>
      </trkpt>
      <trkpt lat="44.32016" lon="6.62279">
        <ele>1365</ele>
        <time>2016-03-24T12:07:18Z</time>
      </trkpt>
      <trkpt lat="44.32013" lon="6.62293">
        <ele>1365</ele>
        <time>2016-03-24T12:09:18Z</time>
      </trkpt>
      <trkpt lat="44.32011" lon="6.62301">
        <ele>1365</ele>
        <time>2016-03-24T12:11:18Z</time>
      </trkpt>
      <trkpt lat="44.32008" lon="6.6231">
        <ele>1365</ele>
        <time>2016-03-24T12:13:18Z</time>
      </trkpt>
      <trkpt lat="44.32004" lon="6.6232">
        <ele>1365</ele>
        <time>2016-03-24T12:15:18Z</time>
      </trkpt>
      <trkpt lat="44.31999" lon="6.6233">
        <ele>1371</ele>
        <time>2016-03-24T12:17:18Z</time>
      </trkpt>
      <trkpt lat="44.31998" lon="6.62334">
        <ele>1371</ele>
        <time>2016-03-24T12:19:18Z</time>
      </trkpt>
      <trkpt lat="44.31997" lon="6.62337">
        <ele>1372</ele>
        <time>2016-03-24T12:21:18Z</time>
      </trkpt>
      <trkpt lat="44.31998" lon="6.62342">
        <ele>1372</ele>
        <time>2016-03-24T12:23:18Z</time>
      </trkpt>
      <trkpt lat="44.31998" lon="6.62346">
        <ele>1373</ele>
        <time>2016-03-24T12:25:18Z</time>
      </trkpt>
      <trkpt lat="44.32012" lon="6.62379">
        <ele>1375</ele>
        <time>2016-03-24T12:27:18Z</time>
      </trkpt>
      <trkpt lat="44.32018" lon="6.62397">
        <ele>1375</ele>
        <time>2016-03-24T12:29:18Z</time>
      </trkpt>
      <trkpt lat="44.32024" lon="6.62415">
        <ele>1375</ele>
        <time>2016-03-24T12:31:18Z</time>
      </trkpt>
      <trkpt lat="44.32029" lon="6.62434">
        <ele>1375</ele>
        <time>2016-03-24T12:33:18Z</time>
      </trkpt>
      <trkpt lat="44.32033" lon="6.62452">
        <ele>1375</ele>
        <time>2016-03-24T12:35:18Z</time>
      </trkpt>
      <trkpt lat="44.32034" lon="6.62466">
        <ele>1375</ele>
        <time>2016-03-24T12:37:18Z</time>
      </trkpt>
      <trkpt lat="44.32033" lon="6.62479">
        <ele>1375</ele>
        <time>2016-03-24T12:39:18Z</time>
      </trkpt>
      <trkpt lat="44.32033" lon="6.62482">
        <ele>1375</ele>
        <time>2016-03-24T12:41:18Z</time>
      </trkpt>
      <trkpt lat="44.32032" lon="6.62485">
        <ele>1375</ele>
        <time>2016-03-24T12:43:18Z</time>
      </trkpt>
      <trkpt lat="44.3203" lon="6.62489">
        <ele>1375</ele>
        <time>2016-03-24T12:45:18Z</time>
      </trkpt>
      <trkpt lat="44.32027" lon="6.62496">
        <ele>1375</ele>
        <time>2016-03-24T12:47:18Z</time>
      </trkpt>
      <trkpt lat="44.32025" lon="6.62502">
        <ele>1377</ele>
        <time>2016-03-24T12:49:18Z</time>
      </trkpt>
      <trkpt lat="44.32024" lon="6.62507">
        <ele>1377</ele>
        <time>2016-03-24T12:51:18Z</time>
      </trkpt>
      <trkpt lat="44.32015" lon="6.6257">
        <ele>1377</ele>
        <time>2016-03-24T12:53:18Z</time>
      </trkpt>
      <trkpt lat="44.32015" lon="6.62587">
        <ele>1392</ele>
        <time>2016-03-24T12:55:18Z</time>
      </trkpt>
      <trkpt lat="44.32014" lon="6.626">
        <ele>1392</ele>
        <time>2016-03-24T12:57:18Z</time>
      </trkpt>
      <trkpt lat="44.32012" lon="6.6261">
        <ele>1392</ele>
        <time>2016-03-24T12:59:18Z</time>
      </trkpt>
      <trkpt lat="44.32008" lon="6.62618">
        <ele>1392</ele>
        <time>2016-03-24T13:01:18Z</time>
      </trkpt>
      <trkpt lat="44.32004" lon="6.62625">
        <ele>1392</ele>
        <time>2016-03-24T13:03:18Z</time>
      </trkpt>
      <trkpt lat="44.32" lon="6.62631">
        <ele>1392</ele>
        <time>2016-03-24T13:05:18Z</time>
      </trkpt>
      <trkpt lat="44.31991" lon="6.62645">
        <ele>1395</ele>
        <time>2016-03-24T13:07:18Z</time>
      </trkpt>
      <trkpt lat="44.31988" lon="6.62652">
        <ele>1396</ele>
        <time>2016-03-24T13:09:18Z</time>
      </trkpt>
      <trkpt lat="44.31986" lon="6.6266">
        <ele>1397</ele>
        <time>2016-03-24T13:11:18Z</time>
      </trkpt>
      <trkpt lat="44.31985" lon="6.62674">
        <ele>1399</ele>
        <time>2016-03-24T13:13:18Z</time>
      </trkpt>
      <trkpt lat="44.31984" lon="6.62683">
        <ele>1400</ele>
        <time>2016-03-24T13:15:18Z</time>
      </trkpt>
      <trkpt lat="44.3198" lon="6.62693">
        <ele>1401</ele>
        <time>2016-03-24T13:17:18Z</time>
      </trkpt>
      <trkpt lat="44.31957" lon="6.62723">
        <ele>1400</ele>
        <time>2016-03-24T13:19:18Z</time>
      </trkpt>
      <trkpt lat="44.31943" lon="6.62741">
        <ele>1398</ele>
        <time>2016-03-24T13:21:18Z</time>
      </trkpt>
      <trkpt lat="44.31926" lon="6.62769">
        <ele>1399</ele>
        <time>2016-03-24T13:23:18Z</time>
      </trkpt>
      <trkpt lat="44.31919" lon="6.62782">
        <ele>1400</ele>
        <time>2016-03-24T13:25:18Z</time>
      </trkpt>
      <trkpt lat="44.31913" lon="6.62796">
        <ele>1403</ele>
        <time>2016-03-24T13:27:18Z</time>
      </trkpt>
      <trkpt lat="44.31909" lon="6.62809">
        <ele>1406</ele>
        <time>2016-03-24T13:29:18Z</time>
      </trkpt>
      <trkpt lat="44.31906" lon="6.62822">
        <ele>1409</ele>
        <time>2016-03-24T13:31:18Z</time>
      </trkpt>
      <trkpt lat="44.31903" lon="6.62849">
        <ele>1415</ele>
        <time>2016-03-24T13:33:18Z</time>
      </trkpt>
      <trkpt lat="44.31898" lon="6.6287">
        <ele>1418</ele>
        <time>2016-03-24T13:35:18Z</time>
      </trkpt>
      <trkpt lat="44.31891" lon="6.62897">
        <ele>1421</ele>
        <time>2016-03-24T13:37:18Z</time>
      </trkpt>
      <trkpt lat="44.31878" lon="6.62948">
        <ele>1423</ele>
        <time>2016-03-24T13:39:18Z</time>
      </trkpt>
      <trkpt lat="44.31876" lon="6.62956">
        <ele>1424</ele>
        <time>2016-03-24T13:41:18Z</time>
      </trkpt>
      <trkpt lat="44.31872" lon="6.62965">
        <ele>1423</ele>
        <time>2016-03-24T13:43:18Z</time>
      </trkpt>
      <trkpt lat="44.31861" lon="6.62991">
        <ele>1421</ele>
        <time>2016-03-24T13:45:18Z</time>
      </trkpt>
      <trkpt lat="44.31859" lon="6.62996">
        <ele>1421</ele>
        <time>2016-03-24T13:47:18Z</time>
      </trkpt>
      <trkpt lat="44.31858" lon="6.63002">
        <ele>1421</ele>
        <time>2016-03-24T13:49:18Z</time>
      </trkpt>
      <trkpt lat="44.31859" lon="6.63007">
        <ele>1422</ele>
        <time>2016-03-24T13:51:18Z</time>
      </trkpt>
      <trkpt lat="44.3186" lon="6.63015">
        <ele>1422</ele>
        <time>2016-03-24T13:53:18Z</time>
      </trkpt>
      <trkpt lat="44.31865" lon="6.6304">
        <ele>1424</ele>
        <time>2016-03-24T13:55:18Z</time>
      </trkpt>
      <trkpt lat="44.31875" lon="6.63085">
        <ele>1426</ele>
        <time>2016-03-24T13:57:18Z</time>
      </trkpt>
      <trkpt lat="44.31879" lon="6.63096">
        <ele>1427</ele>
        <time>2016-03-24T13:59:18Z</time>
      </trkpt>
      <trkpt lat="44.31882" lon="6.6311">
        <ele>1427</ele>
        <time>2016-03-24T14:01:18Z</time>
      </trkpt>
      <trkpt lat="44.31882" lon="6.63116">
        <ele>1427</ele>
        <time>2016-03-24T14:03:18Z</time>
      </trkpt>
      <trkpt lat="44.31882" lon="6.63123">
        <ele>1426</ele>
        <time>2016-03-24T14:05:18Z</time>
      </trkpt>
      <trkpt lat="44.31875" lon="6.63166">
        <ele>1424</ele>
        <time>2016-03-24T14:07:18Z</time>
      </trkpt>
      <trkpt lat="44.31873" lon="6.63183">
        <ele>1426</ele>
        <time>2016-03-24T14:09:18Z</time>
      </trkpt>
      <trkpt lat="44.31872" lon="6.63198">
        <ele>1428</ele>
        <time>2016-03-24T14:11:18Z</time>
      </trkpt>
      <trkpt lat="44.31871" lon="6.63217">
        <ele>1430</ele>
        <time>2016-03-24T14:13:18Z</time>
      </trkpt>
      <trkpt lat="44.31869" lon="6.6323">
        <ele>1431</ele>
        <time>2016-03-24T14:15:18Z</time>
      </trkpt>
      <trkpt lat="44.31866" lon="6.63245">
        <ele>1432</ele>
        <time>2016-03-24T14:17:18Z</time>
      </trkpt>
      <trkpt lat="44.31863" lon="6.63262">
        <ele>1431</ele>
        <time>2016-03-24T14:19:18Z</time>
      </trkpt>
      <trkpt lat="44.31862" lon="6.63288">
        <ele>1430</ele>
        <time>2016-03-24T14:21:18Z</time>
      </trkpt>
      <trkpt lat="44.31864" lon="6.63327">
        <ele>1429</ele>
        <time>2016-03-24T14:23:18Z</time>
      </trkpt>
      <trkpt lat="44.31869" lon="6.63364">
        <ele>1428</ele>
        <time>2016-03-24T14:25:18Z</time>
      </trkpt>
      <trkpt lat="44.31869" lon="6.63379">
        <ele>1428</ele>
        <time>2016-03-24T14:27:18Z</time>
      </trkpt>
      <trkpt lat="44.31867" lon="6.63389">
        <ele>1428</ele>
        <time>2016-03-24T14:29:18Z</time>
      </trkpt>
      <trkpt lat="44.31865" lon="6.63399">
        <ele>1428</ele>
        <time>2016-03-24T14:31:18Z</time>
      </trkpt>
      <trkpt lat="44.31861" lon="6.63411">
        <ele>1428</ele>
        <time>2016-03-24T14:33:18Z</time>
      </trkpt>
      <trkpt lat="44.3184" lon="6.63455">
        <ele>1425</ele>
        <time>2016-03-24T14:35:18Z</time>
      </trkpt>
      <trkpt lat="44.31837" lon="6.63465">
        <ele>1425</ele>
        <time>2016-03-24T14:37:18Z</time>
      </trkpt>
      <trkpt lat="44.31835" lon="6.63475">
        <ele>1425</ele>
        <time>2016-03-24T14:39:18Z</time>
      </trkpt>
      <trkpt lat="44.31834" lon="6.63486">
        <ele>1425</ele>
        <time>2016-03-24T14:41:18Z</time>
      </trkpt>
      <trkpt lat="44.31833" lon="6.63529">
        <ele>1430</ele>
        <time>2016-03-24T14:43:18Z</time>
      </trkpt>
      <trkpt lat="44.31831" lon="6.6357">
        <ele>1430</ele>
        <time>2016-03-24T14:45:18Z</time>
      </trkpt>
      <trkpt lat="44.31831" lon="6.63597">
        <ele>1434</ele>
        <time>2016-03-24T14:47:18Z</time>
      </trkpt>
      <trkpt lat="44.3183" lon="6.63624">
        <ele>1441</ele>
        <time>2016-03-24T14:49:18Z</time>
      </trkpt>
      <trkpt lat="44.3183" lon="6.63634">
        <ele>1443</ele>
        <time>2016-03-24T14:51:18Z</time>
      </trkpt>
      <trkpt lat="44.3183" lon="6.63643">
        <ele>1446</ele>
        <time>2016-03-24T14:53:18Z</time>
      </trkpt>
      <trkpt lat="44.31828" lon="6.63657">
        <ele>1449</ele>
        <time>2016-03-24T14:55:18Z</time>
      </trkpt>
      <trkpt lat="44.31824" lon="6.63675">
        <ele>1453</ele>
        <time>2016-03-24T14:57:18Z</time>
      </trkpt>
      <trkpt lat="44.31821" lon="6.63687">
        <ele>1455</ele>
        <time>2016-03-24T14:59:18Z</time>
      </trkpt>
      <trkpt lat="44.3182" lon="6.63696">
        <ele>1457</ele>
        <time>2016-03-24T15:01:18Z</time>
      </trkpt>
      <trkpt lat="44.3182" lon="6.63709">
        <ele>1460</ele>
        <time>2016-03-24T15:03:18Z</time>
      </trkpt>
      <trkpt lat="44.3182" lon="6.63724">
        <ele>1463</ele>
        <time>2016-03-24T15:05:18Z</time>
      </trkpt>
      <trkpt lat="44.31822" lon="6.63736">
        <ele>1467</ele>
        <time>2016-03-24T15:07:18Z</time>
      </trkpt>
      <trkpt lat="44.31825" lon="6.63777">
        <ele>1469</ele>
        <time>2016-03-24T15:09:18Z</time>
      </trkpt>
      <trkpt lat="44.31827" lon="6.63819">
        <ele>1467</ele>
        <time>2016-03-24T15:11:18Z</time>
      </trkpt>
      <trkpt lat="44.3183" lon="6.63861">
        <ele>1469</ele>
        <time>2016-03-24T15:13:18Z</time>
      </trkpt>
      <trkpt lat="44.31835" lon="6.63964">
        <ele>1463</ele>
        <time>2016-03-24T15:15:18Z</time>
      </trkpt>
      <trkpt lat="44.31837" lon="6.63984">
        <ele>1460</ele>
        <time>2016-03-24T15:17:18Z</time>
      </trkpt>
      <trkpt lat="44.31848" lon="6.64062">
        <ele>1467</ele>
        <time>2016-03-24T15:19:18Z</time>
      </trkpt>
      <trkpt lat="44.31849" lon="6.64074">
        <ele>1468</ele>
        <time>2016-03-24T15:21:18Z</time>
      </trkpt>
      <trkpt lat="44.31849" lon="6.64083">
        <ele>1468</ele>
        <time>2016-03-24T15:23:18Z</time>
      </trkpt>
      <trkpt lat="44.31846" lon="6.64091">
        <ele>1465</ele>
        <time>2016-03-24T15:25:18Z</time>
      </trkpt>
      <trkpt lat="44.31843" lon="6.64099">
        <ele>1462</ele>
        <time>2016-03-24T15:27:18Z</time>
      </trkpt>
      <trkpt lat="44.31841" lon="6.64116">
        <ele>1461</ele>
        <time>2016-03-24T15:29:18Z</time>
      </trkpt>
      <trkpt lat="44.31839" lon="6.64138">
        <ele>1460</ele>
        <time>2016-03-24T15:31:18Z</time>
      </trkpt>
      <trkpt lat="44.31839" lon="6.64154">
        <ele>1461</ele>
        <time>2016-03-24T15:33:18Z</time>
      </trkpt>
      <trkpt lat="44.3184" lon="6.64184">
        <ele>1462</ele>
        <time>2016-03-24T15:35:18Z</time>
      </trkpt>
      <trkpt lat="44.3184" lon="6.64194">
        <ele>1462</ele>
        <time>2016-03-24T15:37:18Z</time>
      </trkpt>
      <trkpt lat="44.3184" lon="6.64238">
        <ele>1461</ele>
        <time>2016-03-24T15:39:18Z</time>
      </trkpt>
      <trkpt lat="44.31842" lon="6.64259">
        <ele>1462</ele>
        <time>2016-03-24T15:41:18Z</time>
      </trkpt>
      <trkpt lat="44.31847" lon="6.6429">
        <ele>1464</ele>
        <time>2016-03-24T15:43:18Z</time>
      </trkpt>
      <trkpt lat="44.31854" lon="6.64328">
        <ele>1467</ele>
        <time>2016-03-24T15:45:18Z</time>
      </trkpt>
      <trkpt lat="44.31857" lon="6.64337">
        <ele>1468</ele>
        <time>2016-03-24T15:47:18Z</time>
      </trkpt>
      <trkpt lat="44.31863" lon="6.6435">
        <ele>1468</ele>
        <time>2016-03-24T15:49:18Z</time>
      </trkpt>
      <trkpt lat="44.31868" lon="6.64359">
        <ele>1469</ele>
        <time>2016-03-24T15:51:18Z</time>
      </trkpt>
      <trkpt lat="44.31871" lon="6.6437">
        <ele>1468</ele>
        <time>2016-03-24T15:53:18Z</time>
      </trkpt>
      <trkpt lat="44.31871" lon="6.64385">
        <ele>1464</ele>
        <time>2016-03-24T15:55:18Z</time>
      </trkpt>
      <trkpt lat="44.31872" lon="6.64396">
        <ele>1462</ele>
        <time>2016-03-24T15:57:18Z</time>
      </trkpt>
      <trkpt lat="44.31874" lon="6.64406">
        <ele>1461</ele>
        <time>2016-03-24T15:59:18Z</time>
      </trkpt>
      <trkpt lat="44.31879" lon="6.64416">
        <ele>1460</ele>
        <time>2016-03-24T16:01:18Z</time>
      </trkpt>
      <trkpt lat="44.31885" lon="6.64424">
        <ele>1461</ele>
        <time>2016-03-24T16:03:18Z</time>
      </trkpt>
      <trkpt lat="44.31891" lon="6.64435">
        <ele>1463</ele>
        <time>2016-03-24T16:05:18Z</time>
      </trkpt>
      <trkpt lat="44.31896" lon="6.64455">
        <ele>1464</ele>
        <time>2016-03-24T16:07:18Z</time>
      </trkpt>
      <trkpt lat="44.31902" lon="6.64484">
        <ele>1466</ele>
        <time>2016-03-24T16:09:18Z</time>
      </trkpt>
      <trkpt lat="44.31906" lon="6.6453">
        <ele>1466</ele>
        <time>2016-03-24T16:11:18Z</time>
      </trkpt>
      <trkpt lat="44.31906" lon="6.64565">
        <ele>1465</ele>
        <time>2016-03-24T16:13:18Z</time>
      </trkpt>
      <trkpt lat="44.31906" lon="6.64634">
        <ele>1467</ele>
        <time>2016-03-24T16:15:18Z</time>
      </trkpt>
      <trkpt lat="44.31906" lon="6.6467">
        <ele>1468</ele>
        <time>2016-03-24T16:17:18Z</time>
      </trkpt>
      <trkpt lat="44.31909" lon="6.64697">
        <ele>1468</ele>
        <time>2016-03-24T16:19:18Z</time>
      </trkpt>
      <trkpt lat="44.31911" lon="6.6471">
        <ele>1468</ele>
        <time>2016-03-24T16:21:18Z</time>
      </trkpt>
      <trkpt lat="44.31914" lon="6.64725">
        <ele>1468</ele>
        <time>2016-03-24T16:23:18Z</time>
      </trkpt>
      <trkpt lat="44.31916" lon="6.64737">
        <ele>1468</ele>
        <time>2016-03-24T16:25:18Z</time>
      </trkpt>
      <trkpt lat="44.31918" lon="6.64748">
        <ele>1470</ele>
        <time>2016-03-24T16:27:18Z</time>
      </trkpt>
      <trkpt lat="44.31919" lon="6.64753">
        <ele>1468</ele>
        <time>2016-03-24T16:29:18Z</time>
      </trkpt>
      <trkpt lat="44.31925" lon="6.6479">
        <ele>1468</ele>
        <time>2016-03-24T16:31:18Z</time>
      </trkpt>
      <trkpt lat="44.31928" lon="6.64816">
        <ele>1468</ele>
        <time>2016-03-24T16:33:18Z</time>
      </trkpt>
      <trkpt lat="44.3193" lon="6.64895">
        <ele>1473</ele>
        <time>2016-03-24T16:35:18Z</time>
      </trkpt>
      <trkpt lat="44.31934" lon="6.64983">
        <ele>1478</ele>
        <time>2016-03-24T16:37:18Z</time>
      </trkpt>
      <trkpt lat="44.31936" lon="6.65041">
        <ele>1482</ele>
        <time>2016-03-24T16:39:18Z</time>
      </trkpt>
      <trkpt lat="44.31939" lon="6.65087">
        <ele>1478</ele>
        <time>2016-03-24T16:41:18Z</time>
      </trkpt>
      <trkpt lat="44.3194" lon="6.65099">
        <ele>1478</ele>
        <time>2016-03-24T16:43:18Z</time>
      </trkpt>
      <trkpt lat="44.3195" lon="6.65142">
        <ele>1484</ele>
        <time>2016-03-24T16:45:18Z</time>
      </trkpt>
      <trkpt lat="44.31951" lon="6.65146">
        <ele>1484</ele>
        <time>2016-03-24T16:47:18Z</time>
      </trkpt>
      <trkpt lat="44.31952" lon="6.65154">
        <ele>1485</ele>
        <time>2016-03-24T16:49:18Z</time>
      </trkpt>
      <trkpt lat="44.31955" lon="6.65167">
        <ele>1488</ele>
        <time>2016-03-24T16:51:18Z</time>
      </trkpt>
      <trkpt lat="44.31957" lon="6.65179">
        <ele>1488</ele>
        <time>2016-03-24T16:53:18Z</time>
      </trkpt>
      <trkpt lat="44.3196" lon="6.65186">
        <ele>1489</ele>
        <time>2016-03-24T16:55:18Z</time>
      </trkpt>
      <trkpt lat="44.31964" lon="6.65199">
        <ele>1491</ele>
        <time>2016-03-24T16:57:18Z</time>
      </trkpt>
      <trkpt lat="44.31972" lon="6.65228">
        <ele>1493</ele>
        <time>2016-03-24T16:59:18Z</time>
      </trkpt>
      <trkpt lat="44.31973" lon="6.65241">
        <ele>1493</ele>
        <time>2016-03-24T17:01:18Z</time>
      </trkpt>
      <trkpt lat="44.31974" lon="6.65256">
        <ele>1493</ele>
        <time>2016-03-24T17:03:18Z</time>
      </trkpt>
      <trkpt lat="44.31971" lon="6.65303">
        <ele>1491</ele>
        <time>2016-03-24T17:05:18Z</time>
      </trkpt>
      <trkpt lat="44.31971" lon="6.6531">
        <ele>1491</ele>
        <time>2016-03-24T17:07:18Z</time>
      </trkpt>
      <trkpt lat="44.3197" lon="6.65318">
        <ele>1490</ele>
        <time>2016-03-24T17:09:18Z</time>
      </trkpt>
      <trkpt lat="44.3197" lon="6.65326">
        <ele>1490</ele>
        <time>2016-03-24T17:11:18Z</time>
      </trkpt>
      <trkpt lat="44.31969" lon="6.6534">
        <ele>1490</ele>
        <time>2016-03-24T17:13:18Z</time>
      </trkpt>
      <trkpt lat="44.31966" lon="6.65387">
        <ele>1490</ele>
        <time>2016-03-24T17:15:18Z</time>
      </trkpt>
      <trkpt lat="44.31965" lon="6.65447">
        <ele>1492</ele>
        <time>2016-03-24T17:17:18Z</time>
      </trkpt>
      <trkpt lat="44.31961" lon="6.6551">
        <ele>1492</ele>
        <time>2016-03-24T17:19:18Z</time>
      </trkpt>
      <trkpt lat="44.31961" lon="6.65524">
        <ele>1492</ele>
        <time>2016-03-24T17:21:18Z</time>
      </trkpt>
      <trkpt lat="44.31962" lon="6.65538">
        <ele>1494</ele>
        <time>2016-03-24T17:23:18Z</time>
      </trkpt>
      <trkpt lat="44.31963" lon="6.65547">
        <ele>1494</ele>
        <time>2016-03-24T17:25:18Z</time>
      </trkpt>
      <trkpt lat="44.31965" lon="6.65555">
        <ele>1496</ele>
        <time>2016-03-24T17:27:18Z</time>
      </trkpt>
      <trkpt lat="44.31967" lon="6.65563">
        <ele>1497</ele>
        <time>2016-03-24T17:29:18Z</time>
      </trkpt>
      <trkpt lat="44.31967" lon="6.65569">
        <ele>1497</ele>
        <time>2016-03-24T17:31:18Z</time>
      </trkpt>
      <trkpt lat="44.31966" lon="6.65584">
        <ele>1498</ele>
        <time>2016-03-24T17:33:18Z</time>
      </trkpt>
      <trkpt lat="44.31966" lon="6.6559">
        <ele>1497</ele>
        <time>2016-03-24T17:35:18Z</time>
      </trkpt>
      <trkpt lat="44.31966" lon="6.65593">
        <ele>1497</ele>
        <time>2016-03-24T17:37:18Z</time>
      </trkpt>
      <trkpt lat="44.31966" lon="6.65608">
        <ele>1497</ele>
        <time>2016-03-24T17:39:18Z</time>
      </trkpt>
      <trkpt lat="44.31967" lon="6.6562">
        <ele>1497</ele>
        <time>2016-03-24T17:41:18Z</time>
      </trkpt>
      <trkpt lat="44.3197" lon="6.65632">
        <ele>1497</ele>
        <time>2016-03-24T17:43:18Z</time>
      </trkpt>
      <trkpt lat="44.31974" lon="6.65643">
        <ele>1498</ele>
        <time>2016-03-24T17:45:18Z</time>
      </trkpt>
      <trkpt lat="44.31981" lon="6.65652">
        <ele>1500</ele>
        <time>2016-03-24T17:47:18Z</time>
      </trkpt>
      <trkpt lat="44.32001" lon="6.6567">
        <ele>1504</ele>
        <time>2016-03-24T17:49:18Z</time>
      </trkpt>
      <trkpt lat="44.32033" lon="6.65703">
        <ele>1513</ele>
        <time>2016-03-24T17:51:18Z</time>
      </trkpt>
      <trkpt lat="44.32039" lon="6.6571">
        <ele>1515</ele>
        <time>2016-03-24T17:53:18Z</time>
      </trkpt>
      <trkpt lat="44.32042" lon="6.65715">
        <ele>1515</ele>
        <time>2016-03-24T17:55:18Z</time>
      </trkpt>
      <trkpt lat="44.32049" lon="6.65727">
        <ele>1516</ele>
        <time>2016-03-24T17:57:18Z</time>
      </trkpt>
      <trkpt lat="44.32056" lon="6.65752">
        <ele>1515</ele>
        <time>2016-03-24T17:59:18Z</time>
      </trkpt>
      <trkpt lat="44.32063" lon="6.6578">
        <ele>1514</ele>
        <time>2016-03-24T18:01:18Z</time>
      </trkpt>
      <trkpt lat="44.32081" lon="6.65822">
        <ele>1515</ele>
        <time>2016-03-24T18:03:18Z</time>
      </trkpt>
      <trkpt lat="44.3209" lon="6.6584">
        <ele>1515</ele>
        <time>2016-03-24T18:05:18Z</time>
      </trkpt>
      <trkpt lat="44.32099" lon="6.65856">
        <ele>1516</ele>
        <time>2016-03-24T18:07:18Z</time>
      </trkpt>
      <trkpt lat="44.3213" lon="6.65897">
        <ele>1520</ele>
        <time>2016-03-24T18:09:18Z</time>
      </trkpt>
      <trkpt lat="44.32154" lon="6.65925">
        <ele>1524</ele>
        <time>2016-03-24T18:11:18Z</time>
      </trkpt>
      <trkpt lat="44.32166" lon="6.65942">
        <ele>1525</ele>
        <time>2016-03-24T18:13:18Z</time>
      </trkpt>
      <trkpt lat="44.32167" lon="6.65943">
        <ele>1525</ele>
        <time>2016-03-24T18:15:18Z</time>
      </trkpt>
      <trkpt lat="44.32175" lon="6.65958">
        <ele>1526</ele>
        <time>2016-03-24T18:17:18Z</time>
      </trkpt>
      <trkpt lat="44.3219" lon="6.65981">
        <ele>1527</ele>
        <time>2016-03-24T18:19:18Z</time>
      </trkpt>
      <trkpt lat="44.32205" lon="6.66009">
        <ele>1527</ele>
        <time>2016-03-24T18:21:18Z</time>
      </trkpt>
      <trkpt lat="44.32212" lon="6.6602">
        <ele>1528</ele>
        <time>2016-03-24T18:23:18Z</time>
      </trkpt>
      <trkpt lat="44.3222" lon="6.66028">
        <ele>1530</ele>
        <time>2016-03-24T18:25:18Z</time>
      </trkpt>
      <trkpt lat="44.32224" lon="6.66033">
        <ele>1530</ele>
        <time>2016-03-24T18:27:18Z</time>
      </trkpt>
      <trkpt lat="44.3223" lon="6.66036">
        <ele>1532</ele>
        <time>2016-03-24T18:29:18Z</time>
      </trkpt>
      <trkpt lat="44.32236" lon="6.66039">
        <ele>1533</ele>
        <time>2016-03-24T18:31:18Z</time>
      </trkpt>
      <trkpt lat="44.32243" lon="6.6604">
        <ele>1535</ele>
        <time>2016-03-24T18:33:18Z</time>
      </trkpt>
      <trkpt lat="44.32248" lon="6.66039">
        <ele>1537</ele>
        <time>2016-03-24T18:35:18Z</time>
      </trkpt>
      <trkpt lat="44.32252" lon="6.66037">
        <ele>1538</ele>
        <time>2016-03-24T18:37:18Z</time>
      </trkpt>
      <trkpt lat="44.3226" lon="6.66032">
        <ele>1542</ele>
        <time>2016-03-24T18:39:18Z</time>
      </trkpt>
      <trkpt lat="44.32268" lon="6.66029">
        <ele>1545</ele>
        <time>2016-03-24T18:41:18Z</time>
      </trkpt>
      <trkpt lat="44.32273" lon="6.6603">
        <ele>1547</ele>
        <time>2016-03-24T18:43:18Z</time>
      </trkpt>
      <trkpt lat="44.32277" lon="6.66034">
        <ele>1549</ele>
        <time>2016-03-24T18:45:18Z</time>
      </trkpt>
      <trkpt lat="44.3228" lon="6.66041">
        <ele>1549</ele>
        <time>2016-03-24T18:47:18Z</time>
      </trkpt>
      <trkpt lat="44.32281" lon="6.66047">
        <ele>1550</ele>
        <time>2016-03-24T18:49:18Z</time>
      </trkpt>
      <trkpt lat="44.32282" lon="6.66053">
        <ele>1550</ele>
        <time>2016-03-24T18:51:18Z</time>
      </trkpt>
      <trkpt lat="44.32281" lon="6.66062">
        <ele>1549</ele>
        <time>2016-03-24T18:53:18Z</time>
      </trkpt>
      <trkpt lat="44.32271" lon="6.66098">
        <ele>1542</ele>
        <time>2016-03-24T18:55:18Z</time>
      </trkpt>
      <trkpt lat="44.32271" lon="6.66116">
        <ele>1541</ele>
        <time>2016-03-24T18:57:18Z</time>
      </trkpt>
      <trkpt lat="44.32271" lon="6.66134">
        <ele>1541</ele>
        <time>2016-03-24T18:59:18Z</time>
      </trkpt>
      <trkpt lat="44.32273" lon="6.6615">
        <ele>1541</ele>
        <time>2016-03-24T19:01:18Z</time>
      </trkpt>
      <trkpt lat="44.32279" lon="6.66168">
        <ele>1543</ele>
        <time>2016-03-24T19:03:18Z</time>
      </trkpt>
      <trkpt lat="44.32288" lon="6.66188">
        <ele>1547</ele>
        <time>2016-03-24T19:05:18Z</time>
      </trkpt>
      <trkpt lat="44.32291" lon="6.662">
        <ele>1548</ele>
        <time>2016-03-24T19:07:18Z</time>
      </trkpt>
      <trkpt lat="44.32292" lon="6.66211">
        <ele>1548</ele>
        <time>2016-03-24T19:09:18Z</time>
      </trkpt>
      <trkpt lat="44.32292" lon="6.66222">
        <ele>1547</ele>
        <time>2016-03-24T19:11:18Z</time>
      </trkpt>
      <trkpt lat="44.32291" lon="6.66247">
        <ele>1546</ele>
        <time>2016-03-24T19:13:18Z</time>
      </trkpt>
      <trkpt lat="44.32294" lon="6.6627">
        <ele>1547</ele>
        <time>2016-03-24T19:15:18Z</time>
      </trkpt>
      <trkpt lat="44.32298" lon="6.66281">
        <ele>1548</ele>
        <time>2016-03-24T19:17:18Z</time>
      </trkpt>
      <trkpt lat="44.32303" lon="6.66299">
        <ele>1549</ele>
        <time>2016-03-24T19:19:18Z</time>
      </trkpt>
      <trkpt lat="44.32307" lon="6.66314">
        <ele>1551</ele>
        <time>2016-03-24T19:21:18Z</time>
      </trkpt>
      <trkpt lat="44.32308" lon="6.66324">
        <ele>1551</ele>
        <time>2016-03-24T19:23:18Z</time>
      </trkpt>
      <trkpt lat="44.32309" lon="6.6633">
        <ele>1551</ele>
        <time>2016-03-24T19:25:18Z</time>
      </trkpt>
      <trkpt lat="44.32309" lon="6.66343">
        <ele>1551</ele>
        <time>2016-03-24T19:27:18Z</time>
      </trkpt>
      <trkpt lat="44.3231" lon="6.66363">
        <ele>1551</ele>
        <time>2016-03-24T19:29:18Z</time>
      </trkpt>
      <trkpt lat="44.32312" lon="6.66383">
        <ele>1552</ele>
        <time>2016-03-24T19:31:18Z</time>
      </trkpt>
      <trkpt lat="44.32313" lon="6.66414">
        <ele>1553</ele>
        <time>2016-03-24T19:33:18Z</time>
      </trkpt>
      <trkpt lat="44.32314" lon="6.6643">
        <ele>1555</ele>
        <time>2016-03-24T19:35:18Z</time>
      </trkpt>
      <trkpt lat="44.32316" lon="6.66451">
        <ele>1558</ele>
        <time>2016-03-24T19:37:18Z</time>
      </trkpt>
      <trkpt lat="44.32316" lon="6.66465">
        <ele>1560</ele>
        <time>2016-03-24T19:39:18Z</time>
      </trkpt>
      <trkpt lat="44.32315" lon="6.66482">
        <ele>1562</ele>
        <time>2016-03-24T19:41:18Z</time>
      </trkpt>
      <trkpt lat="44.32315" lon="6.66499">
        <ele>1564</ele>
        <time>2016-03-24T19:43:18Z</time>
      </trkpt>
      <trkpt lat="44.32312" lon="6.66541">
        <ele>1564</ele>
        <time>2016-03-24T19:45:18Z</time>
      </trkpt>
      <trkpt lat="44.32308" lon="6.66571">
        <ele>1563</ele>
        <time>2016-03-24T19:47:18Z</time>
      </trkpt>
      <trkpt lat="44.32305" lon="6.6659">
        <ele>1562</ele>
        <time>2016-03-24T19:49:18Z</time>
      </trkpt>
      <trkpt lat="44.32305" lon="6.66594">
        <ele>1562</ele>
        <time>2016-03-24T19:51:18Z</time>
      </trkpt>
      <trkpt lat="44.32306" lon="6.66596">
        <ele>1562</ele>
        <time>2016-03-24T19:53:18Z</time>
      </trkpt>
      <trkpt lat="44.32306" lon="6.66598">
        <ele>1562</ele>
        <time>2016-03-24T19:55:18Z</time>
      </trkpt>
      <trkpt lat="44.32307" lon="6.66599">
        <ele>1562</ele>
        <time>2016-03-24T19:57:18Z</time>
      </trkpt>
      <trkpt lat="44.32308" lon="6.66599">
        <ele>1563</ele>
        <time>2016-03-24T19:59:18Z</time>
      </trkpt>
      <trkpt lat="44.32309" lon="6.666">
        <ele>1563</ele>
        <time>2016-03-24T20:01:18Z</time>
      </trkpt>
      <trkpt lat="44.3231" lon="6.66601">
        <ele>1564</ele>
        <time>2016-03-24T20:03:18Z</time>
      </trkpt>
      <trkpt lat="44.32311" lon="6.66601">
        <ele>1564</ele>
        <time>2016-03-24T20:05:18Z</time>
      </trkpt>
      <trkpt lat="44.32312" lon="6.66601">
        <ele>1565</ele>
        <time>2016-03-24T20:07:18Z</time>
      </trkpt>
      <trkpt lat="44.32314" lon="6.666">
        <ele>1566</ele>
        <time>2016-03-24T20:09:18Z</time>
      </trkpt>
      <trkpt lat="44.32315" lon="6.66599">
        <ele>1566</ele>
        <time>2016-03-24T20:11:18Z</time>
      </trkpt>
      <trkpt lat="44.32316" lon="6.66597">
        <ele>1567</ele>
        <time>2016-03-24T20:13:18Z</time>
      </trkpt>
      <trkpt lat="44.32317" lon="6.66596">
        <ele>1567</ele>
        <time>2016-03-24T20:15:18Z</time>
      </trkpt>
      <trkpt lat="44.32318" lon="6.66592">
        <ele>1568</ele>
        <time>2016-03-24T20:17:18Z</time>
      </trkpt>
      <trkpt lat="44.32319" lon="6.66581">
        <ele>1569</ele>
        <time>2016-03-24T20:19:18Z</time>
      </trkpt>
      <trkpt lat="44.3232" lon="6.66565">
        <ele>1569</ele>
        <time>2016-03-24T20:21:18Z</time>
      </trkpt>
      <trkpt lat="44.32321" lon="6.66552">
        <ele>1569</ele>
        <time>2016-03-24T20:23:18Z</time>
      </trkpt>
      <trkpt lat="44.32322" lon="6.66545">
        <ele>1569</ele>
        <time>2016-03-24T20:25:18Z</time>
      </trkpt>
      <trkpt lat="44.32324" lon="6.66528">
        <ele>1569</ele>
        <time>2016-03-24T20:27:18Z</time>
      </trkpt>
      <trkpt lat="44.3234" lon="6.66443">
        <ele>1568</ele>
        <time>2016-03-24T20:29:18Z</time>
      </trkpt>
      <trkpt lat="44.32347" lon="6.66416">
        <ele>1567</ele>
        <time>2016-03-24T20:31:18Z</time>
      </trkpt>
      <trkpt lat="44.32349" lon="6.66413">
        <ele>1568</ele>
        <time>2016-03-24T20:33:18Z</time>
      </trkpt>
      <trkpt lat="44.32351" lon="6.66412">
        <ele>1569</ele>
        <time>2016-03-24T20:35:18Z</time>
      </trkpt>
      <trkpt lat="44.32352" lon="6.66411">
        <ele>1570</ele>
        <time>2016-03-24T20:37:18Z</time>
      </trkpt>
      <trkpt lat="44.32353" lon="6.66411">
        <ele>1570</ele>
        <time>2016-03-24T20:39:18Z</time>
      </trkpt>
      <trkpt lat="44.32354" lon="6.66411">
        <ele>1571</ele>
        <time>2016-03-24T20:41:18Z</time>
      </trkpt>
      <trkpt lat="44.32355" lon="6.66411">
        <ele>1571</ele>
        <time>2016-03-24T20:43:18Z</time>
      </trkpt>
      <trkpt lat="44.32356" lon="6.66412">
        <ele>1572</ele>
        <time>2016-03-24T20:45:18Z</time>
      </trkpt>
      <trkpt lat="44.32357" lon="6.66413">
        <ele>1572</ele>
        <time>2016-03-24T20:47:18Z</time>
      </trkpt>
      <trkpt lat="44.32358" lon="6.66413">
        <ele>1573</ele>
        <time>2016-03-24T20:49:18Z</time>
      </trkpt>
      <trkpt lat="44.32358" lon="6.66414">
        <ele>1573</ele>
        <time>2016-03-24T20:51:18Z</time>
      </trkpt>
      <trkpt lat="44.32359" lon="6.66415">
        <ele>1573</ele>
        <time>2016-03-24T20:53:18Z</time>
      </trkpt>
      <trkpt lat="44.32359" lon="6.66417">
        <ele>1574</ele>
        <time>2016-03-24T20:55:18Z</time>
      </trkpt>
      <trkpt lat="44.32359" lon="6.66419">
        <ele>1574</ele>
        <time>2016-03-24T20:57:18Z</time>
      </trkpt>
      <trkpt lat="44.32359" lon="6.66421">
        <ele>1574</ele>
        <time>2016-03-24T20:59:18Z</time>
      </trkpt>
      <trkpt lat="44.32359" lon="6.66423">
        <ele>1575</ele>
        <time>2016-03-24T21:01:18Z</time>
      </trkpt>
      <trkpt lat="44.32357" lon="6.66427">
        <ele>1575</ele>
        <time>2016-03-24T21:03:18Z</time>
      </trkpt>
      <trkpt lat="44.32354" lon="6.66436">
        <ele>1575</ele>
        <time>2016-03-24T21:05:18Z</time>
      </trkpt>
      <trkpt lat="44.32352" lon="6.66441">
        <ele>1574</ele>
        <time>2016-03-24T21:07:18Z</time>
      </trkpt>
      <trkpt lat="44.3235" lon="6.66447">
        <ele>1574</ele>
        <time>2016-03-24T21:09:18Z</time>
      </trkpt>
      <trkpt lat="44.32348" lon="6.66453">
        <ele>1574</ele>
        <time>2016-03-24T21:11:18Z</time>
      </trkpt>
      <trkpt lat="44.32346" lon="6.66459">
        <ele>1574</ele>
        <time>2016-03-24T21:13:18Z</time>
      </trkpt>
      <trkpt lat="44.32344" lon="6.66474">
        <ele>1576</ele>
        <time>2016-03-24T21:15:18Z</time>
      </trkpt>
      <trkpt lat="44.32342" lon="6.66491">
        <ele>1577</ele>
        <time>2016-03-24T21:17:18Z</time>
      </trkpt>
      <trkpt lat="44.32341" lon="6.66516">
        <ele>1579</ele>
        <time>2016-03-24T21:19:18Z</time>
      </trkpt>
      <trkpt lat="44.32339" lon="6.66537">
        <ele>1578</ele>
        <time>2016-03-24T21:21:18Z</time>
      </trkpt>
      <trkpt lat="44.32337" lon="6.66562">
        <ele>1578</ele>
        <time>2016-03-24T21:23:18Z</time>
      </trkpt>
      <trkpt lat="44.32335" lon="6.66576">
        <ele>1577</ele>
        <time>2016-03-24T21:25:18Z</time>
      </trkpt>
      <trkpt lat="44.32335" lon="6.66596">
        <ele>1576</ele>
        <time>2016-03-24T21:27:18Z</time>
      </trkpt>
      <trkpt lat="44.32337" lon="6.66602">
        <ele>1577</ele>
        <time>2016-03-24T21:29:18Z</time>
      </trkpt>
      <trkpt lat="44.32338" lon="6.66608">
        <ele>1577</ele>
        <time>2016-03-24T21:31:18Z</time>
      </trkpt>
      <trkpt lat="44.3234" lon="6.66614">
        <ele>1578</ele>
        <time>2016-03-24T21:33:18Z</time>
      </trkpt>
      <trkpt lat="44.32342" lon="6.6662">
        <ele>1579</ele>
        <time>2016-03-24T21:35:18Z</time>
      </trkpt>
      <trkpt lat="44.32345" lon="6.66625">
        <ele>1581</ele>
        <time>2016-03-24T21:37:18Z</time>
      </trkpt>
      <trkpt lat="44.32347" lon="6.66631">
        <ele>1582</ele>
        <time>2016-03-24T21:39:18Z</time>
      </trkpt>
      <trkpt lat="44.32348" lon="6.66637">
        <ele>1582</ele>
        <time>2016-03-24T21:41:18Z</time>
      </trkpt>
      <trkpt lat="44.32351" lon="6.66652">
        <ele>1583</ele>
        <time>2016-03-24T21:43:18Z</time>
      </trkpt>
      <trkpt lat="44.32353" lon="6.66669">
        <ele>1583</ele>
        <time>2016-03-24T21:45:18Z</time>
      </trkpt>
      <trkpt lat="44.32353" lon="6.66685">
        <ele>1586</ele>
        <time>2016-03-24T21:47:18Z</time>
      </trkpt>
      <trkpt lat="44.32354" lon="6.66701">
        <ele>1589</ele>
        <time>2016-03-24T21:49:18Z</time>
      </trkpt>
      <trkpt lat="44.32354" lon="6.66717">
        <ele>1592</ele>
        <time>2016-03-24T21:51:18Z</time>
      </trkpt>
      <trkpt lat="44.32353" lon="6.66723">
        <ele>1592</ele>
        <time>2016-03-24T21:53:18Z</time>
      </trkpt>
      <trkpt lat="44.32353" lon="6.66728">
        <ele>1593</ele>
        <time>2016-03-24T21:55:18Z</time>
      </trkpt>
      <trkpt lat="44.32351" lon="6.66734">
        <ele>1592</ele>
        <time>2016-03-24T21:57:18Z</time>
      </trkpt>
      <trkpt lat="44.3235" lon="6.66739">
        <ele>1592</ele>
        <time>2016-03-24T21:59:18Z</time>
      </trkpt>
      <trkpt lat="44.32343" lon="6.66749">
        <ele>1589</ele>
        <time>2016-03-24T22:01:18Z</time>
      </trkpt>
      <trkpt lat="44.32336" lon="6.66761">
        <ele>1590</ele>
        <time>2016-03-24T22:03:18Z</time>
      </trkpt>
      <trkpt lat="44.32328" lon="6.66773">
        <ele>1592</ele>
        <time>2016-03-24T22:05:18Z</time>
      </trkpt>
      <trkpt lat="44.32321" lon="6.66783">
        <ele>1594</ele>
        <time>2016-03-24T22:07:18Z</time>
      </trkpt>
      <trkpt lat="44.32317" lon="6.66785">
        <ele>1594</ele>
        <time>2016-03-24T22:09:18Z</time>
      </trkpt>
      <trkpt lat="44.32315" lon="6.66785">
        <ele>1593</ele>
        <time>2016-03-24T22:11:18Z</time>
      </trkpt>
      <trkpt lat="44.32313" lon="6.66786">
        <ele>1593</ele>
        <time>2016-03-24T22:13:18Z</time>
      </trkpt>
      <trkpt lat="44.32311" lon="6.66786">
        <ele>1592</ele>
        <time>2016-03-24T22:15:18Z</time>
      </trkpt>
      <trkpt lat="44.32309" lon="6.66787">
        <ele>1592</ele>
        <time>2016-03-24T22:17:18Z</time>
      </trkpt>
      <trkpt lat="44.32307" lon="6.66787">
        <ele>1592</ele>
        <time>2016-03-24T22:19:18Z</time>
      </trkpt>
      <trkpt lat="44.32301" lon="6.66787">
        <ele>1590</ele>
        <time>2016-03-24T22:21:18Z</time>
      </trkpt>
      <trkpt lat="44.32297" lon="6.66787">
        <ele>1588</ele>
        <time>2016-03-24T22:23:18Z</time>
      </trkpt>
      <trkpt lat="44.32295" lon="6.66787">
        <ele>1588</ele>
        <time>2016-03-24T22:25:18Z</time>
      </trkpt>
      <trkpt lat="44.32291" lon="6.66788">
        <ele>1587</ele>
        <time>2016-03-24T22:27:18Z</time>
      </trkpt>
      <trkpt lat="44.32288" lon="6.66789">
        <ele>1586</ele>
        <time>2016-03-24T22:29:18Z</time>
      </trkpt>
      <trkpt lat="44.3228" lon="6.66792">
        <ele>1585</ele>
        <time>2016-03-24T22:31:18Z</time>
      </trkpt>
      <trkpt lat="44.32265" lon="6.66801">
        <ele>1583</ele>
        <time>2016-03-24T22:33:18Z</time>
      </trkpt>
      <trkpt lat="44.32255" lon="6.66807">
        <ele>1582</ele>
        <time>2016-03-24T22:35:18Z</time>
      </trkpt>
      <trkpt lat="44.3225" lon="6.66811">
        <ele>1582</ele>
        <time>2016-03-24T22:37:18Z</time>
      </trkpt>
      <trkpt lat="44.32245" lon="6.66816">
        <ele>1582</ele>
        <time>2016-03-24T22:39:18Z</time>
      </trkpt>
      <trkpt lat="44.32241" lon="6.66822">
        <ele>1583</ele>
        <time>2016-03-24T22:41:18Z</time>
      </trkpt>
      <trkpt lat="44.32237" lon="6.66828">
        <ele>1583</ele>
        <time>2016-03-24T22:43:18Z</time>
      </trkpt>
      <trkpt lat="44.32233" lon="6.66835">
        <ele>1584</ele>
        <time>2016-03-24T22:45:18Z</time>
      </trkpt>
      <trkpt lat="44.3223" lon="6.66841">
        <ele>1585</ele>
        <time>2016-03-24T22:47:18Z</time>
      </trkpt>
      <trkpt lat="44.32226" lon="6.66849">
        <ele>1586</ele>
        <time>2016-03-24T22:49:18Z</time>
      </trkpt>
      <trkpt lat="44.32222" lon="6.66855">
        <ele>1586</ele>
        <time>2016-03-24T22:51:18Z</time>
      </trkpt>
      <trkpt lat="44.32217" lon="6.66862">
        <ele>1586</ele>
        <time>2016-03-24T22:53:18Z</time>
      </trkpt>
      <trkpt lat="44.32212" lon="6.66868">
        <ele>1586</ele>
        <time>2016-03-24T22:55:18Z</time>
      </trkpt>
      <trkpt lat="44.32201" lon="6.66878">
        <ele>1584</ele>
        <time>2016-03-24T22:57:18Z</time>
      </trkpt>
      <trkpt lat="44.32196" lon="6.66883">
        <ele>1584</ele>
        <time>2016-03-24T22:59:18Z</time>
      </trkpt>
      <trkpt lat="44.32191" lon="6.6689">
        <ele>1584</ele>
        <time>2016-03-24T23:01:18Z</time>
      </trkpt>
      <trkpt lat="44.32185" lon="6.66898">
        <ele>1584</ele>
        <time>2016-03-24T23:03:18Z</time>
      </trkpt>
      <trkpt lat="44.32176" lon="6.66913">
        <ele>1585</ele>
        <time>2016-03-24T23:05:18Z</time>
      </trkpt>
      <trkpt lat="44.32173" lon="6.66919">
        <ele>1585</ele>
        <time>2016-03-24T23:07:18Z</time>
      </trkpt>
      <trkpt lat="44.3217" lon="6.66927">
        <ele>1585</ele>
        <time>2016-03-24T23:09:18Z</time>
      </trkpt>
      <trkpt lat="44.32167" lon="6.66935">
        <ele>1585</ele>
        <time>2016-03-24T23:11:18Z</time>
      </trkpt>
      <trkpt lat="44.32164" lon="6.66944">
        <ele>1586</ele>
        <time>2016-03-24T23:13:18Z</time>
      </trkpt>
      <trkpt lat="44.32161" lon="6.66953">
        <ele>1587</ele>
        <time>2016-03-24T23:15:18Z</time>
      </trkpt>
      <trkpt lat="44.32159" lon="6.66964">
        <ele>1588</ele>
        <time>2016-03-24T23:17:18Z</time>
      </trkpt>
      <trkpt lat="44.32153" lon="6.66992">
        <ele>1589</ele>
        <time>2016-03-24T23:19:18Z</time>
      </trkpt>
      <trkpt lat="44.32149" lon="6.67011">
        <ele>1590</ele>
        <time>2016-03-24T23:21:18Z</time>
      </trkpt>
      <trkpt lat="44.32147" lon="6.67028">
        <ele>1590</ele>
        <time>2016-03-24T23:23:18Z</time>
      </trkpt>
      <trkpt lat="44.32146" lon="6.67039">
        <ele>1591</ele>
        <time>2016-03-24T23:25:18Z</time>
      </trkpt>
      <trkpt lat="44.32146" lon="6.67046">
        <ele>1591</ele>
        <time>2016-03-24T23:27:18Z</time>
      </trkpt>
      <trkpt lat="44.32146" lon="6.67055">
        <ele>1592</ele>
        <time>2016-03-24T23:29:18Z</time>
      </trkpt>
      <trkpt lat="44.32147" lon="6.67063">
        <ele>1593</ele>
        <time>2016-03-24T23:31:18Z</time>
      </trkpt>
      <trkpt lat="44.32148" lon="6.67073">
        <ele>1595</ele>
        <time>2016-03-24T23:33:18Z</time>
      </trkpt>
      <trkpt lat="44.3215" lon="6.67082">
        <ele>1597</ele>
        <time>2016-03-24T23:35:18Z</time>
      </trkpt>
      <trkpt lat="44.32152" lon="6.6709">
        <ele>1599</ele>
        <time>2016-03-24T23:37:18Z</time>
      </trkpt>
      <trkpt lat="44.32156" lon="6.67108">
        <ele>1602</ele>
        <time>2016-03-24T23:39:18Z</time>
      </trkpt>
      <trkpt lat="44.32158" lon="6.67116">
        <ele>1604</ele>
        <time>2016-03-24T23:41:18Z</time>
      </trkpt>
      <trkpt lat="44.3216" lon="6.67125">
        <ele>1606</ele>
        <time>2016-03-24T23:43:18Z</time>
      </trkpt>
      <trkpt lat="44.32161" lon="6.67135">
        <ele>1608</ele>
        <time>2016-03-24T23:45:18Z</time>
      </trkpt>
      <trkpt lat="44.32161" lon="6.67137">
        <ele>1608</ele>
        <time>2016-03-24T23:47:18Z</time>
      </trkpt>
      <trkpt lat="44.32162" lon="6.67144">
        <ele>1609</ele>
        <time>2016-03-24T23:49:18Z</time>
      </trkpt>
      <trkpt lat="44.32162" lon="6.67151">
        <ele>1610</ele>
        <time>2016-03-24T23:51:18Z</time>
      </trkpt>
      <trkpt lat="44.32161" lon="6.67153">
        <ele>1609</ele>
        <time>2016-03-24T23:53:18Z</time>
      </trkpt>
      <trkpt lat="44.32161" lon="6.67157">
        <ele>1610</ele>
        <time>2016-03-24T23:55:18Z</time>
      </trkpt>
      <trkpt lat="44.3216" lon="6.67163">
        <ele>1610</ele>
        <time>2016-03-24T23:57:18Z</time>
      </trkpt>
      <trkpt lat="44.32159" lon="6.67176">
        <ele>1611</ele>
        <time>2016-03-24T23:59:18Z</time>
      </trkpt>
      <trkpt lat="44.32155" lon="6.67208">
        <ele>1615</ele>
        <time>2016-03-25T00:01:18Z</time>
      </trkpt>
      <trkpt lat="44.32153" lon="6.67218">
        <ele>1615</ele>
        <time>2016-03-25T00:03:18Z</time>
      </trkpt>
      <trkpt lat="44.32151" lon="6.67234">
        <ele>1617</ele>
        <time>2016-03-25T00:05:18Z</time>
      </trkpt>
      <trkpt lat="44.32148" lon="6.6727">
        <ele>1619</ele>
        <time>2016-03-25T00:07:18Z</time>
      </trkpt>
      <trkpt lat="44.32147" lon="6.67288">
        <ele>1620</ele>
        <time>2016-03-25T00:09:18Z</time>
      </trkpt>
      <trkpt lat="44.32146" lon="6.67296">
        <ele>1620</ele>
        <time>2016-03-25T00:11:18Z</time>
      </trkpt>
      <trkpt lat="44.32145" lon="6.67305">
        <ele>1621</ele>
        <time>2016-03-25T00:13:18Z</time>
      </trkpt>
      <trkpt lat="44.32143" lon="6.67313">
        <ele>1620</ele>
        <time>2016-03-25T00:15:18Z</time>
      </trkpt>
      <trkpt lat="44.32141" lon="6.67321">
        <ele>1620</ele>
        <time>2016-03-25T00:17:18Z</time>
      </trkpt>
      <trkpt lat="44.32139" lon="6.67329">
        <ele>1619</ele>
        <time>2016-03-25T00:19:18Z</time>
      </trkpt>
      <trkpt lat="44.32135" lon="6.67346">
        <ele>1618</ele>
        <time>2016-03-25T00:21:18Z</time>
      </trkpt>
      <trkpt lat="44.32134" lon="6.67354">
        <ele>1619</ele>
        <time>2016-03-25T00:23:18Z</time>
      </trkpt>
      <trkpt lat="44.32133" lon="6.67362">
        <ele>1619</ele>
        <time>2016-03-25T00:25:18Z</time>
      </trkpt>
      <trkpt lat="44.3213" lon="6.67378">
        <ele>1619</ele>
        <time>2016-03-25T00:27:18Z</time>
      </trkpt>
      <trkpt lat="44.32129" lon="6.67391">
        <ele>1620</ele>
        <time>2016-03-25T00:29:18Z</time>
      </trkpt>
      <trkpt lat="44.32127" lon="6.67402">
        <ele>1620</ele>
        <time>2016-03-25T00:31:18Z</time>
      </trkpt>
      <trkpt lat="44.32124" lon="6.67426">
        <ele>1623</ele>
        <time>2016-03-25T00:33:18Z</time>
      </trkpt>
      <trkpt lat="44.32121" lon="6.67434">
        <ele>1623</ele>
        <time>2016-03-25T00:35:18Z</time>
      </trkpt>
      <trkpt lat="44.32118" lon="6.67442">
        <ele>1623</ele>
        <time>2016-03-25T00:37:18Z</time>
      </trkpt>
      <trkpt lat="44.32116" lon="6.67447">
        <ele>1623</ele>
        <time>2016-03-25T00:39:18Z</time>
      </trkpt>
      <trkpt lat="44.32112" lon="6.67453">
        <ele>1622</ele>
        <time>2016-03-25T00:41:18Z</time>
      </trkpt>
      <trkpt lat="44.32109" lon="6.67458">
        <ele>1622</ele>
        <time>2016-03-25T00:43:18Z</time>
      </trkpt>
      <trkpt lat="44.32096" lon="6.67473">
        <ele>1619</ele>
        <time>2016-03-25T00:45:18Z</time>
      </trkpt>
      <trkpt lat="44.32085" lon="6.67487">
        <ele>1617</ele>
        <time>2016-03-25T00:47:18Z</time>
      </trkpt>
      <trkpt lat="44.32079" lon="6.67494">
        <ele>1617</ele>
        <time>2016-03-25T00:49:18Z</time>
      </trkpt>
      <trkpt lat="44.32071" lon="6.67505">
        <ele>1616</ele>
        <time>2016-03-25T00:51:18Z</time>
      </trkpt>
      <trkpt lat="44.32067" lon="6.67512">
        <ele>1616</ele>
        <time>2016-03-25T00:53:18Z</time>
      </trkpt>
      <trkpt lat="44.32065" lon="6.67517">
        <ele>1616</ele>
        <time>2016-03-25T00:55:18Z</time>
      </trkpt>
      <trkpt lat="44.32062" lon="6.67524">
        <ele>1616</ele>
        <time>2016-03-25T00:57:18Z</time>
      </trkpt>
      <trkpt lat="44.32059" lon="6.6753">
        <ele>1615</ele>
        <time>2016-03-25T00:59:18Z</time>
      </trkpt>
      <trkpt lat="44.32057" lon="6.67538">
        <ele>1616</ele>
        <time>2016-03-25T01:01:18Z</time>
      </trkpt>
      <trkpt lat="44.32049" lon="6.6757">
        <ele>1617</ele>
        <time>2016-03-25T01:03:18Z</time>
      </trkpt>
      <trkpt lat="44.32046" lon="6.67581">
        <ele>1618</ele>
        <time>2016-03-25T01:05:18Z</time>
      </trkpt>
      <trkpt lat="44.32045" lon="6.67587">
        <ele>1618</ele>
        <time>2016-03-25T01:07:18Z</time>
      </trkpt>
      <trkpt lat="44.32044" lon="6.67593">
        <ele>1618</ele>
        <time>2016-03-25T01:09:18Z</time>
      </trkpt>
      <trkpt lat="44.32042" lon="6.67601">
        <ele>1617</ele>
        <time>2016-03-25T01:11:18Z</time>
      </trkpt>
      <trkpt lat="44.32041" lon="6.6761">
        <ele>1617</ele>
        <time>2016-03-25T01:13:18Z</time>
      </trkpt>
      <trkpt lat="44.3204" lon="6.67614">
        <ele>1617</ele>
        <time>2016-03-25T01:15:18Z</time>
      </trkpt>
      <trkpt lat="44.3204" lon="6.67619">
        <ele>1617</ele>
        <time>2016-03-25T01:17:18Z</time>
      </trkpt>
      <trkpt lat="44.32039" lon="6.67627">
        <ele>1617</ele>
        <time>2016-03-25T01:19:18Z</time>
      </trkpt>
      <trkpt lat="44.32039" lon="6.67633">
        <ele>1617</ele>
        <time>2016-03-25T01:21:18Z</time>
      </trkpt>
      <trkpt lat="44.32039" lon="6.67644">
        <ele>1618</ele>
        <time>2016-03-25T01:23:18Z</time>
      </trkpt>
      <trkpt lat="44.32039" lon="6.67648">
        <ele>1618</ele>
        <time>2016-03-25T01:25:18Z</time>
      </trkpt>
      <trkpt lat="44.32039" lon="6.67661">
        <ele>1619</ele>
        <time>2016-03-25T01:27:18Z</time>
      </trkpt>
      <trkpt lat="44.3204" lon="6.6768">
        <ele>1621</ele>
        <time>2016-03-25T01:29:18Z</time>
      </trkpt>
      <trkpt lat="44.32041" lon="6.67707">
        <ele>1623</ele>
        <time>2016-03-25T01:31:18Z</time>
      </trkpt>
      <trkpt lat="44.32042" lon="6.67725">
        <ele>1625</ele>
        <time>2016-03-25T01:33:18Z</time>
      </trkpt>
      <trkpt lat="44.32044" lon="6.67738">
        <ele>1627</ele>
        <time>2016-03-25T01:35:18Z</time>
      </trkpt>
      <trkpt lat="44.32044" lon="6.67743">
        <ele>1628</ele>
        <time>2016-03-25T01:37:18Z</time>
      </trkpt>
      <trkpt lat="44.32044" lon="6.67751">
        <ele>1628</ele>
        <time>2016-03-25T01:39:18Z</time>
      </trkpt>
      <trkpt lat="44.32044" lon="6.6776">
        <ele>1630</ele>
        <time>2016-03-25T01:41:18Z</time>
      </trkpt>
      <trkpt lat="44.32043" lon="6.67769">
        <ele>1632</ele>
        <time>2016-03-25T01:43:18Z</time>
      </trkpt>
      <trkpt lat="44.32038" lon="6.67785">
        <ele>1632</ele>
        <time>2016-03-25T01:45:18Z</time>
      </trkpt>
      <trkpt lat="44.32035" lon="6.67794">
        <ele>1633</ele>
        <time>2016-03-25T01:47:18Z</time>
      </trkpt>
      <trkpt lat="44.32028" lon="6.67808">
        <ele>1633</ele>
        <time>2016-03-25T01:49:18Z</time>
      </trkpt>
      <trkpt lat="44.32021" lon="6.67823">
        <ele>1633</ele>
        <time>2016-03-25T01:51:18Z</time>
      </trkpt>
      <trkpt lat="44.32017" lon="6.6783">
        <ele>1633</ele>
        <time>2016-03-25T01:53:18Z</time>
      </trkpt>
      <trkpt lat="44.32009" lon="6.67844">
        <ele>1633</ele>
        <time>2016-03-25T01:55:18Z</time>
      </trkpt>
      <trkpt lat="44.32004" lon="6.67849">
        <ele>1632</ele>
        <time>2016-03-25T01:57:18Z</time>
      </trkpt>
      <trkpt lat="44.31997" lon="6.67858">
        <ele>1631</ele>
        <time>2016-03-25T01:59:18Z</time>
      </trkpt>
      <trkpt lat="44.31989" lon="6.67867">
        <ele>1630</ele>
        <time>2016-03-25T02:01:18Z</time>
      </trkpt>
      <trkpt lat="44.31983" lon="6.67876">
        <ele>1629</ele>
        <time>2016-03-25T02:03:18Z</time>
      </trkpt>
      <trkpt lat="44.31979" lon="6.67882">
        <ele>1629</ele>
        <time>2016-03-25T02:05:18Z</time>
      </trkpt>
      <trkpt lat="44.31976" lon="6.67888">
        <ele>1629</ele>
        <time>2016-03-25T02:07:18Z</time>
      </trkpt>
      <trkpt lat="44.31973" lon="6.67894">
        <ele>1629</ele>
        <time>2016-03-25T02:09:18Z</time>
      </trkpt>
      <trkpt lat="44.31964" lon="6.67912">
        <ele>1629</ele>
        <time>2016-03-25T02:11:18Z</time>
      </trkpt>
      <trkpt lat="44.3196" lon="6.67919">
        <ele>1628</ele>
        <time>2016-03-25T02:13:18Z</time>
      </trkpt>
      <trkpt lat="44.31956" lon="6.6793">
        <ele>1627</ele>
        <time>2016-03-25T02:15:18Z</time>
      </trkpt>
      <trkpt lat="44.31954" lon="6.67936">
        <ele>1627</ele>
        <time>2016-03-25T02:17:18Z</time>
      </trkpt>
      <trkpt lat="44.31954" lon="6.67943">
        <ele>1627</ele>
        <time>2016-03-25T02:19:18Z</time>
      </trkpt>
      <trkpt lat="44.31953" lon="6.67949">
        <ele>1627</ele>
        <time>2016-03-25T02:21:18Z</time>
      </trkpt>
      <trkpt lat="44.31953" lon="6.67956">
        <ele>1628</ele>
        <time>2016-03-25T02:23:18Z</time>
      </trkpt>
      <trkpt lat="44.31953" lon="6.67962">
        <ele>1628</ele>
        <time>2016-03-25T02:25:18Z</time>
      </trkpt>
      <trkpt lat="44.31954" lon="6.67968">
        <ele>1629</ele>
        <time>2016-03-25T02:27:18Z</time>
      </trkpt>
      <trkpt lat="44.31956" lon="6.67973">
        <ele>1631</ele>
        <time>2016-03-25T02:29:18Z</time>
      </trkpt>
      <trkpt lat="44.31957" lon="6.6798">
        <ele>1632</ele>
        <time>2016-03-25T02:31:18Z</time>
      </trkpt>
      <trkpt lat="44.31959" lon="6.67984">
        <ele>1633</ele>
        <time>2016-03-25T02:33:18Z</time>
      </trkpt>
      <trkpt lat="44.3196" lon="6.6799">
        <ele>1634</ele>
        <time>2016-03-25T02:35:18Z</time>
      </trkpt>
      <trkpt lat="44.31961" lon="6.67994">
        <ele>1634</ele>
        <time>2016-03-25T02:37:18Z</time>
      </trkpt>
      <trkpt lat="44.31961" lon="6.67996">
        <ele>1635</ele>
        <time>2016-03-25T02:39:18Z</time>
      </trkpt>
      <trkpt lat="44.31961" lon="6.68">
        <ele>1635</ele>
        <time>2016-03-25T02:41:18Z</time>
      </trkpt>
      <trkpt lat="44.31961" lon="6.68003">
        <ele>1636</ele>
        <time>2016-03-25T02:43:18Z</time>
      </trkpt>
      <trkpt lat="44.31961" lon="6.68005">
        <ele>1636</ele>
        <time>2016-03-25T02:45:18Z</time>
      </trkpt>
      <trkpt lat="44.31959" lon="6.68012">
        <ele>1637</ele>
        <time>2016-03-25T02:47:18Z</time>
      </trkpt>
      <trkpt lat="44.31956" lon="6.68021">
        <ele>1638</ele>
        <time>2016-03-25T02:49:18Z</time>
      </trkpt>
      <trkpt lat="44.31954" lon="6.68025">
        <ele>1638</ele>
        <time>2016-03-25T02:51:18Z</time>
      </trkpt>
      <trkpt lat="44.31951" lon="6.6803">
        <ele>1638</ele>
        <time>2016-03-25T02:53:18Z</time>
      </trkpt>
      <trkpt lat="44.31946" lon="6.68034">
        <ele>1637</ele>
        <time>2016-03-25T02:55:18Z</time>
      </trkpt>
      <trkpt lat="44.31939" lon="6.68039">
        <ele>1636</ele>
        <time>2016-03-25T02:57:18Z</time>
      </trkpt>
      <trkpt lat="44.31931" lon="6.68044">
        <ele>1635</ele>
        <time>2016-03-25T02:59:18Z</time>
      </trkpt>
      <trkpt lat="44.31927" lon="6.68047">
        <ele>1634</ele>
        <time>2016-03-25T03:01:18Z</time>
      </trkpt>
      <trkpt lat="44.31919" lon="6.68054">
        <ele>1633</ele>
        <time>2016-03-25T03:03:18Z</time>
      </trkpt>
      <trkpt lat="44.31915" lon="6.68057">
        <ele>1633</ele>
        <time>2016-03-25T03:05:18Z</time>
      </trkpt>
      <trkpt lat="44.31912" lon="6.68062">
        <ele>1633</ele>
        <time>2016-03-25T03:07:18Z</time>
      </trkpt>
      <trkpt lat="44.31909" lon="6.68068">
        <ele>1633</ele>
        <time>2016-03-25T03:09:18Z</time>
      </trkpt>
      <trkpt lat="44.31907" lon="6.68074">
        <ele>1633</ele>
        <time>2016-03-25T03:11:18Z</time>
      </trkpt>
      <trkpt lat="44.31905" lon="6.6808">
        <ele>1634</ele>
        <time>2016-03-25T03:13:18Z</time>
      </trkpt>
      <trkpt lat="44.31904" lon="6.68084">
        <ele>1634</ele>
        <time>2016-03-25T03:15:18Z</time>
      </trkpt>
      <trkpt lat="44.31905" lon="6.68093">
        <ele>1635</ele>
        <time>2016-03-25T03:17:18Z</time>
      </trkpt>
      <trkpt lat="44.31905" lon="6.68105">
        <ele>1636</ele>
        <time>2016-03-25T03:19:18Z</time>
      </trkpt>
      <trkpt lat="44.31907" lon="6.68113">
        <ele>1638</ele>
        <time>2016-03-25T03:21:18Z</time>
      </trkpt>
      <trkpt lat="44.31907" lon="6.68122">
        <ele>1639</ele>
        <time>2016-03-25T03:23:18Z</time>
      </trkpt>
      <trkpt lat="44.31908" lon="6.6813">
        <ele>1640</ele>
        <time>2016-03-25T03:25:18Z</time>
      </trkpt>
      <trkpt lat="44.31909" lon="6.68149">
        <ele>1642</ele>
        <time>2016-03-25T03:27:18Z</time>
      </trkpt>
      <trkpt lat="44.31908" lon="6.68168">
        <ele>1643</ele>
        <time>2016-03-25T03:29:18Z</time>
      </trkpt>
      <trkpt lat="44.31906" lon="6.68179">
        <ele>1643</ele>
        <time>2016-03-25T03:31:18Z</time>
      </trkpt>
      <trkpt lat="44.31905" lon="6.6819">
        <ele>1644</ele>
        <time>2016-03-25T03:33:18Z</time>
      </trkpt>
      <trkpt lat="44.31899" lon="6.68226">
        <ele>1644</ele>
        <time>2016-03-25T03:35:18Z</time>
      </trkpt>
      <trkpt lat="44.31896" lon="6.68245">
        <ele>1644</ele>
        <time>2016-03-25T03:37:18Z</time>
      </trkpt>
      <trkpt lat="44.3189" lon="6.68282">
        <ele>1645</ele>
        <time>2016-03-25T03:39:18Z</time>
      </trkpt>
      <trkpt lat="44.3188" lon="6.68343">
        <ele>1646</ele>
        <time>2016-03-25T03:41:18Z</time>
      </trkpt>
      <trkpt lat="44.31877" lon="6.68362">
        <ele>1645</ele>
        <time>2016-03-25T03:43:18Z</time>
      </trkpt>
      <trkpt lat="44.31875" lon="6.68385">
        <ele>1646</ele>
        <time>2016-03-25T03:45:18Z</time>
      </trkpt>
      <trkpt lat="44.31872" lon="6.68401">
        <ele>1645</ele>
        <time>2016-03-25T03:47:18Z</time>
      </trkpt>
      <trkpt lat="44.31871" lon="6.68409">
        <ele>1645</ele>
        <time>2016-03-25T03:49:18Z</time>
      </trkpt>
      <trkpt lat="44.31869" lon="6.68417">
        <ele>1644</ele>
        <time>2016-03-25T03:51:18Z</time>
      </trkpt>
      <trkpt lat="44.31869" lon="6.68425">
        <ele>1645</ele>
        <time>2016-03-25T03:53:18Z</time>
      </trkpt>
      <trkpt lat="44.31868" lon="6.68434">
        <ele>1645</ele>
        <time>2016-03-25T03:55:18Z</time>
      </trkpt>
      <trkpt lat="44.31868" lon="6.68442">
        <ele>1646</ele>
        <time>2016-03-25T03:57:18Z</time>
      </trkpt>
      <trkpt lat="44.31869" lon="6.6845">
        <ele>1648</ele>
        <time>2016-03-25T03:59:18Z</time>
      </trkpt>
      <trkpt lat="44.3187" lon="6.68458">
        <ele>1650</ele>
        <time>2016-03-25T04:01:18Z</time>
      </trkpt>
      <trkpt lat="44.31871" lon="6.68475">
        <ele>1652</ele>
        <time>2016-03-25T04:03:18Z</time>
      </trkpt>
      <trkpt lat="44.31871" lon="6.68492">
        <ele>1654</ele>
        <time>2016-03-25T04:05:18Z</time>
      </trkpt>
      <trkpt lat="44.3187" lon="6.68509">
        <ele>1655</ele>
        <time>2016-03-25T04:07:18Z</time>
      </trkpt>
      <trkpt lat="44.31868" lon="6.68524">
        <ele>1654</ele>
        <time>2016-03-25T04:09:18Z</time>
      </trkpt>
      <trkpt lat="44.31866" lon="6.68537">
        <ele>1653</ele>
        <time>2016-03-25T04:11:18Z</time>
      </trkpt>
      <trkpt lat="44.31861" lon="6.68568">
        <ele>1651</ele>
        <time>2016-03-25T04:13:18Z</time>
      </trkpt>
      <trkpt lat="44.31858" lon="6.68592">
        <ele>1649</ele>
        <time>2016-03-25T04:15:18Z</time>
      </trkpt>
      <trkpt lat="44.31857" lon="6.68607">
        <ele>1648</ele>
        <time>2016-03-25T04:17:18Z</time>
      </trkpt>
      <trkpt lat="44.31857" lon="6.68615">
        <ele>1648</ele>
        <time>2016-03-25T04:19:18Z</time>
      </trkpt>
      <trkpt lat="44.31857" lon="6.6863">
        <ele>1648</ele>
        <time>2016-03-25T04:21:18Z</time>
      </trkpt>
      <trkpt lat="44.3186" lon="6.68645">
        <ele>1651</ele>
        <time>2016-03-25T04:23:18Z</time>
      </trkpt>
      <trkpt lat="44.31863" lon="6.6866">
        <ele>1653</ele>
        <time>2016-03-25T04:25:18Z</time>
      </trkpt>
      <trkpt lat="44.31865" lon="6.68667">
        <ele>1654</ele>
        <time>2016-03-25T04:27:18Z</time>
      </trkpt>
      <trkpt lat="44.31867" lon="6.68674">
        <ele>1654</ele>
        <time>2016-03-25T04:29:18Z</time>
      </trkpt>
      <trkpt lat="44.31875" lon="6.68694">
        <ele>1656</ele>
        <time>2016-03-25T04:31:18Z</time>
      </trkpt>
      <trkpt lat="44.31884" lon="6.68711">
        <ele>1658</ele>
        <time>2016-03-25T04:33:18Z</time>
      </trkpt>
      <trkpt lat="44.31893" lon="6.68726">
        <ele>1661</ele>
        <time>2016-03-25T04:35:18Z</time>
      </trkpt>
      <trkpt lat="44.31901" lon="6.6874">
        <ele>1662</ele>
        <time>2016-03-25T04:37:18Z</time>
      </trkpt>
      <trkpt lat="44.31904" lon="6.68747">
        <ele>1662</ele>
        <time>2016-03-25T04:39:18Z</time>
      </trkpt>
      <trkpt lat="44.31907" lon="6.68754">
        <ele>1662</ele>
        <time>2016-03-25T04:41:18Z</time>
      </trkpt>
      <trkpt lat="44.3191" lon="6.68762">
        <ele>1662</ele>
        <time>2016-03-25T04:43:18Z</time>
      </trkpt>
      <trkpt lat="44.31915" lon="6.68778">
        <ele>1660</ele>
        <time>2016-03-25T04:45:18Z</time>
      </trkpt>
      <trkpt lat="44.31918" lon="6.68786">
        <ele>1660</ele>
        <time>2016-03-25T04:47:18Z</time>
      </trkpt>
      <trkpt lat="44.31925" lon="6.68813">
        <ele>1657</ele>
        <time>2016-03-25T04:49:18Z</time>
      </trkpt>
      <trkpt lat="44.31933" lon="6.68835">
        <ele>1657</ele>
        <time>2016-03-25T04:51:18Z</time>
      </trkpt>
      <trkpt lat="44.31938" lon="6.68851">
        <ele>1659</ele>
        <time>2016-03-25T04:53:18Z</time>
      </trkpt>
      <trkpt lat="44.31945" lon="6.68866">
        <ele>1663</ele>
        <time>2016-03-25T04:55:18Z</time>
      </trkpt>
      <trkpt lat="44.31947" lon="6.68873">
        <ele>1663</ele>
        <time>2016-03-25T04:57:18Z</time>
      </trkpt>
      <trkpt lat="44.3195" lon="6.68882">
        <ele>1665</ele>
        <time>2016-03-25T04:59:18Z</time>
      </trkpt>
      <trkpt lat="44.31951" lon="6.6889">
        <ele>1665</ele>
        <time>2016-03-25T05:01:18Z</time>
      </trkpt>
      <trkpt lat="44.31951" lon="6.68898">
        <ele>1664</ele>
        <time>2016-03-25T05:03:18Z</time>
      </trkpt>
      <trkpt lat="44.31951" lon="6.68907">
        <ele>1663</ele>
        <time>2016-03-25T05:05:18Z</time>
      </trkpt>
      <trkpt lat="44.3195" lon="6.68915">
        <ele>1662</ele>
        <time>2016-03-25T05:07:18Z</time>
      </trkpt>
      <trkpt lat="44.31947" lon="6.68932">
        <ele>1661</ele>
        <time>2016-03-25T05:09:18Z</time>
      </trkpt>
      <trkpt lat="44.31943" lon="6.68958">
        <ele>1660</ele>
        <time>2016-03-25T05:11:18Z</time>
      </trkpt>
      <trkpt lat="44.31936" lon="6.68987">
        <ele>1657</ele>
        <time>2016-03-25T05:13:18Z</time>
      </trkpt>
      <trkpt lat="44.31928" lon="6.69016">
        <ele>1655</ele>
        <time>2016-03-25T05:15:18Z</time>
      </trkpt>
      <trkpt lat="44.31927" lon="6.69024">
        <ele>1656</ele>
        <time>2016-03-25T05:17:18Z</time>
      </trkpt>
      <trkpt lat="44.31926" lon="6.69041">
        <ele>1658</ele>
        <time>2016-03-25T05:19:18Z</time>
      </trkpt>
      <trkpt lat="44.31924" lon="6.69057">
        <ele>1659</ele>
        <time>2016-03-25T05:21:18Z</time>
      </trkpt>
      <trkpt lat="44.31922" lon="6.69064">
        <ele>1659</ele>
        <time>2016-03-25T05:23:18Z</time>
      </trkpt>
      <trkpt lat="44.3192" lon="6.69072">
        <ele>1659</ele>
        <time>2016-03-25T05:25:18Z</time>
      </trkpt>
      <trkpt lat="44.31914" lon="6.69083">
        <ele>1658</ele>
        <time>2016-03-25T05:27:18Z</time>
      </trkpt>
      <trkpt lat="44.31905" lon="6.69093">
        <ele>1655</ele>
        <time>2016-03-25T05:29:18Z</time>
      </trkpt>
      <trkpt lat="44.31902" lon="6.69097">
        <ele>1654</ele>
        <time>2016-03-25T05:31:18Z</time>
      </trkpt>
      <trkpt lat="44.31898" lon="6.69102">
        <ele>1653</ele>
        <time>2016-03-25T05:33:18Z</time>
      </trkpt>
      <trkpt lat="44.31895" lon="6.69107">
        <ele>1653</ele>
        <time>2016-03-25T05:35:18Z</time>
      </trkpt>
      <trkpt lat="44.31892" lon="6.69112">
        <ele>1652</ele>
        <time>2016-03-25T05:37:18Z</time>
      </trkpt>
      <trkpt lat="44.3189" lon="6.69119">
        <ele>1652</ele>
        <time>2016-03-25T05:39:18Z</time>
      </trkpt>
      <trkpt lat="44.31889" lon="6.69125">
        <ele>1653</ele>
        <time>2016-03-25T05:41:18Z</time>
      </trkpt>
      <trkpt lat="44.31886" lon="6.69144">
        <ele>1654</ele>
        <time>2016-03-25T05:43:18Z</time>
      </trkpt>
      <trkpt lat="44.31885" lon="6.69154">
        <ele>1655</ele>
        <time>2016-03-25T05:45:18Z</time>
      </trkpt>
      <trkpt lat="44.31883" lon="6.69163">
        <ele>1656</ele>
        <time>2016-03-25T05:47:18Z</time>
      </trkpt>
      <trkpt lat="44.31883" lon="6.6917">
        <ele>1656</ele>
        <time>2016-03-25T05:49:18Z</time>
      </trkpt>
      <trkpt lat="44.31882" lon="6.69181">
        <ele>1656</ele>
        <time>2016-03-25T05:51:18Z</time>
      </trkpt>
      <trkpt lat="44.3188" lon="6.69194">
        <ele>1656</ele>
        <time>2016-03-25T05:53:18Z</time>
      </trkpt>
      <trkpt lat="44.3188" lon="6.69201">
        <ele>1656</ele>
        <time>2016-03-25T05:55:18Z</time>
      </trkpt>
      <trkpt lat="44.3188" lon="6.69215">
        <ele>1657</ele>
        <time>2016-03-25T05:57:18Z</time>
      </trkpt>
      <trkpt lat="44.31881" lon="6.69234">
        <ele>1658</ele>
        <time>2016-03-25T05:59:18Z</time>
      </trkpt>
      <trkpt lat="44.31882" lon="6.69248">
        <ele>1659</ele>
        <time>2016-03-25T06:01:18Z</time>
      </trkpt>
      <trkpt lat="44.31884" lon="6.69258">
        <ele>1660</ele>
        <time>2016-03-25T06:03:18Z</time>
      </trkpt>
      <trkpt lat="44.31886" lon="6.69267">
        <ele>1660</ele>
        <time>2016-03-25T06:05:18Z</time>
      </trkpt>
      <trkpt lat="44.31888" lon="6.69277">
        <ele>1660</ele>
        <time>2016-03-25T06:07:18Z</time>
      </trkpt>
      <trkpt lat="44.31891" lon="6.69286">
        <ele>1660</ele>
        <time>2016-03-25T06:09:18Z</time>
      </trkpt>
      <trkpt lat="44.31892" lon="6.69291">
        <ele>1660</ele>
        <time>2016-03-25T06:11:18Z</time>
      </trkpt>
      <trkpt lat="44.31894" lon="6.69295">
        <ele>1660</ele>
        <time>2016-03-25T06:13:18Z</time>
      </trkpt>
      <trkpt lat="44.31895" lon="6.69299">
        <ele>1660</ele>
        <time>2016-03-25T06:15:18Z</time>
      </trkpt>
      <trkpt lat="44.31896" lon="6.69301">
        <ele>1661</ele>
        <time>2016-03-25T06:17:18Z</time>
      </trkpt>
      <trkpt lat="44.31899" lon="6.69306">
        <ele>1662</ele>
        <time>2016-03-25T06:19:18Z</time>
      </trkpt>
      <trkpt lat="44.31901" lon="6.69311">
        <ele>1662</ele>
        <time>2016-03-25T06:21:18Z</time>
      </trkpt>
      <trkpt lat="44.31904" lon="6.69315">
        <ele>1663</ele>
        <time>2016-03-25T06:23:18Z</time>
      </trkpt>
      <trkpt lat="44.31907" lon="6.69319">
        <ele>1664</ele>
        <time>2016-03-25T06:25:18Z</time>
      </trkpt>
      <trkpt lat="44.31911" lon="6.69323">
        <ele>1665</ele>
        <time>2016-03-25T06:27:18Z</time>
      </trkpt>
      <trkpt lat="44.3192" lon="6.69333">
        <ele>1669</ele>
        <time>2016-03-25T06:29:18Z</time>
      </trkpt>
      <trkpt lat="44.31924" lon="6.69341">
        <ele>1669</ele>
        <time>2016-03-25T06:31:18Z</time>
      </trkpt>
      <trkpt lat="44.31926" lon="6.69345">
        <ele>1670</ele>
        <time>2016-03-25T06:33:18Z</time>
      </trkpt>
      <trkpt lat="44.31928" lon="6.6935">
        <ele>1670</ele>
        <time>2016-03-25T06:35:18Z</time>
      </trkpt>
      <trkpt lat="44.3193" lon="6.69357">
        <ele>1670</ele>
        <time>2016-03-25T06:37:18Z</time>
      </trkpt>
      <trkpt lat="44.31933" lon="6.69369">
        <ele>1670</ele>
        <time>2016-03-25T06:39:18Z</time>
      </trkpt>
      <trkpt lat="44.31937" lon="6.69397">
        <ele>1668</ele>
        <time>2016-03-25T06:41:18Z</time>
      </trkpt>
      <trkpt lat="44.3194" lon="6.69412">
        <ele>1668</ele>
        <time>2016-03-25T06:43:18Z</time>
      </trkpt>
      <trkpt lat="44.31943" lon="6.69427">
        <ele>1666</ele>
        <time>2016-03-25T06:45:18Z</time>
      </trkpt>
      <trkpt lat="44.31947" lon="6.69442">
        <ele>1664</ele>
        <time>2016-03-25T06:47:18Z</time>
      </trkpt>
      <trkpt lat="44.31953" lon="6.69457">
        <ele>1664</ele>
        <time>2016-03-25T06:49:18Z</time>
      </trkpt>
      <trkpt lat="44.31957" lon="6.69467">
        <ele>1663</ele>
        <time>2016-03-25T06:51:18Z</time>
      </trkpt>
      <trkpt lat="44.31962" lon="6.69476">
        <ele>1663</ele>
        <time>2016-03-25T06:53:18Z</time>
      </trkpt>
      <trkpt lat="44.31965" lon="6.69482">
        <ele>1663</ele>
        <time>2016-03-25T06:55:18Z</time>
      </trkpt>
      <trkpt lat="44.31969" lon="6.69488">
        <ele>1664</ele>
        <time>2016-03-25T06:57:18Z</time>
      </trkpt>
      <trkpt lat="44.31978" lon="6.69499">
        <ele>1665</ele>
        <time>2016-03-25T06:59:18Z</time>
      </trkpt>
      <trkpt lat="44.32001" lon="6.69523">
        <ele>1671</ele>
        <time>2016-03-25T07:01:18Z</time>
      </trkpt>
      <trkpt lat="44.32015" lon="6.69535">
        <ele>1675</ele>
        <time>2016-03-25T07:03:18Z</time>
      </trkpt>
      <trkpt lat="44.32026" lon="6.69546">
        <ele>1678</ele>
        <time>2016-03-25T07:05:18Z</time>
      </trkpt>
      <trkpt lat="44.32028" lon="6.69549">
        <ele>1678</ele>
        <time>2016-03-25T07:07:18Z</time>
      </trkpt>
      <trkpt lat="44.32029" lon="6.6955">
        <ele>1678</ele>
        <time>2016-03-25T07:09:18Z</time>
      </trkpt>
      <trkpt lat="44.32033" lon="6.69553">
        <ele>1679</ele>
        <time>2016-03-25T07:11:18Z</time>
      </trkpt>
      <trkpt lat="44.32037" lon="6.69558">
        <ele>1680</ele>
        <time>2016-03-25T07:13:18Z</time>
      </trkpt>
      <trkpt lat="44.32041" lon="6.69563">
        <ele>1680</ele>
        <time>2016-03-25T07:15:18Z</time>
      </trkpt>
      <trkpt lat="44.32045" lon="6.69569">
        <ele>1681</ele>
        <time>2016-03-25T07:17:18Z</time>
      </trkpt>
      <trkpt lat="44.32048" lon="6.69575">
        <ele>1680</ele>
        <time>2016-03-25T07:19:18Z</time>
      </trkpt>
      <trkpt lat="44.32051" lon="6.69582">
        <ele>1680</ele>
        <time>2016-03-25T07:21:18Z</time>
      </trkpt>
      <trkpt lat="44.32053" lon="6.69589">
        <ele>1679</ele>
        <time>2016-03-25T07:23:18Z</time>
      </trkpt>
      <trkpt lat="44.32055" lon="6.69596">
        <ele>1679</ele>
        <time>2016-03-25T07:25:18Z</time>
      </trkpt>
      <trkpt lat="44.32058" lon="6.69611">
        <ele>1679</ele>
        <time>2016-03-25T07:27:18Z</time>
      </trkpt>
      <trkpt lat="44.32061" lon="6.69628">
        <ele>1677</ele>
        <time>2016-03-25T07:29:18Z</time>
      </trkpt>
      <trkpt lat="44.32064" lon="6.69642">
        <ele>1677</ele>
        <time>2016-03-25T07:31:18Z</time>
      </trkpt>
      <trkpt lat="44.32066" lon="6.69649">
        <ele>1677</ele>
        <time>2016-03-25T07:33:18Z</time>
      </trkpt>
      <trkpt lat="44.32069" lon="6.69656">
        <ele>1677</ele>
        <time>2016-03-25T07:35:18Z</time>
      </trkpt>
      <trkpt lat="44.32072" lon="6.69662">
        <ele>1677</ele>
        <time>2016-03-25T07:37:18Z</time>
      </trkpt>
      <trkpt lat="44.32076" lon="6.69668">
        <ele>1678</ele>
        <time>2016-03-25T07:39:18Z</time>
      </trkpt>
      <trkpt lat="44.3208" lon="6.69673">
        <ele>1679</ele>
        <time>2016-03-25T07:41:18Z</time>
      </trkpt>
      <trkpt lat="44.32089" lon="6.69683">
        <ele>1682</ele>
        <time>2016-03-25T07:43:18Z</time>
      </trkpt>
      <trkpt lat="44.32094" lon="6.69689">
        <ele>1684</ele>
        <time>2016-03-25T07:45:18Z</time>
      </trkpt>
      <trkpt lat="44.32098" lon="6.69696">
        <ele>1685</ele>
        <time>2016-03-25T07:47:18Z</time>
      </trkpt>
      <trkpt lat="44.32102" lon="6.69703">
        <ele>1686</ele>
        <time>2016-03-25T07:49:18Z</time>
      </trkpt>
      <trkpt lat="44.32105" lon="6.6971">
        <ele>1687</ele>
        <time>2016-03-25T07:51:18Z</time>
      </trkpt>
      <trkpt lat="44.32108" lon="6.69719">
        <ele>1688</ele>
        <time>2016-03-25T07:53:18Z</time>
      </trkpt>
      <trkpt lat="44.3211" lon="6.69728">
        <ele>1688</ele>
        <time>2016-03-25T07:55:18Z</time>
      </trkpt>
      <trkpt lat="44.32114" lon="6.69747">
        <ele>1688</ele>
        <time>2016-03-25T07:57:18Z</time>
      </trkpt>
      <trkpt lat="44.32118" lon="6.69769">
        <ele>1689</ele>
        <time>2016-03-25T07:59:18Z</time>
      </trkpt>
      <trkpt lat="44.32122" lon="6.69796">
        <ele>1689</ele>
        <time>2016-03-25T08:01:18Z</time>
      </trkpt>
      <trkpt lat="44.32126" lon="6.69818">
        <ele>1690</ele>
        <time>2016-03-25T08:03:18Z</time>
      </trkpt>
      <trkpt lat="44.32134" lon="6.69861">
        <ele>1692</ele>
        <time>2016-03-25T08:05:18Z</time>
      </trkpt>
      <trkpt lat="44.32137" lon="6.6988">
        <ele>1692</ele>
        <time>2016-03-25T08:07:18Z</time>
      </trkpt>
      <trkpt lat="44.32142" lon="6.69899">
        <ele>1694</ele>
        <time>2016-03-25T08:09:18Z</time>
      </trkpt>
      <trkpt lat="44.32148" lon="6.69925">
        <ele>1695</ele>
        <time>2016-03-25T08:11:18Z</time>
      </trkpt>
      <trkpt lat="44.3215" lon="6.69933">
        <ele>1695</ele>
        <time>2016-03-25T08:13:18Z</time>
      </trkpt>
      <trkpt lat="44.32152" lon="6.69942">
        <ele>1696</ele>
        <time>2016-03-25T08:15:18Z</time>
      </trkpt>
      <trkpt lat="44.32153" lon="6.69952">
        <ele>1695</ele>
        <time>2016-03-25T08:17:18Z</time>
      </trkpt>
      <trkpt lat="44.32155" lon="6.69961">
        <ele>1695</ele>
        <time>2016-03-25T08:19:18Z</time>
      </trkpt>
      <trkpt lat="44.32156" lon="6.6997">
        <ele>1695</ele>
        <time>2016-03-25T08:21:18Z</time>
      </trkpt>
      <trkpt lat="44.32157" lon="6.69979">
        <ele>1694</ele>
        <time>2016-03-25T08:23:18Z</time>
      </trkpt>
      <trkpt lat="44.32158" lon="6.69988">
        <ele>1694</ele>
        <time>2016-03-25T08:25:18Z</time>
      </trkpt>
      <trkpt lat="44.3216" lon="6.69997">
        <ele>1694</ele>
        <time>2016-03-25T08:27:18Z</time>
      </trkpt>
      <trkpt lat="44.32163" lon="6.70005">
        <ele>1695</ele>
        <time>2016-03-25T08:29:18Z</time>
      </trkpt>
      <trkpt lat="44.32166" lon="6.70014">
        <ele>1695</ele>
        <time>2016-03-25T08:31:18Z</time>
      </trkpt>
      <trkpt lat="44.32169" lon="6.70023">
        <ele>1693</ele>
        <time>2016-03-25T08:33:18Z</time>
      </trkpt>
      <trkpt lat="44.32171" lon="6.70032">
        <ele>1693</ele>
        <time>2016-03-25T08:35:18Z</time>
      </trkpt>
      <trkpt lat="44.32173" lon="6.70042">
        <ele>1693</ele>
        <time>2016-03-25T08:37:18Z</time>
      </trkpt>
      <trkpt lat="44.32175" lon="6.70061">
        <ele>1693</ele>
        <time>2016-03-25T08:39:18Z</time>
      </trkpt>
      <trkpt lat="44.32177" lon="6.7007">
        <ele>1693</ele>
        <time>2016-03-25T08:41:18Z</time>
      </trkpt>
      <trkpt lat="44.3218" lon="6.7008">
        <ele>1693</ele>
        <time>2016-03-25T08:43:18Z</time>
      </trkpt>
      <trkpt lat="44.32182" lon="6.70089">
        <ele>1684</ele>
        <time>2016-03-25T08:45:18Z</time>
      </trkpt>
      <trkpt lat="44.32185" lon="6.70098">
        <ele>1684</ele>
        <time>2016-03-25T08:47:18Z</time>
      </trkpt>
      <trkpt lat="44.32188" lon="6.70107">
        <ele>1684</ele>
        <time>2016-03-25T08:49:18Z</time>
      </trkpt>
      <trkpt lat="44.3219" lon="6.70116">
        <ele>1684</ele>
        <time>2016-03-25T08:51:18Z</time>
      </trkpt>
      <trkpt lat="44.32193" lon="6.70125">
        <ele>1684</ele>
        <time>2016-03-25T08:53:18Z</time>
      </trkpt>
      <trkpt lat="44.32195" lon="6.70134">
        <ele>1684</ele>
        <time>2016-03-25T08:55:18Z</time>
      </trkpt>
      <trkpt lat="44.32198" lon="6.70143">
        <ele>1684</ele>
        <time>2016-03-25T08:57:18Z</time>
      </trkpt>
      <trkpt lat="44.322" lon="6.70151">
        <ele>1684</ele>
        <time>2016-03-25T08:59:18Z</time>
      </trkpt>
      <trkpt lat="44.32201" lon="6.7016">
        <ele>1684</ele>
        <time>2016-03-25T09:01:18Z</time>
      </trkpt>
      <trkpt lat="44.32203" lon="6.70185">
        <ele>1694</ele>
        <time>2016-03-25T09:03:18Z</time>
      </trkpt>
      <trkpt lat="44.32205" lon="6.70208">
        <ele>1694</ele>
        <time>2016-03-25T09:05:18Z</time>
      </trkpt>
      <trkpt lat="44.32206" lon="6.70218">
        <ele>1694</ele>
        <time>2016-03-25T09:07:18Z</time>
      </trkpt>
      <trkpt lat="44.32207" lon="6.70247">
        <ele>1694</ele>
        <time>2016-03-25T09:09:18Z</time>
      </trkpt>
      <trkpt lat="44.32207" lon="6.70264">
        <ele>1703</ele>
        <time>2016-03-25T09:11:18Z</time>
      </trkpt>
      <trkpt lat="44.32207" lon="6.70276">
        <ele>1704</ele>
        <time>2016-03-25T09:13:18Z</time>
      </trkpt>
      <trkpt lat="44.32206" lon="6.70285">
        <ele>1705</ele>
        <time>2016-03-25T09:15:18Z</time>
      </trkpt>
      <trkpt lat="44.32205" lon="6.70294">
        <ele>1706</ele>
        <time>2016-03-25T09:17:18Z</time>
      </trkpt>
      <trkpt lat="44.32203" lon="6.70301">
        <ele>1706</ele>
        <time>2016-03-25T09:19:18Z</time>
      </trkpt>
      <trkpt lat="44.32201" lon="6.7031">
        <ele>1706</ele>
        <time>2016-03-25T09:21:18Z</time>
      </trkpt>
      <trkpt lat="44.32199" lon="6.70318">
        <ele>1706</ele>
        <time>2016-03-25T09:23:18Z</time>
      </trkpt>
      <trkpt lat="44.32196" lon="6.70333">
        <ele>1707</ele>
        <time>2016-03-25T09:25:18Z</time>
      </trkpt>
      <trkpt lat="44.32194" lon="6.70341">
        <ele>1707</ele>
        <time>2016-03-25T09:27:18Z</time>
      </trkpt>
      <trkpt lat="44.32193" lon="6.70348">
        <ele>1707</ele>
        <time>2016-03-25T09:29:18Z</time>
      </trkpt>
      <trkpt lat="44.32191" lon="6.70361">
        <ele>1709</ele>
        <time>2016-03-25T09:31:18Z</time>
      </trkpt>
      <trkpt lat="44.3219" lon="6.70365">
        <ele>1709</ele>
        <time>2016-03-25T09:33:18Z</time>
      </trkpt>
      <trkpt lat="44.32189" lon="6.70367">
        <ele>1709</ele>
        <time>2016-03-25T09:35:18Z</time>
      </trkpt>
      <trkpt lat="44.32187" lon="6.70371">
        <ele>1708</ele>
        <time>2016-03-25T09:37:18Z</time>
      </trkpt>
      <trkpt lat="44.32185" lon="6.70373">
        <ele>1708</ele>
        <time>2016-03-25T09:39:18Z</time>
      </trkpt>
      <trkpt lat="44.32183" lon="6.70375">
        <ele>1708</ele>
        <time>2016-03-25T09:41:18Z</time>
      </trkpt>
      <trkpt lat="44.32182" lon="6.70377">
        <ele>1708</ele>
        <time>2016-03-25T09:43:18Z</time>
      </trkpt>
      <trkpt lat="44.3218" lon="6.70378">
        <ele>1707</ele>
        <time>2016-03-25T09:45:18Z</time>
      </trkpt>
      <trkpt lat="44.32178" lon="6.7038">
        <ele>1707</ele>
        <time>2016-03-25T09:47:18Z</time>
      </trkpt>
      <trkpt lat="44.32173" lon="6.70382">
        <ele>1705</ele>
        <time>2016-03-25T09:49:18Z</time>
      </trkpt>
      <trkpt lat="44.32171" lon="6.70383">
        <ele>1705</ele>
        <time>2016-03-25T09:51:18Z</time>
      </trkpt>
      <trkpt lat="44.32169" lon="6.70384">
        <ele>1704</ele>
        <time>2016-03-25T09:53:18Z</time>
      </trkpt>
      <trkpt lat="44.32164" lon="6.70386">
        <ele>1703</ele>
        <time>2016-03-25T09:55:18Z</time>
      </trkpt>
      <trkpt lat="44.3216" lon="6.70389">
        <ele>1702</ele>
        <time>2016-03-25T09:57:18Z</time>
      </trkpt>
      <trkpt lat="44.32156" lon="6.70393">
        <ele>1701</ele>
        <time>2016-03-25T09:59:18Z</time>
      </trkpt>
      <trkpt lat="44.32152" lon="6.70398">
        <ele>1701</ele>
        <time>2016-03-25T10:01:18Z</time>
      </trkpt>
      <trkpt lat="44.3215" lon="6.70403">
        <ele>1701</ele>
        <time>2016-03-25T10:03:18Z</time>
      </trkpt>
      <trkpt lat="44.32147" lon="6.70409">
        <ele>1701</ele>
        <time>2016-03-25T10:05:18Z</time>
      </trkpt>
      <trkpt lat="44.32145" lon="6.70415">
        <ele>1701</ele>
        <time>2016-03-25T10:07:18Z</time>
      </trkpt>
      <trkpt lat="44.32143" lon="6.70428">
        <ele>1702</ele>
        <time>2016-03-25T10:09:18Z</time>
      </trkpt>
      <trkpt lat="44.32141" lon="6.70438">
        <ele>1703</ele>
        <time>2016-03-25T10:11:18Z</time>
      </trkpt>
      <trkpt lat="44.3214" lon="6.70445">
        <ele>1704</ele>
        <time>2016-03-25T10:13:18Z</time>
      </trkpt>
      <trkpt lat="44.32136" lon="6.70465">
        <ele>1705</ele>
        <time>2016-03-25T10:15:18Z</time>
      </trkpt>
      <trkpt lat="44.32135" lon="6.70471">
        <ele>1705</ele>
        <time>2016-03-25T10:17:18Z</time>
      </trkpt>
      <trkpt lat="44.32135" lon="6.70477">
        <ele>1706</ele>
        <time>2016-03-25T10:19:18Z</time>
      </trkpt>
      <trkpt lat="44.32134" lon="6.70484">
        <ele>1706</ele>
        <time>2016-03-25T10:21:18Z</time>
      </trkpt>
      <trkpt lat="44.32134" lon="6.7049">
        <ele>1707</ele>
        <time>2016-03-25T10:23:18Z</time>
      </trkpt>
      <trkpt lat="44.32135" lon="6.70496">
        <ele>1708</ele>
        <time>2016-03-25T10:25:18Z</time>
      </trkpt>
      <trkpt lat="44.32137" lon="6.7051">
        <ele>1710</ele>
        <time>2016-03-25T10:27:18Z</time>
      </trkpt>
      <trkpt lat="44.32138" lon="6.7052">
        <ele>1711</ele>
        <time>2016-03-25T10:29:18Z</time>
      </trkpt>
      <trkpt lat="44.32138" lon="6.70527">
        <ele>1712</ele>
        <time>2016-03-25T10:31:18Z</time>
      </trkpt>
      <trkpt lat="44.32138" lon="6.70534">
        <ele>1712</ele>
        <time>2016-03-25T10:33:18Z</time>
      </trkpt>
      <trkpt lat="44.32138" lon="6.70542">
        <ele>1713</ele>
        <time>2016-03-25T10:35:18Z</time>
      </trkpt>
      <trkpt lat="44.32137" lon="6.70568">
        <ele>1714</ele>
        <time>2016-03-25T10:37:18Z</time>
      </trkpt>
      <trkpt lat="44.32137" lon="6.70586">
        <ele>1715</ele>
        <time>2016-03-25T10:39:18Z</time>
      </trkpt>
      <trkpt lat="44.32137" lon="6.70595">
        <ele>1715</ele>
        <time>2016-03-25T10:41:18Z</time>
      </trkpt>
      <trkpt lat="44.32135" lon="6.70614">
        <ele>1715</ele>
        <time>2016-03-25T10:43:18Z</time>
      </trkpt>
      <trkpt lat="44.32135" lon="6.70621">
        <ele>1716</ele>
        <time>2016-03-25T10:45:18Z</time>
      </trkpt>
      <trkpt lat="44.32134" lon="6.70632">
        <ele>1716</ele>
        <time>2016-03-25T10:47:18Z</time>
      </trkpt>
      <trkpt lat="44.32133" lon="6.70659">
        <ele>1717</ele>
        <time>2016-03-25T10:49:18Z</time>
      </trkpt>
      <trkpt lat="44.32133" lon="6.70685">
        <ele>1718</ele>
        <time>2016-03-25T10:51:18Z</time>
      </trkpt>
      <trkpt lat="44.32134" lon="6.70718">
        <ele>1719</ele>
        <time>2016-03-25T10:53:18Z</time>
      </trkpt>
      <trkpt lat="44.32134" lon="6.70732">
        <ele>1719</ele>
        <time>2016-03-25T10:55:18Z</time>
      </trkpt>
      <trkpt lat="44.32135" lon="6.70736">
        <ele>1720</ele>
        <time>2016-03-25T10:57:18Z</time>
      </trkpt>
      <trkpt lat="44.32136" lon="6.70742">
        <ele>1720</ele>
        <time>2016-03-25T10:59:18Z</time>
      </trkpt>
      <trkpt lat="44.32137" lon="6.70749">
        <ele>1721</ele>
        <time>2016-03-25T11:01:18Z</time>
      </trkpt>
      <trkpt lat="44.32137" lon="6.70753">
        <ele>1721</ele>
        <time>2016-03-25T11:03:18Z</time>
      </trkpt>
      <trkpt lat="44.32138" lon="6.70757">
        <ele>1722</ele>
        <time>2016-03-25T11:05:18Z</time>
      </trkpt>
      <trkpt lat="44.32141" lon="6.70763">
        <ele>1723</ele>
        <time>2016-03-25T11:07:18Z</time>
      </trkpt>
      <trkpt lat="44.32143" lon="6.70769">
        <ele>1724</ele>
        <time>2016-03-25T11:09:18Z</time>
      </trkpt>
      <trkpt lat="44.32146" lon="6.70775">
        <ele>1726</ele>
        <time>2016-03-25T11:11:18Z</time>
      </trkpt>
      <trkpt lat="44.32149" lon="6.70781">
        <ele>1727</ele>
        <time>2016-03-25T11:13:18Z</time>
      </trkpt>
      <trkpt lat="44.32151" lon="6.70786">
        <ele>1728</ele>
        <time>2016-03-25T11:15:18Z</time>
      </trkpt>
      <trkpt lat="44.32153" lon="6.70791">
        <ele>1729</ele>
        <time>2016-03-25T11:17:18Z</time>
      </trkpt>
      <trkpt lat="44.32154" lon="6.70794">
        <ele>1730</ele>
        <time>2016-03-25T11:19:18Z</time>
      </trkpt>
      <trkpt lat="44.32156" lon="6.70801">
        <ele>1730</ele>
        <time>2016-03-25T11:21:18Z</time>
      </trkpt>
      <trkpt lat="44.32158" lon="6.70808">
        <ele>1731</ele>
        <time>2016-03-25T11:23:18Z</time>
      </trkpt>
      <trkpt lat="44.3216" lon="6.70816">
        <ele>1732</ele>
        <time>2016-03-25T11:25:18Z</time>
      </trkpt>
      <trkpt lat="44.32161" lon="6.70823">
        <ele>1732</ele>
        <time>2016-03-25T11:27:18Z</time>
      </trkpt>
      <trkpt lat="44.32161" lon="6.7083">
        <ele>1732</ele>
        <time>2016-03-25T11:29:18Z</time>
      </trkpt>
      <trkpt lat="44.32161" lon="6.70837">
        <ele>1731</ele>
        <time>2016-03-25T11:31:18Z</time>
      </trkpt>
      <trkpt lat="44.32161" lon="6.70844">
        <ele>1731</ele>
        <time>2016-03-25T11:33:18Z</time>
      </trkpt>
      <trkpt lat="44.32161" lon="6.70851">
        <ele>1731</ele>
        <time>2016-03-25T11:35:18Z</time>
      </trkpt>
      <trkpt lat="44.32162" lon="6.70858">
        <ele>1731</ele>
        <time>2016-03-25T11:37:18Z</time>
      </trkpt>
      <trkpt lat="44.32163" lon="6.70862">
        <ele>1731</ele>
        <time>2016-03-25T11:39:18Z</time>
      </trkpt>
      <trkpt lat="44.32163" lon="6.70865">
        <ele>1731</ele>
        <time>2016-03-25T11:41:18Z</time>
      </trkpt>
      <trkpt lat="44.32164" lon="6.70868">
        <ele>1732</ele>
        <time>2016-03-25T11:43:18Z</time>
      </trkpt>
      <trkpt lat="44.32165" lon="6.7087">
        <ele>1732</ele>
        <time>2016-03-25T11:45:18Z</time>
      </trkpt>
      <trkpt lat="44.32168" lon="6.70875">
        <ele>1733</ele>
        <time>2016-03-25T11:47:18Z</time>
      </trkpt>
      <trkpt lat="44.3217" lon="6.7088">
        <ele>1734</ele>
        <time>2016-03-25T11:49:18Z</time>
      </trkpt>
      <trkpt lat="44.32174" lon="6.70884">
        <ele>1735</ele>
        <time>2016-03-25T11:51:18Z</time>
      </trkpt>
      <trkpt lat="44.32177" lon="6.70888">
        <ele>1736</ele>
        <time>2016-03-25T11:53:18Z</time>
      </trkpt>
      <trkpt lat="44.3218" lon="6.70891">
        <ele>1737</ele>
        <time>2016-03-25T11:55:18Z</time>
      </trkpt>
      <trkpt lat="44.32184" lon="6.70893">
        <ele>1739</ele>
        <time>2016-03-25T11:57:18Z</time>
      </trkpt>
      <trkpt lat="44.32185" lon="6.70894">
        <ele>1739</ele>
        <time>2016-03-25T11:59:18Z</time>
      </trkpt>
      <trkpt lat="44.32188" lon="6.70896">
        <ele>1740</ele>
        <time>2016-03-25T12:01:18Z</time>
      </trkpt>
      <trkpt lat="44.32189" lon="6.70898">
        <ele>1740</ele>
        <time>2016-03-25T12:03:18Z</time>
      </trkpt>
      <trkpt lat="44.3219" lon="6.70899">
        <ele>1741</ele>
        <time>2016-03-25T12:05:18Z</time>
      </trkpt>
      <trkpt lat="44.32192" lon="6.70902">
        <ele>1741</ele>
        <time>2016-03-25T12:07:18Z</time>
      </trkpt>
      <trkpt lat="44.32192" lon="6.70903">
        <ele>1741</ele>
        <time>2016-03-25T12:09:18Z</time>
      </trkpt>
      <trkpt lat="44.32194" lon="6.70906">
        <ele>1742</ele>
        <time>2016-03-25T12:11:18Z</time>
      </trkpt>
      <trkpt lat="44.32196" lon="6.70909">
        <ele>1742</ele>
        <time>2016-03-25T12:13:18Z</time>
      </trkpt>
      <trkpt lat="44.32196" lon="6.70918">
        <ele>1742</ele>
        <time>2016-03-25T12:15:18Z</time>
      </trkpt>
      <trkpt lat="44.32196" lon="6.70928">
        <ele>1743</ele>
        <time>2016-03-25T12:17:18Z</time>
      </trkpt>
      <trkpt lat="44.32194" lon="6.70932">
        <ele>1742</ele>
        <time>2016-03-25T12:19:18Z</time>
      </trkpt>
      <trkpt lat="44.32192" lon="6.70937">
        <ele>1742</ele>
        <time>2016-03-25T12:21:18Z</time>
      </trkpt>
      <trkpt lat="44.32189" lon="6.7094">
        <ele>1741</ele>
        <time>2016-03-25T12:23:18Z</time>
      </trkpt>
      <trkpt lat="44.32186" lon="6.70943">
        <ele>1741</ele>
        <time>2016-03-25T12:25:18Z</time>
      </trkpt>
      <trkpt lat="44.32184" lon="6.70945">
        <ele>1740</ele>
        <time>2016-03-25T12:27:18Z</time>
      </trkpt>
      <trkpt lat="44.32179" lon="6.70948">
        <ele>1739</ele>
        <time>2016-03-25T12:29:18Z</time>
      </trkpt>
      <trkpt lat="44.32173" lon="6.70951">
        <ele>1737</ele>
        <time>2016-03-25T12:31:18Z</time>
      </trkpt>
      <trkpt lat="44.3217" lon="6.70953">
        <ele>1736</ele>
        <time>2016-03-25T12:33:18Z</time>
      </trkpt>
      <trkpt lat="44.32166" lon="6.70955">
        <ele>1735</ele>
        <time>2016-03-25T12:35:18Z</time>
      </trkpt>
      <trkpt lat="44.32161" lon="6.70959">
        <ele>1734</ele>
        <time>2016-03-25T12:37:18Z</time>
      </trkpt>
      <trkpt lat="44.32157" lon="6.70962">
        <ele>1733</ele>
        <time>2016-03-25T12:39:18Z</time>
      </trkpt>
      <trkpt lat="44.32153" lon="6.70966">
        <ele>1732</ele>
        <time>2016-03-25T12:41:18Z</time>
      </trkpt>
      <trkpt lat="44.32152" lon="6.70968">
        <ele>1732</ele>
        <time>2016-03-25T12:43:18Z</time>
      </trkpt>
      <trkpt lat="44.32149" lon="6.70975">
        <ele>1732</ele>
        <time>2016-03-25T12:45:18Z</time>
      </trkpt>
      <trkpt lat="44.32147" lon="6.70982">
        <ele>1732</ele>
        <time>2016-03-25T12:47:18Z</time>
      </trkpt>
      <trkpt lat="44.32145" lon="6.7099">
        <ele>1732</ele>
        <time>2016-03-25T12:49:18Z</time>
      </trkpt>
      <trkpt lat="44.32144" lon="6.70998">
        <ele>1732</ele>
        <time>2016-03-25T12:51:18Z</time>
      </trkpt>
      <trkpt lat="44.32144" lon="6.71007">
        <ele>1733</ele>
        <time>2016-03-25T12:53:18Z</time>
      </trkpt>
      <trkpt lat="44.32144" lon="6.71015">
        <ele>1734</ele>
        <time>2016-03-25T12:55:18Z</time>
      </trkpt>
      <trkpt lat="44.32143" lon="6.71023">
        <ele>1734</ele>
        <time>2016-03-25T12:57:18Z</time>
      </trkpt>
      <trkpt lat="44.32143" lon="6.71032">
        <ele>1735</ele>
        <time>2016-03-25T12:59:18Z</time>
      </trkpt>
      <trkpt lat="44.32142" lon="6.7104">
        <ele>1736</ele>
        <time>2016-03-25T13:01:18Z</time>
      </trkpt>
      <trkpt lat="44.32141" lon="6.71048">
        <ele>1736</ele>
        <time>2016-03-25T13:03:18Z</time>
      </trkpt>
      <trkpt lat="44.32139" lon="6.71056">
        <ele>1736</ele>
        <time>2016-03-25T13:05:18Z</time>
      </trkpt>
      <trkpt lat="44.32136" lon="6.71063">
        <ele>1736</ele>
        <time>2016-03-25T13:07:18Z</time>
      </trkpt>
      <trkpt lat="44.32133" lon="6.7107">
        <ele>1735</ele>
        <time>2016-03-25T13:09:18Z</time>
      </trkpt>
      <trkpt lat="44.3213" lon="6.71079">
        <ele>1735</ele>
        <time>2016-03-25T13:11:18Z</time>
      </trkpt>
      <trkpt lat="44.32127" lon="6.71085">
        <ele>1734</ele>
        <time>2016-03-25T13:13:18Z</time>
      </trkpt>
      <trkpt lat="44.32124" lon="6.71093">
        <ele>1734</ele>
        <time>2016-03-25T13:15:18Z</time>
      </trkpt>
      <trkpt lat="44.32118" lon="6.71105">
        <ele>1733</ele>
        <time>2016-03-25T13:17:18Z</time>
      </trkpt>
      <trkpt lat="44.32115" lon="6.71111">
        <ele>1733</ele>
        <time>2016-03-25T13:19:18Z</time>
      </trkpt>
      <trkpt lat="44.32112" lon="6.71118">
        <ele>1732</ele>
        <time>2016-03-25T13:21:18Z</time>
      </trkpt>
      <trkpt lat="44.3211" lon="6.71125">
        <ele>1732</ele>
        <time>2016-03-25T13:23:18Z</time>
      </trkpt>
      <trkpt lat="44.32109" lon="6.71132">
        <ele>1733</ele>
        <time>2016-03-25T13:25:18Z</time>
      </trkpt>
      <trkpt lat="44.32109" lon="6.7114">
        <ele>1733</ele>
        <time>2016-03-25T13:27:18Z</time>
      </trkpt>
      <trkpt lat="44.32109" lon="6.71148">
        <ele>1734</ele>
        <time>2016-03-25T13:29:18Z</time>
      </trkpt>
      <trkpt lat="44.32109" lon="6.71155">
        <ele>1735</ele>
        <time>2016-03-25T13:31:18Z</time>
      </trkpt>
      <trkpt lat="44.3211" lon="6.71162">
        <ele>1736</ele>
        <time>2016-03-25T13:33:18Z</time>
      </trkpt>
      <trkpt lat="44.3211" lon="6.7117">
        <ele>1737</ele>
        <time>2016-03-25T13:35:18Z</time>
      </trkpt>
      <trkpt lat="44.3211" lon="6.71177">
        <ele>1738</ele>
        <time>2016-03-25T13:37:18Z</time>
      </trkpt>
      <trkpt lat="44.32109" lon="6.7118">
        <ele>1738</ele>
        <time>2016-03-25T13:39:18Z</time>
      </trkpt>
      <trkpt lat="44.32109" lon="6.71185">
        <ele>1739</ele>
        <time>2016-03-25T13:41:18Z</time>
      </trkpt>
      <trkpt lat="44.32107" lon="6.71192">
        <ele>1739</ele>
        <time>2016-03-25T13:43:18Z</time>
      </trkpt>
      <trkpt lat="44.32105" lon="6.71198">
        <ele>1738</ele>
        <time>2016-03-25T13:45:18Z</time>
      </trkpt>
      <trkpt lat="44.32101" lon="6.71205">
        <ele>1738</ele>
        <time>2016-03-25T13:47:18Z</time>
      </trkpt>
      <trkpt lat="44.32098" lon="6.71211">
        <ele>1737</ele>
        <time>2016-03-25T13:49:18Z</time>
      </trkpt>
      <trkpt lat="44.3209" lon="6.71222">
        <ele>1735</ele>
        <time>2016-03-25T13:51:18Z</time>
      </trkpt>
      <trkpt lat="44.32086" lon="6.71228">
        <ele>1734</ele>
        <time>2016-03-25T13:53:18Z</time>
      </trkpt>
      <trkpt lat="44.32082" lon="6.71234">
        <ele>1733</ele>
        <time>2016-03-25T13:55:18Z</time>
      </trkpt>
      <trkpt lat="44.32076" lon="6.71245">
        <ele>1732</ele>
        <time>2016-03-25T13:57:18Z</time>
      </trkpt>
      <trkpt lat="44.32067" lon="6.71261">
        <ele>1732</ele>
        <time>2016-03-25T13:59:18Z</time>
      </trkpt>
      <trkpt lat="44.32064" lon="6.71269">
        <ele>1732</ele>
        <time>2016-03-25T14:01:18Z</time>
      </trkpt>
      <trkpt lat="44.32061" lon="6.71276">
        <ele>1733</ele>
        <time>2016-03-25T14:03:18Z</time>
      </trkpt>
      <trkpt lat="44.32058" lon="6.71283">
        <ele>1733</ele>
        <time>2016-03-25T14:05:18Z</time>
      </trkpt>
      <trkpt lat="44.32055" lon="6.71291">
        <ele>1733</ele>
        <time>2016-03-25T14:07:18Z</time>
      </trkpt>
      <trkpt lat="44.32054" lon="6.71299">
        <ele>1734</ele>
        <time>2016-03-25T14:09:18Z</time>
      </trkpt>
      <trkpt lat="44.32052" lon="6.71307">
        <ele>1735</ele>
        <time>2016-03-25T14:11:18Z</time>
      </trkpt>
      <trkpt lat="44.32051" lon="6.71316">
        <ele>1736</ele>
        <time>2016-03-25T14:13:18Z</time>
      </trkpt>
      <trkpt lat="44.32049" lon="6.71334">
        <ele>1738</ele>
        <time>2016-03-25T14:15:18Z</time>
      </trkpt>
      <trkpt lat="44.32046" lon="6.71351">
        <ele>1739</ele>
        <time>2016-03-25T14:17:18Z</time>
      </trkpt>
      <trkpt lat="44.32043" lon="6.71367">
        <ele>1740</ele>
        <time>2016-03-25T14:19:18Z</time>
      </trkpt>
      <trkpt lat="44.32042" lon="6.71376">
        <ele>1741</ele>
        <time>2016-03-25T14:21:18Z</time>
      </trkpt>
      <trkpt lat="44.32038" lon="6.71391">
        <ele>1742</ele>
        <time>2016-03-25T14:23:18Z</time>
      </trkpt>
      <trkpt lat="44.32037" lon="6.71399">
        <ele>1743</ele>
        <time>2016-03-25T14:25:18Z</time>
      </trkpt>
      <trkpt lat="44.32035" lon="6.71405">
        <ele>1743</ele>
        <time>2016-03-25T14:27:18Z</time>
      </trkpt>
      <trkpt lat="44.32033" lon="6.71414">
        <ele>1743</ele>
        <time>2016-03-25T14:29:18Z</time>
      </trkpt>
      <trkpt lat="44.3203" lon="6.7142">
        <ele>1743</ele>
        <time>2016-03-25T14:31:18Z</time>
      </trkpt>
      <trkpt lat="44.32028" lon="6.71426">
        <ele>1743</ele>
        <time>2016-03-25T14:33:18Z</time>
      </trkpt>
      <trkpt lat="44.32024" lon="6.71432">
        <ele>1742</ele>
        <time>2016-03-25T14:35:18Z</time>
      </trkpt>
      <trkpt lat="44.32022" lon="6.71436">
        <ele>1741</ele>
        <time>2016-03-25T14:37:18Z</time>
      </trkpt>
      <trkpt lat="44.3202" lon="6.71439">
        <ele>1741</ele>
        <time>2016-03-25T14:39:18Z</time>
      </trkpt>
      <trkpt lat="44.32018" lon="6.71442">
        <ele>1740</ele>
        <time>2016-03-25T14:41:18Z</time>
      </trkpt>
      <trkpt lat="44.32017" lon="6.71444">
        <ele>1740</ele>
        <time>2016-03-25T14:43:18Z</time>
      </trkpt>
      <trkpt lat="44.32015" lon="6.71447">
        <ele>1740</ele>
        <time>2016-03-25T14:45:18Z</time>
      </trkpt>
      <trkpt lat="44.32014" lon="6.71453">
        <ele>1740</ele>
        <time>2016-03-25T14:47:18Z</time>
      </trkpt>
      <trkpt lat="44.32012" lon="6.71459">
        <ele>1739</ele>
        <time>2016-03-25T14:49:18Z</time>
      </trkpt>
      <trkpt lat="44.32012" lon="6.71464">
        <ele>1739</ele>
        <time>2016-03-25T14:51:18Z</time>
      </trkpt>
      <trkpt lat="44.32012" lon="6.7147">
        <ele>1740</ele>
        <time>2016-03-25T14:53:18Z</time>
      </trkpt>
      <trkpt lat="44.32013" lon="6.71476">
        <ele>1741</ele>
        <time>2016-03-25T14:55:18Z</time>
      </trkpt>
      <trkpt lat="44.32015" lon="6.71482">
        <ele>1742</ele>
        <time>2016-03-25T14:57:18Z</time>
      </trkpt>
      <trkpt lat="44.32016" lon="6.71487">
        <ele>1742</ele>
        <time>2016-03-25T14:59:18Z</time>
      </trkpt>
      <trkpt lat="44.32019" lon="6.71492">
        <ele>1744</ele>
        <time>2016-03-25T15:01:18Z</time>
      </trkpt>
      <trkpt lat="44.32023" lon="6.715">
        <ele>1746</ele>
        <time>2016-03-25T15:03:18Z</time>
      </trkpt>
      <trkpt lat="44.32032" lon="6.71514">
        <ele>1751</ele>
        <time>2016-03-25T15:05:18Z</time>
      </trkpt>
      <trkpt lat="44.32033" lon="6.71518">
        <ele>1752</ele>
        <time>2016-03-25T15:07:18Z</time>
      </trkpt>
      <trkpt lat="44.32033" lon="6.71519">
        <ele>1752</ele>
        <time>2016-03-25T15:09:18Z</time>
      </trkpt>
      <trkpt lat="44.32033" lon="6.7152">
        <ele>1752</ele>
        <time>2016-03-25T15:11:18Z</time>
      </trkpt>
      <trkpt lat="44.32033" lon="6.71522">
        <ele>1752</ele>
        <time>2016-03-25T15:13:18Z</time>
      </trkpt>
      <trkpt lat="44.32033" lon="6.71524">
        <ele>1753</ele>
        <time>2016-03-25T15:15:18Z</time>
      </trkpt>
      <trkpt lat="44.32033" lon="6.71527">
        <ele>1753</ele>
        <time>2016-03-25T15:17:18Z</time>
      </trkpt>
      <trkpt lat="44.32032" lon="6.71533">
        <ele>1754</ele>
        <time>2016-03-25T15:19:18Z</time>
      </trkpt>
      <trkpt lat="44.32031" lon="6.71535">
        <ele>1754</ele>
        <time>2016-03-25T15:21:18Z</time>
      </trkpt>
      <trkpt lat="44.3203" lon="6.71537">
        <ele>1754</ele>
        <time>2016-03-25T15:23:18Z</time>
      </trkpt>
      <trkpt lat="44.3203" lon="6.71539">
        <ele>1754</ele>
        <time>2016-03-25T15:25:18Z</time>
      </trkpt>
      <trkpt lat="44.32029" lon="6.71541">
        <ele>1754</ele>
        <time>2016-03-25T15:27:18Z</time>
      </trkpt>
      <trkpt lat="44.32027" lon="6.71545">
        <ele>1754</ele>
        <time>2016-03-25T15:29:18Z</time>
      </trkpt>
      <trkpt lat="44.32026" lon="6.71549">
        <ele>1754</ele>
        <time>2016-03-25T15:31:18Z</time>
      </trkpt>
      <trkpt lat="44.32024" lon="6.71551">
        <ele>1754</ele>
        <time>2016-03-25T15:33:18Z</time>
      </trkpt>
      <trkpt lat="44.32022" lon="6.71554">
        <ele>1754</ele>
        <time>2016-03-25T15:35:18Z</time>
      </trkpt>
      <trkpt lat="44.32018" lon="6.71555">
        <ele>1753</ele>
        <time>2016-03-25T15:37:18Z</time>
      </trkpt>
      <trkpt lat="44.32015" lon="6.71555">
        <ele>1752</ele>
        <time>2016-03-25T15:39:18Z</time>
      </trkpt>
      <trkpt lat="44.32008" lon="6.71555">
        <ele>1750</ele>
        <time>2016-03-25T15:41:18Z</time>
      </trkpt>
      <trkpt lat="44.32004" lon="6.71554">
        <ele>1749</ele>
        <time>2016-03-25T15:43:18Z</time>
      </trkpt>
      <trkpt lat="44.32001" lon="6.71554">
        <ele>1748</ele>
        <time>2016-03-25T15:45:18Z</time>
      </trkpt>
      <trkpt lat="44.32" lon="6.71555">
        <ele>1748</ele>
        <time>2016-03-25T15:47:18Z</time>
      </trkpt>
      <trkpt lat="44.31997" lon="6.71555">
        <ele>1747</ele>
        <time>2016-03-25T15:49:18Z</time>
      </trkpt>
      <trkpt lat="44.31995" lon="6.71556">
        <ele>1746</ele>
        <time>2016-03-25T15:51:18Z</time>
      </trkpt>
      <trkpt lat="44.31993" lon="6.71557">
        <ele>1745</ele>
        <time>2016-03-25T15:53:18Z</time>
      </trkpt>
      <trkpt lat="44.31992" lon="6.71559">
        <ele>1746</ele>
        <time>2016-03-25T15:55:18Z</time>
      </trkpt>
      <trkpt lat="44.3199" lon="6.71561">
        <ele>1745</ele>
        <time>2016-03-25T15:57:18Z</time>
      </trkpt>
      <trkpt lat="44.31988" lon="6.71563">
        <ele>1745</ele>
        <time>2016-03-25T15:59:18Z</time>
      </trkpt>
      <trkpt lat="44.31985" lon="6.71569">
        <ele>1745</ele>
        <time>2016-03-25T16:01:18Z</time>
      </trkpt>
      <trkpt lat="44.31983" lon="6.71575">
        <ele>1745</ele>
        <time>2016-03-25T16:03:18Z</time>
      </trkpt>
      <trkpt lat="44.31981" lon="6.71586">
        <ele>1746</ele>
        <time>2016-03-25T16:05:18Z</time>
      </trkpt>
      <trkpt lat="44.31978" lon="6.71597">
        <ele>1748</ele>
        <time>2016-03-25T16:07:18Z</time>
      </trkpt>
      <trkpt lat="44.31974" lon="6.71613">
        <ele>1750</ele>
        <time>2016-03-25T16:09:18Z</time>
      </trkpt>
      <trkpt lat="44.31971" lon="6.71621">
        <ele>1751</ele>
        <time>2016-03-25T16:11:18Z</time>
      </trkpt>
      <trkpt lat="44.31968" lon="6.71629">
        <ele>1752</ele>
        <time>2016-03-25T16:13:18Z</time>
      </trkpt>
      <trkpt lat="44.31964" lon="6.71637">
        <ele>1752</ele>
        <time>2016-03-25T16:15:18Z</time>
      </trkpt>
      <trkpt lat="44.31961" lon="6.71644">
        <ele>1752</ele>
        <time>2016-03-25T16:17:18Z</time>
      </trkpt>
      <trkpt lat="44.31948" lon="6.71666">
        <ele>1750</ele>
        <time>2016-03-25T16:19:18Z</time>
      </trkpt>
      <trkpt lat="44.31941" lon="6.7168">
        <ele>1748</ele>
        <time>2016-03-25T16:21:18Z</time>
      </trkpt>
      <trkpt lat="44.31936" lon="6.71691">
        <ele>1746</ele>
        <time>2016-03-25T16:23:18Z</time>
      </trkpt>
      <trkpt lat="44.31935" lon="6.71696">
        <ele>1746</ele>
        <time>2016-03-25T16:25:18Z</time>
      </trkpt>
      <trkpt lat="44.31933" lon="6.71702">
        <ele>1746</ele>
        <time>2016-03-25T16:27:18Z</time>
      </trkpt>
      <trkpt lat="44.31931" lon="6.7171">
        <ele>1746</ele>
        <time>2016-03-25T16:29:18Z</time>
      </trkpt>
      <trkpt lat="44.3193" lon="6.71718">
        <ele>1746</ele>
        <time>2016-03-25T16:31:18Z</time>
      </trkpt>
      <trkpt lat="44.31929" lon="6.71726">
        <ele>1747</ele>
        <time>2016-03-25T16:33:18Z</time>
      </trkpt>
      <trkpt lat="44.31928" lon="6.71734">
        <ele>1747</ele>
        <time>2016-03-25T16:35:18Z</time>
      </trkpt>
      <trkpt lat="44.31928" lon="6.71754">
        <ele>1749</ele>
        <time>2016-03-25T16:37:18Z</time>
      </trkpt>
      <trkpt lat="44.31929" lon="6.71769">
        <ele>1750</ele>
        <time>2016-03-25T16:39:18Z</time>
      </trkpt>
      <trkpt lat="44.3193" lon="6.71778">
        <ele>1752</ele>
        <time>2016-03-25T16:41:18Z</time>
      </trkpt>
      <trkpt lat="44.31931" lon="6.71787">
        <ele>1753</ele>
        <time>2016-03-25T16:43:18Z</time>
      </trkpt>
      <trkpt lat="44.31934" lon="6.71803">
        <ele>1755</ele>
        <time>2016-03-25T16:45:18Z</time>
      </trkpt>
      <trkpt lat="44.31938" lon="6.71819">
        <ele>1758</ele>
        <time>2016-03-25T16:47:18Z</time>
      </trkpt>
      <trkpt lat="44.31943" lon="6.71842">
        <ele>1762</ele>
        <time>2016-03-25T16:49:18Z</time>
      </trkpt>
      <trkpt lat="44.31944" lon="6.71851">
        <ele>1762</ele>
        <time>2016-03-25T16:51:18Z</time>
      </trkpt>
      <trkpt lat="44.31945" lon="6.71855">
        <ele>1762</ele>
        <time>2016-03-25T16:53:18Z</time>
      </trkpt>
      <trkpt lat="44.31945" lon="6.71859">
        <ele>1762</ele>
        <time>2016-03-25T16:55:18Z</time>
      </trkpt>
      <trkpt lat="44.31946" lon="6.71864">
        <ele>1762</ele>
        <time>2016-03-25T16:57:18Z</time>
      </trkpt>
      <trkpt lat="44.31946" lon="6.71867">
        <ele>1762</ele>
        <time>2016-03-25T16:59:18Z</time>
      </trkpt>
      <trkpt lat="44.31946" lon="6.7187">
        <ele>1762</ele>
        <time>2016-03-25T17:01:18Z</time>
      </trkpt>
      <trkpt lat="44.31945" lon="6.71879">
        <ele>1761</ele>
        <time>2016-03-25T17:03:18Z</time>
      </trkpt>
      <trkpt lat="44.31944" lon="6.7189">
        <ele>1760</ele>
        <time>2016-03-25T17:05:18Z</time>
      </trkpt>
      <trkpt lat="44.31942" lon="6.71898">
        <ele>1759</ele>
        <time>2016-03-25T17:07:18Z</time>
      </trkpt>
      <trkpt lat="44.31939" lon="6.71911">
        <ele>1757</ele>
        <time>2016-03-25T17:09:18Z</time>
      </trkpt>
      <trkpt lat="44.31937" lon="6.71918">
        <ele>1756</ele>
        <time>2016-03-25T17:11:18Z</time>
      </trkpt>
      <trkpt lat="44.31936" lon="6.71925">
        <ele>1755</ele>
        <time>2016-03-25T17:13:18Z</time>
      </trkpt>
      <trkpt lat="44.31935" lon="6.71933">
        <ele>1755</ele>
        <time>2016-03-25T17:15:18Z</time>
      </trkpt>
      <trkpt lat="44.31935" lon="6.71942">
        <ele>1755</ele>
        <time>2016-03-25T17:17:18Z</time>
      </trkpt>
      <trkpt lat="44.31936" lon="6.71961">
        <ele>1756</ele>
        <time>2016-03-25T17:19:18Z</time>
      </trkpt>
      <trkpt lat="44.31937" lon="6.71971">
        <ele>1757</ele>
        <time>2016-03-25T17:21:18Z</time>
      </trkpt>
      <trkpt lat="44.31938" lon="6.71983">
        <ele>1758</ele>
        <time>2016-03-25T17:23:18Z</time>
      </trkpt>
      <trkpt lat="44.3194" lon="6.72">
        <ele>1759</ele>
        <time>2016-03-25T17:25:18Z</time>
      </trkpt>
      <trkpt lat="44.31943" lon="6.72016">
        <ele>1759</ele>
        <time>2016-03-25T17:27:18Z</time>
      </trkpt>
      <trkpt lat="44.31947" lon="6.72031">
        <ele>1759</ele>
        <time>2016-03-25T17:29:18Z</time>
      </trkpt>
      <trkpt lat="44.31952" lon="6.72047">
        <ele>1760</ele>
        <time>2016-03-25T17:31:18Z</time>
      </trkpt>
      <trkpt lat="44.31957" lon="6.72063">
        <ele>1760</ele>
        <time>2016-03-25T17:33:18Z</time>
      </trkpt>
      <trkpt lat="44.3196" lon="6.72077">
        <ele>1760</ele>
        <time>2016-03-25T17:35:18Z</time>
      </trkpt>
      <trkpt lat="44.3196" lon="6.72079">
        <ele>1760</ele>
        <time>2016-03-25T17:37:18Z</time>
      </trkpt>
      <trkpt lat="44.31961" lon="6.72088">
        <ele>1760</ele>
        <time>2016-03-25T17:39:18Z</time>
      </trkpt>
      <trkpt lat="44.31962" lon="6.72105">
        <ele>1760</ele>
        <time>2016-03-25T17:41:18Z</time>
      </trkpt>
      <trkpt lat="44.31962" lon="6.72113">
        <ele>1760</ele>
        <time>2016-03-25T17:43:18Z</time>
      </trkpt>
      <trkpt lat="44.31962" lon="6.72121">
        <ele>1760</ele>
        <time>2016-03-25T17:45:18Z</time>
      </trkpt>
      <trkpt lat="44.3196" lon="6.72139">
        <ele>1759</ele>
        <time>2016-03-25T17:47:18Z</time>
      </trkpt>
      <trkpt lat="44.31959" lon="6.72155">
        <ele>1758</ele>
        <time>2016-03-25T17:49:18Z</time>
      </trkpt>
      <trkpt lat="44.31958" lon="6.72163">
        <ele>1757</ele>
        <time>2016-03-25T17:51:18Z</time>
      </trkpt>
      <trkpt lat="44.31957" lon="6.72172">
        <ele>1757</ele>
        <time>2016-03-25T17:53:18Z</time>
      </trkpt>
      <trkpt lat="44.31953" lon="6.72211">
        <ele>1755</ele>
        <time>2016-03-25T17:55:18Z</time>
      </trkpt>
      <trkpt lat="44.31951" lon="6.72231">
        <ele>1754</ele>
        <time>2016-03-25T17:57:18Z</time>
      </trkpt>
      <trkpt lat="44.31949" lon="6.72254">
        <ele>1754</ele>
        <time>2016-03-25T17:59:18Z</time>
      </trkpt>
      <trkpt lat="44.31947" lon="6.72271">
        <ele>1756</ele>
        <time>2016-03-25T18:01:18Z</time>
      </trkpt>
      <trkpt lat="44.31944" lon="6.72288">
        <ele>1758</ele>
        <time>2016-03-25T18:03:18Z</time>
      </trkpt>
      <trkpt lat="44.31937" lon="6.72299">
        <ele>1757</ele>
        <time>2016-03-25T18:05:18Z</time>
      </trkpt>
      <trkpt lat="44.31934" lon="6.72304">
        <ele>1757</ele>
        <time>2016-03-25T18:07:18Z</time>
      </trkpt>
      <trkpt lat="44.3191" lon="6.7232">
        <ele>1752</ele>
        <time>2016-03-25T18:09:18Z</time>
      </trkpt>
      <trkpt lat="44.31905" lon="6.72324">
        <ele>1751</ele>
        <time>2016-03-25T18:11:18Z</time>
      </trkpt>
      <trkpt lat="44.319" lon="6.72328">
        <ele>1750</ele>
        <time>2016-03-25T18:13:18Z</time>
      </trkpt>
      <trkpt lat="44.31896" lon="6.72333">
        <ele>1750</ele>
        <time>2016-03-25T18:15:18Z</time>
      </trkpt>
      <trkpt lat="44.31892" lon="6.72339">
        <ele>1749</ele>
        <time>2016-03-25T18:17:18Z</time>
      </trkpt>
      <trkpt lat="44.31888" lon="6.72346">
        <ele>1748</ele>
        <time>2016-03-25T18:19:18Z</time>
      </trkpt>
      <trkpt lat="44.31885" lon="6.72353">
        <ele>1748</ele>
        <time>2016-03-25T18:21:18Z</time>
      </trkpt>
      <trkpt lat="44.31882" lon="6.72361">
        <ele>1748</ele>
        <time>2016-03-25T18:23:18Z</time>
      </trkpt>
      <trkpt lat="44.31879" lon="6.72368">
        <ele>1747</ele>
        <time>2016-03-25T18:25:18Z</time>
      </trkpt>
      <trkpt lat="44.31877" lon="6.72378">
        <ele>1747</ele>
        <time>2016-03-25T18:27:18Z</time>
      </trkpt>
      <trkpt lat="44.31875" lon="6.72395">
        <ele>1748</ele>
        <time>2016-03-25T18:29:18Z</time>
      </trkpt>
      <trkpt lat="44.31873" lon="6.72404">
        <ele>1748</ele>
        <time>2016-03-25T18:31:18Z</time>
      </trkpt>
      <trkpt lat="44.31872" lon="6.72413">
        <ele>1749</ele>
        <time>2016-03-25T18:33:18Z</time>
      </trkpt>
      <trkpt lat="44.31871" lon="6.72422">
        <ele>1749</ele>
        <time>2016-03-25T18:35:18Z</time>
      </trkpt>
      <trkpt lat="44.3187" lon="6.72431">
        <ele>1750</ele>
        <time>2016-03-25T18:37:18Z</time>
      </trkpt>
      <trkpt lat="44.31868" lon="6.72441">
        <ele>1751</ele>
        <time>2016-03-25T18:39:18Z</time>
      </trkpt>
      <trkpt lat="44.31865" lon="6.72459">
        <ele>1753</ele>
        <time>2016-03-25T18:41:18Z</time>
      </trkpt>
      <trkpt lat="44.31862" lon="6.72468">
        <ele>1753</ele>
        <time>2016-03-25T18:43:18Z</time>
      </trkpt>
      <trkpt lat="44.3186" lon="6.72477">
        <ele>1754</ele>
        <time>2016-03-25T18:45:18Z</time>
      </trkpt>
      <trkpt lat="44.31858" lon="6.72486">
        <ele>1754</ele>
        <time>2016-03-25T18:47:18Z</time>
      </trkpt>
      <trkpt lat="44.31855" lon="6.72495">
        <ele>1755</ele>
        <time>2016-03-25T18:49:18Z</time>
      </trkpt>
      <trkpt lat="44.31852" lon="6.72504">
        <ele>1755</ele>
        <time>2016-03-25T18:51:18Z</time>
      </trkpt>
      <trkpt lat="44.31845" lon="6.72521">
        <ele>1755</ele>
        <time>2016-03-25T18:53:18Z</time>
      </trkpt>
      <trkpt lat="44.31841" lon="6.7253">
        <ele>1755</ele>
        <time>2016-03-25T18:55:18Z</time>
      </trkpt>
      <trkpt lat="44.31835" lon="6.72548">
        <ele>1755</ele>
        <time>2016-03-25T18:57:18Z</time>
      </trkpt>
      <trkpt lat="44.31825" lon="6.72577">
        <ele>1757</ele>
        <time>2016-03-25T18:59:18Z</time>
      </trkpt>
      <trkpt lat="44.31818" lon="6.72595">
        <ele>1758</ele>
        <time>2016-03-25T19:01:18Z</time>
      </trkpt>
      <trkpt lat="44.31816" lon="6.72604">
        <ele>1758</ele>
        <time>2016-03-25T19:03:18Z</time>
      </trkpt>
      <trkpt lat="44.31813" lon="6.72614">
        <ele>1759</ele>
        <time>2016-03-25T19:05:18Z</time>
      </trkpt>
      <trkpt lat="44.3181" lon="6.72623">
        <ele>1759</ele>
        <time>2016-03-25T19:07:18Z</time>
      </trkpt>
      <trkpt lat="44.31805" lon="6.72644">
        <ele>1760</ele>
        <time>2016-03-25T19:09:18Z</time>
      </trkpt>
      <trkpt lat="44.31802" lon="6.72661">
        <ele>1762</ele>
        <time>2016-03-25T19:11:18Z</time>
      </trkpt>
      <trkpt lat="44.31799" lon="6.72671">
        <ele>1762</ele>
        <time>2016-03-25T19:13:18Z</time>
      </trkpt>
      <trkpt lat="44.31797" lon="6.72681">
        <ele>1763</ele>
        <time>2016-03-25T19:15:18Z</time>
      </trkpt>
      <trkpt lat="44.31796" lon="6.72691">
        <ele>1764</ele>
        <time>2016-03-25T19:17:18Z</time>
      </trkpt>
      <trkpt lat="44.31794" lon="6.72701">
        <ele>1764</ele>
        <time>2016-03-25T19:19:18Z</time>
      </trkpt>
      <trkpt lat="44.31791" lon="6.72721">
        <ele>1766</ele>
        <time>2016-03-25T19:21:18Z</time>
      </trkpt>
      <trkpt lat="44.31789" lon="6.7274">
        <ele>1767</ele>
        <time>2016-03-25T19:23:18Z</time>
      </trkpt>
      <trkpt lat="44.31787" lon="6.7275">
        <ele>1768</ele>
        <time>2016-03-25T19:25:18Z</time>
      </trkpt>
      <trkpt lat="44.31785" lon="6.7276">
        <ele>1768</ele>
        <time>2016-03-25T19:27:18Z</time>
      </trkpt>
      <trkpt lat="44.31783" lon="6.7277">
        <ele>1769</ele>
        <time>2016-03-25T19:29:18Z</time>
      </trkpt>
      <trkpt lat="44.31781" lon="6.72779">
        <ele>1769</ele>
        <time>2016-03-25T19:31:18Z</time>
      </trkpt>
      <trkpt lat="44.31778" lon="6.72789">
        <ele>1769</ele>
        <time>2016-03-25T19:33:18Z</time>
      </trkpt>
      <trkpt lat="44.31775" lon="6.72798">
        <ele>1769</ele>
        <time>2016-03-25T19:35:18Z</time>
      </trkpt>
      <trkpt lat="44.31771" lon="6.72806">
        <ele>1768</ele>
        <time>2016-03-25T19:37:18Z</time>
      </trkpt>
      <trkpt lat="44.31768" lon="6.72815">
        <ele>1768</ele>
        <time>2016-03-25T19:39:18Z</time>
      </trkpt>
      <trkpt lat="44.31764" lon="6.72822">
        <ele>1767</ele>
        <time>2016-03-25T19:41:18Z</time>
      </trkpt>
      <trkpt lat="44.31754" lon="6.72838">
        <ele>1765</ele>
        <time>2016-03-25T19:43:18Z</time>
      </trkpt>
      <trkpt lat="44.31749" lon="6.72845">
        <ele>1765</ele>
        <time>2016-03-25T19:45:18Z</time>
      </trkpt>
      <trkpt lat="44.31745" lon="6.72853">
        <ele>1766</ele>
        <time>2016-03-25T19:47:18Z</time>
      </trkpt>
      <trkpt lat="44.3174" lon="6.72861">
        <ele>1766</ele>
        <time>2016-03-25T19:49:18Z</time>
      </trkpt>
      <trkpt lat="44.31733" lon="6.72876">
        <ele>1767</ele>
        <time>2016-03-25T19:51:18Z</time>
      </trkpt>
      <trkpt lat="44.31728" lon="6.72886">
        <ele>1768</ele>
        <time>2016-03-25T19:53:18Z</time>
      </trkpt>
      <trkpt lat="44.31724" lon="6.72895">
        <ele>1768</ele>
        <time>2016-03-25T19:55:18Z</time>
      </trkpt>
      <trkpt lat="44.3172" lon="6.72903">
        <ele>1769</ele>
        <time>2016-03-25T19:57:18Z</time>
      </trkpt>
      <trkpt lat="44.31716" lon="6.7291">
        <ele>1769</ele>
        <time>2016-03-25T19:59:18Z</time>
      </trkpt>
      <trkpt lat="44.31706" lon="6.72927">
        <ele>1769</ele>
        <time>2016-03-25T20:01:18Z</time>
      </trkpt>
      <trkpt lat="44.317" lon="6.72935">
        <ele>1770</ele>
        <time>2016-03-25T20:03:18Z</time>
      </trkpt>
      <trkpt lat="44.31696" lon="6.72942">
        <ele>1770</ele>
        <time>2016-03-25T20:05:18Z</time>
      </trkpt>
      <trkpt lat="44.31671" lon="6.72975">
        <ele>1771</ele>
        <time>2016-03-25T20:07:18Z</time>
      </trkpt>
      <trkpt lat="44.31661" lon="6.72987">
        <ele>1771</ele>
        <time>2016-03-25T20:09:18Z</time>
      </trkpt>
      <trkpt lat="44.31658" lon="6.72992">
        <ele>1771</ele>
        <time>2016-03-25T20:11:18Z</time>
      </trkpt>
      <trkpt lat="44.31647" lon="6.73006">
        <ele>1771</ele>
        <time>2016-03-25T20:13:18Z</time>
      </trkpt>
      <trkpt lat="44.31641" lon="6.73014">
        <ele>1771</ele>
        <time>2016-03-25T20:15:18Z</time>
      </trkpt>
      <trkpt lat="44.31636" lon="6.7302">
        <ele>1771</ele>
        <time>2016-03-25T20:17:18Z</time>
      </trkpt>
      <trkpt lat="44.3163" lon="6.73028">
        <ele>1771</ele>
        <time>2016-03-25T20:19:18Z</time>
      </trkpt>
      <trkpt lat="44.31624" lon="6.73036">
        <ele>1772</ele>
        <time>2016-03-25T20:21:18Z</time>
      </trkpt>
      <trkpt lat="44.31613" lon="6.73051">
        <ele>1772</ele>
        <time>2016-03-25T20:23:18Z</time>
      </trkpt>
      <trkpt lat="44.31608" lon="6.73059">
        <ele>1772</ele>
        <time>2016-03-25T20:25:18Z</time>
      </trkpt>
      <trkpt lat="44.31603" lon="6.73068">
        <ele>1772</ele>
        <time>2016-03-25T20:27:18Z</time>
      </trkpt>
      <trkpt lat="44.31595" lon="6.73081">
        <ele>1773</ele>
        <time>2016-03-25T20:29:18Z</time>
      </trkpt>
      <trkpt lat="44.31589" lon="6.73093">
        <ele>1773</ele>
        <time>2016-03-25T20:31:18Z</time>
      </trkpt>
      <trkpt lat="44.31584" lon="6.73101">
        <ele>1773</ele>
        <time>2016-03-25T20:33:18Z</time>
      </trkpt>
      <trkpt lat="44.31579" lon="6.73111">
        <ele>1773</ele>
        <time>2016-03-25T20:35:18Z</time>
      </trkpt>
      <trkpt lat="44.31575" lon="6.73118">
        <ele>1773</ele>
        <time>2016-03-25T20:37:18Z</time>
      </trkpt>
      <trkpt lat="44.31567" lon="6.73133">
        <ele>1773</ele>
        <time>2016-03-25T20:39:18Z</time>
      </trkpt>
      <trkpt lat="44.31563" lon="6.73142">
        <ele>1773</ele>
        <time>2016-03-25T20:41:18Z</time>
      </trkpt>
      <trkpt lat="44.3156" lon="6.7315">
        <ele>1773</ele>
        <time>2016-03-25T20:43:18Z</time>
      </trkpt>
      <trkpt lat="44.31554" lon="6.73162">
        <ele>1774</ele>
        <time>2016-03-25T20:45:18Z</time>
      </trkpt>
      <trkpt lat="44.31543" lon="6.7319">
        <ele>1775</ele>
        <time>2016-03-25T20:47:18Z</time>
      </trkpt>
      <trkpt lat="44.31539" lon="6.73201">
        <ele>1775</ele>
        <time>2016-03-25T20:49:18Z</time>
      </trkpt>
      <trkpt lat="44.31534" lon="6.73212">
        <ele>1775</ele>
        <time>2016-03-25T20:51:18Z</time>
      </trkpt>
      <trkpt lat="44.3153" lon="6.73223">
        <ele>1776</ele>
        <time>2016-03-25T20:53:18Z</time>
      </trkpt>
      <trkpt lat="44.31522" lon="6.73241">
        <ele>1776</ele>
        <time>2016-03-25T20:55:18Z</time>
      </trkpt>
      <trkpt lat="44.31517" lon="6.73252">
        <ele>1776</ele>
        <time>2016-03-25T20:57:18Z</time>
      </trkpt>
      <trkpt lat="44.31512" lon="6.73263">
        <ele>1776</ele>
        <time>2016-03-25T20:59:18Z</time>
      </trkpt>
      <trkpt lat="44.31505" lon="6.73276">
        <ele>1776</ele>
        <time>2016-03-25T21:01:18Z</time>
      </trkpt>
      <trkpt lat="44.31502" lon="6.73283">
        <ele>1777</ele>
        <time>2016-03-25T21:03:18Z</time>
      </trkpt>
      <trkpt lat="44.31499" lon="6.73286">
        <ele>1776</ele>
        <time>2016-03-25T21:05:18Z</time>
      </trkpt>
      <trkpt lat="44.31491" lon="6.73299">
        <ele>1777</ele>
        <time>2016-03-25T21:07:18Z</time>
      </trkpt>
      <trkpt lat="44.31484" lon="6.7331">
        <ele>1777</ele>
        <time>2016-03-25T21:09:18Z</time>
      </trkpt>
      <trkpt lat="44.31478" lon="6.73319">
        <ele>1778</ele>
        <time>2016-03-25T21:11:18Z</time>
      </trkpt>
      <trkpt lat="44.3147" lon="6.73329">
        <ele>1778</ele>
        <time>2016-03-25T21:13:18Z</time>
      </trkpt>
      <trkpt lat="44.31462" lon="6.73341">
        <ele>1778</ele>
        <time>2016-03-25T21:15:18Z</time>
      </trkpt>
      <trkpt lat="44.31447" lon="6.73361">
        <ele>1779</ele>
        <time>2016-03-25T21:17:18Z</time>
      </trkpt>
      <trkpt lat="44.31436" lon="6.73376">
        <ele>1779</ele>
        <time>2016-03-25T21:19:18Z</time>
      </trkpt>
      <trkpt lat="44.31427" lon="6.73389">
        <ele>1779</ele>
        <time>2016-03-25T21:21:18Z</time>
      </trkpt>
      <trkpt lat="44.31418" lon="6.73405">
        <ele>1780</ele>
        <time>2016-03-25T21:23:18Z</time>
      </trkpt>
      <trkpt lat="44.3141" lon="6.7342">
        <ele>1781</ele>
        <time>2016-03-25T21:25:18Z</time>
      </trkpt>
      <trkpt lat="44.31407" lon="6.73428">
        <ele>1782</ele>
        <time>2016-03-25T21:27:18Z</time>
      </trkpt>
      <trkpt lat="44.31401" lon="6.73439">
        <ele>1782</ele>
        <time>2016-03-25T21:29:18Z</time>
      </trkpt>
      <trkpt lat="44.31396" lon="6.73451">
        <ele>1782</ele>
        <time>2016-03-25T21:31:18Z</time>
      </trkpt>
      <trkpt lat="44.31392" lon="6.73459">
        <ele>1782</ele>
        <time>2016-03-25T21:33:18Z</time>
      </trkpt>
      <trkpt lat="44.31387" lon="6.73467">
        <ele>1782</ele>
        <time>2016-03-25T21:35:18Z</time>
      </trkpt>
      <trkpt lat="44.31383" lon="6.73475">
        <ele>1782</ele>
        <time>2016-03-25T21:37:18Z</time>
      </trkpt>
      <trkpt lat="44.31378" lon="6.73482">
        <ele>1782</ele>
        <time>2016-03-25T21:39:18Z</time>
      </trkpt>
      <trkpt lat="44.31374" lon="6.7349">
        <ele>1781</ele>
        <time>2016-03-25T21:41:18Z</time>
      </trkpt>
      <trkpt lat="44.31365" lon="6.73506">
        <ele>1780</ele>
        <time>2016-03-25T21:43:18Z</time>
      </trkpt>
      <trkpt lat="44.3136" lon="6.73515">
        <ele>1780</ele>
        <time>2016-03-25T21:45:18Z</time>
      </trkpt>
      <trkpt lat="44.31351" lon="6.73533">
        <ele>1780</ele>
        <time>2016-03-25T21:47:18Z</time>
      </trkpt>
      <trkpt lat="44.31346" lon="6.73542">
        <ele>1780</ele>
        <time>2016-03-25T21:49:18Z</time>
      </trkpt>
      <trkpt lat="44.31342" lon="6.73551">
        <ele>1780</ele>
        <time>2016-03-25T21:51:18Z</time>
      </trkpt>
      <trkpt lat="44.31339" lon="6.73558">
        <ele>1781</ele>
        <time>2016-03-25T21:53:18Z</time>
      </trkpt>
      <trkpt lat="44.31325" lon="6.73587">
        <ele>1782</ele>
        <time>2016-03-25T21:55:18Z</time>
      </trkpt>
      <trkpt lat="44.31315" lon="6.73608">
        <ele>1783</ele>
        <time>2016-03-25T21:57:18Z</time>
      </trkpt>
      <trkpt lat="44.31302" lon="6.73642">
        <ele>1785</ele>
        <time>2016-03-25T21:59:18Z</time>
      </trkpt>
      <trkpt lat="44.31288" lon="6.73674">
        <ele>1784</ele>
        <time>2016-03-25T22:01:18Z</time>
      </trkpt>
      <trkpt lat="44.31283" lon="6.73685">
        <ele>1784</ele>
        <time>2016-03-25T22:03:18Z</time>
      </trkpt>
      <trkpt lat="44.31257" lon="6.73739">
        <ele>1783</ele>
        <time>2016-03-25T22:05:18Z</time>
      </trkpt>
      <trkpt lat="44.31238" lon="6.7378">
        <ele>1784</ele>
        <time>2016-03-25T22:07:18Z</time>
      </trkpt>
      <trkpt lat="44.31234" lon="6.73788">
        <ele>1785</ele>
        <time>2016-03-25T22:09:18Z</time>
      </trkpt>
      <trkpt lat="44.3123" lon="6.73796">
        <ele>1785</ele>
        <time>2016-03-25T22:11:18Z</time>
      </trkpt>
      <trkpt lat="44.31227" lon="6.73805">
        <ele>1785</ele>
        <time>2016-03-25T22:13:18Z</time>
      </trkpt>
      <trkpt lat="44.31224" lon="6.73813">
        <ele>1786</ele>
        <time>2016-03-25T22:15:18Z</time>
      </trkpt>
      <trkpt lat="44.31219" lon="6.73828">
        <ele>1786</ele>
        <time>2016-03-25T22:17:18Z</time>
      </trkpt>
      <trkpt lat="44.31215" lon="6.7384">
        <ele>1786</ele>
        <time>2016-03-25T22:19:18Z</time>
      </trkpt>
      <trkpt lat="44.31212" lon="6.73852">
        <ele>1786</ele>
        <time>2016-03-25T22:21:18Z</time>
      </trkpt>
      <trkpt lat="44.3121" lon="6.73862">
        <ele>1786</ele>
        <time>2016-03-25T22:23:18Z</time>
      </trkpt>
      <trkpt lat="44.31208" lon="6.7387">
        <ele>1786</ele>
        <time>2016-03-25T22:25:18Z</time>
      </trkpt>
      <trkpt lat="44.31206" lon="6.73879">
        <ele>1786</ele>
        <time>2016-03-25T22:27:18Z</time>
      </trkpt>
      <trkpt lat="44.31205" lon="6.73891">
        <ele>1786</ele>
        <time>2016-03-25T22:29:18Z</time>
      </trkpt>
      <trkpt lat="44.31198" lon="6.73915">
        <ele>1785</ele>
        <time>2016-03-25T22:31:18Z</time>
      </trkpt>
      <trkpt lat="44.31196" lon="6.73921">
        <ele>1785</ele>
        <time>2016-03-25T22:33:18Z</time>
      </trkpt>
      <trkpt lat="44.31194" lon="6.73928">
        <ele>1786</ele>
        <time>2016-03-25T22:35:18Z</time>
      </trkpt>
      <trkpt lat="44.31192" lon="6.73935">
        <ele>1786</ele>
        <time>2016-03-25T22:37:18Z</time>
      </trkpt>
      <trkpt lat="44.31189" lon="6.73943">
        <ele>1786</ele>
        <time>2016-03-25T22:39:18Z</time>
      </trkpt>
      <trkpt lat="44.31185" lon="6.73949">
        <ele>1786</ele>
        <time>2016-03-25T22:41:18Z</time>
      </trkpt>
      <trkpt lat="44.31182" lon="6.73955">
        <ele>1786</ele>
        <time>2016-03-25T22:43:18Z</time>
      </trkpt>
      <trkpt lat="44.3118" lon="6.73957">
        <ele>1785</ele>
        <time>2016-03-25T22:45:18Z</time>
      </trkpt>
      <trkpt lat="44.31176" lon="6.73963">
        <ele>1785</ele>
        <time>2016-03-25T22:47:18Z</time>
      </trkpt>
      <trkpt lat="44.31174" lon="6.73965">
        <ele>1785</ele>
        <time>2016-03-25T22:49:18Z</time>
      </trkpt>
      <trkpt lat="44.31169" lon="6.73969">
        <ele>1784</ele>
        <time>2016-03-25T22:51:18Z</time>
      </trkpt>
      <trkpt lat="44.31165" lon="6.73973">
        <ele>1784</ele>
        <time>2016-03-25T22:53:18Z</time>
      </trkpt>
      <trkpt lat="44.3116" lon="6.73975">
        <ele>1784</ele>
        <time>2016-03-25T22:55:18Z</time>
      </trkpt>
      <trkpt lat="44.31154" lon="6.73976">
        <ele>1784</ele>
        <time>2016-03-25T22:57:18Z</time>
      </trkpt>
      <trkpt lat="44.31149" lon="6.73977">
        <ele>1784</ele>
        <time>2016-03-25T22:59:18Z</time>
      </trkpt>
      <trkpt lat="44.31144" lon="6.73976">
        <ele>1784</ele>
        <time>2016-03-25T23:01:18Z</time>
      </trkpt>
      <trkpt lat="44.31135" lon="6.73974">
        <ele>1783</ele>
        <time>2016-03-25T23:03:18Z</time>
      </trkpt>
      <trkpt lat="44.3113" lon="6.73972">
        <ele>1783</ele>
        <time>2016-03-25T23:05:18Z</time>
      </trkpt>
      <trkpt lat="44.31126" lon="6.7397">
        <ele>1783</ele>
        <time>2016-03-25T23:07:18Z</time>
      </trkpt>
      <trkpt lat="44.31122" lon="6.73968">
        <ele>1783</ele>
        <time>2016-03-25T23:09:18Z</time>
      </trkpt>
      <trkpt lat="44.31118" lon="6.73965">
        <ele>1783</ele>
        <time>2016-03-25T23:11:18Z</time>
      </trkpt>
      <trkpt lat="44.31114" lon="6.73962">
        <ele>1784</ele>
        <time>2016-03-25T23:13:18Z</time>
      </trkpt>
      <trkpt lat="44.31109" lon="6.73956">
        <ele>1784</ele>
        <time>2016-03-25T23:15:18Z</time>
      </trkpt>
      <trkpt lat="44.31096" lon="6.73942">
        <ele>1785</ele>
        <time>2016-03-25T23:17:18Z</time>
      </trkpt>
      <trkpt lat="44.31084" lon="6.73928">
        <ele>1788</ele>
        <time>2016-03-25T23:19:18Z</time>
      </trkpt>
      <trkpt lat="44.31081" lon="6.73924">
        <ele>1789</ele>
        <time>2016-03-25T23:21:18Z</time>
      </trkpt>
      <trkpt lat="44.31077" lon="6.73919">
        <ele>1792</ele>
        <time>2016-03-25T23:23:18Z</time>
      </trkpt>
      <trkpt lat="44.31075" lon="6.73914">
        <ele>1793</ele>
        <time>2016-03-25T23:25:18Z</time>
      </trkpt>
      <trkpt lat="44.31074" lon="6.73908">
        <ele>1794</ele>
        <time>2016-03-25T23:27:18Z</time>
      </trkpt>
      <trkpt lat="44.31073" lon="6.73902">
        <ele>1795</ele>
        <time>2016-03-25T23:29:18Z</time>
      </trkpt>
      <trkpt lat="44.31072" lon="6.73896">
        <ele>1796</ele>
        <time>2016-03-25T23:31:18Z</time>
      </trkpt>
      <trkpt lat="44.31073" lon="6.73894">
        <ele>1796</ele>
        <time>2016-03-25T23:33:18Z</time>
      </trkpt>
      <trkpt lat="44.31073" lon="6.7389">
        <ele>1796</ele>
        <time>2016-03-25T23:35:18Z</time>
      </trkpt>
      <trkpt lat="44.31074" lon="6.73884">
        <ele>1796</ele>
        <time>2016-03-25T23:37:18Z</time>
      </trkpt>
      <trkpt lat="44.31076" lon="6.73879">
        <ele>1796</ele>
        <time>2016-03-25T23:39:18Z</time>
      </trkpt>
      <trkpt lat="44.31077" lon="6.73876">
        <ele>1796</ele>
        <time>2016-03-25T23:41:18Z</time>
      </trkpt>
      <trkpt lat="44.31078" lon="6.73873">
        <ele>1795</ele>
        <time>2016-03-25T23:43:18Z</time>
      </trkpt>
      <trkpt lat="44.31081" lon="6.73868">
        <ele>1794</ele>
        <time>2016-03-25T23:45:18Z</time>
      </trkpt>
      <trkpt lat="44.31089" lon="6.73856">
        <ele>1793</ele>
        <time>2016-03-25T23:47:18Z</time>
      </trkpt>
      <trkpt lat="44.31094" lon="6.73846">
        <ele>1793</ele>
        <time>2016-03-25T23:49:18Z</time>
      </trkpt>
      <trkpt lat="44.31106" lon="6.73826">
        <ele>1792</ele>
        <time>2016-03-25T23:51:18Z</time>
      </trkpt>
      <trkpt lat="44.31111" lon="6.73817">
        <ele>1792</ele>
        <time>2016-03-25T23:53:18Z</time>
      </trkpt>
      <trkpt lat="44.31115" lon="6.7381">
        <ele>1791</ele>
        <time>2016-03-25T23:55:18Z</time>
      </trkpt>
      <trkpt lat="44.31118" lon="6.73803">
        <ele>1791</ele>
        <time>2016-03-25T23:57:18Z</time>
      </trkpt>
      <trkpt lat="44.31121" lon="6.73799">
        <ele>1791</ele>
        <time>2016-03-25T23:59:18Z</time>
      </trkpt>
      <trkpt lat="44.31125" lon="6.73786">
        <ele>1791</ele>
        <time>2016-03-26T00:01:18Z</time>
      </trkpt>
      <trkpt lat="44.31129" lon="6.73768">
        <ele>1791</ele>
        <time>2016-03-26T00:03:18Z</time>
      </trkpt>
      <trkpt lat="44.31141" lon="6.73717">
        <ele>1793</ele>
        <time>2016-03-26T00:05:18Z</time>
      </trkpt>
      <trkpt lat="44.31143" lon="6.73709">
        <ele>1793</ele>
        <time>2016-03-26T00:07:18Z</time>
      </trkpt>
      <trkpt lat="44.31143" lon="6.737">
        <ele>1794</ele>
        <time>2016-03-26T00:09:18Z</time>
      </trkpt>
      <trkpt lat="44.31142" lon="6.73692">
        <ele>1795</ele>
        <time>2016-03-26T00:11:18Z</time>
      </trkpt>
      <trkpt lat="44.31141" lon="6.73688">
        <ele>1796</ele>
        <time>2016-03-26T00:13:18Z</time>
      </trkpt>
      <trkpt lat="44.31139" lon="6.73685">
        <ele>1797</ele>
        <time>2016-03-26T00:15:18Z</time>
      </trkpt>
      <trkpt lat="44.31138" lon="6.73684">
        <ele>1797</ele>
        <time>2016-03-26T00:17:18Z</time>
      </trkpt>
      <trkpt lat="44.31136" lon="6.73684">
        <ele>1798</ele>
        <time>2016-03-26T00:19:18Z</time>
      </trkpt>
      <trkpt lat="44.31133" lon="6.73684">
        <ele>1799</ele>
        <time>2016-03-26T00:21:18Z</time>
      </trkpt>
      <trkpt lat="44.3113" lon="6.73685">
        <ele>1800</ele>
        <time>2016-03-26T00:23:18Z</time>
      </trkpt>
      <trkpt lat="44.31129" lon="6.73687">
        <ele>1800</ele>
        <time>2016-03-26T00:25:18Z</time>
      </trkpt>
      <trkpt lat="44.31126" lon="6.7369">
        <ele>1800</ele>
        <time>2016-03-26T00:27:18Z</time>
      </trkpt>
      <trkpt lat="44.31121" lon="6.73696">
        <ele>1801</ele>
        <time>2016-03-26T00:29:18Z</time>
      </trkpt>
      <trkpt lat="44.31093" lon="6.73731">
        <ele>1804</ele>
        <time>2016-03-26T00:31:18Z</time>
      </trkpt>
      <trkpt lat="44.3109" lon="6.73734">
        <ele>1805</ele>
        <time>2016-03-26T00:33:18Z</time>
      </trkpt>
      <trkpt lat="44.31087" lon="6.73736">
        <ele>1805</ele>
        <time>2016-03-26T00:35:18Z</time>
      </trkpt>
      <trkpt lat="44.31085" lon="6.73737">
        <ele>1806</ele>
        <time>2016-03-26T00:37:18Z</time>
      </trkpt>
      <trkpt lat="44.31083" lon="6.73737">
        <ele>1806</ele>
        <time>2016-03-26T00:39:18Z</time>
      </trkpt>
      <trkpt lat="44.31081" lon="6.73737">
        <ele>1807</ele>
        <time>2016-03-26T00:41:18Z</time>
      </trkpt>
      <trkpt lat="44.31079" lon="6.73736">
        <ele>1808</ele>
        <time>2016-03-26T00:43:18Z</time>
      </trkpt>
      <trkpt lat="44.31078" lon="6.73735">
        <ele>1809</ele>
        <time>2016-03-26T00:45:18Z</time>
      </trkpt>
      <trkpt lat="44.31076" lon="6.73732">
        <ele>1810</ele>
        <time>2016-03-26T00:47:18Z</time>
      </trkpt>
      <trkpt lat="44.31074" lon="6.73729">
        <ele>1811</ele>
        <time>2016-03-26T00:49:18Z</time>
      </trkpt>
      <trkpt lat="44.31073" lon="6.73725">
        <ele>1812</ele>
        <time>2016-03-26T00:51:18Z</time>
      </trkpt>
      <trkpt lat="44.31073" lon="6.73721">
        <ele>1813</ele>
        <time>2016-03-26T00:53:18Z</time>
      </trkpt>
      <trkpt lat="44.31074" lon="6.73716">
        <ele>1813</ele>
        <time>2016-03-26T00:55:18Z</time>
      </trkpt>
      <trkpt lat="44.31075" lon="6.73712">
        <ele>1813</ele>
        <time>2016-03-26T00:57:18Z</time>
      </trkpt>
      <trkpt lat="44.31077" lon="6.73707">
        <ele>1813</ele>
        <time>2016-03-26T00:59:18Z</time>
      </trkpt>
      <trkpt lat="44.31079" lon="6.73703">
        <ele>1813</ele>
        <time>2016-03-26T01:01:18Z</time>
      </trkpt>
      <trkpt lat="44.31083" lon="6.73699">
        <ele>1812</ele>
        <time>2016-03-26T01:03:18Z</time>
      </trkpt>
      <trkpt lat="44.31086" lon="6.73695">
        <ele>1812</ele>
        <time>2016-03-26T01:05:18Z</time>
      </trkpt>
      <trkpt lat="44.3109" lon="6.73691">
        <ele>1811</ele>
        <time>2016-03-26T01:07:18Z</time>
      </trkpt>
      <trkpt lat="44.31099" lon="6.73683">
        <ele>1810</ele>
        <time>2016-03-26T01:09:18Z</time>
      </trkpt>
      <trkpt lat="44.31103" lon="6.7368">
        <ele>1809</ele>
        <time>2016-03-26T01:11:18Z</time>
      </trkpt>
      <trkpt lat="44.31107" lon="6.73676">
        <ele>1808</ele>
        <time>2016-03-26T01:13:18Z</time>
      </trkpt>
      <trkpt lat="44.3111" lon="6.73672">
        <ele>1808</ele>
        <time>2016-03-26T01:15:18Z</time>
      </trkpt>
      <trkpt lat="44.31113" lon="6.73669">
        <ele>1807</ele>
        <time>2016-03-26T01:17:18Z</time>
      </trkpt>
      <trkpt lat="44.31115" lon="6.73665">
        <ele>1807</ele>
        <time>2016-03-26T01:19:18Z</time>
      </trkpt>
      <trkpt lat="44.31116" lon="6.73663">
        <ele>1807</ele>
        <time>2016-03-26T01:21:18Z</time>
      </trkpt>
      <trkpt lat="44.31117" lon="6.7366">
        <ele>1807</ele>
        <time>2016-03-26T01:23:18Z</time>
      </trkpt>
      <trkpt lat="44.31117" lon="6.73658">
        <ele>1807</ele>
        <time>2016-03-26T01:25:18Z</time>
      </trkpt>
      <trkpt lat="44.31117" lon="6.73656">
        <ele>1808</ele>
        <time>2016-03-26T01:27:18Z</time>
      </trkpt>
      <trkpt lat="44.31117" lon="6.73653">
        <ele>1808</ele>
        <time>2016-03-26T01:29:18Z</time>
      </trkpt>
      <trkpt lat="44.31117" lon="6.73651">
        <ele>1808</ele>
        <time>2016-03-26T01:31:18Z</time>
      </trkpt>
      <trkpt lat="44.31116" lon="6.73649">
        <ele>1809</ele>
        <time>2016-03-26T01:33:18Z</time>
      </trkpt>
      <trkpt lat="44.31116" lon="6.73647">
        <ele>1809</ele>
        <time>2016-03-26T01:35:18Z</time>
      </trkpt>
      <trkpt lat="44.31115" lon="6.73645">
        <ele>1810</ele>
        <time>2016-03-26T01:37:18Z</time>
      </trkpt>
      <trkpt lat="44.31114" lon="6.73644">
        <ele>1810</ele>
        <time>2016-03-26T01:39:18Z</time>
      </trkpt>
      <trkpt lat="44.31111" lon="6.73642">
        <ele>1812</ele>
        <time>2016-03-26T01:41:18Z</time>
      </trkpt>
      <trkpt lat="44.31108" lon="6.73641">
        <ele>1813</ele>
        <time>2016-03-26T01:43:18Z</time>
      </trkpt>
      <trkpt lat="44.31105" lon="6.73641">
        <ele>1814</ele>
        <time>2016-03-26T01:45:18Z</time>
      </trkpt>
      <trkpt lat="44.31102" lon="6.73642">
        <ele>1815</ele>
        <time>2016-03-26T01:47:18Z</time>
      </trkpt>
      <trkpt lat="44.31086" lon="6.73653">
        <ele>1819</ele>
        <time>2016-03-26T01:49:18Z</time>
      </trkpt>
      <trkpt lat="44.31083" lon="6.73655">
        <ele>1819</ele>
        <time>2016-03-26T01:51:18Z</time>
      </trkpt>
      <trkpt lat="44.31079" lon="6.73657">
        <ele>1820</ele>
        <time>2016-03-26T01:53:18Z</time>
      </trkpt>
      <trkpt lat="44.31068" lon="6.73663">
        <ele>1824</ele>
        <time>2016-03-26T01:55:18Z</time>
      </trkpt>
      <trkpt lat="44.31066" lon="6.73664">
        <ele>1824</ele>
        <time>2016-03-26T01:57:18Z</time>
      </trkpt>
      <trkpt lat="44.31065" lon="6.73665">
        <ele>1824</ele>
        <time>2016-03-26T01:59:18Z</time>
      </trkpt>
      <trkpt lat="44.31064" lon="6.73666">
        <ele>1825</ele>
        <time>2016-03-26T02:01:18Z</time>
      </trkpt>
      <trkpt lat="44.31062" lon="6.73669">
        <ele>1825</ele>
        <time>2016-03-26T02:03:18Z</time>
      </trkpt>
      <trkpt lat="44.3106" lon="6.73671">
        <ele>1825</ele>
        <time>2016-03-26T02:05:18Z</time>
      </trkpt>
      <trkpt lat="44.31057" lon="6.73675">
        <ele>1826</ele>
        <time>2016-03-26T02:07:18Z</time>
      </trkpt>
      <trkpt lat="44.31054" lon="6.73681">
        <ele>1826</ele>
        <time>2016-03-26T02:09:18Z</time>
      </trkpt>
      <trkpt lat="44.31051" lon="6.73687">
        <ele>1827</ele>
        <time>2016-03-26T02:11:18Z</time>
      </trkpt>
      <trkpt lat="44.31044" lon="6.7371">
        <ele>1826</ele>
        <time>2016-03-26T02:13:18Z</time>
      </trkpt>
      <trkpt lat="44.31042" lon="6.73717">
        <ele>1826</ele>
        <time>2016-03-26T02:15:18Z</time>
      </trkpt>
      <trkpt lat="44.3104" lon="6.73723">
        <ele>1826</ele>
        <time>2016-03-26T02:17:18Z</time>
      </trkpt>
      <trkpt lat="44.31038" lon="6.73727">
        <ele>1827</ele>
        <time>2016-03-26T02:19:18Z</time>
      </trkpt>
      <trkpt lat="44.31036" lon="6.73733">
        <ele>1827</ele>
        <time>2016-03-26T02:21:18Z</time>
      </trkpt>
      <trkpt lat="44.31032" lon="6.73741">
        <ele>1827</ele>
        <time>2016-03-26T02:23:18Z</time>
      </trkpt>
      <trkpt lat="44.31031" lon="6.73744">
        <ele>1827</ele>
        <time>2016-03-26T02:25:18Z</time>
      </trkpt>
      <trkpt lat="44.31028" lon="6.73749">
        <ele>1828</ele>
        <time>2016-03-26T02:27:18Z</time>
      </trkpt>
      <trkpt lat="44.31024" lon="6.73756">
        <ele>1829</ele>
        <time>2016-03-26T02:29:18Z</time>
      </trkpt>
      <trkpt lat="44.31021" lon="6.73764">
        <ele>1830</ele>
        <time>2016-03-26T02:31:18Z</time>
      </trkpt>
      <trkpt lat="44.31018" lon="6.73772">
        <ele>1831</ele>
        <time>2016-03-26T02:33:18Z</time>
      </trkpt>
      <trkpt lat="44.31017" lon="6.73775">
        <ele>1832</ele>
        <time>2016-03-26T02:35:18Z</time>
      </trkpt>
      <trkpt lat="44.31015" lon="6.73782">
        <ele>1832</ele>
        <time>2016-03-26T02:37:18Z</time>
      </trkpt>
      <trkpt lat="44.31014" lon="6.73789">
        <ele>1833</ele>
        <time>2016-03-26T02:39:18Z</time>
      </trkpt>
      <trkpt lat="44.31014" lon="6.73798">
        <ele>1832</ele>
        <time>2016-03-26T02:41:18Z</time>
      </trkpt>
      <trkpt lat="44.31014" lon="6.73806">
        <ele>1832</ele>
        <time>2016-03-26T02:43:18Z</time>
      </trkpt>
      <trkpt lat="44.31014" lon="6.73815">
        <ele>1832</ele>
        <time>2016-03-26T02:45:18Z</time>
      </trkpt>
      <trkpt lat="44.31014" lon="6.73824">
        <ele>1831</ele>
        <time>2016-03-26T02:47:18Z</time>
      </trkpt>
      <trkpt lat="44.31014" lon="6.7383">
        <ele>1831</ele>
        <time>2016-03-26T02:49:18Z</time>
      </trkpt>
      <trkpt lat="44.31013" lon="6.73836">
        <ele>1831</ele>
        <time>2016-03-26T02:51:18Z</time>
      </trkpt>
      <trkpt lat="44.31013" lon="6.73841">
        <ele>1831</ele>
        <time>2016-03-26T02:53:18Z</time>
      </trkpt>
      <trkpt lat="44.31012" lon="6.73849">
        <ele>1830</ele>
        <time>2016-03-26T02:55:18Z</time>
      </trkpt>
      <trkpt lat="44.31011" lon="6.73856">
        <ele>1830</ele>
        <time>2016-03-26T02:57:18Z</time>
      </trkpt>
      <trkpt lat="44.31011" lon="6.73859">
        <ele>1830</ele>
        <time>2016-03-26T02:59:18Z</time>
      </trkpt>
      <trkpt lat="44.31008" lon="6.73866">
        <ele>1831</ele>
        <time>2016-03-26T03:01:18Z</time>
      </trkpt>
      <trkpt lat="44.31006" lon="6.73873">
        <ele>1831</ele>
        <time>2016-03-26T03:03:18Z</time>
      </trkpt>
      <trkpt lat="44.30995" lon="6.73902">
        <ele>1833</ele>
        <time>2016-03-26T03:05:18Z</time>
      </trkpt>
      <trkpt lat="44.30986" lon="6.73923">
        <ele>1834</ele>
        <time>2016-03-26T03:07:18Z</time>
      </trkpt>
      <trkpt lat="44.30981" lon="6.73933">
        <ele>1833</ele>
        <time>2016-03-26T03:09:18Z</time>
      </trkpt>
      <trkpt lat="44.30972" lon="6.73948">
        <ele>1833</ele>
        <time>2016-03-26T03:11:18Z</time>
      </trkpt>
      <trkpt lat="44.30965" lon="6.73958">
        <ele>1833</ele>
        <time>2016-03-26T03:13:18Z</time>
      </trkpt>
      <trkpt lat="44.30952" lon="6.73974">
        <ele>1833</ele>
        <time>2016-03-26T03:15:18Z</time>
      </trkpt>
      <trkpt lat="44.30946" lon="6.73981">
        <ele>1834</ele>
        <time>2016-03-26T03:17:18Z</time>
      </trkpt>
      <trkpt lat="44.30942" lon="6.73984">
        <ele>1835</ele>
        <time>2016-03-26T03:19:18Z</time>
      </trkpt>
      <trkpt lat="44.30938" lon="6.73987">
        <ele>1835</ele>
        <time>2016-03-26T03:21:18Z</time>
      </trkpt>
      <trkpt lat="44.30935" lon="6.73989">
        <ele>1836</ele>
        <time>2016-03-26T03:23:18Z</time>
      </trkpt>
      <trkpt lat="44.3093" lon="6.73991">
        <ele>1837</ele>
        <time>2016-03-26T03:25:18Z</time>
      </trkpt>
      <trkpt lat="44.30925" lon="6.73994">
        <ele>1838</ele>
        <time>2016-03-26T03:27:18Z</time>
      </trkpt>
      <trkpt lat="44.30919" lon="6.73998">
        <ele>1840</ele>
        <time>2016-03-26T03:29:18Z</time>
      </trkpt>
      <trkpt lat="44.30916" lon="6.74001">
        <ele>1840</ele>
        <time>2016-03-26T03:31:18Z</time>
      </trkpt>
      <trkpt lat="44.3091" lon="6.74009">
        <ele>1841</ele>
        <time>2016-03-26T03:33:18Z</time>
      </trkpt>
      <trkpt lat="44.30909" lon="6.74012">
        <ele>1840</ele>
        <time>2016-03-26T03:35:18Z</time>
      </trkpt>
      <trkpt lat="44.30907" lon="6.74015">
        <ele>1841</ele>
        <time>2016-03-26T03:37:18Z</time>
      </trkpt>
      <trkpt lat="44.30905" lon="6.74018">
        <ele>1841</ele>
        <time>2016-03-26T03:39:18Z</time>
      </trkpt>
      <trkpt lat="44.30901" lon="6.74026">
        <ele>1841</ele>
        <time>2016-03-26T03:41:18Z</time>
      </trkpt>
      <trkpt lat="44.30896" lon="6.74034">
        <ele>1841</ele>
        <time>2016-03-26T03:43:18Z</time>
      </trkpt>
      <trkpt lat="44.30892" lon="6.74038">
        <ele>1841</ele>
        <time>2016-03-26T03:45:18Z</time>
      </trkpt>
      <trkpt lat="44.30888" lon="6.74042">
        <ele>1842</ele>
        <time>2016-03-26T03:47:18Z</time>
      </trkpt>
      <trkpt lat="44.30884" lon="6.74045">
        <ele>1843</ele>
        <time>2016-03-26T03:49:18Z</time>
      </trkpt>
      <trkpt lat="44.3088" lon="6.74047">
        <ele>1843</ele>
        <time>2016-03-26T03:51:18Z</time>
      </trkpt>
      <trkpt lat="44.30869" lon="6.74051">
        <ele>1846</ele>
        <time>2016-03-26T03:53:18Z</time>
      </trkpt>
      <trkpt lat="44.30861" lon="6.74055">
        <ele>1847</ele>
        <time>2016-03-26T03:55:18Z</time>
      </trkpt>
      <trkpt lat="44.30859" lon="6.74056">
        <ele>1848</ele>
        <time>2016-03-26T03:57:18Z</time>
      </trkpt>
      <trkpt lat="44.30856" lon="6.74058">
        <ele>1848</ele>
        <time>2016-03-26T03:59:18Z</time>
      </trkpt>
      <trkpt lat="44.30855" lon="6.7406">
        <ele>1848</ele>
        <time>2016-03-26T04:01:18Z</time>
      </trkpt>
      <trkpt lat="44.30854" lon="6.74061">
        <ele>1848</ele>
        <time>2016-03-26T04:03:18Z</time>
      </trkpt>
      <trkpt lat="44.30852" lon="6.74063">
        <ele>1849</ele>
        <time>2016-03-26T04:05:18Z</time>
      </trkpt>
      <trkpt lat="44.30849" lon="6.74065">
        <ele>1849</ele>
        <time>2016-03-26T04:07:18Z</time>
      </trkpt>
      <trkpt lat="44.30848" lon="6.74067">
        <ele>1849</ele>
        <time>2016-03-26T04:09:18Z</time>
      </trkpt>
      <trkpt lat="44.30846" lon="6.7407">
        <ele>1849</ele>
        <time>2016-03-26T04:11:18Z</time>
      </trkpt>
      <trkpt lat="44.30844" lon="6.74072">
        <ele>1850</ele>
        <time>2016-03-26T04:13:18Z</time>
      </trkpt>
      <trkpt lat="44.30838" lon="6.74081">
        <ele>1850</ele>
        <time>2016-03-26T04:15:18Z</time>
      </trkpt>
      <trkpt lat="44.30834" lon="6.74089">
        <ele>1850</ele>
        <time>2016-03-26T04:17:18Z</time>
      </trkpt>
      <trkpt lat="44.30831" lon="6.74095">
        <ele>1851</ele>
        <time>2016-03-26T04:19:18Z</time>
      </trkpt>
      <trkpt lat="44.30828" lon="6.74102">
        <ele>1851</ele>
        <time>2016-03-26T04:21:18Z</time>
      </trkpt>
      <trkpt lat="44.30826" lon="6.74109">
        <ele>1851</ele>
        <time>2016-03-26T04:23:18Z</time>
      </trkpt>
      <trkpt lat="44.30825" lon="6.74117">
        <ele>1851</ele>
        <time>2016-03-26T04:25:18Z</time>
      </trkpt>
      <trkpt lat="44.30824" lon="6.74125">
        <ele>1850</ele>
        <time>2016-03-26T04:27:18Z</time>
      </trkpt>
      <trkpt lat="44.30823" lon="6.74132">
        <ele>1850</ele>
        <time>2016-03-26T04:29:18Z</time>
      </trkpt>
      <trkpt lat="44.30823" lon="6.74139">
        <ele>1850</ele>
        <time>2016-03-26T04:31:18Z</time>
      </trkpt>
      <trkpt lat="44.30823" lon="6.74147">
        <ele>1849</ele>
        <time>2016-03-26T04:33:18Z</time>
      </trkpt>
      <trkpt lat="44.30821" lon="6.74155">
        <ele>1849</ele>
        <time>2016-03-26T04:35:18Z</time>
      </trkpt>
      <trkpt lat="44.30819" lon="6.74161">
        <ele>1849</ele>
        <time>2016-03-26T04:37:18Z</time>
      </trkpt>
      <trkpt lat="44.30816" lon="6.74167">
        <ele>1849</ele>
        <time>2016-03-26T04:39:18Z</time>
      </trkpt>
      <trkpt lat="44.30813" lon="6.74172">
        <ele>1848</ele>
        <time>2016-03-26T04:41:18Z</time>
      </trkpt>
      <trkpt lat="44.30809" lon="6.74176">
        <ele>1848</ele>
        <time>2016-03-26T04:43:18Z</time>
      </trkpt>
      <trkpt lat="44.30804" lon="6.74179">
        <ele>1848</ele>
        <time>2016-03-26T04:45:18Z</time>
      </trkpt>
      <trkpt lat="44.308" lon="6.74181">
        <ele>1848</ele>
        <time>2016-03-26T04:47:18Z</time>
      </trkpt>
      <trkpt lat="44.30795" lon="6.74182">
        <ele>1849</ele>
        <time>2016-03-26T04:49:18Z</time>
      </trkpt>
      <trkpt lat="44.30785" lon="6.74184">
        <ele>1850</ele>
        <time>2016-03-26T04:51:18Z</time>
      </trkpt>
      <trkpt lat="44.30776" lon="6.74184">
        <ele>1851</ele>
        <time>2016-03-26T04:53:18Z</time>
      </trkpt>
      <trkpt lat="44.30767" lon="6.74183">
        <ele>1853</ele>
        <time>2016-03-26T04:55:18Z</time>
      </trkpt>
      <trkpt lat="44.30762" lon="6.74182">
        <ele>1854</ele>
        <time>2016-03-26T04:57:18Z</time>
      </trkpt>
      <trkpt lat="44.30757" lon="6.74181">
        <ele>1855</ele>
        <time>2016-03-26T04:59:18Z</time>
      </trkpt>
      <trkpt lat="44.30752" lon="6.7418">
        <ele>1856</ele>
        <time>2016-03-26T05:01:18Z</time>
      </trkpt>
      <trkpt lat="44.30747" lon="6.7418">
        <ele>1857</ele>
        <time>2016-03-26T05:03:18Z</time>
      </trkpt>
      <trkpt lat="44.30743" lon="6.74181">
        <ele>1857</ele>
        <time>2016-03-26T05:05:18Z</time>
      </trkpt>
      <trkpt lat="44.30738" lon="6.74183">
        <ele>1858</ele>
        <time>2016-03-26T05:07:18Z</time>
      </trkpt>
      <trkpt lat="44.30734" lon="6.74186">
        <ele>1858</ele>
        <time>2016-03-26T05:09:18Z</time>
      </trkpt>
      <trkpt lat="44.30729" lon="6.74189">
        <ele>1858</ele>
        <time>2016-03-26T05:11:18Z</time>
      </trkpt>
      <trkpt lat="44.30726" lon="6.74194">
        <ele>1857</ele>
        <time>2016-03-26T05:13:18Z</time>
      </trkpt>
      <trkpt lat="44.30722" lon="6.74198">
        <ele>1857</ele>
        <time>2016-03-26T05:15:18Z</time>
      </trkpt>
      <trkpt lat="44.30718" lon="6.74202">
        <ele>1857</ele>
        <time>2016-03-26T05:17:18Z</time>
      </trkpt>
      <trkpt lat="44.30713" lon="6.74205">
        <ele>1858</ele>
        <time>2016-03-26T05:19:18Z</time>
      </trkpt>
      <trkpt lat="44.30708" lon="6.74209">
        <ele>1858</ele>
        <time>2016-03-26T05:21:18Z</time>
      </trkpt>
      <trkpt lat="44.30697" lon="6.74215">
        <ele>1859</ele>
        <time>2016-03-26T05:23:18Z</time>
      </trkpt>
      <trkpt lat="44.30691" lon="6.74218">
        <ele>1859</ele>
        <time>2016-03-26T05:25:18Z</time>
      </trkpt>
      <trkpt lat="44.30685" lon="6.74221">
        <ele>1860</ele>
        <time>2016-03-26T05:27:18Z</time>
      </trkpt>
      <trkpt lat="44.30678" lon="6.74224">
        <ele>1860</ele>
        <time>2016-03-26T05:29:18Z</time>
      </trkpt>
      <trkpt lat="44.30663" lon="6.74231">
        <ele>1862</ele>
        <time>2016-03-26T05:31:18Z</time>
      </trkpt>
      <trkpt lat="44.3064" lon="6.74241">
        <ele>1862</ele>
        <time>2016-03-26T05:33:18Z</time>
      </trkpt>
      <trkpt lat="44.30614" lon="6.74253">
        <ele>1863</ele>
        <time>2016-03-26T05:35:18Z</time>
      </trkpt>
      <trkpt lat="44.30596" lon="6.74261">
        <ele>1863</ele>
        <time>2016-03-26T05:37:18Z</time>
      </trkpt>
      <trkpt lat="44.30564" lon="6.74279">
        <ele>1866</ele>
        <time>2016-03-26T05:39:18Z</time>
      </trkpt>
      <trkpt lat="44.30557" lon="6.74284">
        <ele>1866</ele>
        <time>2016-03-26T05:41:18Z</time>
      </trkpt>
      <trkpt lat="44.30551" lon="6.74289">
        <ele>1867</ele>
        <time>2016-03-26T05:43:18Z</time>
      </trkpt>
      <trkpt lat="44.30545" lon="6.74294">
        <ele>1867</ele>
        <time>2016-03-26T05:45:18Z</time>
      </trkpt>
      <trkpt lat="44.30537" lon="6.74304">
        <ele>1867</ele>
        <time>2016-03-26T05:47:18Z</time>
      </trkpt>
      <trkpt lat="44.30527" lon="6.74317">
        <ele>1867</ele>
        <time>2016-03-26T05:49:18Z</time>
      </trkpt>
      <trkpt lat="44.30509" lon="6.74341">
        <ele>1867</ele>
        <time>2016-03-26T05:51:18Z</time>
      </trkpt>
      <trkpt lat="44.3049" lon="6.74362">
        <ele>1868</ele>
        <time>2016-03-26T05:53:18Z</time>
      </trkpt>
      <trkpt lat="44.30479" lon="6.74373">
        <ele>1868</ele>
        <time>2016-03-26T05:55:18Z</time>
      </trkpt>
      <trkpt lat="44.30465" lon="6.74386">
        <ele>1869</ele>
        <time>2016-03-26T05:57:18Z</time>
      </trkpt>
      <trkpt lat="44.30451" lon="6.74395">
        <ele>1871</ele>
        <time>2016-03-26T05:59:18Z</time>
      </trkpt>
      <trkpt lat="44.30447" lon="6.74398">
        <ele>1871</ele>
        <time>2016-03-26T06:01:18Z</time>
      </trkpt>
      <trkpt lat="44.30434" lon="6.74403">
        <ele>1873</ele>
        <time>2016-03-26T06:03:18Z</time>
      </trkpt>
      <trkpt lat="44.30391" lon="6.74418">
        <ele>1874</ele>
        <time>2016-03-26T06:05:18Z</time>
      </trkpt>
      <trkpt lat="44.30382" lon="6.74421">
        <ele>1874</ele>
        <time>2016-03-26T06:07:18Z</time>
      </trkpt>
      <trkpt lat="44.30373" lon="6.74423">
        <ele>1874</ele>
        <time>2016-03-26T06:09:18Z</time>
      </trkpt>
      <trkpt lat="44.30369" lon="6.74423">
        <ele>1874</ele>
        <time>2016-03-26T06:11:18Z</time>
      </trkpt>
      <trkpt lat="44.30364" lon="6.74423">
        <ele>1874</ele>
        <time>2016-03-26T06:13:18Z</time>
      </trkpt>
      <trkpt lat="44.3036" lon="6.74422">
        <ele>1875</ele>
        <time>2016-03-26T06:15:18Z</time>
      </trkpt>
      <trkpt lat="44.30356" lon="6.74421">
        <ele>1875</ele>
        <time>2016-03-26T06:17:18Z</time>
      </trkpt>
      <trkpt lat="44.30353" lon="6.74419">
        <ele>1875</ele>
        <time>2016-03-26T06:19:18Z</time>
      </trkpt>
      <trkpt lat="44.30349" lon="6.74416">
        <ele>1876</ele>
        <time>2016-03-26T06:21:18Z</time>
      </trkpt>
      <trkpt lat="44.30339" lon="6.74405">
        <ele>1879</ele>
        <time>2016-03-26T06:23:18Z</time>
      </trkpt>
      <trkpt lat="44.30336" lon="6.74402">
        <ele>1880</ele>
        <time>2016-03-26T06:25:18Z</time>
      </trkpt>
      <trkpt lat="44.30332" lon="6.74399">
        <ele>1881</ele>
        <time>2016-03-26T06:27:18Z</time>
      </trkpt>
      <trkpt lat="44.30328" lon="6.74397">
        <ele>1882</ele>
        <time>2016-03-26T06:29:18Z</time>
      </trkpt>
      <trkpt lat="44.30324" lon="6.74396">
        <ele>1882</ele>
        <time>2016-03-26T06:31:18Z</time>
      </trkpt>
      <trkpt lat="44.30319" lon="6.74396">
        <ele>1883</ele>
        <time>2016-03-26T06:33:18Z</time>
      </trkpt>
      <trkpt lat="44.30314" lon="6.74398">
        <ele>1883</ele>
        <time>2016-03-26T06:35:18Z</time>
      </trkpt>
      <trkpt lat="44.30305" lon="6.74401">
        <ele>1883</ele>
        <time>2016-03-26T06:37:18Z</time>
      </trkpt>
      <trkpt lat="44.30283" lon="6.74415">
        <ele>1882</ele>
        <time>2016-03-26T06:39:18Z</time>
      </trkpt>
      <trkpt lat="44.30265" lon="6.74428">
        <ele>1881</ele>
        <time>2016-03-26T06:41:18Z</time>
      </trkpt>
      <trkpt lat="44.30259" lon="6.74432">
        <ele>1881</ele>
        <time>2016-03-26T06:43:18Z</time>
      </trkpt>
      <trkpt lat="44.30254" lon="6.74435">
        <ele>1881</ele>
        <time>2016-03-26T06:45:18Z</time>
      </trkpt>
      <trkpt lat="44.30248" lon="6.74438">
        <ele>1881</ele>
        <time>2016-03-26T06:47:18Z</time>
      </trkpt>
      <trkpt lat="44.30247" lon="6.74439">
        <ele>1880</ele>
        <time>2016-03-26T06:49:18Z</time>
      </trkpt>
      <trkpt lat="44.30246" lon="6.74439">
        <ele>1881</ele>
        <time>2016-03-26T06:51:18Z</time>
      </trkpt>
      <trkpt lat="44.30231" lon="6.74444">
        <ele>1881</ele>
        <time>2016-03-26T06:53:18Z</time>
      </trkpt>
      <trkpt lat="44.30214" lon="6.74446">
        <ele>1882</ele>
        <time>2016-03-26T06:55:18Z</time>
      </trkpt>
      <trkpt lat="44.30184" lon="6.74449">
        <ele>1884</ele>
        <time>2016-03-26T06:57:18Z</time>
      </trkpt>
      <trkpt lat="44.30172" lon="6.7445">
        <ele>1885</ele>
        <time>2016-03-26T06:59:18Z</time>
      </trkpt>
      <trkpt lat="44.30167" lon="6.7445">
        <ele>1885</ele>
        <time>2016-03-26T07:01:18Z</time>
      </trkpt>
      <trkpt lat="44.30161" lon="6.74449">
        <ele>1885</ele>
        <time>2016-03-26T07:03:18Z</time>
      </trkpt>
      <trkpt lat="44.30155" lon="6.74449">
        <ele>1885</ele>
        <time>2016-03-26T07:05:18Z</time>
      </trkpt>
      <trkpt lat="44.30149" lon="6.74448">
        <ele>1886</ele>
        <time>2016-03-26T07:07:18Z</time>
      </trkpt>
      <trkpt lat="44.30141" lon="6.74446">
        <ele>1886</ele>
        <time>2016-03-26T07:09:18Z</time>
      </trkpt>
      <trkpt lat="44.30126" lon="6.74442">
        <ele>1888</ele>
        <time>2016-03-26T07:11:18Z</time>
      </trkpt>
      <trkpt lat="44.30103" lon="6.74433">
        <ele>1890</ele>
        <time>2016-03-26T07:13:18Z</time>
      </trkpt>
      <trkpt lat="44.30082" lon="6.74425">
        <ele>1891</ele>
        <time>2016-03-26T07:15:18Z</time>
      </trkpt>
      <trkpt lat="44.30068" lon="6.7442">
        <ele>1893</ele>
        <time>2016-03-26T07:17:18Z</time>
      </trkpt>
      <trkpt lat="44.30056" lon="6.74417">
        <ele>1894</ele>
        <time>2016-03-26T07:19:18Z</time>
      </trkpt>
      <trkpt lat="44.30044" lon="6.74416">
        <ele>1895</ele>
        <time>2016-03-26T07:21:18Z</time>
      </trkpt>
      <trkpt lat="44.30032" lon="6.74414">
        <ele>1896</ele>
        <time>2016-03-26T07:23:18Z</time>
      </trkpt>
      <trkpt lat="44.30003" lon="6.74414">
        <ele>1898</ele>
        <time>2016-03-26T07:25:18Z</time>
      </trkpt>
      <trkpt lat="44.29978" lon="6.74412">
        <ele>1898</ele>
        <time>2016-03-26T07:27:18Z</time>
      </trkpt>
      <trkpt lat="44.2994" lon="6.7441">
        <ele>1897</ele>
        <time>2016-03-26T07:29:18Z</time>
      </trkpt>
      <trkpt lat="44.29913" lon="6.74408">
        <ele>1897</ele>
        <time>2016-03-26T07:31:18Z</time>
      </trkpt>
      <trkpt lat="44.29903" lon="6.74407">
        <ele>1898</ele>
        <time>2016-03-26T07:33:18Z</time>
      </trkpt>
      <trkpt lat="44.29897" lon="6.74407">
        <ele>1898</ele>
        <time>2016-03-26T07:35:18Z</time>
      </trkpt>
      <trkpt lat="44.29885" lon="6.74406">
        <ele>1899</ele>
        <time>2016-03-26T07:37:18Z</time>
      </trkpt>
      <trkpt lat="44.29879" lon="6.74407">
        <ele>1899</ele>
        <time>2016-03-26T07:39:18Z</time>
      </trkpt>
      <trkpt lat="44.29873" lon="6.74408">
        <ele>1899</ele>
        <time>2016-03-26T07:41:18Z</time>
      </trkpt>
      <trkpt lat="44.29867" lon="6.7441">
        <ele>1899</ele>
        <time>2016-03-26T07:43:18Z</time>
      </trkpt>
      <trkpt lat="44.29862" lon="6.74412">
        <ele>1899</ele>
        <time>2016-03-26T07:45:18Z</time>
      </trkpt>
      <trkpt lat="44.29851" lon="6.74416">
        <ele>1898</ele>
        <time>2016-03-26T07:47:18Z</time>
      </trkpt>
      <trkpt lat="44.29839" lon="6.7442">
        <ele>1898</ele>
        <time>2016-03-26T07:49:18Z</time>
      </trkpt>
      <trkpt lat="44.29834" lon="6.74422">
        <ele>1898</ele>
        <time>2016-03-26T07:51:18Z</time>
      </trkpt>
      <trkpt lat="44.29823" lon="6.74424">
        <ele>1898</ele>
        <time>2016-03-26T07:53:18Z</time>
      </trkpt>
      <trkpt lat="44.29801" lon="6.74427">
        <ele>1898</ele>
        <time>2016-03-26T07:55:18Z</time>
      </trkpt>
      <trkpt lat="44.29795" lon="6.74428">
        <ele>1898</ele>
        <time>2016-03-26T07:57:18Z</time>
      </trkpt>
      <trkpt lat="44.29791" lon="6.74429">
        <ele>1898</ele>
        <time>2016-03-26T07:59:18Z</time>
      </trkpt>
      <trkpt lat="44.29786" lon="6.74429">
        <ele>1899</ele>
        <time>2016-03-26T08:01:18Z</time>
      </trkpt>
      <trkpt lat="44.2978" lon="6.74429">
        <ele>1899</ele>
        <time>2016-03-26T08:03:18Z</time>
      </trkpt>
      <trkpt lat="44.29776" lon="6.74429">
        <ele>1899</ele>
        <time>2016-03-26T08:05:18Z</time>
      </trkpt>
      <trkpt lat="44.29772" lon="6.74428">
        <ele>1899</ele>
        <time>2016-03-26T08:07:18Z</time>
      </trkpt>
      <trkpt lat="44.29763" lon="6.74424">
        <ele>1901</ele>
        <time>2016-03-26T08:09:18Z</time>
      </trkpt>
      <trkpt lat="44.29754" lon="6.74418">
        <ele>1902</ele>
        <time>2016-03-26T08:11:18Z</time>
      </trkpt>
      <trkpt lat="44.29746" lon="6.74411">
        <ele>1904</ele>
        <time>2016-03-26T08:13:18Z</time>
      </trkpt>
      <trkpt lat="44.29742" lon="6.74407">
        <ele>1905</ele>
        <time>2016-03-26T08:15:18Z</time>
      </trkpt>
      <trkpt lat="44.29733" lon="6.744">
        <ele>1907</ele>
        <time>2016-03-26T08:17:18Z</time>
      </trkpt>
      <trkpt lat="44.29727" lon="6.74396">
        <ele>1907</ele>
        <time>2016-03-26T08:19:18Z</time>
      </trkpt>
      <trkpt lat="44.29719" lon="6.74391">
        <ele>1908</ele>
        <time>2016-03-26T08:21:18Z</time>
      </trkpt>
      <trkpt lat="44.29714" lon="6.74388">
        <ele>1909</ele>
        <time>2016-03-26T08:23:18Z</time>
      </trkpt>
      <trkpt lat="44.29709" lon="6.74386">
        <ele>1910</ele>
        <time>2016-03-26T08:25:18Z</time>
      </trkpt>
      <trkpt lat="44.29703" lon="6.74383">
        <ele>1910</ele>
        <time>2016-03-26T08:27:18Z</time>
      </trkpt>
      <trkpt lat="44.29691" lon="6.74379">
        <ele>1911</ele>
        <time>2016-03-26T08:29:18Z</time>
      </trkpt>
      <trkpt lat="44.29685" lon="6.74377">
        <ele>1912</ele>
        <time>2016-03-26T08:31:18Z</time>
      </trkpt>
      <trkpt lat="44.29679" lon="6.74376">
        <ele>1912</ele>
        <time>2016-03-26T08:33:18Z</time>
      </trkpt>
      <trkpt lat="44.29673" lon="6.74376">
        <ele>1912</ele>
        <time>2016-03-26T08:35:18Z</time>
      </trkpt>
      <trkpt lat="44.29666" lon="6.74376">
        <ele>1912</ele>
        <time>2016-03-26T08:37:18Z</time>
      </trkpt>
      <trkpt lat="44.29659" lon="6.74376">
        <ele>1912</ele>
        <time>2016-03-26T08:39:18Z</time>
      </trkpt>
      <trkpt lat="44.29653" lon="6.74377">
        <ele>1911</ele>
        <time>2016-03-26T08:41:18Z</time>
      </trkpt>
      <trkpt lat="44.29621" lon="6.74383">
        <ele>1910</ele>
        <time>2016-03-26T08:43:18Z</time>
      </trkpt>
      <trkpt lat="44.29605" lon="6.74386">
        <ele>1909</ele>
        <time>2016-03-26T08:45:18Z</time>
      </trkpt>
      <trkpt lat="44.2959" lon="6.74388">
        <ele>1908</ele>
        <time>2016-03-26T08:47:18Z</time>
      </trkpt>
      <trkpt lat="44.29579" lon="6.74388">
        <ele>1908</ele>
        <time>2016-03-26T08:49:18Z</time>
      </trkpt>
      <trkpt lat="44.29565" lon="6.74388">
        <ele>1908</ele>
        <time>2016-03-26T08:51:18Z</time>
      </trkpt>
      <trkpt lat="44.29553" lon="6.74387">
        <ele>1909</ele>
        <time>2016-03-26T08:53:18Z</time>
      </trkpt>
      <trkpt lat="44.29541" lon="6.74384">
        <ele>1911</ele>
        <time>2016-03-26T08:55:18Z</time>
      </trkpt>
      <trkpt lat="44.29513" lon="6.74378">
        <ele>1914</ele>
        <time>2016-03-26T08:57:18Z</time>
      </trkpt>
      <trkpt lat="44.29482" lon="6.74371">
        <ele>1919</ele>
        <time>2016-03-26T08:59:18Z</time>
      </trkpt>
      <trkpt lat="44.29474" lon="6.7437">
        <ele>1920</ele>
        <time>2016-03-26T09:01:18Z</time>
      </trkpt>
      <trkpt lat="44.29464" lon="6.74369">
        <ele>1922</ele>
        <time>2016-03-26T09:03:18Z</time>
      </trkpt>
      <trkpt lat="44.29453" lon="6.7437">
        <ele>1922</ele>
        <time>2016-03-26T09:05:18Z</time>
      </trkpt>
      <trkpt lat="44.29441" lon="6.74372">
        <ele>1923</ele>
        <time>2016-03-26T09:07:18Z</time>
      </trkpt>
      <trkpt lat="44.29411" lon="6.7438">
        <ele>1922</ele>
        <time>2016-03-26T09:09:18Z</time>
      </trkpt>
      <trkpt lat="44.29394" lon="6.74384">
        <ele>1922</ele>
        <time>2016-03-26T09:11:18Z</time>
      </trkpt>
      <trkpt lat="44.29388" lon="6.74385">
        <ele>1922</ele>
        <time>2016-03-26T09:13:18Z</time>
      </trkpt>
      <trkpt lat="44.29374" lon="6.74388">
        <ele>1922</ele>
        <time>2016-03-26T09:15:18Z</time>
      </trkpt>
      <trkpt lat="44.29365" lon="6.74389">
        <ele>1922</ele>
        <time>2016-03-26T09:17:18Z</time>
      </trkpt>
      <trkpt lat="44.29338" lon="6.74394">
        <ele>1922</ele>
        <time>2016-03-26T09:19:18Z</time>
      </trkpt>
      <trkpt lat="44.29313" lon="6.74397">
        <ele>1925</ele>
        <time>2016-03-26T09:21:18Z</time>
      </trkpt>
      <trkpt lat="44.29309" lon="6.74398">
        <ele>1925</ele>
        <time>2016-03-26T09:23:18Z</time>
      </trkpt>
      <trkpt lat="44.29305" lon="6.74397">
        <ele>1926</ele>
        <time>2016-03-26T09:25:18Z</time>
      </trkpt>
      <trkpt lat="44.293" lon="6.74396">
        <ele>1928</ele>
        <time>2016-03-26T09:27:18Z</time>
      </trkpt>
      <trkpt lat="44.29296" lon="6.74395">
        <ele>1929</ele>
        <time>2016-03-26T09:29:18Z</time>
      </trkpt>
      <trkpt lat="44.2929" lon="6.74393">
        <ele>1932</ele>
        <time>2016-03-26T09:31:18Z</time>
      </trkpt>
      <trkpt lat="44.29284" lon="6.7439">
        <ele>1935</ele>
        <time>2016-03-26T09:33:18Z</time>
      </trkpt>
      <trkpt lat="44.29279" lon="6.74389">
        <ele>1937</ele>
        <time>2016-03-26T09:35:18Z</time>
      </trkpt>
      <trkpt lat="44.29274" lon="6.74389">
        <ele>1938</ele>
        <time>2016-03-26T09:37:18Z</time>
      </trkpt>
      <trkpt lat="44.29269" lon="6.74389">
        <ele>1939</ele>
        <time>2016-03-26T09:39:18Z</time>
      </trkpt>
      <trkpt lat="44.29264" lon="6.7439">
        <ele>1939</ele>
        <time>2016-03-26T09:41:18Z</time>
      </trkpt>
      <trkpt lat="44.2926" lon="6.74392">
        <ele>1939</ele>
        <time>2016-03-26T09:43:18Z</time>
      </trkpt>
      <trkpt lat="44.29254" lon="6.74394">
        <ele>1939</ele>
        <time>2016-03-26T09:45:18Z</time>
      </trkpt>
      <trkpt lat="44.29248" lon="6.74398">
        <ele>1937</ele>
        <time>2016-03-26T09:47:18Z</time>
      </trkpt>
      <trkpt lat="44.29226" lon="6.74409">
        <ele>1929</ele>
        <time>2016-03-26T09:49:18Z</time>
      </trkpt>
      <trkpt lat="44.29222" lon="6.74409">
        <ele>1929</ele>
        <time>2016-03-26T09:51:18Z</time>
      </trkpt>
      <trkpt lat="44.29218" lon="6.7441">
        <ele>1928</ele>
        <time>2016-03-26T09:53:18Z</time>
      </trkpt>
      <trkpt lat="44.29214" lon="6.74409">
        <ele>1929</ele>
        <time>2016-03-26T09:55:18Z</time>
      </trkpt>
      <trkpt lat="44.2921" lon="6.74408">
        <ele>1929</ele>
        <time>2016-03-26T09:57:18Z</time>
      </trkpt>
      <trkpt lat="44.29207" lon="6.74406">
        <ele>1930</ele>
        <time>2016-03-26T09:59:18Z</time>
      </trkpt>
      <trkpt lat="44.29195" lon="6.74399">
        <ele>1934</ele>
        <time>2016-03-26T10:01:18Z</time>
      </trkpt>
      <trkpt lat="44.29186" lon="6.74395">
        <ele>1935</ele>
        <time>2016-03-26T10:03:18Z</time>
      </trkpt>
      <trkpt lat="44.29176" lon="6.74391">
        <ele>1936</ele>
        <time>2016-03-26T10:05:18Z</time>
      </trkpt>
      <trkpt lat="44.29162" lon="6.74388">
        <ele>1937</ele>
        <time>2016-03-26T10:07:18Z</time>
      </trkpt>
      <trkpt lat="44.29156" lon="6.74388">
        <ele>1936</ele>
        <time>2016-03-26T10:09:18Z</time>
      </trkpt>
      <trkpt lat="44.29151" lon="6.74388">
        <ele>1936</ele>
        <time>2016-03-26T10:11:18Z</time>
      </trkpt>
      <trkpt lat="44.29146" lon="6.74388">
        <ele>1936</ele>
        <time>2016-03-26T10:13:18Z</time>
      </trkpt>
      <trkpt lat="44.29135" lon="6.74389">
        <ele>1935</ele>
        <time>2016-03-26T10:15:18Z</time>
      </trkpt>
      <trkpt lat="44.29122" lon="6.74392">
        <ele>1933</ele>
        <time>2016-03-26T10:17:18Z</time>
      </trkpt>
      <trkpt lat="44.29109" lon="6.74394">
        <ele>1931</ele>
        <time>2016-03-26T10:19:18Z</time>
      </trkpt>
      <trkpt lat="44.29102" lon="6.74394">
        <ele>1931</ele>
        <time>2016-03-26T10:21:18Z</time>
      </trkpt>
      <trkpt lat="44.29094" lon="6.74394">
        <ele>1931</ele>
        <time>2016-03-26T10:23:18Z</time>
      </trkpt>
      <trkpt lat="44.29081" lon="6.74392">
        <ele>1931</ele>
        <time>2016-03-26T10:25:18Z</time>
      </trkpt>
      <trkpt lat="44.29074" lon="6.7439">
        <ele>1931</ele>
        <time>2016-03-26T10:27:18Z</time>
      </trkpt>
      <trkpt lat="44.29062" lon="6.74388">
        <ele>1932</ele>
        <time>2016-03-26T10:29:18Z</time>
      </trkpt>
      <trkpt lat="44.29047" lon="6.74385">
        <ele>1933</ele>
        <time>2016-03-26T10:31:18Z</time>
      </trkpt>
      <trkpt lat="44.29037" lon="6.74383">
        <ele>1933</ele>
        <time>2016-03-26T10:33:18Z</time>
      </trkpt>
      <trkpt lat="44.29032" lon="6.74382">
        <ele>1933</ele>
        <time>2016-03-26T10:35:18Z</time>
      </trkpt>
      <trkpt lat="44.29026" lon="6.7438">
        <ele>1934</ele>
        <time>2016-03-26T10:37:18Z</time>
      </trkpt>
      <trkpt lat="44.29018" lon="6.74377">
        <ele>1935</ele>
        <time>2016-03-26T10:39:18Z</time>
      </trkpt>
      <trkpt lat="44.29011" lon="6.74374">
        <ele>1935</ele>
        <time>2016-03-26T10:41:18Z</time>
      </trkpt>
      <trkpt lat="44.29007" lon="6.74372">
        <ele>1936</ele>
        <time>2016-03-26T10:43:18Z</time>
      </trkpt>
      <trkpt lat="44.28999" lon="6.74368">
        <ele>1937</ele>
        <time>2016-03-26T10:45:18Z</time>
      </trkpt>
      <trkpt lat="44.28991" lon="6.74364">
        <ele>1938</ele>
        <time>2016-03-26T10:47:18Z</time>
      </trkpt>
      <trkpt lat="44.28988" lon="6.74361">
        <ele>1939</ele>
        <time>2016-03-26T10:49:18Z</time>
      </trkpt>
      <trkpt lat="44.28976" lon="6.74355">
        <ele>1940</ele>
        <time>2016-03-26T10:51:18Z</time>
      </trkpt>
      <trkpt lat="44.28973" lon="6.74353">
        <ele>1940</ele>
        <time>2016-03-26T10:53:18Z</time>
      </trkpt>
      <trkpt lat="44.28959" lon="6.74348">
        <ele>1941</ele>
        <time>2016-03-26T10:55:18Z</time>
      </trkpt>
      <trkpt lat="44.28945" lon="6.7434">
        <ele>1942</ele>
        <time>2016-03-26T10:57:18Z</time>
      </trkpt>
      <trkpt lat="44.28922" lon="6.74329">
        <ele>1944</ele>
        <time>2016-03-26T10:59:18Z</time>
      </trkpt>
      <trkpt lat="44.28915" lon="6.74326">
        <ele>1944</ele>
        <time>2016-03-26T11:01:18Z</time>
      </trkpt>
      <trkpt lat="44.28905" lon="6.74321">
        <ele>1944</ele>
        <time>2016-03-26T11:03:18Z</time>
      </trkpt>
      <trkpt lat="44.28895" lon="6.74316">
        <ele>1944</ele>
        <time>2016-03-26T11:05:18Z</time>
      </trkpt>
      <trkpt lat="44.28886" lon="6.74311">
        <ele>1944</ele>
        <time>2016-03-26T11:07:18Z</time>
      </trkpt>
      <trkpt lat="44.28878" lon="6.74306">
        <ele>1944</ele>
        <time>2016-03-26T11:09:18Z</time>
      </trkpt>
      <trkpt lat="44.28867" lon="6.743">
        <ele>1944</ele>
        <time>2016-03-26T11:11:18Z</time>
      </trkpt>
      <trkpt lat="44.28843" lon="6.74281">
        <ele>1946</ele>
        <time>2016-03-26T11:13:18Z</time>
      </trkpt>
      <trkpt lat="44.28817" lon="6.74265">
        <ele>1948</ele>
        <time>2016-03-26T11:15:18Z</time>
      </trkpt>
      <trkpt lat="44.28791" lon="6.74249">
        <ele>1952</ele>
        <time>2016-03-26T11:17:18Z</time>
      </trkpt>
      <trkpt lat="44.28739" lon="6.74221">
        <ele>1957</ele>
        <time>2016-03-26T11:19:18Z</time>
      </trkpt>
      <trkpt lat="44.28734" lon="6.74219">
        <ele>1958</ele>
        <time>2016-03-26T11:21:18Z</time>
      </trkpt>
      <trkpt lat="44.28729" lon="6.74218">
        <ele>1958</ele>
        <time>2016-03-26T11:23:18Z</time>
      </trkpt>
      <trkpt lat="44.28723" lon="6.74218">
        <ele>1958</ele>
        <time>2016-03-26T11:25:18Z</time>
      </trkpt>
      <trkpt lat="44.28719" lon="6.74218">
        <ele>1958</ele>
        <time>2016-03-26T11:27:18Z</time>
      </trkpt>
      <trkpt lat="44.28715" lon="6.74219">
        <ele>1958</ele>
        <time>2016-03-26T11:29:18Z</time>
      </trkpt>
      <trkpt lat="44.28712" lon="6.74219">
        <ele>1958</ele>
        <time>2016-03-26T11:31:18Z</time>
      </trkpt>
      <trkpt lat="44.28709" lon="6.7422">
        <ele>1958</ele>
        <time>2016-03-26T11:33:18Z</time>
      </trkpt>
      <trkpt lat="44.28704" lon="6.74221">
        <ele>1958</ele>
        <time>2016-03-26T11:35:18Z</time>
      </trkpt>
      <trkpt lat="44.28694" lon="6.74225">
        <ele>1957</ele>
        <time>2016-03-26T11:37:18Z</time>
      </trkpt>
      <trkpt lat="44.28685" lon="6.74229">
        <ele>1956</ele>
        <time>2016-03-26T11:39:18Z</time>
      </trkpt>
      <trkpt lat="44.2868" lon="6.7423">
        <ele>1955</ele>
        <time>2016-03-26T11:41:18Z</time>
      </trkpt>
      <trkpt lat="44.28672" lon="6.74233">
        <ele>1955</ele>
        <time>2016-03-26T11:43:18Z</time>
      </trkpt>
      <trkpt lat="44.28665" lon="6.74234">
        <ele>1955</ele>
        <time>2016-03-26T11:45:18Z</time>
      </trkpt>
      <trkpt lat="44.28655" lon="6.74236">
        <ele>1955</ele>
        <time>2016-03-26T11:47:18Z</time>
      </trkpt>
      <trkpt lat="44.28645" lon="6.74236">
        <ele>1955</ele>
        <time>2016-03-26T11:49:18Z</time>
      </trkpt>
      <trkpt lat="44.28634" lon="6.74236">
        <ele>1956</ele>
        <time>2016-03-26T11:51:18Z</time>
      </trkpt>
      <trkpt lat="44.28624" lon="6.74236">
        <ele>1957</ele>
        <time>2016-03-26T11:53:18Z</time>
      </trkpt>
      <trkpt lat="44.28619" lon="6.74235">
        <ele>1957</ele>
        <time>2016-03-26T11:55:18Z</time>
      </trkpt>
      <trkpt lat="44.28614" lon="6.74234">
        <ele>1958</ele>
        <time>2016-03-26T11:57:18Z</time>
      </trkpt>
      <trkpt lat="44.286" lon="6.74232">
        <ele>1959</ele>
        <time>2016-03-26T11:59:18Z</time>
      </trkpt>
      <trkpt lat="44.28594" lon="6.74231">
        <ele>1960</ele>
        <time>2016-03-26T12:01:18Z</time>
      </trkpt>
      <trkpt lat="44.28589" lon="6.7423">
        <ele>1961</ele>
        <time>2016-03-26T12:03:18Z</time>
      </trkpt>
      <trkpt lat="44.28584" lon="6.74228">
        <ele>1962</ele>
        <time>2016-03-26T12:05:18Z</time>
      </trkpt>
      <trkpt lat="44.28579" lon="6.74227">
        <ele>1962</ele>
        <time>2016-03-26T12:07:18Z</time>
      </trkpt>
      <trkpt lat="44.28574" lon="6.74225">
        <ele>1962</ele>
        <time>2016-03-26T12:09:18Z</time>
      </trkpt>
      <trkpt lat="44.28559" lon="6.7422">
        <ele>1962</ele>
        <time>2016-03-26T12:11:18Z</time>
      </trkpt>
      <trkpt lat="44.28549" lon="6.74215">
        <ele>1963</ele>
        <time>2016-03-26T12:13:18Z</time>
      </trkpt>
      <trkpt lat="44.28544" lon="6.74212">
        <ele>1963</ele>
        <time>2016-03-26T12:15:18Z</time>
      </trkpt>
      <trkpt lat="44.28535" lon="6.74207">
        <ele>1964</ele>
        <time>2016-03-26T12:17:18Z</time>
      </trkpt>
      <trkpt lat="44.2853" lon="6.74205">
        <ele>1964</ele>
        <time>2016-03-26T12:19:18Z</time>
      </trkpt>
      <trkpt lat="44.28525" lon="6.74203">
        <ele>1965</ele>
        <time>2016-03-26T12:21:18Z</time>
      </trkpt>
      <trkpt lat="44.2852" lon="6.74201">
        <ele>1965</ele>
        <time>2016-03-26T12:23:18Z</time>
      </trkpt>
      <trkpt lat="44.28513" lon="6.742">
        <ele>1965</ele>
        <time>2016-03-26T12:25:18Z</time>
      </trkpt>
      <trkpt lat="44.28509" lon="6.742">
        <ele>1965</ele>
        <time>2016-03-26T12:27:18Z</time>
      </trkpt>
      <trkpt lat="44.28504" lon="6.74201">
        <ele>1964</ele>
        <time>2016-03-26T12:29:18Z</time>
      </trkpt>
      <trkpt lat="44.28498" lon="6.74202">
        <ele>1964</ele>
        <time>2016-03-26T12:31:18Z</time>
      </trkpt>
      <trkpt lat="44.28493" lon="6.74203">
        <ele>1964</ele>
        <time>2016-03-26T12:33:18Z</time>
      </trkpt>
      <trkpt lat="44.28487" lon="6.74205">
        <ele>1965</ele>
        <time>2016-03-26T12:35:18Z</time>
      </trkpt>
      <trkpt lat="44.28482" lon="6.74207">
        <ele>1965</ele>
        <time>2016-03-26T12:37:18Z</time>
      </trkpt>
      <trkpt lat="44.28475" lon="6.7421">
        <ele>1965</ele>
        <time>2016-03-26T12:39:18Z</time>
      </trkpt>
      <trkpt lat="44.28464" lon="6.74214">
        <ele>1965</ele>
        <time>2016-03-26T12:41:18Z</time>
      </trkpt>
      <trkpt lat="44.28443" lon="6.74221">
        <ele>1966</ele>
        <time>2016-03-26T12:43:18Z</time>
      </trkpt>
      <trkpt lat="44.2844" lon="6.74222">
        <ele>1967</ele>
        <time>2016-03-26T12:45:18Z</time>
      </trkpt>
      <trkpt lat="44.28434" lon="6.74224">
        <ele>1967</ele>
        <time>2016-03-26T12:47:18Z</time>
      </trkpt>
      <trkpt lat="44.28429" lon="6.74227">
        <ele>1967</ele>
        <time>2016-03-26T12:49:18Z</time>
      </trkpt>
      <trkpt lat="44.28418" lon="6.74233">
        <ele>1967</ele>
        <time>2016-03-26T12:51:18Z</time>
      </trkpt>
      <trkpt lat="44.28413" lon="6.74235">
        <ele>1967</ele>
        <time>2016-03-26T12:53:18Z</time>
      </trkpt>
      <trkpt lat="44.28408" lon="6.74238">
        <ele>1967</ele>
        <time>2016-03-26T12:55:18Z</time>
      </trkpt>
      <trkpt lat="44.28398" lon="6.74244">
        <ele>1968</ele>
        <time>2016-03-26T12:57:18Z</time>
      </trkpt>
      <trkpt lat="44.28384" lon="6.74253">
        <ele>1970</ele>
        <time>2016-03-26T12:59:18Z</time>
      </trkpt>
      <trkpt lat="44.28379" lon="6.74256">
        <ele>1971</ele>
        <time>2016-03-26T13:01:18Z</time>
      </trkpt>
      <trkpt lat="44.28375" lon="6.7426">
        <ele>1971</ele>
        <time>2016-03-26T13:03:18Z</time>
      </trkpt>
      <trkpt lat="44.28372" lon="6.74263">
        <ele>1972</ele>
        <time>2016-03-26T13:05:18Z</time>
      </trkpt>
      <trkpt lat="44.28368" lon="6.74267">
        <ele>1972</ele>
        <time>2016-03-26T13:07:18Z</time>
      </trkpt>
      <trkpt lat="44.28365" lon="6.74271">
        <ele>1973</ele>
        <time>2016-03-26T13:09:18Z</time>
      </trkpt>
      <trkpt lat="44.28362" lon="6.74276">
        <ele>1973</ele>
        <time>2016-03-26T13:11:18Z</time>
      </trkpt>
      <trkpt lat="44.2836" lon="6.7428">
        <ele>1973</ele>
        <time>2016-03-26T13:13:18Z</time>
      </trkpt>
      <trkpt lat="44.28358" lon="6.74286">
        <ele>1973</ele>
        <time>2016-03-26T13:15:18Z</time>
      </trkpt>
      <trkpt lat="44.28357" lon="6.74291">
        <ele>1973</ele>
        <time>2016-03-26T13:17:18Z</time>
      </trkpt>
      <trkpt lat="44.28357" lon="6.74292">
        <ele>1972</ele>
        <time>2016-03-26T13:19:18Z</time>
      </trkpt>
      <trkpt lat="44.28357" lon="6.74295">
        <ele>1972</ele>
        <time>2016-03-26T13:21:18Z</time>
      </trkpt>
      <trkpt lat="44.28357" lon="6.74296">
        <ele>1972</ele>
        <time>2016-03-26T13:23:18Z</time>
      </trkpt>
      <trkpt lat="44.28357" lon="6.74302">
        <ele>1971</ele>
        <time>2016-03-26T13:25:18Z</time>
      </trkpt>
      <trkpt lat="44.28357" lon="6.74306">
        <ele>1971</ele>
        <time>2016-03-26T13:27:18Z</time>
      </trkpt>
      <trkpt lat="44.28358" lon="6.74312">
        <ele>1970</ele>
        <time>2016-03-26T13:29:18Z</time>
      </trkpt>
      <trkpt lat="44.28362" lon="6.74327">
        <ele>1968</ele>
        <time>2016-03-26T13:31:18Z</time>
      </trkpt>
      <trkpt lat="44.28365" lon="6.74343">
        <ele>1969</ele>
        <time>2016-03-26T13:33:18Z</time>
      </trkpt>
      <trkpt lat="44.28368" lon="6.74358">
        <ele>1971</ele>
        <time>2016-03-26T13:35:18Z</time>
      </trkpt>
      <trkpt lat="44.2837" lon="6.74367">
        <ele>1972</ele>
        <time>2016-03-26T13:37:18Z</time>
      </trkpt>
      <trkpt lat="44.28374" lon="6.74375">
        <ele>1973</ele>
        <time>2016-03-26T13:39:18Z</time>
      </trkpt>
      <trkpt lat="44.28378" lon="6.7438">
        <ele>1974</ele>
        <time>2016-03-26T13:41:18Z</time>
      </trkpt>
      <trkpt lat="44.28384" lon="6.74384">
        <ele>1974</ele>
        <time>2016-03-26T13:43:18Z</time>
      </trkpt>
      <trkpt lat="44.28387" lon="6.74386">
        <ele>1975</ele>
        <time>2016-03-26T13:45:18Z</time>
      </trkpt>
      <trkpt lat="44.2839" lon="6.74387">
        <ele>1975</ele>
        <time>2016-03-26T13:47:18Z</time>
      </trkpt>
      <trkpt lat="44.28394" lon="6.74388">
        <ele>1975</ele>
        <time>2016-03-26T13:49:18Z</time>
      </trkpt>
      <trkpt lat="44.28398" lon="6.74389">
        <ele>1975</ele>
        <time>2016-03-26T13:51:18Z</time>
      </trkpt>
      <trkpt lat="44.28407" lon="6.7439">
        <ele>1975</ele>
        <time>2016-03-26T13:53:18Z</time>
      </trkpt>
      <trkpt lat="44.28413" lon="6.74391">
        <ele>1975</ele>
        <time>2016-03-26T13:55:18Z</time>
      </trkpt>
      <trkpt lat="44.28429" lon="6.74391">
        <ele>1974</ele>
        <time>2016-03-26T13:57:18Z</time>
      </trkpt>
      <trkpt lat="44.28442" lon="6.74391">
        <ele>1974</ele>
        <time>2016-03-26T13:59:18Z</time>
      </trkpt>
      <trkpt lat="44.28457" lon="6.74391">
        <ele>1974</ele>
        <time>2016-03-26T14:01:18Z</time>
      </trkpt>
      <trkpt lat="44.28466" lon="6.74392">
        <ele>1975</ele>
        <time>2016-03-26T14:03:18Z</time>
      </trkpt>
      <trkpt lat="44.28486" lon="6.7439">
        <ele>1974</ele>
        <time>2016-03-26T14:05:18Z</time>
      </trkpt>
      <trkpt lat="44.28495" lon="6.74389">
        <ele>1973</ele>
        <time>2016-03-26T14:07:18Z</time>
      </trkpt>
      <trkpt lat="44.28505" lon="6.74389">
        <ele>1973</ele>
        <time>2016-03-26T14:09:18Z</time>
      </trkpt>
      <trkpt lat="44.2851" lon="6.74389">
        <ele>1972</ele>
        <time>2016-03-26T14:11:18Z</time>
      </trkpt>
      <trkpt lat="44.28514" lon="6.7439">
        <ele>1972</ele>
        <time>2016-03-26T14:13:18Z</time>
      </trkpt>
      <trkpt lat="44.28519" lon="6.7439">
        <ele>1972</ele>
        <time>2016-03-26T14:15:18Z</time>
      </trkpt>
      <trkpt lat="44.28528" lon="6.74394">
        <ele>1973</ele>
        <time>2016-03-26T14:17:18Z</time>
      </trkpt>
      <trkpt lat="44.28536" lon="6.74398">
        <ele>1973</ele>
        <time>2016-03-26T14:19:18Z</time>
      </trkpt>
      <trkpt lat="44.2854" lon="6.74401">
        <ele>1974</ele>
        <time>2016-03-26T14:21:18Z</time>
      </trkpt>
      <trkpt lat="44.28544" lon="6.74403">
        <ele>1974</ele>
        <time>2016-03-26T14:23:18Z</time>
      </trkpt>
      <trkpt lat="44.28547" lon="6.74406">
        <ele>1974</ele>
        <time>2016-03-26T14:25:18Z</time>
      </trkpt>
      <trkpt lat="44.28552" lon="6.74412">
        <ele>1976</ele>
        <time>2016-03-26T14:27:18Z</time>
      </trkpt>
      <trkpt lat="44.28554" lon="6.74414">
        <ele>1976</ele>
        <time>2016-03-26T14:29:18Z</time>
      </trkpt>
      <trkpt lat="44.28556" lon="6.74418">
        <ele>1977</ele>
        <time>2016-03-26T14:31:18Z</time>
      </trkpt>
      <trkpt lat="44.28557" lon="6.74421">
        <ele>1977</ele>
        <time>2016-03-26T14:33:18Z</time>
      </trkpt>
      <trkpt lat="44.28557" lon="6.74425">
        <ele>1977</ele>
        <time>2016-03-26T14:35:18Z</time>
      </trkpt>
      <trkpt lat="44.28556" lon="6.74429">
        <ele>1977</ele>
        <time>2016-03-26T14:37:18Z</time>
      </trkpt>
      <trkpt lat="44.28555" lon="6.74433">
        <ele>1977</ele>
        <time>2016-03-26T14:39:18Z</time>
      </trkpt>
      <trkpt lat="44.28554" lon="6.74438">
        <ele>1978</ele>
        <time>2016-03-26T14:41:18Z</time>
      </trkpt>
      <trkpt lat="44.28552" lon="6.74441">
        <ele>1978</ele>
        <time>2016-03-26T14:43:18Z</time>
      </trkpt>
      <trkpt lat="44.2855" lon="6.74447">
        <ele>1979</ele>
        <time>2016-03-26T14:45:18Z</time>
      </trkpt>
      <trkpt lat="44.28547" lon="6.74451">
        <ele>1979</ele>
        <time>2016-03-26T14:47:18Z</time>
      </trkpt>
      <trkpt lat="44.28541" lon="6.74459">
        <ele>1981</ele>
        <time>2016-03-26T14:49:18Z</time>
      </trkpt>
      <trkpt lat="44.28537" lon="6.74463">
        <ele>1982</ele>
        <time>2016-03-26T14:51:18Z</time>
      </trkpt>
      <trkpt lat="44.28534" lon="6.74466">
        <ele>1982</ele>
        <time>2016-03-26T14:53:18Z</time>
      </trkpt>
      <trkpt lat="44.2853" lon="6.74468">
        <ele>1983</ele>
        <time>2016-03-26T14:55:18Z</time>
      </trkpt>
      <trkpt lat="44.28525" lon="6.74471">
        <ele>1984</ele>
        <time>2016-03-26T14:57:18Z</time>
      </trkpt>
      <trkpt lat="44.28522" lon="6.74473">
        <ele>1985</ele>
        <time>2016-03-26T14:59:18Z</time>
      </trkpt>
      <trkpt lat="44.28518" lon="6.74475">
        <ele>1986</ele>
        <time>2016-03-26T15:01:18Z</time>
      </trkpt>
      <trkpt lat="44.28514" lon="6.74477">
        <ele>1986</ele>
        <time>2016-03-26T15:03:18Z</time>
      </trkpt>
      <trkpt lat="44.2851" lon="6.74479">
        <ele>1987</ele>
        <time>2016-03-26T15:05:18Z</time>
      </trkpt>
      <trkpt lat="44.28507" lon="6.74481">
        <ele>1988</ele>
        <time>2016-03-26T15:07:18Z</time>
      </trkpt>
      <trkpt lat="44.28504" lon="6.74485">
        <ele>1989</ele>
        <time>2016-03-26T15:09:18Z</time>
      </trkpt>
      <trkpt lat="44.28501" lon="6.74488">
        <ele>1990</ele>
        <time>2016-03-26T15:11:18Z</time>
      </trkpt>
      <trkpt lat="44.28498" lon="6.74495">
        <ele>1991</ele>
        <time>2016-03-26T15:13:18Z</time>
      </trkpt>
      <trkpt lat="44.28496" lon="6.745">
        <ele>1991</ele>
        <time>2016-03-26T15:15:18Z</time>
      </trkpt>
      <trkpt lat="44.28496" lon="6.74504">
        <ele>1992</ele>
        <time>2016-03-26T15:17:18Z</time>
      </trkpt>
      <trkpt lat="44.28496" lon="6.74509">
        <ele>1992</ele>
        <time>2016-03-26T15:19:18Z</time>
      </trkpt>
      <trkpt lat="44.28496" lon="6.74514">
        <ele>1992</ele>
        <time>2016-03-26T15:21:18Z</time>
      </trkpt>
      <trkpt lat="44.28498" lon="6.74519">
        <ele>1993</ele>
        <time>2016-03-26T15:23:18Z</time>
      </trkpt>
      <trkpt lat="44.28499" lon="6.74523">
        <ele>1993</ele>
        <time>2016-03-26T15:25:18Z</time>
      </trkpt>
      <trkpt lat="44.28508" lon="6.74547">
        <ele>1993</ele>
        <time>2016-03-26T15:27:18Z</time>
      </trkpt>
      <trkpt lat="44.2851" lon="6.74552">
        <ele>1993</ele>
        <time>2016-03-26T15:29:18Z</time>
      </trkpt>
      <trkpt lat="44.28513" lon="6.74559">
        <ele>1993</ele>
        <time>2016-03-26T15:31:18Z</time>
      </trkpt>
      <trkpt lat="44.28514" lon="6.74563">
        <ele>1994</ele>
        <time>2016-03-26T15:33:18Z</time>
      </trkpt>
      <trkpt lat="44.28515" lon="6.74566">
        <ele>1994</ele>
        <time>2016-03-26T15:35:18Z</time>
      </trkpt>
      <trkpt lat="44.28515" lon="6.7457">
        <ele>1994</ele>
        <time>2016-03-26T15:37:18Z</time>
      </trkpt>
      <trkpt lat="44.28515" lon="6.74575">
        <ele>1994</ele>
        <time>2016-03-26T15:39:18Z</time>
      </trkpt>
      <trkpt lat="44.28515" lon="6.74579">
        <ele>1995</ele>
        <time>2016-03-26T15:41:18Z</time>
      </trkpt>
      <trkpt lat="44.28515" lon="6.74583">
        <ele>1995</ele>
        <time>2016-03-26T15:43:18Z</time>
      </trkpt>
      <trkpt lat="44.28514" lon="6.74587">
        <ele>1996</ele>
        <time>2016-03-26T15:45:18Z</time>
      </trkpt>
      <trkpt lat="44.28512" lon="6.74591">
        <ele>1997</ele>
        <time>2016-03-26T15:47:18Z</time>
      </trkpt>
      <trkpt lat="44.2851" lon="6.74594">
        <ele>1998</ele>
        <time>2016-03-26T15:49:18Z</time>
      </trkpt>
      <trkpt lat="44.28508" lon="6.74597">
        <ele>1999</ele>
        <time>2016-03-26T15:51:18Z</time>
      </trkpt>
      <trkpt lat="44.28505" lon="6.746">
        <ele>2000</ele>
        <time>2016-03-26T15:53:18Z</time>
      </trkpt>
      <trkpt lat="44.28503" lon="6.74602">
        <ele>2001</ele>
        <time>2016-03-26T15:55:18Z</time>
      </trkpt>
      <trkpt lat="44.28499" lon="6.74603">
        <ele>2001</ele>
        <time>2016-03-26T15:57:18Z</time>
      </trkpt>
      <trkpt lat="44.28496" lon="6.74604">
        <ele>2002</ele>
        <time>2016-03-26T15:59:18Z</time>
      </trkpt>
      <trkpt lat="44.28493" lon="6.74604">
        <ele>2002</ele>
        <time>2016-03-26T16:01:18Z</time>
      </trkpt>
      <trkpt lat="44.28489" lon="6.74603">
        <ele>2003</ele>
        <time>2016-03-26T16:03:18Z</time>
      </trkpt>
      <trkpt lat="44.28486" lon="6.74602">
        <ele>2003</ele>
        <time>2016-03-26T16:05:18Z</time>
      </trkpt>
      <trkpt lat="44.28479" lon="6.74598">
        <ele>2003</ele>
        <time>2016-03-26T16:07:18Z</time>
      </trkpt>
      <trkpt lat="44.28471" lon="6.74592">
        <ele>2003</ele>
        <time>2016-03-26T16:09:18Z</time>
      </trkpt>
      <trkpt lat="44.28463" lon="6.74586">
        <ele>2003</ele>
        <time>2016-03-26T16:11:18Z</time>
      </trkpt>
      <trkpt lat="44.28447" lon="6.74575">
        <ele>2004</ele>
        <time>2016-03-26T16:13:18Z</time>
      </trkpt>
      <trkpt lat="44.28439" lon="6.74568">
        <ele>2004</ele>
        <time>2016-03-26T16:15:18Z</time>
      </trkpt>
      <trkpt lat="44.28421" lon="6.74555">
        <ele>2004</ele>
        <time>2016-03-26T16:17:18Z</time>
      </trkpt>
      <trkpt lat="44.28416" lon="6.74551">
        <ele>2004</ele>
        <time>2016-03-26T16:19:18Z</time>
      </trkpt>
      <trkpt lat="44.28408" lon="6.74545">
        <ele>2003</ele>
        <time>2016-03-26T16:21:18Z</time>
      </trkpt>
      <trkpt lat="44.28404" lon="6.74543">
        <ele>2003</ele>
        <time>2016-03-26T16:23:18Z</time>
      </trkpt>
      <trkpt lat="44.28399" lon="6.74542">
        <ele>2003</ele>
        <time>2016-03-26T16:25:18Z</time>
      </trkpt>
      <trkpt lat="44.28394" lon="6.7454">
        <ele>2003</ele>
        <time>2016-03-26T16:27:18Z</time>
      </trkpt>
      <trkpt lat="44.2839" lon="6.74539">
        <ele>2002</ele>
        <time>2016-03-26T16:29:18Z</time>
      </trkpt>
      <trkpt lat="44.28385" lon="6.74539">
        <ele>2003</ele>
        <time>2016-03-26T16:31:18Z</time>
      </trkpt>
      <trkpt lat="44.28376" lon="6.74539">
        <ele>2003</ele>
        <time>2016-03-26T16:33:18Z</time>
      </trkpt>
      <trkpt lat="44.28372" lon="6.7454">
        <ele>2003</ele>
        <time>2016-03-26T16:35:18Z</time>
      </trkpt>
      <trkpt lat="44.2837" lon="6.7454">
        <ele>2003</ele>
        <time>2016-03-26T16:37:18Z</time>
      </trkpt>
      <trkpt lat="44.28367" lon="6.74541">
        <ele>2003</ele>
        <time>2016-03-26T16:39:18Z</time>
      </trkpt>
      <trkpt lat="44.28363" lon="6.74543">
        <ele>2004</ele>
        <time>2016-03-26T16:41:18Z</time>
      </trkpt>
      <trkpt lat="44.28359" lon="6.74546">
        <ele>2004</ele>
        <time>2016-03-26T16:43:18Z</time>
      </trkpt>
      <trkpt lat="44.28356" lon="6.74549">
        <ele>2005</ele>
        <time>2016-03-26T16:45:18Z</time>
      </trkpt>
      <trkpt lat="44.28352" lon="6.74552">
        <ele>2006</ele>
        <time>2016-03-26T16:47:18Z</time>
      </trkpt>
      <trkpt lat="44.28349" lon="6.74556">
        <ele>2007</ele>
        <time>2016-03-26T16:49:18Z</time>
      </trkpt>
      <trkpt lat="44.28346" lon="6.7456">
        <ele>2008</ele>
        <time>2016-03-26T16:51:18Z</time>
      </trkpt>
      <trkpt lat="44.28336" lon="6.74575">
        <ele>2011</ele>
        <time>2016-03-26T16:53:18Z</time>
      </trkpt>
      <trkpt lat="44.28328" lon="6.74585">
        <ele>2013</ele>
        <time>2016-03-26T16:55:18Z</time>
      </trkpt>
      <trkpt lat="44.28324" lon="6.7459">
        <ele>2014</ele>
        <time>2016-03-26T16:57:18Z</time>
      </trkpt>
      <trkpt lat="44.28314" lon="6.74601">
        <ele>2016</ele>
        <time>2016-03-26T16:59:18Z</time>
      </trkpt>
      <trkpt lat="44.28311" lon="6.74604">
        <ele>2017</ele>
        <time>2016-03-26T17:01:18Z</time>
      </trkpt>
      <trkpt lat="44.28306" lon="6.74607">
        <ele>2017</ele>
        <time>2016-03-26T17:03:18Z</time>
      </trkpt>
      <trkpt lat="44.283" lon="6.7461">
        <ele>2018</ele>
        <time>2016-03-26T17:05:18Z</time>
      </trkpt>
      <trkpt lat="44.28295" lon="6.74613">
        <ele>2019</ele>
        <time>2016-03-26T17:07:18Z</time>
      </trkpt>
      <trkpt lat="44.28289" lon="6.74615">
        <ele>2019</ele>
        <time>2016-03-26T17:09:18Z</time>
      </trkpt>
      <trkpt lat="44.28277" lon="6.74617">
        <ele>2020</ele>
        <time>2016-03-26T17:11:18Z</time>
      </trkpt>
      <trkpt lat="44.28265" lon="6.74618">
        <ele>2021</ele>
        <time>2016-03-26T17:13:18Z</time>
      </trkpt>
      <trkpt lat="44.28252" lon="6.74619">
        <ele>2021</ele>
        <time>2016-03-26T17:15:18Z</time>
      </trkpt>
      <trkpt lat="44.28233" lon="6.7462">
        <ele>2024</ele>
        <time>2016-03-26T17:17:18Z</time>
      </trkpt>
      <trkpt lat="44.28215" lon="6.7462">
        <ele>2027</ele>
        <time>2016-03-26T17:19:18Z</time>
      </trkpt>
      <trkpt lat="44.28197" lon="6.7462">
        <ele>2030</ele>
        <time>2016-03-26T17:21:18Z</time>
      </trkpt>
      <trkpt lat="44.28191" lon="6.74618">
        <ele>2030</ele>
        <time>2016-03-26T17:23:18Z</time>
      </trkpt>
      <trkpt lat="44.28185" lon="6.74617">
        <ele>2031</ele>
        <time>2016-03-26T17:25:18Z</time>
      </trkpt>
      <trkpt lat="44.2818" lon="6.74614">
        <ele>2030</ele>
        <time>2016-03-26T17:27:18Z</time>
      </trkpt>
      <trkpt lat="44.2816" lon="6.74604">
        <ele>2031</ele>
        <time>2016-03-26T17:29:18Z</time>
      </trkpt>
      <trkpt lat="44.28137" lon="6.7459">
        <ele>2033</ele>
        <time>2016-03-26T17:31:18Z</time>
      </trkpt>
      <trkpt lat="44.28117" lon="6.74578">
        <ele>2034</ele>
        <time>2016-03-26T17:33:18Z</time>
      </trkpt>
      <trkpt lat="44.28093" lon="6.74564">
        <ele>2037</ele>
        <time>2016-03-26T17:35:18Z</time>
      </trkpt>
      <trkpt lat="44.2807" lon="6.74554">
        <ele>2044</ele>
        <time>2016-03-26T17:37:18Z</time>
      </trkpt>
      <trkpt lat="44.28045" lon="6.74544">
        <ele>2055</ele>
        <time>2016-03-26T17:39:18Z</time>
      </trkpt>
      <trkpt lat="44.28043" lon="6.74543">
        <ele>2056</ele>
        <time>2016-03-26T17:41:18Z</time>
      </trkpt>
      <trkpt lat="44.28041" lon="6.74541">
        <ele>2056</ele>
        <time>2016-03-26T17:43:18Z</time>
      </trkpt>
      <trkpt lat="44.28038" lon="6.74538">
        <ele>2057</ele>
        <time>2016-03-26T17:45:18Z</time>
      </trkpt>
      <trkpt lat="44.28035" lon="6.74535">
        <ele>2059</ele>
        <time>2016-03-26T17:47:18Z</time>
      </trkpt>
      <trkpt lat="44.28032" lon="6.74529">
        <ele>2059</ele>
        <time>2016-03-26T17:49:18Z</time>
      </trkpt>
      <trkpt lat="44.2803" lon="6.74521">
        <ele>2059</ele>
        <time>2016-03-26T17:51:18Z</time>
      </trkpt>
      <trkpt lat="44.28027" lon="6.74514">
        <ele>2059</ele>
        <time>2016-03-26T17:53:18Z</time>
      </trkpt>
      <trkpt lat="44.28027" lon="6.74508">
        <ele>2058</ele>
        <time>2016-03-26T17:55:18Z</time>
      </trkpt>
      <trkpt lat="44.28027" lon="6.74506">
        <ele>2058</ele>
        <time>2016-03-26T17:57:18Z</time>
      </trkpt>
      <trkpt lat="44.28028" lon="6.74503">
        <ele>2057</ele>
        <time>2016-03-26T17:59:18Z</time>
      </trkpt>
      <trkpt lat="44.28029" lon="6.74499">
        <ele>2056</ele>
        <time>2016-03-26T18:01:18Z</time>
      </trkpt>
      <trkpt lat="44.2803" lon="6.74495">
        <ele>2055</ele>
        <time>2016-03-26T18:03:18Z</time>
      </trkpt>
      <trkpt lat="44.28032" lon="6.74491">
        <ele>2054</ele>
        <time>2016-03-26T18:05:18Z</time>
      </trkpt>
      <trkpt lat="44.28036" lon="6.74484">
        <ele>2052</ele>
        <time>2016-03-26T18:07:18Z</time>
      </trkpt>
      <trkpt lat="44.28057" lon="6.74445">
        <ele>2044</ele>
        <time>2016-03-26T18:09:18Z</time>
      </trkpt>
      <trkpt lat="44.28062" lon="6.74435">
        <ele>2043</ele>
        <time>2016-03-26T18:11:18Z</time>
      </trkpt>
      <trkpt lat="44.28068" lon="6.74425">
        <ele>2042</ele>
        <time>2016-03-26T18:13:18Z</time>
      </trkpt>
      <trkpt lat="44.28085" lon="6.74391">
        <ele>2041</ele>
        <time>2016-03-26T18:15:18Z</time>
      </trkpt>
      <trkpt lat="44.2809" lon="6.74382">
        <ele>2040</ele>
        <time>2016-03-26T18:17:18Z</time>
      </trkpt>
      <trkpt lat="44.28092" lon="6.74377">
        <ele>2041</ele>
        <time>2016-03-26T18:19:18Z</time>
      </trkpt>
      <trkpt lat="44.28107" lon="6.74348">
        <ele>2042</ele>
        <time>2016-03-26T18:21:18Z</time>
      </trkpt>
      <trkpt lat="44.2811" lon="6.74339">
        <ele>2044</ele>
        <time>2016-03-26T18:23:18Z</time>
      </trkpt>
      <trkpt lat="44.28112" lon="6.74332">
        <ele>2045</ele>
        <time>2016-03-26T18:25:18Z</time>
      </trkpt>
      <trkpt lat="44.28113" lon="6.74324">
        <ele>2047</ele>
        <time>2016-03-26T18:27:18Z</time>
      </trkpt>
      <trkpt lat="44.28113" lon="6.74319">
        <ele>2048</ele>
        <time>2016-03-26T18:29:18Z</time>
      </trkpt>
      <trkpt lat="44.28113" lon="6.74313">
        <ele>2050</ele>
        <time>2016-03-26T18:31:18Z</time>
      </trkpt>
      <trkpt lat="44.28113" lon="6.74307">
        <ele>2051</ele>
        <time>2016-03-26T18:33:18Z</time>
      </trkpt>
      <trkpt lat="44.28111" lon="6.74301">
        <ele>2053</ele>
        <time>2016-03-26T18:35:18Z</time>
      </trkpt>
      <trkpt lat="44.2811" lon="6.74296">
        <ele>2054</ele>
        <time>2016-03-26T18:37:18Z</time>
      </trkpt>
      <trkpt lat="44.28108" lon="6.74291">
        <ele>2056</ele>
        <time>2016-03-26T18:39:18Z</time>
      </trkpt>
      <trkpt lat="44.28106" lon="6.74286">
        <ele>2057</ele>
        <time>2016-03-26T18:41:18Z</time>
      </trkpt>
      <trkpt lat="44.28099" lon="6.74279">
        <ele>2058</ele>
        <time>2016-03-26T18:43:18Z</time>
      </trkpt>
      <trkpt lat="44.28096" lon="6.74276">
        <ele>2059</ele>
        <time>2016-03-26T18:45:18Z</time>
      </trkpt>
      <trkpt lat="44.28086" lon="6.7427">
        <ele>2060</ele>
        <time>2016-03-26T18:47:18Z</time>
      </trkpt>
      <trkpt lat="44.28076" lon="6.74262">
        <ele>2061</ele>
        <time>2016-03-26T18:49:18Z</time>
      </trkpt>
      <trkpt lat="44.28067" lon="6.74256">
        <ele>2061</ele>
        <time>2016-03-26T18:51:18Z</time>
      </trkpt>
      <trkpt lat="44.28059" lon="6.74248">
        <ele>2061</ele>
        <time>2016-03-26T18:53:18Z</time>
      </trkpt>
      <trkpt lat="44.28055" lon="6.74244">
        <ele>2061</ele>
        <time>2016-03-26T18:55:18Z</time>
      </trkpt>
      <trkpt lat="44.28052" lon="6.7424">
        <ele>2061</ele>
        <time>2016-03-26T18:57:18Z</time>
      </trkpt>
      <trkpt lat="44.28049" lon="6.74235">
        <ele>2062</ele>
        <time>2016-03-26T18:59:18Z</time>
      </trkpt>
      <trkpt lat="44.28044" lon="6.74225">
        <ele>2062</ele>
        <time>2016-03-26T19:01:18Z</time>
      </trkpt>
      <trkpt lat="44.28042" lon="6.74219">
        <ele>2062</ele>
        <time>2016-03-26T19:03:18Z</time>
      </trkpt>
      <trkpt lat="44.28041" lon="6.74214">
        <ele>2062</ele>
        <time>2016-03-26T19:05:18Z</time>
      </trkpt>
      <trkpt lat="44.28038" lon="6.74203">
        <ele>2063</ele>
        <time>2016-03-26T19:07:18Z</time>
      </trkpt>
      <trkpt lat="44.28038" lon="6.74199">
        <ele>2063</ele>
        <time>2016-03-26T19:09:18Z</time>
      </trkpt>
      <trkpt lat="44.28037" lon="6.74194">
        <ele>2063</ele>
        <time>2016-03-26T19:11:18Z</time>
      </trkpt>
      <trkpt lat="44.28036" lon="6.74188">
        <ele>2064</ele>
        <time>2016-03-26T19:13:18Z</time>
      </trkpt>
      <trkpt lat="44.28035" lon="6.74183">
        <ele>2064</ele>
        <time>2016-03-26T19:15:18Z</time>
      </trkpt>
      <trkpt lat="44.28034" lon="6.74175">
        <ele>2064</ele>
        <time>2016-03-26T19:17:18Z</time>
      </trkpt>
      <trkpt lat="44.28033" lon="6.74172">
        <ele>2065</ele>
        <time>2016-03-26T19:19:18Z</time>
      </trkpt>
      <trkpt lat="44.28032" lon="6.74167">
        <ele>2065</ele>
        <time>2016-03-26T19:21:18Z</time>
      </trkpt>
      <trkpt lat="44.28031" lon="6.74163">
        <ele>2065</ele>
        <time>2016-03-26T19:23:18Z</time>
      </trkpt>
      <trkpt lat="44.28029" lon="6.74157">
        <ele>2066</ele>
        <time>2016-03-26T19:25:18Z</time>
      </trkpt>
      <trkpt lat="44.28025" lon="6.74152">
        <ele>2066</ele>
        <time>2016-03-26T19:27:18Z</time>
      </trkpt>
      <trkpt lat="44.28023" lon="6.74149">
        <ele>2066</ele>
        <time>2016-03-26T19:29:18Z</time>
      </trkpt>
      <trkpt lat="44.2802" lon="6.74146">
        <ele>2066</ele>
        <time>2016-03-26T19:31:18Z</time>
      </trkpt>
      <trkpt lat="44.28017" lon="6.74143">
        <ele>2066</ele>
        <time>2016-03-26T19:33:18Z</time>
      </trkpt>
      <trkpt lat="44.28011" lon="6.74139">
        <ele>2066</ele>
        <time>2016-03-26T19:35:18Z</time>
      </trkpt>
      <trkpt lat="44.28004" lon="6.74136">
        <ele>2065</ele>
        <time>2016-03-26T19:37:18Z</time>
      </trkpt>
      <trkpt lat="44.27996" lon="6.74133">
        <ele>2066</ele>
        <time>2016-03-26T19:39:18Z</time>
      </trkpt>
      <trkpt lat="44.27992" lon="6.74132">
        <ele>2067</ele>
        <time>2016-03-26T19:41:18Z</time>
      </trkpt>
      <trkpt lat="44.27988" lon="6.74133">
        <ele>2068</ele>
        <time>2016-03-26T19:43:18Z</time>
      </trkpt>
      <trkpt lat="44.27983" lon="6.74135">
        <ele>2070</ele>
        <time>2016-03-26T19:45:18Z</time>
      </trkpt>
      <trkpt lat="44.27981" lon="6.74137">
        <ele>2070</ele>
        <time>2016-03-26T19:47:18Z</time>
      </trkpt>
      <trkpt lat="44.27977" lon="6.7414">
        <ele>2071</ele>
        <time>2016-03-26T19:49:18Z</time>
      </trkpt>
      <trkpt lat="44.27974" lon="6.74143">
        <ele>2072</ele>
        <time>2016-03-26T19:51:18Z</time>
      </trkpt>
      <trkpt lat="44.27966" lon="6.74152">
        <ele>2073</ele>
        <time>2016-03-26T19:53:18Z</time>
      </trkpt>
      <trkpt lat="44.27952" lon="6.7417">
        <ele>2075</ele>
        <time>2016-03-26T19:55:18Z</time>
      </trkpt>
      <trkpt lat="44.27944" lon="6.74178">
        <ele>2076</ele>
        <time>2016-03-26T19:57:18Z</time>
      </trkpt>
      <trkpt lat="44.27941" lon="6.74182">
        <ele>2076</ele>
        <time>2016-03-26T19:59:18Z</time>
      </trkpt>
      <trkpt lat="44.27937" lon="6.74185">
        <ele>2077</ele>
        <time>2016-03-26T20:01:18Z</time>
      </trkpt>
      <trkpt lat="44.27931" lon="6.7419">
        <ele>2078</ele>
        <time>2016-03-26T20:03:18Z</time>
      </trkpt>
      <trkpt lat="44.27919" lon="6.74198">
        <ele>2079</ele>
        <time>2016-03-26T20:05:18Z</time>
      </trkpt>
      <trkpt lat="44.27908" lon="6.74204">
        <ele>2081</ele>
        <time>2016-03-26T20:07:18Z</time>
      </trkpt>
      <trkpt lat="44.279" lon="6.7421">
        <ele>2082</ele>
        <time>2016-03-26T20:09:18Z</time>
      </trkpt>
      <trkpt lat="44.27892" lon="6.74215">
        <ele>2083</ele>
        <time>2016-03-26T20:11:18Z</time>
      </trkpt>
      <trkpt lat="44.27888" lon="6.74218">
        <ele>2084</ele>
        <time>2016-03-26T20:13:18Z</time>
      </trkpt>
      <trkpt lat="44.27883" lon="6.7422">
        <ele>2085</ele>
        <time>2016-03-26T20:15:18Z</time>
      </trkpt>
      <trkpt lat="44.27879" lon="6.74223">
        <ele>2086</ele>
        <time>2016-03-26T20:17:18Z</time>
      </trkpt>
      <trkpt lat="44.27874" lon="6.74227">
        <ele>2087</ele>
        <time>2016-03-26T20:19:18Z</time>
      </trkpt>
      <trkpt lat="44.27868" lon="6.74232">
        <ele>2088</ele>
        <time>2016-03-26T20:21:18Z</time>
      </trkpt>
      <trkpt lat="44.27865" lon="6.74235">
        <ele>2088</ele>
        <time>2016-03-26T20:23:18Z</time>
      </trkpt>
      <trkpt lat="44.27862" lon="6.7424">
        <ele>2089</ele>
        <time>2016-03-26T20:25:18Z</time>
      </trkpt>
      <trkpt lat="44.2786" lon="6.74243">
        <ele>2089</ele>
        <time>2016-03-26T20:27:18Z</time>
      </trkpt>
      <trkpt lat="44.27858" lon="6.74247">
        <ele>2089</ele>
        <time>2016-03-26T20:29:18Z</time>
      </trkpt>
      <trkpt lat="44.27857" lon="6.7425">
        <ele>2089</ele>
        <time>2016-03-26T20:31:18Z</time>
      </trkpt>
      <trkpt lat="44.27856" lon="6.74255">
        <ele>2090</ele>
        <time>2016-03-26T20:33:18Z</time>
      </trkpt>
      <trkpt lat="44.27854" lon="6.74264">
        <ele>2092</ele>
        <time>2016-03-26T20:35:18Z</time>
      </trkpt>
      <trkpt lat="44.27854" lon="6.74272">
        <ele>2093</ele>
        <time>2016-03-26T20:37:18Z</time>
      </trkpt>
      <trkpt lat="44.27854" lon="6.74279">
        <ele>2094</ele>
        <time>2016-03-26T20:39:18Z</time>
      </trkpt>
      <trkpt lat="44.27854" lon="6.74285">
        <ele>2095</ele>
        <time>2016-03-26T20:41:18Z</time>
      </trkpt>
      <trkpt lat="44.27855" lon="6.74289">
        <ele>2095</ele>
        <time>2016-03-26T20:43:18Z</time>
      </trkpt>
      <trkpt lat="44.27857" lon="6.74296">
        <ele>2095</ele>
        <time>2016-03-26T20:45:18Z</time>
      </trkpt>
      <trkpt lat="44.27862" lon="6.74308">
        <ele>2095</ele>
        <time>2016-03-26T20:47:18Z</time>
      </trkpt>
      <trkpt lat="44.2787" lon="6.74326">
        <ele>2094</ele>
        <time>2016-03-26T20:49:18Z</time>
      </trkpt>
      <trkpt lat="44.27878" lon="6.74341">
        <ele>2093</ele>
        <time>2016-03-26T20:51:18Z</time>
      </trkpt>
      <trkpt lat="44.27884" lon="6.74352">
        <ele>2093</ele>
        <time>2016-03-26T20:53:18Z</time>
      </trkpt>
      <trkpt lat="44.27892" lon="6.74367">
        <ele>2093</ele>
        <time>2016-03-26T20:55:18Z</time>
      </trkpt>
      <trkpt lat="44.27906" lon="6.74393">
        <ele>2093</ele>
        <time>2016-03-26T20:57:18Z</time>
      </trkpt>
      <trkpt lat="44.27916" lon="6.74412">
        <ele>2092</ele>
        <time>2016-03-26T20:59:18Z</time>
      </trkpt>
      <trkpt lat="44.27918" lon="6.74418">
        <ele>2093</ele>
        <time>2016-03-26T21:01:18Z</time>
      </trkpt>
      <trkpt lat="44.27919" lon="6.74419">
        <ele>2093</ele>
        <time>2016-03-26T21:03:18Z</time>
      </trkpt>
      <trkpt lat="44.2792" lon="6.74423">
        <ele>2093</ele>
        <time>2016-03-26T21:05:18Z</time>
      </trkpt>
      <trkpt lat="44.27921" lon="6.74427">
        <ele>2093</ele>
        <time>2016-03-26T21:07:18Z</time>
      </trkpt>
      <trkpt lat="44.27922" lon="6.74431">
        <ele>2093</ele>
        <time>2016-03-26T21:09:18Z</time>
      </trkpt>
      <trkpt lat="44.27923" lon="6.74442">
        <ele>2095</ele>
        <time>2016-03-26T21:11:18Z</time>
      </trkpt>
      <trkpt lat="44.27923" lon="6.74456">
        <ele>2097</ele>
        <time>2016-03-26T21:13:18Z</time>
      </trkpt>
      <trkpt lat="44.27923" lon="6.74475">
        <ele>2100</ele>
        <time>2016-03-26T21:15:18Z</time>
      </trkpt>
      <trkpt lat="44.27923" lon="6.7448">
        <ele>2101</ele>
        <time>2016-03-26T21:17:18Z</time>
      </trkpt>
      <trkpt lat="44.27923" lon="6.74489">
        <ele>2103</ele>
        <time>2016-03-26T21:19:18Z</time>
      </trkpt>
      <trkpt lat="44.27924" lon="6.74494">
        <ele>2103</ele>
        <time>2016-03-26T21:21:18Z</time>
      </trkpt>
      <trkpt lat="44.27924" lon="6.74499">
        <ele>2104</ele>
        <time>2016-03-26T21:23:18Z</time>
      </trkpt>
      <trkpt lat="44.27925" lon="6.74503">
        <ele>2104</ele>
        <time>2016-03-26T21:25:18Z</time>
      </trkpt>
      <trkpt lat="44.27926" lon="6.74514">
        <ele>2104</ele>
        <time>2016-03-26T21:27:18Z</time>
      </trkpt>
      <trkpt lat="44.27927" lon="6.74519">
        <ele>2103</ele>
        <time>2016-03-26T21:29:18Z</time>
      </trkpt>
      <trkpt lat="44.27928" lon="6.74532">
        <ele>2103</ele>
        <time>2016-03-26T21:31:18Z</time>
      </trkpt>
      <trkpt lat="44.27928" lon="6.74544">
        <ele>2104</ele>
        <time>2016-03-26T21:33:18Z</time>
      </trkpt>
      <trkpt lat="44.27927" lon="6.74552">
        <ele>2105</ele>
        <time>2016-03-26T21:35:18Z</time>
      </trkpt>
      <trkpt lat="44.27926" lon="6.74563">
        <ele>2105</ele>
        <time>2016-03-26T21:37:18Z</time>
      </trkpt>
      <trkpt lat="44.27923" lon="6.74577">
        <ele>2107</ele>
        <time>2016-03-26T21:39:18Z</time>
      </trkpt>
      <trkpt lat="44.27921" lon="6.74593">
        <ele>2107</ele>
        <time>2016-03-26T21:41:18Z</time>
      </trkpt>
      <trkpt lat="44.27918" lon="6.74603">
        <ele>2108</ele>
        <time>2016-03-26T21:43:18Z</time>
      </trkpt>
      <trkpt lat="44.27917" lon="6.74608">
        <ele>2108</ele>
        <time>2016-03-26T21:45:18Z</time>
      </trkpt>
      <trkpt lat="44.27914" lon="6.74613">
        <ele>2108</ele>
        <time>2016-03-26T21:47:18Z</time>
      </trkpt>
      <trkpt lat="44.27911" lon="6.74618">
        <ele>2108</ele>
        <time>2016-03-26T21:49:18Z</time>
      </trkpt>
      <trkpt lat="44.27909" lon="6.74621">
        <ele>2108</ele>
        <time>2016-03-26T21:51:18Z</time>
      </trkpt>
      <trkpt lat="44.27906" lon="6.74624">
        <ele>2109</ele>
        <time>2016-03-26T21:53:18Z</time>
      </trkpt>
      <trkpt lat="44.27903" lon="6.74626">
        <ele>2109</ele>
        <time>2016-03-26T21:55:18Z</time>
      </trkpt>
      <trkpt lat="44.27899" lon="6.74627">
        <ele>2110</ele>
        <time>2016-03-26T21:57:18Z</time>
      </trkpt>
      <trkpt lat="44.27898" lon="6.74627">
        <ele>2110</ele>
        <time>2016-03-26T21:59:18Z</time>
      </trkpt>
      <trkpt lat="44.27894" lon="6.74628">
        <ele>2110</ele>
        <time>2016-03-26T22:01:18Z</time>
      </trkpt>
      <trkpt lat="44.27891" lon="6.74628">
        <ele>2111</ele>
        <time>2016-03-26T22:03:18Z</time>
      </trkpt>
      <trkpt lat="44.27887" lon="6.74627">
        <ele>2111</ele>
        <time>2016-03-26T22:05:18Z</time>
      </trkpt>
      <trkpt lat="44.27883" lon="6.74627">
        <ele>2112</ele>
        <time>2016-03-26T22:07:18Z</time>
      </trkpt>
      <trkpt lat="44.2788" lon="6.74626">
        <ele>2113</ele>
        <time>2016-03-26T22:09:18Z</time>
      </trkpt>
      <trkpt lat="44.27875" lon="6.74624">
        <ele>2114</ele>
        <time>2016-03-26T22:11:18Z</time>
      </trkpt>
      <trkpt lat="44.27866" lon="6.74623">
        <ele>2115</ele>
        <time>2016-03-26T22:13:18Z</time>
      </trkpt>
      <trkpt lat="44.27856" lon="6.74623">
        <ele>2117</ele>
        <time>2016-03-26T22:15:18Z</time>
      </trkpt>
      <trkpt lat="44.27845" lon="6.74624">
        <ele>2118</ele>
        <time>2016-03-26T22:17:18Z</time>
      </trkpt>
      <trkpt lat="44.27817" lon="6.7463">
        <ele>2119</ele>
        <time>2016-03-26T22:19:18Z</time>
      </trkpt>
      <trkpt lat="44.27805" lon="6.74632">
        <ele>2119</ele>
        <time>2016-03-26T22:21:18Z</time>
      </trkpt>
      <trkpt lat="44.27793" lon="6.74634">
        <ele>2118</ele>
        <time>2016-03-26T22:23:18Z</time>
      </trkpt>
      <trkpt lat="44.27788" lon="6.74634">
        <ele>2118</ele>
        <time>2016-03-26T22:25:18Z</time>
      </trkpt>
      <trkpt lat="44.27784" lon="6.74634">
        <ele>2118</ele>
        <time>2016-03-26T22:27:18Z</time>
      </trkpt>
      <trkpt lat="44.27779" lon="6.74633">
        <ele>2118</ele>
        <time>2016-03-26T22:29:18Z</time>
      </trkpt>
      <trkpt lat="44.27771" lon="6.74631">
        <ele>2119</ele>
        <time>2016-03-26T22:31:18Z</time>
      </trkpt>
      <trkpt lat="44.27766" lon="6.74628">
        <ele>2119</ele>
        <time>2016-03-26T22:33:18Z</time>
      </trkpt>
      <trkpt lat="44.27758" lon="6.74623">
        <ele>2120</ele>
        <time>2016-03-26T22:35:18Z</time>
      </trkpt>
      <trkpt lat="44.27736" lon="6.74607">
        <ele>2124</ele>
        <time>2016-03-26T22:37:18Z</time>
      </trkpt>
      <trkpt lat="44.27732" lon="6.74605">
        <ele>2124</ele>
        <time>2016-03-26T22:39:18Z</time>
      </trkpt>
      <trkpt lat="44.27728" lon="6.74604">
        <ele>2124</ele>
        <time>2016-03-26T22:41:18Z</time>
      </trkpt>
      <trkpt lat="44.27725" lon="6.74602">
        <ele>2125</ele>
        <time>2016-03-26T22:43:18Z</time>
      </trkpt>
      <trkpt lat="44.27713" lon="6.746">
        <ele>2126</ele>
        <time>2016-03-26T22:45:18Z</time>
      </trkpt>
      <trkpt lat="44.27706" lon="6.746">
        <ele>2126</ele>
        <time>2016-03-26T22:47:18Z</time>
      </trkpt>
      <trkpt lat="44.27702" lon="6.746">
        <ele>2127</ele>
        <time>2016-03-26T22:49:18Z</time>
      </trkpt>
      <trkpt lat="44.27698" lon="6.74601">
        <ele>2127</ele>
        <time>2016-03-26T22:51:18Z</time>
      </trkpt>
      <trkpt lat="44.27694" lon="6.74602">
        <ele>2127</ele>
        <time>2016-03-26T22:53:18Z</time>
      </trkpt>
      <trkpt lat="44.27691" lon="6.74603">
        <ele>2127</ele>
        <time>2016-03-26T22:55:18Z</time>
      </trkpt>
      <trkpt lat="44.27687" lon="6.74604">
        <ele>2127</ele>
        <time>2016-03-26T22:57:18Z</time>
      </trkpt>
      <trkpt lat="44.27684" lon="6.74606">
        <ele>2127</ele>
        <time>2016-03-26T22:59:18Z</time>
      </trkpt>
      <trkpt lat="44.2768" lon="6.74607">
        <ele>2127</ele>
        <time>2016-03-26T23:01:18Z</time>
      </trkpt>
      <trkpt lat="44.27666" lon="6.74614">
        <ele>2126</ele>
        <time>2016-03-26T23:03:18Z</time>
      </trkpt>
      <trkpt lat="44.27662" lon="6.74615">
        <ele>2126</ele>
        <time>2016-03-26T23:05:18Z</time>
      </trkpt>
      <trkpt lat="44.27659" lon="6.74616">
        <ele>2126</ele>
        <time>2016-03-26T23:07:18Z</time>
      </trkpt>
      <trkpt lat="44.27653" lon="6.74617">
        <ele>2127</ele>
        <time>2016-03-26T23:09:18Z</time>
      </trkpt>
      <trkpt lat="44.27651" lon="6.74616">
        <ele>2127</ele>
        <time>2016-03-26T23:11:18Z</time>
      </trkpt>
      <trkpt lat="44.27649" lon="6.74614">
        <ele>2127</ele>
        <time>2016-03-26T23:13:18Z</time>
      </trkpt>
      <trkpt lat="44.27646" lon="6.74611">
        <ele>2128</ele>
        <time>2016-03-26T23:15:18Z</time>
      </trkpt>
      <trkpt lat="44.27644" lon="6.74607">
        <ele>2128</ele>
        <time>2016-03-26T23:17:18Z</time>
      </trkpt>
      <trkpt lat="44.27643" lon="6.74605">
        <ele>2129</ele>
        <time>2016-03-26T23:19:18Z</time>
      </trkpt>
      <trkpt lat="44.27642" lon="6.74602">
        <ele>2129</ele>
        <time>2016-03-26T23:21:18Z</time>
      </trkpt>
      <trkpt lat="44.27642" lon="6.74598">
        <ele>2129</ele>
        <time>2016-03-26T23:23:18Z</time>
      </trkpt>
      <trkpt lat="44.27642" lon="6.74596">
        <ele>2130</ele>
        <time>2016-03-26T23:25:18Z</time>
      </trkpt>
      <trkpt lat="44.27642" lon="6.74593">
        <ele>2130</ele>
        <time>2016-03-26T23:27:18Z</time>
      </trkpt>
      <trkpt lat="44.27643" lon="6.74589">
        <ele>2131</ele>
        <time>2016-03-26T23:29:18Z</time>
      </trkpt>
      <trkpt lat="44.27644" lon="6.74585">
        <ele>2131</ele>
        <time>2016-03-26T23:31:18Z</time>
      </trkpt>
      <trkpt lat="44.27647" lon="6.74581">
        <ele>2132</ele>
        <time>2016-03-26T23:33:18Z</time>
      </trkpt>
      <trkpt lat="44.27649" lon="6.74578">
        <ele>2133</ele>
        <time>2016-03-26T23:35:18Z</time>
      </trkpt>
      <trkpt lat="44.27655" lon="6.74574">
        <ele>2133</ele>
        <time>2016-03-26T23:37:18Z</time>
      </trkpt>
      <trkpt lat="44.27662" lon="6.7457">
        <ele>2134</ele>
        <time>2016-03-26T23:39:18Z</time>
      </trkpt>
      <trkpt lat="44.27671" lon="6.74568">
        <ele>2134</ele>
        <time>2016-03-26T23:41:18Z</time>
      </trkpt>
      <trkpt lat="44.27676" lon="6.74566">
        <ele>2134</ele>
        <time>2016-03-26T23:43:18Z</time>
      </trkpt>
      <trkpt lat="44.27689" lon="6.7456">
        <ele>2134</ele>
        <time>2016-03-26T23:45:18Z</time>
      </trkpt>
      <trkpt lat="44.27699" lon="6.74555">
        <ele>2135</ele>
        <time>2016-03-26T23:47:18Z</time>
      </trkpt>
      <trkpt lat="44.27712" lon="6.74549">
        <ele>2134</ele>
        <time>2016-03-26T23:49:18Z</time>
      </trkpt>
      <trkpt lat="44.27722" lon="6.74545">
        <ele>2134</ele>
        <time>2016-03-26T23:51:18Z</time>
      </trkpt>
      <trkpt lat="44.27736" lon="6.74538">
        <ele>2134</ele>
        <time>2016-03-26T23:53:18Z</time>
      </trkpt>
      <trkpt lat="44.27746" lon="6.74533">
        <ele>2133</ele>
        <time>2016-03-26T23:55:18Z</time>
      </trkpt>
      <trkpt lat="44.27756" lon="6.74527">
        <ele>2134</ele>
        <time>2016-03-26T23:57:18Z</time>
      </trkpt>
      <trkpt lat="44.2776" lon="6.74525">
        <ele>2134</ele>
        <time>2016-03-26T23:59:18Z</time>
      </trkpt>
      <trkpt lat="44.27764" lon="6.74522">
        <ele>2135</ele>
        <time>2016-03-27T00:01:18Z</time>
      </trkpt>
      <trkpt lat="44.27766" lon="6.74519">
        <ele>2135</ele>
        <time>2016-03-27T00:03:18Z</time>
      </trkpt>
      <trkpt lat="44.27768" lon="6.74517">
        <ele>2135</ele>
        <time>2016-03-27T00:05:18Z</time>
      </trkpt>
      <trkpt lat="44.27771" lon="6.74514">
        <ele>2136</ele>
        <time>2016-03-27T00:07:18Z</time>
      </trkpt>
      <trkpt lat="44.27775" lon="6.74509">
        <ele>2136</ele>
        <time>2016-03-27T00:09:18Z</time>
      </trkpt>
      <trkpt lat="44.27777" lon="6.74504">
        <ele>2137</ele>
        <time>2016-03-27T00:11:18Z</time>
      </trkpt>
      <trkpt lat="44.2778" lon="6.74499">
        <ele>2138</ele>
        <time>2016-03-27T00:13:18Z</time>
      </trkpt>
      <trkpt lat="44.27782" lon="6.74495">
        <ele>2138</ele>
        <time>2016-03-27T00:15:18Z</time>
      </trkpt>
      <trkpt lat="44.27785" lon="6.74488">
        <ele>2138</ele>
        <time>2016-03-27T00:17:18Z</time>
      </trkpt>
      <trkpt lat="44.27786" lon="6.74482">
        <ele>2138</ele>
        <time>2016-03-27T00:19:18Z</time>
      </trkpt>
      <trkpt lat="44.27787" lon="6.74476">
        <ele>2138</ele>
        <time>2016-03-27T00:21:18Z</time>
      </trkpt>
      <trkpt lat="44.27788" lon="6.7447">
        <ele>2138</ele>
        <time>2016-03-27T00:23:18Z</time>
      </trkpt>
      <trkpt lat="44.27789" lon="6.74464">
        <ele>2138</ele>
        <time>2016-03-27T00:25:18Z</time>
      </trkpt>
      <trkpt lat="44.27788" lon="6.74458">
        <ele>2138</ele>
        <time>2016-03-27T00:27:18Z</time>
      </trkpt>
      <trkpt lat="44.27788" lon="6.74452">
        <ele>2138</ele>
        <time>2016-03-27T00:29:18Z</time>
      </trkpt>
      <trkpt lat="44.27786" lon="6.74446">
        <ele>2138</ele>
        <time>2016-03-27T00:31:18Z</time>
      </trkpt>
      <trkpt lat="44.27785" lon="6.74441">
        <ele>2138</ele>
        <time>2016-03-27T00:33:18Z</time>
      </trkpt>
      <trkpt lat="44.27782" lon="6.74436">
        <ele>2139</ele>
        <time>2016-03-27T00:35:18Z</time>
      </trkpt>
      <trkpt lat="44.27779" lon="6.74431">
        <ele>2139</ele>
        <time>2016-03-27T00:37:18Z</time>
      </trkpt>
      <trkpt lat="44.27776" lon="6.74427">
        <ele>2140</ele>
        <time>2016-03-27T00:39:18Z</time>
      </trkpt>
      <trkpt lat="44.27769" lon="6.7442">
        <ele>2141</ele>
        <time>2016-03-27T00:41:18Z</time>
      </trkpt>
      <trkpt lat="44.2776" lon="6.74414">
        <ele>2143</ele>
        <time>2016-03-27T00:43:18Z</time>
      </trkpt>
      <trkpt lat="44.27755" lon="6.74411">
        <ele>2145</ele>
        <time>2016-03-27T00:45:18Z</time>
      </trkpt>
      <trkpt lat="44.27748" lon="6.74407">
        <ele>2147</ele>
        <time>2016-03-27T00:47:18Z</time>
      </trkpt>
      <trkpt lat="44.27743" lon="6.74406">
        <ele>2150</ele>
        <time>2016-03-27T00:49:18Z</time>
      </trkpt>
      <trkpt lat="44.27741" lon="6.74406">
        <ele>2151</ele>
        <time>2016-03-27T00:51:18Z</time>
      </trkpt>
      <trkpt lat="44.27739" lon="6.74406">
        <ele>2151</ele>
        <time>2016-03-27T00:53:18Z</time>
      </trkpt>
      <trkpt lat="44.27736" lon="6.74406">
        <ele>2153</ele>
        <time>2016-03-27T00:55:18Z</time>
      </trkpt>
      <trkpt lat="44.27734" lon="6.74407">
        <ele>2154</ele>
        <time>2016-03-27T00:57:18Z</time>
      </trkpt>
      <trkpt lat="44.27732" lon="6.74407">
        <ele>2155</ele>
        <time>2016-03-27T00:59:18Z</time>
      </trkpt>
      <trkpt lat="44.2773" lon="6.74408">
        <ele>2155</ele>
        <time>2016-03-27T01:01:18Z</time>
      </trkpt>
      <trkpt lat="44.27729" lon="6.74409">
        <ele>2156</ele>
        <time>2016-03-27T01:03:18Z</time>
      </trkpt>
      <trkpt lat="44.27728" lon="6.7441">
        <ele>2156</ele>
        <time>2016-03-27T01:05:18Z</time>
      </trkpt>
      <trkpt lat="44.27726" lon="6.74411">
        <ele>2157</ele>
        <time>2016-03-27T01:07:18Z</time>
      </trkpt>
      <trkpt lat="44.27723" lon="6.74414">
        <ele>2158</ele>
        <time>2016-03-27T01:09:18Z</time>
      </trkpt>
      <trkpt lat="44.27719" lon="6.74418">
        <ele>2159</ele>
        <time>2016-03-27T01:11:18Z</time>
      </trkpt>
      <trkpt lat="44.27716" lon="6.74422">
        <ele>2159</ele>
        <time>2016-03-27T01:13:18Z</time>
      </trkpt>
      <trkpt lat="44.27713" lon="6.74427">
        <ele>2159</ele>
        <time>2016-03-27T01:15:18Z</time>
      </trkpt>
      <trkpt lat="44.27707" lon="6.74436">
        <ele>2160</ele>
        <time>2016-03-27T01:17:18Z</time>
      </trkpt>
      <trkpt lat="44.27702" lon="6.74444">
        <ele>2159</ele>
        <time>2016-03-27T01:19:18Z</time>
      </trkpt>
      <trkpt lat="44.27697" lon="6.74452">
        <ele>2159</ele>
        <time>2016-03-27T01:21:18Z</time>
      </trkpt>
      <trkpt lat="44.27693" lon="6.74458">
        <ele>2158</ele>
        <time>2016-03-27T01:23:18Z</time>
      </trkpt>
      <trkpt lat="44.27689" lon="6.74463">
        <ele>2158</ele>
        <time>2016-03-27T01:25:18Z</time>
      </trkpt>
      <trkpt lat="44.27686" lon="6.74468">
        <ele>2157</ele>
        <time>2016-03-27T01:27:18Z</time>
      </trkpt>
      <trkpt lat="44.27682" lon="6.74473">
        <ele>2156</ele>
        <time>2016-03-27T01:29:18Z</time>
      </trkpt>
      <trkpt lat="44.2768" lon="6.74474">
        <ele>2156</ele>
        <time>2016-03-27T01:31:18Z</time>
      </trkpt>
      <trkpt lat="44.27673" lon="6.74481">
        <ele>2155</ele>
        <time>2016-03-27T01:33:18Z</time>
      </trkpt>
      <trkpt lat="44.27664" lon="6.74487">
        <ele>2155</ele>
        <time>2016-03-27T01:35:18Z</time>
      </trkpt>
      <trkpt lat="44.27654" lon="6.74492">
        <ele>2154</ele>
        <time>2016-03-27T01:37:18Z</time>
      </trkpt>
      <trkpt lat="44.27643" lon="6.74496">
        <ele>2154</ele>
        <time>2016-03-27T01:39:18Z</time>
      </trkpt>
      <trkpt lat="44.27633" lon="6.74499">
        <ele>2154</ele>
        <time>2016-03-27T01:41:18Z</time>
      </trkpt>
      <trkpt lat="44.27627" lon="6.74501">
        <ele>2154</ele>
        <time>2016-03-27T01:43:18Z</time>
      </trkpt>
      <trkpt lat="44.27622" lon="6.74501">
        <ele>2155</ele>
        <time>2016-03-27T01:45:18Z</time>
      </trkpt>
      <trkpt lat="44.27615" lon="6.74502">
        <ele>2156</ele>
        <time>2016-03-27T01:47:18Z</time>
      </trkpt>
      <trkpt lat="44.276" lon="6.74501">
        <ele>2158</ele>
        <time>2016-03-27T01:49:18Z</time>
      </trkpt>
      <trkpt lat="44.27593" lon="6.74501">
        <ele>2159</ele>
        <time>2016-03-27T01:51:18Z</time>
      </trkpt>
      <trkpt lat="44.27589" lon="6.74501">
        <ele>2160</ele>
        <time>2016-03-27T01:53:18Z</time>
      </trkpt>
      <trkpt lat="44.27574" lon="6.74502">
        <ele>2161</ele>
        <time>2016-03-27T01:55:18Z</time>
      </trkpt>
      <trkpt lat="44.27564" lon="6.745">
        <ele>2162</ele>
        <time>2016-03-27T01:57:18Z</time>
      </trkpt>
      <trkpt lat="44.27554" lon="6.74498">
        <ele>2163</ele>
        <time>2016-03-27T01:59:18Z</time>
      </trkpt>
      <trkpt lat="44.27545" lon="6.74496">
        <ele>2164</ele>
        <time>2016-03-27T03:01:18Z</time>
      </trkpt>
      <trkpt lat="44.27535" lon="6.74494">
        <ele>2166</ele>
        <time>2016-03-27T03:03:18Z</time>
      </trkpt>
      <trkpt lat="44.27503" lon="6.74489">
        <ele>2170</ele>
        <time>2016-03-27T03:05:18Z</time>
      </trkpt>
      <trkpt lat="44.27497" lon="6.74488">
        <ele>2170</ele>
        <time>2016-03-27T03:07:18Z</time>
      </trkpt>
      <trkpt lat="44.27486" lon="6.74489">
        <ele>2171</ele>
        <time>2016-03-27T03:09:18Z</time>
      </trkpt>
      <trkpt lat="44.27474" lon="6.74493">
        <ele>2170</ele>
        <time>2016-03-27T03:11:18Z</time>
      </trkpt>
      <trkpt lat="44.27463" lon="6.74494">
        <ele>2171</ele>
        <time>2016-03-27T03:13:18Z</time>
      </trkpt>
      <trkpt lat="44.27457" lon="6.74494">
        <ele>2172</ele>
        <time>2016-03-27T03:15:18Z</time>
      </trkpt>
      <trkpt lat="44.27446" lon="6.74492">
        <ele>2173</ele>
        <time>2016-03-27T03:17:18Z</time>
      </trkpt>
      <trkpt lat="44.2744" lon="6.7449">
        <ele>2175</ele>
        <time>2016-03-27T03:19:18Z</time>
      </trkpt>
      <trkpt lat="44.27418" lon="6.74481">
        <ele>2179</ele>
        <time>2016-03-27T03:21:18Z</time>
      </trkpt>
      <trkpt lat="44.27415" lon="6.7448">
        <ele>2180</ele>
        <time>2016-03-27T03:23:18Z</time>
      </trkpt>
      <trkpt lat="44.27411" lon="6.7448">
        <ele>2180</ele>
        <time>2016-03-27T03:25:18Z</time>
      </trkpt>
      <trkpt lat="44.27408" lon="6.7448">
        <ele>2180</ele>
        <time>2016-03-27T03:27:18Z</time>
      </trkpt>
      <trkpt lat="44.27405" lon="6.74482">
        <ele>2180</ele>
        <time>2016-03-27T03:29:18Z</time>
      </trkpt>
      <trkpt lat="44.27379" lon="6.745">
        <ele>2177</ele>
        <time>2016-03-27T03:31:18Z</time>
      </trkpt>
      <trkpt lat="44.27371" lon="6.74506">
        <ele>2177</ele>
        <time>2016-03-27T03:33:18Z</time>
      </trkpt>
      <trkpt lat="44.27362" lon="6.74509">
        <ele>2177</ele>
        <time>2016-03-27T03:35:18Z</time>
      </trkpt>
      <trkpt lat="44.27353" lon="6.7451">
        <ele>2178</ele>
        <time>2016-03-27T03:37:18Z</time>
      </trkpt>
      <trkpt lat="44.27332" lon="6.74506">
        <ele>2180</ele>
        <time>2016-03-27T03:39:18Z</time>
      </trkpt>
      <trkpt lat="44.27315" lon="6.74497">
        <ele>2182</ele>
        <time>2016-03-27T03:41:18Z</time>
      </trkpt>
      <trkpt lat="44.27303" lon="6.7449">
        <ele>2185</ele>
        <time>2016-03-27T03:43:18Z</time>
      </trkpt>
      <trkpt lat="44.27291" lon="6.74486">
        <ele>2186</ele>
        <time>2016-03-27T03:45:18Z</time>
      </trkpt>
      <trkpt lat="44.27284" lon="6.74483">
        <ele>2188</ele>
        <time>2016-03-27T03:47:18Z</time>
      </trkpt>
      <trkpt lat="44.2727" lon="6.7448">
        <ele>2190</ele>
        <time>2016-03-27T03:49:18Z</time>
      </trkpt>
      <trkpt lat="44.27269" lon="6.7448">
        <ele>2190</ele>
        <time>2016-03-27T03:51:18Z</time>
      </trkpt>
      <trkpt lat="44.27262" lon="6.74479">
        <ele>2190</ele>
        <time>2016-03-27T03:53:18Z</time>
      </trkpt>
      <trkpt lat="44.27255" lon="6.7448">
        <ele>2190</ele>
        <time>2016-03-27T03:55:18Z</time>
      </trkpt>
      <trkpt lat="44.27247" lon="6.7448">
        <ele>2191</ele>
        <time>2016-03-27T03:57:18Z</time>
      </trkpt>
      <trkpt lat="44.27199" lon="6.74491">
        <ele>2198</ele>
        <time>2016-03-27T03:59:18Z</time>
      </trkpt>
      <trkpt lat="44.27192" lon="6.74493">
        <ele>2199</ele>
        <time>2016-03-27T04:01:18Z</time>
      </trkpt>
      <trkpt lat="44.27186" lon="6.74496">
        <ele>2199</ele>
        <time>2016-03-27T04:03:18Z</time>
      </trkpt>
      <trkpt lat="44.27175" lon="6.74504">
        <ele>2200</ele>
        <time>2016-03-27T04:05:18Z</time>
      </trkpt>
      <trkpt lat="44.27166" lon="6.74512">
        <ele>2201</ele>
        <time>2016-03-27T04:07:18Z</time>
      </trkpt>
      <trkpt lat="44.27162" lon="6.74518">
        <ele>2201</ele>
        <time>2016-03-27T04:09:18Z</time>
      </trkpt>
      <trkpt lat="44.27156" lon="6.74529">
        <ele>2201</ele>
        <time>2016-03-27T04:11:18Z</time>
      </trkpt>
      <trkpt lat="44.2715" lon="6.74542">
        <ele>2201</ele>
        <time>2016-03-27T04:13:18Z</time>
      </trkpt>
      <trkpt lat="44.27146" lon="6.74556">
        <ele>2200</ele>
        <time>2016-03-27T04:15:18Z</time>
      </trkpt>
      <trkpt lat="44.27142" lon="6.74583">
        <ele>2199</ele>
        <time>2016-03-27T04:17:18Z</time>
      </trkpt>
      <trkpt lat="44.2714" lon="6.74595">
        <ele>2199</ele>
        <time>2016-03-27T04:19:18Z</time>
      </trkpt>
      <trkpt lat="44.27138" lon="6.746">
        <ele>2199</ele>
        <time>2016-03-27T04:21:18Z</time>
      </trkpt>
      <trkpt lat="44.27133" lon="6.7461">
        <ele>2200</ele>
        <time>2016-03-27T04:23:18Z</time>
      </trkpt>
      <trkpt lat="44.27127" lon="6.74619">
        <ele>2201</ele>
        <time>2016-03-27T04:25:18Z</time>
      </trkpt>
      <trkpt lat="44.27123" lon="6.74623">
        <ele>2202</ele>
        <time>2016-03-27T04:27:18Z</time>
      </trkpt>
      <trkpt lat="44.27093" lon="6.74646">
        <ele>2206</ele>
        <time>2016-03-27T04:29:18Z</time>
      </trkpt>
      <trkpt lat="44.27085" lon="6.74654">
        <ele>2207</ele>
        <time>2016-03-27T04:31:18Z</time>
      </trkpt>
      <trkpt lat="44.27079" lon="6.74659">
        <ele>2206</ele>
        <time>2016-03-27T04:33:18Z</time>
      </trkpt>
      <trkpt lat="44.27072" lon="6.74663">
        <ele>2206</ele>
        <time>2016-03-27T04:35:18Z</time>
      </trkpt>
      <trkpt lat="44.27065" lon="6.74667">
        <ele>2206</ele>
        <time>2016-03-27T04:37:18Z</time>
      </trkpt>
      <trkpt lat="44.27058" lon="6.7467">
        <ele>2207</ele>
        <time>2016-03-27T04:39:18Z</time>
      </trkpt>
      <trkpt lat="44.27051" lon="6.74673">
        <ele>2207</ele>
        <time>2016-03-27T04:41:18Z</time>
      </trkpt>
      <trkpt lat="44.27043" lon="6.74674">
        <ele>2208</ele>
        <time>2016-03-27T04:43:18Z</time>
      </trkpt>
      <trkpt lat="44.27037" lon="6.74675">
        <ele>2208</ele>
        <time>2016-03-27T04:45:18Z</time>
      </trkpt>
      <trkpt lat="44.2703" lon="6.74675">
        <ele>2208</ele>
        <time>2016-03-27T04:47:18Z</time>
      </trkpt>
      <trkpt lat="44.27017" lon="6.74674">
        <ele>2209</ele>
        <time>2016-03-27T04:49:18Z</time>
      </trkpt>
      <trkpt lat="44.2701" lon="6.74672">
        <ele>2210</ele>
        <time>2016-03-27T04:51:18Z</time>
      </trkpt>
      <trkpt lat="44.26988" lon="6.74665">
        <ele>2212</ele>
        <time>2016-03-27T04:53:18Z</time>
      </trkpt>
      <trkpt lat="44.26968" lon="6.7466">
        <ele>2213</ele>
        <time>2016-03-27T04:55:18Z</time>
      </trkpt>
      <trkpt lat="44.2696" lon="6.74656">
        <ele>2214</ele>
        <time>2016-03-27T04:57:18Z</time>
      </trkpt>
      <trkpt lat="44.26953" lon="6.7465">
        <ele>2215</ele>
        <time>2016-03-27T04:59:18Z</time>
      </trkpt>
      <trkpt lat="44.2695" lon="6.74647">
        <ele>2215</ele>
        <time>2016-03-27T05:01:18Z</time>
      </trkpt>
      <trkpt lat="44.26943" lon="6.74637">
        <ele>2217</ele>
        <time>2016-03-27T05:03:18Z</time>
      </trkpt>
      <trkpt lat="44.26942" lon="6.74636">
        <ele>2217</ele>
        <time>2016-03-27T05:05:18Z</time>
      </trkpt>
      <trkpt lat="44.26926" lon="6.74619">
        <ele>2220</ele>
        <time>2016-03-27T05:07:18Z</time>
      </trkpt>
      <trkpt lat="44.26921" lon="6.74617">
        <ele>2220</ele>
        <time>2016-03-27T05:09:18Z</time>
      </trkpt>
      <trkpt lat="44.26917" lon="6.74616">
        <ele>2220</ele>
        <time>2016-03-27T05:11:18Z</time>
      </trkpt>
      <trkpt lat="44.26912" lon="6.74615">
        <ele>2221</ele>
        <time>2016-03-27T05:13:18Z</time>
      </trkpt>
      <trkpt lat="44.26907" lon="6.74616">
        <ele>2221</ele>
        <time>2016-03-27T05:15:18Z</time>
      </trkpt>
      <trkpt lat="44.26892" lon="6.7462">
        <ele>2222</ele>
        <time>2016-03-27T05:17:18Z</time>
      </trkpt>
      <trkpt lat="44.26848" lon="6.74632">
        <ele>2225</ele>
        <time>2016-03-27T05:19:18Z</time>
      </trkpt>
      <trkpt lat="44.26841" lon="6.74634">
        <ele>2226</ele>
        <time>2016-03-27T05:21:18Z</time>
      </trkpt>
      <trkpt lat="44.26818" lon="6.74638">
        <ele>2227</ele>
        <time>2016-03-27T05:23:18Z</time>
      </trkpt>
      <trkpt lat="44.26806" lon="6.74637">
        <ele>2228</ele>
        <time>2016-03-27T05:25:18Z</time>
      </trkpt>
      <trkpt lat="44.26795" lon="6.74636">
        <ele>2229</ele>
        <time>2016-03-27T05:27:18Z</time>
      </trkpt>
      <trkpt lat="44.26783" lon="6.74634">
        <ele>2229</ele>
        <time>2016-03-27T05:29:18Z</time>
      </trkpt>
      <trkpt lat="44.26771" lon="6.74631">
        <ele>2230</ele>
        <time>2016-03-27T05:31:18Z</time>
      </trkpt>
      <trkpt lat="44.26764" lon="6.74629">
        <ele>2231</ele>
        <time>2016-03-27T05:33:18Z</time>
      </trkpt>
      <trkpt lat="44.26757" lon="6.74625">
        <ele>2231</ele>
        <time>2016-03-27T05:35:18Z</time>
      </trkpt>
      <trkpt lat="44.2675" lon="6.74622">
        <ele>2232</ele>
        <time>2016-03-27T05:37:18Z</time>
      </trkpt>
      <trkpt lat="44.26733" lon="6.7461">
        <ele>2234</ele>
        <time>2016-03-27T05:39:18Z</time>
      </trkpt>
      <trkpt lat="44.26721" lon="6.74604">
        <ele>2236</ele>
        <time>2016-03-27T05:41:18Z</time>
      </trkpt>
      <trkpt lat="44.26703" lon="6.74598">
        <ele>2238</ele>
        <time>2016-03-27T05:43:18Z</time>
      </trkpt>
      <trkpt lat="44.26694" lon="6.74597">
        <ele>2240</ele>
        <time>2016-03-27T05:45:18Z</time>
      </trkpt>
      <trkpt lat="44.26685" lon="6.74598">
        <ele>2241</ele>
        <time>2016-03-27T05:47:18Z</time>
      </trkpt>
      <trkpt lat="44.26663" lon="6.74607">
        <ele>2242</ele>
        <time>2016-03-27T05:49:18Z</time>
      </trkpt>
      <trkpt lat="44.2665" lon="6.74609">
        <ele>2243</ele>
        <time>2016-03-27T05:51:18Z</time>
      </trkpt>
      <trkpt lat="44.2662" lon="6.74606">
        <ele>2245</ele>
        <time>2016-03-27T05:53:18Z</time>
      </trkpt>
      <trkpt lat="44.26615" lon="6.74605">
        <ele>2246</ele>
        <time>2016-03-27T05:55:18Z</time>
      </trkpt>
      <trkpt lat="44.26584" lon="6.74593">
        <ele>2250</ele>
        <time>2016-03-27T05:57:18Z</time>
      </trkpt>
      <trkpt lat="44.26578" lon="6.74592">
        <ele>2250</ele>
        <time>2016-03-27T05:59:18Z</time>
      </trkpt>
      <trkpt lat="44.26571" lon="6.74591">
        <ele>2251</ele>
        <time>2016-03-27T06:01:18Z</time>
      </trkpt>
      <trkpt lat="44.26564" lon="6.74591">
        <ele>2252</ele>
        <time>2016-03-27T06:03:18Z</time>
      </trkpt>
      <trkpt lat="44.26505" lon="6.74598">
        <ele>2257</ele>
        <time>2016-03-27T06:05:18Z</time>
      </trkpt>
      <trkpt lat="44.26499" lon="6.74599">
        <ele>2258</ele>
        <time>2016-03-27T06:07:18Z</time>
      </trkpt>
      <trkpt lat="44.2646" lon="6.74611">
        <ele>2260</ele>
        <time>2016-03-27T06:09:18Z</time>
      </trkpt>
      <trkpt lat="44.26453" lon="6.74611">
        <ele>2260</ele>
        <time>2016-03-27T06:11:18Z</time>
      </trkpt>
      <trkpt lat="44.26446" lon="6.74609">
        <ele>2261</ele>
        <time>2016-03-27T06:13:18Z</time>
      </trkpt>
      <trkpt lat="44.26438" lon="6.74608">
        <ele>2262</ele>
        <time>2016-03-27T06:15:18Z</time>
      </trkpt>
      <trkpt lat="44.26431" lon="6.74607">
        <ele>2263</ele>
        <time>2016-03-27T06:17:18Z</time>
      </trkpt>
      <trkpt lat="44.26408" lon="6.74606">
        <ele>2264</ele>
        <time>2016-03-27T06:19:18Z</time>
      </trkpt>
      <trkpt lat="44.26403" lon="6.74605">
        <ele>2264</ele>
        <time>2016-03-27T06:21:18Z</time>
      </trkpt>
      <trkpt lat="44.26394" lon="6.74602">
        <ele>2264</ele>
        <time>2016-03-27T06:23:18Z</time>
      </trkpt>
      <trkpt lat="44.26382" lon="6.74596">
        <ele>2264</ele>
        <time>2016-03-27T06:25:18Z</time>
      </trkpt>
      <trkpt lat="44.26377" lon="6.74592">
        <ele>2265</ele>
        <time>2016-03-27T06:27:18Z</time>
      </trkpt>
      <trkpt lat="44.26372" lon="6.74588">
        <ele>2265</ele>
        <time>2016-03-27T06:29:18Z</time>
      </trkpt>
      <trkpt lat="44.26367" lon="6.74582">
        <ele>2265</ele>
        <time>2016-03-27T06:31:18Z</time>
      </trkpt>
      <trkpt lat="44.26363" lon="6.74576">
        <ele>2265</ele>
        <time>2016-03-27T06:33:18Z</time>
      </trkpt>
      <trkpt lat="44.2636" lon="6.7457">
        <ele>2265</ele>
        <time>2016-03-27T06:35:18Z</time>
      </trkpt>
      <trkpt lat="44.26357" lon="6.74563">
        <ele>2266</ele>
        <time>2016-03-27T06:37:18Z</time>
      </trkpt>
      <trkpt lat="44.26355" lon="6.74557">
        <ele>2266</ele>
        <time>2016-03-27T06:39:18Z</time>
      </trkpt>
      <trkpt lat="44.26355" lon="6.74551">
        <ele>2266</ele>
        <time>2016-03-27T06:41:18Z</time>
      </trkpt>
      <trkpt lat="44.26355" lon="6.74546">
        <ele>2267</ele>
        <time>2016-03-27T06:43:18Z</time>
      </trkpt>
      <trkpt lat="44.26355" lon="6.7454">
        <ele>2267</ele>
        <time>2016-03-27T06:45:18Z</time>
      </trkpt>
      <trkpt lat="44.26356" lon="6.74534">
        <ele>2267</ele>
        <time>2016-03-27T06:47:18Z</time>
      </trkpt>
      <trkpt lat="44.26358" lon="6.74529">
        <ele>2268</ele>
        <time>2016-03-27T06:49:18Z</time>
      </trkpt>
      <trkpt lat="44.2636" lon="6.74524">
        <ele>2268</ele>
        <time>2016-03-27T06:51:18Z</time>
      </trkpt>
      <trkpt lat="44.26363" lon="6.7452">
        <ele>2268</ele>
        <time>2016-03-27T06:53:18Z</time>
      </trkpt>
      <trkpt lat="44.26367" lon="6.74515">
        <ele>2269</ele>
        <time>2016-03-27T06:55:18Z</time>
      </trkpt>
      <trkpt lat="44.26375" lon="6.74508">
        <ele>2270</ele>
        <time>2016-03-27T06:57:18Z</time>
      </trkpt>
      <trkpt lat="44.26379" lon="6.74506">
        <ele>2270</ele>
        <time>2016-03-27T06:59:18Z</time>
      </trkpt>
      <trkpt lat="44.26383" lon="6.74503">
        <ele>2270</ele>
        <time>2016-03-27T07:01:18Z</time>
      </trkpt>
      <trkpt lat="44.26392" lon="6.74501">
        <ele>2271</ele>
        <time>2016-03-27T07:03:18Z</time>
      </trkpt>
      <trkpt lat="44.26397" lon="6.745">
        <ele>2271</ele>
        <time>2016-03-27T07:05:18Z</time>
      </trkpt>
      <trkpt lat="44.2642" lon="6.74502">
        <ele>2272</ele>
        <time>2016-03-27T07:07:18Z</time>
      </trkpt>
      <trkpt lat="44.26424" lon="6.74501">
        <ele>2272</ele>
        <time>2016-03-27T07:09:18Z</time>
      </trkpt>
      <trkpt lat="44.2643" lon="6.74498">
        <ele>2272</ele>
        <time>2016-03-27T07:11:18Z</time>
      </trkpt>
      <trkpt lat="44.26435" lon="6.74492">
        <ele>2273</ele>
        <time>2016-03-27T07:13:18Z</time>
      </trkpt>
      <trkpt lat="44.26437" lon="6.74489">
        <ele>2273</ele>
        <time>2016-03-27T07:15:18Z</time>
      </trkpt>
      <trkpt lat="44.26439" lon="6.74485">
        <ele>2273</ele>
        <time>2016-03-27T07:17:18Z</time>
      </trkpt>
      <trkpt lat="44.2644" lon="6.74477">
        <ele>2273</ele>
        <time>2016-03-27T07:19:18Z</time>
      </trkpt>
      <trkpt lat="44.26439" lon="6.74469">
        <ele>2274</ele>
        <time>2016-03-27T07:21:18Z</time>
      </trkpt>
      <trkpt lat="44.26438" lon="6.74465">
        <ele>2274</ele>
        <time>2016-03-27T07:23:18Z</time>
      </trkpt>
      <trkpt lat="44.26435" lon="6.74459">
        <ele>2274</ele>
        <time>2016-03-27T07:25:18Z</time>
      </trkpt>
      <trkpt lat="44.26429" lon="6.74449">
        <ele>2275</ele>
        <time>2016-03-27T07:27:18Z</time>
      </trkpt>
      <trkpt lat="44.26425" lon="6.74444">
        <ele>2275</ele>
        <time>2016-03-27T07:29:18Z</time>
      </trkpt>
      <trkpt lat="44.26414" lon="6.74433">
        <ele>2275</ele>
        <time>2016-03-27T07:31:18Z</time>
      </trkpt>
      <trkpt lat="44.26411" lon="6.74428">
        <ele>2275</ele>
        <time>2016-03-27T07:33:18Z</time>
      </trkpt>
      <trkpt lat="44.26409" lon="6.74424">
        <ele>2275</ele>
        <time>2016-03-27T07:35:18Z</time>
      </trkpt>
      <trkpt lat="44.26407" lon="6.74419">
        <ele>2275</ele>
        <time>2016-03-27T07:37:18Z</time>
      </trkpt>
      <trkpt lat="44.26406" lon="6.74414">
        <ele>2276</ele>
        <time>2016-03-27T07:39:18Z</time>
      </trkpt>
      <trkpt lat="44.26405" lon="6.74409">
        <ele>2276</ele>
        <time>2016-03-27T07:41:18Z</time>
      </trkpt>
      <trkpt lat="44.26403" lon="6.74373">
        <ele>2278</ele>
        <time>2016-03-27T07:43:18Z</time>
      </trkpt>
      <trkpt lat="44.26402" lon="6.74364">
        <ele>2279</ele>
        <time>2016-03-27T07:45:18Z</time>
      </trkpt>
      <trkpt lat="44.26401" lon="6.74356">
        <ele>2279</ele>
        <time>2016-03-27T07:47:18Z</time>
      </trkpt>
      <trkpt lat="44.26399" lon="6.74347">
        <ele>2280</ele>
        <time>2016-03-27T07:49:18Z</time>
      </trkpt>
      <trkpt lat="44.26393" lon="6.74331">
        <ele>2281</ele>
        <time>2016-03-27T07:51:18Z</time>
      </trkpt>
      <trkpt lat="44.26376" lon="6.74294">
        <ele>2285</ele>
        <time>2016-03-27T07:53:18Z</time>
      </trkpt>
      <trkpt lat="44.26373" lon="6.74286">
        <ele>2286</ele>
        <time>2016-03-27T07:55:18Z</time>
      </trkpt>
      <trkpt lat="44.26371" lon="6.74279">
        <ele>2286</ele>
        <time>2016-03-27T07:57:18Z</time>
      </trkpt>
      <trkpt lat="44.26369" lon="6.7427">
        <ele>2288</ele>
        <time>2016-03-27T07:59:18Z</time>
      </trkpt>
      <trkpt lat="44.26368" lon="6.74262">
        <ele>2289</ele>
        <time>2016-03-27T08:01:18Z</time>
      </trkpt>
      <trkpt lat="44.26367" lon="6.74254">
        <ele>2290</ele>
        <time>2016-03-27T08:03:18Z</time>
      </trkpt>
      <trkpt lat="44.26366" lon="6.74224">
        <ele>2293</ele>
        <time>2016-03-27T08:05:18Z</time>
      </trkpt>
      <trkpt lat="44.26365" lon="6.74219">
        <ele>2294</ele>
        <time>2016-03-27T08:07:18Z</time>
      </trkpt>
      <trkpt lat="44.26364" lon="6.74217">
        <ele>2294</ele>
        <time>2016-03-27T08:09:18Z</time>
      </trkpt>
      <trkpt lat="44.26361" lon="6.74214">
        <ele>2294</ele>
        <time>2016-03-27T08:11:18Z</time>
      </trkpt>
      <trkpt lat="44.26358" lon="6.74211">
        <ele>2295</ele>
        <time>2016-03-27T08:13:18Z</time>
      </trkpt>
      <trkpt lat="44.26355" lon="6.74209">
        <ele>2295</ele>
        <time>2016-03-27T08:15:18Z</time>
      </trkpt>
      <trkpt lat="44.26352" lon="6.74208">
        <ele>2295</ele>
        <time>2016-03-27T08:17:18Z</time>
      </trkpt>
      <trkpt lat="44.26348" lon="6.74208">
        <ele>2295</ele>
        <time>2016-03-27T08:19:18Z</time>
      </trkpt>
      <trkpt lat="44.26344" lon="6.74208">
        <ele>2295</ele>
        <time>2016-03-27T08:21:18Z</time>
      </trkpt>
      <trkpt lat="44.26341" lon="6.74211">
        <ele>2295</ele>
        <time>2016-03-27T08:23:18Z</time>
      </trkpt>
      <trkpt lat="44.26337" lon="6.74215">
        <ele>2294</ele>
        <time>2016-03-27T08:25:18Z</time>
      </trkpt>
      <trkpt lat="44.26334" lon="6.7422">
        <ele>2294</ele>
        <time>2016-03-27T08:27:18Z</time>
      </trkpt>
      <trkpt lat="44.26331" lon="6.74224">
        <ele>2293</ele>
        <time>2016-03-27T08:29:18Z</time>
      </trkpt>
      <trkpt lat="44.26328" lon="6.7423">
        <ele>2293</ele>
        <time>2016-03-27T08:31:18Z</time>
      </trkpt>
      <trkpt lat="44.26326" lon="6.74236">
        <ele>2293</ele>
        <time>2016-03-27T08:33:18Z</time>
      </trkpt>
      <trkpt lat="44.26324" lon="6.7424">
        <ele>2292</ele>
        <time>2016-03-27T08:35:18Z</time>
      </trkpt>
      <trkpt lat="44.26321" lon="6.74244">
        <ele>2292</ele>
        <time>2016-03-27T08:37:18Z</time>
      </trkpt>
      <trkpt lat="44.26318" lon="6.74248">
        <ele>2292</ele>
        <time>2016-03-27T08:39:18Z</time>
      </trkpt>
      <trkpt lat="44.26314" lon="6.7425">
        <ele>2292</ele>
        <time>2016-03-27T08:41:18Z</time>
      </trkpt>
      <trkpt lat="44.2631" lon="6.74252">
        <ele>2292</ele>
        <time>2016-03-27T08:43:18Z</time>
      </trkpt>
      <trkpt lat="44.26259" lon="6.74255">
        <ele>2297</ele>
        <time>2016-03-27T08:45:18Z</time>
      </trkpt>
      <trkpt lat="44.26242" lon="6.74254">
        <ele>2299</ele>
        <time>2016-03-27T08:47:18Z</time>
      </trkpt>
      <trkpt lat="44.26226" lon="6.74252">
        <ele>2301</ele>
        <time>2016-03-27T08:49:18Z</time>
      </trkpt>
      <trkpt lat="44.26183" lon="6.7424">
        <ele>2307</ele>
        <time>2016-03-27T08:51:18Z</time>
      </trkpt>
      <trkpt lat="44.26169" lon="6.7424">
        <ele>2309</ele>
        <time>2016-03-27T08:53:18Z</time>
      </trkpt>
      <trkpt lat="44.26163" lon="6.74241">
        <ele>2309</ele>
        <time>2016-03-27T08:55:18Z</time>
      </trkpt>
      <trkpt lat="44.26157" lon="6.74242">
        <ele>2310</ele>
        <time>2016-03-27T08:57:18Z</time>
      </trkpt>
      <trkpt lat="44.26144" lon="6.74246">
        <ele>2311</ele>
        <time>2016-03-27T08:59:18Z</time>
      </trkpt>
      <trkpt lat="44.26108" lon="6.74265">
        <ele>2313</ele>
        <time>2016-03-27T09:01:18Z</time>
      </trkpt>
      <trkpt lat="44.26069" lon="6.7429">
        <ele>2317</ele>
        <time>2016-03-27T09:03:18Z</time>
      </trkpt>
      <trkpt lat="44.26062" lon="6.74295">
        <ele>2318</ele>
        <time>2016-03-27T09:05:18Z</time>
      </trkpt>
      <trkpt lat="44.26055" lon="6.74301">
        <ele>2318</ele>
        <time>2016-03-27T09:07:18Z</time>
      </trkpt>
      <trkpt lat="44.26048" lon="6.74308">
        <ele>2319</ele>
        <time>2016-03-27T09:09:18Z</time>
      </trkpt>
      <trkpt lat="44.26042" lon="6.74315">
        <ele>2319</ele>
        <time>2016-03-27T09:11:18Z</time>
      </trkpt>
      <trkpt lat="44.26036" lon="6.74324">
        <ele>2319</ele>
        <time>2016-03-27T09:13:18Z</time>
      </trkpt>
      <trkpt lat="44.26031" lon="6.74332">
        <ele>2318</ele>
        <time>2016-03-27T09:15:18Z</time>
      </trkpt>
      <trkpt lat="44.26026" lon="6.74339">
        <ele>2319</ele>
        <time>2016-03-27T09:17:18Z</time>
      </trkpt>
      <trkpt lat="44.26021" lon="6.74346">
        <ele>2319</ele>
        <time>2016-03-27T09:19:18Z</time>
      </trkpt>
      <trkpt lat="44.26015" lon="6.74352">
        <ele>2320</ele>
        <time>2016-03-27T09:21:18Z</time>
      </trkpt>
      <trkpt lat="44.2601" lon="6.74357">
        <ele>2320</ele>
        <time>2016-03-27T09:23:18Z</time>
      </trkpt>
      <trkpt lat="44.26003" lon="6.74362">
        <ele>2321</ele>
        <time>2016-03-27T09:25:18Z</time>
      </trkpt>
      <trkpt lat="44.25997" lon="6.74366">
        <ele>2322</ele>
        <time>2016-03-27T09:27:18Z</time>
      </trkpt>
      <trkpt lat="44.25989" lon="6.74369">
        <ele>2323</ele>
        <time>2016-03-27T09:29:18Z</time>
      </trkpt>
      <trkpt lat="44.25983" lon="6.74371">
        <ele>2323</ele>
        <time>2016-03-27T09:31:18Z</time>
      </trkpt>
      <trkpt lat="44.25926" lon="6.74394">
        <ele>2329</ele>
        <time>2016-03-27T09:33:18Z</time>
      </trkpt>
      <trkpt lat="44.2592" lon="6.74396">
        <ele>2330</ele>
        <time>2016-03-27T09:35:18Z</time>
      </trkpt>
      <trkpt lat="44.25918" lon="6.74397">
        <ele>2330</ele>
        <time>2016-03-27T09:37:18Z</time>
      </trkpt>
      <trkpt lat="44.25918" lon="6.74397">
        <ele>2330</ele>
        <time>2016-03-27T09:39:18Z</time>
      </trkpt>
      <trkpt lat="44.25906" lon="6.74402">
        <ele>2329</ele>
        <time>2016-03-27T09:41:18Z</time>
      </trkpt>
      <trkpt lat="44.25892" lon="6.74409">
        <ele>2327</ele>
        <time>2016-03-27T09:43:18Z</time>
      </trkpt>
      <trkpt lat="44.25882" lon="6.74417">
        <ele>2325</ele>
        <time>2016-03-27T09:45:18Z</time>
      </trkpt>
      <trkpt lat="44.25869" lon="6.74429">
        <ele>2325</ele>
        <time>2016-03-27T09:47:18Z</time>
      </trkpt>
      <trkpt lat="44.25821" lon="6.74476">
        <ele>2322</ele>
        <time>2016-03-27T09:49:18Z</time>
      </trkpt>
      <trkpt lat="44.25803" lon="6.74493">
        <ele>2321</ele>
        <time>2016-03-27T09:51:18Z</time>
      </trkpt>
      <trkpt lat="44.25789" lon="6.74503">
        <ele>2320</ele>
        <time>2016-03-27T09:53:18Z</time>
      </trkpt>
      <trkpt lat="44.25781" lon="6.74508">
        <ele>2320</ele>
        <time>2016-03-27T09:55:18Z</time>
      </trkpt>
      <trkpt lat="44.2576" lon="6.74518">
        <ele>2319</ele>
        <time>2016-03-27T09:57:18Z</time>
      </trkpt>
      <trkpt lat="44.25743" lon="6.74524">
        <ele>2318</ele>
        <time>2016-03-27T09:59:18Z</time>
      </trkpt>
      <trkpt lat="44.25731" lon="6.74526">
        <ele>2317</ele>
        <time>2016-03-27T10:01:18Z</time>
      </trkpt>
      <trkpt lat="44.25721" lon="6.74525">
        <ele>2316</ele>
        <time>2016-03-27T10:03:18Z</time>
      </trkpt>
      <trkpt lat="44.2571" lon="6.74522">
        <ele>2314</ele>
        <time>2016-03-27T10:05:18Z</time>
      </trkpt>
      <trkpt lat="44.25692" lon="6.74513">
        <ele>2311</ele>
        <time>2016-03-27T10:07:18Z</time>
      </trkpt>
      <trkpt lat="44.25684" lon="6.7451">
        <ele>2309</ele>
        <time>2016-03-27T10:09:18Z</time>
      </trkpt>
      <trkpt lat="44.25675" lon="6.7451">
        <ele>2309</ele>
        <time>2016-03-27T10:11:18Z</time>
      </trkpt>
      <trkpt lat="44.25665" lon="6.74514">
        <ele>2308</ele>
        <time>2016-03-27T10:13:18Z</time>
      </trkpt>
      <trkpt lat="44.25645" lon="6.7453">
        <ele>2306</ele>
        <time>2016-03-27T10:15:18Z</time>
      </trkpt>
      <trkpt lat="44.25617" lon="6.74555">
        <ele>2302</ele>
        <time>2016-03-27T10:17:18Z</time>
      </trkpt>
      <trkpt lat="44.25604" lon="6.74565">
        <ele>2299</ele>
        <time>2016-03-27T10:19:18Z</time>
      </trkpt>
      <trkpt lat="44.25595" lon="6.7457">
        <ele>2297</ele>
        <time>2016-03-27T10:21:18Z</time>
      </trkpt>
      <trkpt lat="44.25586" lon="6.74572">
        <ele>2295</ele>
        <time>2016-03-27T10:23:18Z</time>
      </trkpt>
      <trkpt lat="44.25575" lon="6.7457">
        <ele>2293</ele>
        <time>2016-03-27T10:25:18Z</time>
      </trkpt>
      <trkpt lat="44.25558" lon="6.74563">
        <ele>2292</ele>
        <time>2016-03-27T10:27:18Z</time>
      </trkpt>
      <trkpt lat="44.25531" lon="6.74546">
        <ele>2292</ele>
        <time>2016-03-27T10:29:18Z</time>
      </trkpt>
      <trkpt lat="44.25519" lon="6.74536">
        <ele>2292</ele>
        <time>2016-03-27T10:31:18Z</time>
      </trkpt>
      <trkpt lat="44.25511" lon="6.74527">
        <ele>2294</ele>
        <time>2016-03-27T10:33:18Z</time>
      </trkpt>
      <trkpt lat="44.25505" lon="6.74519">
        <ele>2295</ele>
        <time>2016-03-27T10:35:18Z</time>
      </trkpt>
      <trkpt lat="44.25498" lon="6.74502">
        <ele>2298</ele>
        <time>2016-03-27T10:37:18Z</time>
      </trkpt>
      <trkpt lat="44.25493" lon="6.74493">
        <ele>2300</ele>
        <time>2016-03-27T10:39:18Z</time>
      </trkpt>
      <trkpt lat="44.2549" lon="6.74489">
        <ele>2301</ele>
        <time>2016-03-27T10:41:18Z</time>
      </trkpt>
      <trkpt lat="44.25487" lon="6.74488">
        <ele>2301</ele>
        <time>2016-03-27T10:43:18Z</time>
      </trkpt>
      <trkpt lat="44.25483" lon="6.74487">
        <ele>2301</ele>
        <time>2016-03-27T10:45:18Z</time>
      </trkpt>
      <trkpt lat="44.2548" lon="6.74487">
        <ele>2301</ele>
        <time>2016-03-27T10:47:18Z</time>
      </trkpt>
      <trkpt lat="44.25477" lon="6.74489">
        <ele>2300</ele>
        <time>2016-03-27T10:49:18Z</time>
      </trkpt>
      <trkpt lat="44.25473" lon="6.74493">
        <ele>2299</ele>
        <time>2016-03-27T10:51:18Z</time>
      </trkpt>
      <trkpt lat="44.25471" lon="6.74496">
        <ele>2298</ele>
        <time>2016-03-27T10:53:18Z</time>
      </trkpt>
      <trkpt lat="44.25471" lon="6.745">
        <ele>2296</ele>
        <time>2016-03-27T10:55:18Z</time>
      </trkpt>
      <trkpt lat="44.25472" lon="6.74509">
        <ele>2294</ele>
        <time>2016-03-27T10:57:18Z</time>
      </trkpt>
      <trkpt lat="44.25476" lon="6.74516">
        <ele>2293</ele>
        <time>2016-03-27T10:59:18Z</time>
      </trkpt>
      <trkpt lat="44.25484" lon="6.74526">
        <ele>2291</ele>
        <time>2016-03-27T11:01:18Z</time>
      </trkpt>
      <trkpt lat="44.25491" lon="6.74534">
        <ele>2290</ele>
        <time>2016-03-27T11:03:18Z</time>
      </trkpt>
      <trkpt lat="44.25511" lon="6.74555">
        <ele>2288</ele>
        <time>2016-03-27T11:05:18Z</time>
      </trkpt>
      <trkpt lat="44.25533" lon="6.74581">
        <ele>2286</ele>
        <time>2016-03-27T11:07:18Z</time>
      </trkpt>
      <trkpt lat="44.25543" lon="6.74591">
        <ele>2286</ele>
        <time>2016-03-27T11:09:18Z</time>
      </trkpt>
      <trkpt lat="44.25546" lon="6.74597">
        <ele>2285</ele>
        <time>2016-03-27T11:11:18Z</time>
      </trkpt>
      <trkpt lat="44.2555" lon="6.74607">
        <ele>2285</ele>
        <time>2016-03-27T11:13:18Z</time>
      </trkpt>
      <trkpt lat="44.25553" lon="6.74615">
        <ele>2285</ele>
        <time>2016-03-27T11:15:18Z</time>
      </trkpt>
      <trkpt lat="44.25557" lon="6.74633">
        <ele>2283</ele>
        <time>2016-03-27T11:17:18Z</time>
      </trkpt>
      <trkpt lat="44.25558" lon="6.74645">
        <ele>2282</ele>
        <time>2016-03-27T11:19:18Z</time>
      </trkpt>
      <trkpt lat="44.25558" lon="6.74657">
        <ele>2281</ele>
        <time>2016-03-27T11:21:18Z</time>
      </trkpt>
      <trkpt lat="44.25551" lon="6.74698">
        <ele>2277</ele>
        <time>2016-03-27T11:23:18Z</time>
      </trkpt>
      <trkpt lat="44.25548" lon="6.74716">
        <ele>2275</ele>
        <time>2016-03-27T11:25:18Z</time>
      </trkpt>
      <trkpt lat="44.25547" lon="6.74732">
        <ele>2274</ele>
        <time>2016-03-27T11:27:18Z</time>
      </trkpt>
      <trkpt lat="44.25548" lon="6.74749">
        <ele>2273</ele>
        <time>2016-03-27T11:29:18Z</time>
      </trkpt>
      <trkpt lat="44.25554" lon="6.74791">
        <ele>2270</ele>
        <time>2016-03-27T11:31:18Z</time>
      </trkpt>
      <trkpt lat="44.2556" lon="6.74835">
        <ele>2266</ele>
        <time>2016-03-27T11:33:18Z</time>
      </trkpt>
      <trkpt lat="44.2556" lon="6.74851">
        <ele>2264</ele>
        <time>2016-03-27T11:35:18Z</time>
      </trkpt>
      <trkpt lat="44.2556" lon="6.74864">
        <ele>2262</ele>
        <time>2016-03-27T11:37:18Z</time>
      </trkpt>
      <trkpt lat="44.25558" lon="6.74886">
        <ele>2259</ele>
        <time>2016-03-27T11:39:18Z</time>
      </trkpt>
      <trkpt lat="44.25552" lon="6.74926">
        <ele>2251</ele>
        <time>2016-03-27T11:41:18Z</time>
      </trkpt>
      <trkpt lat="44.25549" lon="6.74956">
        <ele>2247</ele>
        <time>2016-03-27T11:43:18Z</time>
      </trkpt>
      <trkpt lat="44.2555" lon="6.74966">
        <ele>2247</ele>
        <time>2016-03-27T11:45:18Z</time>
      </trkpt>
      <trkpt lat="44.25552" lon="6.74978">
        <ele>2247</ele>
        <time>2016-03-27T11:47:18Z</time>
      </trkpt>
      <trkpt lat="44.2556" lon="6.75">
        <ele>2251</ele>
        <time>2016-03-27T11:49:18Z</time>
      </trkpt>
      <trkpt lat="44.25567" lon="6.75021">
        <ele>2251</ele>
        <time>2016-03-27T11:51:18Z</time>
      </trkpt>
      <trkpt lat="44.25569" lon="6.75035">
        <ele>2250</ele>
        <time>2016-03-27T11:53:18Z</time>
      </trkpt>
      <trkpt lat="44.2557" lon="6.75047">
        <ele>2248</ele>
        <time>2016-03-27T11:55:18Z</time>
      </trkpt>
      <trkpt lat="44.25568" lon="6.75059">
        <ele>2244</ele>
        <time>2016-03-27T11:57:18Z</time>
      </trkpt>
      <trkpt lat="44.25566" lon="6.75064">
        <ele>2242</ele>
        <time>2016-03-27T11:59:18Z</time>
      </trkpt>
      <trkpt lat="44.2556" lon="6.75084">
        <ele>2235</ele>
        <time>2016-03-27T12:01:18Z</time>
      </trkpt>
      <trkpt lat="44.25559" lon="6.75086">
        <ele>2235</ele>
        <time>2016-03-27T12:03:18Z</time>
      </trkpt>
      <trkpt lat="44.25555" lon="6.751">
        <ele>2231</ele>
        <time>2016-03-27T12:05:18Z</time>
      </trkpt>
      <trkpt lat="44.25555" lon="6.7511">
        <ele>2230</ele>
        <time>2016-03-27T12:07:18Z</time>
      </trkpt>
      <trkpt lat="44.25555" lon="6.75121">
        <ele>2229</ele>
        <time>2016-03-27T12:09:18Z</time>
      </trkpt>
      <trkpt lat="44.25558" lon="6.7513">
        <ele>2230</ele>
        <time>2016-03-27T12:11:18Z</time>
      </trkpt>
      <trkpt lat="44.25562" lon="6.75139">
        <ele>2231</ele>
        <time>2016-03-27T12:13:18Z</time>
      </trkpt>
      <trkpt lat="44.25567" lon="6.75145">
        <ele>2233</ele>
        <time>2016-03-27T12:15:18Z</time>
      </trkpt>
      <trkpt lat="44.25583" lon="6.75155">
        <ele>2240</ele>
        <time>2016-03-27T12:17:18Z</time>
      </trkpt>
      <trkpt lat="44.25591" lon="6.75159">
        <ele>2242</ele>
        <time>2016-03-27T12:19:18Z</time>
      </trkpt>
      <trkpt lat="44.25595" lon="6.75164">
        <ele>2242</ele>
        <time>2016-03-27T12:21:18Z</time>
      </trkpt>
      <trkpt lat="44.25597" lon="6.75166">
        <ele>2243</ele>
        <time>2016-03-27T12:23:18Z</time>
      </trkpt>
      <trkpt lat="44.25598" lon="6.7517">
        <ele>2243</ele>
        <time>2016-03-27T12:25:18Z</time>
      </trkpt>
      <trkpt lat="44.25597" lon="6.75176">
        <ele>2243</ele>
        <time>2016-03-27T12:27:18Z</time>
      </trkpt>
      <trkpt lat="44.25594" lon="6.75181">
        <ele>2242</ele>
        <time>2016-03-27T12:29:18Z</time>
      </trkpt>
      <trkpt lat="44.25591" lon="6.75183">
        <ele>2241</ele>
        <time>2016-03-27T12:31:18Z</time>
      </trkpt>
      <trkpt lat="44.25588" lon="6.75183">
        <ele>2240</ele>
        <time>2016-03-27T12:33:18Z</time>
      </trkpt>
      <trkpt lat="44.25583" lon="6.75182">
        <ele>2239</ele>
        <time>2016-03-27T12:35:18Z</time>
      </trkpt>
      <trkpt lat="44.25579" lon="6.7518">
        <ele>2237</ele>
        <time>2016-03-27T12:37:18Z</time>
      </trkpt>
      <trkpt lat="44.25569" lon="6.75169">
        <ele>2232</ele>
        <time>2016-03-27T12:39:18Z</time>
      </trkpt>
      <trkpt lat="44.25558" lon="6.75155">
        <ele>2227</ele>
        <time>2016-03-27T12:41:18Z</time>
      </trkpt>
      <trkpt lat="44.25552" lon="6.75145">
        <ele>2225</ele>
        <time>2016-03-27T12:43:18Z</time>
      </trkpt>
      <trkpt lat="44.25548" lon="6.75136">
        <ele>2224</ele>
        <time>2016-03-27T12:45:18Z</time>
      </trkpt>
      <trkpt lat="44.25546" lon="6.75129">
        <ele>2224</ele>
        <time>2016-03-27T12:47:18Z</time>
      </trkpt>
      <trkpt lat="44.25544" lon="6.75117">
        <ele>2224</ele>
        <time>2016-03-27T12:49:18Z</time>
      </trkpt>
      <trkpt lat="44.25544" lon="6.75104">
        <ele>2225</ele>
        <time>2016-03-27T12:51:18Z</time>
      </trkpt>
      <trkpt lat="44.25544" lon="6.75093">
        <ele>2226</ele>
        <time>2016-03-27T12:53:18Z</time>
      </trkpt>
      <trkpt lat="44.25542" lon="6.7508">
        <ele>2226</ele>
        <time>2016-03-27T12:55:18Z</time>
      </trkpt>
      <trkpt lat="44.25542" lon="6.75077">
        <ele>2227</ele>
        <time>2016-03-27T12:57:18Z</time>
      </trkpt>
      <trkpt lat="44.2554" lon="6.75071">
        <ele>2227</ele>
        <time>2016-03-27T12:59:18Z</time>
      </trkpt>
      <trkpt lat="44.25539" lon="6.75069">
        <ele>2226</ele>
        <time>2016-03-27T13:01:18Z</time>
      </trkpt>
      <trkpt lat="44.2553" lon="6.75046">
        <ele>2225</ele>
        <time>2016-03-27T13:03:18Z</time>
      </trkpt>
      <trkpt lat="44.25524" lon="6.75029">
        <ele>2224</ele>
        <time>2016-03-27T13:05:18Z</time>
      </trkpt>
      <trkpt lat="44.25519" lon="6.75009">
        <ele>2224</ele>
        <time>2016-03-27T13:07:18Z</time>
      </trkpt>
      <trkpt lat="44.25511" lon="6.74962">
        <ele>2225</ele>
        <time>2016-03-27T13:09:18Z</time>
      </trkpt>
      <trkpt lat="44.25504" lon="6.74912">
        <ele>2227</ele>
        <time>2016-03-27T13:11:18Z</time>
      </trkpt>
      <trkpt lat="44.255" lon="6.74887">
        <ele>2228</ele>
        <time>2016-03-27T13:13:18Z</time>
      </trkpt>
      <trkpt lat="44.25496" lon="6.74873">
        <ele>2228</ele>
        <time>2016-03-27T13:15:18Z</time>
      </trkpt>
      <trkpt lat="44.2549" lon="6.74861">
        <ele>2227</ele>
        <time>2016-03-27T13:17:18Z</time>
      </trkpt>
      <trkpt lat="44.25467" lon="6.74821">
        <ele>2223</ele>
        <time>2016-03-27T13:19:18Z</time>
      </trkpt>
      <trkpt lat="44.25459" lon="6.74809">
        <ele>2222</ele>
        <time>2016-03-27T13:21:18Z</time>
      </trkpt>
      <trkpt lat="44.2545" lon="6.74794">
        <ele>2220</ele>
        <time>2016-03-27T13:23:18Z</time>
      </trkpt>
      <trkpt lat="44.25432" lon="6.74764">
        <ele>2218</ele>
        <time>2016-03-27T13:25:18Z</time>
      </trkpt>
      <trkpt lat="44.25421" lon="6.74751">
        <ele>2215</ele>
        <time>2016-03-27T13:27:18Z</time>
      </trkpt>
      <trkpt lat="44.25413" lon="6.74745">
        <ele>2215</ele>
        <time>2016-03-27T13:29:18Z</time>
      </trkpt>
      <trkpt lat="44.25403" lon="6.74741">
        <ele>2215</ele>
        <time>2016-03-27T13:31:18Z</time>
      </trkpt>
      <trkpt lat="44.25394" lon="6.7474">
        <ele>2214</ele>
        <time>2016-03-27T13:33:18Z</time>
      </trkpt>
      <trkpt lat="44.25385" lon="6.74742">
        <ele>2212</ele>
        <time>2016-03-27T13:35:18Z</time>
      </trkpt>
      <trkpt lat="44.25372" lon="6.74749">
        <ele>2207</ele>
        <time>2016-03-27T13:37:18Z</time>
      </trkpt>
      <trkpt lat="44.25353" lon="6.74761">
        <ele>2201</ele>
        <time>2016-03-27T13:39:18Z</time>
      </trkpt>
      <trkpt lat="44.25344" lon="6.74766">
        <ele>2198</ele>
        <time>2016-03-27T13:41:18Z</time>
      </trkpt>
      <trkpt lat="44.25343" lon="6.74767">
        <ele>2198</ele>
        <time>2016-03-27T13:43:18Z</time>
      </trkpt>
      <trkpt lat="44.25339" lon="6.74774">
        <ele>2195</ele>
        <time>2016-03-27T13:45:18Z</time>
      </trkpt>
      <trkpt lat="44.25337" lon="6.74777">
        <ele>2194</ele>
        <time>2016-03-27T13:47:18Z</time>
      </trkpt>
      <trkpt lat="44.25337" lon="6.74781">
        <ele>2193</ele>
        <time>2016-03-27T13:49:18Z</time>
      </trkpt>
      <trkpt lat="44.25337" lon="6.74784">
        <ele>2192</ele>
        <time>2016-03-27T13:51:18Z</time>
      </trkpt>
      <trkpt lat="44.25337" lon="6.74791">
        <ele>2190</ele>
        <time>2016-03-27T13:53:18Z</time>
      </trkpt>
      <trkpt lat="44.25338" lon="6.74793">
        <ele>2190</ele>
        <time>2016-03-27T13:55:18Z</time>
      </trkpt>
      <trkpt lat="44.25341" lon="6.74798">
        <ele>2189</ele>
        <time>2016-03-27T13:57:18Z</time>
      </trkpt>
      <trkpt lat="44.25342" lon="6.74799">
        <ele>2189</ele>
        <time>2016-03-27T13:59:18Z</time>
      </trkpt>
      <trkpt lat="44.25345" lon="6.74801">
        <ele>2189</ele>
        <time>2016-03-27T14:01:18Z</time>
      </trkpt>
      <trkpt lat="44.25348" lon="6.74802">
        <ele>2189</ele>
        <time>2016-03-27T14:03:18Z</time>
      </trkpt>
      <trkpt lat="44.25351" lon="6.74802">
        <ele>2190</ele>
        <time>2016-03-27T14:05:18Z</time>
      </trkpt>
      <trkpt lat="44.25365" lon="6.74796">
        <ele>2194</ele>
        <time>2016-03-27T14:07:18Z</time>
      </trkpt>
      <trkpt lat="44.2538" lon="6.74788">
        <ele>2199</ele>
        <time>2016-03-27T14:09:18Z</time>
      </trkpt>
      <trkpt lat="44.25393" lon="6.74786">
        <ele>2202</ele>
        <time>2016-03-27T14:11:18Z</time>
      </trkpt>
      <trkpt lat="44.25397" lon="6.74786">
        <ele>2203</ele>
        <time>2016-03-27T14:13:18Z</time>
      </trkpt>
      <trkpt lat="44.25401" lon="6.74788">
        <ele>2203</ele>
        <time>2016-03-27T14:15:18Z</time>
      </trkpt>
      <trkpt lat="44.25408" lon="6.74794">
        <ele>2203</ele>
        <time>2016-03-27T14:17:18Z</time>
      </trkpt>
      <trkpt lat="44.25414" lon="6.748">
        <ele>2203</ele>
        <time>2016-03-27T14:19:18Z</time>
      </trkpt>
      <trkpt lat="44.25419" lon="6.74807">
        <ele>2204</ele>
        <time>2016-03-27T14:21:18Z</time>
      </trkpt>
      <trkpt lat="44.25427" lon="6.74826">
        <ele>2204</ele>
        <time>2016-03-27T14:23:18Z</time>
      </trkpt>
      <trkpt lat="44.25438" lon="6.74857">
        <ele>2203</ele>
        <time>2016-03-27T14:25:18Z</time>
      </trkpt>
      <trkpt lat="44.25447" lon="6.7488">
        <ele>2204</ele>
        <time>2016-03-27T14:27:18Z</time>
      </trkpt>
      <trkpt lat="44.25451" lon="6.74894">
        <ele>2203</ele>
        <time>2016-03-27T14:29:18Z</time>
      </trkpt>
      <trkpt lat="44.25453" lon="6.74907">
        <ele>2202</ele>
        <time>2016-03-27T14:31:18Z</time>
      </trkpt>
      <trkpt lat="44.25454" lon="6.74917">
        <ele>2201</ele>
        <time>2016-03-27T14:33:18Z</time>
      </trkpt>
      <trkpt lat="44.25453" lon="6.74938">
        <ele>2197</ele>
        <time>2016-03-27T14:35:18Z</time>
      </trkpt>
      <trkpt lat="44.25451" lon="6.74964">
        <ele>2191</ele>
        <time>2016-03-27T14:37:18Z</time>
      </trkpt>
      <trkpt lat="44.2545" lon="6.74982">
        <ele>2188</ele>
        <time>2016-03-27T14:39:18Z</time>
      </trkpt>
      <trkpt lat="44.25452" lon="6.75001">
        <ele>2186</ele>
        <time>2016-03-27T14:41:18Z</time>
      </trkpt>
      <trkpt lat="44.25455" lon="6.75018">
        <ele>2184</ele>
        <time>2016-03-27T14:43:18Z</time>
      </trkpt>
      <trkpt lat="44.25466" lon="6.7506">
        <ele>2184</ele>
        <time>2016-03-27T14:45:18Z</time>
      </trkpt>
      <trkpt lat="44.2547" lon="6.75074">
        <ele>2184</ele>
        <time>2016-03-27T14:47:18Z</time>
      </trkpt>
      <trkpt lat="44.25476" lon="6.75108">
        <ele>2186</ele>
        <time>2016-03-27T14:49:18Z</time>
      </trkpt>
      <trkpt lat="44.25477" lon="6.75115">
        <ele>2186</ele>
        <time>2016-03-27T14:51:18Z</time>
      </trkpt>
      <trkpt lat="44.25481" lon="6.75143">
        <ele>2188</ele>
        <time>2016-03-27T14:53:18Z</time>
      </trkpt>
      <trkpt lat="44.25482" lon="6.75155">
        <ele>2188</ele>
        <time>2016-03-27T14:55:18Z</time>
      </trkpt>
      <trkpt lat="44.25481" lon="6.75163">
        <ele>2187</ele>
        <time>2016-03-27T14:57:18Z</time>
      </trkpt>
      <trkpt lat="44.25477" lon="6.75175">
        <ele>2185</ele>
        <time>2016-03-27T14:59:18Z</time>
      </trkpt>
      <trkpt lat="44.25465" lon="6.75198">
        <ele>2180</ele>
        <time>2016-03-27T15:01:18Z</time>
      </trkpt>
      <trkpt lat="44.25452" lon="6.75222">
        <ele>2175</ele>
        <time>2016-03-27T15:03:18Z</time>
      </trkpt>
      <trkpt lat="44.25443" lon="6.75232">
        <ele>2172</ele>
        <time>2016-03-27T15:05:18Z</time>
      </trkpt>
      <trkpt lat="44.25426" lon="6.75249">
        <ele>2167</ele>
        <time>2016-03-27T15:07:18Z</time>
      </trkpt>
      <trkpt lat="44.25415" lon="6.75262">
        <ele>2163</ele>
        <time>2016-03-27T15:09:18Z</time>
      </trkpt>
      <trkpt lat="44.2541" lon="6.7527">
        <ele>2162</ele>
        <time>2016-03-27T15:11:18Z</time>
      </trkpt>
      <trkpt lat="44.25391" lon="6.75306">
        <ele>2156</ele>
        <time>2016-03-27T15:13:18Z</time>
      </trkpt>
      <trkpt lat="44.25385" lon="6.75321">
        <ele>2155</ele>
        <time>2016-03-27T15:15:18Z</time>
      </trkpt>
      <trkpt lat="44.25383" lon="6.75333">
        <ele>2155</ele>
        <time>2016-03-27T15:17:18Z</time>
      </trkpt>
      <trkpt lat="44.25383" lon="6.75343">
        <ele>2154</ele>
        <time>2016-03-27T15:19:18Z</time>
      </trkpt>
      <trkpt lat="44.25386" lon="6.75367">
        <ele>2153</ele>
        <time>2016-03-27T15:21:18Z</time>
      </trkpt>
      <trkpt lat="44.25389" lon="6.75392">
        <ele>2152</ele>
        <time>2016-03-27T15:23:18Z</time>
      </trkpt>
      <trkpt lat="44.25389" lon="6.75409">
        <ele>2150</ele>
        <time>2016-03-27T15:25:18Z</time>
      </trkpt>
      <trkpt lat="44.2539" lon="6.75427">
        <ele>2150</ele>
        <time>2016-03-27T15:27:18Z</time>
      </trkpt>
      <trkpt lat="44.25389" lon="6.75436">
        <ele>2150</ele>
        <time>2016-03-27T15:29:18Z</time>
      </trkpt>
      <trkpt lat="44.25386" lon="6.75443">
        <ele>2149</ele>
        <time>2016-03-27T15:31:18Z</time>
      </trkpt>
      <trkpt lat="44.25382" lon="6.75446">
        <ele>2147</ele>
        <time>2016-03-27T15:33:18Z</time>
      </trkpt>
      <trkpt lat="44.25378" lon="6.75445">
        <ele>2146</ele>
        <time>2016-03-27T15:35:18Z</time>
      </trkpt>
      <trkpt lat="44.25374" lon="6.7544">
        <ele>2144</ele>
        <time>2016-03-27T15:37:18Z</time>
      </trkpt>
      <trkpt lat="44.25373" lon="6.7543">
        <ele>2144</ele>
        <time>2016-03-27T15:39:18Z</time>
      </trkpt>
      <trkpt lat="44.25375" lon="6.75394">
        <ele>2146</ele>
        <time>2016-03-27T15:41:18Z</time>
      </trkpt>
      <trkpt lat="44.25374" lon="6.75382">
        <ele>2147</ele>
        <time>2016-03-27T15:43:18Z</time>
      </trkpt>
      <trkpt lat="44.25371" lon="6.75372">
        <ele>2146</ele>
        <time>2016-03-27T15:45:18Z</time>
      </trkpt>
      <trkpt lat="44.25364" lon="6.75355">
        <ele>2145</ele>
        <time>2016-03-27T15:47:18Z</time>
      </trkpt>
      <trkpt lat="44.2536" lon="6.75343">
        <ele>2144</ele>
        <time>2016-03-27T15:49:18Z</time>
      </trkpt>
      <trkpt lat="44.25358" lon="6.75333">
        <ele>2144</ele>
        <time>2016-03-27T15:51:18Z</time>
      </trkpt>
      <trkpt lat="44.25356" lon="6.7529">
        <ele>2141</ele>
        <time>2016-03-27T15:53:18Z</time>
      </trkpt>
      <trkpt lat="44.25352" lon="6.7524">
        <ele>2136</ele>
        <time>2016-03-27T15:55:18Z</time>
      </trkpt>
      <trkpt lat="44.25349" lon="6.75191">
        <ele>2128</ele>
        <time>2016-03-27T15:57:18Z</time>
      </trkpt>
      <trkpt lat="44.25349" lon="6.75178">
        <ele>2127</ele>
        <time>2016-03-27T15:59:18Z</time>
      </trkpt>
      <trkpt lat="44.2535" lon="6.75169">
        <ele>2126</ele>
        <time>2016-03-27T16:01:18Z</time>
      </trkpt>
      <trkpt lat="44.25352" lon="6.7516">
        <ele>2126</ele>
        <time>2016-03-27T16:03:18Z</time>
      </trkpt>
      <trkpt lat="44.25371" lon="6.75121">
        <ele>2131</ele>
        <time>2016-03-27T16:05:18Z</time>
      </trkpt>
      <trkpt lat="44.25373" lon="6.75117">
        <ele>2132</ele>
        <time>2016-03-27T16:07:18Z</time>
      </trkpt>
      <trkpt lat="44.25374" lon="6.75114">
        <ele>2132</ele>
        <time>2016-03-27T16:09:18Z</time>
      </trkpt>
      <trkpt lat="44.25381" lon="6.751">
        <ele>2134</ele>
        <time>2016-03-27T16:11:18Z</time>
      </trkpt>
      <trkpt lat="44.25384" lon="6.75084">
        <ele>2134</ele>
        <time>2016-03-27T16:13:18Z</time>
      </trkpt>
      <trkpt lat="44.25385" lon="6.75063">
        <ele>2137</ele>
        <time>2016-03-27T16:15:18Z</time>
      </trkpt>
      <trkpt lat="44.25382" lon="6.75045">
        <ele>2138</ele>
        <time>2016-03-27T16:17:18Z</time>
      </trkpt>
      <trkpt lat="44.25378" lon="6.7503">
        <ele>2138</ele>
        <time>2016-03-27T16:19:18Z</time>
      </trkpt>
      <trkpt lat="44.25373" lon="6.7502">
        <ele>2137</ele>
        <time>2016-03-27T16:21:18Z</time>
      </trkpt>
      <trkpt lat="44.25366" lon="6.75012">
        <ele>2134</ele>
        <time>2016-03-27T16:23:18Z</time>
      </trkpt>
      <trkpt lat="44.25358" lon="6.75009">
        <ele>2130</ele>
        <time>2016-03-27T16:25:18Z</time>
      </trkpt>
      <trkpt lat="44.25344" lon="6.75007">
        <ele>2122</ele>
        <time>2016-03-27T16:27:18Z</time>
      </trkpt>
      <trkpt lat="44.25334" lon="6.75005">
        <ele>2116</ele>
        <time>2016-03-27T16:29:18Z</time>
      </trkpt>
      <trkpt lat="44.25325" lon="6.75">
        <ele>2112</ele>
        <time>2016-03-27T16:31:18Z</time>
      </trkpt>
      <trkpt lat="44.25316" lon="6.74993">
        <ele>2110</ele>
        <time>2016-03-27T16:33:18Z</time>
      </trkpt>
      <trkpt lat="44.25311" lon="6.74992">
        <ele>2108</ele>
        <time>2016-03-27T16:35:18Z</time>
      </trkpt>
      <trkpt lat="44.25307" lon="6.74996">
        <ele>2105</ele>
        <time>2016-03-27T16:37:18Z</time>
      </trkpt>
      <trkpt lat="44.25305" lon="6.75001">
        <ele>2103</ele>
        <time>2016-03-27T16:39:18Z</time>
      </trkpt>
      <trkpt lat="44.25305" lon="6.7501">
        <ele>2103</ele>
        <time>2016-03-27T16:41:18Z</time>
      </trkpt>
      <trkpt lat="44.25308" lon="6.75016">
        <ele>2104</ele>
        <time>2016-03-27T16:43:18Z</time>
      </trkpt>
      <trkpt lat="44.25338" lon="6.75048">
        <ele>2118</ele>
        <time>2016-03-27T16:45:18Z</time>
      </trkpt>
      <trkpt lat="44.25342" lon="6.75056">
        <ele>2119</ele>
        <time>2016-03-27T16:47:18Z</time>
      </trkpt>
      <trkpt lat="44.25345" lon="6.75066">
        <ele>2120</ele>
        <time>2016-03-27T16:49:18Z</time>
      </trkpt>
      <trkpt lat="44.25346" lon="6.75078">
        <ele>2120</ele>
        <time>2016-03-27T16:51:18Z</time>
      </trkpt>
      <trkpt lat="44.25345" lon="6.75095">
        <ele>2120</ele>
        <time>2016-03-27T16:53:18Z</time>
      </trkpt>
      <trkpt lat="44.25343" lon="6.75103">
        <ele>2120</ele>
        <time>2016-03-27T16:55:18Z</time>
      </trkpt>
      <trkpt lat="44.25343" lon="6.75105">
        <ele>2120</ele>
        <time>2016-03-27T16:57:18Z</time>
      </trkpt>
      <trkpt lat="44.25342" lon="6.75108">
        <ele>2119</ele>
        <time>2016-03-27T16:59:18Z</time>
      </trkpt>
      <trkpt lat="44.2534" lon="6.75114">
        <ele>2119</ele>
        <time>2016-03-27T17:01:18Z</time>
      </trkpt>
      <trkpt lat="44.2534" lon="6.75116">
        <ele>2119</ele>
        <time>2016-03-27T17:03:18Z</time>
      </trkpt>
      <trkpt lat="44.25336" lon="6.75125">
        <ele>2118</ele>
        <time>2016-03-27T17:05:18Z</time>
      </trkpt>
      <trkpt lat="44.25327" lon="6.75137">
        <ele>2115</ele>
        <time>2016-03-27T17:07:18Z</time>
      </trkpt>
      <trkpt lat="44.25288" lon="6.75181">
        <ele>2102</ele>
        <time>2016-03-27T17:09:18Z</time>
      </trkpt>
      <trkpt lat="44.25276" lon="6.75196">
        <ele>2100</ele>
        <time>2016-03-27T17:11:18Z</time>
      </trkpt>
      <trkpt lat="44.2527" lon="6.75206">
        <ele>2099</ele>
        <time>2016-03-27T17:13:18Z</time>
      </trkpt>
      <trkpt lat="44.2525" lon="6.75249">
        <ele>2097</ele>
        <time>2016-03-27T17:15:18Z</time>
      </trkpt>
      <trkpt lat="44.25234" lon="6.75285">
        <ele>2089</ele>
        <time>2016-03-27T17:17:18Z</time>
      </trkpt>
      <trkpt lat="44.25231" lon="6.75297">
        <ele>2088</ele>
        <time>2016-03-27T17:19:18Z</time>
      </trkpt>
      <trkpt lat="44.2523" lon="6.75308">
        <ele>2087</ele>
        <time>2016-03-27T17:21:18Z</time>
      </trkpt>
      <trkpt lat="44.2523" lon="6.7532">
        <ele>2087</ele>
        <time>2016-03-27T17:23:18Z</time>
      </trkpt>
      <trkpt lat="44.25233" lon="6.75331">
        <ele>2088</ele>
        <time>2016-03-27T17:25:18Z</time>
      </trkpt>
      <trkpt lat="44.25236" lon="6.75339">
        <ele>2089</ele>
        <time>2016-03-27T17:27:18Z</time>
      </trkpt>
      <trkpt lat="44.25247" lon="6.75361">
        <ele>2092</ele>
        <time>2016-03-27T17:29:18Z</time>
      </trkpt>
      <trkpt lat="44.25252" lon="6.75373">
        <ele>2093</ele>
        <time>2016-03-27T17:31:18Z</time>
      </trkpt>
      <trkpt lat="44.25254" lon="6.75384">
        <ele>2093</ele>
        <time>2016-03-27T17:33:18Z</time>
      </trkpt>
      <trkpt lat="44.25254" lon="6.75395">
        <ele>2092</ele>
        <time>2016-03-27T17:35:18Z</time>
      </trkpt>
      <trkpt lat="44.25251" lon="6.7541">
        <ele>2089</ele>
        <time>2016-03-27T17:37:18Z</time>
      </trkpt>
      <trkpt lat="44.25244" lon="6.75426">
        <ele>2088</ele>
        <time>2016-03-27T17:39:18Z</time>
      </trkpt>
      <trkpt lat="44.25239" lon="6.75436">
        <ele>2088</ele>
        <time>2016-03-27T17:41:18Z</time>
      </trkpt>
      <trkpt lat="44.25236" lon="6.75441">
        <ele>2088</ele>
        <time>2016-03-27T17:43:18Z</time>
      </trkpt>
      <trkpt lat="44.25234" lon="6.75446">
        <ele>2088</ele>
        <time>2016-03-27T17:45:18Z</time>
      </trkpt>
      <trkpt lat="44.25229" lon="6.75452">
        <ele>2088</ele>
        <time>2016-03-27T17:47:18Z</time>
      </trkpt>
      <trkpt lat="44.25223" lon="6.75456">
        <ele>2086</ele>
        <time>2016-03-27T17:49:18Z</time>
      </trkpt>
      <trkpt lat="44.25211" lon="6.75459">
        <ele>2082</ele>
        <time>2016-03-27T17:51:18Z</time>
      </trkpt>
      <trkpt lat="44.25197" lon="6.75462">
        <ele>2077</ele>
        <time>2016-03-27T17:53:18Z</time>
      </trkpt>
      <trkpt lat="44.2519" lon="6.75467">
        <ele>2075</ele>
        <time>2016-03-27T17:55:18Z</time>
      </trkpt>
      <trkpt lat="44.25184" lon="6.75475">
        <ele>2074</ele>
        <time>2016-03-27T17:57:18Z</time>
      </trkpt>
      <trkpt lat="44.25176" lon="6.75498">
        <ele>2075</ele>
        <time>2016-03-27T17:59:18Z</time>
      </trkpt>
      <trkpt lat="44.25169" lon="6.75511">
        <ele>2075</ele>
        <time>2016-03-27T18:01:18Z</time>
      </trkpt>
      <trkpt lat="44.25153" lon="6.75536">
        <ele>2076</ele>
        <time>2016-03-27T18:03:18Z</time>
      </trkpt>
      <trkpt lat="44.25139" lon="6.75553">
        <ele>2076</ele>
        <time>2016-03-27T18:05:18Z</time>
      </trkpt>
      <trkpt lat="44.25128" lon="6.75564">
        <ele>2075</ele>
        <time>2016-03-27T18:07:18Z</time>
      </trkpt>
      <trkpt lat="44.25108" lon="6.75578">
        <ele>2071</ele>
        <time>2016-03-27T18:09:18Z</time>
      </trkpt>
      <trkpt lat="44.25088" lon="6.75596">
        <ele>2070</ele>
        <time>2016-03-27T18:11:18Z</time>
      </trkpt>
      <trkpt lat="44.25065" lon="6.75616">
        <ele>2072</ele>
        <time>2016-03-27T18:13:18Z</time>
      </trkpt>
      <trkpt lat="44.25057" lon="6.7562">
        <ele>2072</ele>
        <time>2016-03-27T18:15:18Z</time>
      </trkpt>
      <trkpt lat="44.25041" lon="6.75626">
        <ele>2070</ele>
        <time>2016-03-27T18:17:18Z</time>
      </trkpt>
      <trkpt lat="44.25031" lon="6.75628">
        <ele>2068</ele>
        <time>2016-03-27T18:19:18Z</time>
      </trkpt>
      <trkpt lat="44.25026" lon="6.75631">
        <ele>2068</ele>
        <time>2016-03-27T18:21:18Z</time>
      </trkpt>
      <trkpt lat="44.25008" lon="6.75649">
        <ele>2072</ele>
        <time>2016-03-27T18:23:18Z</time>
      </trkpt>
      <trkpt lat="44.24998" lon="6.75658">
        <ele>2073</ele>
        <time>2016-03-27T18:25:18Z</time>
      </trkpt>
      <trkpt lat="44.2499" lon="6.75662">
        <ele>2071</ele>
        <time>2016-03-27T18:27:18Z</time>
      </trkpt>
      <trkpt lat="44.2498" lon="6.75663">
        <ele>2066</ele>
        <time>2016-03-27T18:29:18Z</time>
      </trkpt>
      <trkpt lat="44.24965" lon="6.7566">
        <ele>2058</ele>
        <time>2016-03-27T18:31:18Z</time>
      </trkpt>
      <trkpt lat="44.24959" lon="6.75659">
        <ele>2054</ele>
        <time>2016-03-27T18:33:18Z</time>
      </trkpt>
      <trkpt lat="44.24954" lon="6.7566">
        <ele>2052</ele>
        <time>2016-03-27T18:35:18Z</time>
      </trkpt>
      <trkpt lat="44.24942" lon="6.75665">
        <ele>2049</ele>
        <time>2016-03-27T18:37:18Z</time>
      </trkpt>
      <trkpt lat="44.24914" lon="6.75676">
        <ele>2040</ele>
        <time>2016-03-27T18:39:18Z</time>
      </trkpt>
      <trkpt lat="44.24904" lon="6.75676">
        <ele>2036</ele>
        <time>2016-03-27T18:41:18Z</time>
      </trkpt>
      <trkpt lat="44.24891" lon="6.75675">
        <ele>2031</ele>
        <time>2016-03-27T18:43:18Z</time>
      </trkpt>
      <trkpt lat="44.24883" lon="6.75675">
        <ele>2028</ele>
        <time>2016-03-27T18:45:18Z</time>
      </trkpt>
      <trkpt lat="44.24875" lon="6.75678">
        <ele>2027</ele>
        <time>2016-03-27T18:47:18Z</time>
      </trkpt>
      <trkpt lat="44.2486" lon="6.75685">
        <ele>2025</ele>
        <time>2016-03-27T18:49:18Z</time>
      </trkpt>
      <trkpt lat="44.24848" lon="6.75692">
        <ele>2024</ele>
        <time>2016-03-27T18:51:18Z</time>
      </trkpt>
      <trkpt lat="44.24842" lon="6.75696">
        <ele>2024</ele>
        <time>2016-03-27T18:53:18Z</time>
      </trkpt>
      <trkpt lat="44.24833" lon="6.75704">
        <ele>2025</ele>
        <time>2016-03-27T18:55:18Z</time>
      </trkpt>
      <trkpt lat="44.24829" lon="6.75709">
        <ele>2026</ele>
        <time>2016-03-27T18:57:18Z</time>
      </trkpt>
      <trkpt lat="44.24825" lon="6.75717">
        <ele>2027</ele>
        <time>2016-03-27T18:59:18Z</time>
      </trkpt>
      <trkpt lat="44.24823" lon="6.75725">
        <ele>2030</ele>
        <time>2016-03-27T19:01:18Z</time>
      </trkpt>
      <trkpt lat="44.24822" lon="6.75736">
        <ele>2034</ele>
        <time>2016-03-27T19:03:18Z</time>
      </trkpt>
      <trkpt lat="44.24822" lon="6.75744">
        <ele>2038</ele>
        <time>2016-03-27T19:05:18Z</time>
      </trkpt>
      <trkpt lat="44.24824" lon="6.75756">
        <ele>2041</ele>
        <time>2016-03-27T19:07:18Z</time>
      </trkpt>
      <trkpt lat="44.24827" lon="6.75763">
        <ele>2042</ele>
        <time>2016-03-27T19:09:18Z</time>
      </trkpt>
      <trkpt lat="44.24832" lon="6.7578">
        <ele>2041</ele>
        <time>2016-03-27T19:11:18Z</time>
      </trkpt>
      <trkpt lat="44.24838" lon="6.75791">
        <ele>2041</ele>
        <time>2016-03-27T19:13:18Z</time>
      </trkpt>
      <trkpt lat="44.24845" lon="6.758">
        <ele>2041</ele>
        <time>2016-03-27T19:15:18Z</time>
      </trkpt>
      <trkpt lat="44.24867" lon="6.75822">
        <ele>2043</ele>
        <time>2016-03-27T19:17:18Z</time>
      </trkpt>
      <trkpt lat="44.24883" lon="6.75842">
        <ele>2044</ele>
        <time>2016-03-27T19:19:18Z</time>
      </trkpt>
      <trkpt lat="44.24892" lon="6.75858">
        <ele>2043</ele>
        <time>2016-03-27T19:21:18Z</time>
      </trkpt>
      <trkpt lat="44.249" lon="6.75877">
        <ele>2040</ele>
        <time>2016-03-27T19:23:18Z</time>
      </trkpt>
      <trkpt lat="44.24905" lon="6.75893">
        <ele>2038</ele>
        <time>2016-03-27T19:25:18Z</time>
      </trkpt>
      <trkpt lat="44.24908" lon="6.75911">
        <ele>2034</ele>
        <time>2016-03-27T19:27:18Z</time>
      </trkpt>
      <trkpt lat="44.24911" lon="6.75929">
        <ele>2031</ele>
        <time>2016-03-27T19:29:18Z</time>
      </trkpt>
      <trkpt lat="44.24914" lon="6.75942">
        <ele>2030</ele>
        <time>2016-03-27T19:31:18Z</time>
      </trkpt>
      <trkpt lat="44.24921" lon="6.75965">
        <ele>2028</ele>
        <time>2016-03-27T19:33:18Z</time>
      </trkpt>
      <trkpt lat="44.24934" lon="6.76004">
        <ele>2027</ele>
        <time>2016-03-27T19:35:18Z</time>
      </trkpt>
      <trkpt lat="44.24941" lon="6.76023">
        <ele>2027</ele>
        <time>2016-03-27T19:37:18Z</time>
      </trkpt>
      <trkpt lat="44.24945" lon="6.76039">
        <ele>2026</ele>
        <time>2016-03-27T19:39:18Z</time>
      </trkpt>
      <trkpt lat="44.24948" lon="6.76063">
        <ele>2023</ele>
        <time>2016-03-27T19:41:18Z</time>
      </trkpt>
      <trkpt lat="44.2495" lon="6.76106">
        <ele>2016</ele>
        <time>2016-03-27T19:43:18Z</time>
      </trkpt>
      <trkpt lat="44.24952" lon="6.76127">
        <ele>2013</ele>
        <time>2016-03-27T19:45:18Z</time>
      </trkpt>
      <trkpt lat="44.24953" lon="6.76138">
        <ele>2011</ele>
        <time>2016-03-27T19:47:18Z</time>
      </trkpt>
      <trkpt lat="44.24958" lon="6.76159">
        <ele>2010</ele>
        <time>2016-03-27T19:49:18Z</time>
      </trkpt>
      <trkpt lat="44.24967" lon="6.76192">
        <ele>2010</ele>
        <time>2016-03-27T19:51:18Z</time>
      </trkpt>
      <trkpt lat="44.24973" lon="6.76215">
        <ele>2010</ele>
        <time>2016-03-27T19:53:18Z</time>
      </trkpt>
      <trkpt lat="44.24976" lon="6.76236">
        <ele>2009</ele>
        <time>2016-03-27T19:55:18Z</time>
      </trkpt>
      <trkpt lat="44.24978" lon="6.76258">
        <ele>2007</ele>
        <time>2016-03-27T19:57:18Z</time>
      </trkpt>
      <trkpt lat="44.2498" lon="6.76296">
        <ele>2005</ele>
        <time>2016-03-27T19:59:18Z</time>
      </trkpt>
      <trkpt lat="44.24981" lon="6.7632">
        <ele>2002</ele>
        <time>2016-03-27T20:01:18Z</time>
      </trkpt>
      <trkpt lat="44.24984" lon="6.76336">
        <ele>2002</ele>
        <time>2016-03-27T20:03:18Z</time>
      </trkpt>
      <trkpt lat="44.24987" lon="6.7635">
        <ele>2001</ele>
        <time>2016-03-27T20:05:18Z</time>
      </trkpt>
      <trkpt lat="44.24996" lon="6.76383">
        <ele>2000</ele>
        <time>2016-03-27T20:07:18Z</time>
      </trkpt>
      <trkpt lat="44.24999" lon="6.764">
        <ele>1999</ele>
        <time>2016-03-27T20:09:18Z</time>
      </trkpt>
      <trkpt lat="44.25" lon="6.76416">
        <ele>1998</ele>
        <time>2016-03-27T20:11:18Z</time>
      </trkpt>
      <trkpt lat="44.25" lon="6.76432">
        <ele>1998</ele>
        <time>2016-03-27T20:13:18Z</time>
      </trkpt>
      <trkpt lat="44.24999" lon="6.76441">
        <ele>1997</ele>
        <time>2016-03-27T20:15:18Z</time>
      </trkpt>
      <trkpt lat="44.24993" lon="6.76485">
        <ele>1995</ele>
        <time>2016-03-27T20:17:18Z</time>
      </trkpt>
      <trkpt lat="44.24986" lon="6.76529">
        <ele>1994</ele>
        <time>2016-03-27T20:19:18Z</time>
      </trkpt>
      <trkpt lat="44.24981" lon="6.76544">
        <ele>1994</ele>
        <time>2016-03-27T20:21:18Z</time>
      </trkpt>
      <trkpt lat="44.24976" lon="6.76552">
        <ele>1993</ele>
        <time>2016-03-27T20:23:18Z</time>
      </trkpt>
      <trkpt lat="44.24971" lon="6.76556">
        <ele>1992</ele>
        <time>2016-03-27T20:25:18Z</time>
      </trkpt>
      <trkpt lat="44.24964" lon="6.76556">
        <ele>1990</ele>
        <time>2016-03-27T20:27:18Z</time>
      </trkpt>
      <trkpt lat="44.24956" lon="6.76552">
        <ele>1987</ele>
        <time>2016-03-27T20:29:18Z</time>
      </trkpt>
      <trkpt lat="44.24949" lon="6.76547">
        <ele>1985</ele>
        <time>2016-03-27T20:31:18Z</time>
      </trkpt>
      <trkpt lat="44.24945" lon="6.7654">
        <ele>1984</ele>
        <time>2016-03-27T20:33:18Z</time>
      </trkpt>
      <trkpt lat="44.24943" lon="6.7653">
        <ele>1983</ele>
        <time>2016-03-27T20:35:18Z</time>
      </trkpt>
      <trkpt lat="44.24942" lon="6.76509">
        <ele>1982</ele>
        <time>2016-03-27T20:37:18Z</time>
      </trkpt>
      <trkpt lat="44.24942" lon="6.76459">
        <ele>1981</ele>
        <time>2016-03-27T20:39:18Z</time>
      </trkpt>
      <trkpt lat="44.24943" lon="6.76444">
        <ele>1981</ele>
        <time>2016-03-27T20:41:18Z</time>
      </trkpt>
      <trkpt lat="44.24941" lon="6.76431">
        <ele>1980</ele>
        <time>2016-03-27T20:43:18Z</time>
      </trkpt>
      <trkpt lat="44.24936" lon="6.76415">
        <ele>1979</ele>
        <time>2016-03-27T20:45:18Z</time>
      </trkpt>
      <trkpt lat="44.24929" lon="6.76402">
        <ele>1978</ele>
        <time>2016-03-27T20:47:18Z</time>
      </trkpt>
      <trkpt lat="44.24911" lon="6.76377">
        <ele>1975</ele>
        <time>2016-03-27T20:49:18Z</time>
      </trkpt>
      <trkpt lat="44.24901" lon="6.76364">
        <ele>1973</ele>
        <time>2016-03-27T20:51:18Z</time>
      </trkpt>
      <trkpt lat="44.24891" lon="6.76351">
        <ele>1971</ele>
        <time>2016-03-27T20:53:18Z</time>
      </trkpt>
      <trkpt lat="44.24883" lon="6.76339">
        <ele>1969</ele>
        <time>2016-03-27T20:55:18Z</time>
      </trkpt>
      <trkpt lat="44.24878" lon="6.76327">
        <ele>1968</ele>
        <time>2016-03-27T20:57:18Z</time>
      </trkpt>
      <trkpt lat="44.24874" lon="6.76316">
        <ele>1967</ele>
        <time>2016-03-27T20:59:18Z</time>
      </trkpt>
      <trkpt lat="44.24862" lon="6.76266">
        <ele>1963</ele>
        <time>2016-03-27T21:01:18Z</time>
      </trkpt>
      <trkpt lat="44.2485" lon="6.76214">
        <ele>1960</ele>
        <time>2016-03-27T21:03:18Z</time>
      </trkpt>
      <trkpt lat="44.24841" lon="6.76181">
        <ele>1958</ele>
        <time>2016-03-27T21:05:18Z</time>
      </trkpt>
      <trkpt lat="44.24834" lon="6.76158">
        <ele>1957</ele>
        <time>2016-03-27T21:07:18Z</time>
      </trkpt>
      <trkpt lat="44.24826" lon="6.76138">
        <ele>1957</ele>
        <time>2016-03-27T21:09:18Z</time>
      </trkpt>
      <trkpt lat="44.24812" lon="6.76104">
        <ele>1957</ele>
        <time>2016-03-27T21:11:18Z</time>
      </trkpt>
      <trkpt lat="44.24796" lon="6.76067">
        <ele>1958</ele>
        <time>2016-03-27T21:13:18Z</time>
      </trkpt>
      <trkpt lat="44.24788" lon="6.76046">
        <ele>1960</ele>
        <time>2016-03-27T21:15:18Z</time>
      </trkpt>
      <trkpt lat="44.24783" lon="6.7604">
        <ele>1959</ele>
        <time>2016-03-27T21:17:18Z</time>
      </trkpt>
      <trkpt lat="44.24776" lon="6.76033">
        <ele>1958</ele>
        <time>2016-03-27T21:19:18Z</time>
      </trkpt>
      <trkpt lat="44.2476" lon="6.76024">
        <ele>1954</ele>
        <time>2016-03-27T21:21:18Z</time>
      </trkpt>
      <trkpt lat="44.24745" lon="6.76016">
        <ele>1950</ele>
        <time>2016-03-27T21:23:18Z</time>
      </trkpt>
      <trkpt lat="44.2472" lon="6.75997">
        <ele>1943</ele>
        <time>2016-03-27T21:25:18Z</time>
      </trkpt>
      <trkpt lat="44.24706" lon="6.75983">
        <ele>1938</ele>
        <time>2016-03-27T21:27:18Z</time>
      </trkpt>
      <trkpt lat="44.24698" lon="6.75973">
        <ele>1935</ele>
        <time>2016-03-27T21:29:18Z</time>
      </trkpt>
      <trkpt lat="44.24693" lon="6.75958">
        <ele>1933</ele>
        <time>2016-03-27T21:31:18Z</time>
      </trkpt>
      <trkpt lat="44.24691" lon="6.75945">
        <ele>1933</ele>
        <time>2016-03-27T21:33:18Z</time>
      </trkpt>
      <trkpt lat="44.24688" lon="6.75916">
        <ele>1934</ele>
        <time>2016-03-27T21:35:18Z</time>
      </trkpt>
      <trkpt lat="44.24684" lon="6.75853">
        <ele>1935</ele>
        <time>2016-03-27T21:37:18Z</time>
      </trkpt>
      <trkpt lat="44.24683" lon="6.75823">
        <ele>1934</ele>
        <time>2016-03-27T21:39:18Z</time>
      </trkpt>
      <trkpt lat="44.24679" lon="6.75788">
        <ele>1930</ele>
        <time>2016-03-27T21:41:18Z</time>
      </trkpt>
      <trkpt lat="44.2467" lon="6.75715">
        <ele>1923</ele>
        <time>2016-03-27T21:43:18Z</time>
      </trkpt>
      <trkpt lat="44.24664" lon="6.75666">
        <ele>1923</ele>
        <time>2016-03-27T21:45:18Z</time>
      </trkpt>
      <trkpt lat="44.24661" lon="6.75652">
        <ele>1924</ele>
        <time>2016-03-27T21:47:18Z</time>
      </trkpt>
      <trkpt lat="44.24657" lon="6.75642">
        <ele>1923</ele>
        <time>2016-03-27T21:49:18Z</time>
      </trkpt>
      <trkpt lat="44.24652" lon="6.75632">
        <ele>1923</ele>
        <time>2016-03-27T21:51:18Z</time>
      </trkpt>
      <trkpt lat="44.24644" lon="6.75622">
        <ele>1922</ele>
        <time>2016-03-27T21:53:18Z</time>
      </trkpt>
      <trkpt lat="44.24631" lon="6.7561">
        <ele>1919</ele>
        <time>2016-03-27T21:55:18Z</time>
      </trkpt>
      <trkpt lat="44.24616" lon="6.75596">
        <ele>1916</ele>
        <time>2016-03-27T21:57:18Z</time>
      </trkpt>
      <trkpt lat="44.24611" lon="6.7559">
        <ele>1916</ele>
        <time>2016-03-27T21:59:18Z</time>
      </trkpt>
      <trkpt lat="44.24609" lon="6.75587">
        <ele>1915</ele>
        <time>2016-03-27T22:01:18Z</time>
      </trkpt>
      <trkpt lat="44.24599" lon="6.75577">
        <ele>1915</ele>
        <time>2016-03-27T22:03:18Z</time>
      </trkpt>
      <trkpt lat="44.24597" lon="6.75575">
        <ele>1915</ele>
        <time>2016-03-27T22:05:18Z</time>
      </trkpt>
      <trkpt lat="44.2457" lon="6.7555">
        <ele>1916</ele>
        <time>2016-03-27T22:07:18Z</time>
      </trkpt>
      <trkpt lat="44.2455" lon="6.75532">
        <ele>1916</ele>
        <time>2016-03-27T22:09:18Z</time>
      </trkpt>
      <trkpt lat="44.24536" lon="6.75521">
        <ele>1914</ele>
        <time>2016-03-27T22:11:18Z</time>
      </trkpt>
      <trkpt lat="44.24492" lon="6.75494">
        <ele>1905</ele>
        <time>2016-03-27T22:13:18Z</time>
      </trkpt>
      <trkpt lat="44.24458" lon="6.75471">
        <ele>1900</ele>
        <time>2016-03-27T22:15:18Z</time>
      </trkpt>
      <trkpt lat="44.24443" lon="6.7546">
        <ele>1897</ele>
        <time>2016-03-27T22:17:18Z</time>
      </trkpt>
      <trkpt lat="44.24435" lon="6.75451">
        <ele>1896</ele>
        <time>2016-03-27T22:19:18Z</time>
      </trkpt>
      <trkpt lat="44.24427" lon="6.75438">
        <ele>1895</ele>
        <time>2016-03-27T22:21:18Z</time>
      </trkpt>
      <trkpt lat="44.24421" lon="6.75423">
        <ele>1896</ele>
        <time>2016-03-27T22:23:18Z</time>
      </trkpt>
      <trkpt lat="44.24417" lon="6.75407">
        <ele>1898</ele>
        <time>2016-03-27T22:25:18Z</time>
      </trkpt>
      <trkpt lat="44.24414" lon="6.754">
        <ele>1899</ele>
        <time>2016-03-27T22:27:18Z</time>
      </trkpt>
      <trkpt lat="44.24409" lon="6.75398">
        <ele>1897</ele>
        <time>2016-03-27T22:29:18Z</time>
      </trkpt>
      <trkpt lat="44.24405" lon="6.754">
        <ele>1895</ele>
        <time>2016-03-27T22:31:18Z</time>
      </trkpt>
      <trkpt lat="44.24403" lon="6.75406">
        <ele>1892</ele>
        <time>2016-03-27T22:33:18Z</time>
      </trkpt>
      <trkpt lat="44.24403" lon="6.75412">
        <ele>1891</ele>
        <time>2016-03-27T22:35:18Z</time>
      </trkpt>
      <trkpt lat="44.24407" lon="6.75421">
        <ele>1890</ele>
        <time>2016-03-27T22:37:18Z</time>
      </trkpt>
      <trkpt lat="44.24418" lon="6.75439">
        <ele>1891</ele>
        <time>2016-03-27T22:39:18Z</time>
      </trkpt>
      <trkpt lat="44.2444" lon="6.75482">
        <ele>1890</ele>
        <time>2016-03-27T22:41:18Z</time>
      </trkpt>
      <trkpt lat="44.24455" lon="6.75512">
        <ele>1889</ele>
        <time>2016-03-27T22:43:18Z</time>
      </trkpt>
      <trkpt lat="44.2446" lon="6.75526">
        <ele>1889</ele>
        <time>2016-03-27T22:45:18Z</time>
      </trkpt>
      <trkpt lat="44.24463" lon="6.75537">
        <ele>1889</ele>
        <time>2016-03-27T22:47:18Z</time>
      </trkpt>
      <trkpt lat="44.24463" lon="6.75549">
        <ele>1887</ele>
        <time>2016-03-27T22:49:18Z</time>
      </trkpt>
      <trkpt lat="44.24462" lon="6.75561">
        <ele>1886</ele>
        <time>2016-03-27T22:51:18Z</time>
      </trkpt>
      <trkpt lat="44.24462" lon="6.75563">
        <ele>1885</ele>
        <time>2016-03-27T22:53:18Z</time>
      </trkpt>
      <trkpt lat="44.24458" lon="6.75575">
        <ele>1883</ele>
        <time>2016-03-27T22:55:18Z</time>
      </trkpt>
      <trkpt lat="44.24452" lon="6.75588">
        <ele>1881</ele>
        <time>2016-03-27T22:57:18Z</time>
      </trkpt>
      <trkpt lat="44.2444" lon="6.75607">
        <ele>1878</ele>
        <time>2016-03-27T22:59:18Z</time>
      </trkpt>
      <trkpt lat="44.24435" lon="6.75618">
        <ele>1877</ele>
        <time>2016-03-27T23:01:18Z</time>
      </trkpt>
      <trkpt lat="44.24433" lon="6.75629">
        <ele>1877</ele>
        <time>2016-03-27T23:03:18Z</time>
      </trkpt>
      <trkpt lat="44.24434" lon="6.7564">
        <ele>1877</ele>
        <time>2016-03-27T23:05:18Z</time>
      </trkpt>
      <trkpt lat="44.24437" lon="6.7565">
        <ele>1877</ele>
        <time>2016-03-27T23:07:18Z</time>
      </trkpt>
      <trkpt lat="44.24443" lon="6.75659">
        <ele>1878</ele>
        <time>2016-03-27T23:09:18Z</time>
      </trkpt>
      <trkpt lat="44.2445" lon="6.75668">
        <ele>1878</ele>
        <time>2016-03-27T23:11:18Z</time>
      </trkpt>
      <trkpt lat="44.24459" lon="6.75678">
        <ele>1879</ele>
        <time>2016-03-27T23:13:18Z</time>
      </trkpt>
      <trkpt lat="44.24479" lon="6.75693">
        <ele>1880</ele>
        <time>2016-03-27T23:15:18Z</time>
      </trkpt>
      <trkpt lat="44.24486" lon="6.75699">
        <ele>1881</ele>
        <time>2016-03-27T23:17:18Z</time>
      </trkpt>
      <trkpt lat="44.24489" lon="6.75703">
        <ele>1881</ele>
        <time>2016-03-27T23:19:18Z</time>
      </trkpt>
      <trkpt lat="44.2449" lon="6.75709">
        <ele>1881</ele>
        <time>2016-03-27T23:21:18Z</time>
      </trkpt>
      <trkpt lat="44.24488" lon="6.75715">
        <ele>1880</ele>
        <time>2016-03-27T23:23:18Z</time>
      </trkpt>
      <trkpt lat="44.24486" lon="6.75718">
        <ele>1879</ele>
        <time>2016-03-27T23:25:18Z</time>
      </trkpt>
      <trkpt lat="44.24481" lon="6.75719">
        <ele>1879</ele>
        <time>2016-03-27T23:27:18Z</time>
      </trkpt>
      <trkpt lat="44.24464" lon="6.75715">
        <ele>1877</ele>
        <time>2016-03-27T23:29:18Z</time>
      </trkpt>
      <trkpt lat="44.24411" lon="6.75699">
        <ele>1871</ele>
        <time>2016-03-27T23:31:18Z</time>
      </trkpt>
      <trkpt lat="44.24389" lon="6.75691">
        <ele>1869</ele>
        <time>2016-03-27T23:33:18Z</time>
      </trkpt>
      <trkpt lat="44.24375" lon="6.75683">
        <ele>1868</ele>
        <time>2016-03-27T23:35:18Z</time>
      </trkpt>
      <trkpt lat="44.24366" lon="6.75675">
        <ele>1867</ele>
        <time>2016-03-27T23:37:18Z</time>
      </trkpt>
      <trkpt lat="44.24356" lon="6.75664">
        <ele>1867</ele>
        <time>2016-03-27T23:39:18Z</time>
      </trkpt>
      <trkpt lat="44.24346" lon="6.7565">
        <ele>1865</ele>
        <time>2016-03-27T23:41:18Z</time>
      </trkpt>
      <trkpt lat="44.2434" lon="6.75638">
        <ele>1864</ele>
        <time>2016-03-27T23:43:18Z</time>
      </trkpt>
      <trkpt lat="44.24335" lon="6.75626">
        <ele>1863</ele>
        <time>2016-03-27T23:45:18Z</time>
      </trkpt>
      <trkpt lat="44.24316" lon="6.75566">
        <ele>1858</ele>
        <time>2016-03-27T23:47:18Z</time>
      </trkpt>
      <trkpt lat="44.24295" lon="6.75503">
        <ele>1852</ele>
        <time>2016-03-27T23:49:18Z</time>
      </trkpt>
      <trkpt lat="44.24277" lon="6.75444">
        <ele>1848</ele>
        <time>2016-03-27T23:51:18Z</time>
      </trkpt>
      <trkpt lat="44.24273" lon="6.75432">
        <ele>1846</ele>
        <time>2016-03-27T23:53:18Z</time>
      </trkpt>
      <trkpt lat="44.24246" lon="6.75348">
        <ele>1839</ele>
        <time>2016-03-27T23:55:18Z</time>
      </trkpt>
      <trkpt lat="44.24228" lon="6.75296">
        <ele>1842</ele>
        <time>2016-03-27T23:57:18Z</time>
      </trkpt>
      <trkpt lat="44.24219" lon="6.75269">
        <ele>1843</ele>
        <time>2016-03-27T23:59:18Z</time>
      </trkpt>
      <trkpt lat="44.24215" lon="6.75262">
        <ele>1843</ele>
        <time>2016-03-28T00:01:18Z</time>
      </trkpt>
      <trkpt lat="44.24208" lon="6.75255">
        <ele>1843</ele>
        <time>2016-03-28T00:03:18Z</time>
      </trkpt>
      <trkpt lat="44.24197" lon="6.75246">
        <ele>1843</ele>
        <time>2016-03-28T00:05:18Z</time>
      </trkpt>
      <trkpt lat="44.24185" lon="6.75241">
        <ele>1842</ele>
        <time>2016-03-28T00:07:18Z</time>
      </trkpt>
      <trkpt lat="44.24172" lon="6.75239">
        <ele>1839</ele>
        <time>2016-03-28T00:09:18Z</time>
      </trkpt>
      <trkpt lat="44.24158" lon="6.7524">
        <ele>1836</ele>
        <time>2016-03-28T00:11:18Z</time>
      </trkpt>
      <trkpt lat="44.24146" lon="6.75241">
        <ele>1834</ele>
        <time>2016-03-28T00:13:18Z</time>
      </trkpt>
      <trkpt lat="44.24125" lon="6.75246">
        <ele>1829</ele>
        <time>2016-03-28T00:15:18Z</time>
      </trkpt>
      <trkpt lat="44.24115" lon="6.75246">
        <ele>1827</ele>
        <time>2016-03-28T00:17:18Z</time>
      </trkpt>
      <trkpt lat="44.24102" lon="6.75245">
        <ele>1825</ele>
        <time>2016-03-28T00:19:18Z</time>
      </trkpt>
      <trkpt lat="44.24087" lon="6.7524">
        <ele>1824</ele>
        <time>2016-03-28T00:21:18Z</time>
      </trkpt>
      <trkpt lat="44.24069" lon="6.75229">
        <ele>1824</ele>
        <time>2016-03-28T00:23:18Z</time>
      </trkpt>
      <trkpt lat="44.24039" lon="6.75206">
        <ele>1824</ele>
        <time>2016-03-28T00:25:18Z</time>
      </trkpt>
      <trkpt lat="44.24028" lon="6.75199">
        <ele>1823</ele>
        <time>2016-03-28T00:27:18Z</time>
      </trkpt>
      <trkpt lat="44.2402" lon="6.75194">
        <ele>1823</ele>
        <time>2016-03-28T00:29:18Z</time>
      </trkpt>
      <trkpt lat="44.24011" lon="6.75191">
        <ele>1822</ele>
        <time>2016-03-28T00:31:18Z</time>
      </trkpt>
      <trkpt lat="44.23994" lon="6.75188">
        <ele>1819</ele>
        <time>2016-03-28T00:33:18Z</time>
      </trkpt>
      <trkpt lat="44.23975" lon="6.75184">
        <ele>1816</ele>
        <time>2016-03-28T00:35:18Z</time>
      </trkpt>
      <trkpt lat="44.23954" lon="6.75178">
        <ele>1814</ele>
        <time>2016-03-28T00:37:18Z</time>
      </trkpt>
      <trkpt lat="44.23923" lon="6.75167">
        <ele>1809</ele>
        <time>2016-03-28T00:39:18Z</time>
      </trkpt>
      <trkpt lat="44.23913" lon="6.75162">
        <ele>1809</ele>
        <time>2016-03-28T00:41:18Z</time>
      </trkpt>
      <trkpt lat="44.239" lon="6.75151">
        <ele>1810</ele>
        <time>2016-03-28T00:43:18Z</time>
      </trkpt>
      <trkpt lat="44.2388" lon="6.75126">
        <ele>1814</ele>
        <time>2016-03-28T00:45:18Z</time>
      </trkpt>
      <trkpt lat="44.23867" lon="6.75113">
        <ele>1815</ele>
        <time>2016-03-28T00:47:18Z</time>
      </trkpt>
      <trkpt lat="44.23861" lon="6.75109">
        <ele>1814</ele>
        <time>2016-03-28T00:49:18Z</time>
      </trkpt>
      <trkpt lat="44.23853" lon="6.75106">
        <ele>1813</ele>
        <time>2016-03-28T00:51:18Z</time>
      </trkpt>
      <trkpt lat="44.23845" lon="6.75106">
        <ele>1812</ele>
        <time>2016-03-28T00:53:18Z</time>
      </trkpt>
      <trkpt lat="44.23836" lon="6.75108">
        <ele>1809</ele>
        <time>2016-03-28T00:55:18Z</time>
      </trkpt>
      <trkpt lat="44.2383" lon="6.75112">
        <ele>1807</ele>
        <time>2016-03-28T00:57:18Z</time>
      </trkpt>
      <trkpt lat="44.2382" lon="6.75121">
        <ele>1805</ele>
        <time>2016-03-28T00:59:18Z</time>
      </trkpt>
      <trkpt lat="44.23804" lon="6.75141">
        <ele>1799</ele>
        <time>2016-03-28T01:01:18Z</time>
      </trkpt>
      <trkpt lat="44.238" lon="6.75144">
        <ele>1798</ele>
        <time>2016-03-28T01:03:18Z</time>
      </trkpt>
      <trkpt lat="44.23792" lon="6.75151">
        <ele>1796</ele>
        <time>2016-03-28T01:05:18Z</time>
      </trkpt>
      <trkpt lat="44.23782" lon="6.75158">
        <ele>1794</ele>
        <time>2016-03-28T01:07:18Z</time>
      </trkpt>
      <trkpt lat="44.23773" lon="6.7516">
        <ele>1793</ele>
        <time>2016-03-28T01:09:18Z</time>
      </trkpt>
      <trkpt lat="44.23756" lon="6.75161">
        <ele>1791</ele>
        <time>2016-03-28T01:11:18Z</time>
      </trkpt>
      <trkpt lat="44.2374" lon="6.75159">
        <ele>1790</ele>
        <time>2016-03-28T01:13:18Z</time>
      </trkpt>
      <trkpt lat="44.2373" lon="6.75158">
        <ele>1789</ele>
        <time>2016-03-28T01:15:18Z</time>
      </trkpt>
      <trkpt lat="44.23712" lon="6.75157">
        <ele>1787</ele>
        <time>2016-03-28T01:17:18Z</time>
      </trkpt>
      <trkpt lat="44.23701" lon="6.75154">
        <ele>1786</ele>
        <time>2016-03-28T01:19:18Z</time>
      </trkpt>
      <trkpt lat="44.23674" lon="6.75141">
        <ele>1784</ele>
        <time>2016-03-28T01:21:18Z</time>
      </trkpt>
      <trkpt lat="44.23634" lon="6.75121">
        <ele>1786</ele>
        <time>2016-03-28T01:23:18Z</time>
      </trkpt>
      <trkpt lat="44.2361" lon="6.75108">
        <ele>1788</ele>
        <time>2016-03-28T01:25:18Z</time>
      </trkpt>
      <trkpt lat="44.23604" lon="6.75106">
        <ele>1788</ele>
        <time>2016-03-28T01:27:18Z</time>
      </trkpt>
      <trkpt lat="44.23596" lon="6.75107">
        <ele>1788</ele>
        <time>2016-03-28T01:29:18Z</time>
      </trkpt>
      <trkpt lat="44.23588" lon="6.75111">
        <ele>1787</ele>
        <time>2016-03-28T01:31:18Z</time>
      </trkpt>
      <trkpt lat="44.23577" lon="6.75122">
        <ele>1785</ele>
        <time>2016-03-28T01:33:18Z</time>
      </trkpt>
      <trkpt lat="44.23548" lon="6.7517">
        <ele>1779</ele>
        <time>2016-03-28T01:35:18Z</time>
      </trkpt>
      <trkpt lat="44.23536" lon="6.7519">
        <ele>1779</ele>
        <time>2016-03-28T01:37:18Z</time>
      </trkpt>
      <trkpt lat="44.23528" lon="6.75202">
        <ele>1779</ele>
        <time>2016-03-28T01:39:18Z</time>
      </trkpt>
      <trkpt lat="44.23523" lon="6.75212">
        <ele>1779</ele>
        <time>2016-03-28T01:41:18Z</time>
      </trkpt>
      <trkpt lat="44.2351" lon="6.75231">
        <ele>1779</ele>
        <time>2016-03-28T01:43:18Z</time>
      </trkpt>
      <trkpt lat="44.23503" lon="6.75238">
        <ele>1779</ele>
        <time>2016-03-28T01:45:18Z</time>
      </trkpt>
      <trkpt lat="44.23492" lon="6.75241">
        <ele>1778</ele>
        <time>2016-03-28T01:47:18Z</time>
      </trkpt>
      <trkpt lat="44.23447" lon="6.75241">
        <ele>1773</ele>
        <time>2016-03-28T01:49:18Z</time>
      </trkpt>
      <trkpt lat="44.23405" lon="6.75242">
        <ele>1769</ele>
        <time>2016-03-28T01:51:18Z</time>
      </trkpt>
      <trkpt lat="44.23387" lon="6.7524">
        <ele>1768</ele>
        <time>2016-03-28T01:53:18Z</time>
      </trkpt>
      <trkpt lat="44.23366" lon="6.75235">
        <ele>1767</ele>
        <time>2016-03-28T01:55:18Z</time>
      </trkpt>
      <trkpt lat="44.2336" lon="6.75233">
        <ele>1767</ele>
        <time>2016-03-28T01:57:18Z</time>
      </trkpt>
      <trkpt lat="44.23339" lon="6.75225">
        <ele>1768</ele>
        <time>2016-03-28T01:59:18Z</time>
      </trkpt>
      <trkpt lat="44.23298" lon="6.75205">
        <ele>1763</ele>
        <time>2016-03-28T02:01:18Z</time>
      </trkpt>
      <trkpt lat="44.23276" lon="6.75192">
        <ele>1760</ele>
        <time>2016-03-28T02:03:18Z</time>
      </trkpt>
      <trkpt lat="44.23269" lon="6.75186">
        <ele>1759</ele>
        <time>2016-03-28T02:05:18Z</time>
      </trkpt>
      <trkpt lat="44.23267" lon="6.75184">
        <ele>1759</ele>
        <time>2016-03-28T02:07:18Z</time>
      </trkpt>
      <trkpt lat="44.23265" lon="6.75181">
        <ele>1760</ele>
        <time>2016-03-28T02:09:18Z</time>
      </trkpt>
      <trkpt lat="44.23263" lon="6.75177">
        <ele>1760</ele>
        <time>2016-03-28T02:11:18Z</time>
      </trkpt>
      <trkpt lat="44.23262" lon="6.75172">
        <ele>1761</ele>
        <time>2016-03-28T02:13:18Z</time>
      </trkpt>
      <trkpt lat="44.2326" lon="6.75165">
        <ele>1761</ele>
        <time>2016-03-28T02:15:18Z</time>
      </trkpt>
      <trkpt lat="44.2326" lon="6.75161">
        <ele>1762</ele>
        <time>2016-03-28T02:17:18Z</time>
      </trkpt>
      <trkpt lat="44.23257" lon="6.75138">
        <ele>1764</ele>
        <time>2016-03-28T02:19:18Z</time>
      </trkpt>
      <trkpt lat="44.23256" lon="6.75129">
        <ele>1765</ele>
        <time>2016-03-28T02:21:18Z</time>
      </trkpt>
      <trkpt lat="44.23255" lon="6.75123">
        <ele>1766</ele>
        <time>2016-03-28T02:23:18Z</time>
      </trkpt>
      <trkpt lat="44.23253" lon="6.75119">
        <ele>1766</ele>
        <time>2016-03-28T02:25:18Z</time>
      </trkpt>
      <trkpt lat="44.23252" lon="6.75117">
        <ele>1766</ele>
        <time>2016-03-28T02:27:18Z</time>
      </trkpt>
      <trkpt lat="44.23251" lon="6.75116">
        <ele>1766</ele>
        <time>2016-03-28T02:29:18Z</time>
      </trkpt>
      <trkpt lat="44.2325" lon="6.75114">
        <ele>1766</ele>
        <time>2016-03-28T02:31:18Z</time>
      </trkpt>
      <trkpt lat="44.23249" lon="6.75111">
        <ele>1766</ele>
        <time>2016-03-28T02:33:18Z</time>
      </trkpt>
      <trkpt lat="44.23247" lon="6.75109">
        <ele>1766</ele>
        <time>2016-03-28T02:35:18Z</time>
      </trkpt>
      <trkpt lat="44.23246" lon="6.75107">
        <ele>1766</ele>
        <time>2016-03-28T02:37:18Z</time>
      </trkpt>
      <trkpt lat="44.23243" lon="6.75105">
        <ele>1765</ele>
        <time>2016-03-28T02:39:18Z</time>
      </trkpt>
      <trkpt lat="44.23241" lon="6.75104">
        <ele>1765</ele>
        <time>2016-03-28T02:41:18Z</time>
      </trkpt>
      <trkpt lat="44.2323" lon="6.751">
        <ele>1763</ele>
        <time>2016-03-28T02:43:18Z</time>
      </trkpt>
      <trkpt lat="44.23226" lon="6.75099">
        <ele>1762</ele>
        <time>2016-03-28T02:45:18Z</time>
      </trkpt>
      <trkpt lat="44.23221" lon="6.75099">
        <ele>1761</ele>
        <time>2016-03-28T02:47:18Z</time>
      </trkpt>
      <trkpt lat="44.23199" lon="6.75102">
        <ele>1755</ele>
        <time>2016-03-28T02:49:18Z</time>
      </trkpt>
      <trkpt lat="44.23192" lon="6.75103">
        <ele>1753</ele>
        <time>2016-03-28T02:51:18Z</time>
      </trkpt>
      <trkpt lat="44.23182" lon="6.75103">
        <ele>1751</ele>
        <time>2016-03-28T02:53:18Z</time>
      </trkpt>
      <trkpt lat="44.23175" lon="6.75102">
        <ele>1749</ele>
        <time>2016-03-28T02:55:18Z</time>
      </trkpt>
      <trkpt lat="44.23165" lon="6.75099">
        <ele>1747</ele>
        <time>2016-03-28T02:57:18Z</time>
      </trkpt>
      <trkpt lat="44.2316" lon="6.75093">
        <ele>1746</ele>
        <time>2016-03-28T02:59:18Z</time>
      </trkpt>
      <trkpt lat="44.23157" lon="6.75088">
        <ele>1746</ele>
        <time>2016-03-28T03:01:18Z</time>
      </trkpt>
      <trkpt lat="44.23155" lon="6.75083">
        <ele>1747</ele>
        <time>2016-03-28T03:03:18Z</time>
      </trkpt>
      <trkpt lat="44.23154" lon="6.75076">
        <ele>1747</ele>
        <time>2016-03-28T03:05:18Z</time>
      </trkpt>
      <trkpt lat="44.23154" lon="6.75067">
        <ele>1749</ele>
        <time>2016-03-28T03:07:18Z</time>
      </trkpt>
      <trkpt lat="44.23153" lon="6.75059">
        <ele>1749</ele>
        <time>2016-03-28T03:09:18Z</time>
      </trkpt>
      <trkpt lat="44.23152" lon="6.75051">
        <ele>1750</ele>
        <time>2016-03-28T03:11:18Z</time>
      </trkpt>
      <trkpt lat="44.2315" lon="6.75038">
        <ele>1751</ele>
        <time>2016-03-28T03:13:18Z</time>
      </trkpt>
      <trkpt lat="44.23148" lon="6.75031">
        <ele>1752</ele>
        <time>2016-03-28T03:15:18Z</time>
      </trkpt>
      <trkpt lat="44.23145" lon="6.75021">
        <ele>1752</ele>
        <time>2016-03-28T03:17:18Z</time>
      </trkpt>
      <trkpt lat="44.23142" lon="6.75015">
        <ele>1752</ele>
        <time>2016-03-28T03:19:18Z</time>
      </trkpt>
      <trkpt lat="44.2314" lon="6.7501">
        <ele>1752</ele>
        <time>2016-03-28T03:21:18Z</time>
      </trkpt>
      <trkpt lat="44.23137" lon="6.75007">
        <ele>1751</ele>
        <time>2016-03-28T03:23:18Z</time>
      </trkpt>
      <trkpt lat="44.23135" lon="6.75004">
        <ele>1751</ele>
        <time>2016-03-28T03:25:18Z</time>
      </trkpt>
      <trkpt lat="44.23131" lon="6.75">
        <ele>1750</ele>
        <time>2016-03-28T03:27:18Z</time>
      </trkpt>
      <trkpt lat="44.23126" lon="6.74995">
        <ele>1749</ele>
        <time>2016-03-28T03:29:18Z</time>
      </trkpt>
      <trkpt lat="44.2311" lon="6.74984">
        <ele>1745</ele>
        <time>2016-03-28T03:31:18Z</time>
      </trkpt>
      <trkpt lat="44.23093" lon="6.74977">
        <ele>1741</ele>
        <time>2016-03-28T03:33:18Z</time>
      </trkpt>
      <trkpt lat="44.23073" lon="6.7497">
        <ele>1735</ele>
        <time>2016-03-28T03:35:18Z</time>
      </trkpt>
      <trkpt lat="44.2306" lon="6.74962">
        <ele>1733</ele>
        <time>2016-03-28T03:37:18Z</time>
      </trkpt>
      <trkpt lat="44.23056" lon="6.74953">
        <ele>1733</ele>
        <time>2016-03-28T03:39:18Z</time>
      </trkpt>
      <trkpt lat="44.23052" lon="6.74927">
        <ele>1737</ele>
        <time>2016-03-28T03:41:18Z</time>
      </trkpt>
      <trkpt lat="44.23047" lon="6.74912">
        <ele>1739</ele>
        <time>2016-03-28T03:43:18Z</time>
      </trkpt>
      <trkpt lat="44.2304" lon="6.74899">
        <ele>1739</ele>
        <time>2016-03-28T03:45:18Z</time>
      </trkpt>
      <trkpt lat="44.23029" lon="6.74886">
        <ele>1738</ele>
        <time>2016-03-28T03:47:18Z</time>
      </trkpt>
      <trkpt lat="44.23019" lon="6.74878">
        <ele>1737</ele>
        <time>2016-03-28T03:49:18Z</time>
      </trkpt>
      <trkpt lat="44.23007" lon="6.74874">
        <ele>1734</ele>
        <time>2016-03-28T03:51:18Z</time>
      </trkpt>
      <trkpt lat="44.22994" lon="6.74873">
        <ele>1731</ele>
        <time>2016-03-28T03:53:18Z</time>
      </trkpt>
      <trkpt lat="44.2298" lon="6.74875">
        <ele>1729</ele>
        <time>2016-03-28T03:55:18Z</time>
      </trkpt>
      <trkpt lat="44.22919" lon="6.74896">
        <ele>1719</ele>
        <time>2016-03-28T03:57:18Z</time>
      </trkpt>
      <trkpt lat="44.22887" lon="6.74905">
        <ele>1713</ele>
        <time>2016-03-28T03:59:18Z</time>
      </trkpt>
      <trkpt lat="44.22877" lon="6.74907">
        <ele>1712</ele>
        <time>2016-03-28T04:01:18Z</time>
      </trkpt>
      <trkpt lat="44.22871" lon="6.74906">
        <ele>1711</ele>
        <time>2016-03-28T04:03:18Z</time>
      </trkpt>
      <trkpt lat="44.22862" lon="6.749">
        <ele>1712</ele>
        <time>2016-03-28T04:05:18Z</time>
      </trkpt>
      <trkpt lat="44.22846" lon="6.74885">
        <ele>1713</ele>
        <time>2016-03-28T04:07:18Z</time>
      </trkpt>
      <trkpt lat="44.22842" lon="6.74881">
        <ele>1714</ele>
        <time>2016-03-28T04:09:18Z</time>
      </trkpt>
      <trkpt lat="44.2284" lon="6.74881">
        <ele>1714</ele>
        <time>2016-03-28T04:11:18Z</time>
      </trkpt>
      <trkpt lat="44.22833" lon="6.74879">
        <ele>1713</ele>
        <time>2016-03-28T04:13:18Z</time>
      </trkpt>
      <trkpt lat="44.22826" lon="6.74879">
        <ele>1713</ele>
        <time>2016-03-28T04:15:18Z</time>
      </trkpt>
      <trkpt lat="44.22791" lon="6.74889">
        <ele>1705</ele>
        <time>2016-03-28T04:17:18Z</time>
      </trkpt>
      <trkpt lat="44.22782" lon="6.74889">
        <ele>1704</ele>
        <time>2016-03-28T04:19:18Z</time>
      </trkpt>
      <trkpt lat="44.2278" lon="6.74889">
        <ele>1703</ele>
        <time>2016-03-28T04:21:18Z</time>
      </trkpt>
      <trkpt lat="44.22771" lon="6.74885">
        <ele>1703</ele>
        <time>2016-03-28T04:23:18Z</time>
      </trkpt>
      <trkpt lat="44.2277" lon="6.74885">
        <ele>1703</ele>
        <time>2016-03-28T04:25:18Z</time>
      </trkpt>
      <trkpt lat="44.22757" lon="6.74874">
        <ele>1705</ele>
        <time>2016-03-28T04:27:18Z</time>
      </trkpt>
      <trkpt lat="44.22744" lon="6.74866">
        <ele>1706</ele>
        <time>2016-03-28T04:29:18Z</time>
      </trkpt>
      <trkpt lat="44.22735" lon="6.74864">
        <ele>1705</ele>
        <time>2016-03-28T04:31:18Z</time>
      </trkpt>
      <trkpt lat="44.22733" lon="6.74864">
        <ele>1705</ele>
        <time>2016-03-28T04:33:18Z</time>
      </trkpt>
      <trkpt lat="44.22731" lon="6.74864">
        <ele>1705</ele>
        <time>2016-03-28T04:35:18Z</time>
      </trkpt>
      <trkpt lat="44.22723" lon="6.74865">
        <ele>1703</ele>
        <time>2016-03-28T04:37:18Z</time>
      </trkpt>
      <trkpt lat="44.22703" lon="6.74874">
        <ele>1697</ele>
        <time>2016-03-28T04:39:18Z</time>
      </trkpt>
      <trkpt lat="44.22675" lon="6.74886">
        <ele>1689</ele>
        <time>2016-03-28T04:41:18Z</time>
      </trkpt>
      <trkpt lat="44.22667" lon="6.74886">
        <ele>1688</ele>
        <time>2016-03-28T04:43:18Z</time>
      </trkpt>
      <trkpt lat="44.22656" lon="6.74885">
        <ele>1687</ele>
        <time>2016-03-28T04:45:18Z</time>
      </trkpt>
      <trkpt lat="44.22647" lon="6.74882">
        <ele>1687</ele>
        <time>2016-03-28T04:47:18Z</time>
      </trkpt>
      <trkpt lat="44.22634" lon="6.74872">
        <ele>1689</ele>
        <time>2016-03-28T04:49:18Z</time>
      </trkpt>
      <trkpt lat="44.22621" lon="6.74862">
        <ele>1691</ele>
        <time>2016-03-28T04:51:18Z</time>
      </trkpt>
      <trkpt lat="44.22616" lon="6.74858">
        <ele>1691</ele>
        <time>2016-03-28T04:53:18Z</time>
      </trkpt>
      <trkpt lat="44.22608" lon="6.74854">
        <ele>1692</ele>
        <time>2016-03-28T04:55:18Z</time>
      </trkpt>
      <trkpt lat="44.22595" lon="6.74854">
        <ele>1691</ele>
        <time>2016-03-28T04:57:18Z</time>
      </trkpt>
      <trkpt lat="44.22546" lon="6.74866">
        <ele>1681</ele>
        <time>2016-03-28T04:59:18Z</time>
      </trkpt>
      <trkpt lat="44.22536" lon="6.74866">
        <ele>1680</ele>
        <time>2016-03-28T05:01:18Z</time>
      </trkpt>
      <trkpt lat="44.22529" lon="6.74865">
        <ele>1679</ele>
        <time>2016-03-28T05:03:18Z</time>
      </trkpt>
      <trkpt lat="44.22519" lon="6.74861">
        <ele>1679</ele>
        <time>2016-03-28T05:05:18Z</time>
      </trkpt>
      <trkpt lat="44.22512" lon="6.74855">
        <ele>1680</ele>
        <time>2016-03-28T05:07:18Z</time>
      </trkpt>
      <trkpt lat="44.22491" lon="6.74836">
        <ele>1683</ele>
        <time>2016-03-28T05:09:18Z</time>
      </trkpt>
      <trkpt lat="44.22483" lon="6.74831">
        <ele>1683</ele>
        <time>2016-03-28T05:11:18Z</time>
      </trkpt>
      <trkpt lat="44.22465" lon="6.74825">
        <ele>1681</ele>
        <time>2016-03-28T05:13:18Z</time>
      </trkpt>
      <trkpt lat="44.22372" lon="6.74814">
        <ele>1670</ele>
        <time>2016-03-28T05:15:18Z</time>
      </trkpt>
      <trkpt lat="44.22323" lon="6.7481">
        <ele>1666</ele>
        <time>2016-03-28T05:17:18Z</time>
      </trkpt>
      <trkpt lat="44.22302" lon="6.74811">
        <ele>1663</ele>
        <time>2016-03-28T05:19:18Z</time>
      </trkpt>
      <trkpt lat="44.22298" lon="6.74812">
        <ele>1663</ele>
        <time>2016-03-28T05:21:18Z</time>
      </trkpt>
      <trkpt lat="44.22244" lon="6.74817">
        <ele>1656</ele>
        <time>2016-03-28T05:23:18Z</time>
      </trkpt>
      <trkpt lat="44.22207" lon="6.74813">
        <ele>1651</ele>
        <time>2016-03-28T05:25:18Z</time>
      </trkpt>
      <trkpt lat="44.22175" lon="6.74809">
        <ele>1647</ele>
        <time>2016-03-28T05:27:18Z</time>
      </trkpt>
      <trkpt lat="44.22163" lon="6.74807">
        <ele>1645</ele>
        <time>2016-03-28T05:29:18Z</time>
      </trkpt>
      <trkpt lat="44.22155" lon="6.74802">
        <ele>1644</ele>
        <time>2016-03-28T05:31:18Z</time>
      </trkpt>
      <trkpt lat="44.22146" lon="6.74795">
        <ele>1644</ele>
        <time>2016-03-28T05:33:18Z</time>
      </trkpt>
      <trkpt lat="44.22127" lon="6.74774">
        <ele>1645</ele>
        <time>2016-03-28T05:35:18Z</time>
      </trkpt>
      <trkpt lat="44.22097" lon="6.74739">
        <ele>1644</ele>
        <time>2016-03-28T05:37:18Z</time>
      </trkpt>
      <trkpt lat="44.22087" lon="6.74728">
        <ele>1642</ele>
        <time>2016-03-28T05:39:18Z</time>
      </trkpt>
      <trkpt lat="44.22078" lon="6.74716">
        <ele>1640</ele>
        <time>2016-03-28T05:41:18Z</time>
      </trkpt>
      <trkpt lat="44.2207" lon="6.74701">
        <ele>1638</ele>
        <time>2016-03-28T05:43:18Z</time>
      </trkpt>
      <trkpt lat="44.22053" lon="6.74658">
        <ele>1635</ele>
        <time>2016-03-28T05:45:18Z</time>
      </trkpt>
      <trkpt lat="44.22042" lon="6.74636">
        <ele>1634</ele>
        <time>2016-03-28T05:47:18Z</time>
      </trkpt>
      <trkpt lat="44.22032" lon="6.74616">
        <ele>1633</ele>
        <time>2016-03-28T05:49:18Z</time>
      </trkpt>
      <trkpt lat="44.22025" lon="6.74602">
        <ele>1632</ele>
        <time>2016-03-28T05:51:18Z</time>
      </trkpt>
      <trkpt lat="44.22014" lon="6.74586">
        <ele>1631</ele>
        <time>2016-03-28T05:53:18Z</time>
      </trkpt>
      <trkpt lat="44.22008" lon="6.74581">
        <ele>1629</ele>
        <time>2016-03-28T05:55:18Z</time>
      </trkpt>
      <trkpt lat="44.22005" lon="6.74579">
        <ele>1629</ele>
        <time>2016-03-28T05:57:18Z</time>
      </trkpt>
      <trkpt lat="44.21994" lon="6.74572">
        <ele>1627</ele>
        <time>2016-03-28T05:59:18Z</time>
      </trkpt>
      <trkpt lat="44.2198" lon="6.74567">
        <ele>1623</ele>
        <time>2016-03-28T06:01:18Z</time>
      </trkpt>
      <trkpt lat="44.21969" lon="6.74565">
        <ele>1619</ele>
        <time>2016-03-28T06:03:18Z</time>
      </trkpt>
      <trkpt lat="44.21954" lon="6.74564">
        <ele>1614</ele>
        <time>2016-03-28T06:05:18Z</time>
      </trkpt>
      <trkpt lat="44.21935" lon="6.74561">
        <ele>1608</ele>
        <time>2016-03-28T06:07:18Z</time>
      </trkpt>
      <trkpt lat="44.21924" lon="6.7456">
        <ele>1604</ele>
        <time>2016-03-28T06:09:18Z</time>
      </trkpt>
      <trkpt lat="44.21915" lon="6.74557">
        <ele>1601</ele>
        <time>2016-03-28T06:11:18Z</time>
      </trkpt>
      <trkpt lat="44.21904" lon="6.74548">
        <ele>1600</ele>
        <time>2016-03-28T06:13:18Z</time>
      </trkpt>
      <trkpt lat="44.21895" lon="6.74542">
        <ele>1598</ele>
        <time>2016-03-28T06:15:18Z</time>
      </trkpt>
      <trkpt lat="44.21893" lon="6.74541">
        <ele>1598</ele>
        <time>2016-03-28T06:17:18Z</time>
      </trkpt>
      <trkpt lat="44.21891" lon="6.74541">
        <ele>1597</ele>
        <time>2016-03-28T06:19:18Z</time>
      </trkpt>
      <trkpt lat="44.2189" lon="6.74541">
        <ele>1597</ele>
        <time>2016-03-28T06:21:18Z</time>
      </trkpt>
      <trkpt lat="44.21888" lon="6.74541">
        <ele>1596</ele>
        <time>2016-03-28T06:23:18Z</time>
      </trkpt>
      <trkpt lat="44.21885" lon="6.74542">
        <ele>1594</ele>
        <time>2016-03-28T06:25:18Z</time>
      </trkpt>
      <trkpt lat="44.21884" lon="6.74544">
        <ele>1593</ele>
        <time>2016-03-28T06:27:18Z</time>
      </trkpt>
      <trkpt lat="44.21883" lon="6.74549">
        <ele>1590</ele>
        <time>2016-03-28T06:29:18Z</time>
      </trkpt>
      <trkpt lat="44.21882" lon="6.74551">
        <ele>1589</ele>
        <time>2016-03-28T06:31:18Z</time>
      </trkpt>
      <trkpt lat="44.21882" lon="6.74553">
        <ele>1588</ele>
        <time>2016-03-28T06:33:18Z</time>
      </trkpt>
      <trkpt lat="44.21883" lon="6.74557">
        <ele>1587</ele>
        <time>2016-03-28T06:35:18Z</time>
      </trkpt>
      <trkpt lat="44.21883" lon="6.7456">
        <ele>1586</ele>
        <time>2016-03-28T06:37:18Z</time>
      </trkpt>
      <trkpt lat="44.21884" lon="6.74564">
        <ele>1585</ele>
        <time>2016-03-28T06:39:18Z</time>
      </trkpt>
      <trkpt lat="44.21886" lon="6.74566">
        <ele>1585</ele>
        <time>2016-03-28T06:41:18Z</time>
      </trkpt>
      <trkpt lat="44.21887" lon="6.74567">
        <ele>1585</ele>
        <time>2016-03-28T06:43:18Z</time>
      </trkpt>
      <trkpt lat="44.21892" lon="6.74569">
        <ele>1586</ele>
        <time>2016-03-28T06:45:18Z</time>
      </trkpt>
      <trkpt lat="44.21901" lon="6.74574">
        <ele>1588</ele>
        <time>2016-03-28T06:47:18Z</time>
      </trkpt>
      <trkpt lat="44.21923" lon="6.74578">
        <ele>1597</ele>
        <time>2016-03-28T06:49:18Z</time>
      </trkpt>
      <trkpt lat="44.21943" lon="6.74582">
        <ele>1603</ele>
        <time>2016-03-28T06:51:18Z</time>
      </trkpt>
      <trkpt lat="44.21953" lon="6.74586">
        <ele>1606</ele>
        <time>2016-03-28T06:53:18Z</time>
      </trkpt>
      <trkpt lat="44.21973" lon="6.74606">
        <ele>1609</ele>
        <time>2016-03-28T06:55:18Z</time>
      </trkpt>
      <trkpt lat="44.21983" lon="6.74619">
        <ele>1610</ele>
        <time>2016-03-28T06:57:18Z</time>
      </trkpt>
      <trkpt lat="44.21984" lon="6.74621">
        <ele>1610</ele>
        <time>2016-03-28T06:59:18Z</time>
      </trkpt>
      <trkpt lat="44.21986" lon="6.74631">
        <ele>1609</ele>
        <time>2016-03-28T07:01:18Z</time>
      </trkpt>
      <trkpt lat="44.2199" lon="6.74657">
        <ele>1605</ele>
        <time>2016-03-28T07:03:18Z</time>
      </trkpt>
      <trkpt lat="44.2199" lon="6.74673">
        <ele>1603</ele>
        <time>2016-03-28T07:05:18Z</time>
      </trkpt>
      <trkpt lat="44.21988" lon="6.74692">
        <ele>1602</ele>
        <time>2016-03-28T07:07:18Z</time>
      </trkpt>
      <trkpt lat="44.21981" lon="6.74709">
        <ele>1598</ele>
        <time>2016-03-28T07:09:18Z</time>
      </trkpt>
      <trkpt lat="44.21978" lon="6.74718">
        <ele>1597</ele>
        <time>2016-03-28T07:11:18Z</time>
      </trkpt>
      <trkpt lat="44.21967" lon="6.7475">
        <ele>1592</ele>
        <time>2016-03-28T07:13:18Z</time>
      </trkpt>
      <trkpt lat="44.2196" lon="6.74767">
        <ele>1591</ele>
        <time>2016-03-28T07:15:18Z</time>
      </trkpt>
      <trkpt lat="44.21951" lon="6.74789">
        <ele>1590</ele>
        <time>2016-03-28T07:17:18Z</time>
      </trkpt>
      <trkpt lat="44.21943" lon="6.74803">
        <ele>1590</ele>
        <time>2016-03-28T07:19:18Z</time>
      </trkpt>
      <trkpt lat="44.2194" lon="6.74807">
        <ele>1590</ele>
        <time>2016-03-28T07:21:18Z</time>
      </trkpt>
      <trkpt lat="44.21936" lon="6.7481">
        <ele>1589</ele>
        <time>2016-03-28T07:23:18Z</time>
      </trkpt>
      <trkpt lat="44.2193" lon="6.74811">
        <ele>1588</ele>
        <time>2016-03-28T07:25:18Z</time>
      </trkpt>
      <trkpt lat="44.21915" lon="6.74806">
        <ele>1584</ele>
        <time>2016-03-28T07:27:18Z</time>
      </trkpt>
      <trkpt lat="44.219" lon="6.74798">
        <ele>1582</ele>
        <time>2016-03-28T07:29:18Z</time>
      </trkpt>
      <trkpt lat="44.21877" lon="6.74786">
        <ele>1577</ele>
        <time>2016-03-28T07:31:18Z</time>
      </trkpt>
      <trkpt lat="44.21874" lon="6.74783">
        <ele>1576</ele>
        <time>2016-03-28T07:33:18Z</time>
      </trkpt>
      <trkpt lat="44.2187" lon="6.74782">
        <ele>1575</ele>
        <time>2016-03-28T07:35:18Z</time>
      </trkpt>
      <trkpt lat="44.21858" lon="6.74778">
        <ele>1573</ele>
        <time>2016-03-28T07:37:18Z</time>
      </trkpt>
      <trkpt lat="44.21852" lon="6.74779">
        <ele>1572</ele>
        <time>2016-03-28T07:39:18Z</time>
      </trkpt>
      <trkpt lat="44.21849" lon="6.74779">
        <ele>1572</ele>
        <time>2016-03-28T07:41:18Z</time>
      </trkpt>
      <trkpt lat="44.21846" lon="6.74782">
        <ele>1574</ele>
        <time>2016-03-28T07:43:18Z</time>
      </trkpt>
      <trkpt lat="44.21832" lon="6.7479">
        <ele>1577</ele>
        <time>2016-03-28T07:45:18Z</time>
      </trkpt>
      <trkpt lat="44.21818" lon="6.74799">
        <ele>1579</ele>
        <time>2016-03-28T07:47:18Z</time>
      </trkpt>
      <trkpt lat="44.21799" lon="6.74813">
        <ele>1582</ele>
        <time>2016-03-28T07:49:18Z</time>
      </trkpt>
      <trkpt lat="44.21776" lon="6.74834">
        <ele>1586</ele>
        <time>2016-03-28T07:51:18Z</time>
      </trkpt>
      <trkpt lat="44.21731" lon="6.74881">
        <ele>1601</ele>
        <time>2016-03-28T07:53:18Z</time>
      </trkpt>
      <trkpt lat="44.21722" lon="6.74889">
        <ele>1602</ele>
        <time>2016-03-28T07:55:18Z</time>
      </trkpt>
      <trkpt lat="44.21703" lon="6.74896">
        <ele>1599</ele>
        <time>2016-03-28T07:57:18Z</time>
      </trkpt>
      <trkpt lat="44.21676" lon="6.74904">
        <ele>1592</ele>
        <time>2016-03-28T07:59:18Z</time>
      </trkpt>
      <trkpt lat="44.21659" lon="6.7491">
        <ele>1592</ele>
        <time>2016-03-28T08:01:18Z</time>
      </trkpt>
      <trkpt lat="44.21658" lon="6.74911">
        <ele>1593</ele>
        <time>2016-03-28T08:03:18Z</time>
      </trkpt>
      <trkpt lat="44.21648" lon="6.74915">
        <ele>1596</ele>
        <time>2016-03-28T08:05:18Z</time>
      </trkpt>
      <trkpt lat="44.21642" lon="6.74915">
        <ele>1597</ele>
        <time>2016-03-28T08:07:18Z</time>
      </trkpt>
      <trkpt lat="44.21635" lon="6.74913">
        <ele>1598</ele>
        <time>2016-03-28T08:09:18Z</time>
      </trkpt>
      <trkpt lat="44.21628" lon="6.7491">
        <ele>1598</ele>
        <time>2016-03-28T08:11:18Z</time>
      </trkpt>
      <trkpt lat="44.21623" lon="6.74905">
        <ele>1597</ele>
        <time>2016-03-28T08:13:18Z</time>
      </trkpt>
      <trkpt lat="44.2162" lon="6.74903">
        <ele>1597</ele>
        <time>2016-03-28T08:15:18Z</time>
      </trkpt>
      <trkpt lat="44.21616" lon="6.74897">
        <ele>1596</ele>
        <time>2016-03-28T08:17:18Z</time>
      </trkpt>
      <trkpt lat="44.21614" lon="6.74893">
        <ele>1595</ele>
        <time>2016-03-28T08:19:18Z</time>
      </trkpt>
      <trkpt lat="44.21612" lon="6.74888">
        <ele>1594</ele>
        <time>2016-03-28T08:21:18Z</time>
      </trkpt>
      <trkpt lat="44.21607" lon="6.74873">
        <ele>1591</ele>
        <time>2016-03-28T08:23:18Z</time>
      </trkpt>
      <trkpt lat="44.21604" lon="6.74864">
        <ele>1588</ele>
        <time>2016-03-28T08:25:18Z</time>
      </trkpt>
      <trkpt lat="44.216" lon="6.74855">
        <ele>1587</ele>
        <time>2016-03-28T08:27:18Z</time>
      </trkpt>
      <trkpt lat="44.21595" lon="6.74847">
        <ele>1585</ele>
        <time>2016-03-28T08:29:18Z</time>
      </trkpt>
      <trkpt lat="44.21593" lon="6.74845">
        <ele>1585</ele>
        <time>2016-03-28T08:31:18Z</time>
      </trkpt>
      <trkpt lat="44.21582" lon="6.74835">
        <ele>1585</ele>
        <time>2016-03-28T08:33:18Z</time>
      </trkpt>
      <trkpt lat="44.2157" lon="6.74829">
        <ele>1585</ele>
        <time>2016-03-28T08:35:18Z</time>
      </trkpt>
      <trkpt lat="44.21548" lon="6.74821">
        <ele>1587</ele>
        <time>2016-03-28T08:37:18Z</time>
      </trkpt>
      <trkpt lat="44.21534" lon="6.74816">
        <ele>1589</ele>
        <time>2016-03-28T08:39:18Z</time>
      </trkpt>
      <trkpt lat="44.2152" lon="6.74809">
        <ele>1589</ele>
        <time>2016-03-28T08:41:18Z</time>
      </trkpt>
      <trkpt lat="44.21507" lon="6.74797">
        <ele>1587</ele>
        <time>2016-03-28T08:43:18Z</time>
      </trkpt>
      <trkpt lat="44.21497" lon="6.74787">
        <ele>1585</ele>
        <time>2016-03-28T08:45:18Z</time>
      </trkpt>
      <trkpt lat="44.21487" lon="6.74782">
        <ele>1584</ele>
        <time>2016-03-28T08:47:18Z</time>
      </trkpt>
      <trkpt lat="44.21477" lon="6.74779">
        <ele>1582</ele>
        <time>2016-03-28T08:49:18Z</time>
      </trkpt>
      <trkpt lat="44.21468" lon="6.74778">
        <ele>1582</ele>
        <time>2016-03-28T08:51:18Z</time>
      </trkpt>
      <trkpt lat="44.21424" lon="6.74782">
        <ele>1584</ele>
        <time>2016-03-28T08:53:18Z</time>
      </trkpt>
      <trkpt lat="44.21411" lon="6.74783">
        <ele>1585</ele>
        <time>2016-03-28T08:55:18Z</time>
      </trkpt>
      <trkpt lat="44.21404" lon="6.74783">
        <ele>1585</ele>
        <time>2016-03-28T08:57:18Z</time>
      </trkpt>
      <trkpt lat="44.21395" lon="6.74783">
        <ele>1585</ele>
        <time>2016-03-28T08:59:18Z</time>
      </trkpt>
      <trkpt lat="44.21385" lon="6.74782">
        <ele>1584</ele>
        <time>2016-03-28T09:01:18Z</time>
      </trkpt>
      <trkpt lat="44.21376" lon="6.74781">
        <ele>1584</ele>
        <time>2016-03-28T09:03:18Z</time>
      </trkpt>
      <trkpt lat="44.21354" lon="6.74784">
        <ele>1586</ele>
        <time>2016-03-28T09:05:18Z</time>
      </trkpt>
      <trkpt lat="44.21346" lon="6.74784">
        <ele>1586</ele>
        <time>2016-03-28T09:07:18Z</time>
      </trkpt>
      <trkpt lat="44.21339" lon="6.74784">
        <ele>1586</ele>
        <time>2016-03-28T09:09:18Z</time>
      </trkpt>
      <trkpt lat="44.21331" lon="6.74783">
        <ele>1586</ele>
        <time>2016-03-28T09:11:18Z</time>
      </trkpt>
      <trkpt lat="44.21329" lon="6.74782">
        <ele>1586</ele>
        <time>2016-03-28T09:13:18Z</time>
      </trkpt>
      <trkpt lat="44.21323" lon="6.74773">
        <ele>1582</ele>
        <time>2016-03-28T09:15:18Z</time>
      </trkpt>
      <trkpt lat="44.21317" lon="6.74765">
        <ele>1579</ele>
        <time>2016-03-28T09:17:18Z</time>
      </trkpt>
      <trkpt lat="44.2131" lon="6.74756">
        <ele>1575</ele>
        <time>2016-03-28T09:19:18Z</time>
      </trkpt>
      <trkpt lat="44.21298" lon="6.74749">
        <ele>1574</ele>
        <time>2016-03-28T09:21:18Z</time>
      </trkpt>
      <trkpt lat="44.21282" lon="6.74738">
        <ele>1572</ele>
        <time>2016-03-28T09:23:18Z</time>
      </trkpt>
      <trkpt lat="44.21269" lon="6.74733">
        <ele>1572</ele>
        <time>2016-03-28T09:25:18Z</time>
      </trkpt>
      <trkpt lat="44.21258" lon="6.74732">
        <ele>1573</ele>
        <time>2016-03-28T09:27:18Z</time>
      </trkpt>
      <trkpt lat="44.2123" lon="6.74733">
        <ele>1576</ele>
        <time>2016-03-28T09:29:18Z</time>
      </trkpt>
      <trkpt lat="44.21219" lon="6.74731">
        <ele>1576</ele>
        <time>2016-03-28T09:31:18Z</time>
      </trkpt>
      <trkpt lat="44.21209" lon="6.74725">
        <ele>1574</ele>
        <time>2016-03-28T09:33:18Z</time>
      </trkpt>
      <trkpt lat="44.21197" lon="6.74718">
        <ele>1571</ele>
        <time>2016-03-28T09:35:18Z</time>
      </trkpt>
      <trkpt lat="44.21185" lon="6.74714">
        <ele>1570</ele>
        <time>2016-03-28T09:37:18Z</time>
      </trkpt>
      <trkpt lat="44.21155" lon="6.74713">
        <ele>1572</ele>
        <time>2016-03-28T09:39:18Z</time>
      </trkpt>
      <trkpt lat="44.21144" lon="6.74715">
        <ele>1573</ele>
        <time>2016-03-28T09:41:18Z</time>
      </trkpt>
      <trkpt lat="44.21138" lon="6.74711">
        <ele>1572</ele>
        <time>2016-03-28T09:43:18Z</time>
      </trkpt>
      <trkpt lat="44.21132" lon="6.74707">
        <ele>1571</ele>
        <time>2016-03-28T09:45:18Z</time>
      </trkpt>
      <trkpt lat="44.21127" lon="6.74706">
        <ele>1571</ele>
        <time>2016-03-28T09:47:18Z</time>
      </trkpt>
      <trkpt lat="44.21121" lon="6.74703">
        <ele>1570</ele>
        <time>2016-03-28T09:49:18Z</time>
      </trkpt>
      <trkpt lat="44.21119" lon="6.74702">
        <ele>1570</ele>
        <time>2016-03-28T09:51:18Z</time>
      </trkpt>
      <trkpt lat="44.21115" lon="6.74696">
        <ele>1567</ele>
        <time>2016-03-28T09:53:18Z</time>
      </trkpt>
      <trkpt lat="44.21109" lon="6.74685">
        <ele>1563</ele>
        <time>2016-03-28T09:55:18Z</time>
      </trkpt>
      <trkpt lat="44.21103" lon="6.7467">
        <ele>1557</ele>
        <time>2016-03-28T09:57:18Z</time>
      </trkpt>
      <trkpt lat="44.21099" lon="6.74663">
        <ele>1555</ele>
        <time>2016-03-28T09:59:18Z</time>
      </trkpt>
      <trkpt lat="44.21098" lon="6.74661">
        <ele>1554</ele>
        <time>2016-03-28T10:01:18Z</time>
      </trkpt>
      <trkpt lat="44.21092" lon="6.74657">
        <ele>1553</ele>
        <time>2016-03-28T10:03:18Z</time>
      </trkpt>
      <trkpt lat="44.21085" lon="6.74653">
        <ele>1552</ele>
        <time>2016-03-28T10:05:18Z</time>
      </trkpt>
      <trkpt lat="44.21075" lon="6.74651">
        <ele>1553</ele>
        <time>2016-03-28T10:07:18Z</time>
      </trkpt>
      <trkpt lat="44.2106" lon="6.74654">
        <ele>1556</ele>
        <time>2016-03-28T10:09:18Z</time>
      </trkpt>
      <trkpt lat="44.21038" lon="6.74659">
        <ele>1560</ele>
        <time>2016-03-28T10:11:18Z</time>
      </trkpt>
      <trkpt lat="44.21028" lon="6.74659">
        <ele>1562</ele>
        <time>2016-03-28T10:13:18Z</time>
      </trkpt>
      <trkpt lat="44.21019" lon="6.74656">
        <ele>1562</ele>
        <time>2016-03-28T10:15:18Z</time>
      </trkpt>
      <trkpt lat="44.21011" lon="6.74649">
        <ele>1560</ele>
        <time>2016-03-28T10:17:18Z</time>
      </trkpt>
      <trkpt lat="44.20998" lon="6.7462">
        <ele>1553</ele>
        <time>2016-03-28T10:19:18Z</time>
      </trkpt>
      <trkpt lat="44.20986" lon="6.74601">
        <ele>1550</ele>
        <time>2016-03-28T10:21:18Z</time>
      </trkpt>
      <trkpt lat="44.20971" lon="6.74576">
        <ele>1546</ele>
        <time>2016-03-28T10:23:18Z</time>
      </trkpt>
      <trkpt lat="44.20953" lon="6.74532">
        <ele>1536</ele>
        <time>2016-03-28T10:25:18Z</time>
      </trkpt>
      <trkpt lat="44.20945" lon="6.74516">
        <ele>1534</ele>
        <time>2016-03-28T10:27:18Z</time>
      </trkpt>
      <trkpt lat="44.20934" lon="6.74499">
        <ele>1534</ele>
        <time>2016-03-28T10:29:18Z</time>
      </trkpt>
      <trkpt lat="44.20917" lon="6.74474">
        <ele>1530</ele>
        <time>2016-03-28T10:31:18Z</time>
      </trkpt>
      <trkpt lat="44.20911" lon="6.74466">
        <ele>1526</ele>
        <time>2016-03-28T10:33:18Z</time>
      </trkpt>
      <trkpt lat="44.20906" lon="6.74463">
        <ele>1524</ele>
        <time>2016-03-28T10:35:18Z</time>
      </trkpt>
      <trkpt lat="44.20901" lon="6.74461">
        <ele>1523</ele>
        <time>2016-03-28T10:37:18Z</time>
      </trkpt>
      <trkpt lat="44.20894" lon="6.7446">
        <ele>1521</ele>
        <time>2016-03-28T10:39:18Z</time>
      </trkpt>
      <trkpt lat="44.20888" lon="6.74462">
        <ele>1521</ele>
        <time>2016-03-28T10:41:18Z</time>
      </trkpt>
      <trkpt lat="44.20881" lon="6.74466">
        <ele>1521</ele>
        <time>2016-03-28T10:43:18Z</time>
      </trkpt>
      <trkpt lat="44.20874" lon="6.74471">
        <ele>1522</ele>
        <time>2016-03-28T10:45:18Z</time>
      </trkpt>
      <trkpt lat="44.20855" lon="6.74487">
        <ele>1524</ele>
        <time>2016-03-28T10:47:18Z</time>
      </trkpt>
      <trkpt lat="44.20854" lon="6.74488">
        <ele>1524</ele>
        <time>2016-03-28T10:49:18Z</time>
      </trkpt>
      <trkpt lat="44.20838" lon="6.74509">
        <ele>1526</ele>
        <time>2016-03-28T10:51:18Z</time>
      </trkpt>
      <trkpt lat="44.20837" lon="6.74511">
        <ele>1526</ele>
        <time>2016-03-28T10:53:18Z</time>
      </trkpt>
      <trkpt lat="44.20826" lon="6.74533">
        <ele>1528</ele>
        <time>2016-03-28T10:55:18Z</time>
      </trkpt>
      <trkpt lat="44.20817" lon="6.74548">
        <ele>1528</ele>
        <time>2016-03-28T10:57:18Z</time>
      </trkpt>
      <trkpt lat="44.20799" lon="6.74569">
        <ele>1527</ele>
        <time>2016-03-28T10:59:18Z</time>
      </trkpt>
      <trkpt lat="44.20754" lon="6.74611">
        <ele>1524</ele>
        <time>2016-03-28T11:01:18Z</time>
      </trkpt>
      <trkpt lat="44.20744" lon="6.74618">
        <ele>1525</ele>
        <time>2016-03-28T11:03:18Z</time>
      </trkpt>
      <trkpt lat="44.20735" lon="6.7462">
        <ele>1525</ele>
        <time>2016-03-28T11:05:18Z</time>
      </trkpt>
      <trkpt lat="44.20727" lon="6.74619">
        <ele>1524</ele>
        <time>2016-03-28T11:07:18Z</time>
      </trkpt>
      <trkpt lat="44.20721" lon="6.74616">
        <ele>1523</ele>
        <time>2016-03-28T11:09:18Z</time>
      </trkpt>
      <trkpt lat="44.20717" lon="6.74614">
        <ele>1522</ele>
        <time>2016-03-28T11:11:18Z</time>
      </trkpt>
      <trkpt lat="44.20712" lon="6.74606">
        <ele>1519</ele>
        <time>2016-03-28T11:13:18Z</time>
      </trkpt>
      <trkpt lat="44.20703" lon="6.74592">
        <ele>1515</ele>
        <time>2016-03-28T11:15:18Z</time>
      </trkpt>
      <trkpt lat="44.20694" lon="6.74582">
        <ele>1511</ele>
        <time>2016-03-28T11:17:18Z</time>
      </trkpt>
      <trkpt lat="44.20687" lon="6.74578">
        <ele>1509</ele>
        <time>2016-03-28T11:19:18Z</time>
      </trkpt>
      <trkpt lat="44.20677" lon="6.74574">
        <ele>1507</ele>
        <time>2016-03-28T11:21:18Z</time>
      </trkpt>
      <trkpt lat="44.20618" lon="6.74568">
        <ele>1500</ele>
        <time>2016-03-28T11:23:18Z</time>
      </trkpt>
      <trkpt lat="44.20608" lon="6.7457">
        <ele>1500</ele>
        <time>2016-03-28T11:25:18Z</time>
      </trkpt>
      <trkpt lat="44.20575" lon="6.74586">
        <ele>1503</ele>
        <time>2016-03-28T11:27:18Z</time>
      </trkpt>
      <trkpt lat="44.20499" lon="6.7462">
        <ele>1502</ele>
        <time>2016-03-28T11:29:18Z</time>
      </trkpt>
      <trkpt lat="44.20487" lon="6.74623">
        <ele>1502</ele>
        <time>2016-03-28T11:31:18Z</time>
      </trkpt>
      <trkpt lat="44.20478" lon="6.74622">
        <ele>1501</ele>
        <time>2016-03-28T11:33:18Z</time>
      </trkpt>
      <trkpt lat="44.20471" lon="6.7462">
        <ele>1500</ele>
        <time>2016-03-28T11:35:18Z</time>
      </trkpt>
      <trkpt lat="44.20462" lon="6.74616">
        <ele>1498</ele>
        <time>2016-03-28T11:37:18Z</time>
      </trkpt>
      <trkpt lat="44.20449" lon="6.74604">
        <ele>1493</ele>
        <time>2016-03-28T11:39:18Z</time>
      </trkpt>
      <trkpt lat="44.20439" lon="6.74588">
        <ele>1489</ele>
        <time>2016-03-28T11:41:18Z</time>
      </trkpt>
      <trkpt lat="44.20428" lon="6.74577">
        <ele>1485</ele>
        <time>2016-03-28T11:43:18Z</time>
      </trkpt>
      <trkpt lat="44.2042" lon="6.74573">
        <ele>1483</ele>
        <time>2016-03-28T11:45:18Z</time>
      </trkpt>
      <trkpt lat="44.20411" lon="6.74573">
        <ele>1482</ele>
        <time>2016-03-28T11:47:18Z</time>
      </trkpt>
      <trkpt lat="44.20405" lon="6.74577">
        <ele>1482</ele>
        <time>2016-03-28T11:49:18Z</time>
      </trkpt>
      <trkpt lat="44.20399" lon="6.74587">
        <ele>1483</ele>
        <time>2016-03-28T11:51:18Z</time>
      </trkpt>
      <trkpt lat="44.20393" lon="6.74601">
        <ele>1484</ele>
        <time>2016-03-28T11:53:18Z</time>
      </trkpt>
      <trkpt lat="44.20389" lon="6.74626">
        <ele>1488</ele>
        <time>2016-03-28T11:55:18Z</time>
      </trkpt>
      <trkpt lat="44.20386" lon="6.74638">
        <ele>1489</ele>
        <time>2016-03-28T11:57:18Z</time>
      </trkpt>
      <trkpt lat="44.20374" lon="6.74661">
        <ele>1490</ele>
        <time>2016-03-28T11:59:18Z</time>
      </trkpt>
      <trkpt lat="44.20366" lon="6.74674">
        <ele>1490</ele>
        <time>2016-03-28T12:01:18Z</time>
      </trkpt>
      <trkpt lat="44.20356" lon="6.74679">
        <ele>1488</ele>
        <time>2016-03-28T12:03:18Z</time>
      </trkpt>
      <trkpt lat="44.20342" lon="6.7468">
        <ele>1484</ele>
        <time>2016-03-28T12:05:18Z</time>
      </trkpt>
      <trkpt lat="44.20304" lon="6.74671">
        <ele>1475</ele>
        <time>2016-03-28T12:07:18Z</time>
      </trkpt>
      <trkpt lat="44.20242" lon="6.74655">
        <ele>1462</ele>
        <time>2016-03-28T12:09:18Z</time>
      </trkpt>
      <trkpt lat="44.20232" lon="6.74655">
        <ele>1460</ele>
        <time>2016-03-28T12:11:18Z</time>
      </trkpt>
      <trkpt lat="44.20224" lon="6.74658">
        <ele>1459</ele>
        <time>2016-03-28T12:13:18Z</time>
      </trkpt>
      <trkpt lat="44.20222" lon="6.7466">
        <ele>1459</ele>
        <time>2016-03-28T12:15:18Z</time>
      </trkpt>
      <trkpt lat="44.2022" lon="6.74662">
        <ele>1459</ele>
        <time>2016-03-28T12:17:18Z</time>
      </trkpt>
      <trkpt lat="44.20217" lon="6.74665">
        <ele>1459</ele>
        <time>2016-03-28T12:19:18Z</time>
      </trkpt>
      <trkpt lat="44.20217" lon="6.74666">
        <ele>1459</ele>
        <time>2016-03-28T12:21:18Z</time>
      </trkpt>
      <trkpt lat="44.20203" lon="6.74691">
        <ele>1462</ele>
        <time>2016-03-28T12:23:18Z</time>
      </trkpt>
      <trkpt lat="44.20189" lon="6.74715">
        <ele>1464</ele>
        <time>2016-03-28T12:25:18Z</time>
      </trkpt>
      <trkpt lat="44.20187" lon="6.74718">
        <ele>1464</ele>
        <time>2016-03-28T12:27:18Z</time>
      </trkpt>
      <trkpt lat="44.20183" lon="6.74721">
        <ele>1464</ele>
        <time>2016-03-28T12:29:18Z</time>
      </trkpt>
      <trkpt lat="44.20171" lon="6.74729">
        <ele>1463</ele>
        <time>2016-03-28T12:31:18Z</time>
      </trkpt>
      <trkpt lat="44.20168" lon="6.74731">
        <ele>1463</ele>
        <time>2016-03-28T12:33:18Z</time>
      </trkpt>
      <trkpt lat="44.20158" lon="6.74735">
        <ele>1461</ele>
        <time>2016-03-28T12:35:18Z</time>
      </trkpt>
      <trkpt lat="44.20153" lon="6.74738">
        <ele>1461</ele>
        <time>2016-03-28T12:37:18Z</time>
      </trkpt>
      <trkpt lat="44.20149" lon="6.74739">
        <ele>1460</ele>
        <time>2016-03-28T12:39:18Z</time>
      </trkpt>
      <trkpt lat="44.20138" lon="6.74737">
        <ele>1457</ele>
        <time>2016-03-28T12:41:18Z</time>
      </trkpt>
      <trkpt lat="44.20126" lon="6.74731">
        <ele>1453</ele>
        <time>2016-03-28T12:43:18Z</time>
      </trkpt>
      <trkpt lat="44.20114" lon="6.7473">
        <ele>1450</ele>
        <time>2016-03-28T12:45:18Z</time>
      </trkpt>
      <trkpt lat="44.20106" lon="6.74732">
        <ele>1449</ele>
        <time>2016-03-28T12:47:18Z</time>
      </trkpt>
      <trkpt lat="44.20099" lon="6.74736">
        <ele>1448</ele>
        <time>2016-03-28T12:49:18Z</time>
      </trkpt>
      <trkpt lat="44.20085" lon="6.7476">
        <ele>1451</ele>
        <time>2016-03-28T12:51:18Z</time>
      </trkpt>
      <trkpt lat="44.20069" lon="6.74783">
        <ele>1454</ele>
        <time>2016-03-28T12:53:18Z</time>
      </trkpt>
      <trkpt lat="44.20061" lon="6.74792">
        <ele>1454</ele>
        <time>2016-03-28T12:55:18Z</time>
      </trkpt>
      <trkpt lat="44.20041" lon="6.74809">
        <ele>1454</ele>
        <time>2016-03-28T12:57:18Z</time>
      </trkpt>
      <trkpt lat="44.2003" lon="6.74812">
        <ele>1451</ele>
        <time>2016-03-28T12:59:18Z</time>
      </trkpt>
      <trkpt lat="44.19996" lon="6.74818">
        <ele>1444</ele>
        <time>2016-03-28T13:01:18Z</time>
      </trkpt>
      <trkpt lat="44.19908" lon="6.74837">
        <ele>1436</ele>
        <time>2016-03-28T13:03:18Z</time>
      </trkpt>
      <trkpt lat="44.19888" lon="6.74837">
        <ele>1429</ele>
        <time>2016-03-28T13:05:18Z</time>
      </trkpt>
      <trkpt lat="44.19876" lon="6.74847">
        <ele>1427</ele>
        <time>2016-03-28T13:07:18Z</time>
      </trkpt>
      <trkpt lat="44.1987" lon="6.74854">
        <ele>1426</ele>
        <time>2016-03-28T13:09:18Z</time>
      </trkpt>
      <trkpt lat="44.19863" lon="6.74866">
        <ele>1427</ele>
        <time>2016-03-28T13:11:18Z</time>
      </trkpt>
      <trkpt lat="44.19855" lon="6.74887">
        <ele>1428</ele>
        <time>2016-03-28T13:13:18Z</time>
      </trkpt>
      <trkpt lat="44.19849" lon="6.74908">
        <ele>1431</ele>
        <time>2016-03-28T13:15:18Z</time>
      </trkpt>
      <trkpt lat="44.19844" lon="6.74931">
        <ele>1434</ele>
        <time>2016-03-28T13:17:18Z</time>
      </trkpt>
      <trkpt lat="44.19841" lon="6.74934">
        <ele>1434</ele>
        <time>2016-03-28T13:19:18Z</time>
      </trkpt>
      <trkpt lat="44.19839" lon="6.74936">
        <ele>1434</ele>
        <time>2016-03-28T13:21:18Z</time>
      </trkpt>
      <trkpt lat="44.19834" lon="6.74938">
        <ele>1433</ele>
        <time>2016-03-28T13:23:18Z</time>
      </trkpt>
      <trkpt lat="44.19829" lon="6.74936">
        <ele>1432</ele>
        <time>2016-03-28T13:25:18Z</time>
      </trkpt>
      <trkpt lat="44.19821" lon="6.7493">
        <ele>1430</ele>
        <time>2016-03-28T13:27:18Z</time>
      </trkpt>
      <trkpt lat="44.19814" lon="6.7492">
        <ele>1427</ele>
        <time>2016-03-28T13:29:18Z</time>
      </trkpt>
      <trkpt lat="44.19806" lon="6.74901">
        <ele>1422</ele>
        <time>2016-03-28T13:31:18Z</time>
      </trkpt>
      <trkpt lat="44.19794" lon="6.74884">
        <ele>1417</ele>
        <time>2016-03-28T13:33:18Z</time>
      </trkpt>
      <trkpt lat="44.19775" lon="6.74863">
        <ele>1409</ele>
        <time>2016-03-28T13:35:18Z</time>
      </trkpt>
      <trkpt lat="44.19771" lon="6.7486">
        <ele>1408</ele>
        <time>2016-03-28T13:37:18Z</time>
      </trkpt>
      <trkpt lat="44.19768" lon="6.74858">
        <ele>1407</ele>
        <time>2016-03-28T13:39:18Z</time>
      </trkpt>
      <trkpt lat="44.19763" lon="6.74858">
        <ele>1406</ele>
        <time>2016-03-28T13:41:18Z</time>
      </trkpt>
      <trkpt lat="44.1976" lon="6.74859">
        <ele>1406</ele>
        <time>2016-03-28T13:43:18Z</time>
      </trkpt>
      <trkpt lat="44.19757" lon="6.74861">
        <ele>1406</ele>
        <time>2016-03-28T13:45:18Z</time>
      </trkpt>
      <trkpt lat="44.19752" lon="6.74864">
        <ele>1406</ele>
        <time>2016-03-28T13:47:18Z</time>
      </trkpt>
      <trkpt lat="44.19745" lon="6.74879">
        <ele>1410</ele>
        <time>2016-03-28T13:49:18Z</time>
      </trkpt>
      <trkpt lat="44.19741" lon="6.74888">
        <ele>1412</ele>
        <time>2016-03-28T13:51:18Z</time>
      </trkpt>
      <trkpt lat="44.19736" lon="6.74897">
        <ele>1414</ele>
        <time>2016-03-28T13:53:18Z</time>
      </trkpt>
      <trkpt lat="44.19732" lon="6.74901">
        <ele>1415</ele>
        <time>2016-03-28T13:55:18Z</time>
      </trkpt>
      <trkpt lat="44.19728" lon="6.74904">
        <ele>1415</ele>
        <time>2016-03-28T13:57:18Z</time>
      </trkpt>
      <trkpt lat="44.19688" lon="6.74927">
        <ele>1415</ele>
        <time>2016-03-28T13:59:18Z</time>
      </trkpt>
      <trkpt lat="44.19685" lon="6.74929">
        <ele>1415</ele>
        <time>2016-03-28T14:01:18Z</time>
      </trkpt>
      <trkpt lat="44.19683" lon="6.7493">
        <ele>1415</ele>
        <time>2016-03-28T14:03:18Z</time>
      </trkpt>
      <trkpt lat="44.19677" lon="6.74931">
        <ele>1414</ele>
        <time>2016-03-28T14:05:18Z</time>
      </trkpt>
      <trkpt lat="44.19673" lon="6.74929">
        <ele>1413</ele>
        <time>2016-03-28T14:07:18Z</time>
      </trkpt>
      <trkpt lat="44.1967" lon="6.74926">
        <ele>1411</ele>
        <time>2016-03-28T14:09:18Z</time>
      </trkpt>
      <trkpt lat="44.19665" lon="6.74919">
        <ele>1408</ele>
        <time>2016-03-28T14:11:18Z</time>
      </trkpt>
      <trkpt lat="44.19662" lon="6.74913">
        <ele>1407</ele>
        <time>2016-03-28T14:13:18Z</time>
      </trkpt>
      <trkpt lat="44.19659" lon="6.74907">
        <ele>1405</ele>
        <time>2016-03-28T14:15:18Z</time>
      </trkpt>
      <trkpt lat="44.19652" lon="6.74887">
        <ele>1400</ele>
        <time>2016-03-28T14:17:18Z</time>
      </trkpt>
      <trkpt lat="44.19645" lon="6.74868">
        <ele>1395</ele>
        <time>2016-03-28T14:19:18Z</time>
      </trkpt>
      <trkpt lat="44.19636" lon="6.74847">
        <ele>1389</ele>
        <time>2016-03-28T14:21:18Z</time>
      </trkpt>
      <trkpt lat="44.1963" lon="6.74839">
        <ele>1387</ele>
        <time>2016-03-28T14:23:18Z</time>
      </trkpt>
      <trkpt lat="44.19628" lon="6.74836">
        <ele>1386</ele>
        <time>2016-03-28T14:25:18Z</time>
      </trkpt>
      <trkpt lat="44.19625" lon="6.74834">
        <ele>1386</ele>
        <time>2016-03-28T14:27:18Z</time>
      </trkpt>
      <trkpt lat="44.19622" lon="6.74832">
        <ele>1385</ele>
        <time>2016-03-28T14:29:18Z</time>
      </trkpt>
      <trkpt lat="44.19618" lon="6.74831">
        <ele>1384</ele>
        <time>2016-03-28T14:31:18Z</time>
      </trkpt>
      <trkpt lat="44.19616" lon="6.74831">
        <ele>1384</ele>
        <time>2016-03-28T14:33:18Z</time>
      </trkpt>
      <trkpt lat="44.19614" lon="6.74832">
        <ele>1384</ele>
        <time>2016-03-28T14:35:18Z</time>
      </trkpt>
      <trkpt lat="44.19611" lon="6.74834">
        <ele>1384</ele>
        <time>2016-03-28T14:37:18Z</time>
      </trkpt>
      <trkpt lat="44.19605" lon="6.74841">
        <ele>1385</ele>
        <time>2016-03-28T14:39:18Z</time>
      </trkpt>
      <trkpt lat="44.19596" lon="6.74856">
        <ele>1388</ele>
        <time>2016-03-28T14:41:18Z</time>
      </trkpt>
      <trkpt lat="44.19586" lon="6.74868">
        <ele>1389</ele>
        <time>2016-03-28T14:43:18Z</time>
      </trkpt>
      <trkpt lat="44.19573" lon="6.74879">
        <ele>1390</ele>
        <time>2016-03-28T14:45:18Z</time>
      </trkpt>
      <trkpt lat="44.19568" lon="6.74885">
        <ele>1391</ele>
        <time>2016-03-28T14:47:18Z</time>
      </trkpt>
      <trkpt lat="44.19563" lon="6.74895">
        <ele>1392</ele>
        <time>2016-03-28T14:49:18Z</time>
      </trkpt>
      <trkpt lat="44.19557" lon="6.7491">
        <ele>1395</ele>
        <time>2016-03-28T14:51:18Z</time>
      </trkpt>
      <trkpt lat="44.19555" lon="6.74916">
        <ele>1395</ele>
        <time>2016-03-28T14:53:18Z</time>
      </trkpt>
      <trkpt lat="44.19553" lon="6.74921">
        <ele>1396</ele>
        <time>2016-03-28T14:55:18Z</time>
      </trkpt>
      <trkpt lat="44.19547" lon="6.7493">
        <ele>1398</ele>
        <time>2016-03-28T14:57:18Z</time>
      </trkpt>
      <trkpt lat="44.19544" lon="6.74933">
        <ele>1398</ele>
        <time>2016-03-28T14:59:18Z</time>
      </trkpt>
      <trkpt lat="44.1954" lon="6.74936">
        <ele>1398</ele>
        <time>2016-03-28T15:01:18Z</time>
      </trkpt>
      <trkpt lat="44.19535" lon="6.74938">
        <ele>1398</ele>
        <time>2016-03-28T15:03:18Z</time>
      </trkpt>
      <trkpt lat="44.1952" lon="6.74942">
        <ele>1398</ele>
        <time>2016-03-28T15:05:18Z</time>
      </trkpt>
      <trkpt lat="44.19516" lon="6.74943">
        <ele>1397</ele>
        <time>2016-03-28T15:07:18Z</time>
      </trkpt>
      <trkpt lat="44.19512" lon="6.74944">
        <ele>1397</ele>
        <time>2016-03-28T15:09:18Z</time>
      </trkpt>
      <trkpt lat="44.19509" lon="6.74944">
        <ele>1397</ele>
        <time>2016-03-28T15:11:18Z</time>
      </trkpt>
      <trkpt lat="44.19504" lon="6.74939">
        <ele>1395</ele>
        <time>2016-03-28T15:13:18Z</time>
      </trkpt>
      <trkpt lat="44.195" lon="6.74933">
        <ele>1394</ele>
        <time>2016-03-28T15:15:18Z</time>
      </trkpt>
      <trkpt lat="44.19497" lon="6.74926">
        <ele>1392</ele>
        <time>2016-03-28T15:17:18Z</time>
      </trkpt>
      <trkpt lat="44.19494" lon="6.74916">
        <ele>1390</ele>
        <time>2016-03-28T15:19:18Z</time>
      </trkpt>
      <trkpt lat="44.19495" lon="6.7489">
        <ele>1386</ele>
        <time>2016-03-28T15:21:18Z</time>
      </trkpt>
      <trkpt lat="44.19497" lon="6.74875">
        <ele>1383</ele>
        <time>2016-03-28T15:23:18Z</time>
      </trkpt>
      <trkpt lat="44.19497" lon="6.74858">
        <ele>1380</ele>
        <time>2016-03-28T15:25:18Z</time>
      </trkpt>
      <trkpt lat="44.19493" lon="6.74841">
        <ele>1377</ele>
        <time>2016-03-28T15:27:18Z</time>
      </trkpt>
      <trkpt lat="44.19484" lon="6.74817">
        <ele>1371</ele>
        <time>2016-03-28T15:29:18Z</time>
      </trkpt>
      <trkpt lat="44.1948" lon="6.74809">
        <ele>1369</ele>
        <time>2016-03-28T15:31:18Z</time>
      </trkpt>
      <trkpt lat="44.19473" lon="6.74805">
        <ele>1368</ele>
        <time>2016-03-28T15:33:18Z</time>
      </trkpt>
      <trkpt lat="44.19465" lon="6.74802">
        <ele>1367</ele>
        <time>2016-03-28T15:35:18Z</time>
      </trkpt>
      <trkpt lat="44.19454" lon="6.74806">
        <ele>1367</ele>
        <time>2016-03-28T15:37:18Z</time>
      </trkpt>
      <trkpt lat="44.19422" lon="6.74826">
        <ele>1367</ele>
        <time>2016-03-28T15:39:18Z</time>
      </trkpt>
      <trkpt lat="44.19416" lon="6.7483">
        <ele>1367</ele>
        <time>2016-03-28T15:41:18Z</time>
      </trkpt>
      <trkpt lat="44.19413" lon="6.74832">
        <ele>1367</ele>
        <time>2016-03-28T15:43:18Z</time>
      </trkpt>
      <trkpt lat="44.19408" lon="6.74832">
        <ele>1365</ele>
        <time>2016-03-28T15:45:18Z</time>
      </trkpt>
      <trkpt lat="44.19404" lon="6.74831">
        <ele>1364</ele>
        <time>2016-03-28T15:47:18Z</time>
      </trkpt>
      <trkpt lat="44.19402" lon="6.74829">
        <ele>1363</ele>
        <time>2016-03-28T15:49:18Z</time>
      </trkpt>
      <trkpt lat="44.19401" lon="6.74826">
        <ele>1362</ele>
        <time>2016-03-28T15:51:18Z</time>
      </trkpt>
      <trkpt lat="44.19401" lon="6.74821">
        <ele>1361</ele>
        <time>2016-03-28T15:53:18Z</time>
      </trkpt>
      <trkpt lat="44.19402" lon="6.74816">
        <ele>1361</ele>
        <time>2016-03-28T15:55:18Z</time>
      </trkpt>
      <trkpt lat="44.19404" lon="6.7481">
        <ele>1360</ele>
        <time>2016-03-28T15:57:18Z</time>
      </trkpt>
      <trkpt lat="44.19406" lon="6.74806">
        <ele>1360</ele>
        <time>2016-03-28T15:59:18Z</time>
      </trkpt>
      <trkpt lat="44.19409" lon="6.74803">
        <ele>1361</ele>
        <time>2016-03-28T16:01:18Z</time>
      </trkpt>
      <trkpt lat="44.19452" lon="6.74776">
        <ele>1361</ele>
        <time>2016-03-28T16:03:18Z</time>
      </trkpt>
      <trkpt lat="44.1948" lon="6.7476">
        <ele>1359</ele>
        <time>2016-03-28T16:05:18Z</time>
      </trkpt>
      <trkpt lat="44.1949" lon="6.74759">
        <ele>1360</ele>
        <time>2016-03-28T16:07:18Z</time>
      </trkpt>
      <trkpt lat="44.19504" lon="6.74762">
        <ele>1361</ele>
        <time>2016-03-28T16:09:18Z</time>
      </trkpt>
      <trkpt lat="44.1952" lon="6.74766">
        <ele>1363</ele>
        <time>2016-03-28T16:11:18Z</time>
      </trkpt>
      <trkpt lat="44.19527" lon="6.74768">
        <ele>1364</ele>
        <time>2016-03-28T16:13:18Z</time>
      </trkpt>
      <trkpt lat="44.19535" lon="6.7477">
        <ele>1365</ele>
        <time>2016-03-28T16:15:18Z</time>
      </trkpt>
      <trkpt lat="44.1954" lon="6.74769">
        <ele>1365</ele>
        <time>2016-03-28T16:17:18Z</time>
      </trkpt>
      <trkpt lat="44.19546" lon="6.74766">
        <ele>1365</ele>
        <time>2016-03-28T16:19:18Z</time>
      </trkpt>
      <trkpt lat="44.19552" lon="6.74761">
        <ele>1365</ele>
        <time>2016-03-28T16:21:18Z</time>
      </trkpt>
      <trkpt lat="44.19556" lon="6.74755">
        <ele>1364</ele>
        <time>2016-03-28T16:23:18Z</time>
      </trkpt>
      <trkpt lat="44.19558" lon="6.74747">
        <ele>1362</ele>
        <time>2016-03-28T16:25:18Z</time>
      </trkpt>
      <trkpt lat="44.19557" lon="6.7473">
        <ele>1358</ele>
        <time>2016-03-28T16:27:18Z</time>
      </trkpt>
      <trkpt lat="44.19555" lon="6.747">
        <ele>1350</ele>
        <time>2016-03-28T16:29:18Z</time>
      </trkpt>
      <trkpt lat="44.19555" lon="6.74678">
        <ele>1344</ele>
        <time>2016-03-28T16:31:18Z</time>
      </trkpt>
      <trkpt lat="44.19555" lon="6.74653">
        <ele>1338</ele>
        <time>2016-03-28T16:33:18Z</time>
      </trkpt>
      <trkpt lat="44.19556" lon="6.74643">
        <ele>1335</ele>
        <time>2016-03-28T16:35:18Z</time>
      </trkpt>
      <trkpt lat="44.19558" lon="6.74638">
        <ele>1334</ele>
        <time>2016-03-28T16:37:18Z</time>
      </trkpt>
      <trkpt lat="44.19561" lon="6.74632">
        <ele>1333</ele>
        <time>2016-03-28T16:39:18Z</time>
      </trkpt>
      <trkpt lat="44.19564" lon="6.74628">
        <ele>1332</ele>
        <time>2016-03-28T16:41:18Z</time>
      </trkpt>
      <trkpt lat="44.19568" lon="6.74626">
        <ele>1332</ele>
        <time>2016-03-28T16:43:18Z</time>
      </trkpt>
      <trkpt lat="44.19575" lon="6.74624">
        <ele>1332</ele>
        <time>2016-03-28T16:45:18Z</time>
      </trkpt>
      <trkpt lat="44.19579" lon="6.74625">
        <ele>1333</ele>
        <time>2016-03-28T16:47:18Z</time>
      </trkpt>
      <trkpt lat="44.19584" lon="6.74627">
        <ele>1335</ele>
        <time>2016-03-28T16:49:18Z</time>
      </trkpt>
      <trkpt lat="44.19609" lon="6.74644">
        <ele>1341</ele>
        <time>2016-03-28T16:51:18Z</time>
      </trkpt>
      <trkpt lat="44.19624" lon="6.74655">
        <ele>1344</ele>
        <time>2016-03-28T16:53:18Z</time>
      </trkpt>
      <trkpt lat="44.19635" lon="6.74666">
        <ele>1346</ele>
        <time>2016-03-28T16:55:18Z</time>
      </trkpt>
      <trkpt lat="44.19637" lon="6.74667">
        <ele>1347</ele>
        <time>2016-03-28T16:57:18Z</time>
      </trkpt>
      <trkpt lat="44.1964" lon="6.74668">
        <ele>1347</ele>
        <time>2016-03-28T16:59:18Z</time>
      </trkpt>
      <trkpt lat="44.19642" lon="6.74667">
        <ele>1347</ele>
        <time>2016-03-28T17:01:18Z</time>
      </trkpt>
      <trkpt lat="44.19643" lon="6.74666">
        <ele>1347</ele>
        <time>2016-03-28T17:03:18Z</time>
      </trkpt>
      <trkpt lat="44.19644" lon="6.74664">
        <ele>1346</ele>
        <time>2016-03-28T17:05:18Z</time>
      </trkpt>
      <trkpt lat="44.19644" lon="6.74662">
        <ele>1346</ele>
        <time>2016-03-28T17:07:18Z</time>
      </trkpt>
      <trkpt lat="44.19645" lon="6.74659">
        <ele>1345</ele>
        <time>2016-03-28T17:09:18Z</time>
      </trkpt>
      <trkpt lat="44.19644" lon="6.74657">
        <ele>1345</ele>
        <time>2016-03-28T17:11:18Z</time>
      </trkpt>
      <trkpt lat="44.19644" lon="6.74654">
        <ele>1345</ele>
        <time>2016-03-28T17:13:18Z</time>
      </trkpt>
      <trkpt lat="44.19643" lon="6.74651">
        <ele>1344</ele>
        <time>2016-03-28T17:15:18Z</time>
      </trkpt>
      <trkpt lat="44.19585" lon="6.74604">
        <ele>1328</ele>
        <time>2016-03-28T17:17:18Z</time>
      </trkpt>
      <trkpt lat="44.19576" lon="6.74595">
        <ele>1324</ele>
        <time>2016-03-28T17:19:18Z</time>
      </trkpt>
      <trkpt lat="44.19565" lon="6.74588">
        <ele>1320</ele>
        <time>2016-03-28T17:21:18Z</time>
      </trkpt>
      <trkpt lat="44.19559" lon="6.74586">
        <ele>1319</ele>
        <time>2016-03-28T17:23:18Z</time>
      </trkpt>
      <trkpt lat="44.19552" lon="6.74587">
        <ele>1318</ele>
        <time>2016-03-28T17:25:18Z</time>
      </trkpt>
      <trkpt lat="44.19546" lon="6.74591">
        <ele>1318</ele>
        <time>2016-03-28T17:27:18Z</time>
      </trkpt>
      <trkpt lat="44.19541" lon="6.74597">
        <ele>1319</ele>
        <time>2016-03-28T17:29:18Z</time>
      </trkpt>
      <trkpt lat="44.19538" lon="6.74607">
        <ele>1322</ele>
        <time>2016-03-28T17:31:18Z</time>
      </trkpt>
      <trkpt lat="44.19536" lon="6.74621">
        <ele>1325</ele>
        <time>2016-03-28T17:33:18Z</time>
      </trkpt>
      <trkpt lat="44.19532" lon="6.74643">
        <ele>1331</ele>
        <time>2016-03-28T17:35:18Z</time>
      </trkpt>
      <trkpt lat="44.1953" lon="6.7465">
        <ele>1333</ele>
        <time>2016-03-28T17:37:18Z</time>
      </trkpt>
      <trkpt lat="44.19528" lon="6.74656">
        <ele>1334</ele>
        <time>2016-03-28T17:39:18Z</time>
      </trkpt>
      <trkpt lat="44.19525" lon="6.7466">
        <ele>1335</ele>
        <time>2016-03-28T17:41:18Z</time>
      </trkpt>
      <trkpt lat="44.19522" lon="6.74661">
        <ele>1335</ele>
        <time>2016-03-28T17:43:18Z</time>
      </trkpt>
      <trkpt lat="44.19521" lon="6.74662">
        <ele>1335</ele>
        <time>2016-03-28T17:45:18Z</time>
      </trkpt>
      <trkpt lat="44.1952" lon="6.74662">
        <ele>1335</ele>
        <time>2016-03-28T17:47:18Z</time>
      </trkpt>
      <trkpt lat="44.19519" lon="6.74662">
        <ele>1335</ele>
        <time>2016-03-28T17:49:18Z</time>
      </trkpt>
      <trkpt lat="44.19518" lon="6.74662">
        <ele>1334</ele>
        <time>2016-03-28T17:51:18Z</time>
      </trkpt>
      <trkpt lat="44.19515" lon="6.7466">
        <ele>1333</ele>
        <time>2016-03-28T17:53:18Z</time>
      </trkpt>
      <trkpt lat="44.19513" lon="6.74657">
        <ele>1332</ele>
        <time>2016-03-28T17:55:18Z</time>
      </trkpt>
      <trkpt lat="44.1951" lon="6.74654">
        <ele>1331</ele>
        <time>2016-03-28T17:57:18Z</time>
      </trkpt>
      <trkpt lat="44.19505" lon="6.74648">
        <ele>1328</ele>
        <time>2016-03-28T17:59:18Z</time>
      </trkpt>
      <trkpt lat="44.195" lon="6.74639">
        <ele>1325</ele>
        <time>2016-03-28T18:01:18Z</time>
      </trkpt>
      <trkpt lat="44.19497" lon="6.74635">
        <ele>1323</ele>
        <time>2016-03-28T18:03:18Z</time>
      </trkpt>
      <trkpt lat="44.19494" lon="6.74632">
        <ele>1322</ele>
        <time>2016-03-28T18:05:18Z</time>
      </trkpt>
      <trkpt lat="44.19491" lon="6.7463">
        <ele>1321</ele>
        <time>2016-03-28T18:07:18Z</time>
      </trkpt>
      <trkpt lat="44.19488" lon="6.74628">
        <ele>1320</ele>
        <time>2016-03-28T18:09:18Z</time>
      </trkpt>
      <trkpt lat="44.19485" lon="6.74627">
        <ele>1320</ele>
        <time>2016-03-28T18:11:18Z</time>
      </trkpt>
      <trkpt lat="44.1948" lon="6.74626">
        <ele>1319</ele>
        <time>2016-03-28T18:13:18Z</time>
      </trkpt>
      <trkpt lat="44.19476" lon="6.74627">
        <ele>1318</ele>
        <time>2016-03-28T18:15:18Z</time>
      </trkpt>
      <trkpt lat="44.19469" lon="6.74629">
        <ele>1318</ele>
        <time>2016-03-28T18:17:18Z</time>
      </trkpt>
      <trkpt lat="44.19458" lon="6.74635">
        <ele>1318</ele>
        <time>2016-03-28T18:19:18Z</time>
      </trkpt>
      <trkpt lat="44.19452" lon="6.74638">
        <ele>1318</ele>
        <time>2016-03-28T18:21:18Z</time>
      </trkpt>
      <trkpt lat="44.19446" lon="6.7464">
        <ele>1318</ele>
        <time>2016-03-28T18:23:18Z</time>
      </trkpt>
      <trkpt lat="44.1944" lon="6.7464">
        <ele>1317</ele>
        <time>2016-03-28T18:25:18Z</time>
      </trkpt>
      <trkpt lat="44.19434" lon="6.7464">
        <ele>1316</ele>
        <time>2016-03-28T18:27:18Z</time>
      </trkpt>
      <trkpt lat="44.19422" lon="6.74638">
        <ele>1314</ele>
        <time>2016-03-28T18:29:18Z</time>
      </trkpt>
      <trkpt lat="44.19411" lon="6.74636">
        <ele>1312</ele>
        <time>2016-03-28T18:31:18Z</time>
      </trkpt>
      <trkpt lat="44.19402" lon="6.74636">
        <ele>1310</ele>
        <time>2016-03-28T18:33:18Z</time>
      </trkpt>
      <trkpt lat="44.19398" lon="6.74636">
        <ele>1310</ele>
        <time>2016-03-28T18:35:18Z</time>
      </trkpt>
      <trkpt lat="44.19394" lon="6.74637">
        <ele>1309</ele>
        <time>2016-03-28T18:37:18Z</time>
      </trkpt>
      <trkpt lat="44.1939" lon="6.74638">
        <ele>1309</ele>
        <time>2016-03-28T18:39:18Z</time>
      </trkpt>
      <trkpt lat="44.19388" lon="6.7464">
        <ele>1309</ele>
        <time>2016-03-28T18:41:18Z</time>
      </trkpt>
      <trkpt lat="44.19383" lon="6.74643">
        <ele>1308</ele>
        <time>2016-03-28T18:43:18Z</time>
      </trkpt>
      <trkpt lat="44.19379" lon="6.74647">
        <ele>1308</ele>
        <time>2016-03-28T18:45:18Z</time>
      </trkpt>
      <trkpt lat="44.19363" lon="6.74658">
        <ele>1306</ele>
        <time>2016-03-28T18:47:18Z</time>
      </trkpt>
      <trkpt lat="44.19347" lon="6.74666">
        <ele>1303</ele>
        <time>2016-03-28T18:49:18Z</time>
      </trkpt>
      <trkpt lat="44.19326" lon="6.74678">
        <ele>1302</ele>
        <time>2016-03-28T18:51:18Z</time>
      </trkpt>
      <trkpt lat="44.19317" lon="6.74685">
        <ele>1302</ele>
        <time>2016-03-28T18:53:18Z</time>
      </trkpt>
      <trkpt lat="44.19309" lon="6.74693">
        <ele>1302</ele>
        <time>2016-03-28T18:55:18Z</time>
      </trkpt>
      <trkpt lat="44.19302" lon="6.74702">
        <ele>1302</ele>
        <time>2016-03-28T18:57:18Z</time>
      </trkpt>
      <trkpt lat="44.19297" lon="6.74709">
        <ele>1303</ele>
        <time>2016-03-28T18:59:18Z</time>
      </trkpt>
      <trkpt lat="44.19294" lon="6.74715">
        <ele>1303</ele>
        <time>2016-03-28T19:01:18Z</time>
      </trkpt>
      <trkpt lat="44.19278" lon="6.74743">
        <ele>1303</ele>
        <time>2016-03-28T19:03:18Z</time>
      </trkpt>
      <trkpt lat="44.19276" lon="6.74746">
        <ele>1302</ele>
        <time>2016-03-28T19:05:18Z</time>
      </trkpt>
      <trkpt lat="44.19273" lon="6.74748">
        <ele>1302</ele>
        <time>2016-03-28T19:07:18Z</time>
      </trkpt>
      <trkpt lat="44.19272" lon="6.74749">
        <ele>1301</ele>
        <time>2016-03-28T19:09:18Z</time>
      </trkpt>
      <trkpt lat="44.19269" lon="6.74751">
        <ele>1301</ele>
        <time>2016-03-28T19:11:18Z</time>
      </trkpt>
      <trkpt lat="44.19249" lon="6.74753">
        <ele>1294</ele>
        <time>2016-03-28T19:13:18Z</time>
      </trkpt>
      <trkpt lat="44.19225" lon="6.74751">
        <ele>1290</ele>
        <time>2016-03-28T19:15:18Z</time>
      </trkpt>
      <trkpt lat="44.19198" lon="6.74747">
        <ele>1287</ele>
        <time>2016-03-28T19:17:18Z</time>
      </trkpt>
      <trkpt lat="44.19187" lon="6.74746">
        <ele>1285</ele>
        <time>2016-03-28T19:19:18Z</time>
      </trkpt>
      <trkpt lat="44.1918" lon="6.74746">
        <ele>1284</ele>
        <time>2016-03-28T19:21:18Z</time>
      </trkpt>
      <trkpt lat="44.19173" lon="6.74748">
        <ele>1284</ele>
        <time>2016-03-28T19:23:18Z</time>
      </trkpt>
      <trkpt lat="44.19169" lon="6.7475">
        <ele>1283</ele>
        <time>2016-03-28T19:25:18Z</time>
      </trkpt>
      <trkpt lat="44.19163" lon="6.74754">
        <ele>1284</ele>
        <time>2016-03-28T19:27:18Z</time>
      </trkpt>
      <trkpt lat="44.19157" lon="6.74758">
        <ele>1284</ele>
        <time>2016-03-28T19:29:18Z</time>
      </trkpt>
      <trkpt lat="44.19147" lon="6.74772">
        <ele>1287</ele>
        <time>2016-03-28T19:31:18Z</time>
      </trkpt>
      <trkpt lat="44.19146" lon="6.74773">
        <ele>1287</ele>
        <time>2016-03-28T19:33:18Z</time>
      </trkpt>
      <trkpt lat="44.19139" lon="6.74783">
        <ele>1289</ele>
        <time>2016-03-28T19:35:18Z</time>
      </trkpt>
      <trkpt lat="44.1912" lon="6.74797">
        <ele>1287</ele>
        <time>2016-03-28T19:37:18Z</time>
      </trkpt>
      <trkpt lat="44.19104" lon="6.74815">
        <ele>1286</ele>
        <time>2016-03-28T19:39:18Z</time>
      </trkpt>
      <trkpt lat="44.19093" lon="6.74826">
        <ele>1285</ele>
        <time>2016-03-28T19:41:18Z</time>
      </trkpt>
      <trkpt lat="44.19082" lon="6.74835">
        <ele>1282</ele>
        <time>2016-03-28T19:43:18Z</time>
      </trkpt>
      <trkpt lat="44.19069" lon="6.74844">
        <ele>1284</ele>
        <time>2016-03-28T19:45:18Z</time>
      </trkpt>
      <trkpt lat="44.19053" lon="6.74854">
        <ele>1284</ele>
        <time>2016-03-28T19:47:18Z</time>
      </trkpt>
      <trkpt lat="44.19038" lon="6.74864">
        <ele>1283</ele>
        <time>2016-03-28T19:49:18Z</time>
      </trkpt>
      <trkpt lat="44.19025" lon="6.74875">
        <ele>1283</ele>
        <time>2016-03-28T19:51:18Z</time>
      </trkpt>
      <trkpt lat="44.19017" lon="6.74881">
        <ele>1282</ele>
        <time>2016-03-28T19:53:18Z</time>
      </trkpt>
      <trkpt lat="44.1901" lon="6.74885">
        <ele>1280</ele>
        <time>2016-03-28T19:55:18Z</time>
      </trkpt>
      <trkpt lat="44.18996" lon="6.74893">
        <ele>1278</ele>
        <time>2016-03-28T19:57:18Z</time>
      </trkpt>
      <trkpt lat="44.18984" lon="6.749">
        <ele>1277</ele>
        <time>2016-03-28T19:59:18Z</time>
      </trkpt>
      <trkpt lat="44.18973" lon="6.74905">
        <ele>1276</ele>
        <time>2016-03-28T20:01:18Z</time>
      </trkpt>
      <trkpt lat="44.18966" lon="6.74907">
        <ele>1275</ele>
        <time>2016-03-28T20:03:18Z</time>
      </trkpt>
      <trkpt lat="44.1896" lon="6.74908">
        <ele>1274</ele>
        <time>2016-03-28T20:05:18Z</time>
      </trkpt>
      <trkpt lat="44.18953" lon="6.74908">
        <ele>1273</ele>
        <time>2016-03-28T20:07:18Z</time>
      </trkpt>
      <trkpt lat="44.18948" lon="6.74907">
        <ele>1272</ele>
        <time>2016-03-28T20:09:18Z</time>
      </trkpt>
      <trkpt lat="44.18937" lon="6.74906">
        <ele>1270</ele>
        <time>2016-03-28T20:11:18Z</time>
      </trkpt>
      <trkpt lat="44.18923" lon="6.749">
        <ele>1266</ele>
        <time>2016-03-28T20:13:18Z</time>
      </trkpt>
      <trkpt lat="44.18921" lon="6.74899">
        <ele>1266</ele>
        <time>2016-03-28T20:15:18Z</time>
      </trkpt>
      <trkpt lat="44.18913" lon="6.74894">
        <ele>1264</ele>
        <time>2016-03-28T20:17:18Z</time>
      </trkpt>
      <trkpt lat="44.18905" lon="6.74889">
        <ele>1264</ele>
        <time>2016-03-28T20:19:18Z</time>
      </trkpt>
      <trkpt lat="44.18891" lon="6.74883">
        <ele>1263</ele>
        <time>2016-03-28T20:21:18Z</time>
      </trkpt>
      <trkpt lat="44.18869" lon="6.74873">
        <ele>1262</ele>
        <time>2016-03-28T20:23:18Z</time>
      </trkpt>
      <trkpt lat="44.1886" lon="6.74871">
        <ele>1262</ele>
        <time>2016-03-28T20:25:18Z</time>
      </trkpt>
      <trkpt lat="44.18846" lon="6.74866">
        <ele>1261</ele>
        <time>2016-03-28T20:27:18Z</time>
      </trkpt>
      <trkpt lat="44.18827" lon="6.7486">
        <ele>1260</ele>
        <time>2016-03-28T20:29:18Z</time>
      </trkpt>
      <trkpt lat="44.18823" lon="6.74858">
        <ele>1260</ele>
        <time>2016-03-28T20:31:18Z</time>
      </trkpt>
      <trkpt lat="44.18812" lon="6.74854">
        <ele>1259</ele>
        <time>2016-03-28T20:33:18Z</time>
      </trkpt>
      <trkpt lat="44.18794" lon="6.74844">
        <ele>1258</ele>
        <time>2016-03-28T20:35:18Z</time>
      </trkpt>
      <trkpt lat="44.18782" lon="6.74836">
        <ele>1257</ele>
        <time>2016-03-28T20:37:18Z</time>
      </trkpt>
      <trkpt lat="44.18775" lon="6.74831">
        <ele>1256</ele>
        <time>2016-03-28T20:39:18Z</time>
      </trkpt>
      <trkpt lat="44.18768" lon="6.74825">
        <ele>1256</ele>
        <time>2016-03-28T20:41:18Z</time>
      </trkpt>
      <trkpt lat="44.18765" lon="6.74821">
        <ele>1256</ele>
        <time>2016-03-28T20:43:18Z</time>
      </trkpt>
      <trkpt lat="44.18761" lon="6.74814">
        <ele>1256</ele>
        <time>2016-03-28T20:45:18Z</time>
      </trkpt>
      <trkpt lat="44.18752" lon="6.74803">
        <ele>1257</ele>
        <time>2016-03-28T20:47:18Z</time>
      </trkpt>
      <trkpt lat="44.18744" lon="6.74793">
        <ele>1257</ele>
        <time>2016-03-28T20:49:18Z</time>
      </trkpt>
      <trkpt lat="44.18741" lon="6.74791">
        <ele>1257</ele>
        <time>2016-03-28T20:51:18Z</time>
      </trkpt>
      <trkpt lat="44.18734" lon="6.74784">
        <ele>1258</ele>
        <time>2016-03-28T20:53:18Z</time>
      </trkpt>
      <trkpt lat="44.18728" lon="6.7478">
        <ele>1259</ele>
        <time>2016-03-28T20:55:18Z</time>
      </trkpt>
      <trkpt lat="44.18723" lon="6.74778">
        <ele>1259</ele>
        <time>2016-03-28T20:57:18Z</time>
      </trkpt>
      <trkpt lat="44.18717" lon="6.74776">
        <ele>1259</ele>
        <time>2016-03-28T20:59:18Z</time>
      </trkpt>
      <trkpt lat="44.18711" lon="6.74776">
        <ele>1260</ele>
        <time>2016-03-28T21:01:18Z</time>
      </trkpt>
      <trkpt lat="44.187" lon="6.74776">
        <ele>1260</ele>
        <time>2016-03-28T21:03:18Z</time>
      </trkpt>
      <trkpt lat="44.18688" lon="6.7478">
        <ele>1260</ele>
        <time>2016-03-28T21:05:18Z</time>
      </trkpt>
      <trkpt lat="44.18681" lon="6.74784">
        <ele>1260</ele>
        <time>2016-03-28T21:07:18Z</time>
      </trkpt>
      <trkpt lat="44.18673" lon="6.74788">
        <ele>1260</ele>
        <time>2016-03-28T21:09:18Z</time>
      </trkpt>
      <trkpt lat="44.18662" lon="6.74797">
        <ele>1258</ele>
        <time>2016-03-28T21:11:18Z</time>
      </trkpt>
      <trkpt lat="44.18653" lon="6.74802">
        <ele>1257</ele>
        <time>2016-03-28T21:13:18Z</time>
      </trkpt>
      <trkpt lat="44.18633" lon="6.74812">
        <ele>1255</ele>
        <time>2016-03-28T21:15:18Z</time>
      </trkpt>
      <trkpt lat="44.18622" lon="6.74817">
        <ele>1254</ele>
        <time>2016-03-28T21:17:18Z</time>
      </trkpt>
      <trkpt lat="44.18598" lon="6.74829">
        <ele>1252</ele>
        <time>2016-03-28T21:19:18Z</time>
      </trkpt>
      <trkpt lat="44.18559" lon="6.74847">
        <ele>1250</ele>
        <time>2016-03-28T21:21:18Z</time>
      </trkpt>
      <trkpt lat="44.18528" lon="6.7486">
        <ele>1248</ele>
        <time>2016-03-28T21:23:18Z</time>
      </trkpt>
      <trkpt lat="44.18483" lon="6.74879">
        <ele>1244</ele>
        <time>2016-03-28T21:25:18Z</time>
      </trkpt>
      <trkpt lat="44.18448" lon="6.74894">
        <ele>1241</ele>
        <time>2016-03-28T21:27:18Z</time>
      </trkpt>
      <trkpt lat="44.18418" lon="6.74905">
        <ele>1238</ele>
        <time>2016-03-28T21:29:18Z</time>
      </trkpt>
      <trkpt lat="44.1841" lon="6.74907">
        <ele>1237</ele>
        <time>2016-03-28T21:31:18Z</time>
      </trkpt>
      <trkpt lat="44.18396" lon="6.74908">
        <ele>1237</ele>
        <time>2016-03-28T21:33:18Z</time>
      </trkpt>
      <trkpt lat="44.1838" lon="6.74909">
        <ele>1236</ele>
        <time>2016-03-28T21:35:18Z</time>
      </trkpt>
      <trkpt lat="44.18365" lon="6.74907">
        <ele>1236</ele>
        <time>2016-03-28T21:37:18Z</time>
      </trkpt>
      <trkpt lat="44.18341" lon="6.74903">
        <ele>1237</ele>
        <time>2016-03-28T21:39:18Z</time>
      </trkpt>
      <trkpt lat="44.18321" lon="6.74898">
        <ele>1236</ele>
        <time>2016-03-28T21:41:18Z</time>
      </trkpt>
      <trkpt lat="44.18307" lon="6.74891">
        <ele>1236</ele>
        <time>2016-03-28T21:43:18Z</time>
      </trkpt>
      <trkpt lat="44.18289" lon="6.74877">
        <ele>1237</ele>
        <time>2016-03-28T21:45:18Z</time>
      </trkpt>
      <trkpt lat="44.18264" lon="6.74859">
        <ele>1238</ele>
        <time>2016-03-28T21:47:18Z</time>
      </trkpt>
      <trkpt lat="44.18237" lon="6.74839">
        <ele>1241</ele>
        <time>2016-03-28T21:49:18Z</time>
      </trkpt>
      <trkpt lat="44.18228" lon="6.74833">
        <ele>1242</ele>
        <time>2016-03-28T21:51:18Z</time>
      </trkpt>
      <trkpt lat="44.1821" lon="6.74818">
        <ele>1245</ele>
        <time>2016-03-28T21:53:18Z</time>
      </trkpt>
      <trkpt lat="44.18201" lon="6.74813">
        <ele>1245</ele>
        <time>2016-03-28T21:55:18Z</time>
      </trkpt>
      <trkpt lat="44.18194" lon="6.74812">
        <ele>1245</ele>
        <time>2016-03-28T21:57:18Z</time>
      </trkpt>
      <trkpt lat="44.18185" lon="6.74812">
        <ele>1244</ele>
        <time>2016-03-28T21:59:18Z</time>
      </trkpt>
      <trkpt lat="44.18174" lon="6.74816">
        <ele>1241</ele>
        <time>2016-03-28T22:01:18Z</time>
      </trkpt>
      <trkpt lat="44.18162" lon="6.74822">
        <ele>1239</ele>
        <time>2016-03-28T22:03:18Z</time>
      </trkpt>
      <trkpt lat="44.1814" lon="6.74839">
        <ele>1237</ele>
        <time>2016-03-28T22:05:18Z</time>
      </trkpt>
      <trkpt lat="44.18128" lon="6.7485">
        <ele>1235</ele>
        <time>2016-03-28T22:07:18Z</time>
      </trkpt>
      <trkpt lat="44.18115" lon="6.74857">
        <ele>1234</ele>
        <time>2016-03-28T22:09:18Z</time>
      </trkpt>
      <trkpt lat="44.18106" lon="6.74863">
        <ele>1232</ele>
        <time>2016-03-28T22:11:18Z</time>
      </trkpt>
      <trkpt lat="44.18069" lon="6.74881">
        <ele>1227</ele>
        <time>2016-03-28T22:13:18Z</time>
      </trkpt>
      <trkpt lat="44.18056" lon="6.74886">
        <ele>1225</ele>
        <time>2016-03-28T22:15:18Z</time>
      </trkpt>
      <trkpt lat="44.18031" lon="6.74894">
        <ele>1222</ele>
        <time>2016-03-28T22:17:18Z</time>
      </trkpt>
      <trkpt lat="44.18004" lon="6.74899">
        <ele>1221</ele>
        <time>2016-03-28T22:19:18Z</time>
      </trkpt>
      <trkpt lat="44.17993" lon="6.74899">
        <ele>1221</ele>
        <time>2016-03-28T22:21:18Z</time>
      </trkpt>
      <trkpt lat="44.17978" lon="6.74897">
        <ele>1222</ele>
        <time>2016-03-28T22:23:18Z</time>
      </trkpt>
      <trkpt lat="44.1797" lon="6.74895">
        <ele>1223</ele>
        <time>2016-03-28T22:25:18Z</time>
      </trkpt>
      <trkpt lat="44.17958" lon="6.74888">
        <ele>1226</ele>
        <time>2016-03-28T22:27:18Z</time>
      </trkpt>
      <trkpt lat="44.17918" lon="6.74894">
        <ele>1224</ele>
        <time>2016-03-28T22:29:18Z</time>
      </trkpt>
      <trkpt lat="44.1789" lon="6.74897">
        <ele>1222</ele>
        <time>2016-03-28T22:31:18Z</time>
      </trkpt>
      <trkpt lat="44.17838" lon="6.74899">
        <ele>1220</ele>
        <time>2016-03-28T22:33:18Z</time>
      </trkpt>
      <trkpt lat="44.17825" lon="6.74898">
        <ele>1219</ele>
        <time>2016-03-28T22:35:18Z</time>
      </trkpt>
      <trkpt lat="44.1782" lon="6.74897">
        <ele>1218</ele>
        <time>2016-03-28T22:37:18Z</time>
      </trkpt>
      <trkpt lat="44.17816" lon="6.74894">
        <ele>1218</ele>
        <time>2016-03-28T22:39:18Z</time>
      </trkpt>
      <trkpt lat="44.17807" lon="6.74887">
        <ele>1218</ele>
        <time>2016-03-28T22:41:18Z</time>
      </trkpt>
      <trkpt lat="44.17801" lon="6.74879">
        <ele>1219</ele>
        <time>2016-03-28T22:43:18Z</time>
      </trkpt>
      <trkpt lat="44.17796" lon="6.74868">
        <ele>1220</ele>
        <time>2016-03-28T22:45:18Z</time>
      </trkpt>
      <trkpt lat="44.17792" lon="6.74854">
        <ele>1222</ele>
        <time>2016-03-28T22:47:18Z</time>
      </trkpt>
      <trkpt lat="44.17789" lon="6.74845">
        <ele>1223</ele>
        <time>2016-03-28T22:49:18Z</time>
      </trkpt>
      <trkpt lat="44.17784" lon="6.74838">
        <ele>1223</ele>
        <time>2016-03-28T22:51:18Z</time>
      </trkpt>
      <trkpt lat="44.17781" lon="6.74834">
        <ele>1223</ele>
        <time>2016-03-28T22:53:18Z</time>
      </trkpt>
      <trkpt lat="44.17777" lon="6.74831">
        <ele>1223</ele>
        <time>2016-03-28T22:55:18Z</time>
      </trkpt>
      <trkpt lat="44.17774" lon="6.74829">
        <ele>1223</ele>
        <time>2016-03-28T22:57:18Z</time>
      </trkpt>
      <trkpt lat="44.17764" lon="6.74827">
        <ele>1222</ele>
        <time>2016-03-28T22:59:18Z</time>
      </trkpt>
      <trkpt lat="44.17759" lon="6.74827">
        <ele>1221</ele>
        <time>2016-03-28T23:01:18Z</time>
      </trkpt>
      <trkpt lat="44.17753" lon="6.74827">
        <ele>1220</ele>
        <time>2016-03-28T23:03:18Z</time>
      </trkpt>
      <trkpt lat="44.17703" lon="6.74842">
        <ele>1218</ele>
        <time>2016-03-28T23:05:18Z</time>
      </trkpt>
      <trkpt lat="44.17683" lon="6.74848">
        <ele>1217</ele>
        <time>2016-03-28T23:07:18Z</time>
      </trkpt>
      <trkpt lat="44.1767" lon="6.74856">
        <ele>1216</ele>
        <time>2016-03-28T23:09:18Z</time>
      </trkpt>
      <trkpt lat="44.1765" lon="6.74875">
        <ele>1213</ele>
        <time>2016-03-28T23:11:18Z</time>
      </trkpt>
      <trkpt lat="44.17617" lon="6.74901">
        <ele>1209</ele>
        <time>2016-03-28T23:13:18Z</time>
      </trkpt>
      <trkpt lat="44.17599" lon="6.74915">
        <ele>1207</ele>
        <time>2016-03-28T23:15:18Z</time>
      </trkpt>
      <trkpt lat="44.17586" lon="6.74922">
        <ele>1206</ele>
        <time>2016-03-28T23:17:18Z</time>
      </trkpt>
      <trkpt lat="44.1755" lon="6.7493">
        <ele>1206</ele>
        <time>2016-03-28T23:19:18Z</time>
      </trkpt>
      <trkpt lat="44.17539" lon="6.74935">
        <ele>1205</ele>
        <time>2016-03-28T23:21:18Z</time>
      </trkpt>
      <trkpt lat="44.17527" lon="6.74944">
        <ele>1203</ele>
        <time>2016-03-28T23:23:18Z</time>
      </trkpt>
      <trkpt lat="44.17518" lon="6.74946">
        <ele>1203</ele>
        <time>2016-03-28T23:25:18Z</time>
      </trkpt>
      <trkpt lat="44.17508" lon="6.74947">
        <ele>1203</ele>
        <time>2016-03-28T23:27:18Z</time>
      </trkpt>
      <trkpt lat="44.17484" lon="6.7495">
        <ele>1205</ele>
        <time>2016-03-28T23:29:18Z</time>
      </trkpt>
      <trkpt lat="44.1747" lon="6.74956">
        <ele>1206</ele>
        <time>2016-03-28T23:31:18Z</time>
      </trkpt>
      <trkpt lat="44.17457" lon="6.74968">
        <ele>1205</ele>
        <time>2016-03-28T23:33:18Z</time>
      </trkpt>
      <trkpt lat="44.17439" lon="6.74993">
        <ele>1201</ele>
        <time>2016-03-28T23:35:18Z</time>
      </trkpt>
      <trkpt lat="44.17429" lon="6.75007">
        <ele>1199</ele>
        <time>2016-03-28T23:37:18Z</time>
      </trkpt>
      <trkpt lat="44.17419" lon="6.75014">
        <ele>1199</ele>
        <time>2016-03-28T23:39:18Z</time>
      </trkpt>
      <trkpt lat="44.17411" lon="6.75016">
        <ele>1199</ele>
        <time>2016-03-28T23:41:18Z</time>
      </trkpt>
      <trkpt lat="44.17397" lon="6.75018">
        <ele>1199</ele>
        <time>2016-03-28T23:43:18Z</time>
      </trkpt>
      <trkpt lat="44.17382" lon="6.7502">
        <ele>1198</ele>
        <time>2016-03-28T23:45:18Z</time>
      </trkpt>
      <trkpt lat="44.17362" lon="6.75024">
        <ele>1197</ele>
        <time>2016-03-28T23:47:18Z</time>
      </trkpt>
      <trkpt lat="44.17348" lon="6.75027">
        <ele>1197</ele>
        <time>2016-03-28T23:49:18Z</time>
      </trkpt>
      <trkpt lat="44.17345" lon="6.75027">
        <ele>1197</ele>
        <time>2016-03-28T23:51:18Z</time>
      </trkpt>
      <trkpt lat="44.17342" lon="6.75027">
        <ele>1197</ele>
        <time>2016-03-28T23:53:18Z</time>
      </trkpt>
      <trkpt lat="44.1734" lon="6.75026">
        <ele>1197</ele>
        <time>2016-03-28T23:55:18Z</time>
      </trkpt>
      <trkpt lat="44.17325" lon="6.7502">
        <ele>1198</ele>
        <time>2016-03-28T23:57:18Z</time>
      </trkpt>
      <trkpt lat="44.17295" lon="6.75">
        <ele>1203</ele>
        <time>2016-03-28T23:59:18Z</time>
      </trkpt>
      <trkpt lat="44.17277" lon="6.74993">
        <ele>1205</ele>
        <time>2016-03-29T00:01:18Z</time>
      </trkpt>
      <trkpt lat="44.17261" lon="6.74991">
        <ele>1206</ele>
        <time>2016-03-29T00:03:18Z</time>
      </trkpt>
      <trkpt lat="44.17245" lon="6.74993">
        <ele>1206</ele>
        <time>2016-03-29T00:05:18Z</time>
      </trkpt>
      <trkpt lat="44.17227" lon="6.75">
        <ele>1206</ele>
        <time>2016-03-29T00:07:18Z</time>
      </trkpt>
      <trkpt lat="44.17201" lon="6.75018">
        <ele>1204</ele>
        <time>2016-03-29T00:09:18Z</time>
      </trkpt>
      <trkpt lat="44.17179" lon="6.75037">
        <ele>1200</ele>
        <time>2016-03-29T00:11:18Z</time>
      </trkpt>
      <trkpt lat="44.17169" lon="6.75047">
        <ele>1197</ele>
        <time>2016-03-29T00:13:18Z</time>
      </trkpt>
      <trkpt lat="44.17161" lon="6.75058">
        <ele>1193</ele>
        <time>2016-03-29T00:15:18Z</time>
      </trkpt>
      <trkpt lat="44.17154" lon="6.75068">
        <ele>1190</ele>
        <time>2016-03-29T00:17:18Z</time>
      </trkpt>
      <trkpt lat="44.17142" lon="6.75085">
        <ele>1184</ele>
        <time>2016-03-29T00:19:18Z</time>
      </trkpt>
      <trkpt lat="44.17135" lon="6.75093">
        <ele>1183</ele>
        <time>2016-03-29T00:21:18Z</time>
      </trkpt>
      <trkpt lat="44.17126" lon="6.75099">
        <ele>1182</ele>
        <time>2016-03-29T00:23:18Z</time>
      </trkpt>
      <trkpt lat="44.17112" lon="6.75102">
        <ele>1183</ele>
        <time>2016-03-29T00:25:18Z</time>
      </trkpt>
      <trkpt lat="44.17109" lon="6.75101">
        <ele>1183</ele>
        <time>2016-03-29T00:27:18Z</time>
      </trkpt>
      <trkpt lat="44.17104" lon="6.75101">
        <ele>1184</ele>
        <time>2016-03-29T00:29:18Z</time>
      </trkpt>
      <trkpt lat="44.17099" lon="6.75102">
        <ele>1184</ele>
        <time>2016-03-29T00:31:18Z</time>
      </trkpt>
      <trkpt lat="44.17094" lon="6.75103">
        <ele>1184</ele>
        <time>2016-03-29T00:33:18Z</time>
      </trkpt>
      <trkpt lat="44.1709" lon="6.75105">
        <ele>1184</ele>
        <time>2016-03-29T00:35:18Z</time>
      </trkpt>
      <trkpt lat="44.17087" lon="6.75108">
        <ele>1183</ele>
        <time>2016-03-29T00:37:18Z</time>
      </trkpt>
      <trkpt lat="44.17076" lon="6.75115">
        <ele>1183</ele>
        <time>2016-03-29T00:39:18Z</time>
      </trkpt>
      <trkpt lat="44.17071" lon="6.75119">
        <ele>1182</ele>
        <time>2016-03-29T00:41:18Z</time>
      </trkpt>
      <trkpt lat="44.17039" lon="6.75136">
        <ele>1180</ele>
        <time>2016-03-29T00:43:18Z</time>
      </trkpt>
      <trkpt lat="44.17008" lon="6.75148">
        <ele>1179</ele>
        <time>2016-03-29T00:45:18Z</time>
      </trkpt>
      <trkpt lat="44.1699" lon="6.75153">
        <ele>1178</ele>
        <time>2016-03-29T00:47:18Z</time>
      </trkpt>
      <trkpt lat="44.16986" lon="6.75154">
        <ele>1178</ele>
        <time>2016-03-29T00:49:18Z</time>
      </trkpt>
      <trkpt lat="44.16972" lon="6.75155">
        <ele>1177</ele>
        <time>2016-03-29T00:51:18Z</time>
      </trkpt>
      <trkpt lat="44.1695" lon="6.75151">
        <ele>1179</ele>
        <time>2016-03-29T00:53:18Z</time>
      </trkpt>
      <trkpt lat="44.16942" lon="6.75151">
        <ele>1180</ele>
        <time>2016-03-29T00:55:18Z</time>
      </trkpt>
      <trkpt lat="44.16933" lon="6.75151">
        <ele>1180</ele>
        <time>2016-03-29T00:57:18Z</time>
      </trkpt>
      <trkpt lat="44.16917" lon="6.75154">
        <ele>1178</ele>
        <time>2016-03-29T00:59:18Z</time>
      </trkpt>
      <trkpt lat="44.16905" lon="6.75156">
        <ele>1178</ele>
        <time>2016-03-29T01:01:18Z</time>
      </trkpt>
      <trkpt lat="44.16874" lon="6.75158">
        <ele>1179</ele>
        <time>2016-03-29T01:03:18Z</time>
      </trkpt>
      <trkpt lat="44.16851" lon="6.7516">
        <ele>1180</ele>
        <time>2016-03-29T01:05:18Z</time>
      </trkpt>
      <trkpt lat="44.1683" lon="6.75166">
        <ele>1179</ele>
        <time>2016-03-29T01:07:18Z</time>
      </trkpt>
      <trkpt lat="44.16798" lon="6.7518">
        <ele>1177</ele>
        <time>2016-03-29T01:09:18Z</time>
      </trkpt>
      <trkpt lat="44.16765" lon="6.75191">
        <ele>1177</ele>
        <time>2016-03-29T01:11:18Z</time>
      </trkpt>
      <trkpt lat="44.16745" lon="6.75201">
        <ele>1176</ele>
        <time>2016-03-29T01:13:18Z</time>
      </trkpt>
      <trkpt lat="44.16727" lon="6.75217">
        <ele>1174</ele>
        <time>2016-03-29T01:15:18Z</time>
      </trkpt>
      <trkpt lat="44.16718" lon="6.75226">
        <ele>1173</ele>
        <time>2016-03-29T01:17:18Z</time>
      </trkpt>
      <trkpt lat="44.16708" lon="6.75238">
        <ele>1171</ele>
        <time>2016-03-29T01:19:18Z</time>
      </trkpt>
      <trkpt lat="44.16657" lon="6.75274">
        <ele>1168</ele>
        <time>2016-03-29T01:21:18Z</time>
      </trkpt>
      <trkpt lat="44.16636" lon="6.75288">
        <ele>1165</ele>
        <time>2016-03-29T01:23:18Z</time>
      </trkpt>
      <trkpt lat="44.16614" lon="6.75305">
        <ele>1160</ele>
        <time>2016-03-29T01:25:18Z</time>
      </trkpt>
      <trkpt lat="44.16602" lon="6.75316">
        <ele>1155</ele>
        <time>2016-03-29T01:27:18Z</time>
      </trkpt>
      <trkpt lat="44.16595" lon="6.75321">
        <ele>1153</ele>
        <time>2016-03-29T01:29:18Z</time>
      </trkpt>
      <trkpt lat="44.16584" lon="6.75326">
        <ele>1151</ele>
        <time>2016-03-29T01:31:18Z</time>
      </trkpt>
      <trkpt lat="44.16573" lon="6.7533">
        <ele>1151</ele>
        <time>2016-03-29T01:33:18Z</time>
      </trkpt>
      <trkpt lat="44.16562" lon="6.75332">
        <ele>1153</ele>
        <time>2016-03-29T01:35:18Z</time>
      </trkpt>
      <trkpt lat="44.16533" lon="6.75333">
        <ele>1160</ele>
        <time>2016-03-29T01:37:18Z</time>
      </trkpt>
      <trkpt lat="44.1649" lon="6.75346">
        <ele>1164</ele>
        <time>2016-03-29T01:39:18Z</time>
      </trkpt>
      <trkpt lat="44.16424" lon="6.75368">
        <ele>1166</ele>
        <time>2016-03-29T01:41:18Z</time>
      </trkpt>
      <trkpt lat="44.16407" lon="6.75374">
        <ele>1162</ele>
        <time>2016-03-29T01:43:18Z</time>
      </trkpt>
      <trkpt lat="44.16392" lon="6.75384">
        <ele>1155</ele>
        <time>2016-03-29T01:45:18Z</time>
      </trkpt>
      <trkpt lat="44.16374" lon="6.75393">
        <ele>1149</ele>
        <time>2016-03-29T01:47:18Z</time>
      </trkpt>
      <trkpt lat="44.1636" lon="6.75395">
        <ele>1147</ele>
        <time>2016-03-29T01:49:18Z</time>
      </trkpt>
      <trkpt lat="44.1635" lon="6.75392">
        <ele>1148</ele>
        <time>2016-03-29T01:51:18Z</time>
      </trkpt>
      <trkpt lat="44.16343" lon="6.75385">
        <ele>1152</ele>
        <time>2016-03-29T01:53:18Z</time>
      </trkpt>
      <trkpt lat="44.16327" lon="6.75358">
        <ele>1164</ele>
        <time>2016-03-29T01:55:18Z</time>
      </trkpt>
      <trkpt lat="44.16315" lon="6.75346">
        <ele>1167</ele>
        <time>2016-03-29T01:57:18Z</time>
      </trkpt>
      <trkpt lat="44.16302" lon="6.75342">
        <ele>1167</ele>
        <time>2016-03-29T01:59:18Z</time>
      </trkpt>
      <trkpt lat="44.1629" lon="6.75342">
        <ele>1164</ele>
        <time>2016-03-29T02:01:18Z</time>
      </trkpt>
      <trkpt lat="44.16281" lon="6.75348">
        <ele>1161</ele>
        <time>2016-03-29T02:03:18Z</time>
      </trkpt>
      <trkpt lat="44.16276" lon="6.75356">
        <ele>1159</ele>
        <time>2016-03-29T02:05:18Z</time>
      </trkpt>
      <trkpt lat="44.16274" lon="6.7536">
        <ele>1158</ele>
        <time>2016-03-29T02:07:18Z</time>
      </trkpt>
      <trkpt lat="44.16272" lon="6.75367">
        <ele>1156</ele>
        <time>2016-03-29T02:09:18Z</time>
      </trkpt>
      <trkpt lat="44.16273" lon="6.7538">
        <ele>1154</ele>
        <time>2016-03-29T02:11:18Z</time>
      </trkpt>
      <trkpt lat="44.16276" lon="6.75406">
        <ele>1148</ele>
        <time>2016-03-29T02:13:18Z</time>
      </trkpt>
      <trkpt lat="44.16282" lon="6.75469">
        <ele>1135</ele>
        <time>2016-03-29T02:15:18Z</time>
      </trkpt>
      <trkpt lat="44.16284" lon="6.75499">
        <ele>1129</ele>
        <time>2016-03-29T02:17:18Z</time>
      </trkpt>
      <trkpt lat="44.16283" lon="6.75511">
        <ele>1127</ele>
        <time>2016-03-29T02:19:18Z</time>
      </trkpt>
      <trkpt lat="44.16278" lon="6.75524">
        <ele>1126</ele>
        <time>2016-03-29T02:21:18Z</time>
      </trkpt>
      <trkpt lat="44.16266" lon="6.75538">
        <ele>1126</ele>
        <time>2016-03-29T02:23:18Z</time>
      </trkpt>
      <trkpt lat="44.16246" lon="6.75552">
        <ele>1126</ele>
        <time>2016-03-29T02:25:18Z</time>
      </trkpt>
      <trkpt lat="44.1619" lon="6.75577">
        <ele>1131</ele>
        <time>2016-03-29T02:27:18Z</time>
      </trkpt>
      <trkpt lat="44.16167" lon="6.75587">
        <ele>1132</ele>
        <time>2016-03-29T02:29:18Z</time>
      </trkpt>
      <trkpt lat="44.1613" lon="6.75615">
        <ele>1130</ele>
        <time>2016-03-29T02:31:18Z</time>
      </trkpt>
      <trkpt lat="44.16127" lon="6.75618">
        <ele>1130</ele>
        <time>2016-03-29T02:33:18Z</time>
      </trkpt>
      <trkpt lat="44.16077" lon="6.75659">
        <ele>1127</ele>
        <time>2016-03-29T02:35:18Z</time>
      </trkpt>
      <trkpt lat="44.16062" lon="6.75675">
        <ele>1127</ele>
        <time>2016-03-29T02:37:18Z</time>
      </trkpt>
      <trkpt lat="44.1605" lon="6.75694">
        <ele>1127</ele>
        <time>2016-03-29T02:39:18Z</time>
      </trkpt>
      <trkpt lat="44.16044" lon="6.75718">
        <ele>1123</ele>
        <time>2016-03-29T02:41:18Z</time>
      </trkpt>
      <trkpt lat="44.16039" lon="6.75727">
        <ele>1122</ele>
        <time>2016-03-29T02:43:18Z</time>
      </trkpt>
      <trkpt lat="44.16023" lon="6.75739">
        <ele>1122</ele>
        <time>2016-03-29T02:45:18Z</time>
      </trkpt>
      <trkpt lat="44.16009" lon="6.75746">
        <ele>1123</ele>
        <time>2016-03-29T02:47:18Z</time>
      </trkpt>
      <trkpt lat="44.15996" lon="6.75748">
        <ele>1124</ele>
        <time>2016-03-29T02:49:18Z</time>
      </trkpt>
      <trkpt lat="44.15977" lon="6.75747">
        <ele>1124</ele>
        <time>2016-03-29T02:51:18Z</time>
      </trkpt>
      <trkpt lat="44.15958" lon="6.75746">
        <ele>1124</ele>
        <time>2016-03-29T02:53:18Z</time>
      </trkpt>
      <trkpt lat="44.15923" lon="6.75749">
        <ele>1123</ele>
        <time>2016-03-29T02:55:18Z</time>
      </trkpt>
      <trkpt lat="44.15908" lon="6.75748">
        <ele>1122</ele>
        <time>2016-03-29T02:57:18Z</time>
      </trkpt>
      <trkpt lat="44.15892" lon="6.75741">
        <ele>1124</ele>
        <time>2016-03-29T02:59:18Z</time>
      </trkpt>
      <trkpt lat="44.15877" lon="6.75732">
        <ele>1128</ele>
        <time>2016-03-29T03:01:18Z</time>
      </trkpt>
      <trkpt lat="44.15862" lon="6.75728">
        <ele>1130</ele>
        <time>2016-03-29T03:03:18Z</time>
      </trkpt>
      <trkpt lat="44.15829" lon="6.75726">
        <ele>1132</ele>
        <time>2016-03-29T03:05:18Z</time>
      </trkpt>
      <trkpt lat="44.1576" lon="6.75713">
        <ele>1168</ele>
        <time>2016-03-29T03:07:18Z</time>
      </trkpt>
      <trkpt lat="44.15668" lon="6.75707">
        <ele>1167</ele>
        <time>2016-03-29T03:09:18Z</time>
      </trkpt>
      <trkpt lat="44.15611" lon="6.75699">
        <ele>1157</ele>
        <time>2016-03-29T03:11:18Z</time>
      </trkpt>
      <trkpt lat="44.15596" lon="6.75696">
        <ele>1157</ele>
        <time>2016-03-29T03:13:18Z</time>
      </trkpt>
      <trkpt lat="44.15585" lon="6.75696">
        <ele>1153</ele>
        <time>2016-03-29T03:15:18Z</time>
      </trkpt>
      <trkpt lat="44.15579" lon="6.75696">
        <ele>1151</ele>
        <time>2016-03-29T03:17:18Z</time>
      </trkpt>
      <trkpt lat="44.15573" lon="6.75698">
        <ele>1145</ele>
        <time>2016-03-29T03:19:18Z</time>
      </trkpt>
      <trkpt lat="44.15561" lon="6.75702">
        <ele>1135</ele>
        <time>2016-03-29T03:21:18Z</time>
      </trkpt>
      <trkpt lat="44.15536" lon="6.75713">
        <ele>1113</ele>
        <time>2016-03-29T03:23:18Z</time>
      </trkpt>
      <trkpt lat="44.15522" lon="6.75716">
        <ele>1106</ele>
        <time>2016-03-29T03:25:18Z</time>
      </trkpt>
      <trkpt lat="44.15517" lon="6.75716">
        <ele>1104</ele>
        <time>2016-03-29T03:27:18Z</time>
      </trkpt>
      <trkpt lat="44.15513" lon="6.75716">
        <ele>1103</ele>
        <time>2016-03-29T03:29:18Z</time>
      </trkpt>
      <trkpt lat="44.15507" lon="6.75713">
        <ele>1103</ele>
        <time>2016-03-29T03:31:18Z</time>
      </trkpt>
      <trkpt lat="44.15467" lon="6.7569">
        <ele>1104</ele>
        <time>2016-03-29T03:33:18Z</time>
      </trkpt>
      <trkpt lat="44.15455" lon="6.75683">
        <ele>1104</ele>
        <time>2016-03-29T03:35:18Z</time>
      </trkpt>
      <trkpt lat="44.15434" lon="6.75676">
        <ele>1099</ele>
        <time>2016-03-29T03:37:18Z</time>
      </trkpt>
      <trkpt lat="44.15406" lon="6.75663">
        <ele>1096</ele>
        <time>2016-03-29T03:39:18Z</time>
      </trkpt>
      <trkpt lat="44.15367" lon="6.75645">
        <ele>1101</ele>
        <time>2016-03-29T03:41:18Z</time>
      </trkpt>
      <trkpt lat="44.15359" lon="6.75641">
        <ele>1102</ele>
        <time>2016-03-29T03:43:18Z</time>
      </trkpt>
      <trkpt lat="44.15346" lon="6.75639">
        <ele>1101</ele>
        <time>2016-03-29T03:45:18Z</time>
      </trkpt>
      <trkpt lat="44.15313" lon="6.75638">
        <ele>1098</ele>
        <time>2016-03-29T03:47:18Z</time>
      </trkpt>
      <trkpt lat="44.15298" lon="6.75638">
        <ele>1096</ele>
        <time>2016-03-29T03:49:18Z</time>
      </trkpt>
      <trkpt lat="44.15275" lon="6.75637">
        <ele>1093</ele>
        <time>2016-03-29T03:51:18Z</time>
      </trkpt>
      <trkpt lat="44.15255" lon="6.75634">
        <ele>1092</ele>
        <time>2016-03-29T03:53:18Z</time>
      </trkpt>
      <trkpt lat="44.15244" lon="6.75635">
        <ele>1091</ele>
        <time>2016-03-29T03:55:18Z</time>
      </trkpt>
      <trkpt lat="44.15183" lon="6.75651">
        <ele>1089</ele>
        <time>2016-03-29T03:57:18Z</time>
      </trkpt>
      <trkpt lat="44.15169" lon="6.75654">
        <ele>1089</ele>
        <time>2016-03-29T03:59:18Z</time>
      </trkpt>
      <trkpt lat="44.15148" lon="6.75655">
        <ele>1088</ele>
        <time>2016-03-29T04:01:18Z</time>
      </trkpt>
      <trkpt lat="44.15139" lon="6.75657">
        <ele>1087</ele>
        <time>2016-03-29T04:03:18Z</time>
      </trkpt>
      <trkpt lat="44.15089" lon="6.7567">
        <ele>1082</ele>
        <time>2016-03-29T04:05:18Z</time>
      </trkpt>
      <trkpt lat="44.15086" lon="6.7567">
        <ele>1081</ele>
        <time>2016-03-29T04:07:18Z</time>
      </trkpt>
      <trkpt lat="44.15085" lon="6.7567">
        <ele>1081</ele>
        <time>2016-03-29T04:09:18Z</time>
      </trkpt>
      <trkpt lat="44.15081" lon="6.7567">
        <ele>1081</ele>
        <time>2016-03-29T04:11:18Z</time>
      </trkpt>
      <trkpt lat="44.15077" lon="6.75668">
        <ele>1081</ele>
        <time>2016-03-29T04:13:18Z</time>
      </trkpt>
      <trkpt lat="44.15072" lon="6.75665">
        <ele>1082</ele>
        <time>2016-03-29T04:15:18Z</time>
      </trkpt>
      <trkpt lat="44.15044" lon="6.7564">
        <ele>1088</ele>
        <time>2016-03-29T04:17:18Z</time>
      </trkpt>
      <trkpt lat="44.15039" lon="6.75637">
        <ele>1089</ele>
        <time>2016-03-29T04:19:18Z</time>
      </trkpt>
      <trkpt lat="44.15034" lon="6.75636">
        <ele>1089</ele>
        <time>2016-03-29T04:21:18Z</time>
      </trkpt>
      <trkpt lat="44.15029" lon="6.75637">
        <ele>1089</ele>
        <time>2016-03-29T04:23:18Z</time>
      </trkpt>
      <trkpt lat="44.14969" lon="6.75648">
        <ele>1085</ele>
        <time>2016-03-29T04:25:18Z</time>
      </trkpt>
      <trkpt lat="44.14957" lon="6.75651">
        <ele>1084</ele>
        <time>2016-03-29T04:27:18Z</time>
      </trkpt>
      <trkpt lat="44.14943" lon="6.75658">
        <ele>1083</ele>
        <time>2016-03-29T04:29:18Z</time>
      </trkpt>
      <trkpt lat="44.14863" lon="6.75705">
        <ele>1075</ele>
        <time>2016-03-29T04:31:18Z</time>
      </trkpt>
      <trkpt lat="44.14852" lon="6.75711">
        <ele>1074</ele>
        <time>2016-03-29T04:33:18Z</time>
      </trkpt>
      <trkpt lat="44.14836" lon="6.75719">
        <ele>1073</ele>
        <time>2016-03-29T04:35:18Z</time>
      </trkpt>
      <trkpt lat="44.14809" lon="6.75728">
        <ele>1071</ele>
        <time>2016-03-29T04:37:18Z</time>
      </trkpt>
      <trkpt lat="44.14779" lon="6.75734">
        <ele>1069</ele>
        <time>2016-03-29T04:39:18Z</time>
      </trkpt>
      <trkpt lat="44.14773" lon="6.75736">
        <ele>1069</ele>
        <time>2016-03-29T04:41:18Z</time>
      </trkpt>
      <trkpt lat="44.14765" lon="6.75736">
        <ele>1069</ele>
        <time>2016-03-29T04:43:18Z</time>
      </trkpt>
      <trkpt lat="44.14762" lon="6.75737">
        <ele>1069</ele>
        <time>2016-03-29T04:45:18Z</time>
      </trkpt>
      <trkpt lat="44.14753" lon="6.75735">
        <ele>1069</ele>
        <time>2016-03-29T04:47:18Z</time>
      </trkpt>
      <trkpt lat="44.14722" lon="6.75726">
        <ele>1070</ele>
        <time>2016-03-29T04:49:18Z</time>
      </trkpt>
      <trkpt lat="44.14715" lon="6.75726">
        <ele>1070</ele>
        <time>2016-03-29T04:51:18Z</time>
      </trkpt>
      <trkpt lat="44.14706" lon="6.75727">
        <ele>1070</ele>
        <time>2016-03-29T04:53:18Z</time>
      </trkpt>
      <trkpt lat="44.14669" lon="6.75739">
        <ele>1067</ele>
        <time>2016-03-29T04:55:18Z</time>
      </trkpt>
      <trkpt lat="44.14645" lon="6.75749">
        <ele>1065</ele>
        <time>2016-03-29T04:57:18Z</time>
      </trkpt>
      <trkpt lat="44.14592" lon="6.7577">
        <ele>1062</ele>
        <time>2016-03-29T04:59:18Z</time>
      </trkpt>
      <trkpt lat="44.14576" lon="6.75777">
        <ele>1061</ele>
        <time>2016-03-29T05:01:18Z</time>
      </trkpt>
      <trkpt lat="44.14561" lon="6.75786">
        <ele>1060</ele>
        <time>2016-03-29T05:03:18Z</time>
      </trkpt>
      <trkpt lat="44.14533" lon="6.75805">
        <ele>1060</ele>
        <time>2016-03-29T05:05:18Z</time>
      </trkpt>
      <trkpt lat="44.14526" lon="6.75811">
        <ele>1060</ele>
        <time>2016-03-29T05:07:18Z</time>
      </trkpt>
      <trkpt lat="44.14519" lon="6.75821">
        <ele>1060</ele>
        <time>2016-03-29T05:09:18Z</time>
      </trkpt>
      <trkpt lat="44.14506" lon="6.75846">
        <ele>1058</ele>
        <time>2016-03-29T05:11:18Z</time>
      </trkpt>
      <trkpt lat="44.14495" lon="6.75868">
        <ele>1056</ele>
        <time>2016-03-29T05:13:18Z</time>
      </trkpt>
      <trkpt lat="44.14484" lon="6.75887">
        <ele>1055</ele>
        <time>2016-03-29T05:15:18Z</time>
      </trkpt>
      <trkpt lat="44.14466" lon="6.75913">
        <ele>1056</ele>
        <time>2016-03-29T05:17:18Z</time>
      </trkpt>
      <trkpt lat="44.14461" lon="6.7592">
        <ele>1056</ele>
        <time>2016-03-29T05:19:18Z</time>
      </trkpt>
      <trkpt lat="44.14445" lon="6.75944">
        <ele>1055</ele>
        <time>2016-03-29T05:21:18Z</time>
      </trkpt>
      <trkpt lat="44.14426" lon="6.75967">
        <ele>1055</ele>
        <time>2016-03-29T05:23:18Z</time>
      </trkpt>
      <trkpt lat="44.14405" lon="6.75993">
        <ele>1053</ele>
        <time>2016-03-29T05:25:18Z</time>
      </trkpt>
      <trkpt lat="44.14387" lon="6.76011">
        <ele>1052</ele>
        <time>2016-03-29T05:27:18Z</time>
      </trkpt>
      <trkpt lat="44.14367" lon="6.76032">
        <ele>1051</ele>
        <time>2016-03-29T05:29:18Z</time>
      </trkpt>
      <trkpt lat="44.14359" lon="6.7604">
        <ele>1050</ele>
        <time>2016-03-29T05:31:18Z</time>
      </trkpt>
      <trkpt lat="44.14343" lon="6.76058">
        <ele>1050</ele>
        <time>2016-03-29T05:33:18Z</time>
      </trkpt>
      <trkpt lat="44.14326" lon="6.7608">
        <ele>1047</ele>
        <time>2016-03-29T05:35:18Z</time>
      </trkpt>
      <trkpt lat="44.14316" lon="6.76095">
        <ele>1044</ele>
        <time>2016-03-29T05:37:18Z</time>
      </trkpt>
      <trkpt lat="44.14313" lon="6.76101">
        <ele>1043</ele>
        <time>2016-03-29T05:39:18Z</time>
      </trkpt>
      <trkpt lat="44.14307" lon="6.76109">
        <ele>1042</ele>
        <time>2016-03-29T05:41:18Z</time>
      </trkpt>
      <trkpt lat="44.14301" lon="6.76116">
        <ele>1041</ele>
        <time>2016-03-29T05:43:18Z</time>
      </trkpt>
      <trkpt lat="44.14294" lon="6.76121">
        <ele>1041</ele>
        <time>2016-03-29T05:45:18Z</time>
      </trkpt>
      <trkpt lat="44.14288" lon="6.76124">
        <ele>1041</ele>
        <time>2016-03-29T05:47:18Z</time>
      </trkpt>
      <trkpt lat="44.14271" lon="6.76127">
        <ele>1042</ele>
        <time>2016-03-29T05:49:18Z</time>
      </trkpt>
      <trkpt lat="44.14266" lon="6.76129">
        <ele>1043</ele>
        <time>2016-03-29T05:51:18Z</time>
      </trkpt>
      <trkpt lat="44.14258" lon="6.76131">
        <ele>1043</ele>
        <time>2016-03-29T05:53:18Z</time>
      </trkpt>
      <trkpt lat="44.14258" lon="6.76131">
        <ele>1043</ele>
        <time>2016-03-29T05:55:18Z</time>
      </trkpt>
      <trkpt lat="44.14269" lon="6.76106">
        <ele>1044</ele>
        <time>2016-03-29T05:57:18Z</time>
      </trkpt>
      <trkpt lat="44.14278" lon="6.76081">
        <ele>1047</ele>
        <time>2016-03-29T05:59:18Z</time>
      </trkpt>
      <trkpt lat="44.14316" lon="6.75958">
        <ele>1060</ele>
        <time>2016-03-29T06:01:18Z</time>
      </trkpt>
      <trkpt lat="44.14331" lon="6.75906">
        <ele>1062</ele>
        <time>2016-03-29T06:03:18Z</time>
      </trkpt>
      <trkpt lat="44.14333" lon="6.75896">
        <ele>1062</ele>
        <time>2016-03-29T06:05:18Z</time>
      </trkpt>
      <trkpt lat="44.14334" lon="6.75888">
        <ele>1062</ele>
        <time>2016-03-29T06:07:18Z</time>
      </trkpt>
      <trkpt lat="44.14332" lon="6.75878">
        <ele>1062</ele>
        <time>2016-03-29T06:09:18Z</time>
      </trkpt>
      <trkpt lat="44.14331" lon="6.75874">
        <ele>1062</ele>
        <time>2016-03-29T06:11:18Z</time>
      </trkpt>
      <trkpt lat="44.14329" lon="6.75869">
        <ele>1062</ele>
        <time>2016-03-29T06:13:18Z</time>
      </trkpt>
      <trkpt lat="44.14327" lon="6.75865">
        <ele>1062</ele>
        <time>2016-03-29T06:15:18Z</time>
      </trkpt>
      <trkpt lat="44.14324" lon="6.75861">
        <ele>1063</ele>
        <time>2016-03-29T06:17:18Z</time>
      </trkpt>
      <trkpt lat="44.14321" lon="6.75858">
        <ele>1064</ele>
        <time>2016-03-29T06:19:18Z</time>
      </trkpt>
      <trkpt lat="44.14317" lon="6.75855">
        <ele>1064</ele>
        <time>2016-03-29T06:21:18Z</time>
      </trkpt>
      <trkpt lat="44.14313" lon="6.75852">
        <ele>1065</ele>
        <time>2016-03-29T06:23:18Z</time>
      </trkpt>
      <trkpt lat="44.14309" lon="6.75851">
        <ele>1066</ele>
        <time>2016-03-29T06:25:18Z</time>
      </trkpt>
      <trkpt lat="44.14304" lon="6.7585">
        <ele>1067</ele>
        <time>2016-03-29T06:27:18Z</time>
      </trkpt>
      <trkpt lat="44.143" lon="6.7585">
        <ele>1068</ele>
        <time>2016-03-29T06:29:18Z</time>
      </trkpt>
      <trkpt lat="44.14296" lon="6.75851">
        <ele>1069</ele>
        <time>2016-03-29T06:31:18Z</time>
      </trkpt>
      <trkpt lat="44.14291" lon="6.75853">
        <ele>1070</ele>
        <time>2016-03-29T06:33:18Z</time>
      </trkpt>
      <trkpt lat="44.14287" lon="6.75855">
        <ele>1070</ele>
        <time>2016-03-29T06:35:18Z</time>
      </trkpt>
      <trkpt lat="44.14282" lon="6.75857">
        <ele>1071</ele>
        <time>2016-03-29T06:37:18Z</time>
      </trkpt>
      <trkpt lat="44.14278" lon="6.75859">
        <ele>1071</ele>
        <time>2016-03-29T06:39:18Z</time>
      </trkpt>
      <trkpt lat="44.14273" lon="6.75861">
        <ele>1072</ele>
        <time>2016-03-29T06:41:18Z</time>
      </trkpt>
      <trkpt lat="44.14268" lon="6.75863">
        <ele>1072</ele>
        <time>2016-03-29T06:43:18Z</time>
      </trkpt>
      <trkpt lat="44.14264" lon="6.75866">
        <ele>1073</ele>
        <time>2016-03-29T06:45:18Z</time>
      </trkpt>
      <trkpt lat="44.14259" lon="6.75869">
        <ele>1073</ele>
        <time>2016-03-29T06:47:18Z</time>
      </trkpt>
      <trkpt lat="44.14255" lon="6.75872">
        <ele>1073</ele>
        <time>2016-03-29T06:49:18Z</time>
      </trkpt>
      <trkpt lat="44.14251" lon="6.75875">
        <ele>1072</ele>
        <time>2016-03-29T06:51:18Z</time>
      </trkpt>
      <trkpt lat="44.14247" lon="6.7588">
        <ele>1072</ele>
        <time>2016-03-29T06:53:18Z</time>
      </trkpt>
      <trkpt lat="44.14243" lon="6.75884">
        <ele>1073</ele>
        <time>2016-03-29T06:55:18Z</time>
      </trkpt>
      <trkpt lat="44.14239" lon="6.75888">
        <ele>1073</ele>
        <time>2016-03-29T06:57:18Z</time>
      </trkpt>
      <trkpt lat="44.14236" lon="6.75892">
        <ele>1073</ele>
        <time>2016-03-29T06:59:18Z</time>
      </trkpt>
      <trkpt lat="44.14232" lon="6.75897">
        <ele>1073</ele>
        <time>2016-03-29T07:01:18Z</time>
      </trkpt>
      <trkpt lat="44.14228" lon="6.75901">
        <ele>1073</ele>
        <time>2016-03-29T07:03:18Z</time>
      </trkpt>
      <trkpt lat="44.14225" lon="6.75905">
        <ele>1073</ele>
        <time>2016-03-29T07:05:18Z</time>
      </trkpt>
      <trkpt lat="44.14221" lon="6.75909">
        <ele>1073</ele>
        <time>2016-03-29T07:07:18Z</time>
      </trkpt>
      <trkpt lat="44.14217" lon="6.75913">
        <ele>1073</ele>
        <time>2016-03-29T07:09:18Z</time>
      </trkpt>
      <trkpt lat="44.14213" lon="6.75916">
        <ele>1074</ele>
        <time>2016-03-29T07:11:18Z</time>
      </trkpt>
      <trkpt lat="44.14209" lon="6.75919">
        <ele>1074</ele>
        <time>2016-03-29T07:13:18Z</time>
      </trkpt>
      <trkpt lat="44.14204" lon="6.75922">
        <ele>1075</ele>
        <time>2016-03-29T07:15:18Z</time>
      </trkpt>
      <trkpt lat="44.142" lon="6.75924">
        <ele>1076</ele>
        <time>2016-03-29T07:17:18Z</time>
      </trkpt>
      <trkpt lat="44.14195" lon="6.75926">
        <ele>1076</ele>
        <time>2016-03-29T07:19:18Z</time>
      </trkpt>
      <trkpt lat="44.14191" lon="6.75927">
        <ele>1077</ele>
        <time>2016-03-29T07:21:18Z</time>
      </trkpt>
      <trkpt lat="44.14186" lon="6.75928">
        <ele>1078</ele>
        <time>2016-03-29T07:23:18Z</time>
      </trkpt>
      <trkpt lat="44.14181" lon="6.75929">
        <ele>1080</ele>
        <time>2016-03-29T07:25:18Z</time>
      </trkpt>
      <trkpt lat="44.14171" lon="6.7593">
        <ele>1082</ele>
        <time>2016-03-29T07:27:18Z</time>
      </trkpt>
      <trkpt lat="44.14166" lon="6.75931">
        <ele>1083</ele>
        <time>2016-03-29T07:29:18Z</time>
      </trkpt>
      <trkpt lat="44.1416" lon="6.75931">
        <ele>1085</ele>
        <time>2016-03-29T07:31:18Z</time>
      </trkpt>
      <trkpt lat="44.14155" lon="6.75932">
        <ele>1086</ele>
        <time>2016-03-29T07:33:18Z</time>
      </trkpt>
      <trkpt lat="44.1415" lon="6.75933">
        <ele>1087</ele>
        <time>2016-03-29T07:35:18Z</time>
      </trkpt>
      <trkpt lat="44.14144" lon="6.75935">
        <ele>1088</ele>
        <time>2016-03-29T07:37:18Z</time>
      </trkpt>
      <trkpt lat="44.14139" lon="6.75937">
        <ele>1089</ele>
        <time>2016-03-29T07:39:18Z</time>
      </trkpt>
      <trkpt lat="44.14134" lon="6.7594">
        <ele>1089</ele>
        <time>2016-03-29T07:41:18Z</time>
      </trkpt>
      <trkpt lat="44.14129" lon="6.75944">
        <ele>1089</ele>
        <time>2016-03-29T07:43:18Z</time>
      </trkpt>
      <trkpt lat="44.14124" lon="6.75947">
        <ele>1090</ele>
        <time>2016-03-29T07:45:18Z</time>
      </trkpt>
      <trkpt lat="44.14119" lon="6.75952">
        <ele>1090</ele>
        <time>2016-03-29T07:47:18Z</time>
      </trkpt>
      <trkpt lat="44.14114" lon="6.75956">
        <ele>1090</ele>
        <time>2016-03-29T07:49:18Z</time>
      </trkpt>
      <trkpt lat="44.14109" lon="6.7596">
        <ele>1090</ele>
        <time>2016-03-29T07:51:18Z</time>
      </trkpt>
      <trkpt lat="44.14104" lon="6.75964">
        <ele>1090</ele>
        <time>2016-03-29T07:53:18Z</time>
      </trkpt>
      <trkpt lat="44.14099" lon="6.75968">
        <ele>1090</ele>
        <time>2016-03-29T07:55:18Z</time>
      </trkpt>
      <trkpt lat="44.14094" lon="6.75973">
        <ele>1090</ele>
        <time>2016-03-29T07:57:18Z</time>
      </trkpt>
      <trkpt lat="44.1409" lon="6.75978">
        <ele>1089</ele>
        <time>2016-03-29T07:59:18Z</time>
      </trkpt>
      <trkpt lat="44.14085" lon="6.75983">
        <ele>1089</ele>
        <time>2016-03-29T08:01:18Z</time>
      </trkpt>
      <trkpt lat="44.14081" lon="6.75988">
        <ele>1089</ele>
        <time>2016-03-29T08:03:18Z</time>
      </trkpt>
      <trkpt lat="44.14077" lon="6.75994">
        <ele>1089</ele>
        <time>2016-03-29T08:05:18Z</time>
      </trkpt>
      <trkpt lat="44.14072" lon="6.76">
        <ele>1090</ele>
        <time>2016-03-29T08:07:18Z</time>
      </trkpt>
      <trkpt lat="44.14068" lon="6.76006">
        <ele>1090</ele>
        <time>2016-03-29T08:09:18Z</time>
      </trkpt>
      <trkpt lat="44.14064" lon="6.76012">
        <ele>1090</ele>
        <time>2016-03-29T08:11:18Z</time>
      </trkpt>
      <trkpt lat="44.14037" lon="6.76049">
        <ele>1093</ele>
        <time>2016-03-29T08:13:18Z</time>
      </trkpt>
      <trkpt lat="44.14021" lon="6.76067">
        <ele>1096</ele>
        <time>2016-03-29T08:15:18Z</time>
      </trkpt>
      <trkpt lat="44.13979" lon="6.76115">
        <ele>1100</ele>
        <time>2016-03-29T08:17:18Z</time>
      </trkpt>
      <trkpt lat="44.1395" lon="6.7615">
        <ele>1099</ele>
        <time>2016-03-29T08:19:18Z</time>
      </trkpt>
      <trkpt lat="44.13927" lon="6.7617">
        <ele>1102</ele>
        <time>2016-03-29T08:21:18Z</time>
      </trkpt>
      <trkpt lat="44.13909" lon="6.76188">
        <ele>1104</ele>
        <time>2016-03-29T08:23:18Z</time>
      </trkpt>
      <trkpt lat="44.13896" lon="6.76205">
        <ele>1103</ele>
        <time>2016-03-29T08:25:18Z</time>
      </trkpt>
      <trkpt lat="44.13885" lon="6.76217">
        <ele>1103</ele>
        <time>2016-03-29T08:27:18Z</time>
      </trkpt>
      <trkpt lat="44.13866" lon="6.7623">
        <ele>1104</ele>
        <time>2016-03-29T08:29:18Z</time>
      </trkpt>
      <trkpt lat="44.13831" lon="6.76248">
        <ele>1106</ele>
        <time>2016-03-29T08:31:18Z</time>
      </trkpt>
      <trkpt lat="44.13809" lon="6.76258">
        <ele>1107</ele>
        <time>2016-03-29T08:33:18Z</time>
      </trkpt>
      <trkpt lat="44.13791" lon="6.76265">
        <ele>1108</ele>
        <time>2016-03-29T08:35:18Z</time>
      </trkpt>
      <trkpt lat="44.13788" lon="6.76266">
        <ele>1109</ele>
        <time>2016-03-29T08:37:18Z</time>
      </trkpt>
      <trkpt lat="44.13782" lon="6.76268">
        <ele>1109</ele>
        <time>2016-03-29T08:39:18Z</time>
      </trkpt>
      <trkpt lat="44.13776" lon="6.76269">
        <ele>1110</ele>
        <time>2016-03-29T08:41:18Z</time>
      </trkpt>
      <trkpt lat="44.13769" lon="6.7627">
        <ele>1111</ele>
        <time>2016-03-29T08:43:18Z</time>
      </trkpt>
      <trkpt lat="44.13763" lon="6.76271">
        <ele>1113</ele>
        <time>2016-03-29T08:45:18Z</time>
      </trkpt>
      <trkpt lat="44.13757" lon="6.76272">
        <ele>1114</ele>
        <time>2016-03-29T08:47:18Z</time>
      </trkpt>
      <trkpt lat="44.1375" lon="6.76273">
        <ele>1115</ele>
        <time>2016-03-29T08:49:18Z</time>
      </trkpt>
      <trkpt lat="44.13743" lon="6.76274">
        <ele>1116</ele>
        <time>2016-03-29T08:51:18Z</time>
      </trkpt>
      <trkpt lat="44.13711" lon="6.76278">
        <ele>1121</ele>
        <time>2016-03-29T08:53:18Z</time>
      </trkpt>
      <trkpt lat="44.13704" lon="6.76279">
        <ele>1122</ele>
        <time>2016-03-29T08:55:18Z</time>
      </trkpt>
      <trkpt lat="44.13697" lon="6.76281">
        <ele>1122</ele>
        <time>2016-03-29T08:57:18Z</time>
      </trkpt>
      <trkpt lat="44.13691" lon="6.76282">
        <ele>1123</ele>
        <time>2016-03-29T08:59:18Z</time>
      </trkpt>
      <trkpt lat="44.13685" lon="6.76285">
        <ele>1123</ele>
        <time>2016-03-29T09:01:18Z</time>
      </trkpt>
      <trkpt lat="44.13678" lon="6.76288">
        <ele>1123</ele>
        <time>2016-03-29T09:03:18Z</time>
      </trkpt>
      <trkpt lat="44.13672" lon="6.76291">
        <ele>1123</ele>
        <time>2016-03-29T09:05:18Z</time>
      </trkpt>
      <trkpt lat="44.13666" lon="6.76294">
        <ele>1123</ele>
        <time>2016-03-29T09:07:18Z</time>
      </trkpt>
      <trkpt lat="44.1366" lon="6.76297">
        <ele>1123</ele>
        <time>2016-03-29T09:09:18Z</time>
      </trkpt>
      <trkpt lat="44.13654" lon="6.76301">
        <ele>1122</ele>
        <time>2016-03-29T09:11:18Z</time>
      </trkpt>
      <trkpt lat="44.13649" lon="6.76304">
        <ele>1121</ele>
        <time>2016-03-29T09:13:18Z</time>
      </trkpt>
      <trkpt lat="44.13642" lon="6.76307">
        <ele>1120</ele>
        <time>2016-03-29T09:15:18Z</time>
      </trkpt>
      <trkpt lat="44.13637" lon="6.76309">
        <ele>1120</ele>
        <time>2016-03-29T09:17:18Z</time>
      </trkpt>
      <trkpt lat="44.13631" lon="6.7631">
        <ele>1120</ele>
        <time>2016-03-29T09:19:18Z</time>
      </trkpt>
      <trkpt lat="44.13625" lon="6.7631">
        <ele>1121</ele>
        <time>2016-03-29T09:21:18Z</time>
      </trkpt>
      <trkpt lat="44.13618" lon="6.7631">
        <ele>1121</ele>
        <time>2016-03-29T09:23:18Z</time>
      </trkpt>
      <trkpt lat="44.13612" lon="6.7631">
        <ele>1122</ele>
        <time>2016-03-29T09:25:18Z</time>
      </trkpt>
      <trkpt lat="44.13606" lon="6.7631">
        <ele>1122</ele>
        <time>2016-03-29T09:27:18Z</time>
      </trkpt>
      <trkpt lat="44.136" lon="6.76309">
        <ele>1123</ele>
        <time>2016-03-29T09:29:18Z</time>
      </trkpt>
      <trkpt lat="44.13593" lon="6.76309">
        <ele>1124</ele>
        <time>2016-03-29T09:31:18Z</time>
      </trkpt>
      <trkpt lat="44.13587" lon="6.76308">
        <ele>1125</ele>
        <time>2016-03-29T09:33:18Z</time>
      </trkpt>
      <trkpt lat="44.13581" lon="6.76307">
        <ele>1126</ele>
        <time>2016-03-29T09:35:18Z</time>
      </trkpt>
      <trkpt lat="44.13574" lon="6.76306">
        <ele>1126</ele>
        <time>2016-03-29T09:37:18Z</time>
      </trkpt>
      <trkpt lat="44.13568" lon="6.76304">
        <ele>1127</ele>
        <time>2016-03-29T09:39:18Z</time>
      </trkpt>
      <trkpt lat="44.13562" lon="6.76302">
        <ele>1128</ele>
        <time>2016-03-29T09:41:18Z</time>
      </trkpt>
      <trkpt lat="44.13555" lon="6.76299">
        <ele>1130</ele>
        <time>2016-03-29T09:43:18Z</time>
      </trkpt>
      <trkpt lat="44.13549" lon="6.76297">
        <ele>1130</ele>
        <time>2016-03-29T09:45:18Z</time>
      </trkpt>
      <trkpt lat="44.13542" lon="6.76294">
        <ele>1132</ele>
        <time>2016-03-29T09:47:18Z</time>
      </trkpt>
      <trkpt lat="44.13535" lon="6.76292">
        <ele>1133</ele>
        <time>2016-03-29T09:49:18Z</time>
      </trkpt>
      <trkpt lat="44.13529" lon="6.7629">
        <ele>1134</ele>
        <time>2016-03-29T09:51:18Z</time>
      </trkpt>
      <trkpt lat="44.13522" lon="6.76289">
        <ele>1134</ele>
        <time>2016-03-29T09:53:18Z</time>
      </trkpt>
      <trkpt lat="44.13515" lon="6.76289">
        <ele>1134</ele>
        <time>2016-03-29T09:55:18Z</time>
      </trkpt>
      <trkpt lat="44.13508" lon="6.76288">
        <ele>1134</ele>
        <time>2016-03-29T09:57:18Z</time>
      </trkpt>
      <trkpt lat="44.13501" lon="6.76288">
        <ele>1134</ele>
        <time>2016-03-29T09:59:18Z</time>
      </trkpt>
      <trkpt lat="44.13494" lon="6.76287">
        <ele>1135</ele>
        <time>2016-03-29T10:01:18Z</time>
      </trkpt>
      <trkpt lat="44.13487" lon="6.76286">
        <ele>1135</ele>
        <time>2016-03-29T10:03:18Z</time>
      </trkpt>
      <trkpt lat="44.1348" lon="6.76285">
        <ele>1136</ele>
        <time>2016-03-29T10:05:18Z</time>
      </trkpt>
      <trkpt lat="44.13473" lon="6.76283">
        <ele>1137</ele>
        <time>2016-03-29T10:07:18Z</time>
      </trkpt>
      <trkpt lat="44.13466" lon="6.76282">
        <ele>1137</ele>
        <time>2016-03-29T10:09:18Z</time>
      </trkpt>
      <trkpt lat="44.1346" lon="6.76281">
        <ele>1138</ele>
        <time>2016-03-29T10:11:18Z</time>
      </trkpt>
      <trkpt lat="44.13453" lon="6.7628">
        <ele>1138</ele>
        <time>2016-03-29T10:13:18Z</time>
      </trkpt>
      <trkpt lat="44.13446" lon="6.7628">
        <ele>1138</ele>
        <time>2016-03-29T10:15:18Z</time>
      </trkpt>
      <trkpt lat="44.1344" lon="6.76282">
        <ele>1138</ele>
        <time>2016-03-29T10:17:18Z</time>
      </trkpt>
      <trkpt lat="44.13433" lon="6.76284">
        <ele>1137</ele>
        <time>2016-03-29T10:19:18Z</time>
      </trkpt>
      <trkpt lat="44.13427" lon="6.76286">
        <ele>1137</ele>
        <time>2016-03-29T10:21:18Z</time>
      </trkpt>
      <trkpt lat="44.1342" lon="6.76288">
        <ele>1136</ele>
        <time>2016-03-29T10:23:18Z</time>
      </trkpt>
      <trkpt lat="44.13414" lon="6.7629">
        <ele>1135</ele>
        <time>2016-03-29T10:25:18Z</time>
      </trkpt>
      <trkpt lat="44.13408" lon="6.76292">
        <ele>1134</ele>
        <time>2016-03-29T10:27:18Z</time>
      </trkpt>
      <trkpt lat="44.13403" lon="6.76294">
        <ele>1133</ele>
        <time>2016-03-29T10:29:18Z</time>
      </trkpt>
      <trkpt lat="44.13397" lon="6.76296">
        <ele>1132</ele>
        <time>2016-03-29T10:31:18Z</time>
      </trkpt>
      <trkpt lat="44.13392" lon="6.76297">
        <ele>1131</ele>
        <time>2016-03-29T10:33:18Z</time>
      </trkpt>
      <trkpt lat="44.13387" lon="6.76298">
        <ele>1131</ele>
        <time>2016-03-29T10:35:18Z</time>
      </trkpt>
      <trkpt lat="44.13382" lon="6.76299">
        <ele>1130</ele>
        <time>2016-03-29T10:37:18Z</time>
      </trkpt>
      <trkpt lat="44.13378" lon="6.763">
        <ele>1129</ele>
        <time>2016-03-29T10:39:18Z</time>
      </trkpt>
      <trkpt lat="44.13374" lon="6.763">
        <ele>1129</ele>
        <time>2016-03-29T10:41:18Z</time>
      </trkpt>
      <trkpt lat="44.13369" lon="6.76301">
        <ele>1128</ele>
        <time>2016-03-29T10:43:18Z</time>
      </trkpt>
      <trkpt lat="44.13366" lon="6.76302">
        <ele>1128</ele>
        <time>2016-03-29T10:45:18Z</time>
      </trkpt>
      <trkpt lat="44.13362" lon="6.76302">
        <ele>1128</ele>
        <time>2016-03-29T10:47:18Z</time>
      </trkpt>
      <trkpt lat="44.13359" lon="6.76303">
        <ele>1127</ele>
        <time>2016-03-29T10:49:18Z</time>
      </trkpt>
      <trkpt lat="44.13355" lon="6.76302">
        <ele>1127</ele>
        <time>2016-03-29T10:51:18Z</time>
      </trkpt>
      <trkpt lat="44.13353" lon="6.763">
        <ele>1128</ele>
        <time>2016-03-29T10:53:18Z</time>
      </trkpt>
      <trkpt lat="44.13352" lon="6.76298">
        <ele>1128</ele>
        <time>2016-03-29T10:55:18Z</time>
      </trkpt>
      <trkpt lat="44.13351" lon="6.76294">
        <ele>1129</ele>
        <time>2016-03-29T10:57:18Z</time>
      </trkpt>
      <trkpt lat="44.13351" lon="6.76292">
        <ele>1130</ele>
        <time>2016-03-29T10:59:18Z</time>
      </trkpt>
      <trkpt lat="44.13353" lon="6.76289">
        <ele>1131</ele>
        <time>2016-03-29T11:01:18Z</time>
      </trkpt>
      <trkpt lat="44.13355" lon="6.76288">
        <ele>1132</ele>
        <time>2016-03-29T11:03:18Z</time>
      </trkpt>
      <trkpt lat="44.13357" lon="6.76287">
        <ele>1132</ele>
        <time>2016-03-29T11:05:18Z</time>
      </trkpt>
      <trkpt lat="44.1336" lon="6.76288">
        <ele>1132</ele>
        <time>2016-03-29T11:07:18Z</time>
      </trkpt>
      <trkpt lat="44.13362" lon="6.76288">
        <ele>1132</ele>
        <time>2016-03-29T11:09:18Z</time>
      </trkpt>
      <trkpt lat="44.13365" lon="6.76288">
        <ele>1133</ele>
        <time>2016-03-29T11:11:18Z</time>
      </trkpt>
      <trkpt lat="44.13368" lon="6.76289">
        <ele>1132</ele>
        <time>2016-03-29T11:13:18Z</time>
      </trkpt>
      <trkpt lat="44.13371" lon="6.76289">
        <ele>1133</ele>
        <time>2016-03-29T11:15:18Z</time>
      </trkpt>
      <trkpt lat="44.13374" lon="6.7629">
        <ele>1132</ele>
        <time>2016-03-29T11:17:18Z</time>
      </trkpt>
      <trkpt lat="44.13377" lon="6.7629">
        <ele>1133</ele>
        <time>2016-03-29T11:19:18Z</time>
      </trkpt>
      <trkpt lat="44.13381" lon="6.76289">
        <ele>1133</ele>
        <time>2016-03-29T11:21:18Z</time>
      </trkpt>
      <trkpt lat="44.13385" lon="6.76288">
        <ele>1134</ele>
        <time>2016-03-29T11:23:18Z</time>
      </trkpt>
      <trkpt lat="44.13389" lon="6.76286">
        <ele>1135</ele>
        <time>2016-03-29T11:25:18Z</time>
      </trkpt>
      <trkpt lat="44.13392" lon="6.76283">
        <ele>1136</ele>
        <time>2016-03-29T11:27:18Z</time>
      </trkpt>
      <trkpt lat="44.13396" lon="6.76281">
        <ele>1137</ele>
        <time>2016-03-29T11:29:18Z</time>
      </trkpt>
      <trkpt lat="44.134" lon="6.76278">
        <ele>1138</ele>
        <time>2016-03-29T11:31:18Z</time>
      </trkpt>
      <trkpt lat="44.13404" lon="6.76274">
        <ele>1140</ele>
        <time>2016-03-29T11:33:18Z</time>
      </trkpt>
      <trkpt lat="44.13408" lon="6.76271">
        <ele>1141</ele>
        <time>2016-03-29T11:35:18Z</time>
      </trkpt>
      <trkpt lat="44.13412" lon="6.76269">
        <ele>1142</ele>
        <time>2016-03-29T11:37:18Z</time>
      </trkpt>
      <trkpt lat="44.13416" lon="6.76267">
        <ele>1143</ele>
        <time>2016-03-29T11:39:18Z</time>
      </trkpt>
      <trkpt lat="44.1342" lon="6.76265">
        <ele>1143</ele>
        <time>2016-03-29T11:41:18Z</time>
      </trkpt>
      <trkpt lat="44.13424" lon="6.76264">
        <ele>1144</ele>
        <time>2016-03-29T11:43:18Z</time>
      </trkpt>
      <trkpt lat="44.13431" lon="6.76263">
        <ele>1144</ele>
        <time>2016-03-29T11:45:18Z</time>
      </trkpt>
      <trkpt lat="44.13438" lon="6.76262">
        <ele>1145</ele>
        <time>2016-03-29T11:47:18Z</time>
      </trkpt>
      <trkpt lat="44.13441" lon="6.76261">
        <ele>1145</ele>
        <time>2016-03-29T11:49:18Z</time>
      </trkpt>
      <trkpt lat="44.13442" lon="6.76258">
        <ele>1146</ele>
        <time>2016-03-29T11:51:18Z</time>
      </trkpt>
      <trkpt lat="44.13443" lon="6.76255">
        <ele>1147</ele>
        <time>2016-03-29T11:53:18Z</time>
      </trkpt>
      <trkpt lat="44.13443" lon="6.76251">
        <ele>1149</ele>
        <time>2016-03-29T11:55:18Z</time>
      </trkpt>
      <trkpt lat="44.13442" lon="6.76249">
        <ele>1149</ele>
        <time>2016-03-29T11:57:18Z</time>
      </trkpt>
      <trkpt lat="44.13441" lon="6.76246">
        <ele>1151</ele>
        <time>2016-03-29T11:59:18Z</time>
      </trkpt>
      <trkpt lat="44.13437" lon="6.76246">
        <ele>1150</ele>
        <time>2016-03-29T12:01:18Z</time>
      </trkpt>
      <trkpt lat="44.13433" lon="6.76247">
        <ele>1150</ele>
        <time>2016-03-29T12:03:18Z</time>
      </trkpt>
      <trkpt lat="44.13427" lon="6.7625">
        <ele>1148</ele>
        <time>2016-03-29T12:05:18Z</time>
      </trkpt>
      <trkpt lat="44.13392" lon="6.76264">
        <ele>1142</ele>
        <time>2016-03-29T12:07:18Z</time>
      </trkpt>
      <trkpt lat="44.1337" lon="6.76269">
        <ele>1139</ele>
        <time>2016-03-29T12:09:18Z</time>
      </trkpt>
      <trkpt lat="44.13358" lon="6.7627">
        <ele>1138</ele>
        <time>2016-03-29T12:11:18Z</time>
      </trkpt>
      <trkpt lat="44.13347" lon="6.76269">
        <ele>1138</ele>
        <time>2016-03-29T12:13:18Z</time>
      </trkpt>
      <trkpt lat="44.13344" lon="6.76267">
        <ele>1138</ele>
        <time>2016-03-29T12:15:18Z</time>
      </trkpt>
      <trkpt lat="44.13343" lon="6.76266">
        <ele>1139</ele>
        <time>2016-03-29T12:17:18Z</time>
      </trkpt>
      <trkpt lat="44.13342" lon="6.76261">
        <ele>1141</ele>
        <time>2016-03-29T12:19:18Z</time>
      </trkpt>
      <trkpt lat="44.13343" lon="6.76258">
        <ele>1142</ele>
        <time>2016-03-29T12:21:18Z</time>
      </trkpt>
      <trkpt lat="44.13345" lon="6.76256">
        <ele>1142</ele>
        <time>2016-03-29T12:23:18Z</time>
      </trkpt>
      <trkpt lat="44.1335" lon="6.76254">
        <ele>1143</ele>
        <time>2016-03-29T12:25:18Z</time>
      </trkpt>
      <trkpt lat="44.13357" lon="6.76255">
        <ele>1143</ele>
        <time>2016-03-29T12:27:18Z</time>
      </trkpt>
      <trkpt lat="44.13364" lon="6.76256">
        <ele>1143</ele>
        <time>2016-03-29T12:29:18Z</time>
      </trkpt>
      <trkpt lat="44.13373" lon="6.76254">
        <ele>1145</ele>
        <time>2016-03-29T12:31:18Z</time>
      </trkpt>
      <trkpt lat="44.13381" lon="6.76251">
        <ele>1146</ele>
        <time>2016-03-29T12:33:18Z</time>
      </trkpt>
      <trkpt lat="44.13402" lon="6.7624">
        <ele>1151</ele>
        <time>2016-03-29T12:35:18Z</time>
      </trkpt>
      <trkpt lat="44.13407" lon="6.76234">
        <ele>1154</ele>
        <time>2016-03-29T12:37:18Z</time>
      </trkpt>
      <trkpt lat="44.13409" lon="6.76229">
        <ele>1157</ele>
        <time>2016-03-29T12:39:18Z</time>
      </trkpt>
      <trkpt lat="44.13409" lon="6.76227">
        <ele>1157</ele>
        <time>2016-03-29T12:41:18Z</time>
      </trkpt>
      <trkpt lat="44.13408" lon="6.76225">
        <ele>1158</ele>
        <time>2016-03-29T12:43:18Z</time>
      </trkpt>
      <trkpt lat="44.13406" lon="6.76223">
        <ele>1159</ele>
        <time>2016-03-29T12:45:18Z</time>
      </trkpt>
      <trkpt lat="44.134" lon="6.76221">
        <ele>1159</ele>
        <time>2016-03-29T12:47:18Z</time>
      </trkpt>
      <trkpt lat="44.13394" lon="6.76225">
        <ele>1157</ele>
        <time>2016-03-29T12:49:18Z</time>
      </trkpt>
      <trkpt lat="44.13373" lon="6.76236">
        <ele>1151</ele>
        <time>2016-03-29T12:51:18Z</time>
      </trkpt>
      <trkpt lat="44.13367" lon="6.76239">
        <ele>1149</ele>
        <time>2016-03-29T12:53:18Z</time>
      </trkpt>
      <trkpt lat="44.13362" lon="6.76239">
        <ele>1149</ele>
        <time>2016-03-29T12:55:18Z</time>
      </trkpt>
      <trkpt lat="44.13356" lon="6.76239">
        <ele>1149</ele>
        <time>2016-03-29T12:57:18Z</time>
      </trkpt>
      <trkpt lat="44.13352" lon="6.76238">
        <ele>1149</ele>
        <time>2016-03-29T12:59:18Z</time>
      </trkpt>
      <trkpt lat="44.13347" lon="6.76238">
        <ele>1148</ele>
        <time>2016-03-29T13:01:18Z</time>
      </trkpt>
      <trkpt lat="44.13339" lon="6.76233">
        <ele>1149</ele>
        <time>2016-03-29T13:03:18Z</time>
      </trkpt>
      <trkpt lat="44.13331" lon="6.76225">
        <ele>1150</ele>
        <time>2016-03-29T13:05:18Z</time>
      </trkpt>
      <trkpt lat="44.13329" lon="6.7622">
        <ele>1150</ele>
        <time>2016-03-29T13:07:18Z</time>
      </trkpt>
      <trkpt lat="44.13327" lon="6.76216">
        <ele>1150</ele>
        <time>2016-03-29T13:09:18Z</time>
      </trkpt>
      <trkpt lat="44.13325" lon="6.76208">
        <ele>1151</ele>
        <time>2016-03-29T13:11:18Z</time>
      </trkpt>
      <trkpt lat="44.13325" lon="6.76205">
        <ele>1152</ele>
        <time>2016-03-29T13:13:18Z</time>
      </trkpt>
      <trkpt lat="44.13323" lon="6.76195">
        <ele>1154</ele>
        <time>2016-03-29T13:15:18Z</time>
      </trkpt>
      <trkpt lat="44.13321" lon="6.76159">
        <ele>1164</ele>
        <time>2016-03-29T13:17:18Z</time>
      </trkpt>
      <trkpt lat="44.1332" lon="6.76154">
        <ele>1166</ele>
        <time>2016-03-29T13:19:18Z</time>
      </trkpt>
      <trkpt lat="44.1332" lon="6.76148">
        <ele>1169</ele>
        <time>2016-03-29T13:21:18Z</time>
      </trkpt>
      <trkpt lat="44.13319" lon="6.76141">
        <ele>1171</ele>
        <time>2016-03-29T13:23:18Z</time>
      </trkpt>
      <trkpt lat="44.13318" lon="6.76135">
        <ele>1174</ele>
        <time>2016-03-29T13:25:18Z</time>
      </trkpt>
      <trkpt lat="44.13316" lon="6.76129">
        <ele>1175</ele>
        <time>2016-03-29T13:27:18Z</time>
      </trkpt>
      <trkpt lat="44.13313" lon="6.76123">
        <ele>1176</ele>
        <time>2016-03-29T13:29:18Z</time>
      </trkpt>
      <trkpt lat="44.13309" lon="6.76118">
        <ele>1177</ele>
        <time>2016-03-29T13:31:18Z</time>
      </trkpt>
      <trkpt lat="44.13303" lon="6.76109">
        <ele>1177</ele>
        <time>2016-03-29T13:33:18Z</time>
      </trkpt>
      <trkpt lat="44.13288" lon="6.7609">
        <ele>1177</ele>
        <time>2016-03-29T13:35:18Z</time>
      </trkpt>
      <trkpt lat="44.13269" lon="6.76066">
        <ele>1177</ele>
        <time>2016-03-29T13:37:18Z</time>
      </trkpt>
      <trkpt lat="44.13257" lon="6.76053">
        <ele>1176</ele>
        <time>2016-03-29T13:39:18Z</time>
      </trkpt>
      <trkpt lat="44.13249" lon="6.76046">
        <ele>1175</ele>
        <time>2016-03-29T13:41:18Z</time>
      </trkpt>
      <trkpt lat="44.13242" lon="6.76038">
        <ele>1175</ele>
        <time>2016-03-29T13:43:18Z</time>
      </trkpt>
      <trkpt lat="44.13231" lon="6.76026">
        <ele>1174</ele>
        <time>2016-03-29T13:45:18Z</time>
      </trkpt>
      <trkpt lat="44.13225" lon="6.76017">
        <ele>1174</ele>
        <time>2016-03-29T13:47:18Z</time>
      </trkpt>
      <trkpt lat="44.1322" lon="6.76008">
        <ele>1175</ele>
        <time>2016-03-29T13:49:18Z</time>
      </trkpt>
      <trkpt lat="44.13214" lon="6.75998">
        <ele>1174</ele>
        <time>2016-03-29T13:51:18Z</time>
      </trkpt>
      <trkpt lat="44.1321" lon="6.75987">
        <ele>1175</ele>
        <time>2016-03-29T13:53:18Z</time>
      </trkpt>
      <trkpt lat="44.13208" lon="6.75981">
        <ele>1175</ele>
        <time>2016-03-29T13:55:18Z</time>
      </trkpt>
      <trkpt lat="44.13207" lon="6.75975">
        <ele>1176</ele>
        <time>2016-03-29T13:57:18Z</time>
      </trkpt>
      <trkpt lat="44.13206" lon="6.75968">
        <ele>1177</ele>
        <time>2016-03-29T13:59:18Z</time>
      </trkpt>
      <trkpt lat="44.13204" lon="6.75962">
        <ele>1177</ele>
        <time>2016-03-29T14:01:18Z</time>
      </trkpt>
      <trkpt lat="44.13203" lon="6.75951">
        <ele>1179</ele>
        <time>2016-03-29T14:03:18Z</time>
      </trkpt>
      <trkpt lat="44.13202" lon="6.7594">
        <ele>1182</ele>
        <time>2016-03-29T14:05:18Z</time>
      </trkpt>
      <trkpt lat="44.13202" lon="6.75935">
        <ele>1183</ele>
        <time>2016-03-29T14:07:18Z</time>
      </trkpt>
      <trkpt lat="44.13201" lon="6.75912">
        <ele>1190</ele>
        <time>2016-03-29T14:09:18Z</time>
      </trkpt>
      <trkpt lat="44.132" lon="6.75892">
        <ele>1202</ele>
        <time>2016-03-29T14:11:18Z</time>
      </trkpt>
      <trkpt lat="44.13199" lon="6.75886">
        <ele>1205</ele>
        <time>2016-03-29T14:13:18Z</time>
      </trkpt>
      <trkpt lat="44.13198" lon="6.7588">
        <ele>1207</ele>
        <time>2016-03-29T14:15:18Z</time>
      </trkpt>
      <trkpt lat="44.13197" lon="6.75874">
        <ele>1210</ele>
        <time>2016-03-29T14:17:18Z</time>
      </trkpt>
      <trkpt lat="44.13196" lon="6.75868">
        <ele>1213</ele>
        <time>2016-03-29T14:19:18Z</time>
      </trkpt>
      <trkpt lat="44.13193" lon="6.75863">
        <ele>1212</ele>
        <time>2016-03-29T14:21:18Z</time>
      </trkpt>
      <trkpt lat="44.13192" lon="6.75858">
        <ele>1214</ele>
        <time>2016-03-29T14:23:18Z</time>
      </trkpt>
      <trkpt lat="44.13189" lon="6.75852">
        <ele>1214</ele>
        <time>2016-03-29T14:25:18Z</time>
      </trkpt>
      <trkpt lat="44.13187" lon="6.75847">
        <ele>1214</ele>
        <time>2016-03-29T14:27:18Z</time>
      </trkpt>
      <trkpt lat="44.13185" lon="6.75842">
        <ele>1214</ele>
        <time>2016-03-29T14:29:18Z</time>
      </trkpt>
      <trkpt lat="44.13182" lon="6.75837">
        <ele>1213</ele>
        <time>2016-03-29T14:31:18Z</time>
      </trkpt>
      <trkpt lat="44.13181" lon="6.7583">
        <ele>1215</ele>
        <time>2016-03-29T14:33:18Z</time>
      </trkpt>
      <trkpt lat="44.13179" lon="6.75825">
        <ele>1215</ele>
        <time>2016-03-29T14:35:18Z</time>
      </trkpt>
      <trkpt lat="44.13178" lon="6.7582">
        <ele>1217</ele>
        <time>2016-03-29T14:37:18Z</time>
      </trkpt>
      <trkpt lat="44.13177" lon="6.75813">
        <ele>1219</ele>
        <time>2016-03-29T14:39:18Z</time>
      </trkpt>
      <trkpt lat="44.13176" lon="6.75807">
        <ele>1222</ele>
        <time>2016-03-29T14:41:18Z</time>
      </trkpt>
      <trkpt lat="44.13174" lon="6.75802">
        <ele>1222</ele>
        <time>2016-03-29T14:43:18Z</time>
      </trkpt>
      <trkpt lat="44.13173" lon="6.75795">
        <ele>1225</ele>
        <time>2016-03-29T14:45:18Z</time>
      </trkpt>
      <trkpt lat="44.13172" lon="6.75789">
        <ele>1227</ele>
        <time>2016-03-29T14:47:18Z</time>
      </trkpt>
      <trkpt lat="44.13172" lon="6.75786">
        <ele>1229</ele>
        <time>2016-03-29T14:49:18Z</time>
      </trkpt>
      <trkpt lat="44.13169" lon="6.75778">
        <ele>1231</ele>
        <time>2016-03-29T14:51:18Z</time>
      </trkpt>
      <trkpt lat="44.13156" lon="6.75748">
        <ele>1237</ele>
        <time>2016-03-29T14:53:18Z</time>
      </trkpt>
      <trkpt lat="44.13149" lon="6.75731">
        <ele>1234</ele>
        <time>2016-03-29T14:55:18Z</time>
      </trkpt>
      <trkpt lat="44.13146" lon="6.75723">
        <ele>1233</ele>
        <time>2016-03-29T14:57:18Z</time>
      </trkpt>
      <trkpt lat="44.13138" lon="6.7568">
        <ele>1238</ele>
        <time>2016-03-29T14:59:18Z</time>
      </trkpt>
      <trkpt lat="44.13129" lon="6.75638">
        <ele>1231</ele>
        <time>2016-03-29T15:01:18Z</time>
      </trkpt>
      <trkpt lat="44.13128" lon="6.7563">
        <ele>1229</ele>
        <time>2016-03-29T15:03:18Z</time>
      </trkpt>
      <trkpt lat="44.13129" lon="6.75621">
        <ele>1227</ele>
        <time>2016-03-29T15:05:18Z</time>
      </trkpt>
      <trkpt lat="44.13135" lon="6.75607">
        <ele>1225</ele>
        <time>2016-03-29T15:07:18Z</time>
      </trkpt>
      <trkpt lat="44.1314" lon="6.75599">
        <ele>1224</ele>
        <time>2016-03-29T15:09:18Z</time>
      </trkpt>
      <trkpt lat="44.13143" lon="6.75593">
        <ele>1223</ele>
        <time>2016-03-29T15:11:18Z</time>
      </trkpt>
      <trkpt lat="44.13145" lon="6.75589">
        <ele>1222</ele>
        <time>2016-03-29T15:13:18Z</time>
      </trkpt>
      <trkpt lat="44.13147" lon="6.75582">
        <ele>1220</ele>
        <time>2016-03-29T15:15:18Z</time>
      </trkpt>
      <trkpt lat="44.13149" lon="6.75576">
        <ele>1220</ele>
        <time>2016-03-29T15:17:18Z</time>
      </trkpt>
      <trkpt lat="44.1315" lon="6.7557">
        <ele>1219</ele>
        <time>2016-03-29T15:19:18Z</time>
      </trkpt>
      <trkpt lat="44.13152" lon="6.75564">
        <ele>1218</ele>
        <time>2016-03-29T15:21:18Z</time>
      </trkpt>
      <trkpt lat="44.13154" lon="6.75557">
        <ele>1217</ele>
        <time>2016-03-29T15:23:18Z</time>
      </trkpt>
      <trkpt lat="44.13155" lon="6.75551">
        <ele>1216</ele>
        <time>2016-03-29T15:25:18Z</time>
      </trkpt>
      <trkpt lat="44.13158" lon="6.75546">
        <ele>1215</ele>
        <time>2016-03-29T15:27:18Z</time>
      </trkpt>
      <trkpt lat="44.13161" lon="6.7554">
        <ele>1214</ele>
        <time>2016-03-29T15:29:18Z</time>
      </trkpt>
      <trkpt lat="44.1318" lon="6.75513">
        <ele>1216</ele>
        <time>2016-03-29T15:31:18Z</time>
      </trkpt>
      <trkpt lat="44.13193" lon="6.75494">
        <ele>1220</ele>
        <time>2016-03-29T15:33:18Z</time>
      </trkpt>
      <trkpt lat="44.13202" lon="6.75479">
        <ele>1223</ele>
        <time>2016-03-29T15:35:18Z</time>
      </trkpt>
      <trkpt lat="44.13206" lon="6.75468">
        <ele>1223</ele>
        <time>2016-03-29T15:37:18Z</time>
      </trkpt>
      <trkpt lat="44.13221" lon="6.75436">
        <ele>1223</ele>
        <time>2016-03-29T15:39:18Z</time>
      </trkpt>
      <trkpt lat="44.13224" lon="6.75431">
        <ele>1222</ele>
        <time>2016-03-29T15:41:18Z</time>
      </trkpt>
      <trkpt lat="44.13226" lon="6.75426">
        <ele>1222</ele>
        <time>2016-03-29T15:43:18Z</time>
      </trkpt>
      <trkpt lat="44.1323" lon="6.75422">
        <ele>1222</ele>
        <time>2016-03-29T15:45:18Z</time>
      </trkpt>
      <trkpt lat="44.13233" lon="6.75419">
        <ele>1222</ele>
        <time>2016-03-29T15:47:18Z</time>
      </trkpt>
      <trkpt lat="44.13237" lon="6.75416">
        <ele>1222</ele>
        <time>2016-03-29T15:49:18Z</time>
      </trkpt>
      <trkpt lat="44.13241" lon="6.75413">
        <ele>1223</ele>
        <time>2016-03-29T15:51:18Z</time>
      </trkpt>
      <trkpt lat="44.13245" lon="6.75411">
        <ele>1223</ele>
        <time>2016-03-29T15:53:18Z</time>
      </trkpt>
      <trkpt lat="44.13249" lon="6.75409">
        <ele>1224</ele>
        <time>2016-03-29T15:55:18Z</time>
      </trkpt>
      <trkpt lat="44.13253" lon="6.75407">
        <ele>1225</ele>
        <time>2016-03-29T15:57:18Z</time>
      </trkpt>
      <trkpt lat="44.13256" lon="6.75404">
        <ele>1226</ele>
        <time>2016-03-29T15:59:18Z</time>
      </trkpt>
      <trkpt lat="44.13259" lon="6.75399">
        <ele>1227</ele>
        <time>2016-03-29T16:01:18Z</time>
      </trkpt>
      <trkpt lat="44.13261" lon="6.75395">
        <ele>1227</ele>
        <time>2016-03-29T16:03:18Z</time>
      </trkpt>
      <trkpt lat="44.13262" lon="6.7539">
        <ele>1226</ele>
        <time>2016-03-29T16:05:18Z</time>
      </trkpt>
      <trkpt lat="44.13262" lon="6.75385">
        <ele>1225</ele>
        <time>2016-03-29T16:07:18Z</time>
      </trkpt>
      <trkpt lat="44.13262" lon="6.7538">
        <ele>1224</ele>
        <time>2016-03-29T16:09:18Z</time>
      </trkpt>
      <trkpt lat="44.13261" lon="6.75373">
        <ele>1221</ele>
        <time>2016-03-29T16:11:18Z</time>
      </trkpt>
      <trkpt lat="44.13259" lon="6.75363">
        <ele>1217</ele>
        <time>2016-03-29T16:13:18Z</time>
      </trkpt>
      <trkpt lat="44.13259" lon="6.75357">
        <ele>1216</ele>
        <time>2016-03-29T16:15:18Z</time>
      </trkpt>
      <trkpt lat="44.1326" lon="6.75351">
        <ele>1215</ele>
        <time>2016-03-29T16:17:18Z</time>
      </trkpt>
      <trkpt lat="44.13261" lon="6.75345">
        <ele>1214</ele>
        <time>2016-03-29T16:19:18Z</time>
      </trkpt>
      <trkpt lat="44.13262" lon="6.75339">
        <ele>1213</ele>
        <time>2016-03-29T16:21:18Z</time>
      </trkpt>
      <trkpt lat="44.13269" lon="6.75324">
        <ele>1215</ele>
        <time>2016-03-29T16:23:18Z</time>
      </trkpt>
      <trkpt lat="44.13272" lon="6.75319">
        <ele>1217</ele>
        <time>2016-03-29T16:25:18Z</time>
      </trkpt>
      <trkpt lat="44.13275" lon="6.75315">
        <ele>1218</ele>
        <time>2016-03-29T16:27:18Z</time>
      </trkpt>
      <trkpt lat="44.13279" lon="6.75311">
        <ele>1220</ele>
        <time>2016-03-29T16:29:18Z</time>
      </trkpt>
      <trkpt lat="44.13283" lon="6.75309">
        <ele>1221</ele>
        <time>2016-03-29T16:31:18Z</time>
      </trkpt>
      <trkpt lat="44.13288" lon="6.75307">
        <ele>1223</ele>
        <time>2016-03-29T16:33:18Z</time>
      </trkpt>
      <trkpt lat="44.13292" lon="6.75305">
        <ele>1225</ele>
        <time>2016-03-29T16:35:18Z</time>
      </trkpt>
      <trkpt lat="44.13296" lon="6.75303">
        <ele>1226</ele>
        <time>2016-03-29T16:37:18Z</time>
      </trkpt>
      <trkpt lat="44.13301" lon="6.75301">
        <ele>1228</ele>
        <time>2016-03-29T16:39:18Z</time>
      </trkpt>
      <trkpt lat="44.13305" lon="6.75297">
        <ele>1229</ele>
        <time>2016-03-29T16:41:18Z</time>
      </trkpt>
      <trkpt lat="44.13313" lon="6.7529">
        <ele>1230</ele>
        <time>2016-03-29T16:43:18Z</time>
      </trkpt>
      <trkpt lat="44.13323" lon="6.75277">
        <ele>1231</ele>
        <time>2016-03-29T16:45:18Z</time>
      </trkpt>
      <trkpt lat="44.13347" lon="6.75245">
        <ele>1234</ele>
        <time>2016-03-29T16:47:18Z</time>
      </trkpt>
      <trkpt lat="44.13352" lon="6.75238">
        <ele>1236</ele>
        <time>2016-03-29T16:49:18Z</time>
      </trkpt>
      <trkpt lat="44.13357" lon="6.75233">
        <ele>1239</ele>
        <time>2016-03-29T16:51:18Z</time>
      </trkpt>
      <trkpt lat="44.13362" lon="6.75227">
        <ele>1241</ele>
        <time>2016-03-29T16:53:18Z</time>
      </trkpt>
      <trkpt lat="44.13367" lon="6.75222">
        <ele>1243</ele>
        <time>2016-03-29T16:55:18Z</time>
      </trkpt>
      <trkpt lat="44.13372" lon="6.75217">
        <ele>1245</ele>
        <time>2016-03-29T16:57:18Z</time>
      </trkpt>
      <trkpt lat="44.13377" lon="6.75212">
        <ele>1247</ele>
        <time>2016-03-29T16:59:18Z</time>
      </trkpt>
      <trkpt lat="44.13382" lon="6.75207">
        <ele>1249</ele>
        <time>2016-03-29T17:01:18Z</time>
      </trkpt>
      <trkpt lat="44.13387" lon="6.75203">
        <ele>1251</ele>
        <time>2016-03-29T17:03:18Z</time>
      </trkpt>
      <trkpt lat="44.13392" lon="6.75199">
        <ele>1253</ele>
        <time>2016-03-29T17:05:18Z</time>
      </trkpt>
      <trkpt lat="44.13397" lon="6.75195">
        <ele>1255</ele>
        <time>2016-03-29T17:07:18Z</time>
      </trkpt>
      <trkpt lat="44.13401" lon="6.7519">
        <ele>1256</ele>
        <time>2016-03-29T17:09:18Z</time>
      </trkpt>
      <trkpt lat="44.13405" lon="6.75185">
        <ele>1257</ele>
        <time>2016-03-29T17:11:18Z</time>
      </trkpt>
      <trkpt lat="44.13408" lon="6.75179">
        <ele>1258</ele>
        <time>2016-03-29T17:13:18Z</time>
      </trkpt>
      <trkpt lat="44.13411" lon="6.75172">
        <ele>1258</ele>
        <time>2016-03-29T17:15:18Z</time>
      </trkpt>
      <trkpt lat="44.13413" lon="6.75165">
        <ele>1257</ele>
        <time>2016-03-29T17:17:18Z</time>
      </trkpt>
      <trkpt lat="44.13414" lon="6.75158">
        <ele>1256</ele>
        <time>2016-03-29T17:19:18Z</time>
      </trkpt>
      <trkpt lat="44.13416" lon="6.7515">
        <ele>1255</ele>
        <time>2016-03-29T17:21:18Z</time>
      </trkpt>
      <trkpt lat="44.13418" lon="6.75143">
        <ele>1255</ele>
        <time>2016-03-29T17:23:18Z</time>
      </trkpt>
      <trkpt lat="44.13419" lon="6.75135">
        <ele>1254</ele>
        <time>2016-03-29T17:25:18Z</time>
      </trkpt>
      <trkpt lat="44.13419" lon="6.75128">
        <ele>1253</ele>
        <time>2016-03-29T17:27:18Z</time>
      </trkpt>
      <trkpt lat="44.13419" lon="6.7512">
        <ele>1251</ele>
        <time>2016-03-29T17:29:18Z</time>
      </trkpt>
      <trkpt lat="44.13418" lon="6.75113">
        <ele>1249</ele>
        <time>2016-03-29T17:31:18Z</time>
      </trkpt>
      <trkpt lat="44.13417" lon="6.75106">
        <ele>1247</ele>
        <time>2016-03-29T17:33:18Z</time>
      </trkpt>
      <trkpt lat="44.13416" lon="6.75099">
        <ele>1245</ele>
        <time>2016-03-29T17:35:18Z</time>
      </trkpt>
      <trkpt lat="44.13415" lon="6.75092">
        <ele>1244</ele>
        <time>2016-03-29T17:37:18Z</time>
      </trkpt>
      <trkpt lat="44.13414" lon="6.75085">
        <ele>1242</ele>
        <time>2016-03-29T17:39:18Z</time>
      </trkpt>
      <trkpt lat="44.13415" lon="6.75077">
        <ele>1242</ele>
        <time>2016-03-29T17:41:18Z</time>
      </trkpt>
      <trkpt lat="44.13416" lon="6.75071">
        <ele>1241</ele>
        <time>2016-03-29T17:43:18Z</time>
      </trkpt>
      <trkpt lat="44.13418" lon="6.75064">
        <ele>1241</ele>
        <time>2016-03-29T17:45:18Z</time>
      </trkpt>
      <trkpt lat="44.1342" lon="6.75057">
        <ele>1242</ele>
        <time>2016-03-29T17:47:18Z</time>
      </trkpt>
      <trkpt lat="44.13422" lon="6.75051">
        <ele>1243</ele>
        <time>2016-03-29T17:49:18Z</time>
      </trkpt>
      <trkpt lat="44.13424" lon="6.75044">
        <ele>1244</ele>
        <time>2016-03-29T17:51:18Z</time>
      </trkpt>
      <trkpt lat="44.13426" lon="6.75036">
        <ele>1245</ele>
        <time>2016-03-29T17:53:18Z</time>
      </trkpt>
      <trkpt lat="44.13428" lon="6.75029">
        <ele>1245</ele>
        <time>2016-03-29T17:55:18Z</time>
      </trkpt>
      <trkpt lat="44.1343" lon="6.75022">
        <ele>1246</ele>
        <time>2016-03-29T17:57:18Z</time>
      </trkpt>
      <trkpt lat="44.13431" lon="6.75013">
        <ele>1245</ele>
        <time>2016-03-29T17:59:18Z</time>
      </trkpt>
      <trkpt lat="44.13435" lon="6.7499">
        <ele>1247</ele>
        <time>2016-03-29T18:01:18Z</time>
      </trkpt>
      <trkpt lat="44.13437" lon="6.74984">
        <ele>1248</ele>
        <time>2016-03-29T18:03:18Z</time>
      </trkpt>
      <trkpt lat="44.13441" lon="6.74976">
        <ele>1251</ele>
        <time>2016-03-29T18:05:18Z</time>
      </trkpt>
      <trkpt lat="44.13456" lon="6.74952">
        <ele>1257</ele>
        <time>2016-03-29T18:07:18Z</time>
      </trkpt>
      <trkpt lat="44.1346" lon="6.74947">
        <ele>1258</ele>
        <time>2016-03-29T18:09:18Z</time>
      </trkpt>
      <trkpt lat="44.13464" lon="6.74941">
        <ele>1260</ele>
        <time>2016-03-29T18:11:18Z</time>
      </trkpt>
      <trkpt lat="44.13469" lon="6.74929">
        <ele>1260</ele>
        <time>2016-03-29T18:13:18Z</time>
      </trkpt>
      <trkpt lat="44.13477" lon="6.74912">
        <ele>1261</ele>
        <time>2016-03-29T18:15:18Z</time>
      </trkpt>
      <trkpt lat="44.13488" lon="6.74881">
        <ele>1260</ele>
        <time>2016-03-29T18:17:18Z</time>
      </trkpt>
      <trkpt lat="44.13494" lon="6.74863">
        <ele>1258</ele>
        <time>2016-03-29T18:19:18Z</time>
      </trkpt>
      <trkpt lat="44.13504" lon="6.74818">
        <ele>1256</ele>
        <time>2016-03-29T18:21:18Z</time>
      </trkpt>
      <trkpt lat="44.13514" lon="6.74776">
        <ele>1260</ele>
        <time>2016-03-29T18:23:18Z</time>
      </trkpt>
      <trkpt lat="44.13519" lon="6.74762">
        <ele>1261</ele>
        <time>2016-03-29T18:25:18Z</time>
      </trkpt>
      <trkpt lat="44.13524" lon="6.74753">
        <ele>1262</ele>
        <time>2016-03-29T18:27:18Z</time>
      </trkpt>
      <trkpt lat="44.13532" lon="6.74741">
        <ele>1265</ele>
        <time>2016-03-29T18:29:18Z</time>
      </trkpt>
      <trkpt lat="44.13545" lon="6.7473">
        <ele>1269</ele>
        <time>2016-03-29T18:31:18Z</time>
      </trkpt>
      <trkpt lat="44.1355" lon="6.74725">
        <ele>1270</ele>
        <time>2016-03-29T18:33:18Z</time>
      </trkpt>
      <trkpt lat="44.13556" lon="6.74721">
        <ele>1271</ele>
        <time>2016-03-29T18:35:18Z</time>
      </trkpt>
      <trkpt lat="44.13562" lon="6.74717">
        <ele>1272</ele>
        <time>2016-03-29T18:37:18Z</time>
      </trkpt>
      <trkpt lat="44.13573" lon="6.74709">
        <ele>1272</ele>
        <time>2016-03-29T18:39:18Z</time>
      </trkpt>
      <trkpt lat="44.13579" lon="6.74704">
        <ele>1271</ele>
        <time>2016-03-29T18:41:18Z</time>
      </trkpt>
      <trkpt lat="44.13585" lon="6.74701">
        <ele>1272</ele>
        <time>2016-03-29T18:43:18Z</time>
      </trkpt>
      <trkpt lat="44.1359" lon="6.74696">
        <ele>1273</ele>
        <time>2016-03-29T18:45:18Z</time>
      </trkpt>
      <trkpt lat="44.13596" lon="6.74692">
        <ele>1274</ele>
        <time>2016-03-29T18:47:18Z</time>
      </trkpt>
      <trkpt lat="44.13601" lon="6.74686">
        <ele>1275</ele>
        <time>2016-03-29T18:49:18Z</time>
      </trkpt>
      <trkpt lat="44.1361" lon="6.74675">
        <ele>1275</ele>
        <time>2016-03-29T18:51:18Z</time>
      </trkpt>
      <trkpt lat="44.13615" lon="6.74669">
        <ele>1276</ele>
        <time>2016-03-29T18:53:18Z</time>
      </trkpt>
      <trkpt lat="44.1362" lon="6.74664">
        <ele>1277</ele>
        <time>2016-03-29T18:55:18Z</time>
      </trkpt>
      <trkpt lat="44.13629" lon="6.74651">
        <ele>1280</ele>
        <time>2016-03-29T18:57:18Z</time>
      </trkpt>
      <trkpt lat="44.13633" lon="6.74645">
        <ele>1281</ele>
        <time>2016-03-29T18:59:18Z</time>
      </trkpt>
      <trkpt lat="44.13636" lon="6.7464">
        <ele>1281</ele>
        <time>2016-03-29T19:01:18Z</time>
      </trkpt>
      <trkpt lat="44.1364" lon="6.74633">
        <ele>1282</ele>
        <time>2016-03-29T19:03:18Z</time>
      </trkpt>
      <trkpt lat="44.13642" lon="6.74627">
        <ele>1282</ele>
        <time>2016-03-29T19:05:18Z</time>
      </trkpt>
      <trkpt lat="44.13645" lon="6.74621">
        <ele>1282</ele>
        <time>2016-03-29T19:07:18Z</time>
      </trkpt>
      <trkpt lat="44.13647" lon="6.74614">
        <ele>1281</ele>
        <time>2016-03-29T19:09:18Z</time>
      </trkpt>
      <trkpt lat="44.13648" lon="6.74608">
        <ele>1280</ele>
        <time>2016-03-29T19:11:18Z</time>
      </trkpt>
      <trkpt lat="44.1365" lon="6.74597">
        <ele>1279</ele>
        <time>2016-03-29T19:13:18Z</time>
      </trkpt>
      <trkpt lat="44.13652" lon="6.74592">
        <ele>1278</ele>
        <time>2016-03-29T19:15:18Z</time>
      </trkpt>
      <trkpt lat="44.13655" lon="6.74588">
        <ele>1278</ele>
        <time>2016-03-29T19:17:18Z</time>
      </trkpt>
      <trkpt lat="44.13658" lon="6.74585">
        <ele>1277</ele>
        <time>2016-03-29T19:19:18Z</time>
      </trkpt>
      <trkpt lat="44.13662" lon="6.74582">
        <ele>1277</ele>
        <time>2016-03-29T19:21:18Z</time>
      </trkpt>
      <trkpt lat="44.13676" lon="6.74572">
        <ele>1281</ele>
        <time>2016-03-29T19:23:18Z</time>
      </trkpt>
      <trkpt lat="44.1368" lon="6.74569">
        <ele>1283</ele>
        <time>2016-03-29T19:25:18Z</time>
      </trkpt>
      <trkpt lat="44.13683" lon="6.74568">
        <ele>1284</ele>
        <time>2016-03-29T19:27:18Z</time>
      </trkpt>
      <trkpt lat="44.13687" lon="6.74567">
        <ele>1285</ele>
        <time>2016-03-29T19:29:18Z</time>
      </trkpt>
      <trkpt lat="44.1369" lon="6.74567">
        <ele>1287</ele>
        <time>2016-03-29T19:31:18Z</time>
      </trkpt>
      <trkpt lat="44.13694" lon="6.74568">
        <ele>1288</ele>
        <time>2016-03-29T19:33:18Z</time>
      </trkpt>
      <trkpt lat="44.13697" lon="6.74568">
        <ele>1289</ele>
        <time>2016-03-29T19:35:18Z</time>
      </trkpt>
      <trkpt lat="44.137" lon="6.74567">
        <ele>1291</ele>
        <time>2016-03-29T19:37:18Z</time>
      </trkpt>
      <trkpt lat="44.13703" lon="6.74566">
        <ele>1292</ele>
        <time>2016-03-29T19:39:18Z</time>
      </trkpt>
      <trkpt lat="44.13705" lon="6.74563">
        <ele>1292</ele>
        <time>2016-03-29T19:41:18Z</time>
      </trkpt>
      <trkpt lat="44.13707" lon="6.7456">
        <ele>1293</ele>
        <time>2016-03-29T19:43:18Z</time>
      </trkpt>
      <trkpt lat="44.13708" lon="6.74556">
        <ele>1294</ele>
        <time>2016-03-29T19:45:18Z</time>
      </trkpt>
      <trkpt lat="44.13708" lon="6.74552">
        <ele>1293</ele>
        <time>2016-03-29T19:47:18Z</time>
      </trkpt>
      <trkpt lat="44.13707" lon="6.74547">
        <ele>1293</ele>
        <time>2016-03-29T19:49:18Z</time>
      </trkpt>
      <trkpt lat="44.13705" lon="6.74544">
        <ele>1292</ele>
        <time>2016-03-29T19:51:18Z</time>
      </trkpt>
      <trkpt lat="44.13702" lon="6.74542">
        <ele>1291</ele>
        <time>2016-03-29T19:53:18Z</time>
      </trkpt>
      <trkpt lat="44.13699" lon="6.74539">
        <ele>1290</ele>
        <time>2016-03-29T19:55:18Z</time>
      </trkpt>
      <trkpt lat="44.13688" lon="6.74536">
        <ele>1286</ele>
        <time>2016-03-29T19:57:18Z</time>
      </trkpt>
      <trkpt lat="44.1368" lon="6.74534">
        <ele>1283</ele>
        <time>2016-03-29T19:59:18Z</time>
      </trkpt>
      <trkpt lat="44.13677" lon="6.74532">
        <ele>1282</ele>
        <time>2016-03-29T20:01:18Z</time>
      </trkpt>
      <trkpt lat="44.1367" lon="6.7453">
        <ele>1279</ele>
        <time>2016-03-29T20:03:18Z</time>
      </trkpt>
      <trkpt lat="44.13668" lon="6.74529">
        <ele>1279</ele>
        <time>2016-03-29T20:05:18Z</time>
      </trkpt>
      <trkpt lat="44.13667" lon="6.74528">
        <ele>1278</ele>
        <time>2016-03-29T20:07:18Z</time>
      </trkpt>
      <trkpt lat="44.13665" lon="6.74526">
        <ele>1279</ele>
        <time>2016-03-29T20:09:18Z</time>
      </trkpt>
      <trkpt lat="44.13664" lon="6.74525">
        <ele>1279</ele>
        <time>2016-03-29T20:11:18Z</time>
      </trkpt>
      <trkpt lat="44.13664" lon="6.74523">
        <ele>1279</ele>
        <time>2016-03-29T20:13:18Z</time>
      </trkpt>
      <trkpt lat="44.13663" lon="6.7452">
        <ele>1279</ele>
        <time>2016-03-29T20:15:18Z</time>
      </trkpt>
      <trkpt lat="44.13663" lon="6.74516">
        <ele>1279</ele>
        <time>2016-03-29T20:17:18Z</time>
      </trkpt>
      <trkpt lat="44.13664" lon="6.74511">
        <ele>1279</ele>
        <time>2016-03-29T20:19:18Z</time>
      </trkpt>
      <trkpt lat="44.13668" lon="6.74496">
        <ele>1280</ele>
        <time>2016-03-29T20:21:18Z</time>
      </trkpt>
      <trkpt lat="44.13671" lon="6.74481">
        <ele>1283</ele>
        <time>2016-03-29T20:23:18Z</time>
      </trkpt>
      <trkpt lat="44.13673" lon="6.74466">
        <ele>1286</ele>
        <time>2016-03-29T20:25:18Z</time>
      </trkpt>
      <trkpt lat="44.13675" lon="6.7445">
        <ele>1289</ele>
        <time>2016-03-29T20:27:18Z</time>
      </trkpt>
      <trkpt lat="44.13677" lon="6.74443">
        <ele>1290</ele>
        <time>2016-03-29T20:29:18Z</time>
      </trkpt>
      <trkpt lat="44.13679" lon="6.74433">
        <ele>1292</ele>
        <time>2016-03-29T20:31:18Z</time>
      </trkpt>
      <trkpt lat="44.13682" lon="6.74428">
        <ele>1294</ele>
        <time>2016-03-29T20:33:18Z</time>
      </trkpt>
      <trkpt lat="44.13683" lon="6.74426">
        <ele>1295</ele>
        <time>2016-03-29T20:35:18Z</time>
      </trkpt>
      <trkpt lat="44.13684" lon="6.74425">
        <ele>1295</ele>
        <time>2016-03-29T20:37:18Z</time>
      </trkpt>
      <trkpt lat="44.13685" lon="6.74425">
        <ele>1295</ele>
        <time>2016-03-29T20:39:18Z</time>
      </trkpt>
      <trkpt lat="44.13686" lon="6.74424">
        <ele>1296</ele>
        <time>2016-03-29T20:41:18Z</time>
      </trkpt>
      <trkpt lat="44.13687" lon="6.74425">
        <ele>1296</ele>
        <time>2016-03-29T20:43:18Z</time>
      </trkpt>
      <trkpt lat="44.13688" lon="6.74425">
        <ele>1297</ele>
        <time>2016-03-29T20:45:18Z</time>
      </trkpt>
      <trkpt lat="44.13689" lon="6.74426">
        <ele>1297</ele>
        <time>2016-03-29T20:47:18Z</time>
      </trkpt>
      <trkpt lat="44.13689" lon="6.74428">
        <ele>1296</ele>
        <time>2016-03-29T20:49:18Z</time>
      </trkpt>
      <trkpt lat="44.1369" lon="6.74429">
        <ele>1297</ele>
        <time>2016-03-29T20:51:18Z</time>
      </trkpt>
      <trkpt lat="44.1369" lon="6.74431">
        <ele>1296</ele>
        <time>2016-03-29T20:53:18Z</time>
      </trkpt>
      <trkpt lat="44.13689" lon="6.74433">
        <ele>1296</ele>
        <time>2016-03-29T20:55:18Z</time>
      </trkpt>
      <trkpt lat="44.13688" lon="6.74435">
        <ele>1295</ele>
        <time>2016-03-29T20:57:18Z</time>
      </trkpt>
      <trkpt lat="44.13682" lon="6.74451">
        <ele>1291</ele>
        <time>2016-03-29T20:59:18Z</time>
      </trkpt>
      <trkpt lat="44.1368" lon="6.7446">
        <ele>1289</ele>
        <time>2016-03-29T21:01:18Z</time>
      </trkpt>
      <trkpt lat="44.13677" lon="6.74475">
        <ele>1286</ele>
        <time>2016-03-29T21:03:18Z</time>
      </trkpt>
      <trkpt lat="44.13676" lon="6.74488">
        <ele>1284</ele>
        <time>2016-03-29T21:05:18Z</time>
      </trkpt>
      <trkpt lat="44.13675" lon="6.74493">
        <ele>1283</ele>
        <time>2016-03-29T21:07:18Z</time>
      </trkpt>
      <trkpt lat="44.13676" lon="6.74504">
        <ele>1282</ele>
        <time>2016-03-29T21:09:18Z</time>
      </trkpt>
      <trkpt lat="44.13678" lon="6.74509">
        <ele>1283</ele>
        <time>2016-03-29T21:11:18Z</time>
      </trkpt>
      <trkpt lat="44.1368" lon="6.74513">
        <ele>1283</ele>
        <time>2016-03-29T21:13:18Z</time>
      </trkpt>
      <trkpt lat="44.13684" lon="6.74516">
        <ele>1285</ele>
        <time>2016-03-29T21:15:18Z</time>
      </trkpt>
      <trkpt lat="44.13687" lon="6.74518">
        <ele>1286</ele>
        <time>2016-03-29T21:17:18Z</time>
      </trkpt>
      <trkpt lat="44.13692" lon="6.7452">
        <ele>1287</ele>
        <time>2016-03-29T21:19:18Z</time>
      </trkpt>
      <trkpt lat="44.13697" lon="6.74521">
        <ele>1289</ele>
        <time>2016-03-29T21:21:18Z</time>
      </trkpt>
      <trkpt lat="44.13707" lon="6.74523">
        <ele>1293</ele>
        <time>2016-03-29T21:23:18Z</time>
      </trkpt>
      <trkpt lat="44.13711" lon="6.74524">
        <ele>1294</ele>
        <time>2016-03-29T21:25:18Z</time>
      </trkpt>
      <trkpt lat="44.13716" lon="6.74525">
        <ele>1296</ele>
        <time>2016-03-29T21:27:18Z</time>
      </trkpt>
      <trkpt lat="44.13724" lon="6.74525">
        <ele>1299</ele>
        <time>2016-03-29T21:29:18Z</time>
      </trkpt>
      <trkpt lat="44.13727" lon="6.74525">
        <ele>1300</ele>
        <time>2016-03-29T21:31:18Z</time>
      </trkpt>
      <trkpt lat="44.1373" lon="6.74523">
        <ele>1301</ele>
        <time>2016-03-29T21:33:18Z</time>
      </trkpt>
      <trkpt lat="44.13732" lon="6.74521">
        <ele>1302</ele>
        <time>2016-03-29T21:35:18Z</time>
      </trkpt>
      <trkpt lat="44.13732" lon="6.7452">
        <ele>1302</ele>
        <time>2016-03-29T21:37:18Z</time>
      </trkpt>
      <trkpt lat="44.13733" lon="6.74518">
        <ele>1302</ele>
        <time>2016-03-29T21:39:18Z</time>
      </trkpt>
      <trkpt lat="44.13732" lon="6.74515">
        <ele>1301</ele>
        <time>2016-03-29T21:41:18Z</time>
      </trkpt>
      <trkpt lat="44.13731" lon="6.74514">
        <ele>1301</ele>
        <time>2016-03-29T21:43:18Z</time>
      </trkpt>
      <trkpt lat="44.1373" lon="6.74512">
        <ele>1301</ele>
        <time>2016-03-29T21:45:18Z</time>
      </trkpt>
      <trkpt lat="44.13728" lon="6.74511">
        <ele>1300</ele>
        <time>2016-03-29T21:47:18Z</time>
      </trkpt>
      <trkpt lat="44.13714" lon="6.74514">
        <ele>1295</ele>
        <time>2016-03-29T21:49:18Z</time>
      </trkpt>
      <trkpt lat="44.13708" lon="6.74513">
        <ele>1293</ele>
        <time>2016-03-29T21:51:18Z</time>
      </trkpt>
      <trkpt lat="44.13703" lon="6.74511">
        <ele>1291</ele>
        <time>2016-03-29T21:53:18Z</time>
      </trkpt>
      <trkpt lat="44.13699" lon="6.74508">
        <ele>1290</ele>
        <time>2016-03-29T21:55:18Z</time>
      </trkpt>
      <trkpt lat="44.13696" lon="6.74505">
        <ele>1289</ele>
        <time>2016-03-29T21:57:18Z</time>
      </trkpt>
      <trkpt lat="44.13693" lon="6.74501">
        <ele>1288</ele>
        <time>2016-03-29T21:59:18Z</time>
      </trkpt>
      <trkpt lat="44.13691" lon="6.74495">
        <ele>1288</ele>
        <time>2016-03-29T22:01:18Z</time>
      </trkpt>
      <trkpt lat="44.13689" lon="6.74488">
        <ele>1288</ele>
        <time>2016-03-29T22:03:18Z</time>
      </trkpt>
      <trkpt lat="44.13689" lon="6.74483">
        <ele>1289</ele>
        <time>2016-03-29T22:05:18Z</time>
      </trkpt>
      <trkpt lat="44.1369" lon="6.74477">
        <ele>1290</ele>
        <time>2016-03-29T22:07:18Z</time>
      </trkpt>
      <trkpt lat="44.13691" lon="6.74471">
        <ele>1291</ele>
        <time>2016-03-29T22:09:18Z</time>
      </trkpt>
      <trkpt lat="44.13694" lon="6.74459">
        <ele>1294</ele>
        <time>2016-03-29T22:11:18Z</time>
      </trkpt>
      <trkpt lat="44.13699" lon="6.74448">
        <ele>1297</ele>
        <time>2016-03-29T22:13:18Z</time>
      </trkpt>
      <trkpt lat="44.13709" lon="6.74417">
        <ele>1305</ele>
        <time>2016-03-29T22:15:18Z</time>
      </trkpt>
      <trkpt lat="44.13716" lon="6.74394">
        <ele>1308</ele>
        <time>2016-03-29T22:17:18Z</time>
      </trkpt>
      <trkpt lat="44.13721" lon="6.74381">
        <ele>1310</ele>
        <time>2016-03-29T22:19:18Z</time>
      </trkpt>
      <trkpt lat="44.13733" lon="6.74359">
        <ele>1312</ele>
        <time>2016-03-29T22:21:18Z</time>
      </trkpt>
      <trkpt lat="44.13738" lon="6.74349">
        <ele>1312</ele>
        <time>2016-03-29T22:23:18Z</time>
      </trkpt>
      <trkpt lat="44.13743" lon="6.74339">
        <ele>1312</ele>
        <time>2016-03-29T22:25:18Z</time>
      </trkpt>
      <trkpt lat="44.13747" lon="6.74332">
        <ele>1312</ele>
        <time>2016-03-29T22:27:18Z</time>
      </trkpt>
      <trkpt lat="44.1375" lon="6.74324">
        <ele>1313</ele>
        <time>2016-03-29T22:29:18Z</time>
      </trkpt>
      <trkpt lat="44.13752" lon="6.74312">
        <ele>1314</ele>
        <time>2016-03-29T22:31:18Z</time>
      </trkpt>
      <trkpt lat="44.13753" lon="6.74296">
        <ele>1316</ele>
        <time>2016-03-29T22:33:18Z</time>
      </trkpt>
      <trkpt lat="44.13754" lon="6.74283">
        <ele>1317</ele>
        <time>2016-03-29T22:35:18Z</time>
      </trkpt>
      <trkpt lat="44.13753" lon="6.74271">
        <ele>1317</ele>
        <time>2016-03-29T22:37:18Z</time>
      </trkpt>
      <trkpt lat="44.13752" lon="6.74258">
        <ele>1318</ele>
        <time>2016-03-29T22:39:18Z</time>
      </trkpt>
      <trkpt lat="44.1375" lon="6.74241">
        <ele>1317</ele>
        <time>2016-03-29T22:41:18Z</time>
      </trkpt>
      <trkpt lat="44.13747" lon="6.74227">
        <ele>1317</ele>
        <time>2016-03-29T22:43:18Z</time>
      </trkpt>
      <trkpt lat="44.13747" lon="6.74218">
        <ele>1317</ele>
        <time>2016-03-29T22:45:18Z</time>
      </trkpt>
      <trkpt lat="44.13747" lon="6.74211">
        <ele>1318</ele>
        <time>2016-03-29T22:47:18Z</time>
      </trkpt>
      <trkpt lat="44.13748" lon="6.74205">
        <ele>1317</ele>
        <time>2016-03-29T22:49:18Z</time>
      </trkpt>
      <trkpt lat="44.1375" lon="6.74192">
        <ele>1317</ele>
        <time>2016-03-29T22:51:18Z</time>
      </trkpt>
      <trkpt lat="44.13756" lon="6.74173">
        <ele>1321</ele>
        <time>2016-03-29T22:53:18Z</time>
      </trkpt>
      <trkpt lat="44.13762" lon="6.74152">
        <ele>1325</ele>
        <time>2016-03-29T22:55:18Z</time>
      </trkpt>
      <trkpt lat="44.13768" lon="6.74128">
        <ele>1331</ele>
        <time>2016-03-29T22:57:18Z</time>
      </trkpt>
      <trkpt lat="44.1377" lon="6.74114">
        <ele>1333</ele>
        <time>2016-03-29T22:59:18Z</time>
      </trkpt>
      <trkpt lat="44.13771" lon="6.74097">
        <ele>1334</ele>
        <time>2016-03-29T23:01:18Z</time>
      </trkpt>
      <trkpt lat="44.13772" lon="6.74084">
        <ele>1336</ele>
        <time>2016-03-29T23:03:18Z</time>
      </trkpt>
      <trkpt lat="44.13772" lon="6.74072">
        <ele>1336</ele>
        <time>2016-03-29T23:05:18Z</time>
      </trkpt>
      <trkpt lat="44.13771" lon="6.74063">
        <ele>1336</ele>
        <time>2016-03-29T23:07:18Z</time>
      </trkpt>
      <trkpt lat="44.1377" lon="6.74051">
        <ele>1336</ele>
        <time>2016-03-29T23:09:18Z</time>
      </trkpt>
      <trkpt lat="44.13767" lon="6.7404">
        <ele>1335</ele>
        <time>2016-03-29T23:11:18Z</time>
      </trkpt>
      <trkpt lat="44.13764" lon="6.7403">
        <ele>1334</ele>
        <time>2016-03-29T23:13:18Z</time>
      </trkpt>
      <trkpt lat="44.1376" lon="6.74018">
        <ele>1333</ele>
        <time>2016-03-29T23:15:18Z</time>
      </trkpt>
      <trkpt lat="44.13753" lon="6.74006">
        <ele>1331</ele>
        <time>2016-03-29T23:17:18Z</time>
      </trkpt>
      <trkpt lat="44.13751" lon="6.73999">
        <ele>1331</ele>
        <time>2016-03-29T23:19:18Z</time>
      </trkpt>
      <trkpt lat="44.13749" lon="6.73993">
        <ele>1331</ele>
        <time>2016-03-29T23:21:18Z</time>
      </trkpt>
      <trkpt lat="44.13748" lon="6.73988">
        <ele>1332</ele>
        <time>2016-03-29T23:23:18Z</time>
      </trkpt>
      <trkpt lat="44.13748" lon="6.73984">
        <ele>1333</ele>
        <time>2016-03-29T23:25:18Z</time>
      </trkpt>
      <trkpt lat="44.13748" lon="6.7398">
        <ele>1333</ele>
        <time>2016-03-29T23:27:18Z</time>
      </trkpt>
      <trkpt lat="44.13748" lon="6.73978">
        <ele>1334</ele>
        <time>2016-03-29T23:29:18Z</time>
      </trkpt>
      <trkpt lat="44.1375" lon="6.73974">
        <ele>1334</ele>
        <time>2016-03-29T23:31:18Z</time>
      </trkpt>
      <trkpt lat="44.13751" lon="6.73971">
        <ele>1335</ele>
        <time>2016-03-29T23:33:18Z</time>
      </trkpt>
      <trkpt lat="44.13752" lon="6.73968">
        <ele>1336</ele>
        <time>2016-03-29T23:35:18Z</time>
      </trkpt>
      <trkpt lat="44.13756" lon="6.73964">
        <ele>1338</ele>
        <time>2016-03-29T23:37:18Z</time>
      </trkpt>
      <trkpt lat="44.13765" lon="6.73959">
        <ele>1341</ele>
        <time>2016-03-29T23:39:18Z</time>
      </trkpt>
      <trkpt lat="44.13772" lon="6.73964">
        <ele>1343</ele>
        <time>2016-03-29T23:41:18Z</time>
      </trkpt>
      <trkpt lat="44.13777" lon="6.73971">
        <ele>1344</ele>
        <time>2016-03-29T23:43:18Z</time>
      </trkpt>
      <trkpt lat="44.13782" lon="6.73983">
        <ele>1345</ele>
        <time>2016-03-29T23:45:18Z</time>
      </trkpt>
      <trkpt lat="44.13785" lon="6.73993">
        <ele>1346</ele>
        <time>2016-03-29T23:47:18Z</time>
      </trkpt>
      <trkpt lat="44.13788" lon="6.74003">
        <ele>1346</ele>
        <time>2016-03-29T23:49:18Z</time>
      </trkpt>
      <trkpt lat="44.13791" lon="6.74015">
        <ele>1347</ele>
        <time>2016-03-29T23:51:18Z</time>
      </trkpt>
      <trkpt lat="44.13792" lon="6.74021">
        <ele>1348</ele>
        <time>2016-03-29T23:53:18Z</time>
      </trkpt>
      <trkpt lat="44.13792" lon="6.74027">
        <ele>1348</ele>
        <time>2016-03-29T23:55:18Z</time>
      </trkpt>
      <trkpt lat="44.13792" lon="6.74034">
        <ele>1348</ele>
        <time>2016-03-29T23:57:18Z</time>
      </trkpt>
      <trkpt lat="44.13792" lon="6.7404">
        <ele>1347</ele>
        <time>2016-03-29T23:59:18Z</time>
      </trkpt>
      <trkpt lat="44.13791" lon="6.74047">
        <ele>1347</ele>
        <time>2016-03-30T00:01:18Z</time>
      </trkpt>
      <trkpt lat="44.13791" lon="6.74054">
        <ele>1347</ele>
        <time>2016-03-30T00:03:18Z</time>
      </trkpt>
      <trkpt lat="44.1379" lon="6.7406">
        <ele>1346</ele>
        <time>2016-03-30T00:05:18Z</time>
      </trkpt>
      <trkpt lat="44.13789" lon="6.74066">
        <ele>1345</ele>
        <time>2016-03-30T00:07:18Z</time>
      </trkpt>
      <trkpt lat="44.13788" lon="6.7408">
        <ele>1345</ele>
        <time>2016-03-30T00:09:18Z</time>
      </trkpt>
      <trkpt lat="44.13787" lon="6.74087">
        <ele>1344</ele>
        <time>2016-03-30T00:11:18Z</time>
      </trkpt>
      <trkpt lat="44.13787" lon="6.74098">
        <ele>1343</ele>
        <time>2016-03-30T00:13:18Z</time>
      </trkpt>
      <trkpt lat="44.13787" lon="6.74107">
        <ele>1343</ele>
        <time>2016-03-30T00:15:18Z</time>
      </trkpt>
      <trkpt lat="44.13789" lon="6.74119">
        <ele>1343</ele>
        <time>2016-03-30T00:17:18Z</time>
      </trkpt>
      <trkpt lat="44.1379" lon="6.7413">
        <ele>1343</ele>
        <time>2016-03-30T00:19:18Z</time>
      </trkpt>
      <trkpt lat="44.13791" lon="6.74145">
        <ele>1343</ele>
        <time>2016-03-30T00:21:18Z</time>
      </trkpt>
      <trkpt lat="44.13794" lon="6.74161">
        <ele>1344</ele>
        <time>2016-03-30T00:23:18Z</time>
      </trkpt>
      <trkpt lat="44.13796" lon="6.74177">
        <ele>1344</ele>
        <time>2016-03-30T00:25:18Z</time>
      </trkpt>
      <trkpt lat="44.13798" lon="6.74185">
        <ele>1345</ele>
        <time>2016-03-30T00:27:18Z</time>
      </trkpt>
      <trkpt lat="44.13799" lon="6.74193">
        <ele>1346</ele>
        <time>2016-03-30T00:29:18Z</time>
      </trkpt>
      <trkpt lat="44.13801" lon="6.74208">
        <ele>1346</ele>
        <time>2016-03-30T00:31:18Z</time>
      </trkpt>
      <trkpt lat="44.13805" lon="6.74232">
        <ele>1348</ele>
        <time>2016-03-30T00:33:18Z</time>
      </trkpt>
      <trkpt lat="44.13808" lon="6.74255">
        <ele>1349</ele>
        <time>2016-03-30T00:35:18Z</time>
      </trkpt>
      <trkpt lat="44.13811" lon="6.74272">
        <ele>1349</ele>
        <time>2016-03-30T00:37:18Z</time>
      </trkpt>
      <trkpt lat="44.13812" lon="6.7428">
        <ele>1349</ele>
        <time>2016-03-30T00:39:18Z</time>
      </trkpt>
      <trkpt lat="44.13815" lon="6.74296">
        <ele>1350</ele>
        <time>2016-03-30T00:41:18Z</time>
      </trkpt>
      <trkpt lat="44.13818" lon="6.74312">
        <ele>1350</ele>
        <time>2016-03-30T00:43:18Z</time>
      </trkpt>
      <trkpt lat="44.13822" lon="6.74328">
        <ele>1351</ele>
        <time>2016-03-30T00:45:18Z</time>
      </trkpt>
      <trkpt lat="44.13824" lon="6.74334">
        <ele>1352</ele>
        <time>2016-03-30T00:47:18Z</time>
      </trkpt>
      <trkpt lat="44.13828" lon="6.7434">
        <ele>1353</ele>
        <time>2016-03-30T00:49:18Z</time>
      </trkpt>
      <trkpt lat="44.13832" lon="6.74346">
        <ele>1353</ele>
        <time>2016-03-30T00:51:18Z</time>
      </trkpt>
      <trkpt lat="44.13836" lon="6.74351">
        <ele>1354</ele>
        <time>2016-03-30T00:53:18Z</time>
      </trkpt>
      <trkpt lat="44.1384" lon="6.74355">
        <ele>1354</ele>
        <time>2016-03-30T00:55:18Z</time>
      </trkpt>
      <trkpt lat="44.13845" lon="6.74359">
        <ele>1354</ele>
        <time>2016-03-30T00:57:18Z</time>
      </trkpt>
      <trkpt lat="44.13855" lon="6.74365">
        <ele>1355</ele>
        <time>2016-03-30T00:59:18Z</time>
      </trkpt>
      <trkpt lat="44.13866" lon="6.74367">
        <ele>1357</ele>
        <time>2016-03-30T01:01:18Z</time>
      </trkpt>
      <trkpt lat="44.13871" lon="6.74368">
        <ele>1358</ele>
        <time>2016-03-30T01:03:18Z</time>
      </trkpt>
      <trkpt lat="44.13878" lon="6.74367">
        <ele>1360</ele>
        <time>2016-03-30T01:05:18Z</time>
      </trkpt>
      <trkpt lat="44.13887" lon="6.74365">
        <ele>1363</ele>
        <time>2016-03-30T01:07:18Z</time>
      </trkpt>
      <trkpt lat="44.13893" lon="6.74364">
        <ele>1365</ele>
        <time>2016-03-30T01:09:18Z</time>
      </trkpt>
      <trkpt lat="44.13898" lon="6.74363">
        <ele>1367</ele>
        <time>2016-03-30T01:11:18Z</time>
      </trkpt>
      <trkpt lat="44.13904" lon="6.74363">
        <ele>1368</ele>
        <time>2016-03-30T01:13:18Z</time>
      </trkpt>
      <trkpt lat="44.1391" lon="6.74362">
        <ele>1370</ele>
        <time>2016-03-30T01:15:18Z</time>
      </trkpt>
      <trkpt lat="44.13916" lon="6.74362">
        <ele>1372</ele>
        <time>2016-03-30T01:17:18Z</time>
      </trkpt>
      <trkpt lat="44.1392" lon="6.74362">
        <ele>1373</ele>
        <time>2016-03-30T01:19:18Z</time>
      </trkpt>
      <trkpt lat="44.13926" lon="6.74363">
        <ele>1374</ele>
        <time>2016-03-30T01:21:18Z</time>
      </trkpt>
      <trkpt lat="44.13932" lon="6.74364">
        <ele>1376</ele>
        <time>2016-03-30T01:23:18Z</time>
      </trkpt>
      <trkpt lat="44.13937" lon="6.74366">
        <ele>1377</ele>
        <time>2016-03-30T01:25:18Z</time>
      </trkpt>
      <trkpt lat="44.13943" lon="6.74369">
        <ele>1377</ele>
        <time>2016-03-30T01:27:18Z</time>
      </trkpt>
      <trkpt lat="44.13952" lon="6.74375">
        <ele>1378</ele>
        <time>2016-03-30T01:29:18Z</time>
      </trkpt>
      <trkpt lat="44.13957" lon="6.7438">
        <ele>1377</ele>
        <time>2016-03-30T01:31:18Z</time>
      </trkpt>
      <trkpt lat="44.13962" lon="6.74383">
        <ele>1378</ele>
        <time>2016-03-30T01:33:18Z</time>
      </trkpt>
      <trkpt lat="44.13967" lon="6.74386">
        <ele>1378</ele>
        <time>2016-03-30T01:35:18Z</time>
      </trkpt>
      <trkpt lat="44.13972" lon="6.7439">
        <ele>1378</ele>
        <time>2016-03-30T01:37:18Z</time>
      </trkpt>
      <trkpt lat="44.13977" lon="6.74394">
        <ele>1378</ele>
        <time>2016-03-30T01:39:18Z</time>
      </trkpt>
      <trkpt lat="44.13981" lon="6.74399">
        <ele>1377</ele>
        <time>2016-03-30T01:41:18Z</time>
      </trkpt>
      <trkpt lat="44.13988" lon="6.7441">
        <ele>1375</ele>
        <time>2016-03-30T01:43:18Z</time>
      </trkpt>
      <trkpt lat="44.13991" lon="6.74416">
        <ele>1374</ele>
        <time>2016-03-30T01:45:18Z</time>
      </trkpt>
      <trkpt lat="44.13994" lon="6.74425">
        <ele>1373</ele>
        <time>2016-03-30T01:47:18Z</time>
      </trkpt>
      <trkpt lat="44.14" lon="6.74437">
        <ele>1374</ele>
        <time>2016-03-30T01:49:18Z</time>
      </trkpt>
      <trkpt lat="44.14011" lon="6.74453">
        <ele>1376</ele>
        <time>2016-03-30T01:51:18Z</time>
      </trkpt>
      <trkpt lat="44.14022" lon="6.7446">
        <ele>1378</ele>
        <time>2016-03-30T01:53:18Z</time>
      </trkpt>
      <trkpt lat="44.14039" lon="6.74467">
        <ele>1381</ele>
        <time>2016-03-30T01:55:18Z</time>
      </trkpt>
      <trkpt lat="44.14051" lon="6.74471">
        <ele>1383</ele>
        <time>2016-03-30T01:57:18Z</time>
      </trkpt>
      <trkpt lat="44.14063" lon="6.74475">
        <ele>1385</ele>
        <time>2016-03-30T01:59:18Z</time>
      </trkpt>
      <trkpt lat="44.14075" lon="6.74479">
        <ele>1386</ele>
        <time>2016-03-30T02:01:18Z</time>
      </trkpt>
      <trkpt lat="44.14092" lon="6.74484">
        <ele>1388</ele>
        <time>2016-03-30T02:03:18Z</time>
      </trkpt>
      <trkpt lat="44.14111" lon="6.7449">
        <ele>1390</ele>
        <time>2016-03-30T02:05:18Z</time>
      </trkpt>
      <trkpt lat="44.14117" lon="6.74492">
        <ele>1390</ele>
        <time>2016-03-30T02:07:18Z</time>
      </trkpt>
      <trkpt lat="44.1413" lon="6.74495">
        <ele>1391</ele>
        <time>2016-03-30T02:09:18Z</time>
      </trkpt>
      <trkpt lat="44.14135" lon="6.74496">
        <ele>1391</ele>
        <time>2016-03-30T02:11:18Z</time>
      </trkpt>
      <trkpt lat="44.14141" lon="6.74498">
        <ele>1392</ele>
        <time>2016-03-30T02:13:18Z</time>
      </trkpt>
      <trkpt lat="44.14147" lon="6.74499">
        <ele>1392</ele>
        <time>2016-03-30T02:15:18Z</time>
      </trkpt>
      <trkpt lat="44.14152" lon="6.74501">
        <ele>1393</ele>
        <time>2016-03-30T02:17:18Z</time>
      </trkpt>
      <trkpt lat="44.14157" lon="6.74503">
        <ele>1394</ele>
        <time>2016-03-30T02:19:18Z</time>
      </trkpt>
      <trkpt lat="44.14161" lon="6.74507">
        <ele>1394</ele>
        <time>2016-03-30T02:21:18Z</time>
      </trkpt>
      <trkpt lat="44.14169" lon="6.74516">
        <ele>1396</ele>
        <time>2016-03-30T02:23:18Z</time>
      </trkpt>
      <trkpt lat="44.14172" lon="6.74523">
        <ele>1397</ele>
        <time>2016-03-30T02:25:18Z</time>
      </trkpt>
      <trkpt lat="44.14177" lon="6.74535">
        <ele>1398</ele>
        <time>2016-03-30T02:27:18Z</time>
      </trkpt>
      <trkpt lat="44.1418" lon="6.74541">
        <ele>1399</ele>
        <time>2016-03-30T02:29:18Z</time>
      </trkpt>
      <trkpt lat="44.14184" lon="6.74546">
        <ele>1399</ele>
        <time>2016-03-30T02:31:18Z</time>
      </trkpt>
      <trkpt lat="44.14187" lon="6.7455">
        <ele>1400</ele>
        <time>2016-03-30T02:33:18Z</time>
      </trkpt>
      <trkpt lat="44.14192" lon="6.74555">
        <ele>1401</ele>
        <time>2016-03-30T02:35:18Z</time>
      </trkpt>
      <trkpt lat="44.14196" lon="6.74558">
        <ele>1401</ele>
        <time>2016-03-30T02:37:18Z</time>
      </trkpt>
      <trkpt lat="44.14201" lon="6.74561">
        <ele>1402</ele>
        <time>2016-03-30T02:39:18Z</time>
      </trkpt>
      <trkpt lat="44.14206" lon="6.74562">
        <ele>1403</ele>
        <time>2016-03-30T02:41:18Z</time>
      </trkpt>
      <trkpt lat="44.14211" lon="6.74563">
        <ele>1403</ele>
        <time>2016-03-30T02:43:18Z</time>
      </trkpt>
      <trkpt lat="44.14215" lon="6.74563">
        <ele>1404</ele>
        <time>2016-03-30T02:45:18Z</time>
      </trkpt>
      <trkpt lat="44.14221" lon="6.74563">
        <ele>1405</ele>
        <time>2016-03-30T02:47:18Z</time>
      </trkpt>
      <trkpt lat="44.14226" lon="6.74564">
        <ele>1405</ele>
        <time>2016-03-30T02:49:18Z</time>
      </trkpt>
      <trkpt lat="44.14232" lon="6.74564">
        <ele>1406</ele>
        <time>2016-03-30T02:51:18Z</time>
      </trkpt>
      <trkpt lat="44.14238" lon="6.74565">
        <ele>1407</ele>
        <time>2016-03-30T02:53:18Z</time>
      </trkpt>
      <trkpt lat="44.14244" lon="6.74566">
        <ele>1407</ele>
        <time>2016-03-30T02:55:18Z</time>
      </trkpt>
      <trkpt lat="44.1426" lon="6.74566">
        <ele>1410</ele>
        <time>2016-03-30T02:57:18Z</time>
      </trkpt>
      <trkpt lat="44.14271" lon="6.74567">
        <ele>1411</ele>
        <time>2016-03-30T02:59:18Z</time>
      </trkpt>
      <trkpt lat="44.14275" lon="6.74567">
        <ele>1411</ele>
        <time>2016-03-30T03:01:18Z</time>
      </trkpt>
      <trkpt lat="44.14294" lon="6.74564">
        <ele>1414</ele>
        <time>2016-03-30T03:03:18Z</time>
      </trkpt>
      <trkpt lat="44.14298" lon="6.74563">
        <ele>1415</ele>
        <time>2016-03-30T03:05:18Z</time>
      </trkpt>
      <trkpt lat="44.14303" lon="6.74563">
        <ele>1415</ele>
        <time>2016-03-30T03:07:18Z</time>
      </trkpt>
      <trkpt lat="44.14305" lon="6.74565">
        <ele>1415</ele>
        <time>2016-03-30T03:09:18Z</time>
      </trkpt>
      <trkpt lat="44.14305" lon="6.74568">
        <ele>1415</ele>
        <time>2016-03-30T03:11:18Z</time>
      </trkpt>
      <trkpt lat="44.14305" lon="6.74572">
        <ele>1414</ele>
        <time>2016-03-30T03:13:18Z</time>
      </trkpt>
      <trkpt lat="44.14304" lon="6.74575">
        <ele>1414</ele>
        <time>2016-03-30T03:15:18Z</time>
      </trkpt>
      <trkpt lat="44.14302" lon="6.74578">
        <ele>1413</ele>
        <time>2016-03-30T03:17:18Z</time>
      </trkpt>
      <trkpt lat="44.14296" lon="6.74581">
        <ele>1412</ele>
        <time>2016-03-30T03:19:18Z</time>
      </trkpt>
      <trkpt lat="44.14264" lon="6.74595">
        <ele>1411</ele>
        <time>2016-03-30T03:21:18Z</time>
      </trkpt>
      <trkpt lat="44.142" lon="6.74622">
        <ele>1411</ele>
        <time>2016-03-30T03:23:18Z</time>
      </trkpt>
      <trkpt lat="44.1414" lon="6.74647">
        <ele>1412</ele>
        <time>2016-03-30T03:25:18Z</time>
      </trkpt>
      <trkpt lat="44.14125" lon="6.74656">
        <ele>1413</ele>
        <time>2016-03-30T03:27:18Z</time>
      </trkpt>
      <trkpt lat="44.14109" lon="6.74667">
        <ele>1416</ele>
        <time>2016-03-30T03:29:18Z</time>
      </trkpt>
      <trkpt lat="44.14091" lon="6.74684">
        <ele>1421</ele>
        <time>2016-03-30T03:31:18Z</time>
      </trkpt>
      <trkpt lat="44.1408" lon="6.74692">
        <ele>1423</ele>
        <time>2016-03-30T03:33:18Z</time>
      </trkpt>
      <trkpt lat="44.14068" lon="6.74699">
        <ele>1426</ele>
        <time>2016-03-30T03:35:18Z</time>
      </trkpt>
      <trkpt lat="44.14055" lon="6.74705">
        <ele>1428</ele>
        <time>2016-03-30T03:37:18Z</time>
      </trkpt>
      <trkpt lat="44.14016" lon="6.74715">
        <ele>1432</ele>
        <time>2016-03-30T03:39:18Z</time>
      </trkpt>
      <trkpt lat="44.13986" lon="6.74723">
        <ele>1434</ele>
        <time>2016-03-30T03:41:18Z</time>
      </trkpt>
      <trkpt lat="44.1397" lon="6.74726">
        <ele>1434</ele>
        <time>2016-03-30T03:43:18Z</time>
      </trkpt>
      <trkpt lat="44.1396" lon="6.74727">
        <ele>1434</ele>
        <time>2016-03-30T03:45:18Z</time>
      </trkpt>
      <trkpt lat="44.13944" lon="6.74726">
        <ele>1433</ele>
        <time>2016-03-30T03:47:18Z</time>
      </trkpt>
      <trkpt lat="44.13941" lon="6.74726">
        <ele>1432</ele>
        <time>2016-03-30T03:49:18Z</time>
      </trkpt>
      <trkpt lat="44.13938" lon="6.74727">
        <ele>1433</ele>
        <time>2016-03-30T03:51:18Z</time>
      </trkpt>
      <trkpt lat="44.13937" lon="6.74729">
        <ele>1433</ele>
        <time>2016-03-30T03:53:18Z</time>
      </trkpt>
      <trkpt lat="44.13935" lon="6.7473">
        <ele>1434</ele>
        <time>2016-03-30T03:55:18Z</time>
      </trkpt>
      <trkpt lat="44.13934" lon="6.74733">
        <ele>1435</ele>
        <time>2016-03-30T03:57:18Z</time>
      </trkpt>
      <trkpt lat="44.13934" lon="6.74734">
        <ele>1435</ele>
        <time>2016-03-30T03:59:18Z</time>
      </trkpt>
      <trkpt lat="44.13933" lon="6.74736">
        <ele>1436</ele>
        <time>2016-03-30T04:01:18Z</time>
      </trkpt>
      <trkpt lat="44.13933" lon="6.74737">
        <ele>1436</ele>
        <time>2016-03-30T04:03:18Z</time>
      </trkpt>
      <trkpt lat="44.13934" lon="6.7474">
        <ele>1437</ele>
        <time>2016-03-30T04:05:18Z</time>
      </trkpt>
      <trkpt lat="44.13934" lon="6.74741">
        <ele>1438</ele>
        <time>2016-03-30T04:07:18Z</time>
      </trkpt>
      <trkpt lat="44.13935" lon="6.74743">
        <ele>1438</ele>
        <time>2016-03-30T04:09:18Z</time>
      </trkpt>
      <trkpt lat="44.13936" lon="6.74744">
        <ele>1439</ele>
        <time>2016-03-30T04:11:18Z</time>
      </trkpt>
      <trkpt lat="44.13937" lon="6.74746">
        <ele>1440</ele>
        <time>2016-03-30T04:13:18Z</time>
      </trkpt>
      <trkpt lat="44.13939" lon="6.74747">
        <ele>1440</ele>
        <time>2016-03-30T04:15:18Z</time>
      </trkpt>
      <trkpt lat="44.13943" lon="6.74747">
        <ele>1440</ele>
        <time>2016-03-30T04:17:18Z</time>
      </trkpt>
      <trkpt lat="44.1395" lon="6.74745">
        <ele>1440</ele>
        <time>2016-03-30T04:19:18Z</time>
      </trkpt>
      <trkpt lat="44.13957" lon="6.74743">
        <ele>1439</ele>
        <time>2016-03-30T04:21:18Z</time>
      </trkpt>
      <trkpt lat="44.13965" lon="6.7474">
        <ele>1439</ele>
        <time>2016-03-30T04:23:18Z</time>
      </trkpt>
      <trkpt lat="44.13986" lon="6.74737">
        <ele>1439</ele>
        <time>2016-03-30T04:25:18Z</time>
      </trkpt>
      <trkpt lat="44.14038" lon="6.74741">
        <ele>1441</ele>
        <time>2016-03-30T04:27:18Z</time>
      </trkpt>
      <trkpt lat="44.14053" lon="6.74742">
        <ele>1441</ele>
        <time>2016-03-30T04:29:18Z</time>
      </trkpt>
      <trkpt lat="44.14064" lon="6.74743">
        <ele>1441</ele>
        <time>2016-03-30T04:31:18Z</time>
      </trkpt>
      <trkpt lat="44.14078" lon="6.74742">
        <ele>1441</ele>
        <time>2016-03-30T04:33:18Z</time>
      </trkpt>
      <trkpt lat="44.14097" lon="6.74735">
        <ele>1439</ele>
        <time>2016-03-30T04:35:18Z</time>
      </trkpt>
      <trkpt lat="44.1411" lon="6.74734">
        <ele>1439</ele>
        <time>2016-03-30T04:37:18Z</time>
      </trkpt>
      <trkpt lat="44.14135" lon="6.74739">
        <ele>1441</ele>
        <time>2016-03-30T04:39:18Z</time>
      </trkpt>
      <trkpt lat="44.14149" lon="6.74747">
        <ele>1444</ele>
        <time>2016-03-30T04:41:18Z</time>
      </trkpt>
      <trkpt lat="44.14182" lon="6.74767">
        <ele>1448</ele>
        <time>2016-03-30T04:43:18Z</time>
      </trkpt>
      <trkpt lat="44.14201" lon="6.74777">
        <ele>1450</ele>
        <time>2016-03-30T04:45:18Z</time>
      </trkpt>
      <trkpt lat="44.1421" lon="6.74781">
        <ele>1451</ele>
        <time>2016-03-30T04:47:18Z</time>
      </trkpt>
      <trkpt lat="44.1422" lon="6.74781">
        <ele>1451</ele>
        <time>2016-03-30T04:49:18Z</time>
      </trkpt>
      <trkpt lat="44.14223" lon="6.74781">
        <ele>1451</ele>
        <time>2016-03-30T04:51:18Z</time>
      </trkpt>
      <trkpt lat="44.14224" lon="6.74782">
        <ele>1451</ele>
        <time>2016-03-30T04:53:18Z</time>
      </trkpt>
      <trkpt lat="44.14226" lon="6.74782">
        <ele>1451</ele>
        <time>2016-03-30T04:55:18Z</time>
      </trkpt>
      <trkpt lat="44.14227" lon="6.74784">
        <ele>1451</ele>
        <time>2016-03-30T04:57:18Z</time>
      </trkpt>
      <trkpt lat="44.14228" lon="6.74784">
        <ele>1451</ele>
        <time>2016-03-30T04:59:18Z</time>
      </trkpt>
      <trkpt lat="44.14229" lon="6.74786">
        <ele>1452</ele>
        <time>2016-03-30T05:01:18Z</time>
      </trkpt>
      <trkpt lat="44.14252" lon="6.74779">
        <ele>1452</ele>
        <time>2016-03-30T05:03:18Z</time>
      </trkpt>
      <trkpt lat="44.14269" lon="6.74773">
        <ele>1452</ele>
        <time>2016-03-30T05:05:18Z</time>
      </trkpt>
      <trkpt lat="44.14278" lon="6.7477">
        <ele>1452</ele>
        <time>2016-03-30T05:07:18Z</time>
      </trkpt>
      <trkpt lat="44.14304" lon="6.74766">
        <ele>1454</ele>
        <time>2016-03-30T05:09:18Z</time>
      </trkpt>
      <trkpt lat="44.1432" lon="6.74766">
        <ele>1454</ele>
        <time>2016-03-30T05:11:18Z</time>
      </trkpt>
      <trkpt lat="44.14328" lon="6.74766">
        <ele>1455</ele>
        <time>2016-03-30T05:13:18Z</time>
      </trkpt>
      <trkpt lat="44.14348" lon="6.74768">
        <ele>1455</ele>
        <time>2016-03-30T05:15:18Z</time>
      </trkpt>
      <trkpt lat="44.14362" lon="6.74766">
        <ele>1457</ele>
        <time>2016-03-30T05:17:18Z</time>
      </trkpt>
      <trkpt lat="44.14377" lon="6.74762">
        <ele>1459</ele>
        <time>2016-03-30T05:19:18Z</time>
      </trkpt>
      <trkpt lat="44.14397" lon="6.74754">
        <ele>1463</ele>
        <time>2016-03-30T05:21:18Z</time>
      </trkpt>
      <trkpt lat="44.14406" lon="6.74748">
        <ele>1465</ele>
        <time>2016-03-30T05:23:18Z</time>
      </trkpt>
      <trkpt lat="44.14417" lon="6.74741">
        <ele>1465</ele>
        <time>2016-03-30T05:25:18Z</time>
      </trkpt>
      <trkpt lat="44.14423" lon="6.74735">
        <ele>1465</ele>
        <time>2016-03-30T05:27:18Z</time>
      </trkpt>
      <trkpt lat="44.14429" lon="6.74728">
        <ele>1465</ele>
        <time>2016-03-30T05:29:18Z</time>
      </trkpt>
      <trkpt lat="44.14446" lon="6.74714">
        <ele>1466</ele>
        <time>2016-03-30T05:31:18Z</time>
      </trkpt>
      <trkpt lat="44.14454" lon="6.74707">
        <ele>1467</ele>
        <time>2016-03-30T05:33:18Z</time>
      </trkpt>
      <trkpt lat="44.1446" lon="6.74701">
        <ele>1468</ele>
        <time>2016-03-30T05:35:18Z</time>
      </trkpt>
      <trkpt lat="44.1447" lon="6.74692">
        <ele>1469</ele>
        <time>2016-03-30T05:37:18Z</time>
      </trkpt>
      <trkpt lat="44.14476" lon="6.74684">
        <ele>1470</ele>
        <time>2016-03-30T05:39:18Z</time>
      </trkpt>
      <trkpt lat="44.14487" lon="6.74673">
        <ele>1472</ele>
        <time>2016-03-30T05:41:18Z</time>
      </trkpt>
      <trkpt lat="44.14505" lon="6.74663">
        <ele>1475</ele>
        <time>2016-03-30T05:43:18Z</time>
      </trkpt>
      <trkpt lat="44.14511" lon="6.7466">
        <ele>1476</ele>
        <time>2016-03-30T05:45:18Z</time>
      </trkpt>
      <trkpt lat="44.14521" lon="6.74653">
        <ele>1477</ele>
        <time>2016-03-30T05:47:18Z</time>
      </trkpt>
      <trkpt lat="44.14529" lon="6.74646">
        <ele>1477</ele>
        <time>2016-03-30T05:49:18Z</time>
      </trkpt>
      <trkpt lat="44.14533" lon="6.74644">
        <ele>1477</ele>
        <time>2016-03-30T05:51:18Z</time>
      </trkpt>
      <trkpt lat="44.14537" lon="6.74643">
        <ele>1478</ele>
        <time>2016-03-30T05:53:18Z</time>
      </trkpt>
      <trkpt lat="44.1454" lon="6.74643">
        <ele>1478</ele>
        <time>2016-03-30T05:55:18Z</time>
      </trkpt>
      <trkpt lat="44.14543" lon="6.74646">
        <ele>1480</ele>
        <time>2016-03-30T05:57:18Z</time>
      </trkpt>
      <trkpt lat="44.14544" lon="6.74649">
        <ele>1480</ele>
        <time>2016-03-30T05:59:18Z</time>
      </trkpt>
      <trkpt lat="44.14546" lon="6.74653">
        <ele>1482</ele>
        <time>2016-03-30T06:01:18Z</time>
      </trkpt>
      <trkpt lat="44.14546" lon="6.74657">
        <ele>1483</ele>
        <time>2016-03-30T06:03:18Z</time>
      </trkpt>
      <trkpt lat="44.14544" lon="6.74661">
        <ele>1483</ele>
        <time>2016-03-30T06:05:18Z</time>
      </trkpt>
      <trkpt lat="44.14542" lon="6.74665">
        <ele>1484</ele>
        <time>2016-03-30T06:07:18Z</time>
      </trkpt>
      <trkpt lat="44.14539" lon="6.74668">
        <ele>1483</ele>
        <time>2016-03-30T06:09:18Z</time>
      </trkpt>
      <trkpt lat="44.14535" lon="6.74671">
        <ele>1482</ele>
        <time>2016-03-30T06:11:18Z</time>
      </trkpt>
      <trkpt lat="44.14532" lon="6.74673">
        <ele>1482</ele>
        <time>2016-03-30T06:13:18Z</time>
      </trkpt>
      <trkpt lat="44.14523" lon="6.74678">
        <ele>1480</ele>
        <time>2016-03-30T06:15:18Z</time>
      </trkpt>
      <trkpt lat="44.14513" lon="6.74684">
        <ele>1478</ele>
        <time>2016-03-30T06:17:18Z</time>
      </trkpt>
      <trkpt lat="44.14504" lon="6.7469">
        <ele>1476</ele>
        <time>2016-03-30T06:19:18Z</time>
      </trkpt>
      <trkpt lat="44.14491" lon="6.74699">
        <ele>1474</ele>
        <time>2016-03-30T06:21:18Z</time>
      </trkpt>
      <trkpt lat="44.14488" lon="6.74702">
        <ele>1474</ele>
        <time>2016-03-30T06:23:18Z</time>
      </trkpt>
      <trkpt lat="44.14486" lon="6.74705">
        <ele>1473</ele>
        <time>2016-03-30T06:25:18Z</time>
      </trkpt>
      <trkpt lat="44.14485" lon="6.7471">
        <ele>1473</ele>
        <time>2016-03-30T06:27:18Z</time>
      </trkpt>
      <trkpt lat="44.14485" lon="6.74714">
        <ele>1473</ele>
        <time>2016-03-30T06:29:18Z</time>
      </trkpt>
      <trkpt lat="44.14487" lon="6.74718">
        <ele>1474</ele>
        <time>2016-03-30T06:31:18Z</time>
      </trkpt>
      <trkpt lat="44.1449" lon="6.74721">
        <ele>1475</ele>
        <time>2016-03-30T06:33:18Z</time>
      </trkpt>
      <trkpt lat="44.14493" lon="6.74721">
        <ele>1475</ele>
        <time>2016-03-30T06:35:18Z</time>
      </trkpt>
      <trkpt lat="44.14496" lon="6.7472">
        <ele>1476</ele>
        <time>2016-03-30T06:37:18Z</time>
      </trkpt>
      <trkpt lat="44.145" lon="6.74718">
        <ele>1476</ele>
        <time>2016-03-30T06:39:18Z</time>
      </trkpt>
      <trkpt lat="44.14504" lon="6.74716">
        <ele>1477</ele>
        <time>2016-03-30T06:41:18Z</time>
      </trkpt>
      <trkpt lat="44.14508" lon="6.74714">
        <ele>1477</ele>
        <time>2016-03-30T06:43:18Z</time>
      </trkpt>
      <trkpt lat="44.14512" lon="6.74711">
        <ele>1478</ele>
        <time>2016-03-30T06:45:18Z</time>
      </trkpt>
      <trkpt lat="44.14517" lon="6.74709">
        <ele>1478</ele>
        <time>2016-03-30T06:47:18Z</time>
      </trkpt>
      <trkpt lat="44.14523" lon="6.74708">
        <ele>1479</ele>
        <time>2016-03-30T06:49:18Z</time>
      </trkpt>
      <trkpt lat="44.14531" lon="6.74707">
        <ele>1480</ele>
        <time>2016-03-30T06:51:18Z</time>
      </trkpt>
      <trkpt lat="44.14539" lon="6.74707">
        <ele>1481</ele>
        <time>2016-03-30T06:53:18Z</time>
      </trkpt>
      <trkpt lat="44.14551" lon="6.74707">
        <ele>1483</ele>
        <time>2016-03-30T06:55:18Z</time>
      </trkpt>
      <trkpt lat="44.14575" lon="6.74712">
        <ele>1485</ele>
        <time>2016-03-30T06:57:18Z</time>
      </trkpt>
      <trkpt lat="44.14581" lon="6.74712">
        <ele>1486</ele>
        <time>2016-03-30T06:59:18Z</time>
      </trkpt>
      <trkpt lat="44.14587" lon="6.74712">
        <ele>1487</ele>
        <time>2016-03-30T07:01:18Z</time>
      </trkpt>
      <trkpt lat="44.14597" lon="6.74708">
        <ele>1488</ele>
        <time>2016-03-30T07:03:18Z</time>
      </trkpt>
      <trkpt lat="44.1462" lon="6.74691">
        <ele>1493</ele>
        <time>2016-03-30T07:05:18Z</time>
      </trkpt>
      <trkpt lat="44.14636" lon="6.74677">
        <ele>1497</ele>
        <time>2016-03-30T07:07:18Z</time>
      </trkpt>
      <trkpt lat="44.14648" lon="6.74667">
        <ele>1501</ele>
        <time>2016-03-30T07:09:18Z</time>
      </trkpt>
      <trkpt lat="44.14654" lon="6.74664">
        <ele>1501</ele>
        <time>2016-03-30T07:11:18Z</time>
      </trkpt>
      <trkpt lat="44.14657" lon="6.74663">
        <ele>1502</ele>
        <time>2016-03-30T07:13:18Z</time>
      </trkpt>
      <trkpt lat="44.14661" lon="6.74663">
        <ele>1502</ele>
        <time>2016-03-30T07:15:18Z</time>
      </trkpt>
      <trkpt lat="44.14665" lon="6.74663">
        <ele>1503</ele>
        <time>2016-03-30T07:17:18Z</time>
      </trkpt>
      <trkpt lat="44.14681" lon="6.74667">
        <ele>1505</ele>
        <time>2016-03-30T07:19:18Z</time>
      </trkpt>
      <trkpt lat="44.14693" lon="6.74667">
        <ele>1507</ele>
        <time>2016-03-30T07:21:18Z</time>
      </trkpt>
      <trkpt lat="44.14711" lon="6.74666">
        <ele>1510</ele>
        <time>2016-03-30T07:23:18Z</time>
      </trkpt>
      <trkpt lat="44.14718" lon="6.74664">
        <ele>1512</ele>
        <time>2016-03-30T07:25:18Z</time>
      </trkpt>
      <trkpt lat="44.1472" lon="6.74663">
        <ele>1512</ele>
        <time>2016-03-30T07:27:18Z</time>
      </trkpt>
      <trkpt lat="44.14721" lon="6.7466">
        <ele>1513</ele>
        <time>2016-03-30T07:29:18Z</time>
      </trkpt>
      <trkpt lat="44.14722" lon="6.74658">
        <ele>1513</ele>
        <time>2016-03-30T07:31:18Z</time>
      </trkpt>
      <trkpt lat="44.14722" lon="6.74656">
        <ele>1513</ele>
        <time>2016-03-30T07:33:18Z</time>
      </trkpt>
      <trkpt lat="44.14722" lon="6.74654">
        <ele>1513</ele>
        <time>2016-03-30T07:35:18Z</time>
      </trkpt>
      <trkpt lat="44.14721" lon="6.74651">
        <ele>1513</ele>
        <time>2016-03-30T07:37:18Z</time>
      </trkpt>
      <trkpt lat="44.14719" lon="6.74649">
        <ele>1513</ele>
        <time>2016-03-30T07:39:18Z</time>
      </trkpt>
      <trkpt lat="44.14717" lon="6.74647">
        <ele>1513</ele>
        <time>2016-03-30T07:41:18Z</time>
      </trkpt>
      <trkpt lat="44.14714" lon="6.74647">
        <ele>1512</ele>
        <time>2016-03-30T07:43:18Z</time>
      </trkpt>
      <trkpt lat="44.14704" lon="6.74649">
        <ele>1510</ele>
        <time>2016-03-30T07:45:18Z</time>
      </trkpt>
      <trkpt lat="44.14696" lon="6.7465">
        <ele>1508</ele>
        <time>2016-03-30T07:47:18Z</time>
      </trkpt>
      <trkpt lat="44.14683" lon="6.74649">
        <ele>1506</ele>
        <time>2016-03-30T07:49:18Z</time>
      </trkpt>
      <trkpt lat="44.14675" lon="6.74648">
        <ele>1504</ele>
        <time>2016-03-30T07:51:18Z</time>
      </trkpt>
      <trkpt lat="44.14671" lon="6.74647">
        <ele>1503</ele>
        <time>2016-03-30T07:53:18Z</time>
      </trkpt>
      <trkpt lat="44.14668" lon="6.74646">
        <ele>1503</ele>
        <time>2016-03-30T07:55:18Z</time>
      </trkpt>
      <trkpt lat="44.14666" lon="6.74643">
        <ele>1502</ele>
        <time>2016-03-30T07:57:18Z</time>
      </trkpt>
      <trkpt lat="44.14665" lon="6.7464">
        <ele>1502</ele>
        <time>2016-03-30T07:59:18Z</time>
      </trkpt>
      <trkpt lat="44.14664" lon="6.74637">
        <ele>1502</ele>
        <time>2016-03-30T08:01:18Z</time>
      </trkpt>
      <trkpt lat="44.14664" lon="6.74635">
        <ele>1502</ele>
        <time>2016-03-30T08:03:18Z</time>
      </trkpt>
      <trkpt lat="44.14664" lon="6.74633">
        <ele>1502</ele>
        <time>2016-03-30T08:05:18Z</time>
      </trkpt>
      <trkpt lat="44.14665" lon="6.74631">
        <ele>1502</ele>
        <time>2016-03-30T08:07:18Z</time>
      </trkpt>
      <trkpt lat="44.14666" lon="6.74627">
        <ele>1502</ele>
        <time>2016-03-30T08:09:18Z</time>
      </trkpt>
      <trkpt lat="44.14669" lon="6.74624">
        <ele>1503</ele>
        <time>2016-03-30T08:11:18Z</time>
      </trkpt>
      <trkpt lat="44.14675" lon="6.74617">
        <ele>1504</ele>
        <time>2016-03-30T08:13:18Z</time>
      </trkpt>
      <trkpt lat="44.14695" lon="6.74602">
        <ele>1510</ele>
        <time>2016-03-30T08:15:18Z</time>
      </trkpt>
      <trkpt lat="44.14711" lon="6.74592">
        <ele>1515</ele>
        <time>2016-03-30T08:17:18Z</time>
      </trkpt>
      <trkpt lat="44.14721" lon="6.74585">
        <ele>1518</ele>
        <time>2016-03-30T08:19:18Z</time>
      </trkpt>
      <trkpt lat="44.14732" lon="6.74576">
        <ele>1521</ele>
        <time>2016-03-30T08:21:18Z</time>
      </trkpt>
      <trkpt lat="44.1475" lon="6.74566">
        <ele>1526</ele>
        <time>2016-03-30T08:23:18Z</time>
      </trkpt>
      <trkpt lat="44.14836" lon="6.74517">
        <ele>1541</ele>
        <time>2016-03-30T08:25:18Z</time>
      </trkpt>
      <trkpt lat="44.14893" lon="6.74482">
        <ele>1551</ele>
        <time>2016-03-30T08:27:18Z</time>
      </trkpt>
      <trkpt lat="44.15047" lon="6.74382">
        <ele>1576</ele>
        <time>2016-03-30T08:29:18Z</time>
      </trkpt>
      <trkpt lat="44.15084" lon="6.74354">
        <ele>1578</ele>
        <time>2016-03-30T08:31:18Z</time>
      </trkpt>
      <trkpt lat="44.15121" lon="6.74329">
        <ele>1582</ele>
        <time>2016-03-30T08:33:18Z</time>
      </trkpt>
      <trkpt lat="44.15137" lon="6.74319">
        <ele>1585</ele>
        <time>2016-03-30T08:35:18Z</time>
      </trkpt>
      <trkpt lat="44.15163" lon="6.74305">
        <ele>1589</ele>
        <time>2016-03-30T08:37:18Z</time>
      </trkpt>
      <trkpt lat="44.15182" lon="6.74295">
        <ele>1592</ele>
        <time>2016-03-30T08:39:18Z</time>
      </trkpt>
      <trkpt lat="44.15202" lon="6.74282">
        <ele>1594</ele>
        <time>2016-03-30T08:41:18Z</time>
      </trkpt>
      <trkpt lat="44.15225" lon="6.74266">
        <ele>1595</ele>
        <time>2016-03-30T08:43:18Z</time>
      </trkpt>
      <trkpt lat="44.15238" lon="6.74258">
        <ele>1595</ele>
        <time>2016-03-30T08:45:18Z</time>
      </trkpt>
      <trkpt lat="44.15247" lon="6.74255">
        <ele>1596</ele>
        <time>2016-03-30T08:47:18Z</time>
      </trkpt>
      <trkpt lat="44.15254" lon="6.74254">
        <ele>1596</ele>
        <time>2016-03-30T08:49:18Z</time>
      </trkpt>
      <trkpt lat="44.15264" lon="6.74251">
        <ele>1596</ele>
        <time>2016-03-30T08:51:18Z</time>
      </trkpt>
      <trkpt lat="44.15275" lon="6.7425">
        <ele>1596</ele>
        <time>2016-03-30T08:53:18Z</time>
      </trkpt>
      <trkpt lat="44.15288" lon="6.74247">
        <ele>1596</ele>
        <time>2016-03-30T08:55:18Z</time>
      </trkpt>
      <trkpt lat="44.15298" lon="6.74242">
        <ele>1597</ele>
        <time>2016-03-30T08:57:18Z</time>
      </trkpt>
      <trkpt lat="44.15306" lon="6.74238">
        <ele>1597</ele>
        <time>2016-03-30T08:59:18Z</time>
      </trkpt>
      <trkpt lat="44.15319" lon="6.74228">
        <ele>1598</ele>
        <time>2016-03-30T09:01:18Z</time>
      </trkpt>
      <trkpt lat="44.15339" lon="6.74214">
        <ele>1599</ele>
        <time>2016-03-30T09:03:18Z</time>
      </trkpt>
      <trkpt lat="44.15355" lon="6.74206">
        <ele>1600</ele>
        <time>2016-03-30T09:05:18Z</time>
      </trkpt>
      <trkpt lat="44.15377" lon="6.74196">
        <ele>1601</ele>
        <time>2016-03-30T09:07:18Z</time>
      </trkpt>
      <trkpt lat="44.15421" lon="6.74178">
        <ele>1602</ele>
        <time>2016-03-30T09:09:18Z</time>
      </trkpt>
      <trkpt lat="44.15452" lon="6.74164">
        <ele>1604</ele>
        <time>2016-03-30T09:11:18Z</time>
      </trkpt>
      <trkpt lat="44.15484" lon="6.74146">
        <ele>1606</ele>
        <time>2016-03-30T09:13:18Z</time>
      </trkpt>
      <trkpt lat="44.1551" lon="6.74126">
        <ele>1608</ele>
        <time>2016-03-30T09:15:18Z</time>
      </trkpt>
      <trkpt lat="44.15545" lon="6.74099">
        <ele>1610</ele>
        <time>2016-03-30T09:17:18Z</time>
      </trkpt>
      <trkpt lat="44.15568" lon="6.74083">
        <ele>1610</ele>
        <time>2016-03-30T09:19:18Z</time>
      </trkpt>
      <trkpt lat="44.15583" lon="6.74076">
        <ele>1611</ele>
        <time>2016-03-30T09:21:18Z</time>
      </trkpt>
      <trkpt lat="44.15589" lon="6.74073">
        <ele>1612</ele>
        <time>2016-03-30T09:23:18Z</time>
      </trkpt>
      <trkpt lat="44.15599" lon="6.74067">
        <ele>1613</ele>
        <time>2016-03-30T09:25:18Z</time>
      </trkpt>
      <trkpt lat="44.15608" lon="6.74062">
        <ele>1614</ele>
        <time>2016-03-30T09:27:18Z</time>
      </trkpt>
      <trkpt lat="44.15616" lon="6.74057">
        <ele>1615</ele>
        <time>2016-03-30T09:29:18Z</time>
      </trkpt>
      <trkpt lat="44.15647" lon="6.74022">
        <ele>1616</ele>
        <time>2016-03-30T09:31:18Z</time>
      </trkpt>
      <trkpt lat="44.15666" lon="6.74">
        <ele>1615</ele>
        <time>2016-03-30T09:33:18Z</time>
      </trkpt>
      <trkpt lat="44.1569" lon="6.73972">
        <ele>1614</ele>
        <time>2016-03-30T09:35:18Z</time>
      </trkpt>
      <trkpt lat="44.15702" lon="6.73956">
        <ele>1614</ele>
        <time>2016-03-30T09:37:18Z</time>
      </trkpt>
      <trkpt lat="44.15704" lon="6.7395">
        <ele>1613</ele>
        <time>2016-03-30T09:39:18Z</time>
      </trkpt>
      <trkpt lat="44.15708" lon="6.73938">
        <ele>1613</ele>
        <time>2016-03-30T09:41:18Z</time>
      </trkpt>
      <trkpt lat="44.1571" lon="6.73923">
        <ele>1612</ele>
        <time>2016-03-30T09:43:18Z</time>
      </trkpt>
      <trkpt lat="44.15711" lon="6.73916">
        <ele>1612</ele>
        <time>2016-03-30T09:45:18Z</time>
      </trkpt>
      <trkpt lat="44.15712" lon="6.73899">
        <ele>1612</ele>
        <time>2016-03-30T09:47:18Z</time>
      </trkpt>
      <trkpt lat="44.15711" lon="6.73887">
        <ele>1612</ele>
        <time>2016-03-30T09:49:18Z</time>
      </trkpt>
      <trkpt lat="44.1571" lon="6.73873">
        <ele>1612</ele>
        <time>2016-03-30T09:51:18Z</time>
      </trkpt>
      <trkpt lat="44.15707" lon="6.73859">
        <ele>1612</ele>
        <time>2016-03-30T09:53:18Z</time>
      </trkpt>
      <trkpt lat="44.15705" lon="6.73854">
        <ele>1612</ele>
        <time>2016-03-30T09:55:18Z</time>
      </trkpt>
      <trkpt lat="44.15703" lon="6.73851">
        <ele>1612</ele>
        <time>2016-03-30T09:57:18Z</time>
      </trkpt>
      <trkpt lat="44.15701" lon="6.73848">
        <ele>1612</ele>
        <time>2016-03-30T09:59:18Z</time>
      </trkpt>
      <trkpt lat="44.15692" lon="6.73839">
        <ele>1612</ele>
        <time>2016-03-30T10:01:18Z</time>
      </trkpt>
      <trkpt lat="44.1568" lon="6.73828">
        <ele>1612</ele>
        <time>2016-03-30T10:03:18Z</time>
      </trkpt>
      <trkpt lat="44.15673" lon="6.73822">
        <ele>1612</ele>
        <time>2016-03-30T10:05:18Z</time>
      </trkpt>
      <trkpt lat="44.15669" lon="6.73818">
        <ele>1611</ele>
        <time>2016-03-30T10:07:18Z</time>
      </trkpt>
      <trkpt lat="44.1566" lon="6.73808">
        <ele>1612</ele>
        <time>2016-03-30T10:09:18Z</time>
      </trkpt>
      <trkpt lat="44.15654" lon="6.73798">
        <ele>1612</ele>
        <time>2016-03-30T10:11:18Z</time>
      </trkpt>
      <trkpt lat="44.15648" lon="6.73785">
        <ele>1612</ele>
        <time>2016-03-30T10:13:18Z</time>
      </trkpt>
      <trkpt lat="44.15643" lon="6.7377">
        <ele>1612</ele>
        <time>2016-03-30T10:15:18Z</time>
      </trkpt>
      <trkpt lat="44.15641" lon="6.73763">
        <ele>1613</ele>
        <time>2016-03-30T10:17:18Z</time>
      </trkpt>
      <trkpt lat="44.15639" lon="6.73748">
        <ele>1612</ele>
        <time>2016-03-30T10:19:18Z</time>
      </trkpt>
      <trkpt lat="44.15637" lon="6.73733">
        <ele>1611</ele>
        <time>2016-03-30T10:21:18Z</time>
      </trkpt>
      <trkpt lat="44.15635" lon="6.73718">
        <ele>1610</ele>
        <time>2016-03-30T10:23:18Z</time>
      </trkpt>
      <trkpt lat="44.15628" lon="6.73698">
        <ele>1610</ele>
        <time>2016-03-30T10:25:18Z</time>
      </trkpt>
      <trkpt lat="44.15623" lon="6.73683">
        <ele>1611</ele>
        <time>2016-03-30T10:27:18Z</time>
      </trkpt>
      <trkpt lat="44.1562" lon="6.73669">
        <ele>1611</ele>
        <time>2016-03-30T10:29:18Z</time>
      </trkpt>
      <trkpt lat="44.15616" lon="6.73654">
        <ele>1610</ele>
        <time>2016-03-30T10:31:18Z</time>
      </trkpt>
      <trkpt lat="44.15614" lon="6.73642">
        <ele>1609</ele>
        <time>2016-03-30T10:33:18Z</time>
      </trkpt>
      <trkpt lat="44.1561" lon="6.73634">
        <ele>1609</ele>
        <time>2016-03-30T10:35:18Z</time>
      </trkpt>
      <trkpt lat="44.15604" lon="6.73624">
        <ele>1610</ele>
        <time>2016-03-30T10:37:18Z</time>
      </trkpt>
      <trkpt lat="44.15598" lon="6.73615">
        <ele>1611</ele>
        <time>2016-03-30T10:39:18Z</time>
      </trkpt>
      <trkpt lat="44.1559" lon="6.73603">
        <ele>1613</ele>
        <time>2016-03-30T10:41:18Z</time>
      </trkpt>
      <trkpt lat="44.15585" lon="6.7359">
        <ele>1613</ele>
        <time>2016-03-30T10:43:18Z</time>
      </trkpt>
      <trkpt lat="44.1558" lon="6.73571">
        <ele>1610</ele>
        <time>2016-03-30T10:45:18Z</time>
      </trkpt>
      <trkpt lat="44.15576" lon="6.73561">
        <ele>1608</ele>
        <time>2016-03-30T10:47:18Z</time>
      </trkpt>
      <trkpt lat="44.15568" lon="6.73552">
        <ele>1608</ele>
        <time>2016-03-30T10:49:18Z</time>
      </trkpt>
      <trkpt lat="44.15559" lon="6.73544">
        <ele>1608</ele>
        <time>2016-03-30T10:51:18Z</time>
      </trkpt>
      <trkpt lat="44.15552" lon="6.73536">
        <ele>1607</ele>
        <time>2016-03-30T10:53:18Z</time>
      </trkpt>
      <trkpt lat="44.15548" lon="6.73531">
        <ele>1607</ele>
        <time>2016-03-30T10:55:18Z</time>
      </trkpt>
      <trkpt lat="44.15546" lon="6.73525">
        <ele>1606</ele>
        <time>2016-03-30T10:57:18Z</time>
      </trkpt>
      <trkpt lat="44.15544" lon="6.73517">
        <ele>1604</ele>
        <time>2016-03-30T10:59:18Z</time>
      </trkpt>
      <trkpt lat="44.15543" lon="6.73509">
        <ele>1602</ele>
        <time>2016-03-30T11:01:18Z</time>
      </trkpt>
      <trkpt lat="44.15539" lon="6.73499">
        <ele>1600</ele>
        <time>2016-03-30T11:03:18Z</time>
      </trkpt>
      <trkpt lat="44.15536" lon="6.73495">
        <ele>1600</ele>
        <time>2016-03-30T11:05:18Z</time>
      </trkpt>
      <trkpt lat="44.15533" lon="6.7349">
        <ele>1600</ele>
        <time>2016-03-30T11:07:18Z</time>
      </trkpt>
      <trkpt lat="44.15529" lon="6.73487">
        <ele>1600</ele>
        <time>2016-03-30T11:09:18Z</time>
      </trkpt>
      <trkpt lat="44.15524" lon="6.73482">
        <ele>1600</ele>
        <time>2016-03-30T11:11:18Z</time>
      </trkpt>
      <trkpt lat="44.15511" lon="6.73472">
        <ele>1600</ele>
        <time>2016-03-30T11:13:18Z</time>
      </trkpt>
      <trkpt lat="44.15506" lon="6.7347">
        <ele>1601</ele>
        <time>2016-03-30T11:15:18Z</time>
      </trkpt>
      <trkpt lat="44.15501" lon="6.73469">
        <ele>1601</ele>
        <time>2016-03-30T11:17:18Z</time>
      </trkpt>
      <trkpt lat="44.15496" lon="6.7347">
        <ele>1602</ele>
        <time>2016-03-30T11:19:18Z</time>
      </trkpt>
      <trkpt lat="44.15491" lon="6.7347">
        <ele>1603</ele>
        <time>2016-03-30T11:21:18Z</time>
      </trkpt>
      <trkpt lat="44.15485" lon="6.73471">
        <ele>1604</ele>
        <time>2016-03-30T11:23:18Z</time>
      </trkpt>
      <trkpt lat="44.15476" lon="6.73473">
        <ele>1606</ele>
        <time>2016-03-30T11:25:18Z</time>
      </trkpt>
      <trkpt lat="44.15471" lon="6.73472">
        <ele>1606</ele>
        <time>2016-03-30T11:27:18Z</time>
      </trkpt>
      <trkpt lat="44.15466" lon="6.7347">
        <ele>1607</ele>
        <time>2016-03-30T11:29:18Z</time>
      </trkpt>
      <trkpt lat="44.15463" lon="6.73467">
        <ele>1607</ele>
        <time>2016-03-30T11:31:18Z</time>
      </trkpt>
      <trkpt lat="44.15459" lon="6.73461">
        <ele>1606</ele>
        <time>2016-03-30T11:33:18Z</time>
      </trkpt>
      <trkpt lat="44.15456" lon="6.73452">
        <ele>1605</ele>
        <time>2016-03-30T11:35:18Z</time>
      </trkpt>
      <trkpt lat="44.15453" lon="6.73442">
        <ele>1604</ele>
        <time>2016-03-30T11:37:18Z</time>
      </trkpt>
      <trkpt lat="44.15447" lon="6.73422">
        <ele>1603</ele>
        <time>2016-03-30T11:39:18Z</time>
      </trkpt>
      <trkpt lat="44.15443" lon="6.73406">
        <ele>1602</ele>
        <time>2016-03-30T11:41:18Z</time>
      </trkpt>
      <trkpt lat="44.15442" lon="6.73397">
        <ele>1602</ele>
        <time>2016-03-30T11:43:18Z</time>
      </trkpt>
      <trkpt lat="44.15442" lon="6.73384">
        <ele>1601</ele>
        <time>2016-03-30T11:45:18Z</time>
      </trkpt>
      <trkpt lat="44.15443" lon="6.73355">
        <ele>1600</ele>
        <time>2016-03-30T11:47:18Z</time>
      </trkpt>
      <trkpt lat="44.15444" lon="6.73325">
        <ele>1598</ele>
        <time>2016-03-30T11:49:18Z</time>
      </trkpt>
      <trkpt lat="44.15443" lon="6.73312">
        <ele>1597</ele>
        <time>2016-03-30T11:51:18Z</time>
      </trkpt>
      <trkpt lat="44.15442" lon="6.73305">
        <ele>1597</ele>
        <time>2016-03-30T11:53:18Z</time>
      </trkpt>
      <trkpt lat="44.1544" lon="6.73298">
        <ele>1597</ele>
        <time>2016-03-30T11:55:18Z</time>
      </trkpt>
      <trkpt lat="44.15435" lon="6.73291">
        <ele>1597</ele>
        <time>2016-03-30T11:57:18Z</time>
      </trkpt>
      <trkpt lat="44.15425" lon="6.73281">
        <ele>1599</ele>
        <time>2016-03-30T11:59:18Z</time>
      </trkpt>
      <trkpt lat="44.15413" lon="6.7327">
        <ele>1601</ele>
        <time>2016-03-30T12:01:18Z</time>
      </trkpt>
      <trkpt lat="44.15401" lon="6.73257">
        <ele>1602</ele>
        <time>2016-03-30T12:03:18Z</time>
      </trkpt>
      <trkpt lat="44.15393" lon="6.73248">
        <ele>1604</ele>
        <time>2016-03-30T12:05:18Z</time>
      </trkpt>
      <trkpt lat="44.15382" lon="6.73236">
        <ele>1606</ele>
        <time>2016-03-30T12:07:18Z</time>
      </trkpt>
      <trkpt lat="44.15378" lon="6.7323">
        <ele>1607</ele>
        <time>2016-03-30T12:09:18Z</time>
      </trkpt>
      <trkpt lat="44.15375" lon="6.73221">
        <ele>1607</ele>
        <time>2016-03-30T12:11:18Z</time>
      </trkpt>
      <trkpt lat="44.15373" lon="6.73212">
        <ele>1607</ele>
        <time>2016-03-30T12:13:18Z</time>
      </trkpt>
      <trkpt lat="44.15374" lon="6.73204">
        <ele>1607</ele>
        <time>2016-03-30T12:15:18Z</time>
      </trkpt>
      <trkpt lat="44.15376" lon="6.73194">
        <ele>1606</ele>
        <time>2016-03-30T12:17:18Z</time>
      </trkpt>
      <trkpt lat="44.15382" lon="6.73182">
        <ele>1605</ele>
        <time>2016-03-30T12:19:18Z</time>
      </trkpt>
      <trkpt lat="44.15393" lon="6.73167">
        <ele>1604</ele>
        <time>2016-03-30T12:21:18Z</time>
      </trkpt>
      <trkpt lat="44.154" lon="6.7316">
        <ele>1604</ele>
        <time>2016-03-30T12:23:18Z</time>
      </trkpt>
      <trkpt lat="44.15405" lon="6.73156">
        <ele>1604</ele>
        <time>2016-03-30T12:25:18Z</time>
      </trkpt>
      <trkpt lat="44.15411" lon="6.73153">
        <ele>1604</ele>
        <time>2016-03-30T12:27:18Z</time>
      </trkpt>
      <trkpt lat="44.15416" lon="6.7315">
        <ele>1604</ele>
        <time>2016-03-30T12:29:18Z</time>
      </trkpt>
      <trkpt lat="44.15433" lon="6.73145">
        <ele>1603</ele>
        <time>2016-03-30T12:31:18Z</time>
      </trkpt>
      <trkpt lat="44.1545" lon="6.7314">
        <ele>1602</ele>
        <time>2016-03-30T12:33:18Z</time>
      </trkpt>
      <trkpt lat="44.15467" lon="6.73136">
        <ele>1602</ele>
        <time>2016-03-30T12:35:18Z</time>
      </trkpt>
      <trkpt lat="44.15472" lon="6.73133">
        <ele>1602</ele>
        <time>2016-03-30T12:37:18Z</time>
      </trkpt>
      <trkpt lat="44.15477" lon="6.73131">
        <ele>1602</ele>
        <time>2016-03-30T12:39:18Z</time>
      </trkpt>
      <trkpt lat="44.15482" lon="6.73127">
        <ele>1602</ele>
        <time>2016-03-30T12:41:18Z</time>
      </trkpt>
      <trkpt lat="44.15487" lon="6.73122">
        <ele>1603</ele>
        <time>2016-03-30T12:43:18Z</time>
      </trkpt>
      <trkpt lat="44.15497" lon="6.73113">
        <ele>1604</ele>
        <time>2016-03-30T12:45:18Z</time>
      </trkpt>
      <trkpt lat="44.15507" lon="6.73106">
        <ele>1605</ele>
        <time>2016-03-30T12:47:18Z</time>
      </trkpt>
      <trkpt lat="44.15518" lon="6.731">
        <ele>1607</ele>
        <time>2016-03-30T12:49:18Z</time>
      </trkpt>
      <trkpt lat="44.15527" lon="6.73097">
        <ele>1608</ele>
        <time>2016-03-30T12:51:18Z</time>
      </trkpt>
      <trkpt lat="44.15534" lon="6.73096">
        <ele>1608</ele>
        <time>2016-03-30T12:53:18Z</time>
      </trkpt>
      <trkpt lat="44.15542" lon="6.73096">
        <ele>1609</ele>
        <time>2016-03-30T12:55:18Z</time>
      </trkpt>
      <trkpt lat="44.15554" lon="6.73099">
        <ele>1608</ele>
        <time>2016-03-30T12:57:18Z</time>
      </trkpt>
      <trkpt lat="44.15566" lon="6.73103">
        <ele>1608</ele>
        <time>2016-03-30T12:59:18Z</time>
      </trkpt>
      <trkpt lat="44.15575" lon="6.73107">
        <ele>1607</ele>
        <time>2016-03-30T13:01:18Z</time>
      </trkpt>
      <trkpt lat="44.15597" lon="6.73104">
        <ele>1608</ele>
        <time>2016-03-30T13:03:18Z</time>
      </trkpt>
      <trkpt lat="44.15616" lon="6.73098">
        <ele>1610</ele>
        <time>2016-03-30T13:05:18Z</time>
      </trkpt>
      <trkpt lat="44.15635" lon="6.73091">
        <ele>1613</ele>
        <time>2016-03-30T13:07:18Z</time>
      </trkpt>
      <trkpt lat="44.15648" lon="6.73086">
        <ele>1615</ele>
        <time>2016-03-30T13:09:18Z</time>
      </trkpt>
      <trkpt lat="44.15667" lon="6.73079">
        <ele>1618</ele>
        <time>2016-03-30T13:11:18Z</time>
      </trkpt>
      <trkpt lat="44.15675" lon="6.73075">
        <ele>1618</ele>
        <time>2016-03-30T13:13:18Z</time>
      </trkpt>
      <trkpt lat="44.157" lon="6.73067">
        <ele>1619</ele>
        <time>2016-03-30T13:15:18Z</time>
      </trkpt>
      <trkpt lat="44.15715" lon="6.73065">
        <ele>1618</ele>
        <time>2016-03-30T13:17:18Z</time>
      </trkpt>
      <trkpt lat="44.15722" lon="6.73064">
        <ele>1618</ele>
        <time>2016-03-30T13:19:18Z</time>
      </trkpt>
      <trkpt lat="44.15728" lon="6.73063">
        <ele>1618</ele>
        <time>2016-03-30T13:21:18Z</time>
      </trkpt>
      <trkpt lat="44.15728" lon="6.73063">
        <ele>1618</ele>
        <time>2016-03-30T13:23:18Z</time>
      </trkpt>
      <trkpt lat="44.15728" lon="6.7306">
        <ele>1618</ele>
        <time>2016-03-30T13:25:18Z</time>
      </trkpt>
      <trkpt lat="44.15728" lon="6.73057">
        <ele>1619</ele>
        <time>2016-03-30T13:27:18Z</time>
      </trkpt>
      <trkpt lat="44.15727" lon="6.73055">
        <ele>1620</ele>
        <time>2016-03-30T13:29:18Z</time>
      </trkpt>
      <trkpt lat="44.15725" lon="6.73052">
        <ele>1621</ele>
        <time>2016-03-30T13:31:18Z</time>
      </trkpt>
      <trkpt lat="44.15723" lon="6.73051">
        <ele>1621</ele>
        <time>2016-03-30T13:33:18Z</time>
      </trkpt>
      <trkpt lat="44.1572" lon="6.73051">
        <ele>1622</ele>
        <time>2016-03-30T13:35:18Z</time>
      </trkpt>
      <trkpt lat="44.15717" lon="6.7305">
        <ele>1622</ele>
        <time>2016-03-30T13:37:18Z</time>
      </trkpt>
      <trkpt lat="44.1571" lon="6.73049">
        <ele>1623</ele>
        <time>2016-03-30T13:39:18Z</time>
      </trkpt>
      <trkpt lat="44.15697" lon="6.7305">
        <ele>1625</ele>
        <time>2016-03-30T13:41:18Z</time>
      </trkpt>
      <trkpt lat="44.15687" lon="6.73052">
        <ele>1625</ele>
        <time>2016-03-30T13:43:18Z</time>
      </trkpt>
      <trkpt lat="44.15677" lon="6.73053">
        <ele>1626</ele>
        <time>2016-03-30T13:45:18Z</time>
      </trkpt>
      <trkpt lat="44.15666" lon="6.73055">
        <ele>1627</ele>
        <time>2016-03-30T13:47:18Z</time>
      </trkpt>
      <trkpt lat="44.15659" lon="6.73055">
        <ele>1627</ele>
        <time>2016-03-30T13:49:18Z</time>
      </trkpt>
      <trkpt lat="44.15653" lon="6.73056">
        <ele>1626</ele>
        <time>2016-03-30T13:51:18Z</time>
      </trkpt>
      <trkpt lat="44.15646" lon="6.73056">
        <ele>1626</ele>
        <time>2016-03-30T13:53:18Z</time>
      </trkpt>
      <trkpt lat="44.15639" lon="6.73057">
        <ele>1626</ele>
        <time>2016-03-30T13:55:18Z</time>
      </trkpt>
      <trkpt lat="44.15619" lon="6.73056">
        <ele>1626</ele>
        <time>2016-03-30T13:57:18Z</time>
      </trkpt>
      <trkpt lat="44.15605" lon="6.73054">
        <ele>1627</ele>
        <time>2016-03-30T13:59:18Z</time>
      </trkpt>
      <trkpt lat="44.15592" lon="6.73052">
        <ele>1628</ele>
        <time>2016-03-30T14:01:18Z</time>
      </trkpt>
      <trkpt lat="44.15586" lon="6.73051">
        <ele>1629</ele>
        <time>2016-03-30T14:03:18Z</time>
      </trkpt>
      <trkpt lat="44.1558" lon="6.73049">
        <ele>1629</ele>
        <time>2016-03-30T14:05:18Z</time>
      </trkpt>
      <trkpt lat="44.15574" lon="6.73047">
        <ele>1630</ele>
        <time>2016-03-30T14:07:18Z</time>
      </trkpt>
      <trkpt lat="44.15569" lon="6.73045">
        <ele>1630</ele>
        <time>2016-03-30T14:09:18Z</time>
      </trkpt>
      <trkpt lat="44.15564" lon="6.73042">
        <ele>1631</ele>
        <time>2016-03-30T14:11:18Z</time>
      </trkpt>
      <trkpt lat="44.1556" lon="6.7304">
        <ele>1631</ele>
        <time>2016-03-30T14:13:18Z</time>
      </trkpt>
      <trkpt lat="44.15558" lon="6.73037">
        <ele>1632</ele>
        <time>2016-03-30T14:15:18Z</time>
      </trkpt>
      <trkpt lat="44.15556" lon="6.73034">
        <ele>1633</ele>
        <time>2016-03-30T14:17:18Z</time>
      </trkpt>
      <trkpt lat="44.15556" lon="6.73031">
        <ele>1635</ele>
        <time>2016-03-30T14:19:18Z</time>
      </trkpt>
      <trkpt lat="44.15556" lon="6.73029">
        <ele>1636</ele>
        <time>2016-03-30T14:21:18Z</time>
      </trkpt>
      <trkpt lat="44.15558" lon="6.73027">
        <ele>1637</ele>
        <time>2016-03-30T14:23:18Z</time>
      </trkpt>
      <trkpt lat="44.1556" lon="6.73025">
        <ele>1638</ele>
        <time>2016-03-30T14:25:18Z</time>
      </trkpt>
      <trkpt lat="44.15562" lon="6.73025">
        <ele>1638</ele>
        <time>2016-03-30T14:27:18Z</time>
      </trkpt>
      <trkpt lat="44.15567" lon="6.73027">
        <ele>1638</ele>
        <time>2016-03-30T14:29:18Z</time>
      </trkpt>
      <trkpt lat="44.1557" lon="6.73029">
        <ele>1637</ele>
        <time>2016-03-30T14:31:18Z</time>
      </trkpt>
      <trkpt lat="44.15577" lon="6.73031">
        <ele>1637</ele>
        <time>2016-03-30T14:33:18Z</time>
      </trkpt>
      <trkpt lat="44.15589" lon="6.73033">
        <ele>1637</ele>
        <time>2016-03-30T14:35:18Z</time>
      </trkpt>
      <trkpt lat="44.15597" lon="6.73033">
        <ele>1637</ele>
        <time>2016-03-30T14:37:18Z</time>
      </trkpt>
      <trkpt lat="44.15608" lon="6.73032">
        <ele>1637</ele>
        <time>2016-03-30T14:39:18Z</time>
      </trkpt>
      <trkpt lat="44.15613" lon="6.73031">
        <ele>1637</ele>
        <time>2016-03-30T14:41:18Z</time>
      </trkpt>
      <trkpt lat="44.15631" lon="6.73028">
        <ele>1638</ele>
        <time>2016-03-30T14:43:18Z</time>
      </trkpt>
      <trkpt lat="44.15643" lon="6.73024">
        <ele>1639</ele>
        <time>2016-03-30T14:45:18Z</time>
      </trkpt>
      <trkpt lat="44.15649" lon="6.73022">
        <ele>1639</ele>
        <time>2016-03-30T14:47:18Z</time>
      </trkpt>
      <trkpt lat="44.15654" lon="6.73019">
        <ele>1640</ele>
        <time>2016-03-30T14:49:18Z</time>
      </trkpt>
      <trkpt lat="44.15659" lon="6.73017">
        <ele>1641</ele>
        <time>2016-03-30T14:51:18Z</time>
      </trkpt>
      <trkpt lat="44.15663" lon="6.73013">
        <ele>1642</ele>
        <time>2016-03-30T14:53:18Z</time>
      </trkpt>
      <trkpt lat="44.15667" lon="6.73009">
        <ele>1644</ele>
        <time>2016-03-30T14:55:18Z</time>
      </trkpt>
      <trkpt lat="44.15669" lon="6.73004">
        <ele>1645</ele>
        <time>2016-03-30T14:57:18Z</time>
      </trkpt>
      <trkpt lat="44.15671" lon="6.72998">
        <ele>1646</ele>
        <time>2016-03-30T14:59:18Z</time>
      </trkpt>
      <trkpt lat="44.15672" lon="6.72985">
        <ele>1649</ele>
        <time>2016-03-30T15:01:18Z</time>
      </trkpt>
      <trkpt lat="44.15672" lon="6.72974">
        <ele>1651</ele>
        <time>2016-03-30T15:03:18Z</time>
      </trkpt>
      <trkpt lat="44.15672" lon="6.72967">
        <ele>1653</ele>
        <time>2016-03-30T15:05:18Z</time>
      </trkpt>
      <trkpt lat="44.15674" lon="6.72953">
        <ele>1656</ele>
        <time>2016-03-30T15:07:18Z</time>
      </trkpt>
      <trkpt lat="44.15675" lon="6.72939">
        <ele>1658</ele>
        <time>2016-03-30T15:09:18Z</time>
      </trkpt>
      <trkpt lat="44.15677" lon="6.72924">
        <ele>1661</ele>
        <time>2016-03-30T15:11:18Z</time>
      </trkpt>
      <trkpt lat="44.15678" lon="6.72916">
        <ele>1663</ele>
        <time>2016-03-30T15:13:18Z</time>
      </trkpt>
      <trkpt lat="44.15679" lon="6.72908">
        <ele>1664</ele>
        <time>2016-03-30T15:15:18Z</time>
      </trkpt>
      <trkpt lat="44.15681" lon="6.72901">
        <ele>1665</ele>
        <time>2016-03-30T15:17:18Z</time>
      </trkpt>
      <trkpt lat="44.15682" lon="6.72893">
        <ele>1667</ele>
        <time>2016-03-30T15:19:18Z</time>
      </trkpt>
      <trkpt lat="44.15683" lon="6.72886">
        <ele>1668</ele>
        <time>2016-03-30T15:21:18Z</time>
      </trkpt>
      <trkpt lat="44.15684" lon="6.72879">
        <ele>1670</ele>
        <time>2016-03-30T15:23:18Z</time>
      </trkpt>
      <trkpt lat="44.15686" lon="6.72873">
        <ele>1671</ele>
        <time>2016-03-30T15:25:18Z</time>
      </trkpt>
      <trkpt lat="44.15687" lon="6.72868">
        <ele>1672</ele>
        <time>2016-03-30T15:27:18Z</time>
      </trkpt>
      <trkpt lat="44.15689" lon="6.72863">
        <ele>1672</ele>
        <time>2016-03-30T15:29:18Z</time>
      </trkpt>
      <trkpt lat="44.1569" lon="6.72859">
        <ele>1673</ele>
        <time>2016-03-30T15:31:18Z</time>
      </trkpt>
      <trkpt lat="44.1569" lon="6.72855">
        <ele>1674</ele>
        <time>2016-03-30T15:33:18Z</time>
      </trkpt>
      <trkpt lat="44.1569" lon="6.72851">
        <ele>1675</ele>
        <time>2016-03-30T15:35:18Z</time>
      </trkpt>
      <trkpt lat="44.15688" lon="6.72849">
        <ele>1676</ele>
        <time>2016-03-30T15:37:18Z</time>
      </trkpt>
      <trkpt lat="44.15686" lon="6.72847">
        <ele>1677</ele>
        <time>2016-03-30T15:39:18Z</time>
      </trkpt>
      <trkpt lat="44.15683" lon="6.72847">
        <ele>1677</ele>
        <time>2016-03-30T15:41:18Z</time>
      </trkpt>
      <trkpt lat="44.15681" lon="6.72849">
        <ele>1677</ele>
        <time>2016-03-30T15:43:18Z</time>
      </trkpt>
      <trkpt lat="44.15679" lon="6.72852">
        <ele>1677</ele>
        <time>2016-03-30T15:45:18Z</time>
      </trkpt>
      <trkpt lat="44.15678" lon="6.72856">
        <ele>1676</ele>
        <time>2016-03-30T15:47:18Z</time>
      </trkpt>
      <trkpt lat="44.15676" lon="6.72861">
        <ele>1675</ele>
        <time>2016-03-30T15:49:18Z</time>
      </trkpt>
      <trkpt lat="44.15672" lon="6.72879">
        <ele>1672</ele>
        <time>2016-03-30T15:51:18Z</time>
      </trkpt>
      <trkpt lat="44.15668" lon="6.72894">
        <ele>1670</ele>
        <time>2016-03-30T15:53:18Z</time>
      </trkpt>
      <trkpt lat="44.15666" lon="6.72903">
        <ele>1668</ele>
        <time>2016-03-30T15:55:18Z</time>
      </trkpt>
      <trkpt lat="44.15659" lon="6.72927">
        <ele>1664</ele>
        <time>2016-03-30T15:57:18Z</time>
      </trkpt>
      <trkpt lat="44.15657" lon="6.72936">
        <ele>1663</ele>
        <time>2016-03-30T15:59:18Z</time>
      </trkpt>
      <trkpt lat="44.15656" lon="6.72942">
        <ele>1661</ele>
        <time>2016-03-30T16:01:18Z</time>
      </trkpt>
      <trkpt lat="44.15654" lon="6.72949">
        <ele>1660</ele>
        <time>2016-03-30T16:03:18Z</time>
      </trkpt>
      <trkpt lat="44.15654" lon="6.72954">
        <ele>1659</ele>
        <time>2016-03-30T16:05:18Z</time>
      </trkpt>
      <trkpt lat="44.15653" lon="6.72959">
        <ele>1658</ele>
        <time>2016-03-30T16:07:18Z</time>
      </trkpt>
      <trkpt lat="44.15652" lon="6.72963">
        <ele>1657</ele>
        <time>2016-03-30T16:09:18Z</time>
      </trkpt>
      <trkpt lat="44.15651" lon="6.72967">
        <ele>1656</ele>
        <time>2016-03-30T16:11:18Z</time>
      </trkpt>
      <trkpt lat="44.15649" lon="6.72969">
        <ele>1656</ele>
        <time>2016-03-30T16:13:18Z</time>
      </trkpt>
      <trkpt lat="44.15648" lon="6.7297">
        <ele>1656</ele>
        <time>2016-03-30T16:15:18Z</time>
      </trkpt>
      <trkpt lat="44.15646" lon="6.7297">
        <ele>1656</ele>
        <time>2016-03-30T16:17:18Z</time>
      </trkpt>
      <trkpt lat="44.15644" lon="6.72968">
        <ele>1657</ele>
        <time>2016-03-30T16:19:18Z</time>
      </trkpt>
      <trkpt lat="44.15642" lon="6.72966">
        <ele>1657</ele>
        <time>2016-03-30T16:21:18Z</time>
      </trkpt>
      <trkpt lat="44.15642" lon="6.72962">
        <ele>1658</ele>
        <time>2016-03-30T16:23:18Z</time>
      </trkpt>
      <trkpt lat="44.15642" lon="6.72959">
        <ele>1659</ele>
        <time>2016-03-30T16:25:18Z</time>
      </trkpt>
      <trkpt lat="44.15645" lon="6.72942">
        <ele>1663</ele>
        <time>2016-03-30T16:27:18Z</time>
      </trkpt>
      <trkpt lat="44.15647" lon="6.72926">
        <ele>1667</ele>
        <time>2016-03-30T16:29:18Z</time>
      </trkpt>
      <trkpt lat="44.15649" lon="6.72914">
        <ele>1669</ele>
        <time>2016-03-30T16:31:18Z</time>
      </trkpt>
      <trkpt lat="44.1565" lon="6.72901">
        <ele>1672</ele>
        <time>2016-03-30T16:33:18Z</time>
      </trkpt>
      <trkpt lat="44.15652" lon="6.72879">
        <ele>1676</ele>
        <time>2016-03-30T16:35:18Z</time>
      </trkpt>
      <trkpt lat="44.15654" lon="6.72844">
        <ele>1683</ele>
        <time>2016-03-30T16:37:18Z</time>
      </trkpt>
      <trkpt lat="44.15655" lon="6.72834">
        <ele>1685</ele>
        <time>2016-03-30T16:39:18Z</time>
      </trkpt>
      <trkpt lat="44.15659" lon="6.72804">
        <ele>1688</ele>
        <time>2016-03-30T16:41:18Z</time>
      </trkpt>
      <trkpt lat="44.15661" lon="6.72784">
        <ele>1690</ele>
        <time>2016-03-30T16:43:18Z</time>
      </trkpt>
      <trkpt lat="44.15668" lon="6.72716">
        <ele>1698</ele>
        <time>2016-03-30T16:45:18Z</time>
      </trkpt>
      <trkpt lat="44.15669" lon="6.72708">
        <ele>1698</ele>
        <time>2016-03-30T16:47:18Z</time>
      </trkpt>
      <trkpt lat="44.15671" lon="6.727">
        <ele>1699</ele>
        <time>2016-03-30T16:49:18Z</time>
      </trkpt>
      <trkpt lat="44.15673" lon="6.72694">
        <ele>1700</ele>
        <time>2016-03-30T16:51:18Z</time>
      </trkpt>
      <trkpt lat="44.15675" lon="6.72689">
        <ele>1701</ele>
        <time>2016-03-30T16:53:18Z</time>
      </trkpt>
      <trkpt lat="44.15677" lon="6.72685">
        <ele>1701</ele>
        <time>2016-03-30T16:55:18Z</time>
      </trkpt>
      <trkpt lat="44.15681" lon="6.72681">
        <ele>1702</ele>
        <time>2016-03-30T16:57:18Z</time>
      </trkpt>
      <trkpt lat="44.15685" lon="6.72679">
        <ele>1702</ele>
        <time>2016-03-30T16:59:18Z</time>
      </trkpt>
      <trkpt lat="44.15689" lon="6.72678">
        <ele>1703</ele>
        <time>2016-03-30T17:01:18Z</time>
      </trkpt>
      <trkpt lat="44.15696" lon="6.72678">
        <ele>1703</ele>
        <time>2016-03-30T17:03:18Z</time>
      </trkpt>
      <trkpt lat="44.15708" lon="6.72683">
        <ele>1702</ele>
        <time>2016-03-30T17:05:18Z</time>
      </trkpt>
      <trkpt lat="44.15729" lon="6.72695">
        <ele>1700</ele>
        <time>2016-03-30T17:07:18Z</time>
      </trkpt>
      <trkpt lat="44.15743" lon="6.72703">
        <ele>1697</ele>
        <time>2016-03-30T17:09:18Z</time>
      </trkpt>
      <trkpt lat="44.15758" lon="6.72712">
        <ele>1697</ele>
        <time>2016-03-30T17:11:18Z</time>
      </trkpt>
      <trkpt lat="44.15769" lon="6.72719">
        <ele>1698</ele>
        <time>2016-03-30T17:13:18Z</time>
      </trkpt>
      <trkpt lat="44.15781" lon="6.72728">
        <ele>1700</ele>
        <time>2016-03-30T17:15:18Z</time>
      </trkpt>
      <trkpt lat="44.15791" lon="6.72738">
        <ele>1700</ele>
        <time>2016-03-30T17:17:18Z</time>
      </trkpt>
      <trkpt lat="44.15796" lon="6.72743">
        <ele>1700</ele>
        <time>2016-03-30T17:19:18Z</time>
      </trkpt>
      <trkpt lat="44.158" lon="6.7275">
        <ele>1699</ele>
        <time>2016-03-30T17:21:18Z</time>
      </trkpt>
      <trkpt lat="44.15805" lon="6.72756">
        <ele>1699</ele>
        <time>2016-03-30T17:23:18Z</time>
      </trkpt>
      <trkpt lat="44.15808" lon="6.72763">
        <ele>1699</ele>
        <time>2016-03-30T17:25:18Z</time>
      </trkpt>
      <trkpt lat="44.15815" lon="6.72776">
        <ele>1698</ele>
        <time>2016-03-30T17:27:18Z</time>
      </trkpt>
      <trkpt lat="44.1582" lon="6.72786">
        <ele>1698</ele>
        <time>2016-03-30T17:29:18Z</time>
      </trkpt>
      <trkpt lat="44.15825" lon="6.72795">
        <ele>1697</ele>
        <time>2016-03-30T17:31:18Z</time>
      </trkpt>
      <trkpt lat="44.15828" lon="6.72797">
        <ele>1698</ele>
        <time>2016-03-30T17:33:18Z</time>
      </trkpt>
      <trkpt lat="44.1583" lon="6.72798">
        <ele>1698</ele>
        <time>2016-03-30T17:35:18Z</time>
      </trkpt>
      <trkpt lat="44.15834" lon="6.72798">
        <ele>1699</ele>
        <time>2016-03-30T17:37:18Z</time>
      </trkpt>
      <trkpt lat="44.15836" lon="6.72797">
        <ele>1700</ele>
        <time>2016-03-30T17:39:18Z</time>
      </trkpt>
      <trkpt lat="44.15838" lon="6.72795">
        <ele>1700</ele>
        <time>2016-03-30T17:41:18Z</time>
      </trkpt>
      <trkpt lat="44.15839" lon="6.72791">
        <ele>1701</ele>
        <time>2016-03-30T17:43:18Z</time>
      </trkpt>
      <trkpt lat="44.15839" lon="6.72786">
        <ele>1702</ele>
        <time>2016-03-30T17:45:18Z</time>
      </trkpt>
      <trkpt lat="44.15835" lon="6.72778">
        <ele>1704</ele>
        <time>2016-03-30T17:47:18Z</time>
      </trkpt>
      <trkpt lat="44.15831" lon="6.7277">
        <ele>1705</ele>
        <time>2016-03-30T17:49:18Z</time>
      </trkpt>
      <trkpt lat="44.15821" lon="6.7275">
        <ele>1706</ele>
        <time>2016-03-30T17:51:18Z</time>
      </trkpt>
      <trkpt lat="44.15813" lon="6.72731">
        <ele>1709</ele>
        <time>2016-03-30T17:53:18Z</time>
      </trkpt>
      <trkpt lat="44.15804" lon="6.7271">
        <ele>1713</ele>
        <time>2016-03-30T17:55:18Z</time>
      </trkpt>
      <trkpt lat="44.15795" lon="6.72696">
        <ele>1715</ele>
        <time>2016-03-30T17:57:18Z</time>
      </trkpt>
      <trkpt lat="44.15785" lon="6.72682">
        <ele>1716</ele>
        <time>2016-03-30T17:59:18Z</time>
      </trkpt>
      <trkpt lat="44.15775" lon="6.72668">
        <ele>1717</ele>
        <time>2016-03-30T18:01:18Z</time>
      </trkpt>
      <trkpt lat="44.15751" lon="6.72636">
        <ele>1719</ele>
        <time>2016-03-30T18:03:18Z</time>
      </trkpt>
      <trkpt lat="44.15717" lon="6.7258">
        <ele>1731</ele>
        <time>2016-03-30T18:05:18Z</time>
      </trkpt>
      <trkpt lat="44.15699" lon="6.72553">
        <ele>1734</ele>
        <time>2016-03-30T18:07:18Z</time>
      </trkpt>
      <trkpt lat="44.15662" lon="6.72489">
        <ele>1740</ele>
        <time>2016-03-30T18:09:18Z</time>
      </trkpt>
      <trkpt lat="44.15652" lon="6.72477">
        <ele>1742</ele>
        <time>2016-03-30T18:11:18Z</time>
      </trkpt>
      <trkpt lat="44.15644" lon="6.72469">
        <ele>1744</ele>
        <time>2016-03-30T18:13:18Z</time>
      </trkpt>
      <trkpt lat="44.15641" lon="6.72466">
        <ele>1745</ele>
        <time>2016-03-30T18:15:18Z</time>
      </trkpt>
      <trkpt lat="44.15639" lon="6.72464">
        <ele>1745</ele>
        <time>2016-03-30T18:17:18Z</time>
      </trkpt>
      <trkpt lat="44.15638" lon="6.72461">
        <ele>1745</ele>
        <time>2016-03-30T18:19:18Z</time>
      </trkpt>
      <trkpt lat="44.15638" lon="6.72459">
        <ele>1746</ele>
        <time>2016-03-30T18:21:18Z</time>
      </trkpt>
      <trkpt lat="44.15641" lon="6.72453">
        <ele>1747</ele>
        <time>2016-03-30T18:23:18Z</time>
      </trkpt>
      <trkpt lat="44.15641" lon="6.72452">
        <ele>1747</ele>
        <time>2016-03-30T18:25:18Z</time>
      </trkpt>
      <trkpt lat="44.15642" lon="6.72451">
        <ele>1747</ele>
        <time>2016-03-30T18:27:18Z</time>
      </trkpt>
      <trkpt lat="44.15644" lon="6.72451">
        <ele>1747</ele>
        <time>2016-03-30T18:29:18Z</time>
      </trkpt>
      <trkpt lat="44.15646" lon="6.72451">
        <ele>1747</ele>
        <time>2016-03-30T18:31:18Z</time>
      </trkpt>
      <trkpt lat="44.15649" lon="6.72452">
        <ele>1747</ele>
        <time>2016-03-30T18:33:18Z</time>
      </trkpt>
      <trkpt lat="44.15652" lon="6.72453">
        <ele>1747</ele>
        <time>2016-03-30T18:35:18Z</time>
      </trkpt>
      <trkpt lat="44.15655" lon="6.72455">
        <ele>1747</ele>
        <time>2016-03-30T18:37:18Z</time>
      </trkpt>
      <trkpt lat="44.15657" lon="6.72458">
        <ele>1746</ele>
        <time>2016-03-30T18:39:18Z</time>
      </trkpt>
      <trkpt lat="44.15663" lon="6.72464">
        <ele>1745</ele>
        <time>2016-03-30T18:41:18Z</time>
      </trkpt>
      <trkpt lat="44.1567" lon="6.7247">
        <ele>1745</ele>
        <time>2016-03-30T18:43:18Z</time>
      </trkpt>
      <trkpt lat="44.15677" lon="6.72478">
        <ele>1745</ele>
        <time>2016-03-30T18:45:18Z</time>
      </trkpt>
      <trkpt lat="44.15685" lon="6.72486">
        <ele>1746</ele>
        <time>2016-03-30T18:47:18Z</time>
      </trkpt>
      <trkpt lat="44.15702" lon="6.72505">
        <ele>1747</ele>
        <time>2016-03-30T18:49:18Z</time>
      </trkpt>
      <trkpt lat="44.15717" lon="6.7252">
        <ele>1748</ele>
        <time>2016-03-30T18:51:18Z</time>
      </trkpt>
      <trkpt lat="44.15743" lon="6.72547">
        <ele>1746</ele>
        <time>2016-03-30T18:53:18Z</time>
      </trkpt>
      <trkpt lat="44.15754" lon="6.72558">
        <ele>1746</ele>
        <time>2016-03-30T18:55:18Z</time>
      </trkpt>
      <trkpt lat="44.15775" lon="6.72581">
        <ele>1744</ele>
        <time>2016-03-30T18:57:18Z</time>
      </trkpt>
      <trkpt lat="44.15787" lon="6.72591">
        <ele>1744</ele>
        <time>2016-03-30T18:59:18Z</time>
      </trkpt>
      <trkpt lat="44.15794" lon="6.72596">
        <ele>1744</ele>
        <time>2016-03-30T19:01:18Z</time>
      </trkpt>
      <trkpt lat="44.15801" lon="6.72599">
        <ele>1746</ele>
        <time>2016-03-30T19:03:18Z</time>
      </trkpt>
      <trkpt lat="44.15807" lon="6.72603">
        <ele>1746</ele>
        <time>2016-03-30T19:05:18Z</time>
      </trkpt>
      <trkpt lat="44.15813" lon="6.72606">
        <ele>1747</ele>
        <time>2016-03-30T19:07:18Z</time>
      </trkpt>
      <trkpt lat="44.15819" lon="6.7261">
        <ele>1748</ele>
        <time>2016-03-30T19:09:18Z</time>
      </trkpt>
      <trkpt lat="44.15829" lon="6.72619">
        <ele>1748</ele>
        <time>2016-03-30T19:11:18Z</time>
      </trkpt>
      <trkpt lat="44.15834" lon="6.72624">
        <ele>1748</ele>
        <time>2016-03-30T19:13:18Z</time>
      </trkpt>
      <trkpt lat="44.15839" lon="6.72629">
        <ele>1747</ele>
        <time>2016-03-30T19:15:18Z</time>
      </trkpt>
      <trkpt lat="44.15843" lon="6.72633">
        <ele>1745</ele>
        <time>2016-03-30T19:17:18Z</time>
      </trkpt>
      <trkpt lat="44.15848" lon="6.72637">
        <ele>1744</ele>
        <time>2016-03-30T19:19:18Z</time>
      </trkpt>
      <trkpt lat="44.15853" lon="6.72639">
        <ele>1744</ele>
        <time>2016-03-30T19:21:18Z</time>
      </trkpt>
      <trkpt lat="44.15855" lon="6.7264">
        <ele>1743</ele>
        <time>2016-03-30T19:23:18Z</time>
      </trkpt>
      <trkpt lat="44.15858" lon="6.72639">
        <ele>1744</ele>
        <time>2016-03-30T19:25:18Z</time>
      </trkpt>
      <trkpt lat="44.15861" lon="6.72639">
        <ele>1743</ele>
        <time>2016-03-30T19:27:18Z</time>
      </trkpt>
      <trkpt lat="44.15864" lon="6.72637">
        <ele>1744</ele>
        <time>2016-03-30T19:29:18Z</time>
      </trkpt>
      <trkpt lat="44.15866" lon="6.72635">
        <ele>1744</ele>
        <time>2016-03-30T19:31:18Z</time>
      </trkpt>
      <trkpt lat="44.15869" lon="6.7263">
        <ele>1745</ele>
        <time>2016-03-30T19:33:18Z</time>
      </trkpt>
      <trkpt lat="44.15872" lon="6.72625">
        <ele>1746</ele>
        <time>2016-03-30T19:35:18Z</time>
      </trkpt>
      <trkpt lat="44.15882" lon="6.72607">
        <ele>1748</ele>
        <time>2016-03-30T19:37:18Z</time>
      </trkpt>
      <trkpt lat="44.15884" lon="6.726">
        <ele>1749</ele>
        <time>2016-03-30T19:39:18Z</time>
      </trkpt>
      <trkpt lat="44.15886" lon="6.72593">
        <ele>1750</ele>
        <time>2016-03-30T19:41:18Z</time>
      </trkpt>
      <trkpt lat="44.15888" lon="6.72586">
        <ele>1751</ele>
        <time>2016-03-30T19:43:18Z</time>
      </trkpt>
      <trkpt lat="44.15889" lon="6.72578">
        <ele>1752</ele>
        <time>2016-03-30T19:45:18Z</time>
      </trkpt>
      <trkpt lat="44.1589" lon="6.7257">
        <ele>1752</ele>
        <time>2016-03-30T19:47:18Z</time>
      </trkpt>
      <trkpt lat="44.1589" lon="6.72562">
        <ele>1753</ele>
        <time>2016-03-30T19:49:18Z</time>
      </trkpt>
      <trkpt lat="44.1589" lon="6.72554">
        <ele>1754</ele>
        <time>2016-03-30T19:51:18Z</time>
      </trkpt>
      <trkpt lat="44.15889" lon="6.72545">
        <ele>1755</ele>
        <time>2016-03-30T19:53:18Z</time>
      </trkpt>
      <trkpt lat="44.15889" lon="6.72537">
        <ele>1756</ele>
        <time>2016-03-30T19:55:18Z</time>
      </trkpt>
      <trkpt lat="44.15888" lon="6.72528">
        <ele>1757</ele>
        <time>2016-03-30T19:57:18Z</time>
      </trkpt>
      <trkpt lat="44.15887" lon="6.7252">
        <ele>1758</ele>
        <time>2016-03-30T19:59:18Z</time>
      </trkpt>
      <trkpt lat="44.15886" lon="6.72511">
        <ele>1760</ele>
        <time>2016-03-30T20:01:18Z</time>
      </trkpt>
      <trkpt lat="44.15884" lon="6.72503">
        <ele>1761</ele>
        <time>2016-03-30T20:03:18Z</time>
      </trkpt>
      <trkpt lat="44.15884" lon="6.72494">
        <ele>1762</ele>
        <time>2016-03-30T20:05:18Z</time>
      </trkpt>
      <trkpt lat="44.15882" lon="6.72485">
        <ele>1764</ele>
        <time>2016-03-30T20:07:18Z</time>
      </trkpt>
      <trkpt lat="44.15881" lon="6.72477">
        <ele>1765</ele>
        <time>2016-03-30T20:09:18Z</time>
      </trkpt>
      <trkpt lat="44.1588" lon="6.72467">
        <ele>1766</ele>
        <time>2016-03-30T20:11:18Z</time>
      </trkpt>
      <trkpt lat="44.15878" lon="6.72458">
        <ele>1767</ele>
        <time>2016-03-30T20:13:18Z</time>
      </trkpt>
      <trkpt lat="44.15877" lon="6.7245">
        <ele>1768</ele>
        <time>2016-03-30T20:15:18Z</time>
      </trkpt>
      <trkpt lat="44.15876" lon="6.72441">
        <ele>1770</ele>
        <time>2016-03-30T20:17:18Z</time>
      </trkpt>
      <trkpt lat="44.15875" lon="6.72431">
        <ele>1771</ele>
        <time>2016-03-30T20:19:18Z</time>
      </trkpt>
      <trkpt lat="44.15874" lon="6.72421">
        <ele>1772</ele>
        <time>2016-03-30T20:21:18Z</time>
      </trkpt>
      <trkpt lat="44.15872" lon="6.72412">
        <ele>1774</ele>
        <time>2016-03-30T20:23:18Z</time>
      </trkpt>
      <trkpt lat="44.15871" lon="6.72403">
        <ele>1775</ele>
        <time>2016-03-30T20:25:18Z</time>
      </trkpt>
      <trkpt lat="44.1587" lon="6.72393">
        <ele>1777</ele>
        <time>2016-03-30T20:27:18Z</time>
      </trkpt>
      <trkpt lat="44.1587" lon="6.72383">
        <ele>1778</ele>
        <time>2016-03-30T20:29:18Z</time>
      </trkpt>
      <trkpt lat="44.15869" lon="6.72373">
        <ele>1779</ele>
        <time>2016-03-30T20:31:18Z</time>
      </trkpt>
      <trkpt lat="44.15869" lon="6.72363">
        <ele>1780</ele>
        <time>2016-03-30T20:33:18Z</time>
      </trkpt>
      <trkpt lat="44.15869" lon="6.72353">
        <ele>1781</ele>
        <time>2016-03-30T20:35:18Z</time>
      </trkpt>
      <trkpt lat="44.15869" lon="6.72342">
        <ele>1782</ele>
        <time>2016-03-30T20:37:18Z</time>
      </trkpt>
      <trkpt lat="44.1587" lon="6.72331">
        <ele>1782</ele>
        <time>2016-03-30T20:39:18Z</time>
      </trkpt>
      <trkpt lat="44.15871" lon="6.72321">
        <ele>1782</ele>
        <time>2016-03-30T20:41:18Z</time>
      </trkpt>
      <trkpt lat="44.15872" lon="6.72311">
        <ele>1782</ele>
        <time>2016-03-30T20:43:18Z</time>
      </trkpt>
      <trkpt lat="44.15874" lon="6.72299">
        <ele>1782</ele>
        <time>2016-03-30T20:45:18Z</time>
      </trkpt>
      <trkpt lat="44.15875" lon="6.72289">
        <ele>1782</ele>
        <time>2016-03-30T20:47:18Z</time>
      </trkpt>
      <trkpt lat="44.15876" lon="6.72278">
        <ele>1783</ele>
        <time>2016-03-30T20:49:18Z</time>
      </trkpt>
      <trkpt lat="44.15877" lon="6.72268">
        <ele>1783</ele>
        <time>2016-03-30T20:51:18Z</time>
      </trkpt>
      <trkpt lat="44.15879" lon="6.72255">
        <ele>1783</ele>
        <time>2016-03-30T20:53:18Z</time>
      </trkpt>
      <trkpt lat="44.15881" lon="6.72234">
        <ele>1784</ele>
        <time>2016-03-30T20:55:18Z</time>
      </trkpt>
      <trkpt lat="44.15882" lon="6.72222">
        <ele>1784</ele>
        <time>2016-03-30T20:57:18Z</time>
      </trkpt>
      <trkpt lat="44.15883" lon="6.72211">
        <ele>1785</ele>
        <time>2016-03-30T20:59:18Z</time>
      </trkpt>
      <trkpt lat="44.15883" lon="6.722">
        <ele>1786</ele>
        <time>2016-03-30T21:01:18Z</time>
      </trkpt>
      <trkpt lat="44.15883" lon="6.72189">
        <ele>1788</ele>
        <time>2016-03-30T21:03:18Z</time>
      </trkpt>
      <trkpt lat="44.15882" lon="6.72178">
        <ele>1790</ele>
        <time>2016-03-30T21:05:18Z</time>
      </trkpt>
      <trkpt lat="44.15882" lon="6.72167">
        <ele>1791</ele>
        <time>2016-03-30T21:07:18Z</time>
      </trkpt>
      <trkpt lat="44.15881" lon="6.72155">
        <ele>1792</ele>
        <time>2016-03-30T21:09:18Z</time>
      </trkpt>
      <trkpt lat="44.15881" lon="6.72143">
        <ele>1793</ele>
        <time>2016-03-30T21:11:18Z</time>
      </trkpt>
      <trkpt lat="44.15881" lon="6.72133">
        <ele>1793</ele>
        <time>2016-03-30T21:13:18Z</time>
      </trkpt>
      <trkpt lat="44.15882" lon="6.72121">
        <ele>1793</ele>
        <time>2016-03-30T21:15:18Z</time>
      </trkpt>
      <trkpt lat="44.15883" lon="6.7211">
        <ele>1793</ele>
        <time>2016-03-30T21:17:18Z</time>
      </trkpt>
      <trkpt lat="44.15884" lon="6.721">
        <ele>1793</ele>
        <time>2016-03-30T21:19:18Z</time>
      </trkpt>
      <trkpt lat="44.15885" lon="6.72089">
        <ele>1793</ele>
        <time>2016-03-30T21:21:18Z</time>
      </trkpt>
      <trkpt lat="44.15885" lon="6.72079">
        <ele>1794</ele>
        <time>2016-03-30T21:23:18Z</time>
      </trkpt>
      <trkpt lat="44.15884" lon="6.72068">
        <ele>1795</ele>
        <time>2016-03-30T21:25:18Z</time>
      </trkpt>
      <trkpt lat="44.15883" lon="6.72058">
        <ele>1796</ele>
        <time>2016-03-30T21:27:18Z</time>
      </trkpt>
      <trkpt lat="44.15883" lon="6.72047">
        <ele>1797</ele>
        <time>2016-03-30T21:29:18Z</time>
      </trkpt>
      <trkpt lat="44.15882" lon="6.72037">
        <ele>1798</ele>
        <time>2016-03-30T21:31:18Z</time>
      </trkpt>
      <trkpt lat="44.15882" lon="6.72027">
        <ele>1798</ele>
        <time>2016-03-30T21:33:18Z</time>
      </trkpt>
      <trkpt lat="44.15882" lon="6.72017">
        <ele>1799</ele>
        <time>2016-03-30T21:35:18Z</time>
      </trkpt>
      <trkpt lat="44.15883" lon="6.72006">
        <ele>1799</ele>
        <time>2016-03-30T21:37:18Z</time>
      </trkpt>
      <trkpt lat="44.15883" lon="6.71997">
        <ele>1799</ele>
        <time>2016-03-30T21:39:18Z</time>
      </trkpt>
      <trkpt lat="44.15883" lon="6.71988">
        <ele>1798</ele>
        <time>2016-03-30T21:41:18Z</time>
      </trkpt>
      <trkpt lat="44.15883" lon="6.71978">
        <ele>1798</ele>
        <time>2016-03-30T21:43:18Z</time>
      </trkpt>
      <trkpt lat="44.15881" lon="6.71968">
        <ele>1799</ele>
        <time>2016-03-30T21:45:18Z</time>
      </trkpt>
      <trkpt lat="44.15879" lon="6.71958">
        <ele>1799</ele>
        <time>2016-03-30T21:47:18Z</time>
      </trkpt>
      <trkpt lat="44.15878" lon="6.71949">
        <ele>1799</ele>
        <time>2016-03-30T21:49:18Z</time>
      </trkpt>
      <trkpt lat="44.15877" lon="6.7194">
        <ele>1799</ele>
        <time>2016-03-30T21:51:18Z</time>
      </trkpt>
      <trkpt lat="44.15876" lon="6.7193">
        <ele>1800</ele>
        <time>2016-03-30T21:53:18Z</time>
      </trkpt>
      <trkpt lat="44.15875" lon="6.7192">
        <ele>1800</ele>
        <time>2016-03-30T21:55:18Z</time>
      </trkpt>
      <trkpt lat="44.15874" lon="6.71911">
        <ele>1799</ele>
        <time>2016-03-30T21:57:18Z</time>
      </trkpt>
      <trkpt lat="44.15873" lon="6.71901">
        <ele>1799</ele>
        <time>2016-03-30T21:59:18Z</time>
      </trkpt>
      <trkpt lat="44.15871" lon="6.71891">
        <ele>1799</ele>
        <time>2016-03-30T22:01:18Z</time>
      </trkpt>
      <trkpt lat="44.15869" lon="6.71882">
        <ele>1799</ele>
        <time>2016-03-30T22:03:18Z</time>
      </trkpt>
      <trkpt lat="44.15866" lon="6.71873">
        <ele>1800</ele>
        <time>2016-03-30T22:05:18Z</time>
      </trkpt>
      <trkpt lat="44.15863" lon="6.71863">
        <ele>1800</ele>
        <time>2016-03-30T22:07:18Z</time>
      </trkpt>
      <trkpt lat="44.1586" lon="6.71853">
        <ele>1801</ele>
        <time>2016-03-30T22:09:18Z</time>
      </trkpt>
      <trkpt lat="44.15858" lon="6.71844">
        <ele>1801</ele>
        <time>2016-03-30T22:11:18Z</time>
      </trkpt>
      <trkpt lat="44.15855" lon="6.71834">
        <ele>1802</ele>
        <time>2016-03-30T22:13:18Z</time>
      </trkpt>
      <trkpt lat="44.15849" lon="6.71814">
        <ele>1803</ele>
        <time>2016-03-30T22:15:18Z</time>
      </trkpt>
      <trkpt lat="44.1584" lon="6.71783">
        <ele>1803</ele>
        <time>2016-03-30T22:17:18Z</time>
      </trkpt>
      <trkpt lat="44.15834" lon="6.71762">
        <ele>1804</ele>
        <time>2016-03-30T22:19:18Z</time>
      </trkpt>
      <trkpt lat="44.15828" lon="6.71741">
        <ele>1806</ele>
        <time>2016-03-30T22:21:18Z</time>
      </trkpt>
      <trkpt lat="44.15825" lon="6.7173">
        <ele>1808</ele>
        <time>2016-03-30T22:23:18Z</time>
      </trkpt>
      <trkpt lat="44.15823" lon="6.7172">
        <ele>1810</ele>
        <time>2016-03-30T22:25:18Z</time>
      </trkpt>
      <trkpt lat="44.15821" lon="6.7171">
        <ele>1811</ele>
        <time>2016-03-30T22:27:18Z</time>
      </trkpt>
      <trkpt lat="44.1582" lon="6.71699">
        <ele>1812</ele>
        <time>2016-03-30T22:29:18Z</time>
      </trkpt>
      <trkpt lat="44.1582" lon="6.71689">
        <ele>1812</ele>
        <time>2016-03-30T22:31:18Z</time>
      </trkpt>
      <trkpt lat="44.1582" lon="6.7168">
        <ele>1812</ele>
        <time>2016-03-30T22:33:18Z</time>
      </trkpt>
      <trkpt lat="44.15822" lon="6.71671">
        <ele>1811</ele>
        <time>2016-03-30T22:35:18Z</time>
      </trkpt>
      <trkpt lat="44.15824" lon="6.71662">
        <ele>1811</ele>
        <time>2016-03-30T22:37:18Z</time>
      </trkpt>
      <trkpt lat="44.15827" lon="6.71654">
        <ele>1810</ele>
        <time>2016-03-30T22:39:18Z</time>
      </trkpt>
      <trkpt lat="44.1583" lon="6.71646">
        <ele>1810</ele>
        <time>2016-03-30T22:41:18Z</time>
      </trkpt>
      <trkpt lat="44.15833" lon="6.71639">
        <ele>1810</ele>
        <time>2016-03-30T22:43:18Z</time>
      </trkpt>
      <trkpt lat="44.15835" lon="6.7163">
        <ele>1810</ele>
        <time>2016-03-30T22:45:18Z</time>
      </trkpt>
      <trkpt lat="44.15837" lon="6.71622">
        <ele>1811</ele>
        <time>2016-03-30T22:47:18Z</time>
      </trkpt>
      <trkpt lat="44.15837" lon="6.71613">
        <ele>1812</ele>
        <time>2016-03-30T22:49:18Z</time>
      </trkpt>
      <trkpt lat="44.15836" lon="6.71605">
        <ele>1814</ele>
        <time>2016-03-30T22:51:18Z</time>
      </trkpt>
      <trkpt lat="44.15834" lon="6.71587">
        <ele>1816</ele>
        <time>2016-03-30T22:53:18Z</time>
      </trkpt>
      <trkpt lat="44.15833" lon="6.71572">
        <ele>1819</ele>
        <time>2016-03-30T22:55:18Z</time>
      </trkpt>
      <trkpt lat="44.15834" lon="6.71561">
        <ele>1821</ele>
        <time>2016-03-30T22:57:18Z</time>
      </trkpt>
      <trkpt lat="44.15839" lon="6.71546">
        <ele>1823</ele>
        <time>2016-03-30T22:59:18Z</time>
      </trkpt>
      <trkpt lat="44.15843" lon="6.71539">
        <ele>1824</ele>
        <time>2016-03-30T23:01:18Z</time>
      </trkpt>
      <trkpt lat="44.15847" lon="6.71531">
        <ele>1825</ele>
        <time>2016-03-30T23:03:18Z</time>
      </trkpt>
      <trkpt lat="44.15851" lon="6.71525">
        <ele>1825</ele>
        <time>2016-03-30T23:05:18Z</time>
      </trkpt>
      <trkpt lat="44.1586" lon="6.71513">
        <ele>1827</ele>
        <time>2016-03-30T23:07:18Z</time>
      </trkpt>
      <trkpt lat="44.15865" lon="6.71506">
        <ele>1828</ele>
        <time>2016-03-30T23:09:18Z</time>
      </trkpt>
      <trkpt lat="44.15875" lon="6.71496">
        <ele>1829</ele>
        <time>2016-03-30T23:11:18Z</time>
      </trkpt>
      <trkpt lat="44.15881" lon="6.7149">
        <ele>1829</ele>
        <time>2016-03-30T23:13:18Z</time>
      </trkpt>
      <trkpt lat="44.15892" lon="6.71483">
        <ele>1830</ele>
        <time>2016-03-30T23:15:18Z</time>
      </trkpt>
      <trkpt lat="44.15897" lon="6.7148">
        <ele>1830</ele>
        <time>2016-03-30T23:17:18Z</time>
      </trkpt>
      <trkpt lat="44.15903" lon="6.7148">
        <ele>1829</ele>
        <time>2016-03-30T23:19:18Z</time>
      </trkpt>
      <trkpt lat="44.15917" lon="6.7148">
        <ele>1827</ele>
        <time>2016-03-30T23:21:18Z</time>
      </trkpt>
      <trkpt lat="44.15928" lon="6.71483">
        <ele>1826</ele>
        <time>2016-03-30T23:23:18Z</time>
      </trkpt>
      <trkpt lat="44.1594" lon="6.71488">
        <ele>1825</ele>
        <time>2016-03-30T23:25:18Z</time>
      </trkpt>
      <trkpt lat="44.15952" lon="6.71494">
        <ele>1824</ele>
        <time>2016-03-30T23:27:18Z</time>
      </trkpt>
      <trkpt lat="44.15963" lon="6.715">
        <ele>1823</ele>
        <time>2016-03-30T23:29:18Z</time>
      </trkpt>
      <trkpt lat="44.15974" lon="6.71502">
        <ele>1822</ele>
        <time>2016-03-30T23:31:18Z</time>
      </trkpt>
      <trkpt lat="44.15979" lon="6.71501">
        <ele>1823</ele>
        <time>2016-03-30T23:33:18Z</time>
      </trkpt>
      <trkpt lat="44.15984" lon="6.715">
        <ele>1823</ele>
        <time>2016-03-30T23:35:18Z</time>
      </trkpt>
      <trkpt lat="44.1599" lon="6.71498">
        <ele>1823</ele>
        <time>2016-03-30T23:37:18Z</time>
      </trkpt>
      <trkpt lat="44.16" lon="6.71493">
        <ele>1824</ele>
        <time>2016-03-30T23:39:18Z</time>
      </trkpt>
      <trkpt lat="44.16011" lon="6.7149">
        <ele>1821</ele>
        <time>2016-03-30T23:41:18Z</time>
      </trkpt>
      <trkpt lat="44.16021" lon="6.71485">
        <ele>1819</ele>
        <time>2016-03-30T23:43:18Z</time>
      </trkpt>
      <trkpt lat="44.16028" lon="6.7148">
        <ele>1818</ele>
        <time>2016-03-30T23:45:18Z</time>
      </trkpt>
      <trkpt lat="44.16035" lon="6.71473">
        <ele>1816</ele>
        <time>2016-03-30T23:47:18Z</time>
      </trkpt>
      <trkpt lat="44.1604" lon="6.71466">
        <ele>1816</ele>
        <time>2016-03-30T23:49:18Z</time>
      </trkpt>
      <trkpt lat="44.16044" lon="6.71454">
        <ele>1816</ele>
        <time>2016-03-30T23:51:18Z</time>
      </trkpt>
      <trkpt lat="44.16046" lon="6.71438">
        <ele>1817</ele>
        <time>2016-03-30T23:53:18Z</time>
      </trkpt>
      <trkpt lat="44.16047" lon="6.7143">
        <ele>1817</ele>
        <time>2016-03-30T23:55:18Z</time>
      </trkpt>
      <trkpt lat="44.16048" lon="6.71421">
        <ele>1818</ele>
        <time>2016-03-30T23:57:18Z</time>
      </trkpt>
      <trkpt lat="44.16048" lon="6.71413">
        <ele>1818</ele>
        <time>2016-03-30T23:59:18Z</time>
      </trkpt>
      <trkpt lat="44.16047" lon="6.71405">
        <ele>1819</ele>
        <time>2016-03-31T00:01:18Z</time>
      </trkpt>
      <trkpt lat="44.16041" lon="6.71381">
        <ele>1823</ele>
        <time>2016-03-31T00:03:18Z</time>
      </trkpt>
      <trkpt lat="44.16037" lon="6.71367">
        <ele>1825</ele>
        <time>2016-03-31T00:05:18Z</time>
      </trkpt>
      <trkpt lat="44.16035" lon="6.71358">
        <ele>1827</ele>
        <time>2016-03-31T00:07:18Z</time>
      </trkpt>
      <trkpt lat="44.16035" lon="6.7135">
        <ele>1828</ele>
        <time>2016-03-31T00:09:18Z</time>
      </trkpt>
      <trkpt lat="44.16035" lon="6.7134">
        <ele>1828</ele>
        <time>2016-03-31T00:11:18Z</time>
      </trkpt>
      <trkpt lat="44.16035" lon="6.71333">
        <ele>1829</ele>
        <time>2016-03-31T00:13:18Z</time>
      </trkpt>
      <trkpt lat="44.16038" lon="6.71317">
        <ele>1831</ele>
        <time>2016-03-31T00:15:18Z</time>
      </trkpt>
      <trkpt lat="44.16041" lon="6.71309">
        <ele>1831</ele>
        <time>2016-03-31T00:17:18Z</time>
      </trkpt>
      <trkpt lat="44.16048" lon="6.71295">
        <ele>1831</ele>
        <time>2016-03-31T00:19:18Z</time>
      </trkpt>
      <trkpt lat="44.16055" lon="6.7128">
        <ele>1831</ele>
        <time>2016-03-31T00:21:18Z</time>
      </trkpt>
      <trkpt lat="44.16059" lon="6.71272">
        <ele>1831</ele>
        <time>2016-03-31T00:23:18Z</time>
      </trkpt>
      <trkpt lat="44.16067" lon="6.71258">
        <ele>1831</ele>
        <time>2016-03-31T00:25:18Z</time>
      </trkpt>
      <trkpt lat="44.16072" lon="6.71251">
        <ele>1830</ele>
        <time>2016-03-31T00:27:18Z</time>
      </trkpt>
      <trkpt lat="44.16081" lon="6.71237">
        <ele>1831</ele>
        <time>2016-03-31T00:29:18Z</time>
      </trkpt>
      <trkpt lat="44.1609" lon="6.71225">
        <ele>1833</ele>
        <time>2016-03-31T00:31:18Z</time>
      </trkpt>
      <trkpt lat="44.1611" lon="6.7121">
        <ele>1832</ele>
        <time>2016-03-31T00:33:18Z</time>
      </trkpt>
      <trkpt lat="44.1612" lon="6.71202">
        <ele>1832</ele>
        <time>2016-03-31T00:35:18Z</time>
      </trkpt>
      <trkpt lat="44.16131" lon="6.71196">
        <ele>1831</ele>
        <time>2016-03-31T00:37:18Z</time>
      </trkpt>
      <trkpt lat="44.16145" lon="6.71185">
        <ele>1831</ele>
        <time>2016-03-31T00:39:18Z</time>
      </trkpt>
      <trkpt lat="44.16155" lon="6.71181">
        <ele>1829</ele>
        <time>2016-03-31T00:41:18Z</time>
      </trkpt>
      <trkpt lat="44.16165" lon="6.71176">
        <ele>1828</ele>
        <time>2016-03-31T00:43:18Z</time>
      </trkpt>
      <trkpt lat="44.16175" lon="6.71171">
        <ele>1828</ele>
        <time>2016-03-31T00:45:18Z</time>
      </trkpt>
      <trkpt lat="44.16183" lon="6.71165">
        <ele>1829</ele>
        <time>2016-03-31T00:47:18Z</time>
      </trkpt>
      <trkpt lat="44.16191" lon="6.7116">
        <ele>1830</ele>
        <time>2016-03-31T00:49:18Z</time>
      </trkpt>
      <trkpt lat="44.16201" lon="6.71151">
        <ele>1832</ele>
        <time>2016-03-31T00:51:18Z</time>
      </trkpt>
      <trkpt lat="44.16205" lon="6.71146">
        <ele>1832</ele>
        <time>2016-03-31T00:53:18Z</time>
      </trkpt>
      <trkpt lat="44.16209" lon="6.71139">
        <ele>1834</ele>
        <time>2016-03-31T00:55:18Z</time>
      </trkpt>
      <trkpt lat="44.16213" lon="6.71126">
        <ele>1836</ele>
        <time>2016-03-31T00:57:18Z</time>
      </trkpt>
      <trkpt lat="44.16217" lon="6.71117">
        <ele>1838</ele>
        <time>2016-03-31T00:59:18Z</time>
      </trkpt>
      <trkpt lat="44.16222" lon="6.7111">
        <ele>1839</ele>
        <time>2016-03-31T01:01:18Z</time>
      </trkpt>
      <trkpt lat="44.16225" lon="6.71107">
        <ele>1839</ele>
        <time>2016-03-31T01:03:18Z</time>
      </trkpt>
      <trkpt lat="44.16229" lon="6.71106">
        <ele>1838</ele>
        <time>2016-03-31T01:05:18Z</time>
      </trkpt>
      <trkpt lat="44.16233" lon="6.71106">
        <ele>1837</ele>
        <time>2016-03-31T01:07:18Z</time>
      </trkpt>
      <trkpt lat="44.16236" lon="6.71107">
        <ele>1836</ele>
        <time>2016-03-31T01:09:18Z</time>
      </trkpt>
      <trkpt lat="44.16239" lon="6.7111">
        <ele>1835</ele>
        <time>2016-03-31T01:11:18Z</time>
      </trkpt>
      <trkpt lat="44.16241" lon="6.71111">
        <ele>1834</ele>
        <time>2016-03-31T01:13:18Z</time>
      </trkpt>
      <trkpt lat="44.16243" lon="6.71113">
        <ele>1833</ele>
        <time>2016-03-31T01:15:18Z</time>
      </trkpt>
      <trkpt lat="44.16244" lon="6.71115">
        <ele>1833</ele>
        <time>2016-03-31T01:17:18Z</time>
      </trkpt>
      <trkpt lat="44.16253" lon="6.7113">
        <ele>1830</ele>
        <time>2016-03-31T01:19:18Z</time>
      </trkpt>
      <trkpt lat="44.16259" lon="6.71138">
        <ele>1830</ele>
        <time>2016-03-31T01:21:18Z</time>
      </trkpt>
      <trkpt lat="44.16269" lon="6.71149">
        <ele>1830</ele>
        <time>2016-03-31T01:23:18Z</time>
      </trkpt>
      <trkpt lat="44.16279" lon="6.71161">
        <ele>1831</ele>
        <time>2016-03-31T01:25:18Z</time>
      </trkpt>
      <trkpt lat="44.16288" lon="6.71173">
        <ele>1831</ele>
        <time>2016-03-31T01:27:18Z</time>
      </trkpt>
      <trkpt lat="44.16295" lon="6.71184">
        <ele>1831</ele>
        <time>2016-03-31T01:29:18Z</time>
      </trkpt>
      <trkpt lat="44.16298" lon="6.71192">
        <ele>1830</ele>
        <time>2016-03-31T01:31:18Z</time>
      </trkpt>
      <trkpt lat="44.16301" lon="6.712">
        <ele>1829</ele>
        <time>2016-03-31T01:33:18Z</time>
      </trkpt>
      <trkpt lat="44.16305" lon="6.71208">
        <ele>1829</ele>
        <time>2016-03-31T01:35:18Z</time>
      </trkpt>
      <trkpt lat="44.16307" lon="6.71214">
        <ele>1829</ele>
        <time>2016-03-31T01:37:18Z</time>
      </trkpt>
      <trkpt lat="44.16309" lon="6.71218">
        <ele>1828</ele>
        <time>2016-03-31T01:39:18Z</time>
      </trkpt>
      <trkpt lat="44.16313" lon="6.71222">
        <ele>1829</ele>
        <time>2016-03-31T01:41:18Z</time>
      </trkpt>
      <trkpt lat="44.16319" lon="6.71225">
        <ele>1829</ele>
        <time>2016-03-31T01:43:18Z</time>
      </trkpt>
      <trkpt lat="44.16324" lon="6.71224">
        <ele>1830</ele>
        <time>2016-03-31T01:45:18Z</time>
      </trkpt>
      <trkpt lat="44.16328" lon="6.71221">
        <ele>1832</ele>
        <time>2016-03-31T01:47:18Z</time>
      </trkpt>
      <trkpt lat="44.16335" lon="6.71215">
        <ele>1834</ele>
        <time>2016-03-31T01:49:18Z</time>
      </trkpt>
      <trkpt lat="44.1634" lon="6.71208">
        <ele>1836</ele>
        <time>2016-03-31T01:51:18Z</time>
      </trkpt>
      <trkpt lat="44.16344" lon="6.71203">
        <ele>1838</ele>
        <time>2016-03-31T01:53:18Z</time>
      </trkpt>
      <trkpt lat="44.16349" lon="6.71198">
        <ele>1839</ele>
        <time>2016-03-31T01:55:18Z</time>
      </trkpt>
      <trkpt lat="44.16352" lon="6.71194">
        <ele>1841</ele>
        <time>2016-03-31T01:57:18Z</time>
      </trkpt>
      <trkpt lat="44.16356" lon="6.7119">
        <ele>1842</ele>
        <time>2016-03-31T01:59:18Z</time>
      </trkpt>
      <trkpt lat="44.1636" lon="6.71186">
        <ele>1843</ele>
        <time>2016-03-31T02:01:18Z</time>
      </trkpt>
      <trkpt lat="44.16368" lon="6.71182">
        <ele>1845</ele>
        <time>2016-03-31T02:03:18Z</time>
      </trkpt>
      <trkpt lat="44.16372" lon="6.71181">
        <ele>1846</ele>
        <time>2016-03-31T02:05:18Z</time>
      </trkpt>
      <trkpt lat="44.16379" lon="6.71181">
        <ele>1847</ele>
        <time>2016-03-31T02:07:18Z</time>
      </trkpt>
      <trkpt lat="44.16384" lon="6.71182">
        <ele>1848</ele>
        <time>2016-03-31T02:09:18Z</time>
      </trkpt>
      <trkpt lat="44.16389" lon="6.71182">
        <ele>1849</ele>
        <time>2016-03-31T02:11:18Z</time>
      </trkpt>
      <trkpt lat="44.16396" lon="6.71185">
        <ele>1850</ele>
        <time>2016-03-31T02:13:18Z</time>
      </trkpt>
      <trkpt lat="44.16403" lon="6.71188">
        <ele>1850</ele>
        <time>2016-03-31T02:15:18Z</time>
      </trkpt>
      <trkpt lat="44.16411" lon="6.71195">
        <ele>1851</ele>
        <time>2016-03-31T02:17:18Z</time>
      </trkpt>
      <trkpt lat="44.16416" lon="6.71202">
        <ele>1850</ele>
        <time>2016-03-31T02:19:18Z</time>
      </trkpt>
      <trkpt lat="44.16419" lon="6.71212">
        <ele>1850</ele>
        <time>2016-03-31T02:21:18Z</time>
      </trkpt>
      <trkpt lat="44.16422" lon="6.71222">
        <ele>1849</ele>
        <time>2016-03-31T02:23:18Z</time>
      </trkpt>
      <trkpt lat="44.16424" lon="6.71231">
        <ele>1848</ele>
        <time>2016-03-31T02:25:18Z</time>
      </trkpt>
      <trkpt lat="44.16427" lon="6.7124">
        <ele>1847</ele>
        <time>2016-03-31T02:27:18Z</time>
      </trkpt>
      <trkpt lat="44.1643" lon="6.71247">
        <ele>1847</ele>
        <time>2016-03-31T02:29:18Z</time>
      </trkpt>
      <trkpt lat="44.16433" lon="6.71254">
        <ele>1847</ele>
        <time>2016-03-31T02:31:18Z</time>
      </trkpt>
      <trkpt lat="44.16438" lon="6.7126">
        <ele>1847</ele>
        <time>2016-03-31T02:33:18Z</time>
      </trkpt>
      <trkpt lat="44.16445" lon="6.71264">
        <ele>1848</ele>
        <time>2016-03-31T02:35:18Z</time>
      </trkpt>
      <trkpt lat="44.1645" lon="6.71267">
        <ele>1848</ele>
        <time>2016-03-31T02:37:18Z</time>
      </trkpt>
      <trkpt lat="44.16458" lon="6.7127">
        <ele>1850</ele>
        <time>2016-03-31T02:39:18Z</time>
      </trkpt>
      <trkpt lat="44.16464" lon="6.7127">
        <ele>1851</ele>
        <time>2016-03-31T02:41:18Z</time>
      </trkpt>
      <trkpt lat="44.16471" lon="6.71271">
        <ele>1853</ele>
        <time>2016-03-31T02:43:18Z</time>
      </trkpt>
      <trkpt lat="44.16478" lon="6.71273">
        <ele>1854</ele>
        <time>2016-03-31T02:45:18Z</time>
      </trkpt>
      <trkpt lat="44.16482" lon="6.71275">
        <ele>1854</ele>
        <time>2016-03-31T02:47:18Z</time>
      </trkpt>
      <trkpt lat="44.16489" lon="6.71278">
        <ele>1855</ele>
        <time>2016-03-31T02:49:18Z</time>
      </trkpt>
      <trkpt lat="44.16497" lon="6.71283">
        <ele>1856</ele>
        <time>2016-03-31T02:51:18Z</time>
      </trkpt>
      <trkpt lat="44.16505" lon="6.71288">
        <ele>1856</ele>
        <time>2016-03-31T02:53:18Z</time>
      </trkpt>
      <trkpt lat="44.1651" lon="6.71294">
        <ele>1855</ele>
        <time>2016-03-31T02:55:18Z</time>
      </trkpt>
      <trkpt lat="44.16516" lon="6.71299">
        <ele>1855</ele>
        <time>2016-03-31T02:57:18Z</time>
      </trkpt>
      <trkpt lat="44.16521" lon="6.71304">
        <ele>1855</ele>
        <time>2016-03-31T02:59:18Z</time>
      </trkpt>
      <trkpt lat="44.16525" lon="6.71306">
        <ele>1855</ele>
        <time>2016-03-31T03:01:18Z</time>
      </trkpt>
      <trkpt lat="44.16529" lon="6.71308">
        <ele>1855</ele>
        <time>2016-03-31T03:03:18Z</time>
      </trkpt>
      <trkpt lat="44.16536" lon="6.71307">
        <ele>1856</ele>
        <time>2016-03-31T03:05:18Z</time>
      </trkpt>
      <trkpt lat="44.16541" lon="6.71304">
        <ele>1858</ele>
        <time>2016-03-31T03:07:18Z</time>
      </trkpt>
      <trkpt lat="44.16545" lon="6.71301">
        <ele>1859</ele>
        <time>2016-03-31T03:09:18Z</time>
      </trkpt>
      <trkpt lat="44.16549" lon="6.71297">
        <ele>1861</ele>
        <time>2016-03-31T03:11:18Z</time>
      </trkpt>
      <trkpt lat="44.16555" lon="6.71293">
        <ele>1862</ele>
        <time>2016-03-31T03:13:18Z</time>
      </trkpt>
      <trkpt lat="44.16563" lon="6.71288">
        <ele>1865</ele>
        <time>2016-03-31T03:15:18Z</time>
      </trkpt>
      <trkpt lat="44.16573" lon="6.71284">
        <ele>1867</ele>
        <time>2016-03-31T03:17:18Z</time>
      </trkpt>
      <trkpt lat="44.16583" lon="6.71282">
        <ele>1869</ele>
        <time>2016-03-31T03:19:18Z</time>
      </trkpt>
      <trkpt lat="44.1659" lon="6.71282">
        <ele>1871</ele>
        <time>2016-03-31T03:21:18Z</time>
      </trkpt>
      <trkpt lat="44.16594" lon="6.7128">
        <ele>1872</ele>
        <time>2016-03-31T03:23:18Z</time>
      </trkpt>
      <trkpt lat="44.16596" lon="6.71278">
        <ele>1873</ele>
        <time>2016-03-31T03:25:18Z</time>
      </trkpt>
      <trkpt lat="44.16597" lon="6.71276">
        <ele>1874</ele>
        <time>2016-03-31T03:27:18Z</time>
      </trkpt>
      <trkpt lat="44.16598" lon="6.71273">
        <ele>1875</ele>
        <time>2016-03-31T03:29:18Z</time>
      </trkpt>
      <trkpt lat="44.16597" lon="6.7127">
        <ele>1875</ele>
        <time>2016-03-31T03:31:18Z</time>
      </trkpt>
      <trkpt lat="44.16596" lon="6.71267">
        <ele>1875</ele>
        <time>2016-03-31T03:33:18Z</time>
      </trkpt>
      <trkpt lat="44.16594" lon="6.71266">
        <ele>1875</ele>
        <time>2016-03-31T03:35:18Z</time>
      </trkpt>
      <trkpt lat="44.16591" lon="6.71265">
        <ele>1875</ele>
        <time>2016-03-31T03:37:18Z</time>
      </trkpt>
      <trkpt lat="44.16588" lon="6.71266">
        <ele>1874</ele>
        <time>2016-03-31T03:39:18Z</time>
      </trkpt>
      <trkpt lat="44.16586" lon="6.71266">
        <ele>1873</ele>
        <time>2016-03-31T03:41:18Z</time>
      </trkpt>
      <trkpt lat="44.16582" lon="6.71267">
        <ele>1872</ele>
        <time>2016-03-31T03:43:18Z</time>
      </trkpt>
      <trkpt lat="44.16574" lon="6.71269">
        <ele>1871</ele>
        <time>2016-03-31T03:45:18Z</time>
      </trkpt>
      <trkpt lat="44.16557" lon="6.71274">
        <ele>1867</ele>
        <time>2016-03-31T03:47:18Z</time>
      </trkpt>
      <trkpt lat="44.16545" lon="6.71276">
        <ele>1865</ele>
        <time>2016-03-31T03:49:18Z</time>
      </trkpt>
      <trkpt lat="44.16533" lon="6.71274">
        <ele>1864</ele>
        <time>2016-03-31T03:51:18Z</time>
      </trkpt>
      <trkpt lat="44.16526" lon="6.71269">
        <ele>1864</ele>
        <time>2016-03-31T03:53:18Z</time>
      </trkpt>
      <trkpt lat="44.16519" lon="6.71261">
        <ele>1865</ele>
        <time>2016-03-31T03:55:18Z</time>
      </trkpt>
      <trkpt lat="44.16509" lon="6.7125">
        <ele>1866</ele>
        <time>2016-03-31T03:57:18Z</time>
      </trkpt>
      <trkpt lat="44.16502" lon="6.71242">
        <ele>1866</ele>
        <time>2016-03-31T03:59:18Z</time>
      </trkpt>
      <trkpt lat="44.16499" lon="6.71238">
        <ele>1866</ele>
        <time>2016-03-31T04:01:18Z</time>
      </trkpt>
      <trkpt lat="44.16495" lon="6.71227">
        <ele>1867</ele>
        <time>2016-03-31T04:03:18Z</time>
      </trkpt>
      <trkpt lat="44.16487" lon="6.71194">
        <ele>1869</ele>
        <time>2016-03-31T04:05:18Z</time>
      </trkpt>
      <trkpt lat="44.16485" lon="6.71183">
        <ele>1870</ele>
        <time>2016-03-31T04:07:18Z</time>
      </trkpt>
      <trkpt lat="44.16483" lon="6.71174">
        <ele>1871</ele>
        <time>2016-03-31T04:09:18Z</time>
      </trkpt>
      <trkpt lat="44.16482" lon="6.71168">
        <ele>1871</ele>
        <time>2016-03-31T04:11:18Z</time>
      </trkpt>
      <trkpt lat="44.1648" lon="6.71161">
        <ele>1872</ele>
        <time>2016-03-31T04:13:18Z</time>
      </trkpt>
      <trkpt lat="44.1648" lon="6.71156">
        <ele>1872</ele>
        <time>2016-03-31T04:15:18Z</time>
      </trkpt>
      <trkpt lat="44.1648" lon="6.71149">
        <ele>1873</ele>
        <time>2016-03-31T04:17:18Z</time>
      </trkpt>
      <trkpt lat="44.1648" lon="6.71142">
        <ele>1873</ele>
        <time>2016-03-31T04:19:18Z</time>
      </trkpt>
      <trkpt lat="44.16482" lon="6.71138">
        <ele>1874</ele>
        <time>2016-03-31T04:21:18Z</time>
      </trkpt>
      <trkpt lat="44.16484" lon="6.71135">
        <ele>1874</ele>
        <time>2016-03-31T04:23:18Z</time>
      </trkpt>
      <trkpt lat="44.16488" lon="6.71133">
        <ele>1875</ele>
        <time>2016-03-31T04:25:18Z</time>
      </trkpt>
      <trkpt lat="44.16491" lon="6.71133">
        <ele>1876</ele>
        <time>2016-03-31T04:27:18Z</time>
      </trkpt>
      <trkpt lat="44.16495" lon="6.71135">
        <ele>1877</ele>
        <time>2016-03-31T04:29:18Z</time>
      </trkpt>
      <trkpt lat="44.16499" lon="6.71138">
        <ele>1877</ele>
        <time>2016-03-31T04:31:18Z</time>
      </trkpt>
      <trkpt lat="44.16503" lon="6.7114">
        <ele>1878</ele>
        <time>2016-03-31T04:33:18Z</time>
      </trkpt>
      <trkpt lat="44.16506" lon="6.71142">
        <ele>1878</ele>
        <time>2016-03-31T04:35:18Z</time>
      </trkpt>
      <trkpt lat="44.16512" lon="6.71145">
        <ele>1879</ele>
        <time>2016-03-31T04:37:18Z</time>
      </trkpt>
      <trkpt lat="44.16517" lon="6.71145">
        <ele>1879</ele>
        <time>2016-03-31T04:39:18Z</time>
      </trkpt>
      <trkpt lat="44.16521" lon="6.71146">
        <ele>1880</ele>
        <time>2016-03-31T04:41:18Z</time>
      </trkpt>
      <trkpt lat="44.16525" lon="6.71146">
        <ele>1880</ele>
        <time>2016-03-31T04:43:18Z</time>
      </trkpt>
      <trkpt lat="44.16529" lon="6.71145">
        <ele>1881</ele>
        <time>2016-03-31T04:45:18Z</time>
      </trkpt>
      <trkpt lat="44.16533" lon="6.71145">
        <ele>1881</ele>
        <time>2016-03-31T04:47:18Z</time>
      </trkpt>
      <trkpt lat="44.16536" lon="6.71143">
        <ele>1882</ele>
        <time>2016-03-31T04:49:18Z</time>
      </trkpt>
      <trkpt lat="44.1654" lon="6.71142">
        <ele>1882</ele>
        <time>2016-03-31T04:51:18Z</time>
      </trkpt>
      <trkpt lat="44.16543" lon="6.71139">
        <ele>1883</ele>
        <time>2016-03-31T04:53:18Z</time>
      </trkpt>
      <trkpt lat="44.16548" lon="6.71135">
        <ele>1884</ele>
        <time>2016-03-31T04:55:18Z</time>
      </trkpt>
      <trkpt lat="44.16553" lon="6.71129">
        <ele>1885</ele>
        <time>2016-03-31T04:57:18Z</time>
      </trkpt>
      <trkpt lat="44.16554" lon="6.71126">
        <ele>1885</ele>
        <time>2016-03-31T04:59:18Z</time>
      </trkpt>
      <trkpt lat="44.16556" lon="6.71122">
        <ele>1885</ele>
        <time>2016-03-31T05:01:18Z</time>
      </trkpt>
      <trkpt lat="44.16558" lon="6.71118">
        <ele>1886</ele>
        <time>2016-03-31T05:03:18Z</time>
      </trkpt>
      <trkpt lat="44.1656" lon="6.71114">
        <ele>1886</ele>
        <time>2016-03-31T05:05:18Z</time>
      </trkpt>
      <trkpt lat="44.16561" lon="6.7111">
        <ele>1886</ele>
        <time>2016-03-31T05:07:18Z</time>
      </trkpt>
      <trkpt lat="44.16573" lon="6.71079">
        <ele>1889</ele>
        <time>2016-03-31T05:09:18Z</time>
      </trkpt>
      <trkpt lat="44.16581" lon="6.71052">
        <ele>1892</ele>
        <time>2016-03-31T05:11:18Z</time>
      </trkpt>
      <trkpt lat="44.1659" lon="6.71012">
        <ele>1896</ele>
        <time>2016-03-31T05:13:18Z</time>
      </trkpt>
      <trkpt lat="44.16596" lon="6.70992">
        <ele>1899</ele>
        <time>2016-03-31T05:15:18Z</time>
      </trkpt>
      <trkpt lat="44.16604" lon="6.70971">
        <ele>1902</ele>
        <time>2016-03-31T05:17:18Z</time>
      </trkpt>
      <trkpt lat="44.16619" lon="6.70942">
        <ele>1907</ele>
        <time>2016-03-31T05:19:18Z</time>
      </trkpt>
      <trkpt lat="44.16629" lon="6.70922">
        <ele>1911</ele>
        <time>2016-03-31T05:21:18Z</time>
      </trkpt>
      <trkpt lat="44.16635" lon="6.70901">
        <ele>1914</ele>
        <time>2016-03-31T05:23:18Z</time>
      </trkpt>
      <trkpt lat="44.1664" lon="6.7087">
        <ele>1917</ele>
        <time>2016-03-31T05:25:18Z</time>
      </trkpt>
      <trkpt lat="44.16644" lon="6.70854">
        <ele>1919</ele>
        <time>2016-03-31T05:27:18Z</time>
      </trkpt>
      <trkpt lat="44.16648" lon="6.7084">
        <ele>1920</ele>
        <time>2016-03-31T05:29:18Z</time>
      </trkpt>
      <trkpt lat="44.16657" lon="6.70824">
        <ele>1922</ele>
        <time>2016-03-31T05:31:18Z</time>
      </trkpt>
      <trkpt lat="44.1666" lon="6.70817">
        <ele>1923</ele>
        <time>2016-03-31T05:33:18Z</time>
      </trkpt>
      <trkpt lat="44.16664" lon="6.70807">
        <ele>1924</ele>
        <time>2016-03-31T05:35:18Z</time>
      </trkpt>
      <trkpt lat="44.16664" lon="6.708">
        <ele>1925</ele>
        <time>2016-03-31T05:37:18Z</time>
      </trkpt>
      <trkpt lat="44.16664" lon="6.70796">
        <ele>1925</ele>
        <time>2016-03-31T05:39:18Z</time>
      </trkpt>
      <trkpt lat="44.16663" lon="6.70791">
        <ele>1926</ele>
        <time>2016-03-31T05:41:18Z</time>
      </trkpt>
      <trkpt lat="44.16659" lon="6.70784">
        <ele>1926</ele>
        <time>2016-03-31T05:43:18Z</time>
      </trkpt>
      <trkpt lat="44.16656" lon="6.7078">
        <ele>1927</ele>
        <time>2016-03-31T05:45:18Z</time>
      </trkpt>
      <trkpt lat="44.16652" lon="6.70778">
        <ele>1927</ele>
        <time>2016-03-31T05:47:18Z</time>
      </trkpt>
      <trkpt lat="44.16644" lon="6.70775">
        <ele>1927</ele>
        <time>2016-03-31T05:49:18Z</time>
      </trkpt>
      <trkpt lat="44.16639" lon="6.70774">
        <ele>1927</ele>
        <time>2016-03-31T05:51:18Z</time>
      </trkpt>
      <trkpt lat="44.16635" lon="6.70773">
        <ele>1927</ele>
        <time>2016-03-31T05:53:18Z</time>
      </trkpt>
      <trkpt lat="44.16622" lon="6.70773">
        <ele>1926</ele>
        <time>2016-03-31T05:55:18Z</time>
      </trkpt>
      <trkpt lat="44.16616" lon="6.70773">
        <ele>1926</ele>
        <time>2016-03-31T05:57:18Z</time>
      </trkpt>
      <trkpt lat="44.16608" lon="6.70775">
        <ele>1925</ele>
        <time>2016-03-31T05:59:18Z</time>
      </trkpt>
      <trkpt lat="44.16604" lon="6.70775">
        <ele>1925</ele>
        <time>2016-03-31T06:01:18Z</time>
      </trkpt>
      <trkpt lat="44.16594" lon="6.70776">
        <ele>1925</ele>
        <time>2016-03-31T06:03:18Z</time>
      </trkpt>
      <trkpt lat="44.16581" lon="6.70779">
        <ele>1924</ele>
        <time>2016-03-31T06:05:18Z</time>
      </trkpt>
      <trkpt lat="44.16572" lon="6.70783">
        <ele>1923</ele>
        <time>2016-03-31T06:07:18Z</time>
      </trkpt>
      <trkpt lat="44.16564" lon="6.70786">
        <ele>1923</ele>
        <time>2016-03-31T06:09:18Z</time>
      </trkpt>
      <trkpt lat="44.16559" lon="6.70787">
        <ele>1923</ele>
        <time>2016-03-31T06:11:18Z</time>
      </trkpt>
      <trkpt lat="44.16555" lon="6.70788">
        <ele>1923</ele>
        <time>2016-03-31T06:13:18Z</time>
      </trkpt>
      <trkpt lat="44.16551" lon="6.70787">
        <ele>1923</ele>
        <time>2016-03-31T06:15:18Z</time>
      </trkpt>
      <trkpt lat="44.16543" lon="6.70785">
        <ele>1924</ele>
        <time>2016-03-31T06:17:18Z</time>
      </trkpt>
      <trkpt lat="44.16539" lon="6.70783">
        <ele>1924</ele>
        <time>2016-03-31T06:19:18Z</time>
      </trkpt>
      <trkpt lat="44.16535" lon="6.70782">
        <ele>1925</ele>
        <time>2016-03-31T06:21:18Z</time>
      </trkpt>
      <trkpt lat="44.16532" lon="6.70781">
        <ele>1925</ele>
        <time>2016-03-31T06:23:18Z</time>
      </trkpt>
      <trkpt lat="44.16527" lon="6.7078">
        <ele>1925</ele>
        <time>2016-03-31T06:25:18Z</time>
      </trkpt>
      <trkpt lat="44.16524" lon="6.7078">
        <ele>1925</ele>
        <time>2016-03-31T06:27:18Z</time>
      </trkpt>
      <trkpt lat="44.16519" lon="6.7078">
        <ele>1926</ele>
        <time>2016-03-31T06:29:18Z</time>
      </trkpt>
      <trkpt lat="44.16515" lon="6.7078">
        <ele>1926</ele>
        <time>2016-03-31T06:31:18Z</time>
      </trkpt>
      <trkpt lat="44.16511" lon="6.70779">
        <ele>1926</ele>
        <time>2016-03-31T06:33:18Z</time>
      </trkpt>
      <trkpt lat="44.16508" lon="6.70777">
        <ele>1927</ele>
        <time>2016-03-31T06:35:18Z</time>
      </trkpt>
      <trkpt lat="44.16505" lon="6.70774">
        <ele>1927</ele>
        <time>2016-03-31T06:37:18Z</time>
      </trkpt>
      <trkpt lat="44.16502" lon="6.70767">
        <ele>1929</ele>
        <time>2016-03-31T06:39:18Z</time>
      </trkpt>
      <trkpt lat="44.16501" lon="6.70762">
        <ele>1930</ele>
        <time>2016-03-31T06:41:18Z</time>
      </trkpt>
      <trkpt lat="44.16499" lon="6.70754">
        <ele>1932</ele>
        <time>2016-03-31T06:43:18Z</time>
      </trkpt>
      <trkpt lat="44.16498" lon="6.70747">
        <ele>1934</ele>
        <time>2016-03-31T06:45:18Z</time>
      </trkpt>
      <trkpt lat="44.16496" lon="6.7074">
        <ele>1935</ele>
        <time>2016-03-31T06:47:18Z</time>
      </trkpt>
      <trkpt lat="44.16493" lon="6.70733">
        <ele>1936</ele>
        <time>2016-03-31T06:49:18Z</time>
      </trkpt>
      <trkpt lat="44.1649" lon="6.70729">
        <ele>1937</ele>
        <time>2016-03-31T06:51:18Z</time>
      </trkpt>
      <trkpt lat="44.16487" lon="6.70726">
        <ele>1937</ele>
        <time>2016-03-31T06:53:18Z</time>
      </trkpt>
      <trkpt lat="44.16482" lon="6.70725">
        <ele>1937</ele>
        <time>2016-03-31T06:55:18Z</time>
      </trkpt>
      <trkpt lat="44.16478" lon="6.70723">
        <ele>1938</ele>
        <time>2016-03-31T06:57:18Z</time>
      </trkpt>
      <trkpt lat="44.1647" lon="6.70724">
        <ele>1937</ele>
        <time>2016-03-31T06:59:18Z</time>
      </trkpt>
      <trkpt lat="44.1646" lon="6.70725">
        <ele>1936</ele>
        <time>2016-03-31T07:01:18Z</time>
      </trkpt>
      <trkpt lat="44.16451" lon="6.70724">
        <ele>1936</ele>
        <time>2016-03-31T07:03:18Z</time>
      </trkpt>
      <trkpt lat="44.16446" lon="6.70723">
        <ele>1936</ele>
        <time>2016-03-31T07:05:18Z</time>
      </trkpt>
      <trkpt lat="44.16439" lon="6.7072">
        <ele>1936</ele>
        <time>2016-03-31T07:07:18Z</time>
      </trkpt>
      <trkpt lat="44.16435" lon="6.70718">
        <ele>1937</ele>
        <time>2016-03-31T07:09:18Z</time>
      </trkpt>
      <trkpt lat="44.16427" lon="6.70717">
        <ele>1936</ele>
        <time>2016-03-31T07:11:18Z</time>
      </trkpt>
      <trkpt lat="44.16421" lon="6.70718">
        <ele>1936</ele>
        <time>2016-03-31T07:13:18Z</time>
      </trkpt>
      <trkpt lat="44.16415" lon="6.70719">
        <ele>1935</ele>
        <time>2016-03-31T07:15:18Z</time>
      </trkpt>
      <trkpt lat="44.16412" lon="6.70718">
        <ele>1935</ele>
        <time>2016-03-31T07:17:18Z</time>
      </trkpt>
      <trkpt lat="44.16411" lon="6.70717">
        <ele>1935</ele>
        <time>2016-03-31T07:19:18Z</time>
      </trkpt>
      <trkpt lat="44.1641" lon="6.70716">
        <ele>1935</ele>
        <time>2016-03-31T07:21:18Z</time>
      </trkpt>
      <trkpt lat="44.16409" lon="6.70715">
        <ele>1935</ele>
        <time>2016-03-31T07:23:18Z</time>
      </trkpt>
      <trkpt lat="44.16408" lon="6.70713">
        <ele>1935</ele>
        <time>2016-03-31T07:25:18Z</time>
      </trkpt>
      <trkpt lat="44.16408" lon="6.70711">
        <ele>1935</ele>
        <time>2016-03-31T07:27:18Z</time>
      </trkpt>
      <trkpt lat="44.16408" lon="6.70709">
        <ele>1936</ele>
        <time>2016-03-31T07:29:18Z</time>
      </trkpt>
      <trkpt lat="44.16408" lon="6.70707">
        <ele>1936</ele>
        <time>2016-03-31T07:31:18Z</time>
      </trkpt>
      <trkpt lat="44.16409" lon="6.70705">
        <ele>1937</ele>
        <time>2016-03-31T07:33:18Z</time>
      </trkpt>
      <trkpt lat="44.1641" lon="6.70704">
        <ele>1938</ele>
        <time>2016-03-31T07:35:18Z</time>
      </trkpt>
      <trkpt lat="44.16412" lon="6.70702">
        <ele>1938</ele>
        <time>2016-03-31T07:37:18Z</time>
      </trkpt>
      <trkpt lat="44.16414" lon="6.70701">
        <ele>1939</ele>
        <time>2016-03-31T07:39:18Z</time>
      </trkpt>
      <trkpt lat="44.16435" lon="6.70695">
        <ele>1942</ele>
        <time>2016-03-31T07:41:18Z</time>
      </trkpt>
      <trkpt lat="44.16444" lon="6.70693">
        <ele>1943</ele>
        <time>2016-03-31T07:43:18Z</time>
      </trkpt>
      <trkpt lat="44.16457" lon="6.70688">
        <ele>1945</ele>
        <time>2016-03-31T07:45:18Z</time>
      </trkpt>
      <trkpt lat="44.16462" lon="6.70684">
        <ele>1946</ele>
        <time>2016-03-31T07:47:18Z</time>
      </trkpt>
      <trkpt lat="44.1647" lon="6.70677">
        <ele>1948</ele>
        <time>2016-03-31T07:49:18Z</time>
      </trkpt>
      <trkpt lat="44.16472" lon="6.70674">
        <ele>1948</ele>
        <time>2016-03-31T07:51:18Z</time>
      </trkpt>
      <trkpt lat="44.16476" lon="6.70667">
        <ele>1950</ele>
        <time>2016-03-31T07:53:18Z</time>
      </trkpt>
      <trkpt lat="44.16479" lon="6.70664">
        <ele>1951</ele>
        <time>2016-03-31T07:55:18Z</time>
      </trkpt>
      <trkpt lat="44.16483" lon="6.70658">
        <ele>1953</ele>
        <time>2016-03-31T07:57:18Z</time>
      </trkpt>
      <trkpt lat="44.16489" lon="6.70655">
        <ele>1954</ele>
        <time>2016-03-31T07:59:18Z</time>
      </trkpt>
      <trkpt lat="44.16495" lon="6.70654">
        <ele>1954</ele>
        <time>2016-03-31T08:01:18Z</time>
      </trkpt>
      <trkpt lat="44.16508" lon="6.70655">
        <ele>1954</ele>
        <time>2016-03-31T08:03:18Z</time>
      </trkpt>
      <trkpt lat="44.16536" lon="6.70659">
        <ele>1953</ele>
        <time>2016-03-31T08:05:18Z</time>
      </trkpt>
      <trkpt lat="44.16553" lon="6.7066">
        <ele>1953</ele>
        <time>2016-03-31T08:07:18Z</time>
      </trkpt>
      <trkpt lat="44.16561" lon="6.70661">
        <ele>1952</ele>
        <time>2016-03-31T08:09:18Z</time>
      </trkpt>
      <trkpt lat="44.16567" lon="6.7066">
        <ele>1953</ele>
        <time>2016-03-31T08:11:18Z</time>
      </trkpt>
      <trkpt lat="44.16569" lon="6.7066">
        <ele>1953</ele>
        <time>2016-03-31T08:13:18Z</time>
      </trkpt>
      <trkpt lat="44.16574" lon="6.70658">
        <ele>1953</ele>
        <time>2016-03-31T08:15:18Z</time>
      </trkpt>
      <trkpt lat="44.16578" lon="6.70657">
        <ele>1954</ele>
        <time>2016-03-31T08:17:18Z</time>
      </trkpt>
      <trkpt lat="44.16582" lon="6.70654">
        <ele>1954</ele>
        <time>2016-03-31T08:19:18Z</time>
      </trkpt>
      <trkpt lat="44.16585" lon="6.7065">
        <ele>1955</ele>
        <time>2016-03-31T08:21:18Z</time>
      </trkpt>
      <trkpt lat="44.16588" lon="6.70647">
        <ele>1956</ele>
        <time>2016-03-31T08:23:18Z</time>
      </trkpt>
      <trkpt lat="44.16591" lon="6.70643">
        <ele>1956</ele>
        <time>2016-03-31T08:25:18Z</time>
      </trkpt>
      <trkpt lat="44.16596" lon="6.70632">
        <ele>1959</ele>
        <time>2016-03-31T08:27:18Z</time>
      </trkpt>
      <trkpt lat="44.16603" lon="6.70617">
        <ele>1962</ele>
        <time>2016-03-31T08:29:18Z</time>
      </trkpt>
      <trkpt lat="44.16612" lon="6.70596">
        <ele>1966</ele>
        <time>2016-03-31T08:31:18Z</time>
      </trkpt>
      <trkpt lat="44.16625" lon="6.70569">
        <ele>1971</ele>
        <time>2016-03-31T08:33:18Z</time>
      </trkpt>
      <trkpt lat="44.16638" lon="6.70549">
        <ele>1975</ele>
        <time>2016-03-31T08:35:18Z</time>
      </trkpt>
      <trkpt lat="44.16651" lon="6.70526">
        <ele>1981</ele>
        <time>2016-03-31T08:37:18Z</time>
      </trkpt>
      <trkpt lat="44.16663" lon="6.70505">
        <ele>1986</ele>
        <time>2016-03-31T08:39:18Z</time>
      </trkpt>
      <trkpt lat="44.16665" lon="6.705">
        <ele>1987</ele>
        <time>2016-03-31T08:41:18Z</time>
      </trkpt>
      <trkpt lat="44.16672" lon="6.70489">
        <ele>1990</ele>
        <time>2016-03-31T08:43:18Z</time>
      </trkpt>
      <trkpt lat="44.16679" lon="6.7048">
        <ele>1992</ele>
        <time>2016-03-31T08:45:18Z</time>
      </trkpt>
      <trkpt lat="44.16684" lon="6.70476">
        <ele>1992</ele>
        <time>2016-03-31T08:47:18Z</time>
      </trkpt>
      <trkpt lat="44.16688" lon="6.70472">
        <ele>1993</ele>
        <time>2016-03-31T08:49:18Z</time>
      </trkpt>
      <trkpt lat="44.16694" lon="6.70468">
        <ele>1994</ele>
        <time>2016-03-31T08:51:18Z</time>
      </trkpt>
      <trkpt lat="44.16708" lon="6.70462">
        <ele>1994</ele>
        <time>2016-03-31T08:53:18Z</time>
      </trkpt>
      <trkpt lat="44.16734" lon="6.7045">
        <ele>1993</ele>
        <time>2016-03-31T08:55:18Z</time>
      </trkpt>
      <trkpt lat="44.16757" lon="6.70436">
        <ele>1995</ele>
        <time>2016-03-31T08:57:18Z</time>
      </trkpt>
      <trkpt lat="44.16768" lon="6.70423">
        <ele>1998</ele>
        <time>2016-03-31T08:59:18Z</time>
      </trkpt>
      <trkpt lat="44.16779" lon="6.7041">
        <ele>2001</ele>
        <time>2016-03-31T09:01:18Z</time>
      </trkpt>
      <trkpt lat="44.16791" lon="6.70398">
        <ele>2003</ele>
        <time>2016-03-31T09:03:18Z</time>
      </trkpt>
      <trkpt lat="44.16807" lon="6.70382">
        <ele>2006</ele>
        <time>2016-03-31T09:05:18Z</time>
      </trkpt>
      <trkpt lat="44.16815" lon="6.70376">
        <ele>2006</ele>
        <time>2016-03-31T09:07:18Z</time>
      </trkpt>
      <trkpt lat="44.1682" lon="6.70375">
        <ele>2006</ele>
        <time>2016-03-31T09:09:18Z</time>
      </trkpt>
      <trkpt lat="44.16822" lon="6.70374">
        <ele>2006</ele>
        <time>2016-03-31T09:11:18Z</time>
      </trkpt>
      <trkpt lat="44.16825" lon="6.70374">
        <ele>2006</ele>
        <time>2016-03-31T09:13:18Z</time>
      </trkpt>
      <trkpt lat="44.16831" lon="6.70376">
        <ele>2005</ele>
        <time>2016-03-31T09:15:18Z</time>
      </trkpt>
      <trkpt lat="44.16834" lon="6.70377">
        <ele>2005</ele>
        <time>2016-03-31T09:17:18Z</time>
      </trkpt>
      <trkpt lat="44.16839" lon="6.70379">
        <ele>2006</ele>
        <time>2016-03-31T09:19:18Z</time>
      </trkpt>
      <trkpt lat="44.16843" lon="6.70384">
        <ele>2007</ele>
        <time>2016-03-31T09:21:18Z</time>
      </trkpt>
      <trkpt lat="44.16846" lon="6.70388">
        <ele>2007</ele>
        <time>2016-03-31T09:23:18Z</time>
      </trkpt>
      <trkpt lat="44.1685" lon="6.70392">
        <ele>2007</ele>
        <time>2016-03-31T09:25:18Z</time>
      </trkpt>
      <trkpt lat="44.16853" lon="6.70397">
        <ele>2007</ele>
        <time>2016-03-31T09:27:18Z</time>
      </trkpt>
      <trkpt lat="44.16859" lon="6.70407">
        <ele>2008</ele>
        <time>2016-03-31T09:29:18Z</time>
      </trkpt>
      <trkpt lat="44.16866" lon="6.70418">
        <ele>2008</ele>
        <time>2016-03-31T09:31:18Z</time>
      </trkpt>
      <trkpt lat="44.16872" lon="6.70421">
        <ele>2009</ele>
        <time>2016-03-31T09:33:18Z</time>
      </trkpt>
      <trkpt lat="44.16873" lon="6.70422">
        <ele>2010</ele>
        <time>2016-03-31T09:35:18Z</time>
      </trkpt>
      <trkpt lat="44.16876" lon="6.70422">
        <ele>2010</ele>
        <time>2016-03-31T09:37:18Z</time>
      </trkpt>
      <trkpt lat="44.16877" lon="6.70421">
        <ele>2011</ele>
        <time>2016-03-31T09:39:18Z</time>
      </trkpt>
      <trkpt lat="44.16879" lon="6.7042">
        <ele>2011</ele>
        <time>2016-03-31T09:41:18Z</time>
      </trkpt>
      <trkpt lat="44.1688" lon="6.70419">
        <ele>2012</ele>
        <time>2016-03-31T09:43:18Z</time>
      </trkpt>
      <trkpt lat="44.16881" lon="6.70418">
        <ele>2012</ele>
        <time>2016-03-31T09:45:18Z</time>
      </trkpt>
      <trkpt lat="44.16882" lon="6.70416">
        <ele>2012</ele>
        <time>2016-03-31T09:47:18Z</time>
      </trkpt>
      <trkpt lat="44.16885" lon="6.7041">
        <ele>2014</ele>
        <time>2016-03-31T09:49:18Z</time>
      </trkpt>
      <trkpt lat="44.16887" lon="6.70406">
        <ele>2015</ele>
        <time>2016-03-31T09:51:18Z</time>
      </trkpt>
      <trkpt lat="44.16888" lon="6.704">
        <ele>2015</ele>
        <time>2016-03-31T09:53:18Z</time>
      </trkpt>
      <trkpt lat="44.16887" lon="6.70394">
        <ele>2016</ele>
        <time>2016-03-31T09:55:18Z</time>
      </trkpt>
      <trkpt lat="44.16887" lon="6.70388">
        <ele>2016</ele>
        <time>2016-03-31T09:57:18Z</time>
      </trkpt>
      <trkpt lat="44.16886" lon="6.70381">
        <ele>2017</ele>
        <time>2016-03-31T09:59:18Z</time>
      </trkpt>
      <trkpt lat="44.16883" lon="6.7037">
        <ele>2017</ele>
        <time>2016-03-31T10:01:18Z</time>
      </trkpt>
      <trkpt lat="44.16879" lon="6.70348">
        <ele>2019</ele>
        <time>2016-03-31T10:03:18Z</time>
      </trkpt>
      <trkpt lat="44.16876" lon="6.70325">
        <ele>2021</ele>
        <time>2016-03-31T10:05:18Z</time>
      </trkpt>
      <trkpt lat="44.16877" lon="6.70302">
        <ele>2023</ele>
        <time>2016-03-31T10:07:18Z</time>
      </trkpt>
      <trkpt lat="44.16876" lon="6.70286">
        <ele>2025</ele>
        <time>2016-03-31T10:09:18Z</time>
      </trkpt>
      <trkpt lat="44.16874" lon="6.70274">
        <ele>2026</ele>
        <time>2016-03-31T10:11:18Z</time>
      </trkpt>
      <trkpt lat="44.16871" lon="6.70263">
        <ele>2027</ele>
        <time>2016-03-31T10:13:18Z</time>
      </trkpt>
      <trkpt lat="44.16864" lon="6.70239">
        <ele>2030</ele>
        <time>2016-03-31T10:15:18Z</time>
      </trkpt>
      <trkpt lat="44.16862" lon="6.70232">
        <ele>2032</ele>
        <time>2016-03-31T10:17:18Z</time>
      </trkpt>
      <trkpt lat="44.1686" lon="6.70226">
        <ele>2033</ele>
        <time>2016-03-31T10:19:18Z</time>
      </trkpt>
      <trkpt lat="44.16858" lon="6.70221">
        <ele>2035</ele>
        <time>2016-03-31T10:21:18Z</time>
      </trkpt>
      <trkpt lat="44.16855" lon="6.70217">
        <ele>2035</ele>
        <time>2016-03-31T10:23:18Z</time>
      </trkpt>
      <trkpt lat="44.16853" lon="6.70214">
        <ele>2036</ele>
        <time>2016-03-31T10:25:18Z</time>
      </trkpt>
      <trkpt lat="44.16851" lon="6.70213">
        <ele>2036</ele>
        <time>2016-03-31T10:27:18Z</time>
      </trkpt>
      <trkpt lat="44.16848" lon="6.70212">
        <ele>2036</ele>
        <time>2016-03-31T10:29:18Z</time>
      </trkpt>
      <trkpt lat="44.16845" lon="6.70213">
        <ele>2036</ele>
        <time>2016-03-31T10:31:18Z</time>
      </trkpt>
      <trkpt lat="44.16841" lon="6.70215">
        <ele>2035</ele>
        <time>2016-03-31T10:33:18Z</time>
      </trkpt>
      <trkpt lat="44.16832" lon="6.70221">
        <ele>2033</ele>
        <time>2016-03-31T10:35:18Z</time>
      </trkpt>
      <trkpt lat="44.16815" lon="6.70232">
        <ele>2034</ele>
        <time>2016-03-31T10:37:18Z</time>
      </trkpt>
      <trkpt lat="44.16802" lon="6.7024">
        <ele>2035</ele>
        <time>2016-03-31T10:39:18Z</time>
      </trkpt>
      <trkpt lat="44.16792" lon="6.70245">
        <ele>2036</ele>
        <time>2016-03-31T10:41:18Z</time>
      </trkpt>
      <trkpt lat="44.16782" lon="6.70249">
        <ele>2037</ele>
        <time>2016-03-31T10:43:18Z</time>
      </trkpt>
      <trkpt lat="44.16776" lon="6.70251">
        <ele>2038</ele>
        <time>2016-03-31T10:45:18Z</time>
      </trkpt>
      <trkpt lat="44.16765" lon="6.70254">
        <ele>2039</ele>
        <time>2016-03-31T10:47:18Z</time>
      </trkpt>
      <trkpt lat="44.16738" lon="6.7026">
        <ele>2042</ele>
        <time>2016-03-31T10:49:18Z</time>
      </trkpt>
      <trkpt lat="44.16719" lon="6.70266">
        <ele>2043</ele>
        <time>2016-03-31T10:51:18Z</time>
      </trkpt>
      <trkpt lat="44.16708" lon="6.70269">
        <ele>2043</ele>
        <time>2016-03-31T10:53:18Z</time>
      </trkpt>
      <trkpt lat="44.1669" lon="6.70274">
        <ele>2044</ele>
        <time>2016-03-31T10:55:18Z</time>
      </trkpt>
      <trkpt lat="44.16678" lon="6.70275">
        <ele>2045</ele>
        <time>2016-03-31T10:57:18Z</time>
      </trkpt>
      <trkpt lat="44.16674" lon="6.70275">
        <ele>2045</ele>
        <time>2016-03-31T10:59:18Z</time>
      </trkpt>
      <trkpt lat="44.16671" lon="6.70273">
        <ele>2046</ele>
        <time>2016-03-31T11:01:18Z</time>
      </trkpt>
      <trkpt lat="44.16668" lon="6.70269">
        <ele>2047</ele>
        <time>2016-03-31T11:03:18Z</time>
      </trkpt>
      <trkpt lat="44.16666" lon="6.70267">
        <ele>2048</ele>
        <time>2016-03-31T11:05:18Z</time>
      </trkpt>
      <trkpt lat="44.16665" lon="6.70264">
        <ele>2048</ele>
        <time>2016-03-31T11:07:18Z</time>
      </trkpt>
      <trkpt lat="44.16664" lon="6.70261">
        <ele>2049</ele>
        <time>2016-03-31T11:09:18Z</time>
      </trkpt>
      <trkpt lat="44.16664" lon="6.70256">
        <ele>2050</ele>
        <time>2016-03-31T11:11:18Z</time>
      </trkpt>
      <trkpt lat="44.16666" lon="6.70251">
        <ele>2051</ele>
        <time>2016-03-31T11:13:18Z</time>
      </trkpt>
      <trkpt lat="44.16669" lon="6.70244">
        <ele>2053</ele>
        <time>2016-03-31T11:15:18Z</time>
      </trkpt>
      <trkpt lat="44.16671" lon="6.7024">
        <ele>2054</ele>
        <time>2016-03-31T11:17:18Z</time>
      </trkpt>
      <trkpt lat="44.16673" lon="6.70236">
        <ele>2056</ele>
        <time>2016-03-31T11:19:18Z</time>
      </trkpt>
      <trkpt lat="44.16675" lon="6.70232">
        <ele>2057</ele>
        <time>2016-03-31T11:21:18Z</time>
      </trkpt>
      <trkpt lat="44.16677" lon="6.70229">
        <ele>2058</ele>
        <time>2016-03-31T11:23:18Z</time>
      </trkpt>
      <trkpt lat="44.1668" lon="6.70224">
        <ele>2059</ele>
        <time>2016-03-31T11:25:18Z</time>
      </trkpt>
      <trkpt lat="44.16683" lon="6.70221">
        <ele>2060</ele>
        <time>2016-03-31T11:27:18Z</time>
      </trkpt>
      <trkpt lat="44.16686" lon="6.70218">
        <ele>2061</ele>
        <time>2016-03-31T11:29:18Z</time>
      </trkpt>
      <trkpt lat="44.16691" lon="6.70217">
        <ele>2061</ele>
        <time>2016-03-31T11:31:18Z</time>
      </trkpt>
      <trkpt lat="44.16698" lon="6.70215">
        <ele>2061</ele>
        <time>2016-03-31T11:33:18Z</time>
      </trkpt>
      <trkpt lat="44.16708" lon="6.70217">
        <ele>2059</ele>
        <time>2016-03-31T11:35:18Z</time>
      </trkpt>
      <trkpt lat="44.16713" lon="6.70218">
        <ele>2058</ele>
        <time>2016-03-31T11:37:18Z</time>
      </trkpt>
      <trkpt lat="44.16723" lon="6.7022">
        <ele>2057</ele>
        <time>2016-03-31T11:39:18Z</time>
      </trkpt>
      <trkpt lat="44.16733" lon="6.7022">
        <ele>2056</ele>
        <time>2016-03-31T11:41:18Z</time>
      </trkpt>
      <trkpt lat="44.16743" lon="6.70218">
        <ele>2055</ele>
        <time>2016-03-31T11:43:18Z</time>
      </trkpt>
      <trkpt lat="44.16754" lon="6.70215">
        <ele>2055</ele>
        <time>2016-03-31T11:45:18Z</time>
      </trkpt>
      <trkpt lat="44.16764" lon="6.7021">
        <ele>2054</ele>
        <time>2016-03-31T11:47:18Z</time>
      </trkpt>
      <trkpt lat="44.16774" lon="6.70201">
        <ele>2054</ele>
        <time>2016-03-31T11:49:18Z</time>
      </trkpt>
      <trkpt lat="44.16779" lon="6.70197">
        <ele>2054</ele>
        <time>2016-03-31T11:51:18Z</time>
      </trkpt>
      <trkpt lat="44.16783" lon="6.70192">
        <ele>2055</ele>
        <time>2016-03-31T11:53:18Z</time>
      </trkpt>
      <trkpt lat="44.16788" lon="6.70185">
        <ele>2056</ele>
        <time>2016-03-31T11:55:18Z</time>
      </trkpt>
      <trkpt lat="44.16797" lon="6.70169">
        <ele>2059</ele>
        <time>2016-03-31T11:57:18Z</time>
      </trkpt>
      <trkpt lat="44.16804" lon="6.70156">
        <ele>2062</ele>
        <time>2016-03-31T11:59:18Z</time>
      </trkpt>
      <trkpt lat="44.1681" lon="6.70141">
        <ele>2065</ele>
        <time>2016-03-31T12:01:18Z</time>
      </trkpt>
      <trkpt lat="44.16815" lon="6.70127">
        <ele>2069</ele>
        <time>2016-03-31T12:03:18Z</time>
      </trkpt>
      <trkpt lat="44.16822" lon="6.70111">
        <ele>2073</ele>
        <time>2016-03-31T12:05:18Z</time>
      </trkpt>
      <trkpt lat="44.16826" lon="6.701">
        <ele>2076</ele>
        <time>2016-03-31T12:07:18Z</time>
      </trkpt>
      <trkpt lat="44.16832" lon="6.70091">
        <ele>2078</ele>
        <time>2016-03-31T12:09:18Z</time>
      </trkpt>
      <trkpt lat="44.16838" lon="6.70085">
        <ele>2079</ele>
        <time>2016-03-31T12:11:18Z</time>
      </trkpt>
      <trkpt lat="44.16846" lon="6.7008">
        <ele>2079</ele>
        <time>2016-03-31T12:13:18Z</time>
      </trkpt>
      <trkpt lat="44.16851" lon="6.70076">
        <ele>2079</ele>
        <time>2016-03-31T12:15:18Z</time>
      </trkpt>
      <trkpt lat="44.16857" lon="6.70074">
        <ele>2079</ele>
        <time>2016-03-31T12:17:18Z</time>
      </trkpt>
      <trkpt lat="44.16869" lon="6.70069">
        <ele>2079</ele>
        <time>2016-03-31T12:19:18Z</time>
      </trkpt>
      <trkpt lat="44.16879" lon="6.70065">
        <ele>2078</ele>
        <time>2016-03-31T12:21:18Z</time>
      </trkpt>
      <trkpt lat="44.16888" lon="6.70061">
        <ele>2078</ele>
        <time>2016-03-31T12:23:18Z</time>
      </trkpt>
      <trkpt lat="44.169" lon="6.70056">
        <ele>2078</ele>
        <time>2016-03-31T12:25:18Z</time>
      </trkpt>
      <trkpt lat="44.16906" lon="6.70053">
        <ele>2078</ele>
        <time>2016-03-31T12:27:18Z</time>
      </trkpt>
      <trkpt lat="44.16912" lon="6.70049">
        <ele>2078</ele>
        <time>2016-03-31T12:29:18Z</time>
      </trkpt>
      <trkpt lat="44.16923" lon="6.70042">
        <ele>2080</ele>
        <time>2016-03-31T12:31:18Z</time>
      </trkpt>
      <trkpt lat="44.16932" lon="6.70037">
        <ele>2081</ele>
        <time>2016-03-31T12:33:18Z</time>
      </trkpt>
      <trkpt lat="44.1694" lon="6.70034">
        <ele>2082</ele>
        <time>2016-03-31T12:35:18Z</time>
      </trkpt>
      <trkpt lat="44.16946" lon="6.70034">
        <ele>2083</ele>
        <time>2016-03-31T12:37:18Z</time>
      </trkpt>
      <trkpt lat="44.16952" lon="6.70034">
        <ele>2083</ele>
        <time>2016-03-31T12:39:18Z</time>
      </trkpt>
      <trkpt lat="44.16963" lon="6.70032">
        <ele>2083</ele>
        <time>2016-03-31T12:41:18Z</time>
      </trkpt>
      <trkpt lat="44.16969" lon="6.70031">
        <ele>2084</ele>
        <time>2016-03-31T12:43:18Z</time>
      </trkpt>
      <trkpt lat="44.16974" lon="6.70028">
        <ele>2085</ele>
        <time>2016-03-31T12:45:18Z</time>
      </trkpt>
      <trkpt lat="44.16978" lon="6.70023">
        <ele>2086</ele>
        <time>2016-03-31T12:47:18Z</time>
      </trkpt>
      <trkpt lat="44.16982" lon="6.70018">
        <ele>2087</ele>
        <time>2016-03-31T12:49:18Z</time>
      </trkpt>
      <trkpt lat="44.16986" lon="6.70012">
        <ele>2089</ele>
        <time>2016-03-31T12:51:18Z</time>
      </trkpt>
      <trkpt lat="44.16988" lon="6.70009">
        <ele>2090</ele>
        <time>2016-03-31T12:53:18Z</time>
      </trkpt>
      <trkpt lat="44.16991" lon="6.70007">
        <ele>2090</ele>
        <time>2016-03-31T12:55:18Z</time>
      </trkpt>
      <trkpt lat="44.16995" lon="6.70003">
        <ele>2091</ele>
        <time>2016-03-31T12:57:18Z</time>
      </trkpt>
      <trkpt lat="44.17" lon="6.7">
        <ele>2092</ele>
        <time>2016-03-31T12:59:18Z</time>
      </trkpt>
      <trkpt lat="44.17005" lon="6.69998">
        <ele>2093</ele>
        <time>2016-03-31T13:01:18Z</time>
      </trkpt>
      <trkpt lat="44.17021" lon="6.69998">
        <ele>2096</ele>
        <time>2016-03-31T13:03:18Z</time>
      </trkpt>
      <trkpt lat="44.17027" lon="6.7">
        <ele>2096</ele>
        <time>2016-03-31T13:05:18Z</time>
      </trkpt>
      <trkpt lat="44.17032" lon="6.70003">
        <ele>2096</ele>
        <time>2016-03-31T13:07:18Z</time>
      </trkpt>
      <trkpt lat="44.17037" lon="6.70005">
        <ele>2096</ele>
        <time>2016-03-31T13:09:18Z</time>
      </trkpt>
      <trkpt lat="44.17044" lon="6.70009">
        <ele>2096</ele>
        <time>2016-03-31T13:11:18Z</time>
      </trkpt>
      <trkpt lat="44.17048" lon="6.70012">
        <ele>2096</ele>
        <time>2016-03-31T13:13:18Z</time>
      </trkpt>
      <trkpt lat="44.17053" lon="6.70016">
        <ele>2096</ele>
        <time>2016-03-31T13:15:18Z</time>
      </trkpt>
      <trkpt lat="44.17062" lon="6.70024">
        <ele>2095</ele>
        <time>2016-03-31T13:17:18Z</time>
      </trkpt>
      <trkpt lat="44.1707" lon="6.70032">
        <ele>2095</ele>
        <time>2016-03-31T13:19:18Z</time>
      </trkpt>
      <trkpt lat="44.17079" lon="6.70039">
        <ele>2094</ele>
        <time>2016-03-31T13:21:18Z</time>
      </trkpt>
      <trkpt lat="44.17087" lon="6.70043">
        <ele>2094</ele>
        <time>2016-03-31T13:23:18Z</time>
      </trkpt>
      <trkpt lat="44.17095" lon="6.70047">
        <ele>2093</ele>
        <time>2016-03-31T13:25:18Z</time>
      </trkpt>
      <trkpt lat="44.17099" lon="6.70047">
        <ele>2093</ele>
        <time>2016-03-31T13:27:18Z</time>
      </trkpt>
      <trkpt lat="44.17106" lon="6.70045">
        <ele>2093</ele>
        <time>2016-03-31T13:29:18Z</time>
      </trkpt>
      <trkpt lat="44.17114" lon="6.70041">
        <ele>2093</ele>
        <time>2016-03-31T13:31:18Z</time>
      </trkpt>
      <trkpt lat="44.1712" lon="6.70038">
        <ele>2093</ele>
        <time>2016-03-31T13:33:18Z</time>
      </trkpt>
      <trkpt lat="44.17125" lon="6.70037">
        <ele>2093</ele>
        <time>2016-03-31T13:35:18Z</time>
      </trkpt>
      <trkpt lat="44.17131" lon="6.70037">
        <ele>2093</ele>
        <time>2016-03-31T13:37:18Z</time>
      </trkpt>
      <trkpt lat="44.1714" lon="6.70038">
        <ele>2092</ele>
        <time>2016-03-31T13:39:18Z</time>
      </trkpt>
      <trkpt lat="44.17151" lon="6.7004">
        <ele>2092</ele>
        <time>2016-03-31T13:41:18Z</time>
      </trkpt>
      <trkpt lat="44.17157" lon="6.7004">
        <ele>2091</ele>
        <time>2016-03-31T13:43:18Z</time>
      </trkpt>
      <trkpt lat="44.17162" lon="6.70039">
        <ele>2091</ele>
        <time>2016-03-31T13:45:18Z</time>
      </trkpt>
      <trkpt lat="44.17166" lon="6.70038">
        <ele>2091</ele>
        <time>2016-03-31T13:47:18Z</time>
      </trkpt>
      <trkpt lat="44.17173" lon="6.70034">
        <ele>2091</ele>
        <time>2016-03-31T13:49:18Z</time>
      </trkpt>
      <trkpt lat="44.17187" lon="6.70022">
        <ele>2091</ele>
        <time>2016-03-31T13:51:18Z</time>
      </trkpt>
      <trkpt lat="44.17196" lon="6.70013">
        <ele>2091</ele>
        <time>2016-03-31T13:53:18Z</time>
      </trkpt>
      <trkpt lat="44.17207" lon="6.70003">
        <ele>2090</ele>
        <time>2016-03-31T13:55:18Z</time>
      </trkpt>
      <trkpt lat="44.17211" lon="6.7">
        <ele>2090</ele>
        <time>2016-03-31T13:57:18Z</time>
      </trkpt>
      <trkpt lat="44.17219" lon="6.69994">
        <ele>2090</ele>
        <time>2016-03-31T13:59:18Z</time>
      </trkpt>
      <trkpt lat="44.17224" lon="6.69991">
        <ele>2090</ele>
        <time>2016-03-31T14:01:18Z</time>
      </trkpt>
      <trkpt lat="44.17233" lon="6.69988">
        <ele>2089</ele>
        <time>2016-03-31T14:03:18Z</time>
      </trkpt>
      <trkpt lat="44.17245" lon="6.69986">
        <ele>2088</ele>
        <time>2016-03-31T14:05:18Z</time>
      </trkpt>
      <trkpt lat="44.17254" lon="6.69987">
        <ele>2087</ele>
        <time>2016-03-31T14:07:18Z</time>
      </trkpt>
      <trkpt lat="44.17268" lon="6.69988">
        <ele>2087</ele>
        <time>2016-03-31T14:09:18Z</time>
      </trkpt>
      <trkpt lat="44.17283" lon="6.69988">
        <ele>2087</ele>
        <time>2016-03-31T14:11:18Z</time>
      </trkpt>
      <trkpt lat="44.17295" lon="6.69986">
        <ele>2087</ele>
        <time>2016-03-31T14:13:18Z</time>
      </trkpt>
      <trkpt lat="44.17303" lon="6.69982">
        <ele>2087</ele>
        <time>2016-03-31T14:15:18Z</time>
      </trkpt>
      <trkpt lat="44.17312" lon="6.69976">
        <ele>2088</ele>
        <time>2016-03-31T14:17:18Z</time>
      </trkpt>
      <trkpt lat="44.17319" lon="6.69968">
        <ele>2088</ele>
        <time>2016-03-31T14:19:18Z</time>
      </trkpt>
      <trkpt lat="44.17325" lon="6.69957">
        <ele>2089</ele>
        <time>2016-03-31T14:21:18Z</time>
      </trkpt>
      <trkpt lat="44.17329" lon="6.69947">
        <ele>2090</ele>
        <time>2016-03-31T14:23:18Z</time>
      </trkpt>
      <trkpt lat="44.17333" lon="6.69935">
        <ele>2090</ele>
        <time>2016-03-31T14:25:18Z</time>
      </trkpt>
      <trkpt lat="44.17342" lon="6.69907">
        <ele>2092</ele>
        <time>2016-03-31T14:27:18Z</time>
      </trkpt>
      <trkpt lat="44.17345" lon="6.69902">
        <ele>2093</ele>
        <time>2016-03-31T14:29:18Z</time>
      </trkpt>
      <trkpt lat="44.17349" lon="6.69897">
        <ele>2093</ele>
        <time>2016-03-31T14:31:18Z</time>
      </trkpt>
      <trkpt lat="44.17352" lon="6.69893">
        <ele>2093</ele>
        <time>2016-03-31T14:33:18Z</time>
      </trkpt>
      <trkpt lat="44.17358" lon="6.69888">
        <ele>2093</ele>
        <time>2016-03-31T14:35:18Z</time>
      </trkpt>
      <trkpt lat="44.17378" lon="6.69879">
        <ele>2092</ele>
        <time>2016-03-31T14:37:18Z</time>
      </trkpt>
      <trkpt lat="44.17396" lon="6.6987">
        <ele>2091</ele>
        <time>2016-03-31T14:39:18Z</time>
      </trkpt>
      <trkpt lat="44.17404" lon="6.69865">
        <ele>2091</ele>
        <time>2016-03-31T14:41:18Z</time>
      </trkpt>
      <trkpt lat="44.17414" lon="6.69857">
        <ele>2091</ele>
        <time>2016-03-31T14:43:18Z</time>
      </trkpt>
      <trkpt lat="44.17423" lon="6.69848">
        <ele>2091</ele>
        <time>2016-03-31T14:45:18Z</time>
      </trkpt>
      <trkpt lat="44.17428" lon="6.69839">
        <ele>2091</ele>
        <time>2016-03-31T14:47:18Z</time>
      </trkpt>
      <trkpt lat="44.17431" lon="6.69829">
        <ele>2091</ele>
        <time>2016-03-31T14:49:18Z</time>
      </trkpt>
      <trkpt lat="44.17434" lon="6.69815">
        <ele>2092</ele>
        <time>2016-03-31T14:51:18Z</time>
      </trkpt>
      <trkpt lat="44.17437" lon="6.69807">
        <ele>2092</ele>
        <time>2016-03-31T14:53:18Z</time>
      </trkpt>
      <trkpt lat="44.17439" lon="6.69802">
        <ele>2092</ele>
        <time>2016-03-31T14:55:18Z</time>
      </trkpt>
      <trkpt lat="44.17442" lon="6.69799">
        <ele>2091</ele>
        <time>2016-03-31T14:57:18Z</time>
      </trkpt>
      <trkpt lat="44.17444" lon="6.69797">
        <ele>2091</ele>
        <time>2016-03-31T14:59:18Z</time>
      </trkpt>
      <trkpt lat="44.17448" lon="6.69796">
        <ele>2090</ele>
        <time>2016-03-31T15:01:18Z</time>
      </trkpt>
      <trkpt lat="44.17454" lon="6.69795">
        <ele>2089</ele>
        <time>2016-03-31T15:03:18Z</time>
      </trkpt>
      <trkpt lat="44.17465" lon="6.69799">
        <ele>2087</ele>
        <time>2016-03-31T15:05:18Z</time>
      </trkpt>
      <trkpt lat="44.17476" lon="6.698">
        <ele>2085</ele>
        <time>2016-03-31T15:07:18Z</time>
      </trkpt>
      <trkpt lat="44.17484" lon="6.69799">
        <ele>2084</ele>
        <time>2016-03-31T15:09:18Z</time>
      </trkpt>
      <trkpt lat="44.1749" lon="6.69796">
        <ele>2083</ele>
        <time>2016-03-31T15:11:18Z</time>
      </trkpt>
      <trkpt lat="44.17505" lon="6.69791">
        <ele>2081</ele>
        <time>2016-03-31T15:13:18Z</time>
      </trkpt>
      <trkpt lat="44.17505" lon="6.69791">
        <ele>2081</ele>
        <time>2016-03-31T15:15:18Z</time>
      </trkpt>
      <trkpt lat="44.17514" lon="6.69784">
        <ele>2081</ele>
        <time>2016-03-31T15:17:18Z</time>
      </trkpt>
      <trkpt lat="44.17516" lon="6.69782">
        <ele>2081</ele>
        <time>2016-03-31T15:19:18Z</time>
      </trkpt>
      <trkpt lat="44.17521" lon="6.69776">
        <ele>2081</ele>
        <time>2016-03-31T15:21:18Z</time>
      </trkpt>
      <trkpt lat="44.17525" lon="6.69768">
        <ele>2081</ele>
        <time>2016-03-31T15:23:18Z</time>
      </trkpt>
      <trkpt lat="44.17525" lon="6.69766">
        <ele>2081</ele>
        <time>2016-03-31T15:25:18Z</time>
      </trkpt>
      <trkpt lat="44.17526" lon="6.69759">
        <ele>2082</ele>
        <time>2016-03-31T15:27:18Z</time>
      </trkpt>
      <trkpt lat="44.17525" lon="6.69753">
        <ele>2082</ele>
        <time>2016-03-31T15:29:18Z</time>
      </trkpt>
      <trkpt lat="44.17523" lon="6.69745">
        <ele>2083</ele>
        <time>2016-03-31T15:31:18Z</time>
      </trkpt>
      <trkpt lat="44.1752" lon="6.69733">
        <ele>2084</ele>
        <time>2016-03-31T15:33:18Z</time>
      </trkpt>
      <trkpt lat="44.17519" lon="6.69727">
        <ele>2084</ele>
        <time>2016-03-31T15:35:18Z</time>
      </trkpt>
      <trkpt lat="44.17519" lon="6.6972">
        <ele>2085</ele>
        <time>2016-03-31T15:37:18Z</time>
      </trkpt>
      <trkpt lat="44.17521" lon="6.6971">
        <ele>2085</ele>
        <time>2016-03-31T15:39:18Z</time>
      </trkpt>
      <trkpt lat="44.17523" lon="6.69697">
        <ele>2085</ele>
        <time>2016-03-31T15:41:18Z</time>
      </trkpt>
      <trkpt lat="44.17528" lon="6.69677">
        <ele>2085</ele>
        <time>2016-03-31T15:43:18Z</time>
      </trkpt>
      <trkpt lat="44.1753" lon="6.69669">
        <ele>2084</ele>
        <time>2016-03-31T15:45:18Z</time>
      </trkpt>
      <trkpt lat="44.17531" lon="6.6966">
        <ele>2084</ele>
        <time>2016-03-31T15:47:18Z</time>
      </trkpt>
      <trkpt lat="44.17532" lon="6.69655">
        <ele>2084</ele>
        <time>2016-03-31T15:49:18Z</time>
      </trkpt>
      <trkpt lat="44.17533" lon="6.6965">
        <ele>2084</ele>
        <time>2016-03-31T15:51:18Z</time>
      </trkpt>
      <trkpt lat="44.17533" lon="6.69643">
        <ele>2084</ele>
        <time>2016-03-31T15:53:18Z</time>
      </trkpt>
      <trkpt lat="44.17532" lon="6.69637">
        <ele>2085</ele>
        <time>2016-03-31T15:55:18Z</time>
      </trkpt>
      <trkpt lat="44.1753" lon="6.6963">
        <ele>2085</ele>
        <time>2016-03-31T15:57:18Z</time>
      </trkpt>
      <trkpt lat="44.17529" lon="6.69625">
        <ele>2086</ele>
        <time>2016-03-31T15:59:18Z</time>
      </trkpt>
      <trkpt lat="44.17523" lon="6.69609">
        <ele>2088</ele>
        <time>2016-03-31T16:01:18Z</time>
      </trkpt>
      <trkpt lat="44.17521" lon="6.69603">
        <ele>2089</ele>
        <time>2016-03-31T16:03:18Z</time>
      </trkpt>
      <trkpt lat="44.17519" lon="6.69591">
        <ele>2090</ele>
        <time>2016-03-31T16:05:18Z</time>
      </trkpt>
      <trkpt lat="44.17518" lon="6.69573">
        <ele>2091</ele>
        <time>2016-03-31T16:07:18Z</time>
      </trkpt>
      <trkpt lat="44.17519" lon="6.69536">
        <ele>2092</ele>
        <time>2016-03-31T16:09:18Z</time>
      </trkpt>
      <trkpt lat="44.1752" lon="6.69524">
        <ele>2092</ele>
        <time>2016-03-31T16:11:18Z</time>
      </trkpt>
      <trkpt lat="44.1752" lon="6.69502">
        <ele>2093</ele>
        <time>2016-03-31T16:13:18Z</time>
      </trkpt>
      <trkpt lat="44.17522" lon="6.69488">
        <ele>2094</ele>
        <time>2016-03-31T16:15:18Z</time>
      </trkpt>
      <trkpt lat="44.17524" lon="6.69483">
        <ele>2093</ele>
        <time>2016-03-31T16:17:18Z</time>
      </trkpt>
      <trkpt lat="44.17526" lon="6.69471">
        <ele>2094</ele>
        <time>2016-03-31T16:19:18Z</time>
      </trkpt>
      <trkpt lat="44.17528" lon="6.69458">
        <ele>2095</ele>
        <time>2016-03-31T16:21:18Z</time>
      </trkpt>
      <trkpt lat="44.17531" lon="6.69448">
        <ele>2095</ele>
        <time>2016-03-31T16:23:18Z</time>
      </trkpt>
      <trkpt lat="44.17533" lon="6.69444">
        <ele>2095</ele>
        <time>2016-03-31T16:25:18Z</time>
      </trkpt>
      <trkpt lat="44.17536" lon="6.69443">
        <ele>2094</ele>
        <time>2016-03-31T16:27:18Z</time>
      </trkpt>
      <trkpt lat="44.17552" lon="6.69443">
        <ele>2089</ele>
        <time>2016-03-31T16:29:18Z</time>
      </trkpt>
      <trkpt lat="44.17558" lon="6.69441">
        <ele>2088</ele>
        <time>2016-03-31T16:31:18Z</time>
      </trkpt>
      <trkpt lat="44.17563" lon="6.69436">
        <ele>2087</ele>
        <time>2016-03-31T16:33:18Z</time>
      </trkpt>
      <trkpt lat="44.17573" lon="6.69424">
        <ele>2086</ele>
        <time>2016-03-31T16:35:18Z</time>
      </trkpt>
      <trkpt lat="44.17588" lon="6.69399">
        <ele>2086</ele>
        <time>2016-03-31T16:37:18Z</time>
      </trkpt>
      <trkpt lat="44.17599" lon="6.69374">
        <ele>2085</ele>
        <time>2016-03-31T16:39:18Z</time>
      </trkpt>
      <trkpt lat="44.17604" lon="6.69361">
        <ele>2085</ele>
        <time>2016-03-31T16:41:18Z</time>
      </trkpt>
      <trkpt lat="44.17605" lon="6.69348">
        <ele>2086</ele>
        <time>2016-03-31T16:43:18Z</time>
      </trkpt>
      <trkpt lat="44.17607" lon="6.6933">
        <ele>2088</ele>
        <time>2016-03-31T16:45:18Z</time>
      </trkpt>
      <trkpt lat="44.17611" lon="6.69306">
        <ele>2088</ele>
        <time>2016-03-31T16:47:18Z</time>
      </trkpt>
      <trkpt lat="44.17616" lon="6.69289">
        <ele>2087</ele>
        <time>2016-03-31T16:49:18Z</time>
      </trkpt>
      <trkpt lat="44.17627" lon="6.69261">
        <ele>2084</ele>
        <time>2016-03-31T16:51:18Z</time>
      </trkpt>
      <trkpt lat="44.17634" lon="6.69247">
        <ele>2082</ele>
        <time>2016-03-31T16:53:18Z</time>
      </trkpt>
      <trkpt lat="44.17638" lon="6.69235">
        <ele>2080</ele>
        <time>2016-03-31T16:55:18Z</time>
      </trkpt>
      <trkpt lat="44.17639" lon="6.69224">
        <ele>2079</ele>
        <time>2016-03-31T16:57:18Z</time>
      </trkpt>
      <trkpt lat="44.17638" lon="6.69217">
        <ele>2080</ele>
        <time>2016-03-31T16:59:18Z</time>
      </trkpt>
      <trkpt lat="44.17636" lon="6.69209">
        <ele>2080</ele>
        <time>2016-03-31T17:01:18Z</time>
      </trkpt>
      <trkpt lat="44.17631" lon="6.69196">
        <ele>2081</ele>
        <time>2016-03-31T17:03:18Z</time>
      </trkpt>
      <trkpt lat="44.17625" lon="6.69181">
        <ele>2083</ele>
        <time>2016-03-31T17:05:18Z</time>
      </trkpt>
      <trkpt lat="44.17621" lon="6.69168">
        <ele>2083</ele>
        <time>2016-03-31T17:07:18Z</time>
      </trkpt>
      <trkpt lat="44.17619" lon="6.69157">
        <ele>2081</ele>
        <time>2016-03-31T17:09:18Z</time>
      </trkpt>
      <trkpt lat="44.1762" lon="6.69153">
        <ele>2079</ele>
        <time>2016-03-31T17:11:18Z</time>
      </trkpt>
      <trkpt lat="44.1762" lon="6.69149">
        <ele>2078</ele>
        <time>2016-03-31T17:13:18Z</time>
      </trkpt>
      <trkpt lat="44.17624" lon="6.69137">
        <ele>2073</ele>
        <time>2016-03-31T17:15:18Z</time>
      </trkpt>
      <trkpt lat="44.17625" lon="6.6913">
        <ele>2070</ele>
        <time>2016-03-31T17:17:18Z</time>
      </trkpt>
      <trkpt lat="44.17625" lon="6.69127">
        <ele>2069</ele>
        <time>2016-03-31T17:19:18Z</time>
      </trkpt>
      <trkpt lat="44.17624" lon="6.69125">
        <ele>2069</ele>
        <time>2016-03-31T17:21:18Z</time>
      </trkpt>
      <trkpt lat="44.17624" lon="6.69123">
        <ele>2068</ele>
        <time>2016-03-31T17:23:18Z</time>
      </trkpt>
      <trkpt lat="44.17622" lon="6.69121">
        <ele>2068</ele>
        <time>2016-03-31T17:25:18Z</time>
      </trkpt>
      <trkpt lat="44.17615" lon="6.69116">
        <ele>2069</ele>
        <time>2016-03-31T17:27:18Z</time>
      </trkpt>
      <trkpt lat="44.17608" lon="6.69111">
        <ele>2070</ele>
        <time>2016-03-31T17:29:18Z</time>
      </trkpt>
      <trkpt lat="44.17599" lon="6.6911">
        <ele>2073</ele>
        <time>2016-03-31T17:31:18Z</time>
      </trkpt>
      <trkpt lat="44.17594" lon="6.69112">
        <ele>2076</ele>
        <time>2016-03-31T17:33:18Z</time>
      </trkpt>
      <trkpt lat="44.17586" lon="6.69116">
        <ele>2080</ele>
        <time>2016-03-31T17:35:18Z</time>
      </trkpt>
      <trkpt lat="44.17584" lon="6.69117">
        <ele>2081</ele>
        <time>2016-03-31T17:37:18Z</time>
      </trkpt>
      <trkpt lat="44.17581" lon="6.69118">
        <ele>2083</ele>
        <time>2016-03-31T17:39:18Z</time>
      </trkpt>
      <trkpt lat="44.17576" lon="6.69118">
        <ele>2085</ele>
        <time>2016-03-31T17:41:18Z</time>
      </trkpt>
      <trkpt lat="44.17572" lon="6.69118">
        <ele>2086</ele>
        <time>2016-03-31T17:43:18Z</time>
      </trkpt>
      <trkpt lat="44.17566" lon="6.69116">
        <ele>2088</ele>
        <time>2016-03-31T17:45:18Z</time>
      </trkpt>
      <trkpt lat="44.17563" lon="6.69114">
        <ele>2088</ele>
        <time>2016-03-31T17:47:18Z</time>
      </trkpt>
      <trkpt lat="44.17558" lon="6.6911">
        <ele>2089</ele>
        <time>2016-03-31T17:49:18Z</time>
      </trkpt>
      <trkpt lat="44.17555" lon="6.69107">
        <ele>2089</ele>
        <time>2016-03-31T17:51:18Z</time>
      </trkpt>
      <trkpt lat="44.17553" lon="6.69103">
        <ele>2088</ele>
        <time>2016-03-31T17:53:18Z</time>
      </trkpt>
      <trkpt lat="44.17552" lon="6.69099">
        <ele>2087</ele>
        <time>2016-03-31T17:55:18Z</time>
      </trkpt>
      <trkpt lat="44.17549" lon="6.69094">
        <ele>2087</ele>
        <time>2016-03-31T17:57:18Z</time>
      </trkpt>
      <trkpt lat="44.17545" lon="6.69087">
        <ele>2086</ele>
        <time>2016-03-31T17:59:18Z</time>
      </trkpt>
      <trkpt lat="44.17542" lon="6.69083">
        <ele>2086</ele>
        <time>2016-03-31T18:01:18Z</time>
      </trkpt>
      <trkpt lat="44.17537" lon="6.69079">
        <ele>2087</ele>
        <time>2016-03-31T18:03:18Z</time>
      </trkpt>
      <trkpt lat="44.1753" lon="6.69078">
        <ele>2090</ele>
        <time>2016-03-31T18:05:18Z</time>
      </trkpt>
      <trkpt lat="44.17524" lon="6.69077">
        <ele>2092</ele>
        <time>2016-03-31T18:07:18Z</time>
      </trkpt>
      <trkpt lat="44.17521" lon="6.69076">
        <ele>2093</ele>
        <time>2016-03-31T18:09:18Z</time>
      </trkpt>
      <trkpt lat="44.17518" lon="6.69075">
        <ele>2094</ele>
        <time>2016-03-31T18:11:18Z</time>
      </trkpt>
      <trkpt lat="44.17512" lon="6.69072">
        <ele>2096</ele>
        <time>2016-03-31T18:13:18Z</time>
      </trkpt>
      <trkpt lat="44.17508" lon="6.69065">
        <ele>2096</ele>
        <time>2016-03-31T18:15:18Z</time>
      </trkpt>
      <trkpt lat="44.17505" lon="6.69061">
        <ele>2097</ele>
        <time>2016-03-31T18:17:18Z</time>
      </trkpt>
      <trkpt lat="44.17499" lon="6.69046">
        <ele>2098</ele>
        <time>2016-03-31T18:19:18Z</time>
      </trkpt>
      <trkpt lat="44.17496" lon="6.69039">
        <ele>2099</ele>
        <time>2016-03-31T18:21:18Z</time>
      </trkpt>
      <trkpt lat="44.17494" lon="6.69034">
        <ele>2100</ele>
        <time>2016-03-31T18:23:18Z</time>
      </trkpt>
      <trkpt lat="44.17493" lon="6.69028">
        <ele>2100</ele>
        <time>2016-03-31T18:25:18Z</time>
      </trkpt>
      <trkpt lat="44.17493" lon="6.69023">
        <ele>2099</ele>
        <time>2016-03-31T18:27:18Z</time>
      </trkpt>
      <trkpt lat="44.17493" lon="6.69019">
        <ele>2099</ele>
        <time>2016-03-31T18:29:18Z</time>
      </trkpt>
      <trkpt lat="44.17493" lon="6.69014">
        <ele>2098</ele>
        <time>2016-03-31T18:31:18Z</time>
      </trkpt>
      <trkpt lat="44.17495" lon="6.69006">
        <ele>2097</ele>
        <time>2016-03-31T18:33:18Z</time>
      </trkpt>
      <trkpt lat="44.17497" lon="6.68999">
        <ele>2096</ele>
        <time>2016-03-31T18:35:18Z</time>
      </trkpt>
      <trkpt lat="44.17501" lon="6.68989">
        <ele>2096</ele>
        <time>2016-03-31T18:37:18Z</time>
      </trkpt>
      <trkpt lat="44.17504" lon="6.68983">
        <ele>2096</ele>
        <time>2016-03-31T18:39:18Z</time>
      </trkpt>
      <trkpt lat="44.17513" lon="6.68973">
        <ele>2094</ele>
        <time>2016-03-31T18:41:18Z</time>
      </trkpt>
      <trkpt lat="44.17524" lon="6.68965">
        <ele>2091</ele>
        <time>2016-03-31T18:43:18Z</time>
      </trkpt>
      <trkpt lat="44.1753" lon="6.68959">
        <ele>2089</ele>
        <time>2016-03-31T18:45:18Z</time>
      </trkpt>
      <trkpt lat="44.17537" lon="6.68952">
        <ele>2087</ele>
        <time>2016-03-31T18:47:18Z</time>
      </trkpt>
      <trkpt lat="44.17543" lon="6.68943">
        <ele>2086</ele>
        <time>2016-03-31T18:49:18Z</time>
      </trkpt>
      <trkpt lat="44.17548" lon="6.68935">
        <ele>2085</ele>
        <time>2016-03-31T18:51:18Z</time>
      </trkpt>
      <trkpt lat="44.17552" lon="6.68931">
        <ele>2084</ele>
        <time>2016-03-31T18:53:18Z</time>
      </trkpt>
      <trkpt lat="44.17562" lon="6.68922">
        <ele>2081</ele>
        <time>2016-03-31T18:55:18Z</time>
      </trkpt>
      <trkpt lat="44.17567" lon="6.68918">
        <ele>2079</ele>
        <time>2016-03-31T18:57:18Z</time>
      </trkpt>
      <trkpt lat="44.17571" lon="6.68912">
        <ele>2078</ele>
        <time>2016-03-31T18:59:18Z</time>
      </trkpt>
      <trkpt lat="44.17574" lon="6.68908">
        <ele>2077</ele>
        <time>2016-03-31T19:01:18Z</time>
      </trkpt>
      <trkpt lat="44.17575" lon="6.68901">
        <ele>2076</ele>
        <time>2016-03-31T19:03:18Z</time>
      </trkpt>
      <trkpt lat="44.17576" lon="6.68892">
        <ele>2076</ele>
        <time>2016-03-31T19:05:18Z</time>
      </trkpt>
      <trkpt lat="44.17575" lon="6.68885">
        <ele>2077</ele>
        <time>2016-03-31T19:07:18Z</time>
      </trkpt>
      <trkpt lat="44.17573" lon="6.68871">
        <ele>2078</ele>
        <time>2016-03-31T19:09:18Z</time>
      </trkpt>
      <trkpt lat="44.17573" lon="6.68863">
        <ele>2078</ele>
        <time>2016-03-31T19:11:18Z</time>
      </trkpt>
      <trkpt lat="44.17574" lon="6.68855">
        <ele>2078</ele>
        <time>2016-03-31T19:13:18Z</time>
      </trkpt>
      <trkpt lat="44.17576" lon="6.68848">
        <ele>2077</ele>
        <time>2016-03-31T19:15:18Z</time>
      </trkpt>
      <trkpt lat="44.1758" lon="6.68836">
        <ele>2075</ele>
        <time>2016-03-31T19:17:18Z</time>
      </trkpt>
      <trkpt lat="44.17582" lon="6.68831">
        <ele>2074</ele>
        <time>2016-03-31T19:19:18Z</time>
      </trkpt>
      <trkpt lat="44.17583" lon="6.68826">
        <ele>2073</ele>
        <time>2016-03-31T19:21:18Z</time>
      </trkpt>
      <trkpt lat="44.17582" lon="6.6882">
        <ele>2073</ele>
        <time>2016-03-31T19:23:18Z</time>
      </trkpt>
      <trkpt lat="44.17581" lon="6.68815">
        <ele>2073</ele>
        <time>2016-03-31T19:25:18Z</time>
      </trkpt>
      <trkpt lat="44.17576" lon="6.68807">
        <ele>2074</ele>
        <time>2016-03-31T19:27:18Z</time>
      </trkpt>
      <trkpt lat="44.17573" lon="6.68803">
        <ele>2075</ele>
        <time>2016-03-31T19:29:18Z</time>
      </trkpt>
      <trkpt lat="44.17569" lon="6.68794">
        <ele>2075</ele>
        <time>2016-03-31T19:31:18Z</time>
      </trkpt>
      <trkpt lat="44.17567" lon="6.68786">
        <ele>2075</ele>
        <time>2016-03-31T19:33:18Z</time>
      </trkpt>
      <trkpt lat="44.17563" lon="6.68762">
        <ele>2074</ele>
        <time>2016-03-31T19:35:18Z</time>
      </trkpt>
      <trkpt lat="44.1756" lon="6.68749">
        <ele>2074</ele>
        <time>2016-03-31T19:37:18Z</time>
      </trkpt>
      <trkpt lat="44.17559" lon="6.6874">
        <ele>2075</ele>
        <time>2016-03-31T19:39:18Z</time>
      </trkpt>
      <trkpt lat="44.17559" lon="6.68734">
        <ele>2075</ele>
        <time>2016-03-31T19:41:18Z</time>
      </trkpt>
      <trkpt lat="44.17559" lon="6.68731">
        <ele>2075</ele>
        <time>2016-03-31T19:43:18Z</time>
      </trkpt>
      <trkpt lat="44.1756" lon="6.68726">
        <ele>2075</ele>
        <time>2016-03-31T19:45:18Z</time>
      </trkpt>
      <trkpt lat="44.17561" lon="6.6872">
        <ele>2074</ele>
        <time>2016-03-31T19:47:18Z</time>
      </trkpt>
      <trkpt lat="44.17565" lon="6.68705">
        <ele>2073</ele>
        <time>2016-03-31T19:49:18Z</time>
      </trkpt>
      <trkpt lat="44.17567" lon="6.687">
        <ele>2072</ele>
        <time>2016-03-31T19:51:18Z</time>
      </trkpt>
      <trkpt lat="44.17569" lon="6.68694">
        <ele>2071</ele>
        <time>2016-03-31T19:53:18Z</time>
      </trkpt>
      <trkpt lat="44.1757" lon="6.68688">
        <ele>2071</ele>
        <time>2016-03-31T19:55:18Z</time>
      </trkpt>
      <trkpt lat="44.17571" lon="6.68683">
        <ele>2071</ele>
        <time>2016-03-31T19:57:18Z</time>
      </trkpt>
      <trkpt lat="44.17572" lon="6.68669">
        <ele>2071</ele>
        <time>2016-03-31T19:59:18Z</time>
      </trkpt>
      <trkpt lat="44.17572" lon="6.68664">
        <ele>2071</ele>
        <time>2016-03-31T20:01:18Z</time>
      </trkpt>
      <trkpt lat="44.17573" lon="6.68656">
        <ele>2071</ele>
        <time>2016-03-31T20:03:18Z</time>
      </trkpt>
      <trkpt lat="44.17575" lon="6.6865">
        <ele>2070</ele>
        <time>2016-03-31T20:05:18Z</time>
      </trkpt>
      <trkpt lat="44.17578" lon="6.68644">
        <ele>2069</ele>
        <time>2016-03-31T20:07:18Z</time>
      </trkpt>
      <trkpt lat="44.17584" lon="6.68632">
        <ele>2068</ele>
        <time>2016-03-31T20:09:18Z</time>
      </trkpt>
      <trkpt lat="44.176" lon="6.68607">
        <ele>2066</ele>
        <time>2016-03-31T20:11:18Z</time>
      </trkpt>
      <trkpt lat="44.17611" lon="6.68591">
        <ele>2065</ele>
        <time>2016-03-31T20:13:18Z</time>
      </trkpt>
      <trkpt lat="44.17614" lon="6.68587">
        <ele>2064</ele>
        <time>2016-03-31T20:15:18Z</time>
      </trkpt>
      <trkpt lat="44.17619" lon="6.68584">
        <ele>2064</ele>
        <time>2016-03-31T20:17:18Z</time>
      </trkpt>
      <trkpt lat="44.17623" lon="6.68583">
        <ele>2063</ele>
        <time>2016-03-31T20:19:18Z</time>
      </trkpt>
      <trkpt lat="44.17625" lon="6.68584">
        <ele>2062</ele>
        <time>2016-03-31T20:21:18Z</time>
      </trkpt>
      <trkpt lat="44.17629" lon="6.68588">
        <ele>2061</ele>
        <time>2016-03-31T20:23:18Z</time>
      </trkpt>
      <trkpt lat="44.17632" lon="6.68591">
        <ele>2061</ele>
        <time>2016-03-31T20:25:18Z</time>
      </trkpt>
      <trkpt lat="44.17637" lon="6.68601">
        <ele>2059</ele>
        <time>2016-03-31T20:27:18Z</time>
      </trkpt>
      <trkpt lat="44.17642" lon="6.68609">
        <ele>2058</ele>
        <time>2016-03-31T20:29:18Z</time>
      </trkpt>
      <trkpt lat="44.17647" lon="6.68614">
        <ele>2056</ele>
        <time>2016-03-31T20:31:18Z</time>
      </trkpt>
      <trkpt lat="44.17652" lon="6.68617">
        <ele>2055</ele>
        <time>2016-03-31T20:33:18Z</time>
      </trkpt>
      <trkpt lat="44.17668" lon="6.68621">
        <ele>2052</ele>
        <time>2016-03-31T20:35:18Z</time>
      </trkpt>
      <trkpt lat="44.17682" lon="6.68623">
        <ele>2048</ele>
        <time>2016-03-31T20:37:18Z</time>
      </trkpt>
      <trkpt lat="44.17695" lon="6.68623">
        <ele>2046</ele>
        <time>2016-03-31T20:39:18Z</time>
      </trkpt>
      <trkpt lat="44.17701" lon="6.68623">
        <ele>2044</ele>
        <time>2016-03-31T20:41:18Z</time>
      </trkpt>
      <trkpt lat="44.17708" lon="6.68617">
        <ele>2043</ele>
        <time>2016-03-31T20:43:18Z</time>
      </trkpt>
      <trkpt lat="44.17711" lon="6.68614">
        <ele>2042</ele>
        <time>2016-03-31T20:45:18Z</time>
      </trkpt>
      <trkpt lat="44.17712" lon="6.6861">
        <ele>2042</ele>
        <time>2016-03-31T20:47:18Z</time>
      </trkpt>
      <trkpt lat="44.17714" lon="6.68599">
        <ele>2042</ele>
        <time>2016-03-31T20:49:18Z</time>
      </trkpt>
      <trkpt lat="44.17714" lon="6.68589">
        <ele>2042</ele>
        <time>2016-03-31T20:51:18Z</time>
      </trkpt>
      <trkpt lat="44.17714" lon="6.68583">
        <ele>2043</ele>
        <time>2016-03-31T20:53:18Z</time>
      </trkpt>
      <trkpt lat="44.17713" lon="6.68579">
        <ele>2043</ele>
        <time>2016-03-31T20:55:18Z</time>
      </trkpt>
      <trkpt lat="44.17712" lon="6.68573">
        <ele>2043</ele>
        <time>2016-03-31T20:57:18Z</time>
      </trkpt>
      <trkpt lat="44.17712" lon="6.6857">
        <ele>2043</ele>
        <time>2016-03-31T20:59:18Z</time>
      </trkpt>
      <trkpt lat="44.17712" lon="6.68566">
        <ele>2043</ele>
        <time>2016-03-31T21:01:18Z</time>
      </trkpt>
      <trkpt lat="44.17713" lon="6.68563">
        <ele>2043</ele>
        <time>2016-03-31T21:03:18Z</time>
      </trkpt>
      <trkpt lat="44.17714" lon="6.68561">
        <ele>2043</ele>
        <time>2016-03-31T21:05:18Z</time>
      </trkpt>
      <trkpt lat="44.17715" lon="6.6856">
        <ele>2042</ele>
        <time>2016-03-31T21:07:18Z</time>
      </trkpt>
      <trkpt lat="44.17717" lon="6.6856">
        <ele>2042</ele>
        <time>2016-03-31T21:09:18Z</time>
      </trkpt>
      <trkpt lat="44.17719" lon="6.68561">
        <ele>2041</ele>
        <time>2016-03-31T21:11:18Z</time>
      </trkpt>
      <trkpt lat="44.17721" lon="6.68563">
        <ele>2041</ele>
        <time>2016-03-31T21:13:18Z</time>
      </trkpt>
      <trkpt lat="44.17722" lon="6.68566">
        <ele>2040</ele>
        <time>2016-03-31T21:15:18Z</time>
      </trkpt>
      <trkpt lat="44.17725" lon="6.68578">
        <ele>2040</ele>
        <time>2016-03-31T21:17:18Z</time>
      </trkpt>
      <trkpt lat="44.17726" lon="6.68583">
        <ele>2039</ele>
        <time>2016-03-31T21:19:18Z</time>
      </trkpt>
      <trkpt lat="44.17726" lon="6.68588">
        <ele>2039</ele>
        <time>2016-03-31T21:21:18Z</time>
      </trkpt>
      <trkpt lat="44.17727" lon="6.68599">
        <ele>2039</ele>
        <time>2016-03-31T21:23:18Z</time>
      </trkpt>
      <trkpt lat="44.17727" lon="6.68606">
        <ele>2039</ele>
        <time>2016-03-31T21:25:18Z</time>
      </trkpt>
      <trkpt lat="44.17728" lon="6.68618">
        <ele>2039</ele>
        <time>2016-03-31T21:27:18Z</time>
      </trkpt>
      <trkpt lat="44.1773" lon="6.68631">
        <ele>2038</ele>
        <time>2016-03-31T21:29:18Z</time>
      </trkpt>
      <trkpt lat="44.17733" lon="6.6865">
        <ele>2038</ele>
        <time>2016-03-31T21:31:18Z</time>
      </trkpt>
      <trkpt lat="44.17736" lon="6.68662">
        <ele>2037</ele>
        <time>2016-03-31T21:33:18Z</time>
      </trkpt>
      <trkpt lat="44.17737" lon="6.68669">
        <ele>2037</ele>
        <time>2016-03-31T21:35:18Z</time>
      </trkpt>
      <trkpt lat="44.17738" lon="6.68676">
        <ele>2037</ele>
        <time>2016-03-31T21:37:18Z</time>
      </trkpt>
      <trkpt lat="44.17737" lon="6.68686">
        <ele>2036</ele>
        <time>2016-03-31T21:39:18Z</time>
      </trkpt>
      <trkpt lat="44.17735" lon="6.68694">
        <ele>2036</ele>
        <time>2016-03-31T21:41:18Z</time>
      </trkpt>
      <trkpt lat="44.17733" lon="6.68699">
        <ele>2037</ele>
        <time>2016-03-31T21:43:18Z</time>
      </trkpt>
      <trkpt lat="44.17731" lon="6.68702">
        <ele>2037</ele>
        <time>2016-03-31T21:45:18Z</time>
      </trkpt>
      <trkpt lat="44.1773" lon="6.68707">
        <ele>2037</ele>
        <time>2016-03-31T21:47:18Z</time>
      </trkpt>
      <trkpt lat="44.17728" lon="6.68711">
        <ele>2037</ele>
        <time>2016-03-31T21:49:18Z</time>
      </trkpt>
      <trkpt lat="44.17728" lon="6.68716">
        <ele>2037</ele>
        <time>2016-03-31T21:51:18Z</time>
      </trkpt>
      <trkpt lat="44.17728" lon="6.68719">
        <ele>2037</ele>
        <time>2016-03-31T21:53:18Z</time>
      </trkpt>
      <trkpt lat="44.17729" lon="6.68722">
        <ele>2037</ele>
        <time>2016-03-31T21:55:18Z</time>
      </trkpt>
      <trkpt lat="44.1773" lon="6.68724">
        <ele>2036</ele>
        <time>2016-03-31T21:57:18Z</time>
      </trkpt>
      <trkpt lat="44.17731" lon="6.68725">
        <ele>2036</ele>
        <time>2016-03-31T21:59:18Z</time>
      </trkpt>
      <trkpt lat="44.17732" lon="6.68725">
        <ele>2036</ele>
        <time>2016-03-31T22:01:18Z</time>
      </trkpt>
      <trkpt lat="44.17734" lon="6.68725">
        <ele>2036</ele>
        <time>2016-03-31T22:03:18Z</time>
      </trkpt>
      <trkpt lat="44.17736" lon="6.68724">
        <ele>2035</ele>
        <time>2016-03-31T22:05:18Z</time>
      </trkpt>
      <trkpt lat="44.17739" lon="6.68719">
        <ele>2035</ele>
        <time>2016-03-31T22:07:18Z</time>
      </trkpt>
      <trkpt lat="44.17743" lon="6.68713">
        <ele>2035</ele>
        <time>2016-03-31T22:09:18Z</time>
      </trkpt>
      <trkpt lat="44.17749" lon="6.68705">
        <ele>2034</ele>
        <time>2016-03-31T22:11:18Z</time>
      </trkpt>
      <trkpt lat="44.17753" lon="6.68699">
        <ele>2032</ele>
        <time>2016-03-31T22:13:18Z</time>
      </trkpt>
      <trkpt lat="44.17759" lon="6.68688">
        <ele>2030</ele>
        <time>2016-03-31T22:15:18Z</time>
      </trkpt>
      <trkpt lat="44.17761" lon="6.68679">
        <ele>2029</ele>
        <time>2016-03-31T22:17:18Z</time>
      </trkpt>
      <trkpt lat="44.17763" lon="6.68667">
        <ele>2029</ele>
        <time>2016-03-31T22:19:18Z</time>
      </trkpt>
      <trkpt lat="44.17765" lon="6.68652">
        <ele>2027</ele>
        <time>2016-03-31T22:21:18Z</time>
      </trkpt>
      <trkpt lat="44.17766" lon="6.68642">
        <ele>2026</ele>
        <time>2016-03-31T22:23:18Z</time>
      </trkpt>
      <trkpt lat="44.17767" lon="6.68634">
        <ele>2025</ele>
        <time>2016-03-31T22:25:18Z</time>
      </trkpt>
      <trkpt lat="44.17768" lon="6.68628">
        <ele>2025</ele>
        <time>2016-03-31T22:27:18Z</time>
      </trkpt>
      <trkpt lat="44.17768" lon="6.68618">
        <ele>2024</ele>
        <time>2016-03-31T22:29:18Z</time>
      </trkpt>
      <trkpt lat="44.17767" lon="6.68609">
        <ele>2024</ele>
        <time>2016-03-31T22:31:18Z</time>
      </trkpt>
      <trkpt lat="44.17765" lon="6.68604">
        <ele>2025</ele>
        <time>2016-03-31T22:33:18Z</time>
      </trkpt>
      <trkpt lat="44.17757" lon="6.6858">
        <ele>2029</ele>
        <time>2016-03-31T22:35:18Z</time>
      </trkpt>
      <trkpt lat="44.17751" lon="6.68564">
        <ele>2032</ele>
        <time>2016-03-31T22:37:18Z</time>
      </trkpt>
      <trkpt lat="44.17749" lon="6.68552">
        <ele>2033</ele>
        <time>2016-03-31T22:39:18Z</time>
      </trkpt>
      <trkpt lat="44.17748" lon="6.68546">
        <ele>2033</ele>
        <time>2016-03-31T22:41:18Z</time>
      </trkpt>
      <trkpt lat="44.17747" lon="6.68534">
        <ele>2033</ele>
        <time>2016-03-31T22:43:18Z</time>
      </trkpt>
      <trkpt lat="44.17747" lon="6.68527">
        <ele>2033</ele>
        <time>2016-03-31T22:45:18Z</time>
      </trkpt>
      <trkpt lat="44.17749" lon="6.68518">
        <ele>2033</ele>
        <time>2016-03-31T22:47:18Z</time>
      </trkpt>
      <trkpt lat="44.17751" lon="6.6851">
        <ele>2032</ele>
        <time>2016-03-31T22:49:18Z</time>
      </trkpt>
      <trkpt lat="44.17755" lon="6.68501">
        <ele>2029</ele>
        <time>2016-03-31T22:51:18Z</time>
      </trkpt>
      <trkpt lat="44.17758" lon="6.68494">
        <ele>2029</ele>
        <time>2016-03-31T22:53:18Z</time>
      </trkpt>
      <trkpt lat="44.17762" lon="6.68485">
        <ele>2028</ele>
        <time>2016-03-31T22:55:18Z</time>
      </trkpt>
      <trkpt lat="44.17764" lon="6.68481">
        <ele>2028</ele>
        <time>2016-03-31T22:57:18Z</time>
      </trkpt>
      <trkpt lat="44.17765" lon="6.68479">
        <ele>2028</ele>
        <time>2016-03-31T22:59:18Z</time>
      </trkpt>
      <trkpt lat="44.17767" lon="6.68477">
        <ele>2027</ele>
        <time>2016-03-31T23:01:18Z</time>
      </trkpt>
      <trkpt lat="44.1777" lon="6.68475">
        <ele>2026</ele>
        <time>2016-03-31T23:03:18Z</time>
      </trkpt>
      <trkpt lat="44.17777" lon="6.68472">
        <ele>2023</ele>
        <time>2016-03-31T23:05:18Z</time>
      </trkpt>
      <trkpt lat="44.1778" lon="6.68471">
        <ele>2021</ele>
        <time>2016-03-31T23:07:18Z</time>
      </trkpt>
      <trkpt lat="44.17784" lon="6.68469">
        <ele>2019</ele>
        <time>2016-03-31T23:09:18Z</time>
      </trkpt>
      <trkpt lat="44.17787" lon="6.68466">
        <ele>2018</ele>
        <time>2016-03-31T23:11:18Z</time>
      </trkpt>
      <trkpt lat="44.1779" lon="6.68463">
        <ele>2017</ele>
        <time>2016-03-31T23:13:18Z</time>
      </trkpt>
      <trkpt lat="44.17795" lon="6.68457">
        <ele>2015</ele>
        <time>2016-03-31T23:15:18Z</time>
      </trkpt>
      <trkpt lat="44.17798" lon="6.68452">
        <ele>2015</ele>
        <time>2016-03-31T23:17:18Z</time>
      </trkpt>
      <trkpt lat="44.17801" lon="6.68447">
        <ele>2014</ele>
        <time>2016-03-31T23:19:18Z</time>
      </trkpt>
      <trkpt lat="44.17804" lon="6.68441">
        <ele>2013</ele>
        <time>2016-03-31T23:21:18Z</time>
      </trkpt>
      <trkpt lat="44.17806" lon="6.68434">
        <ele>2013</ele>
        <time>2016-03-31T23:23:18Z</time>
      </trkpt>
      <trkpt lat="44.17807" lon="6.68429">
        <ele>2013</ele>
        <time>2016-03-31T23:25:18Z</time>
      </trkpt>
      <trkpt lat="44.17808" lon="6.68424">
        <ele>2013</ele>
        <time>2016-03-31T23:27:18Z</time>
      </trkpt>
      <trkpt lat="44.17808" lon="6.68419">
        <ele>2014</ele>
        <time>2016-03-31T23:29:18Z</time>
      </trkpt>
      <trkpt lat="44.17809" lon="6.68412">
        <ele>2014</ele>
        <time>2016-03-31T23:31:18Z</time>
      </trkpt>
      <trkpt lat="44.1781" lon="6.684">
        <ele>2015</ele>
        <time>2016-03-31T23:33:18Z</time>
      </trkpt>
      <trkpt lat="44.17812" lon="6.68388">
        <ele>2016</ele>
        <time>2016-03-31T23:35:18Z</time>
      </trkpt>
      <trkpt lat="44.17813" lon="6.68382">
        <ele>2016</ele>
        <time>2016-03-31T23:37:18Z</time>
      </trkpt>
      <trkpt lat="44.17814" lon="6.68375">
        <ele>2016</ele>
        <time>2016-03-31T23:39:18Z</time>
      </trkpt>
      <trkpt lat="44.17815" lon="6.68369">
        <ele>2017</ele>
        <time>2016-03-31T23:41:18Z</time>
      </trkpt>
      <trkpt lat="44.17816" lon="6.68358">
        <ele>2017</ele>
        <time>2016-03-31T23:43:18Z</time>
      </trkpt>
      <trkpt lat="44.17817" lon="6.68353">
        <ele>2017</ele>
        <time>2016-03-31T23:45:18Z</time>
      </trkpt>
      <trkpt lat="44.17816" lon="6.68349">
        <ele>2018</ele>
        <time>2016-03-31T23:47:18Z</time>
      </trkpt>
      <trkpt lat="44.17816" lon="6.68346">
        <ele>2019</ele>
        <time>2016-03-31T23:49:18Z</time>
      </trkpt>
      <trkpt lat="44.17816" lon="6.68338">
        <ele>2020</ele>
        <time>2016-03-31T23:51:18Z</time>
      </trkpt>
      <trkpt lat="44.17816" lon="6.68334">
        <ele>2020</ele>
        <time>2016-03-31T23:53:18Z</time>
      </trkpt>
      <trkpt lat="44.17817" lon="6.68332">
        <ele>2020</ele>
        <time>2016-03-31T23:55:18Z</time>
      </trkpt>
      <trkpt lat="44.17818" lon="6.68328">
        <ele>2020</ele>
        <time>2016-03-31T23:57:18Z</time>
      </trkpt>
      <trkpt lat="44.17819" lon="6.68325">
        <ele>2019</ele>
        <time>2016-03-31T23:59:18Z</time>
      </trkpt>
      <trkpt lat="44.1782" lon="6.68323">
        <ele>2019</ele>
        <time>2016-04-01T00:01:18Z</time>
      </trkpt>
      <trkpt lat="44.17822" lon="6.68321">
        <ele>2018</ele>
        <time>2016-04-01T00:03:18Z</time>
      </trkpt>
      <trkpt lat="44.17827" lon="6.68318">
        <ele>2015</ele>
        <time>2016-04-01T00:05:18Z</time>
      </trkpt>
      <trkpt lat="44.17832" lon="6.68316">
        <ele>2013</ele>
        <time>2016-04-01T00:07:18Z</time>
      </trkpt>
      <trkpt lat="44.17835" lon="6.68314">
        <ele>2011</ele>
        <time>2016-04-01T00:09:18Z</time>
      </trkpt>
      <trkpt lat="44.17838" lon="6.68311">
        <ele>2010</ele>
        <time>2016-04-01T00:11:18Z</time>
      </trkpt>
      <trkpt lat="44.17841" lon="6.68307">
        <ele>2008</ele>
        <time>2016-04-01T00:13:18Z</time>
      </trkpt>
      <trkpt lat="44.17844" lon="6.68303">
        <ele>2007</ele>
        <time>2016-04-01T00:15:18Z</time>
      </trkpt>
      <trkpt lat="44.17848" lon="6.68295">
        <ele>2006</ele>
        <time>2016-04-01T00:17:18Z</time>
      </trkpt>
      <trkpt lat="44.17849" lon="6.6829">
        <ele>2005</ele>
        <time>2016-04-01T00:19:18Z</time>
      </trkpt>
      <trkpt lat="44.17851" lon="6.68284">
        <ele>2005</ele>
        <time>2016-04-01T00:21:18Z</time>
      </trkpt>
      <trkpt lat="44.17851" lon="6.68279">
        <ele>2005</ele>
        <time>2016-04-01T00:23:18Z</time>
      </trkpt>
      <trkpt lat="44.17851" lon="6.6827">
        <ele>2006</ele>
        <time>2016-04-01T00:25:18Z</time>
      </trkpt>
      <trkpt lat="44.1785" lon="6.68262">
        <ele>2007</ele>
        <time>2016-04-01T00:27:18Z</time>
      </trkpt>
      <trkpt lat="44.1785" lon="6.68255">
        <ele>2007</ele>
        <time>2016-04-01T00:29:18Z</time>
      </trkpt>
      <trkpt lat="44.1785" lon="6.68251">
        <ele>2007</ele>
        <time>2016-04-01T00:31:18Z</time>
      </trkpt>
      <trkpt lat="44.17851" lon="6.68247">
        <ele>2007</ele>
        <time>2016-04-01T00:33:18Z</time>
      </trkpt>
      <trkpt lat="44.17853" lon="6.6824">
        <ele>2006</ele>
        <time>2016-04-01T00:35:18Z</time>
      </trkpt>
      <trkpt lat="44.17856" lon="6.68234">
        <ele>2004</ele>
        <time>2016-04-01T00:37:18Z</time>
      </trkpt>
      <trkpt lat="44.1786" lon="6.68221">
        <ele>2002</ele>
        <time>2016-04-01T00:39:18Z</time>
      </trkpt>
      <trkpt lat="44.17861" lon="6.68212">
        <ele>2002</ele>
        <time>2016-04-01T00:41:18Z</time>
      </trkpt>
      <trkpt lat="44.17862" lon="6.68205">
        <ele>2001</ele>
        <time>2016-04-01T00:43:18Z</time>
      </trkpt>
      <trkpt lat="44.17862" lon="6.682">
        <ele>2001</ele>
        <time>2016-04-01T00:45:18Z</time>
      </trkpt>
      <trkpt lat="44.17862" lon="6.68192">
        <ele>2001</ele>
        <time>2016-04-01T00:47:18Z</time>
      </trkpt>
      <trkpt lat="44.17862" lon="6.68183">
        <ele>2001</ele>
        <time>2016-04-01T00:49:18Z</time>
      </trkpt>
      <trkpt lat="44.17864" lon="6.68175">
        <ele>2000</ele>
        <time>2016-04-01T00:51:18Z</time>
      </trkpt>
      <trkpt lat="44.17867" lon="6.68165">
        <ele>1999</ele>
        <time>2016-04-01T00:53:18Z</time>
      </trkpt>
      <trkpt lat="44.1787" lon="6.68158">
        <ele>1998</ele>
        <time>2016-04-01T00:55:18Z</time>
      </trkpt>
      <trkpt lat="44.17873" lon="6.68152">
        <ele>1996</ele>
        <time>2016-04-01T00:57:18Z</time>
      </trkpt>
      <trkpt lat="44.17876" lon="6.68145">
        <ele>1995</ele>
        <time>2016-04-01T00:59:18Z</time>
      </trkpt>
      <trkpt lat="44.17877" lon="6.68141">
        <ele>1994</ele>
        <time>2016-04-01T01:01:18Z</time>
      </trkpt>
      <trkpt lat="44.17877" lon="6.68136">
        <ele>1994</ele>
        <time>2016-04-01T01:03:18Z</time>
      </trkpt>
      <trkpt lat="44.17877" lon="6.68131">
        <ele>1994</ele>
        <time>2016-04-01T01:05:18Z</time>
      </trkpt>
      <trkpt lat="44.17876" lon="6.68127">
        <ele>1995</ele>
        <time>2016-04-01T01:07:18Z</time>
      </trkpt>
      <trkpt lat="44.17875" lon="6.68122">
        <ele>1995</ele>
        <time>2016-04-01T01:09:18Z</time>
      </trkpt>
      <trkpt lat="44.17873" lon="6.68119">
        <ele>1996</ele>
        <time>2016-04-01T01:11:18Z</time>
      </trkpt>
      <trkpt lat="44.1787" lon="6.68113">
        <ele>1997</ele>
        <time>2016-04-01T01:13:18Z</time>
      </trkpt>
      <trkpt lat="44.17867" lon="6.68107">
        <ele>1998</ele>
        <time>2016-04-01T01:15:18Z</time>
      </trkpt>
      <trkpt lat="44.17865" lon="6.68101">
        <ele>1999</ele>
        <time>2016-04-01T01:17:18Z</time>
      </trkpt>
      <trkpt lat="44.17866" lon="6.68095">
        <ele>1998</ele>
        <time>2016-04-01T01:19:18Z</time>
      </trkpt>
      <trkpt lat="44.17868" lon="6.68084">
        <ele>1997</ele>
        <time>2016-04-01T01:21:18Z</time>
      </trkpt>
      <trkpt lat="44.1787" lon="6.68076">
        <ele>1997</ele>
        <time>2016-04-01T01:23:18Z</time>
      </trkpt>
      <trkpt lat="44.17873" lon="6.68066">
        <ele>1996</ele>
        <time>2016-04-01T01:25:18Z</time>
      </trkpt>
      <trkpt lat="44.17876" lon="6.68055">
        <ele>1996</ele>
        <time>2016-04-01T01:27:18Z</time>
      </trkpt>
      <trkpt lat="44.1788" lon="6.68043">
        <ele>1995</ele>
        <time>2016-04-01T01:29:18Z</time>
      </trkpt>
      <trkpt lat="44.17883" lon="6.6803">
        <ele>1994</ele>
        <time>2016-04-01T01:31:18Z</time>
      </trkpt>
      <trkpt lat="44.17888" lon="6.68016">
        <ele>1993</ele>
        <time>2016-04-01T01:33:18Z</time>
      </trkpt>
      <trkpt lat="44.17892" lon="6.68006">
        <ele>1993</ele>
        <time>2016-04-01T01:35:18Z</time>
      </trkpt>
      <trkpt lat="44.17897" lon="6.67997">
        <ele>1992</ele>
        <time>2016-04-01T01:37:18Z</time>
      </trkpt>
      <trkpt lat="44.17901" lon="6.67992">
        <ele>1991</ele>
        <time>2016-04-01T01:39:18Z</time>
      </trkpt>
      <trkpt lat="44.17904" lon="6.67988">
        <ele>1990</ele>
        <time>2016-04-01T01:41:18Z</time>
      </trkpt>
      <trkpt lat="44.17908" lon="6.67985">
        <ele>1989</ele>
        <time>2016-04-01T01:43:18Z</time>
      </trkpt>
      <trkpt lat="44.17917" lon="6.67982">
        <ele>1987</ele>
        <time>2016-04-01T01:45:18Z</time>
      </trkpt>
      <trkpt lat="44.17929" lon="6.67979">
        <ele>1985</ele>
        <time>2016-04-01T01:47:18Z</time>
      </trkpt>
      <trkpt lat="44.17938" lon="6.67977">
        <ele>1984</ele>
        <time>2016-04-01T01:49:18Z</time>
      </trkpt>
      <trkpt lat="44.17946" lon="6.67977">
        <ele>1983</ele>
        <time>2016-04-01T01:51:18Z</time>
      </trkpt>
      <trkpt lat="44.17959" lon="6.67978">
        <ele>1980</ele>
        <time>2016-04-01T01:53:18Z</time>
      </trkpt>
      <trkpt lat="44.17975" lon="6.67982">
        <ele>1977</ele>
        <time>2016-04-01T01:55:18Z</time>
      </trkpt>
      <trkpt lat="44.17986" lon="6.67983">
        <ele>1975</ele>
        <time>2016-04-01T01:57:18Z</time>
      </trkpt>
      <trkpt lat="44.17992" lon="6.67983">
        <ele>1974</ele>
        <time>2016-04-01T01:59:18Z</time>
      </trkpt>
      <trkpt lat="44.17996" lon="6.67982">
        <ele>1973</ele>
        <time>2016-04-01T02:01:18Z</time>
      </trkpt>
      <trkpt lat="44.18002" lon="6.67981">
        <ele>1972</ele>
        <time>2016-04-01T02:03:18Z</time>
      </trkpt>
      <trkpt lat="44.1801" lon="6.67978">
        <ele>1969</ele>
        <time>2016-04-01T02:05:18Z</time>
      </trkpt>
      <trkpt lat="44.18021" lon="6.67971">
        <ele>1966</ele>
        <time>2016-04-01T02:07:18Z</time>
      </trkpt>
      <trkpt lat="44.18027" lon="6.67966">
        <ele>1964</ele>
        <time>2016-04-01T02:09:18Z</time>
      </trkpt>
      <trkpt lat="44.18033" lon="6.67959">
        <ele>1963</ele>
        <time>2016-04-01T02:11:18Z</time>
      </trkpt>
      <trkpt lat="44.18041" lon="6.67945">
        <ele>1962</ele>
        <time>2016-04-01T02:13:18Z</time>
      </trkpt>
      <trkpt lat="44.18049" lon="6.67929">
        <ele>1962</ele>
        <time>2016-04-01T02:15:18Z</time>
      </trkpt>
      <trkpt lat="44.18054" lon="6.67917">
        <ele>1962</ele>
        <time>2016-04-01T02:17:18Z</time>
      </trkpt>
      <trkpt lat="44.18056" lon="6.67912">
        <ele>1961</ele>
        <time>2016-04-01T02:19:18Z</time>
      </trkpt>
      <trkpt lat="44.1806" lon="6.67901">
        <ele>1959</ele>
        <time>2016-04-01T02:21:18Z</time>
      </trkpt>
      <trkpt lat="44.18063" lon="6.67889">
        <ele>1958</ele>
        <time>2016-04-01T02:23:18Z</time>
      </trkpt>
      <trkpt lat="44.18063" lon="6.67881">
        <ele>1959</ele>
        <time>2016-04-01T02:25:18Z</time>
      </trkpt>
      <trkpt lat="44.18063" lon="6.67867">
        <ele>1959</ele>
        <time>2016-04-01T02:27:18Z</time>
      </trkpt>
      <trkpt lat="44.18062" lon="6.6786">
        <ele>1959</ele>
        <time>2016-04-01T02:29:18Z</time>
      </trkpt>
      <trkpt lat="44.18061" lon="6.67855">
        <ele>1960</ele>
        <time>2016-04-01T02:31:18Z</time>
      </trkpt>
      <trkpt lat="44.18059" lon="6.67847">
        <ele>1961</ele>
        <time>2016-04-01T02:33:18Z</time>
      </trkpt>
      <trkpt lat="44.18056" lon="6.67837">
        <ele>1962</ele>
        <time>2016-04-01T02:35:18Z</time>
      </trkpt>
      <trkpt lat="44.18049" lon="6.67823">
        <ele>1965</ele>
        <time>2016-04-01T02:37:18Z</time>
      </trkpt>
      <trkpt lat="44.18046" lon="6.67813">
        <ele>1966</ele>
        <time>2016-04-01T02:39:18Z</time>
      </trkpt>
      <trkpt lat="44.18046" lon="6.67807">
        <ele>1966</ele>
        <time>2016-04-01T02:41:18Z</time>
      </trkpt>
      <trkpt lat="44.18045" lon="6.67801">
        <ele>1966</ele>
        <time>2016-04-01T02:43:18Z</time>
      </trkpt>
      <trkpt lat="44.18048" lon="6.67788">
        <ele>1965</ele>
        <time>2016-04-01T02:45:18Z</time>
      </trkpt>
      <trkpt lat="44.18054" lon="6.67765">
        <ele>1963</ele>
        <time>2016-04-01T02:47:18Z</time>
      </trkpt>
      <trkpt lat="44.1806" lon="6.67749">
        <ele>1961</ele>
        <time>2016-04-01T02:49:18Z</time>
      </trkpt>
      <trkpt lat="44.18065" lon="6.67732">
        <ele>1960</ele>
        <time>2016-04-01T02:51:18Z</time>
      </trkpt>
      <trkpt lat="44.18069" lon="6.67723">
        <ele>1959</ele>
        <time>2016-04-01T02:53:18Z</time>
      </trkpt>
      <trkpt lat="44.18075" lon="6.67711">
        <ele>1958</ele>
        <time>2016-04-01T02:55:18Z</time>
      </trkpt>
      <trkpt lat="44.18081" lon="6.67698">
        <ele>1957</ele>
        <time>2016-04-01T02:57:18Z</time>
      </trkpt>
      <trkpt lat="44.18085" lon="6.67682">
        <ele>1957</ele>
        <time>2016-04-01T02:59:18Z</time>
      </trkpt>
      <trkpt lat="44.18089" lon="6.67667">
        <ele>1957</ele>
        <time>2016-04-01T03:01:18Z</time>
      </trkpt>
      <trkpt lat="44.18091" lon="6.67656">
        <ele>1956</ele>
        <time>2016-04-01T03:03:18Z</time>
      </trkpt>
      <trkpt lat="44.18091" lon="6.67644">
        <ele>1955</ele>
        <time>2016-04-01T03:05:18Z</time>
      </trkpt>
      <trkpt lat="44.1809" lon="6.67631">
        <ele>1955</ele>
        <time>2016-04-01T03:07:18Z</time>
      </trkpt>
      <trkpt lat="44.18088" lon="6.67615">
        <ele>1955</ele>
        <time>2016-04-01T03:09:18Z</time>
      </trkpt>
      <trkpt lat="44.18089" lon="6.67585">
        <ele>1953</ele>
        <time>2016-04-01T03:11:18Z</time>
      </trkpt>
      <trkpt lat="44.18091" lon="6.67557">
        <ele>1952</ele>
        <time>2016-04-01T03:13:18Z</time>
      </trkpt>
      <trkpt lat="44.18096" lon="6.67538">
        <ele>1950</ele>
        <time>2016-04-01T03:15:18Z</time>
      </trkpt>
      <trkpt lat="44.18101" lon="6.67523">
        <ele>1948</ele>
        <time>2016-04-01T03:17:18Z</time>
      </trkpt>
      <trkpt lat="44.1811" lon="6.67496">
        <ele>1944</ele>
        <time>2016-04-01T03:19:18Z</time>
      </trkpt>
      <trkpt lat="44.18112" lon="6.67474">
        <ele>1945</ele>
        <time>2016-04-01T03:21:18Z</time>
      </trkpt>
      <trkpt lat="44.18118" lon="6.67448">
        <ele>1944</ele>
        <time>2016-04-01T03:23:18Z</time>
      </trkpt>
      <trkpt lat="44.18125" lon="6.67427">
        <ele>1944</ele>
        <time>2016-04-01T03:25:18Z</time>
      </trkpt>
      <trkpt lat="44.18136" lon="6.67401">
        <ele>1943</ele>
        <time>2016-04-01T03:27:18Z</time>
      </trkpt>
      <trkpt lat="44.18152" lon="6.67367">
        <ele>1942</ele>
        <time>2016-04-01T03:29:18Z</time>
      </trkpt>
      <trkpt lat="44.18162" lon="6.67343">
        <ele>1941</ele>
        <time>2016-04-01T03:31:18Z</time>
      </trkpt>
      <trkpt lat="44.18167" lon="6.67329">
        <ele>1942</ele>
        <time>2016-04-01T03:33:18Z</time>
      </trkpt>
      <trkpt lat="44.18171" lon="6.67317">
        <ele>1942</ele>
        <time>2016-04-01T03:35:18Z</time>
      </trkpt>
      <trkpt lat="44.18173" lon="6.67305">
        <ele>1943</ele>
        <time>2016-04-01T03:37:18Z</time>
      </trkpt>
      <trkpt lat="44.18174" lon="6.67292">
        <ele>1945</ele>
        <time>2016-04-01T03:39:18Z</time>
      </trkpt>
      <trkpt lat="44.18175" lon="6.67284">
        <ele>1946</ele>
        <time>2016-04-01T03:41:18Z</time>
      </trkpt>
      <trkpt lat="44.18178" lon="6.67275">
        <ele>1946</ele>
        <time>2016-04-01T03:43:18Z</time>
      </trkpt>
      <trkpt lat="44.1818" lon="6.67271">
        <ele>1946</ele>
        <time>2016-04-01T03:45:18Z</time>
      </trkpt>
      <trkpt lat="44.18186" lon="6.67267">
        <ele>1946</ele>
        <time>2016-04-01T03:47:18Z</time>
      </trkpt>
      <trkpt lat="44.18192" lon="6.67265">
        <ele>1944</ele>
        <time>2016-04-01T03:49:18Z</time>
      </trkpt>
      <trkpt lat="44.18198" lon="6.67264">
        <ele>1943</ele>
        <time>2016-04-01T03:51:18Z</time>
      </trkpt>
      <trkpt lat="44.18206" lon="6.67268">
        <ele>1940</ele>
        <time>2016-04-01T03:53:18Z</time>
      </trkpt>
      <trkpt lat="44.18214" lon="6.6727">
        <ele>1938</ele>
        <time>2016-04-01T03:55:18Z</time>
      </trkpt>
      <trkpt lat="44.18223" lon="6.67271">
        <ele>1935</ele>
        <time>2016-04-01T03:57:18Z</time>
      </trkpt>
      <trkpt lat="44.18232" lon="6.67269">
        <ele>1933</ele>
        <time>2016-04-01T03:59:18Z</time>
      </trkpt>
      <trkpt lat="44.1824" lon="6.67267">
        <ele>1932</ele>
        <time>2016-04-01T04:01:18Z</time>
      </trkpt>
      <trkpt lat="44.18248" lon="6.67261">
        <ele>1931</ele>
        <time>2016-04-01T04:03:18Z</time>
      </trkpt>
      <trkpt lat="44.1826" lon="6.67253">
        <ele>1930</ele>
        <time>2016-04-01T04:05:18Z</time>
      </trkpt>
      <trkpt lat="44.18269" lon="6.67248">
        <ele>1929</ele>
        <time>2016-04-01T04:07:18Z</time>
      </trkpt>
      <trkpt lat="44.18317" lon="6.6723">
        <ele>1924</ele>
        <time>2016-04-01T04:09:18Z</time>
      </trkpt>
      <trkpt lat="44.18325" lon="6.67226">
        <ele>1924</ele>
        <time>2016-04-01T04:11:18Z</time>
      </trkpt>
      <trkpt lat="44.18331" lon="6.67222">
        <ele>1925</ele>
        <time>2016-04-01T04:13:18Z</time>
      </trkpt>
      <trkpt lat="44.18339" lon="6.67213">
        <ele>1927</ele>
        <time>2016-04-01T04:15:18Z</time>
      </trkpt>
      <trkpt lat="44.18351" lon="6.67197">
        <ele>1931</ele>
        <time>2016-04-01T04:17:18Z</time>
      </trkpt>
      <trkpt lat="44.18364" lon="6.67177">
        <ele>1936</ele>
        <time>2016-04-01T04:19:18Z</time>
      </trkpt>
      <trkpt lat="44.18373" lon="6.6717">
        <ele>1935</ele>
        <time>2016-04-01T04:21:18Z</time>
      </trkpt>
      <trkpt lat="44.18379" lon="6.67166">
        <ele>1935</ele>
        <time>2016-04-01T04:23:18Z</time>
      </trkpt>
      <trkpt lat="44.18384" lon="6.67163">
        <ele>1934</ele>
        <time>2016-04-01T04:25:18Z</time>
      </trkpt>
      <trkpt lat="44.18416" lon="6.67151">
        <ele>1926</ele>
        <time>2016-04-01T04:27:18Z</time>
      </trkpt>
      <trkpt lat="44.18423" lon="6.67148">
        <ele>1924</ele>
        <time>2016-04-01T04:29:18Z</time>
      </trkpt>
      <trkpt lat="44.18431" lon="6.67143">
        <ele>1922</ele>
        <time>2016-04-01T04:31:18Z</time>
      </trkpt>
      <trkpt lat="44.18439" lon="6.67137">
        <ele>1920</ele>
        <time>2016-04-01T04:33:18Z</time>
      </trkpt>
      <trkpt lat="44.18451" lon="6.67127">
        <ele>1917</ele>
        <time>2016-04-01T04:35:18Z</time>
      </trkpt>
      <trkpt lat="44.18459" lon="6.6712">
        <ele>1915</ele>
        <time>2016-04-01T04:37:18Z</time>
      </trkpt>
      <trkpt lat="44.18467" lon="6.6711">
        <ele>1914</ele>
        <time>2016-04-01T04:39:18Z</time>
      </trkpt>
      <trkpt lat="44.18472" lon="6.67102">
        <ele>1913</ele>
        <time>2016-04-01T04:41:18Z</time>
      </trkpt>
      <trkpt lat="44.18479" lon="6.67095">
        <ele>1911</ele>
        <time>2016-04-01T04:43:18Z</time>
      </trkpt>
      <trkpt lat="44.18483" lon="6.67091">
        <ele>1910</ele>
        <time>2016-04-01T04:45:18Z</time>
      </trkpt>
      <trkpt lat="44.18491" lon="6.67086">
        <ele>1907</ele>
        <time>2016-04-01T04:47:18Z</time>
      </trkpt>
      <trkpt lat="44.18499" lon="6.67078">
        <ele>1903</ele>
        <time>2016-04-01T04:49:18Z</time>
      </trkpt>
      <trkpt lat="44.18508" lon="6.67068">
        <ele>1901</ele>
        <time>2016-04-01T04:51:18Z</time>
      </trkpt>
      <trkpt lat="44.18513" lon="6.6706">
        <ele>1900</ele>
        <time>2016-04-01T04:53:18Z</time>
      </trkpt>
      <trkpt lat="44.18516" lon="6.67053">
        <ele>1900</ele>
        <time>2016-04-01T04:55:18Z</time>
      </trkpt>
      <trkpt lat="44.18523" lon="6.67036">
        <ele>1899</ele>
        <time>2016-04-01T04:57:18Z</time>
      </trkpt>
      <trkpt lat="44.18528" lon="6.67016">
        <ele>1899</ele>
        <time>2016-04-01T04:59:18Z</time>
      </trkpt>
      <trkpt lat="44.18531" lon="6.67004">
        <ele>1899</ele>
        <time>2016-04-01T05:01:18Z</time>
      </trkpt>
      <trkpt lat="44.18532" lon="6.66987">
        <ele>1898</ele>
        <time>2016-04-01T05:03:18Z</time>
      </trkpt>
      <trkpt lat="44.18533" lon="6.66975">
        <ele>1897</ele>
        <time>2016-04-01T05:05:18Z</time>
      </trkpt>
      <trkpt lat="44.18533" lon="6.66962">
        <ele>1896</ele>
        <time>2016-04-01T05:07:18Z</time>
      </trkpt>
      <trkpt lat="44.18531" lon="6.6695">
        <ele>1896</ele>
        <time>2016-04-01T05:09:18Z</time>
      </trkpt>
      <trkpt lat="44.18526" lon="6.66919">
        <ele>1897</ele>
        <time>2016-04-01T05:11:18Z</time>
      </trkpt>
      <trkpt lat="44.18522" lon="6.66899">
        <ele>1897</ele>
        <time>2016-04-01T05:13:18Z</time>
      </trkpt>
      <trkpt lat="44.18515" lon="6.66879">
        <ele>1897</ele>
        <time>2016-04-01T05:15:18Z</time>
      </trkpt>
      <trkpt lat="44.1851" lon="6.66862">
        <ele>1897</ele>
        <time>2016-04-01T05:17:18Z</time>
      </trkpt>
      <trkpt lat="44.18508" lon="6.66843">
        <ele>1895</ele>
        <time>2016-04-01T05:19:18Z</time>
      </trkpt>
      <trkpt lat="44.18507" lon="6.66827">
        <ele>1893</ele>
        <time>2016-04-01T05:21:18Z</time>
      </trkpt>
      <trkpt lat="44.18506" lon="6.66816">
        <ele>1892</ele>
        <time>2016-04-01T05:23:18Z</time>
      </trkpt>
      <trkpt lat="44.18503" lon="6.668">
        <ele>1891</ele>
        <time>2016-04-01T05:25:18Z</time>
      </trkpt>
      <trkpt lat="44.18501" lon="6.66791">
        <ele>1890</ele>
        <time>2016-04-01T05:27:18Z</time>
      </trkpt>
      <trkpt lat="44.18497" lon="6.66781">
        <ele>1890</ele>
        <time>2016-04-01T05:29:18Z</time>
      </trkpt>
      <trkpt lat="44.18494" lon="6.66774">
        <ele>1890</ele>
        <time>2016-04-01T05:31:18Z</time>
      </trkpt>
      <trkpt lat="44.18484" lon="6.66756">
        <ele>1891</ele>
        <time>2016-04-01T05:33:18Z</time>
      </trkpt>
      <trkpt lat="44.18479" lon="6.66745">
        <ele>1892</ele>
        <time>2016-04-01T05:35:18Z</time>
      </trkpt>
      <trkpt lat="44.18475" lon="6.66726">
        <ele>1891</ele>
        <time>2016-04-01T05:37:18Z</time>
      </trkpt>
      <trkpt lat="44.18472" lon="6.66707">
        <ele>1890</ele>
        <time>2016-04-01T05:39:18Z</time>
      </trkpt>
      <trkpt lat="44.18466" lon="6.66682">
        <ele>1890</ele>
        <time>2016-04-01T05:41:18Z</time>
      </trkpt>
      <trkpt lat="44.18464" lon="6.66672">
        <ele>1889</ele>
        <time>2016-04-01T05:43:18Z</time>
      </trkpt>
      <trkpt lat="44.18464" lon="6.66665">
        <ele>1889</ele>
        <time>2016-04-01T05:45:18Z</time>
      </trkpt>
      <trkpt lat="44.18465" lon="6.66658">
        <ele>1888</ele>
        <time>2016-04-01T05:47:18Z</time>
      </trkpt>
      <trkpt lat="44.18468" lon="6.66642">
        <ele>1885</ele>
        <time>2016-04-01T05:49:18Z</time>
      </trkpt>
      <trkpt lat="44.1847" lon="6.66633">
        <ele>1883</ele>
        <time>2016-04-01T05:51:18Z</time>
      </trkpt>
      <trkpt lat="44.18471" lon="6.66627">
        <ele>1882</ele>
        <time>2016-04-01T05:53:18Z</time>
      </trkpt>
      <trkpt lat="44.18472" lon="6.6662">
        <ele>1881</ele>
        <time>2016-04-01T05:55:18Z</time>
      </trkpt>
      <trkpt lat="44.18473" lon="6.66616">
        <ele>1881</ele>
        <time>2016-04-01T05:57:18Z</time>
      </trkpt>
      <trkpt lat="44.18476" lon="6.66609">
        <ele>1879</ele>
        <time>2016-04-01T05:59:18Z</time>
      </trkpt>
      <trkpt lat="44.18481" lon="6.66599">
        <ele>1875</ele>
        <time>2016-04-01T06:01:18Z</time>
      </trkpt>
      <trkpt lat="44.18485" lon="6.66592">
        <ele>1873</ele>
        <time>2016-04-01T06:03:18Z</time>
      </trkpt>
      <trkpt lat="44.18489" lon="6.66584">
        <ele>1870</ele>
        <time>2016-04-01T06:05:18Z</time>
      </trkpt>
      <trkpt lat="44.1849" lon="6.66579">
        <ele>1870</ele>
        <time>2016-04-01T06:07:18Z</time>
      </trkpt>
      <trkpt lat="44.18491" lon="6.66573">
        <ele>1869</ele>
        <time>2016-04-01T06:09:18Z</time>
      </trkpt>
      <trkpt lat="44.18492" lon="6.66565">
        <ele>1869</ele>
        <time>2016-04-01T06:11:18Z</time>
      </trkpt>
      <trkpt lat="44.18493" lon="6.66551">
        <ele>1868</ele>
        <time>2016-04-01T06:13:18Z</time>
      </trkpt>
      <trkpt lat="44.18494" lon="6.66526">
        <ele>1868</ele>
        <time>2016-04-01T06:15:18Z</time>
      </trkpt>
      <trkpt lat="44.18495" lon="6.66505">
        <ele>1867</ele>
        <time>2016-04-01T06:17:18Z</time>
      </trkpt>
      <trkpt lat="44.18496" lon="6.66494">
        <ele>1867</ele>
        <time>2016-04-01T06:19:18Z</time>
      </trkpt>
      <trkpt lat="44.18496" lon="6.66484">
        <ele>1867</ele>
        <time>2016-04-01T06:21:18Z</time>
      </trkpt>
      <trkpt lat="44.18496" lon="6.66469">
        <ele>1867</ele>
        <time>2016-04-01T06:23:18Z</time>
      </trkpt>
      <trkpt lat="44.18496" lon="6.66456">
        <ele>1868</ele>
        <time>2016-04-01T06:25:18Z</time>
      </trkpt>
      <trkpt lat="44.18496" lon="6.6645">
        <ele>1868</ele>
        <time>2016-04-01T06:27:18Z</time>
      </trkpt>
      <trkpt lat="44.18498" lon="6.66443">
        <ele>1867</ele>
        <time>2016-04-01T06:29:18Z</time>
      </trkpt>
      <trkpt lat="44.18501" lon="6.66436">
        <ele>1866</ele>
        <time>2016-04-01T06:31:18Z</time>
      </trkpt>
      <trkpt lat="44.18513" lon="6.66417">
        <ele>1862</ele>
        <time>2016-04-01T06:33:18Z</time>
      </trkpt>
      <trkpt lat="44.18516" lon="6.66413">
        <ele>1861</ele>
        <time>2016-04-01T06:35:18Z</time>
      </trkpt>
      <trkpt lat="44.18519" lon="6.6641">
        <ele>1859</ele>
        <time>2016-04-01T06:37:18Z</time>
      </trkpt>
      <trkpt lat="44.18521" lon="6.66407">
        <ele>1858</ele>
        <time>2016-04-01T06:39:18Z</time>
      </trkpt>
      <trkpt lat="44.18523" lon="6.66404">
        <ele>1857</ele>
        <time>2016-04-01T06:41:18Z</time>
      </trkpt>
      <trkpt lat="44.18524" lon="6.66401">
        <ele>1856</ele>
        <time>2016-04-01T06:43:18Z</time>
      </trkpt>
      <trkpt lat="44.18525" lon="6.66397">
        <ele>1856</ele>
        <time>2016-04-01T06:45:18Z</time>
      </trkpt>
      <trkpt lat="44.18526" lon="6.66394">
        <ele>1855</ele>
        <time>2016-04-01T06:47:18Z</time>
      </trkpt>
      <trkpt lat="44.18526" lon="6.66391">
        <ele>1855</ele>
        <time>2016-04-01T06:49:18Z</time>
      </trkpt>
      <trkpt lat="44.18525" lon="6.66387">
        <ele>1855</ele>
        <time>2016-04-01T06:51:18Z</time>
      </trkpt>
      <trkpt lat="44.18524" lon="6.66383">
        <ele>1855</ele>
        <time>2016-04-01T06:53:18Z</time>
      </trkpt>
      <trkpt lat="44.18522" lon="6.66379">
        <ele>1855</ele>
        <time>2016-04-01T06:55:18Z</time>
      </trkpt>
      <trkpt lat="44.1852" lon="6.66374">
        <ele>1856</ele>
        <time>2016-04-01T06:57:18Z</time>
      </trkpt>
      <trkpt lat="44.18513" lon="6.66363">
        <ele>1858</ele>
        <time>2016-04-01T06:59:18Z</time>
      </trkpt>
      <trkpt lat="44.18509" lon="6.66356">
        <ele>1859</ele>
        <time>2016-04-01T07:01:18Z</time>
      </trkpt>
      <trkpt lat="44.18502" lon="6.6634">
        <ele>1861</ele>
        <time>2016-04-01T07:03:18Z</time>
      </trkpt>
      <trkpt lat="44.18498" lon="6.66327">
        <ele>1861</ele>
        <time>2016-04-01T07:05:18Z</time>
      </trkpt>
      <trkpt lat="44.18494" lon="6.66314">
        <ele>1860</ele>
        <time>2016-04-01T07:07:18Z</time>
      </trkpt>
      <trkpt lat="44.18491" lon="6.663">
        <ele>1858</ele>
        <time>2016-04-01T07:09:18Z</time>
      </trkpt>
      <trkpt lat="44.18489" lon="6.66279">
        <ele>1855</ele>
        <time>2016-04-01T07:11:18Z</time>
      </trkpt>
      <trkpt lat="44.18487" lon="6.66263">
        <ele>1853</ele>
        <time>2016-04-01T07:13:18Z</time>
      </trkpt>
      <trkpt lat="44.18485" lon="6.6625">
        <ele>1852</ele>
        <time>2016-04-01T07:15:18Z</time>
      </trkpt>
      <trkpt lat="44.18483" lon="6.6623">
        <ele>1851</ele>
        <time>2016-04-01T07:17:18Z</time>
      </trkpt>
      <trkpt lat="44.18484" lon="6.66212">
        <ele>1850</ele>
        <time>2016-04-01T07:19:18Z</time>
      </trkpt>
      <trkpt lat="44.18485" lon="6.66197">
        <ele>1849</ele>
        <time>2016-04-01T07:21:18Z</time>
      </trkpt>
      <trkpt lat="44.1849" lon="6.6617">
        <ele>1845</ele>
        <time>2016-04-01T07:23:18Z</time>
      </trkpt>
      <trkpt lat="44.18492" lon="6.66153">
        <ele>1843</ele>
        <time>2016-04-01T07:25:18Z</time>
      </trkpt>
      <trkpt lat="44.18493" lon="6.6614">
        <ele>1842</ele>
        <time>2016-04-01T07:27:18Z</time>
      </trkpt>
      <trkpt lat="44.18494" lon="6.6612">
        <ele>1840</ele>
        <time>2016-04-01T07:29:18Z</time>
      </trkpt>
      <trkpt lat="44.18493" lon="6.66107">
        <ele>1840</ele>
        <time>2016-04-01T07:31:18Z</time>
      </trkpt>
      <trkpt lat="44.18491" lon="6.66093">
        <ele>1840</ele>
        <time>2016-04-01T07:33:18Z</time>
      </trkpt>
      <trkpt lat="44.18489" lon="6.66083">
        <ele>1840</ele>
        <time>2016-04-01T07:35:18Z</time>
      </trkpt>
      <trkpt lat="44.18489" lon="6.66077">
        <ele>1839</ele>
        <time>2016-04-01T07:37:18Z</time>
      </trkpt>
      <trkpt lat="44.18489" lon="6.66069">
        <ele>1839</ele>
        <time>2016-04-01T07:39:18Z</time>
      </trkpt>
      <trkpt lat="44.18489" lon="6.66055">
        <ele>1837</ele>
        <time>2016-04-01T07:41:18Z</time>
      </trkpt>
      <trkpt lat="44.18489" lon="6.66037">
        <ele>1836</ele>
        <time>2016-04-01T07:43:18Z</time>
      </trkpt>
      <trkpt lat="44.18488" lon="6.66018">
        <ele>1835</ele>
        <time>2016-04-01T07:45:18Z</time>
      </trkpt>
      <trkpt lat="44.18487" lon="6.66004">
        <ele>1834</ele>
        <time>2016-04-01T07:47:18Z</time>
      </trkpt>
      <trkpt lat="44.18486" lon="6.6599">
        <ele>1833</ele>
        <time>2016-04-01T07:49:18Z</time>
      </trkpt>
      <trkpt lat="44.18483" lon="6.65977">
        <ele>1834</ele>
        <time>2016-04-01T07:51:18Z</time>
      </trkpt>
      <trkpt lat="44.1848" lon="6.65966">
        <ele>1834</ele>
        <time>2016-04-01T07:53:18Z</time>
      </trkpt>
      <trkpt lat="44.18479" lon="6.65962">
        <ele>1834</ele>
        <time>2016-04-01T07:55:18Z</time>
      </trkpt>
      <trkpt lat="44.18478" lon="6.65959">
        <ele>1835</ele>
        <time>2016-04-01T07:57:18Z</time>
      </trkpt>
      <trkpt lat="44.18479" lon="6.65955">
        <ele>1834</ele>
        <time>2016-04-01T07:59:18Z</time>
      </trkpt>
      <trkpt lat="44.18481" lon="6.65953">
        <ele>1833</ele>
        <time>2016-04-01T08:01:18Z</time>
      </trkpt>
      <trkpt lat="44.18481" lon="6.65953">
        <ele>1833</ele>
        <time>2016-04-01T08:03:18Z</time>
      </trkpt>
      <trkpt lat="44.18484" lon="6.65953">
        <ele>1831</ele>
        <time>2016-04-01T08:05:18Z</time>
      </trkpt>
      <trkpt lat="44.18487" lon="6.65956">
        <ele>1830</ele>
        <time>2016-04-01T08:07:18Z</time>
      </trkpt>
      <trkpt lat="44.18496" lon="6.65982">
        <ele>1828</ele>
        <time>2016-04-01T08:09:18Z</time>
      </trkpt>
      <trkpt lat="44.18511" lon="6.66028">
        <ele>1826</ele>
        <time>2016-04-01T08:11:18Z</time>
      </trkpt>
      <trkpt lat="44.18523" lon="6.66062">
        <ele>1825</ele>
        <time>2016-04-01T08:13:18Z</time>
      </trkpt>
      <trkpt lat="44.18528" lon="6.66074">
        <ele>1825</ele>
        <time>2016-04-01T08:15:18Z</time>
      </trkpt>
      <trkpt lat="44.18534" lon="6.66088">
        <ele>1823</ele>
        <time>2016-04-01T08:17:18Z</time>
      </trkpt>
      <trkpt lat="44.1854" lon="6.66101">
        <ele>1822</ele>
        <time>2016-04-01T08:19:18Z</time>
      </trkpt>
      <trkpt lat="44.18544" lon="6.66113">
        <ele>1821</ele>
        <time>2016-04-01T08:21:18Z</time>
      </trkpt>
      <trkpt lat="44.18548" lon="6.66127">
        <ele>1819</ele>
        <time>2016-04-01T08:23:18Z</time>
      </trkpt>
      <trkpt lat="44.1855" lon="6.6614">
        <ele>1819</ele>
        <time>2016-04-01T08:25:18Z</time>
      </trkpt>
      <trkpt lat="44.18553" lon="6.66158">
        <ele>1818</ele>
        <time>2016-04-01T08:27:18Z</time>
      </trkpt>
      <trkpt lat="44.18555" lon="6.66169">
        <ele>1818</ele>
        <time>2016-04-01T08:29:18Z</time>
      </trkpt>
      <trkpt lat="44.18558" lon="6.66182">
        <ele>1818</ele>
        <time>2016-04-01T08:31:18Z</time>
      </trkpt>
      <trkpt lat="44.18561" lon="6.66193">
        <ele>1817</ele>
        <time>2016-04-01T08:33:18Z</time>
      </trkpt>
      <trkpt lat="44.18564" lon="6.66201">
        <ele>1817</ele>
        <time>2016-04-01T08:35:18Z</time>
      </trkpt>
      <trkpt lat="44.18566" lon="6.66206">
        <ele>1817</ele>
        <time>2016-04-01T08:37:18Z</time>
      </trkpt>
      <trkpt lat="44.18567" lon="6.6621">
        <ele>1817</ele>
        <time>2016-04-01T08:39:18Z</time>
      </trkpt>
      <trkpt lat="44.1857" lon="6.66217">
        <ele>1816</ele>
        <time>2016-04-01T08:41:18Z</time>
      </trkpt>
      <trkpt lat="44.18573" lon="6.66225">
        <ele>1816</ele>
        <time>2016-04-01T08:43:18Z</time>
      </trkpt>
      <trkpt lat="44.18578" lon="6.66239">
        <ele>1815</ele>
        <time>2016-04-01T08:45:18Z</time>
      </trkpt>
      <trkpt lat="44.18582" lon="6.66248">
        <ele>1814</ele>
        <time>2016-04-01T08:47:18Z</time>
      </trkpt>
      <trkpt lat="44.1859" lon="6.66264">
        <ele>1815</ele>
        <time>2016-04-01T08:49:18Z</time>
      </trkpt>
      <trkpt lat="44.18595" lon="6.66277">
        <ele>1816</ele>
        <time>2016-04-01T08:51:18Z</time>
      </trkpt>
      <trkpt lat="44.186" lon="6.66288">
        <ele>1817</ele>
        <time>2016-04-01T08:53:18Z</time>
      </trkpt>
      <trkpt lat="44.18604" lon="6.66296">
        <ele>1817</ele>
        <time>2016-04-01T08:55:18Z</time>
      </trkpt>
      <trkpt lat="44.1861" lon="6.66302">
        <ele>1817</ele>
        <time>2016-04-01T08:57:18Z</time>
      </trkpt>
      <trkpt lat="44.18614" lon="6.66305">
        <ele>1817</ele>
        <time>2016-04-01T08:59:18Z</time>
      </trkpt>
      <trkpt lat="44.18619" lon="6.66306">
        <ele>1816</ele>
        <time>2016-04-01T09:01:18Z</time>
      </trkpt>
      <trkpt lat="44.18626" lon="6.66307">
        <ele>1815</ele>
        <time>2016-04-01T09:03:18Z</time>
      </trkpt>
      <trkpt lat="44.18633" lon="6.66306">
        <ele>1814</ele>
        <time>2016-04-01T09:05:18Z</time>
      </trkpt>
      <trkpt lat="44.18651" lon="6.66301">
        <ele>1810</ele>
        <time>2016-04-01T09:07:18Z</time>
      </trkpt>
      <trkpt lat="44.18658" lon="6.66298">
        <ele>1808</ele>
        <time>2016-04-01T09:09:18Z</time>
      </trkpt>
      <trkpt lat="44.18665" lon="6.66296">
        <ele>1807</ele>
        <time>2016-04-01T09:11:18Z</time>
      </trkpt>
      <trkpt lat="44.18682" lon="6.66294">
        <ele>1803</ele>
        <time>2016-04-01T09:13:18Z</time>
      </trkpt>
      <trkpt lat="44.18693" lon="6.66293">
        <ele>1801</ele>
        <time>2016-04-01T09:15:18Z</time>
      </trkpt>
      <trkpt lat="44.18704" lon="6.66294">
        <ele>1799</ele>
        <time>2016-04-01T09:17:18Z</time>
      </trkpt>
      <trkpt lat="44.18716" lon="6.66297">
        <ele>1797</ele>
        <time>2016-04-01T09:19:18Z</time>
      </trkpt>
      <trkpt lat="44.18722" lon="6.663">
        <ele>1796</ele>
        <time>2016-04-01T09:21:18Z</time>
      </trkpt>
      <trkpt lat="44.18727" lon="6.66303">
        <ele>1796</ele>
        <time>2016-04-01T09:23:18Z</time>
      </trkpt>
      <trkpt lat="44.18732" lon="6.6631">
        <ele>1796</ele>
        <time>2016-04-01T09:25:18Z</time>
      </trkpt>
      <trkpt lat="44.18737" lon="6.66319">
        <ele>1796</ele>
        <time>2016-04-01T09:27:18Z</time>
      </trkpt>
      <trkpt lat="44.1874" lon="6.66326">
        <ele>1797</ele>
        <time>2016-04-01T09:29:18Z</time>
      </trkpt>
      <trkpt lat="44.18742" lon="6.66333">
        <ele>1798</ele>
        <time>2016-04-01T09:31:18Z</time>
      </trkpt>
      <trkpt lat="44.18744" lon="6.6634">
        <ele>1798</ele>
        <time>2016-04-01T09:33:18Z</time>
      </trkpt>
      <trkpt lat="44.18749" lon="6.6636">
        <ele>1799</ele>
        <time>2016-04-01T09:35:18Z</time>
      </trkpt>
      <trkpt lat="44.18755" lon="6.66381">
        <ele>1799</ele>
        <time>2016-04-01T09:37:18Z</time>
      </trkpt>
      <trkpt lat="44.18762" lon="6.66402">
        <ele>1799</ele>
        <time>2016-04-01T09:39:18Z</time>
      </trkpt>
      <trkpt lat="44.1877" lon="6.66423">
        <ele>1799</ele>
        <time>2016-04-01T09:41:18Z</time>
      </trkpt>
      <trkpt lat="44.18775" lon="6.66437">
        <ele>1797</ele>
        <time>2016-04-01T09:43:18Z</time>
      </trkpt>
      <trkpt lat="44.18778" lon="6.66453">
        <ele>1797</ele>
        <time>2016-04-01T09:45:18Z</time>
      </trkpt>
      <trkpt lat="44.18783" lon="6.66478">
        <ele>1796</ele>
        <time>2016-04-01T09:47:18Z</time>
      </trkpt>
      <trkpt lat="44.18785" lon="6.66492">
        <ele>1796</ele>
        <time>2016-04-01T09:49:18Z</time>
      </trkpt>
      <trkpt lat="44.18788" lon="6.66502">
        <ele>1796</ele>
        <time>2016-04-01T09:51:18Z</time>
      </trkpt>
      <trkpt lat="44.18792" lon="6.66518">
        <ele>1795</ele>
        <time>2016-04-01T09:53:18Z</time>
      </trkpt>
      <trkpt lat="44.18797" lon="6.6653">
        <ele>1794</ele>
        <time>2016-04-01T09:55:18Z</time>
      </trkpt>
      <trkpt lat="44.18803" lon="6.6654">
        <ele>1792</ele>
        <time>2016-04-01T09:57:18Z</time>
      </trkpt>
      <trkpt lat="44.18811" lon="6.66552">
        <ele>1791</ele>
        <time>2016-04-01T09:59:18Z</time>
      </trkpt>
      <trkpt lat="44.18816" lon="6.66561">
        <ele>1790</ele>
        <time>2016-04-01T10:01:18Z</time>
      </trkpt>
      <trkpt lat="44.18822" lon="6.66565">
        <ele>1788</ele>
        <time>2016-04-01T10:03:18Z</time>
      </trkpt>
      <trkpt lat="44.18827" lon="6.66562">
        <ele>1788</ele>
        <time>2016-04-01T10:05:18Z</time>
      </trkpt>
      <trkpt lat="44.18829" lon="6.66561">
        <ele>1787</ele>
        <time>2016-04-01T10:07:18Z</time>
      </trkpt>
      <trkpt lat="44.1883" lon="6.66559">
        <ele>1787</ele>
        <time>2016-04-01T10:09:18Z</time>
      </trkpt>
      <trkpt lat="44.18831" lon="6.66556">
        <ele>1787</ele>
        <time>2016-04-01T10:11:18Z</time>
      </trkpt>
      <trkpt lat="44.18832" lon="6.66552">
        <ele>1787</ele>
        <time>2016-04-01T10:13:18Z</time>
      </trkpt>
      <trkpt lat="44.18834" lon="6.66545">
        <ele>1787</ele>
        <time>2016-04-01T10:15:18Z</time>
      </trkpt>
      <trkpt lat="44.18837" lon="6.66534">
        <ele>1786</ele>
        <time>2016-04-01T10:17:18Z</time>
      </trkpt>
      <trkpt lat="44.18841" lon="6.66525">
        <ele>1786</ele>
        <time>2016-04-01T10:19:18Z</time>
      </trkpt>
      <trkpt lat="44.18845" lon="6.66515">
        <ele>1785</ele>
        <time>2016-04-01T10:21:18Z</time>
      </trkpt>
      <trkpt lat="44.18855" lon="6.66498">
        <ele>1782</ele>
        <time>2016-04-01T10:23:18Z</time>
      </trkpt>
      <trkpt lat="44.18863" lon="6.66486">
        <ele>1779</ele>
        <time>2016-04-01T10:25:18Z</time>
      </trkpt>
      <trkpt lat="44.18866" lon="6.66484">
        <ele>1778</ele>
        <time>2016-04-01T10:27:18Z</time>
      </trkpt>
      <trkpt lat="44.18868" lon="6.66479">
        <ele>1777</ele>
        <time>2016-04-01T10:29:18Z</time>
      </trkpt>
      <trkpt lat="44.1887" lon="6.66474">
        <ele>1776</ele>
        <time>2016-04-01T10:31:18Z</time>
      </trkpt>
      <trkpt lat="44.18871" lon="6.6647">
        <ele>1775</ele>
        <time>2016-04-01T10:33:18Z</time>
      </trkpt>
      <trkpt lat="44.18872" lon="6.66466">
        <ele>1774</ele>
        <time>2016-04-01T10:35:18Z</time>
      </trkpt>
      <trkpt lat="44.18872" lon="6.6646">
        <ele>1774</ele>
        <time>2016-04-01T10:37:18Z</time>
      </trkpt>
      <trkpt lat="44.18871" lon="6.66455">
        <ele>1774</ele>
        <time>2016-04-01T10:39:18Z</time>
      </trkpt>
      <trkpt lat="44.18868" lon="6.66446">
        <ele>1773</ele>
        <time>2016-04-01T10:41:18Z</time>
      </trkpt>
      <trkpt lat="44.18864" lon="6.66434">
        <ele>1773</ele>
        <time>2016-04-01T10:43:18Z</time>
      </trkpt>
      <trkpt lat="44.18859" lon="6.66424">
        <ele>1774</ele>
        <time>2016-04-01T10:45:18Z</time>
      </trkpt>
      <trkpt lat="44.18853" lon="6.66414">
        <ele>1775</ele>
        <time>2016-04-01T10:47:18Z</time>
      </trkpt>
      <trkpt lat="44.18848" lon="6.66406">
        <ele>1775</ele>
        <time>2016-04-01T10:49:18Z</time>
      </trkpt>
      <trkpt lat="44.18843" lon="6.66399">
        <ele>1776</ele>
        <time>2016-04-01T10:51:18Z</time>
      </trkpt>
      <trkpt lat="44.1884" lon="6.66392">
        <ele>1776</ele>
        <time>2016-04-01T10:53:18Z</time>
      </trkpt>
      <trkpt lat="44.18837" lon="6.66379">
        <ele>1775</ele>
        <time>2016-04-01T10:55:18Z</time>
      </trkpt>
      <trkpt lat="44.18835" lon="6.66354">
        <ele>1772</ele>
        <time>2016-04-01T10:57:18Z</time>
      </trkpt>
      <trkpt lat="44.18832" lon="6.66339">
        <ele>1771</ele>
        <time>2016-04-01T10:59:18Z</time>
      </trkpt>
      <trkpt lat="44.18829" lon="6.66325">
        <ele>1771</ele>
        <time>2016-04-01T11:01:18Z</time>
      </trkpt>
      <trkpt lat="44.18824" lon="6.66294">
        <ele>1769</ele>
        <time>2016-04-01T11:03:18Z</time>
      </trkpt>
      <trkpt lat="44.18822" lon="6.6628">
        <ele>1768</ele>
        <time>2016-04-01T11:05:18Z</time>
      </trkpt>
      <trkpt lat="44.18822" lon="6.66265">
        <ele>1766</ele>
        <time>2016-04-01T11:07:18Z</time>
      </trkpt>
      <trkpt lat="44.18823" lon="6.66251">
        <ele>1765</ele>
        <time>2016-04-01T11:09:18Z</time>
      </trkpt>
      <trkpt lat="44.18823" lon="6.6624">
        <ele>1763</ele>
        <time>2016-04-01T11:11:18Z</time>
      </trkpt>
      <trkpt lat="44.18822" lon="6.66232">
        <ele>1763</ele>
        <time>2016-04-01T11:13:18Z</time>
      </trkpt>
      <trkpt lat="44.1882" lon="6.66223">
        <ele>1762</ele>
        <time>2016-04-01T11:15:18Z</time>
      </trkpt>
      <trkpt lat="44.18815" lon="6.66212">
        <ele>1762</ele>
        <time>2016-04-01T11:17:18Z</time>
      </trkpt>
      <trkpt lat="44.18811" lon="6.66202">
        <ele>1762</ele>
        <time>2016-04-01T11:19:18Z</time>
      </trkpt>
      <trkpt lat="44.18809" lon="6.6619">
        <ele>1761</ele>
        <time>2016-04-01T11:21:18Z</time>
      </trkpt>
      <trkpt lat="44.18808" lon="6.6618">
        <ele>1760</ele>
        <time>2016-04-01T11:23:18Z</time>
      </trkpt>
      <trkpt lat="44.18809" lon="6.6617">
        <ele>1759</ele>
        <time>2016-04-01T11:25:18Z</time>
      </trkpt>
      <trkpt lat="44.18811" lon="6.66157">
        <ele>1757</ele>
        <time>2016-04-01T11:27:18Z</time>
      </trkpt>
      <trkpt lat="44.18814" lon="6.66139">
        <ele>1755</ele>
        <time>2016-04-01T11:29:18Z</time>
      </trkpt>
      <trkpt lat="44.18813" lon="6.66116">
        <ele>1753</ele>
        <time>2016-04-01T11:31:18Z</time>
      </trkpt>
      <trkpt lat="44.18811" lon="6.66094">
        <ele>1751</ele>
        <time>2016-04-01T11:33:18Z</time>
      </trkpt>
      <trkpt lat="44.18811" lon="6.66082">
        <ele>1750</ele>
        <time>2016-04-01T11:35:18Z</time>
      </trkpt>
      <trkpt lat="44.1881" lon="6.66067">
        <ele>1749</ele>
        <time>2016-04-01T11:37:18Z</time>
      </trkpt>
      <trkpt lat="44.18808" lon="6.66054">
        <ele>1748</ele>
        <time>2016-04-01T11:39:18Z</time>
      </trkpt>
      <trkpt lat="44.18805" lon="6.66043">
        <ele>1747</ele>
        <time>2016-04-01T11:41:18Z</time>
      </trkpt>
      <trkpt lat="44.188" lon="6.66037">
        <ele>1747</ele>
        <time>2016-04-01T11:43:18Z</time>
      </trkpt>
      <trkpt lat="44.18795" lon="6.66031">
        <ele>1748</ele>
        <time>2016-04-01T11:45:18Z</time>
      </trkpt>
      <trkpt lat="44.18789" lon="6.66024">
        <ele>1748</ele>
        <time>2016-04-01T11:47:18Z</time>
      </trkpt>
      <trkpt lat="44.18784" lon="6.66017">
        <ele>1748</ele>
        <time>2016-04-01T11:49:18Z</time>
      </trkpt>
      <trkpt lat="44.1878" lon="6.66003">
        <ele>1747</ele>
        <time>2016-04-01T11:51:18Z</time>
      </trkpt>
      <trkpt lat="44.1878" lon="6.65991">
        <ele>1746</ele>
        <time>2016-04-01T11:53:18Z</time>
      </trkpt>
      <trkpt lat="44.1878" lon="6.65971">
        <ele>1744</ele>
        <time>2016-04-01T11:55:18Z</time>
      </trkpt>
      <trkpt lat="44.18778" lon="6.65958">
        <ele>1744</ele>
        <time>2016-04-01T11:57:18Z</time>
      </trkpt>
      <trkpt lat="44.18772" lon="6.65941">
        <ele>1743</ele>
        <time>2016-04-01T11:59:18Z</time>
      </trkpt>
      <trkpt lat="44.18766" lon="6.65928">
        <ele>1744</ele>
        <time>2016-04-01T12:01:18Z</time>
      </trkpt>
      <trkpt lat="44.18763" lon="6.6592">
        <ele>1744</ele>
        <time>2016-04-01T12:03:18Z</time>
      </trkpt>
      <trkpt lat="44.1876" lon="6.65907">
        <ele>1743</ele>
        <time>2016-04-01T12:05:18Z</time>
      </trkpt>
      <trkpt lat="44.18759" lon="6.65891">
        <ele>1743</ele>
        <time>2016-04-01T12:07:18Z</time>
      </trkpt>
      <trkpt lat="44.18758" lon="6.65876">
        <ele>1742</ele>
        <time>2016-04-01T12:09:18Z</time>
      </trkpt>
      <trkpt lat="44.18757" lon="6.65855">
        <ele>1741</ele>
        <time>2016-04-01T12:11:18Z</time>
      </trkpt>
      <trkpt lat="44.18755" lon="6.65832">
        <ele>1741</ele>
        <time>2016-04-01T12:13:18Z</time>
      </trkpt>
      <trkpt lat="44.18755" lon="6.65813">
        <ele>1739</ele>
        <time>2016-04-01T12:15:18Z</time>
      </trkpt>
      <trkpt lat="44.18757" lon="6.65788">
        <ele>1736</ele>
        <time>2016-04-01T12:17:18Z</time>
      </trkpt>
      <trkpt lat="44.18759" lon="6.65763">
        <ele>1734</ele>
        <time>2016-04-01T12:19:18Z</time>
      </trkpt>
      <trkpt lat="44.18762" lon="6.65739">
        <ele>1731</ele>
        <time>2016-04-01T12:21:18Z</time>
      </trkpt>
      <trkpt lat="44.18763" lon="6.65732">
        <ele>1730</ele>
        <time>2016-04-01T12:23:18Z</time>
      </trkpt>
      <trkpt lat="44.18768" lon="6.65714">
        <ele>1727</ele>
        <time>2016-04-01T12:25:18Z</time>
      </trkpt>
      <trkpt lat="44.18771" lon="6.65698">
        <ele>1725</ele>
        <time>2016-04-01T12:27:18Z</time>
      </trkpt>
      <trkpt lat="44.18772" lon="6.65681">
        <ele>1723</ele>
        <time>2016-04-01T12:29:18Z</time>
      </trkpt>
      <trkpt lat="44.18772" lon="6.65665">
        <ele>1722</ele>
        <time>2016-04-01T12:31:18Z</time>
      </trkpt>
      <trkpt lat="44.1877" lon="6.65636">
        <ele>1721</ele>
        <time>2016-04-01T12:33:18Z</time>
      </trkpt>
      <trkpt lat="44.18768" lon="6.65607">
        <ele>1720</ele>
        <time>2016-04-01T12:35:18Z</time>
      </trkpt>
      <trkpt lat="44.18768" lon="6.65601">
        <ele>1720</ele>
        <time>2016-04-01T12:37:18Z</time>
      </trkpt>
      <trkpt lat="44.18769" lon="6.65594">
        <ele>1719</ele>
        <time>2016-04-01T12:39:18Z</time>
      </trkpt>
      <trkpt lat="44.18775" lon="6.65584">
        <ele>1717</ele>
        <time>2016-04-01T12:41:18Z</time>
      </trkpt>
      <trkpt lat="44.18779" lon="6.65576">
        <ele>1715</ele>
        <time>2016-04-01T12:43:18Z</time>
      </trkpt>
      <trkpt lat="44.18782" lon="6.6557">
        <ele>1714</ele>
        <time>2016-04-01T12:45:18Z</time>
      </trkpt>
      <trkpt lat="44.18784" lon="6.6556">
        <ele>1713</ele>
        <time>2016-04-01T12:47:18Z</time>
      </trkpt>
      <trkpt lat="44.18786" lon="6.65531">
        <ele>1710</ele>
        <time>2016-04-01T12:49:18Z</time>
      </trkpt>
      <trkpt lat="44.18786" lon="6.65515">
        <ele>1708</ele>
        <time>2016-04-01T12:51:18Z</time>
      </trkpt>
      <trkpt lat="44.18784" lon="6.65503">
        <ele>1708</ele>
        <time>2016-04-01T12:53:18Z</time>
      </trkpt>
      <trkpt lat="44.18781" lon="6.65494">
        <ele>1708</ele>
        <time>2016-04-01T12:55:18Z</time>
      </trkpt>
      <trkpt lat="44.18776" lon="6.65486">
        <ele>1708</ele>
        <time>2016-04-01T12:57:18Z</time>
      </trkpt>
      <trkpt lat="44.18768" lon="6.65475">
        <ele>1708</ele>
        <time>2016-04-01T12:59:18Z</time>
      </trkpt>
      <trkpt lat="44.18763" lon="6.65465">
        <ele>1708</ele>
        <time>2016-04-01T13:01:18Z</time>
      </trkpt>
      <trkpt lat="44.1876" lon="6.65453">
        <ele>1707</ele>
        <time>2016-04-01T13:03:18Z</time>
      </trkpt>
      <trkpt lat="44.18758" lon="6.65438">
        <ele>1705</ele>
        <time>2016-04-01T13:05:18Z</time>
      </trkpt>
      <trkpt lat="44.18756" lon="6.65423">
        <ele>1703</ele>
        <time>2016-04-01T13:07:18Z</time>
      </trkpt>
      <trkpt lat="44.18752" lon="6.65408">
        <ele>1701</ele>
        <time>2016-04-01T13:09:18Z</time>
      </trkpt>
      <trkpt lat="44.18748" lon="6.65392">
        <ele>1700</ele>
        <time>2016-04-01T13:11:18Z</time>
      </trkpt>
      <trkpt lat="44.18745" lon="6.65383">
        <ele>1699</ele>
        <time>2016-04-01T13:13:18Z</time>
      </trkpt>
      <trkpt lat="44.18738" lon="6.65369">
        <ele>1699</ele>
        <time>2016-04-01T13:15:18Z</time>
      </trkpt>
      <trkpt lat="44.18737" lon="6.65368">
        <ele>1699</ele>
        <time>2016-04-01T13:17:18Z</time>
      </trkpt>
      <trkpt lat="44.18734" lon="6.65365">
        <ele>1700</ele>
        <time>2016-04-01T13:19:18Z</time>
      </trkpt>
      <trkpt lat="44.18732" lon="6.65363">
        <ele>1700</ele>
        <time>2016-04-01T13:21:18Z</time>
      </trkpt>
      <trkpt lat="44.18727" lon="6.6536">
        <ele>1701</ele>
        <time>2016-04-01T13:23:18Z</time>
      </trkpt>
      <trkpt lat="44.18722" lon="6.65356">
        <ele>1702</ele>
        <time>2016-04-01T13:25:18Z</time>
      </trkpt>
      <trkpt lat="44.18718" lon="6.65351">
        <ele>1702</ele>
        <time>2016-04-01T13:27:18Z</time>
      </trkpt>
      <trkpt lat="44.18717" lon="6.65347">
        <ele>1702</ele>
        <time>2016-04-01T13:29:18Z</time>
      </trkpt>
      <trkpt lat="44.18715" lon="6.65343">
        <ele>1702</ele>
        <time>2016-04-01T13:31:18Z</time>
      </trkpt>
      <trkpt lat="44.18714" lon="6.65335">
        <ele>1701</ele>
        <time>2016-04-01T13:33:18Z</time>
      </trkpt>
      <trkpt lat="44.18713" lon="6.65329">
        <ele>1701</ele>
        <time>2016-04-01T13:35:18Z</time>
      </trkpt>
      <trkpt lat="44.18713" lon="6.65319">
        <ele>1700</ele>
        <time>2016-04-01T13:37:18Z</time>
      </trkpt>
      <trkpt lat="44.18715" lon="6.65298">
        <ele>1697</ele>
        <time>2016-04-01T13:39:18Z</time>
      </trkpt>
      <trkpt lat="44.18716" lon="6.6529">
        <ele>1696</ele>
        <time>2016-04-01T13:41:18Z</time>
      </trkpt>
      <trkpt lat="44.18716" lon="6.65284">
        <ele>1696</ele>
        <time>2016-04-01T13:43:18Z</time>
      </trkpt>
      <trkpt lat="44.18717" lon="6.65273">
        <ele>1694</ele>
        <time>2016-04-01T13:45:18Z</time>
      </trkpt>
      <trkpt lat="44.18717" lon="6.65262">
        <ele>1693</ele>
        <time>2016-04-01T13:47:18Z</time>
      </trkpt>
      <trkpt lat="44.18714" lon="6.65241">
        <ele>1692</ele>
        <time>2016-04-01T13:49:18Z</time>
      </trkpt>
      <trkpt lat="44.18709" lon="6.65223">
        <ele>1693</ele>
        <time>2016-04-01T13:51:18Z</time>
      </trkpt>
      <trkpt lat="44.18702" lon="6.65191">
        <ele>1693</ele>
        <time>2016-04-01T13:53:18Z</time>
      </trkpt>
      <trkpt lat="44.18698" lon="6.65177">
        <ele>1693</ele>
        <time>2016-04-01T13:55:18Z</time>
      </trkpt>
      <trkpt lat="44.18695" lon="6.65156">
        <ele>1692</ele>
        <time>2016-04-01T13:57:18Z</time>
      </trkpt>
      <trkpt lat="44.18695" lon="6.65143">
        <ele>1691</ele>
        <time>2016-04-01T13:59:18Z</time>
      </trkpt>
      <trkpt lat="44.18695" lon="6.65131">
        <ele>1691</ele>
        <time>2016-04-01T14:01:18Z</time>
      </trkpt>
      <trkpt lat="44.18697" lon="6.65116">
        <ele>1689</ele>
        <time>2016-04-01T14:03:18Z</time>
      </trkpt>
      <trkpt lat="44.18697" lon="6.65105">
        <ele>1688</ele>
        <time>2016-04-01T14:05:18Z</time>
      </trkpt>
      <trkpt lat="44.18696" lon="6.65096">
        <ele>1688</ele>
        <time>2016-04-01T14:07:18Z</time>
      </trkpt>
      <trkpt lat="44.18694" lon="6.65088">
        <ele>1688</ele>
        <time>2016-04-01T14:09:18Z</time>
      </trkpt>
      <trkpt lat="44.18691" lon="6.65078">
        <ele>1687</ele>
        <time>2016-04-01T14:11:18Z</time>
      </trkpt>
      <trkpt lat="44.18687" lon="6.6507">
        <ele>1686</ele>
        <time>2016-04-01T14:13:18Z</time>
      </trkpt>
      <trkpt lat="44.18676" lon="6.65052">
        <ele>1685</ele>
        <time>2016-04-01T14:15:18Z</time>
      </trkpt>
      <trkpt lat="44.18668" lon="6.6504">
        <ele>1684</ele>
        <time>2016-04-01T14:17:18Z</time>
      </trkpt>
      <trkpt lat="44.18664" lon="6.6503">
        <ele>1683</ele>
        <time>2016-04-01T14:19:18Z</time>
      </trkpt>
      <trkpt lat="44.1866" lon="6.65016">
        <ele>1680</ele>
        <time>2016-04-01T14:21:18Z</time>
      </trkpt>
      <trkpt lat="44.18655" lon="6.65003">
        <ele>1678</ele>
        <time>2016-04-01T14:23:18Z</time>
      </trkpt>
      <trkpt lat="44.18652" lon="6.64997">
        <ele>1677</ele>
        <time>2016-04-01T14:25:18Z</time>
      </trkpt>
      <trkpt lat="44.18647" lon="6.64992">
        <ele>1677</ele>
        <time>2016-04-01T14:27:18Z</time>
      </trkpt>
      <trkpt lat="44.1864" lon="6.64987">
        <ele>1678</ele>
        <time>2016-04-01T14:29:18Z</time>
      </trkpt>
      <trkpt lat="44.18632" lon="6.64981">
        <ele>1679</ele>
        <time>2016-04-01T14:31:18Z</time>
      </trkpt>
      <trkpt lat="44.18621" lon="6.64973">
        <ele>1680</ele>
        <time>2016-04-01T14:33:18Z</time>
      </trkpt>
      <trkpt lat="44.18615" lon="6.64969">
        <ele>1681</ele>
        <time>2016-04-01T14:35:18Z</time>
      </trkpt>
      <trkpt lat="44.18608" lon="6.64966">
        <ele>1683</ele>
        <time>2016-04-01T14:37:18Z</time>
      </trkpt>
      <trkpt lat="44.18602" lon="6.64964">
        <ele>1684</ele>
        <time>2016-04-01T14:39:18Z</time>
      </trkpt>
      <trkpt lat="44.18597" lon="6.64962">
        <ele>1686</ele>
        <time>2016-04-01T14:41:18Z</time>
      </trkpt>
      <trkpt lat="44.18593" lon="6.64957">
        <ele>1686</ele>
        <time>2016-04-01T14:43:18Z</time>
      </trkpt>
      <trkpt lat="44.1859" lon="6.64951">
        <ele>1686</ele>
        <time>2016-04-01T14:45:18Z</time>
      </trkpt>
      <trkpt lat="44.18588" lon="6.64944">
        <ele>1685</ele>
        <time>2016-04-01T14:47:18Z</time>
      </trkpt>
      <trkpt lat="44.18586" lon="6.64928">
        <ele>1683</ele>
        <time>2016-04-01T14:49:18Z</time>
      </trkpt>
      <trkpt lat="44.18586" lon="6.64914">
        <ele>1681</ele>
        <time>2016-04-01T14:51:18Z</time>
      </trkpt>
      <trkpt lat="44.18586" lon="6.64899">
        <ele>1679</ele>
        <time>2016-04-01T14:53:18Z</time>
      </trkpt>
      <trkpt lat="44.18587" lon="6.64884">
        <ele>1677</ele>
        <time>2016-04-01T14:55:18Z</time>
      </trkpt>
      <trkpt lat="44.18588" lon="6.64875">
        <ele>1676</ele>
        <time>2016-04-01T14:57:18Z</time>
      </trkpt>
      <trkpt lat="44.18591" lon="6.64867">
        <ele>1674</ele>
        <time>2016-04-01T14:59:18Z</time>
      </trkpt>
      <trkpt lat="44.18592" lon="6.64862">
        <ele>1673</ele>
        <time>2016-04-01T15:01:18Z</time>
      </trkpt>
      <trkpt lat="44.18592" lon="6.64857">
        <ele>1673</ele>
        <time>2016-04-01T15:03:18Z</time>
      </trkpt>
      <trkpt lat="44.18592" lon="6.64852">
        <ele>1672</ele>
        <time>2016-04-01T15:05:18Z</time>
      </trkpt>
      <trkpt lat="44.18591" lon="6.64848">
        <ele>1672</ele>
        <time>2016-04-01T15:07:18Z</time>
      </trkpt>
      <trkpt lat="44.18587" lon="6.64843">
        <ele>1673</ele>
        <time>2016-04-01T15:09:18Z</time>
      </trkpt>
      <trkpt lat="44.18582" lon="6.64837">
        <ele>1675</ele>
        <time>2016-04-01T15:11:18Z</time>
      </trkpt>
      <trkpt lat="44.18571" lon="6.64829">
        <ele>1679</ele>
        <time>2016-04-01T15:13:18Z</time>
      </trkpt>
      <trkpt lat="44.18565" lon="6.64823">
        <ele>1681</ele>
        <time>2016-04-01T15:15:18Z</time>
      </trkpt>
      <trkpt lat="44.18562" lon="6.64819">
        <ele>1682</ele>
        <time>2016-04-01T15:17:18Z</time>
      </trkpt>
      <trkpt lat="44.1856" lon="6.64813">
        <ele>1683</ele>
        <time>2016-04-01T15:19:18Z</time>
      </trkpt>
      <trkpt lat="44.18558" lon="6.64804">
        <ele>1683</ele>
        <time>2016-04-01T15:21:18Z</time>
      </trkpt>
      <trkpt lat="44.18557" lon="6.64761">
        <ele>1680</ele>
        <time>2016-04-01T15:23:18Z</time>
      </trkpt>
      <trkpt lat="44.18557" lon="6.64745">
        <ele>1679</ele>
        <time>2016-04-01T15:25:18Z</time>
      </trkpt>
      <trkpt lat="44.18557" lon="6.64734">
        <ele>1678</ele>
        <time>2016-04-01T15:27:18Z</time>
      </trkpt>
      <trkpt lat="44.18557" lon="6.6472">
        <ele>1676</ele>
        <time>2016-04-01T15:29:18Z</time>
      </trkpt>
      <trkpt lat="44.1856" lon="6.64698">
        <ele>1672</ele>
        <time>2016-04-01T15:31:18Z</time>
      </trkpt>
      <trkpt lat="44.18562" lon="6.64683">
        <ele>1669</ele>
        <time>2016-04-01T15:33:18Z</time>
      </trkpt>
      <trkpt lat="44.18563" lon="6.64671">
        <ele>1667</ele>
        <time>2016-04-01T15:35:18Z</time>
      </trkpt>
      <trkpt lat="44.18564" lon="6.64657">
        <ele>1665</ele>
        <time>2016-04-01T15:37:18Z</time>
      </trkpt>
      <trkpt lat="44.18566" lon="6.64632">
        <ele>1662</ele>
        <time>2016-04-01T15:39:18Z</time>
      </trkpt>
      <trkpt lat="44.18566" lon="6.64604">
        <ele>1660</ele>
        <time>2016-04-01T15:41:18Z</time>
      </trkpt>
      <trkpt lat="44.18567" lon="6.64547">
        <ele>1653</ele>
        <time>2016-04-01T15:43:18Z</time>
      </trkpt>
      <trkpt lat="44.18567" lon="6.64521">
        <ele>1649</ele>
        <time>2016-04-01T15:45:18Z</time>
      </trkpt>
      <trkpt lat="44.18568" lon="6.64506">
        <ele>1647</ele>
        <time>2016-04-01T15:47:18Z</time>
      </trkpt>
      <trkpt lat="44.1857" lon="6.6449">
        <ele>1644</ele>
        <time>2016-04-01T15:49:18Z</time>
      </trkpt>
      <trkpt lat="44.18572" lon="6.64477">
        <ele>1642</ele>
        <time>2016-04-01T15:51:18Z</time>
      </trkpt>
      <trkpt lat="44.18575" lon="6.64464">
        <ele>1639</ele>
        <time>2016-04-01T15:53:18Z</time>
      </trkpt>
      <trkpt lat="44.18575" lon="6.64455">
        <ele>1638</ele>
        <time>2016-04-01T15:55:18Z</time>
      </trkpt>
      <trkpt lat="44.18574" lon="6.64448">
        <ele>1637</ele>
        <time>2016-04-01T15:57:18Z</time>
      </trkpt>
      <trkpt lat="44.18571" lon="6.64442">
        <ele>1636</ele>
        <time>2016-04-01T15:59:18Z</time>
      </trkpt>
      <trkpt lat="44.18566" lon="6.64438">
        <ele>1636</ele>
        <time>2016-04-01T16:01:18Z</time>
      </trkpt>
      <trkpt lat="44.18557" lon="6.64438">
        <ele>1637</ele>
        <time>2016-04-01T16:03:18Z</time>
      </trkpt>
      <trkpt lat="44.18537" lon="6.64441">
        <ele>1641</ele>
        <time>2016-04-01T16:05:18Z</time>
      </trkpt>
      <trkpt lat="44.18521" lon="6.6444">
        <ele>1643</ele>
        <time>2016-04-01T16:07:18Z</time>
      </trkpt>
      <trkpt lat="44.18502" lon="6.64442">
        <ele>1646</ele>
        <time>2016-04-01T16:09:18Z</time>
      </trkpt>
      <trkpt lat="44.18492" lon="6.64441">
        <ele>1648</ele>
        <time>2016-04-01T16:11:18Z</time>
      </trkpt>
      <trkpt lat="44.18485" lon="6.64435">
        <ele>1648</ele>
        <time>2016-04-01T16:13:18Z</time>
      </trkpt>
      <trkpt lat="44.1848" lon="6.64429">
        <ele>1647</ele>
        <time>2016-04-01T16:15:18Z</time>
      </trkpt>
      <trkpt lat="44.18475" lon="6.64419">
        <ele>1644</ele>
        <time>2016-04-01T16:17:18Z</time>
      </trkpt>
      <trkpt lat="44.1847" lon="6.64408">
        <ele>1643</ele>
        <time>2016-04-01T16:19:18Z</time>
      </trkpt>
      <trkpt lat="44.18458" lon="6.64391">
        <ele>1642</ele>
        <time>2016-04-01T16:21:18Z</time>
      </trkpt>
      <trkpt lat="44.18452" lon="6.64379">
        <ele>1641</ele>
        <time>2016-04-01T16:23:18Z</time>
      </trkpt>
      <trkpt lat="44.18448" lon="6.64366">
        <ele>1639</ele>
        <time>2016-04-01T16:25:18Z</time>
      </trkpt>
      <trkpt lat="44.1845" lon="6.6434">
        <ele>1632</ele>
        <time>2016-04-01T16:27:18Z</time>
      </trkpt>
      <trkpt lat="44.18452" lon="6.64326">
        <ele>1629</ele>
        <time>2016-04-01T16:29:18Z</time>
      </trkpt>
      <trkpt lat="44.18454" lon="6.64314">
        <ele>1626</ele>
        <time>2016-04-01T16:31:18Z</time>
      </trkpt>
      <trkpt lat="44.18454" lon="6.64305">
        <ele>1624</ele>
        <time>2016-04-01T16:33:18Z</time>
      </trkpt>
      <trkpt lat="44.18453" lon="6.64298">
        <ele>1623</ele>
        <time>2016-04-01T16:35:18Z</time>
      </trkpt>
      <trkpt lat="44.18448" lon="6.64286">
        <ele>1621</ele>
        <time>2016-04-01T16:37:18Z</time>
      </trkpt>
      <trkpt lat="44.18442" lon="6.64277">
        <ele>1619</ele>
        <time>2016-04-01T16:39:18Z</time>
      </trkpt>
      <trkpt lat="44.18432" lon="6.64268">
        <ele>1618</ele>
        <time>2016-04-01T16:41:18Z</time>
      </trkpt>
      <trkpt lat="44.1842" lon="6.64265">
        <ele>1619</ele>
        <time>2016-04-01T16:43:18Z</time>
      </trkpt>
      <trkpt lat="44.18405" lon="6.64264">
        <ele>1618</ele>
        <time>2016-04-01T16:45:18Z</time>
      </trkpt>
      <trkpt lat="44.18388" lon="6.64266">
        <ele>1617</ele>
        <time>2016-04-01T16:47:18Z</time>
      </trkpt>
      <trkpt lat="44.18374" lon="6.64267">
        <ele>1616</ele>
        <time>2016-04-01T16:49:18Z</time>
      </trkpt>
      <trkpt lat="44.18367" lon="6.64271">
        <ele>1617</ele>
        <time>2016-04-01T16:51:18Z</time>
      </trkpt>
      <trkpt lat="44.18361" lon="6.64275">
        <ele>1617</ele>
        <time>2016-04-01T16:53:18Z</time>
      </trkpt>
      <trkpt lat="44.18354" lon="6.6428">
        <ele>1618</ele>
        <time>2016-04-01T16:55:18Z</time>
      </trkpt>
      <trkpt lat="44.18342" lon="6.6429">
        <ele>1620</ele>
        <time>2016-04-01T16:57:18Z</time>
      </trkpt>
      <trkpt lat="44.18334" lon="6.64294">
        <ele>1620</ele>
        <time>2016-04-01T16:59:18Z</time>
      </trkpt>
      <trkpt lat="44.18326" lon="6.64296">
        <ele>1621</ele>
        <time>2016-04-01T17:01:18Z</time>
      </trkpt>
      <trkpt lat="44.18318" lon="6.64296">
        <ele>1621</ele>
        <time>2016-04-01T17:03:18Z</time>
      </trkpt>
      <trkpt lat="44.1831" lon="6.64293">
        <ele>1620</ele>
        <time>2016-04-01T17:05:18Z</time>
      </trkpt>
      <trkpt lat="44.18302" lon="6.64287">
        <ele>1619</ele>
        <time>2016-04-01T17:07:18Z</time>
      </trkpt>
      <trkpt lat="44.18298" lon="6.64283">
        <ele>1618</ele>
        <time>2016-04-01T17:09:18Z</time>
      </trkpt>
      <trkpt lat="44.18291" lon="6.64275">
        <ele>1616</ele>
        <time>2016-04-01T17:11:18Z</time>
      </trkpt>
      <trkpt lat="44.18287" lon="6.64269">
        <ele>1614</ele>
        <time>2016-04-01T17:13:18Z</time>
      </trkpt>
      <trkpt lat="44.1828" lon="6.64256">
        <ele>1610</ele>
        <time>2016-04-01T17:15:18Z</time>
      </trkpt>
      <trkpt lat="44.18272" lon="6.64237">
        <ele>1607</ele>
        <time>2016-04-01T17:17:18Z</time>
      </trkpt>
      <trkpt lat="44.18264" lon="6.64226">
        <ele>1605</ele>
        <time>2016-04-01T17:19:18Z</time>
      </trkpt>
      <trkpt lat="44.18254" lon="6.6422">
        <ele>1604</ele>
        <time>2016-04-01T17:21:18Z</time>
      </trkpt>
      <trkpt lat="44.18247" lon="6.64217">
        <ele>1605</ele>
        <time>2016-04-01T17:23:18Z</time>
      </trkpt>
      <trkpt lat="44.18239" lon="6.64212">
        <ele>1606</ele>
        <time>2016-04-01T17:25:18Z</time>
      </trkpt>
      <trkpt lat="44.18232" lon="6.64208">
        <ele>1607</ele>
        <time>2016-04-01T17:27:18Z</time>
      </trkpt>
      <trkpt lat="44.18217" lon="6.64195">
        <ele>1607</ele>
        <time>2016-04-01T17:29:18Z</time>
      </trkpt>
      <trkpt lat="44.18208" lon="6.64184">
        <ele>1607</ele>
        <time>2016-04-01T17:31:18Z</time>
      </trkpt>
      <trkpt lat="44.182" lon="6.64173">
        <ele>1606</ele>
        <time>2016-04-01T17:33:18Z</time>
      </trkpt>
      <trkpt lat="44.18196" lon="6.64166">
        <ele>1605</ele>
        <time>2016-04-01T17:35:18Z</time>
      </trkpt>
      <trkpt lat="44.1819" lon="6.64152">
        <ele>1603</ele>
        <time>2016-04-01T17:37:18Z</time>
      </trkpt>
      <trkpt lat="44.18186" lon="6.64138">
        <ele>1601</ele>
        <time>2016-04-01T17:39:18Z</time>
      </trkpt>
      <trkpt lat="44.18181" lon="6.64123">
        <ele>1598</ele>
        <time>2016-04-01T17:41:18Z</time>
      </trkpt>
      <trkpt lat="44.18176" lon="6.64107">
        <ele>1596</ele>
        <time>2016-04-01T17:43:18Z</time>
      </trkpt>
      <trkpt lat="44.18167" lon="6.64084">
        <ele>1592</ele>
        <time>2016-04-01T17:45:18Z</time>
      </trkpt>
      <trkpt lat="44.1816" lon="6.64067">
        <ele>1592</ele>
        <time>2016-04-01T17:47:18Z</time>
      </trkpt>
      <trkpt lat="44.18153" lon="6.64057">
        <ele>1592</ele>
        <time>2016-04-01T17:49:18Z</time>
      </trkpt>
      <trkpt lat="44.18146" lon="6.64047">
        <ele>1593</ele>
        <time>2016-04-01T17:51:18Z</time>
      </trkpt>
      <trkpt lat="44.1814" lon="6.64036">
        <ele>1593</ele>
        <time>2016-04-01T17:53:18Z</time>
      </trkpt>
      <trkpt lat="44.18137" lon="6.64028">
        <ele>1593</ele>
        <time>2016-04-01T17:55:18Z</time>
      </trkpt>
      <trkpt lat="44.18136" lon="6.64017">
        <ele>1591</ele>
        <time>2016-04-01T17:57:18Z</time>
      </trkpt>
      <trkpt lat="44.18135" lon="6.63998">
        <ele>1587</ele>
        <time>2016-04-01T17:59:18Z</time>
      </trkpt>
      <trkpt lat="44.18135" lon="6.63985">
        <ele>1584</ele>
        <time>2016-04-01T18:01:18Z</time>
      </trkpt>
      <trkpt lat="44.18135" lon="6.63973">
        <ele>1582</ele>
        <time>2016-04-01T18:03:18Z</time>
      </trkpt>
      <trkpt lat="44.18134" lon="6.63961">
        <ele>1579</ele>
        <time>2016-04-01T18:05:18Z</time>
      </trkpt>
      <trkpt lat="44.1813" lon="6.63947">
        <ele>1577</ele>
        <time>2016-04-01T18:07:18Z</time>
      </trkpt>
      <trkpt lat="44.18125" lon="6.63935">
        <ele>1576</ele>
        <time>2016-04-01T18:09:18Z</time>
      </trkpt>
      <trkpt lat="44.18121" lon="6.63928">
        <ele>1575</ele>
        <time>2016-04-01T18:11:18Z</time>
      </trkpt>
      <trkpt lat="44.18118" lon="6.63923">
        <ele>1575</ele>
        <time>2016-04-01T18:13:18Z</time>
      </trkpt>
      <trkpt lat="44.18115" lon="6.63919">
        <ele>1574</ele>
        <time>2016-04-01T18:15:18Z</time>
      </trkpt>
      <trkpt lat="44.18112" lon="6.63916">
        <ele>1574</ele>
        <time>2016-04-01T18:17:18Z</time>
      </trkpt>
      <trkpt lat="44.1811" lon="6.63912">
        <ele>1573</ele>
        <time>2016-04-01T18:19:18Z</time>
      </trkpt>
      <trkpt lat="44.1811" lon="6.63909">
        <ele>1572</ele>
        <time>2016-04-01T18:21:18Z</time>
      </trkpt>
      <trkpt lat="44.1811" lon="6.63906">
        <ele>1572</ele>
        <time>2016-04-01T18:23:18Z</time>
      </trkpt>
      <trkpt lat="44.18112" lon="6.63903">
        <ele>1570</ele>
        <time>2016-04-01T18:25:18Z</time>
      </trkpt>
      <trkpt lat="44.18115" lon="6.63902">
        <ele>1569</ele>
        <time>2016-04-01T18:27:18Z</time>
      </trkpt>
      <trkpt lat="44.18119" lon="6.63904">
        <ele>1569</ele>
        <time>2016-04-01T18:29:18Z</time>
      </trkpt>
      <trkpt lat="44.18131" lon="6.63914">
        <ele>1569</ele>
        <time>2016-04-01T18:31:18Z</time>
      </trkpt>
      <trkpt lat="44.18138" lon="6.63917">
        <ele>1569</ele>
        <time>2016-04-01T18:33:18Z</time>
      </trkpt>
      <trkpt lat="44.18155" lon="6.63929">
        <ele>1567</ele>
        <time>2016-04-01T18:35:18Z</time>
      </trkpt>
      <trkpt lat="44.18161" lon="6.63934">
        <ele>1567</ele>
        <time>2016-04-01T18:37:18Z</time>
      </trkpt>
      <trkpt lat="44.18168" lon="6.63943">
        <ele>1566</ele>
        <time>2016-04-01T18:39:18Z</time>
      </trkpt>
      <trkpt lat="44.18172" lon="6.63952">
        <ele>1567</ele>
        <time>2016-04-01T18:41:18Z</time>
      </trkpt>
      <trkpt lat="44.18178" lon="6.63966">
        <ele>1568</ele>
        <time>2016-04-01T18:43:18Z</time>
      </trkpt>
      <trkpt lat="44.18182" lon="6.63978">
        <ele>1569</ele>
        <time>2016-04-01T18:45:18Z</time>
      </trkpt>
      <trkpt lat="44.18184" lon="6.63985">
        <ele>1569</ele>
        <time>2016-04-01T18:47:18Z</time>
      </trkpt>
      <trkpt lat="44.18187" lon="6.63996">
        <ele>1570</ele>
        <time>2016-04-01T18:49:18Z</time>
      </trkpt>
      <trkpt lat="44.18188" lon="6.64004">
        <ele>1571</ele>
        <time>2016-04-01T18:51:18Z</time>
      </trkpt>
      <trkpt lat="44.18186" lon="6.64015">
        <ele>1574</ele>
        <time>2016-04-01T18:53:18Z</time>
      </trkpt>
      <trkpt lat="44.18186" lon="6.64018">
        <ele>1575</ele>
        <time>2016-04-01T18:55:18Z</time>
      </trkpt>
      <trkpt lat="44.18185" lon="6.64021">
        <ele>1576</ele>
        <time>2016-04-01T18:57:18Z</time>
      </trkpt>
      <trkpt lat="44.18186" lon="6.64025">
        <ele>1576</ele>
        <time>2016-04-01T18:59:18Z</time>
      </trkpt>
      <trkpt lat="44.18188" lon="6.64028">
        <ele>1577</ele>
        <time>2016-04-01T19:01:18Z</time>
      </trkpt>
      <trkpt lat="44.1819" lon="6.64029">
        <ele>1576</ele>
        <time>2016-04-01T19:03:18Z</time>
      </trkpt>
      <trkpt lat="44.18193" lon="6.64028">
        <ele>1575</ele>
        <time>2016-04-01T19:05:18Z</time>
      </trkpt>
      <trkpt lat="44.18195" lon="6.64024">
        <ele>1574</ele>
        <time>2016-04-01T19:07:18Z</time>
      </trkpt>
      <trkpt lat="44.18196" lon="6.64018">
        <ele>1572</ele>
        <time>2016-04-01T19:09:18Z</time>
      </trkpt>
      <trkpt lat="44.18195" lon="6.6401">
        <ele>1571</ele>
        <time>2016-04-01T19:11:18Z</time>
      </trkpt>
      <trkpt lat="44.18195" lon="6.64002">
        <ele>1569</ele>
        <time>2016-04-01T19:13:18Z</time>
      </trkpt>
      <trkpt lat="44.18196" lon="6.63993">
        <ele>1567</ele>
        <time>2016-04-01T19:15:18Z</time>
      </trkpt>
      <trkpt lat="44.18198" lon="6.63982">
        <ele>1565</ele>
        <time>2016-04-01T19:17:18Z</time>
      </trkpt>
      <trkpt lat="44.18201" lon="6.6397">
        <ele>1562</ele>
        <time>2016-04-01T19:19:18Z</time>
      </trkpt>
      <trkpt lat="44.18202" lon="6.63961">
        <ele>1561</ele>
        <time>2016-04-01T19:21:18Z</time>
      </trkpt>
      <trkpt lat="44.18202" lon="6.63953">
        <ele>1559</ele>
        <time>2016-04-01T19:23:18Z</time>
      </trkpt>
      <trkpt lat="44.182" lon="6.63944">
        <ele>1559</ele>
        <time>2016-04-01T19:25:18Z</time>
      </trkpt>
      <trkpt lat="44.18196" lon="6.63936">
        <ele>1558</ele>
        <time>2016-04-01T19:27:18Z</time>
      </trkpt>
      <trkpt lat="44.18188" lon="6.63926">
        <ele>1559</ele>
        <time>2016-04-01T19:29:18Z</time>
      </trkpt>
      <trkpt lat="44.18181" lon="6.63915">
        <ele>1558</ele>
        <time>2016-04-01T19:31:18Z</time>
      </trkpt>
      <trkpt lat="44.1817" lon="6.63901">
        <ele>1557</ele>
        <time>2016-04-01T19:33:18Z</time>
      </trkpt>
      <trkpt lat="44.18163" lon="6.63894">
        <ele>1557</ele>
        <time>2016-04-01T19:35:18Z</time>
      </trkpt>
      <trkpt lat="44.18156" lon="6.63889">
        <ele>1557</ele>
        <time>2016-04-01T19:37:18Z</time>
      </trkpt>
      <trkpt lat="44.18144" lon="6.63883">
        <ele>1557</ele>
        <time>2016-04-01T19:39:18Z</time>
      </trkpt>
      <trkpt lat="44.18127" lon="6.63875">
        <ele>1558</ele>
        <time>2016-04-01T19:41:18Z</time>
      </trkpt>
      <trkpt lat="44.18107" lon="6.63866">
        <ele>1559</ele>
        <time>2016-04-01T19:43:18Z</time>
      </trkpt>
      <trkpt lat="44.18089" lon="6.63857">
        <ele>1560</ele>
        <time>2016-04-01T19:45:18Z</time>
      </trkpt>
      <trkpt lat="44.18074" lon="6.63847">
        <ele>1561</ele>
        <time>2016-04-01T19:47:18Z</time>
      </trkpt>
      <trkpt lat="44.18066" lon="6.63836">
        <ele>1559</ele>
        <time>2016-04-01T19:49:18Z</time>
      </trkpt>
      <trkpt lat="44.18057" lon="6.63805">
        <ele>1554</ele>
        <time>2016-04-01T19:51:18Z</time>
      </trkpt>
      <trkpt lat="44.18054" lon="6.63793">
        <ele>1552</ele>
        <time>2016-04-01T19:53:18Z</time>
      </trkpt>
      <trkpt lat="44.1805" lon="6.63779">
        <ele>1550</ele>
        <time>2016-04-01T19:55:18Z</time>
      </trkpt>
      <trkpt lat="44.18045" lon="6.63761">
        <ele>1547</ele>
        <time>2016-04-01T19:57:18Z</time>
      </trkpt>
      <trkpt lat="44.1804" lon="6.63742">
        <ele>1544</ele>
        <time>2016-04-01T19:59:18Z</time>
      </trkpt>
      <trkpt lat="44.18038" lon="6.63728">
        <ele>1541</ele>
        <time>2016-04-01T20:01:18Z</time>
      </trkpt>
      <trkpt lat="44.18036" lon="6.63719">
        <ele>1539</ele>
        <time>2016-04-01T20:03:18Z</time>
      </trkpt>
      <trkpt lat="44.18035" lon="6.63713">
        <ele>1538</ele>
        <time>2016-04-01T20:05:18Z</time>
      </trkpt>
      <trkpt lat="44.18035" lon="6.63707">
        <ele>1537</ele>
        <time>2016-04-01T20:07:18Z</time>
      </trkpt>
      <trkpt lat="44.18035" lon="6.63702">
        <ele>1536</ele>
        <time>2016-04-01T20:09:18Z</time>
      </trkpt>
      <trkpt lat="44.18036" lon="6.63697">
        <ele>1534</ele>
        <time>2016-04-01T20:11:18Z</time>
      </trkpt>
      <trkpt lat="44.1804" lon="6.63692">
        <ele>1532</ele>
        <time>2016-04-01T20:13:18Z</time>
      </trkpt>
      <trkpt lat="44.18043" lon="6.63689">
        <ele>1531</ele>
        <time>2016-04-01T20:15:18Z</time>
      </trkpt>
      <trkpt lat="44.18048" lon="6.63687">
        <ele>1529</ele>
        <time>2016-04-01T20:17:18Z</time>
      </trkpt>
      <trkpt lat="44.18062" lon="6.6369">
        <ele>1527</ele>
        <time>2016-04-01T20:19:18Z</time>
      </trkpt>
      <trkpt lat="44.1808" lon="6.63698">
        <ele>1524</ele>
        <time>2016-04-01T20:21:18Z</time>
      </trkpt>
      <trkpt lat="44.18094" lon="6.63704">
        <ele>1522</ele>
        <time>2016-04-01T20:23:18Z</time>
      </trkpt>
      <trkpt lat="44.18105" lon="6.63708">
        <ele>1521</ele>
        <time>2016-04-01T20:25:18Z</time>
      </trkpt>
      <trkpt lat="44.18116" lon="6.6371">
        <ele>1520</ele>
        <time>2016-04-01T20:27:18Z</time>
      </trkpt>
      <trkpt lat="44.18127" lon="6.63712">
        <ele>1519</ele>
        <time>2016-04-01T20:29:18Z</time>
      </trkpt>
      <trkpt lat="44.1815" lon="6.63714">
        <ele>1516</ele>
        <time>2016-04-01T20:31:18Z</time>
      </trkpt>
      <trkpt lat="44.1816" lon="6.63716">
        <ele>1514</ele>
        <time>2016-04-01T20:33:18Z</time>
      </trkpt>
      <trkpt lat="44.18171" lon="6.6372">
        <ele>1514</ele>
        <time>2016-04-01T20:35:18Z</time>
      </trkpt>
      <trkpt lat="44.18185" lon="6.63727">
        <ele>1514</ele>
        <time>2016-04-01T20:37:18Z</time>
      </trkpt>
      <trkpt lat="44.18192" lon="6.63731">
        <ele>1514</ele>
        <time>2016-04-01T20:39:18Z</time>
      </trkpt>
      <trkpt lat="44.18201" lon="6.63739">
        <ele>1515</ele>
        <time>2016-04-01T20:41:18Z</time>
      </trkpt>
      <trkpt lat="44.18207" lon="6.63749">
        <ele>1517</ele>
        <time>2016-04-01T20:43:18Z</time>
      </trkpt>
      <trkpt lat="44.1822" lon="6.63769">
        <ele>1520</ele>
        <time>2016-04-01T20:45:18Z</time>
      </trkpt>
      <trkpt lat="44.18229" lon="6.63772">
        <ele>1520</ele>
        <time>2016-04-01T20:47:18Z</time>
      </trkpt>
      <trkpt lat="44.18239" lon="6.6377">
        <ele>1518</ele>
        <time>2016-04-01T20:49:18Z</time>
      </trkpt>
      <trkpt lat="44.18254" lon="6.63768">
        <ele>1517</ele>
        <time>2016-04-01T20:51:18Z</time>
      </trkpt>
      <trkpt lat="44.18266" lon="6.63764">
        <ele>1515</ele>
        <time>2016-04-01T20:53:18Z</time>
      </trkpt>
      <trkpt lat="44.18279" lon="6.63761">
        <ele>1514</ele>
        <time>2016-04-01T20:55:18Z</time>
      </trkpt>
      <trkpt lat="44.18293" lon="6.63758">
        <ele>1512</ele>
        <time>2016-04-01T20:57:18Z</time>
      </trkpt>
      <trkpt lat="44.18305" lon="6.63753">
        <ele>1511</ele>
        <time>2016-04-01T20:59:18Z</time>
      </trkpt>
      <trkpt lat="44.18322" lon="6.63746">
        <ele>1508</ele>
        <time>2016-04-01T21:01:18Z</time>
      </trkpt>
      <trkpt lat="44.1834" lon="6.63738">
        <ele>1504</ele>
        <time>2016-04-01T21:03:18Z</time>
      </trkpt>
      <trkpt lat="44.1835" lon="6.63734">
        <ele>1501</ele>
        <time>2016-04-01T21:05:18Z</time>
      </trkpt>
      <trkpt lat="44.18358" lon="6.63733">
        <ele>1500</ele>
        <time>2016-04-01T21:07:18Z</time>
      </trkpt>
      <trkpt lat="44.18365" lon="6.63733">
        <ele>1499</ele>
        <time>2016-04-01T21:09:18Z</time>
      </trkpt>
      <trkpt lat="44.18373" lon="6.63737">
        <ele>1499</ele>
        <time>2016-04-01T21:11:18Z</time>
      </trkpt>
      <trkpt lat="44.18379" lon="6.63739">
        <ele>1498</ele>
        <time>2016-04-01T21:13:18Z</time>
      </trkpt>
      <trkpt lat="44.18383" lon="6.63744">
        <ele>1499</ele>
        <time>2016-04-01T21:15:18Z</time>
      </trkpt>
      <trkpt lat="44.18387" lon="6.6375">
        <ele>1500</ele>
        <time>2016-04-01T21:17:18Z</time>
      </trkpt>
      <trkpt lat="44.18389" lon="6.63751">
        <ele>1500</ele>
        <time>2016-04-01T21:19:18Z</time>
      </trkpt>
      <trkpt lat="44.18392" lon="6.6375">
        <ele>1499</ele>
        <time>2016-04-01T21:21:18Z</time>
      </trkpt>
      <trkpt lat="44.18394" lon="6.63748">
        <ele>1498</ele>
        <time>2016-04-01T21:23:18Z</time>
      </trkpt>
      <trkpt lat="44.18394" lon="6.63744">
        <ele>1497</ele>
        <time>2016-04-01T21:25:18Z</time>
      </trkpt>
      <trkpt lat="44.18393" lon="6.63741">
        <ele>1496</ele>
        <time>2016-04-01T21:27:18Z</time>
      </trkpt>
      <trkpt lat="44.18386" lon="6.63734">
        <ele>1495</ele>
        <time>2016-04-01T21:29:18Z</time>
      </trkpt>
      <trkpt lat="44.18381" lon="6.63729">
        <ele>1495</ele>
        <time>2016-04-01T21:31:18Z</time>
      </trkpt>
      <trkpt lat="44.18375" lon="6.63724">
        <ele>1494</ele>
        <time>2016-04-01T21:33:18Z</time>
      </trkpt>
      <trkpt lat="44.18368" lon="6.63717">
        <ele>1493</ele>
        <time>2016-04-01T21:35:18Z</time>
      </trkpt>
      <trkpt lat="44.18357" lon="6.63711">
        <ele>1493</ele>
        <time>2016-04-01T21:37:18Z</time>
      </trkpt>
      <trkpt lat="44.18346" lon="6.63708">
        <ele>1494</ele>
        <time>2016-04-01T21:39:18Z</time>
      </trkpt>
      <trkpt lat="44.18339" lon="6.63709">
        <ele>1496</ele>
        <time>2016-04-01T21:41:18Z</time>
      </trkpt>
      <trkpt lat="44.18329" lon="6.63708">
        <ele>1497</ele>
        <time>2016-04-01T21:43:18Z</time>
      </trkpt>
      <trkpt lat="44.18318" lon="6.63709">
        <ele>1497</ele>
        <time>2016-04-01T21:45:18Z</time>
      </trkpt>
      <trkpt lat="44.18306" lon="6.63708">
        <ele>1498</ele>
        <time>2016-04-01T21:47:18Z</time>
      </trkpt>
      <trkpt lat="44.18293" lon="6.63709">
        <ele>1498</ele>
        <time>2016-04-01T21:49:18Z</time>
      </trkpt>
      <trkpt lat="44.18285" lon="6.63707">
        <ele>1498</ele>
        <time>2016-04-01T21:51:18Z</time>
      </trkpt>
      <trkpt lat="44.18276" lon="6.63704">
        <ele>1498</ele>
        <time>2016-04-01T21:53:18Z</time>
      </trkpt>
      <trkpt lat="44.18269" lon="6.63701">
        <ele>1497</ele>
        <time>2016-04-01T21:55:18Z</time>
      </trkpt>
      <trkpt lat="44.18262" lon="6.63699">
        <ele>1497</ele>
        <time>2016-04-01T21:57:18Z</time>
      </trkpt>
      <trkpt lat="44.18256" lon="6.63698">
        <ele>1497</ele>
        <time>2016-04-01T21:59:18Z</time>
      </trkpt>
      <trkpt lat="44.18242" lon="6.63696">
        <ele>1497</ele>
        <time>2016-04-01T22:01:18Z</time>
      </trkpt>
      <trkpt lat="44.18229" lon="6.63694">
        <ele>1499</ele>
        <time>2016-04-01T22:03:18Z</time>
      </trkpt>
      <trkpt lat="44.18222" lon="6.63691">
        <ele>1499</ele>
        <time>2016-04-01T22:05:18Z</time>
      </trkpt>
      <trkpt lat="44.18214" lon="6.63687">
        <ele>1499</ele>
        <time>2016-04-01T22:07:18Z</time>
      </trkpt>
      <trkpt lat="44.18211" lon="6.63684">
        <ele>1498</ele>
        <time>2016-04-01T22:09:18Z</time>
      </trkpt>
      <trkpt lat="44.18211" lon="6.6368">
        <ele>1497</ele>
        <time>2016-04-01T22:11:18Z</time>
      </trkpt>
      <trkpt lat="44.18212" lon="6.63676">
        <ele>1496</ele>
        <time>2016-04-01T22:13:18Z</time>
      </trkpt>
      <trkpt lat="44.18214" lon="6.63674">
        <ele>1495</ele>
        <time>2016-04-01T22:15:18Z</time>
      </trkpt>
      <trkpt lat="44.18218" lon="6.63674">
        <ele>1494</ele>
        <time>2016-04-01T22:17:18Z</time>
      </trkpt>
      <trkpt lat="44.18224" lon="6.63677">
        <ele>1494</ele>
        <time>2016-04-01T22:19:18Z</time>
      </trkpt>
      <trkpt lat="44.18231" lon="6.6368">
        <ele>1494</ele>
        <time>2016-04-01T22:21:18Z</time>
      </trkpt>
      <trkpt lat="44.18236" lon="6.6368">
        <ele>1493</ele>
        <time>2016-04-01T22:23:18Z</time>
      </trkpt>
      <trkpt lat="44.18241" lon="6.63679">
        <ele>1492</ele>
        <time>2016-04-01T22:25:18Z</time>
      </trkpt>
      <trkpt lat="44.18247" lon="6.63677">
        <ele>1491</ele>
        <time>2016-04-01T22:27:18Z</time>
      </trkpt>
      <trkpt lat="44.18253" lon="6.63673">
        <ele>1489</ele>
        <time>2016-04-01T22:29:18Z</time>
      </trkpt>
      <trkpt lat="44.18281" lon="6.63658">
        <ele>1483</ele>
        <time>2016-04-01T22:31:18Z</time>
      </trkpt>
      <trkpt lat="44.18293" lon="6.63653">
        <ele>1481</ele>
        <time>2016-04-01T22:33:18Z</time>
      </trkpt>
      <trkpt lat="44.18313" lon="6.63645">
        <ele>1477</ele>
        <time>2016-04-01T22:35:18Z</time>
      </trkpt>
      <trkpt lat="44.18324" lon="6.63643">
        <ele>1476</ele>
        <time>2016-04-01T22:37:18Z</time>
      </trkpt>
      <trkpt lat="44.18337" lon="6.63642">
        <ele>1474</ele>
        <time>2016-04-01T22:39:18Z</time>
      </trkpt>
      <trkpt lat="44.18369" lon="6.63643">
        <ele>1470</ele>
        <time>2016-04-01T22:41:18Z</time>
      </trkpt>
      <trkpt lat="44.18376" lon="6.63643">
        <ele>1469</ele>
        <time>2016-04-01T22:43:18Z</time>
      </trkpt>
      <trkpt lat="44.18385" lon="6.63646">
        <ele>1469</ele>
        <time>2016-04-01T22:45:18Z</time>
      </trkpt>
      <trkpt lat="44.18394" lon="6.63648">
        <ele>1468</ele>
        <time>2016-04-01T22:47:18Z</time>
      </trkpt>
      <trkpt lat="44.18399" lon="6.63652">
        <ele>1469</ele>
        <time>2016-04-01T22:49:18Z</time>
      </trkpt>
      <trkpt lat="44.18407" lon="6.63656">
        <ele>1469</ele>
        <time>2016-04-01T22:51:18Z</time>
      </trkpt>
      <trkpt lat="44.18416" lon="6.63659">
        <ele>1469</ele>
        <time>2016-04-01T22:53:18Z</time>
      </trkpt>
      <trkpt lat="44.18436" lon="6.63661">
        <ele>1467</ele>
        <time>2016-04-01T22:55:18Z</time>
      </trkpt>
      <trkpt lat="44.18445" lon="6.63656">
        <ele>1465</ele>
        <time>2016-04-01T22:57:18Z</time>
      </trkpt>
      <trkpt lat="44.18455" lon="6.63652">
        <ele>1463</ele>
        <time>2016-04-01T22:59:18Z</time>
      </trkpt>
      <trkpt lat="44.18461" lon="6.6365">
        <ele>1462</ele>
        <time>2016-04-01T23:01:18Z</time>
      </trkpt>
      <trkpt lat="44.18466" lon="6.6365">
        <ele>1461</ele>
        <time>2016-04-01T23:03:18Z</time>
      </trkpt>
      <trkpt lat="44.18472" lon="6.6365">
        <ele>1461</ele>
        <time>2016-04-01T23:05:18Z</time>
      </trkpt>
      <trkpt lat="44.18477" lon="6.63651">
        <ele>1461</ele>
        <time>2016-04-01T23:07:18Z</time>
      </trkpt>
      <trkpt lat="44.18483" lon="6.63652">
        <ele>1461</ele>
        <time>2016-04-01T23:09:18Z</time>
      </trkpt>
      <trkpt lat="44.18494" lon="6.63653">
        <ele>1460</ele>
        <time>2016-04-01T23:11:18Z</time>
      </trkpt>
      <trkpt lat="44.18504" lon="6.63652">
        <ele>1458</ele>
        <time>2016-04-01T23:13:18Z</time>
      </trkpt>
      <trkpt lat="44.18512" lon="6.63652">
        <ele>1457</ele>
        <time>2016-04-01T23:15:18Z</time>
      </trkpt>
      <trkpt lat="44.1852" lon="6.63655">
        <ele>1456</ele>
        <time>2016-04-01T23:17:18Z</time>
      </trkpt>
      <trkpt lat="44.18525" lon="6.63663">
        <ele>1457</ele>
        <time>2016-04-01T23:19:18Z</time>
      </trkpt>
      <trkpt lat="44.18528" lon="6.63665">
        <ele>1457</ele>
        <time>2016-04-01T23:21:18Z</time>
      </trkpt>
      <trkpt lat="44.18532" lon="6.63665">
        <ele>1456</ele>
        <time>2016-04-01T23:23:18Z</time>
      </trkpt>
      <trkpt lat="44.18534" lon="6.63664">
        <ele>1455</ele>
        <time>2016-04-01T23:25:18Z</time>
      </trkpt>
      <trkpt lat="44.18535" lon="6.63661">
        <ele>1454</ele>
        <time>2016-04-01T23:27:18Z</time>
      </trkpt>
      <trkpt lat="44.18535" lon="6.63655">
        <ele>1453</ele>
        <time>2016-04-01T23:29:18Z</time>
      </trkpt>
      <trkpt lat="44.18525" lon="6.63639">
        <ele>1451</ele>
        <time>2016-04-01T23:31:18Z</time>
      </trkpt>
      <trkpt lat="44.1852" lon="6.63632">
        <ele>1450</ele>
        <time>2016-04-01T23:33:18Z</time>
      </trkpt>
      <trkpt lat="44.18512" lon="6.63623">
        <ele>1449</ele>
        <time>2016-04-01T23:35:18Z</time>
      </trkpt>
      <trkpt lat="44.18501" lon="6.63617">
        <ele>1450</ele>
        <time>2016-04-01T23:37:18Z</time>
      </trkpt>
      <trkpt lat="44.18474" lon="6.63608">
        <ele>1449</ele>
        <time>2016-04-01T23:39:18Z</time>
      </trkpt>
      <trkpt lat="44.18455" lon="6.63601">
        <ele>1447</ele>
        <time>2016-04-01T23:41:18Z</time>
      </trkpt>
      <trkpt lat="44.18438" lon="6.63598">
        <ele>1447</ele>
        <time>2016-04-01T23:43:18Z</time>
      </trkpt>
      <trkpt lat="44.18425" lon="6.63595">
        <ele>1447</ele>
        <time>2016-04-01T23:45:18Z</time>
      </trkpt>
      <trkpt lat="44.18415" lon="6.6359">
        <ele>1445</ele>
        <time>2016-04-01T23:47:18Z</time>
      </trkpt>
      <trkpt lat="44.18405" lon="6.63585">
        <ele>1445</ele>
        <time>2016-04-01T23:49:18Z</time>
      </trkpt>
      <trkpt lat="44.18343" lon="6.63558">
        <ele>1442</ele>
        <time>2016-04-01T23:51:18Z</time>
      </trkpt>
      <trkpt lat="44.18337" lon="6.63554">
        <ele>1441</ele>
        <time>2016-04-01T23:53:18Z</time>
      </trkpt>
      <trkpt lat="44.18332" lon="6.63546">
        <ele>1438</ele>
        <time>2016-04-01T23:55:18Z</time>
      </trkpt>
      <trkpt lat="44.18321" lon="6.63529">
        <ele>1433</ele>
        <time>2016-04-01T23:57:18Z</time>
      </trkpt>
      <trkpt lat="44.18317" lon="6.63522">
        <ele>1430</ele>
        <time>2016-04-01T23:59:18Z</time>
      </trkpt>
      <trkpt lat="44.18311" lon="6.63516">
        <ele>1429</ele>
        <time>2016-04-02T00:01:18Z</time>
      </trkpt>
      <trkpt lat="44.18305" lon="6.6351">
        <ele>1427</ele>
        <time>2016-04-02T00:03:18Z</time>
      </trkpt>
      <trkpt lat="44.18293" lon="6.635">
        <ele>1425</ele>
        <time>2016-04-02T00:05:18Z</time>
      </trkpt>
      <trkpt lat="44.18285" lon="6.63497">
        <ele>1425</ele>
        <time>2016-04-02T00:07:18Z</time>
      </trkpt>
      <trkpt lat="44.18276" lon="6.63492">
        <ele>1424</ele>
        <time>2016-04-02T00:09:18Z</time>
      </trkpt>
      <trkpt lat="44.18266" lon="6.6349">
        <ele>1425</ele>
        <time>2016-04-02T00:11:18Z</time>
      </trkpt>
      <trkpt lat="44.18261" lon="6.63489">
        <ele>1425</ele>
        <time>2016-04-02T00:13:18Z</time>
      </trkpt>
      <trkpt lat="44.1824" lon="6.63488">
        <ele>1426</ele>
        <time>2016-04-02T00:15:18Z</time>
      </trkpt>
      <trkpt lat="44.18232" lon="6.63486">
        <ele>1425</ele>
        <time>2016-04-02T00:17:18Z</time>
      </trkpt>
      <trkpt lat="44.18225" lon="6.63483">
        <ele>1424</ele>
        <time>2016-04-02T00:19:18Z</time>
      </trkpt>
      <trkpt lat="44.18217" lon="6.63478">
        <ele>1423</ele>
        <time>2016-04-02T00:21:18Z</time>
      </trkpt>
      <trkpt lat="44.18207" lon="6.63467">
        <ele>1419</ele>
        <time>2016-04-02T00:23:18Z</time>
      </trkpt>
      <trkpt lat="44.18199" lon="6.63459">
        <ele>1417</ele>
        <time>2016-04-02T00:25:18Z</time>
      </trkpt>
      <trkpt lat="44.18191" lon="6.63453">
        <ele>1415</ele>
        <time>2016-04-02T00:27:18Z</time>
      </trkpt>
      <trkpt lat="44.18185" lon="6.6345">
        <ele>1414</ele>
        <time>2016-04-02T00:29:18Z</time>
      </trkpt>
      <trkpt lat="44.1818" lon="6.63448">
        <ele>1413</ele>
        <time>2016-04-02T00:31:18Z</time>
      </trkpt>
      <trkpt lat="44.18171" lon="6.63446">
        <ele>1413</ele>
        <time>2016-04-02T00:33:18Z</time>
      </trkpt>
      <trkpt lat="44.18164" lon="6.63447">
        <ele>1413</ele>
        <time>2016-04-02T00:35:18Z</time>
      </trkpt>
      <trkpt lat="44.18158" lon="6.6345">
        <ele>1414</ele>
        <time>2016-04-02T00:37:18Z</time>
      </trkpt>
      <trkpt lat="44.18145" lon="6.63458">
        <ele>1417</ele>
        <time>2016-04-02T00:39:18Z</time>
      </trkpt>
      <trkpt lat="44.18144" lon="6.63459">
        <ele>1417</ele>
        <time>2016-04-02T00:41:18Z</time>
      </trkpt>
      <trkpt lat="44.18142" lon="6.63458">
        <ele>1417</ele>
        <time>2016-04-02T00:43:18Z</time>
      </trkpt>
      <trkpt lat="44.1814" lon="6.63456">
        <ele>1416</ele>
        <time>2016-04-02T00:45:18Z</time>
      </trkpt>
      <trkpt lat="44.1814" lon="6.63453">
        <ele>1415</ele>
        <time>2016-04-02T00:47:18Z</time>
      </trkpt>
      <trkpt lat="44.1814" lon="6.63451">
        <ele>1414</ele>
        <time>2016-04-02T00:49:18Z</time>
      </trkpt>
      <trkpt lat="44.18142" lon="6.63449">
        <ele>1414</ele>
        <time>2016-04-02T00:51:18Z</time>
      </trkpt>
      <trkpt lat="44.18143" lon="6.63448">
        <ele>1413</ele>
        <time>2016-04-02T00:53:18Z</time>
      </trkpt>
      <trkpt lat="44.18173" lon="6.63424">
        <ele>1405</ele>
        <time>2016-04-02T00:55:18Z</time>
      </trkpt>
      <trkpt lat="44.18183" lon="6.6342">
        <ele>1404</ele>
        <time>2016-04-02T00:57:18Z</time>
      </trkpt>
      <trkpt lat="44.18193" lon="6.63415">
        <ele>1402</ele>
        <time>2016-04-02T00:59:18Z</time>
      </trkpt>
      <trkpt lat="44.18203" lon="6.63413">
        <ele>1401</ele>
        <time>2016-04-02T01:01:18Z</time>
      </trkpt>
      <trkpt lat="44.18209" lon="6.63412">
        <ele>1400</ele>
        <time>2016-04-02T01:03:18Z</time>
      </trkpt>
      <trkpt lat="44.18219" lon="6.63412">
        <ele>1400</ele>
        <time>2016-04-02T01:05:18Z</time>
      </trkpt>
      <trkpt lat="44.18232" lon="6.63414">
        <ele>1400</ele>
        <time>2016-04-02T01:07:18Z</time>
      </trkpt>
      <trkpt lat="44.18242" lon="6.63416">
        <ele>1401</ele>
        <time>2016-04-02T01:09:18Z</time>
      </trkpt>
      <trkpt lat="44.18252" lon="6.63417">
        <ele>1401</ele>
        <time>2016-04-02T01:11:18Z</time>
      </trkpt>
      <trkpt lat="44.18265" lon="6.63421">
        <ele>1400</ele>
        <time>2016-04-02T01:13:18Z</time>
      </trkpt>
      <trkpt lat="44.18275" lon="6.63426">
        <ele>1401</ele>
        <time>2016-04-02T01:15:18Z</time>
      </trkpt>
      <trkpt lat="44.18309" lon="6.63438">
        <ele>1400</ele>
        <time>2016-04-02T01:17:18Z</time>
      </trkpt>
      <trkpt lat="44.18321" lon="6.63442">
        <ele>1400</ele>
        <time>2016-04-02T01:19:18Z</time>
      </trkpt>
      <trkpt lat="44.18337" lon="6.63447">
        <ele>1400</ele>
        <time>2016-04-02T01:21:18Z</time>
      </trkpt>
      <trkpt lat="44.18354" lon="6.6345">
        <ele>1400</ele>
        <time>2016-04-02T01:23:18Z</time>
      </trkpt>
      <trkpt lat="44.1837" lon="6.63452">
        <ele>1400</ele>
        <time>2016-04-02T01:25:18Z</time>
      </trkpt>
      <trkpt lat="44.18378" lon="6.63454">
        <ele>1400</ele>
        <time>2016-04-02T01:27:18Z</time>
      </trkpt>
      <trkpt lat="44.18387" lon="6.63454">
        <ele>1399</ele>
        <time>2016-04-02T01:29:18Z</time>
      </trkpt>
      <trkpt lat="44.18396" lon="6.63451">
        <ele>1397</ele>
        <time>2016-04-02T01:31:18Z</time>
      </trkpt>
      <trkpt lat="44.18404" lon="6.63448">
        <ele>1396</ele>
        <time>2016-04-02T01:33:18Z</time>
      </trkpt>
      <trkpt lat="44.18415" lon="6.63442">
        <ele>1393</ele>
        <time>2016-04-02T01:35:18Z</time>
      </trkpt>
      <trkpt lat="44.18424" lon="6.63436">
        <ele>1390</ele>
        <time>2016-04-02T01:37:18Z</time>
      </trkpt>
      <trkpt lat="44.18445" lon="6.63422">
        <ele>1385</ele>
        <time>2016-04-02T01:39:18Z</time>
      </trkpt>
      <trkpt lat="44.18458" lon="6.63414">
        <ele>1383</ele>
        <time>2016-04-02T01:41:18Z</time>
      </trkpt>
      <trkpt lat="44.18485" lon="6.63397">
        <ele>1377</ele>
        <time>2016-04-02T01:43:18Z</time>
      </trkpt>
      <trkpt lat="44.18492" lon="6.63393">
        <ele>1375</ele>
        <time>2016-04-02T01:45:18Z</time>
      </trkpt>
      <trkpt lat="44.18498" lon="6.6339">
        <ele>1374</ele>
        <time>2016-04-02T01:47:18Z</time>
      </trkpt>
      <trkpt lat="44.18503" lon="6.63389">
        <ele>1374</ele>
        <time>2016-04-02T01:49:18Z</time>
      </trkpt>
      <trkpt lat="44.18512" lon="6.63387">
        <ele>1372</ele>
        <time>2016-04-02T01:51:18Z</time>
      </trkpt>
      <trkpt lat="44.18523" lon="6.63386">
        <ele>1371</ele>
        <time>2016-04-02T01:53:18Z</time>
      </trkpt>
      <trkpt lat="44.18534" lon="6.63386">
        <ele>1370</ele>
        <time>2016-04-02T01:55:18Z</time>
      </trkpt>
      <trkpt lat="44.18547" lon="6.63387">
        <ele>1370</ele>
        <time>2016-04-02T01:57:18Z</time>
      </trkpt>
      <trkpt lat="44.18557" lon="6.63388">
        <ele>1369</ele>
        <time>2016-04-02T01:59:18Z</time>
      </trkpt>
      <trkpt lat="44.1857" lon="6.63392">
        <ele>1369</ele>
        <time>2016-04-02T02:01:18Z</time>
      </trkpt>
      <trkpt lat="44.18578" lon="6.63395">
        <ele>1370</ele>
        <time>2016-04-02T02:03:18Z</time>
      </trkpt>
      <trkpt lat="44.18583" lon="6.63397">
        <ele>1370</ele>
        <time>2016-04-02T02:05:18Z</time>
      </trkpt>
      <trkpt lat="44.18587" lon="6.63396">
        <ele>1369</ele>
        <time>2016-04-02T02:07:18Z</time>
      </trkpt>
      <trkpt lat="44.18588" lon="6.63392">
        <ele>1367</ele>
        <time>2016-04-02T02:09:18Z</time>
      </trkpt>
      <trkpt lat="44.18588" lon="6.63389">
        <ele>1366</ele>
        <time>2016-04-02T02:11:18Z</time>
      </trkpt>
      <trkpt lat="44.18586" lon="6.63386">
        <ele>1366</ele>
        <time>2016-04-02T02:13:18Z</time>
      </trkpt>
      <trkpt lat="44.18581" lon="6.63383">
        <ele>1365</ele>
        <time>2016-04-02T02:15:18Z</time>
      </trkpt>
      <trkpt lat="44.18519" lon="6.63356">
        <ele>1361</ele>
        <time>2016-04-02T02:17:18Z</time>
      </trkpt>
      <trkpt lat="44.1851" lon="6.63352">
        <ele>1360</ele>
        <time>2016-04-02T02:19:18Z</time>
      </trkpt>
      <trkpt lat="44.185" lon="6.6335">
        <ele>1360</ele>
        <time>2016-04-02T02:21:18Z</time>
      </trkpt>
      <trkpt lat="44.18487" lon="6.63349">
        <ele>1359</ele>
        <time>2016-04-02T02:23:18Z</time>
      </trkpt>
      <trkpt lat="44.18477" lon="6.6335">
        <ele>1359</ele>
        <time>2016-04-02T02:25:18Z</time>
      </trkpt>
      <trkpt lat="44.18469" lon="6.6335">
        <ele>1359</ele>
        <time>2016-04-02T02:27:18Z</time>
      </trkpt>
      <trkpt lat="44.18431" lon="6.63354">
        <ele>1359</ele>
        <time>2016-04-02T02:29:18Z</time>
      </trkpt>
      <trkpt lat="44.18424" lon="6.63354">
        <ele>1359</ele>
        <time>2016-04-02T02:31:18Z</time>
      </trkpt>
      <trkpt lat="44.18417" lon="6.63352">
        <ele>1358</ele>
        <time>2016-04-02T02:33:18Z</time>
      </trkpt>
      <trkpt lat="44.18411" lon="6.63349">
        <ele>1358</ele>
        <time>2016-04-02T02:35:18Z</time>
      </trkpt>
      <trkpt lat="44.18405" lon="6.63345">
        <ele>1357</ele>
        <time>2016-04-02T02:37:18Z</time>
      </trkpt>
      <trkpt lat="44.18378" lon="6.63321">
        <ele>1350</ele>
        <time>2016-04-02T02:39:18Z</time>
      </trkpt>
      <trkpt lat="44.18368" lon="6.63314">
        <ele>1348</ele>
        <time>2016-04-02T02:41:18Z</time>
      </trkpt>
      <trkpt lat="44.18359" lon="6.6331">
        <ele>1347</ele>
        <time>2016-04-02T02:43:18Z</time>
      </trkpt>
      <trkpt lat="44.18349" lon="6.63306">
        <ele>1346</ele>
        <time>2016-04-02T02:45:18Z</time>
      </trkpt>
      <trkpt lat="44.1833" lon="6.63302">
        <ele>1345</ele>
        <time>2016-04-02T02:47:18Z</time>
      </trkpt>
      <trkpt lat="44.18318" lon="6.633">
        <ele>1344</ele>
        <time>2016-04-02T02:49:18Z</time>
      </trkpt>
      <trkpt lat="44.18308" lon="6.63298">
        <ele>1344</ele>
        <time>2016-04-02T02:51:18Z</time>
      </trkpt>
      <trkpt lat="44.18302" lon="6.63299">
        <ele>1344</ele>
        <time>2016-04-02T02:53:18Z</time>
      </trkpt>
      <trkpt lat="44.18294" lon="6.63299">
        <ele>1344</ele>
        <time>2016-04-02T02:55:18Z</time>
      </trkpt>
      <trkpt lat="44.1828" lon="6.63303">
        <ele>1347</ele>
        <time>2016-04-02T02:57:18Z</time>
      </trkpt>
      <trkpt lat="44.18274" lon="6.63302">
        <ele>1346</ele>
        <time>2016-04-02T02:59:18Z</time>
      </trkpt>
      <trkpt lat="44.18266" lon="6.63299">
        <ele>1345</ele>
        <time>2016-04-02T03:01:18Z</time>
      </trkpt>
      <trkpt lat="44.18253" lon="6.63294">
        <ele>1343</ele>
        <time>2016-04-02T03:03:18Z</time>
      </trkpt>
      <trkpt lat="44.1824" lon="6.63288">
        <ele>1340</ele>
        <time>2016-04-02T03:05:18Z</time>
      </trkpt>
      <trkpt lat="44.18222" lon="6.63282">
        <ele>1338</ele>
        <time>2016-04-02T03:07:18Z</time>
      </trkpt>
      <trkpt lat="44.18204" lon="6.63275">
        <ele>1336</ele>
        <time>2016-04-02T03:09:18Z</time>
      </trkpt>
      <trkpt lat="44.18166" lon="6.63269">
        <ele>1336</ele>
        <time>2016-04-02T03:11:18Z</time>
      </trkpt>
      <trkpt lat="44.18146" lon="6.63264">
        <ele>1332</ele>
        <time>2016-04-02T03:13:18Z</time>
      </trkpt>
      <trkpt lat="44.18138" lon="6.63262">
        <ele>1331</ele>
        <time>2016-04-02T03:15:18Z</time>
      </trkpt>
      <trkpt lat="44.18133" lon="6.6326">
        <ele>1330</ele>
        <time>2016-04-02T03:17:18Z</time>
      </trkpt>
      <trkpt lat="44.18126" lon="6.6326">
        <ele>1329</ele>
        <time>2016-04-02T03:19:18Z</time>
      </trkpt>
      <trkpt lat="44.1812" lon="6.63261">
        <ele>1329</ele>
        <time>2016-04-02T03:21:18Z</time>
      </trkpt>
      <trkpt lat="44.18118" lon="6.63261">
        <ele>1329</ele>
        <time>2016-04-02T03:23:18Z</time>
      </trkpt>
      <trkpt lat="44.18115" lon="6.63259">
        <ele>1328</ele>
        <time>2016-04-02T03:25:18Z</time>
      </trkpt>
      <trkpt lat="44.18114" lon="6.63256">
        <ele>1327</ele>
        <time>2016-04-02T03:27:18Z</time>
      </trkpt>
      <trkpt lat="44.18114" lon="6.63253">
        <ele>1326</ele>
        <time>2016-04-02T03:29:18Z</time>
      </trkpt>
      <trkpt lat="44.18116" lon="6.63251">
        <ele>1325</ele>
        <time>2016-04-02T03:31:18Z</time>
      </trkpt>
      <trkpt lat="44.1812" lon="6.6325">
        <ele>1324</ele>
        <time>2016-04-02T03:33:18Z</time>
      </trkpt>
      <trkpt lat="44.18125" lon="6.6325">
        <ele>1325</ele>
        <time>2016-04-02T03:35:18Z</time>
      </trkpt>
      <trkpt lat="44.1813" lon="6.63251">
        <ele>1325</ele>
        <time>2016-04-02T03:37:18Z</time>
      </trkpt>
      <trkpt lat="44.18146" lon="6.63252">
        <ele>1326</ele>
        <time>2016-04-02T03:39:18Z</time>
      </trkpt>
      <trkpt lat="44.18152" lon="6.63253">
        <ele>1327</ele>
        <time>2016-04-02T03:41:18Z</time>
      </trkpt>
      <trkpt lat="44.18155" lon="6.63254">
        <ele>1328</ele>
        <time>2016-04-02T03:43:18Z</time>
      </trkpt>
      <trkpt lat="44.18158" lon="6.63255">
        <ele>1328</ele>
        <time>2016-04-02T03:45:18Z</time>
      </trkpt>
      <trkpt lat="44.18162" lon="6.63253">
        <ele>1327</ele>
        <time>2016-04-02T03:47:18Z</time>
      </trkpt>
      <trkpt lat="44.18163" lon="6.63249">
        <ele>1325</ele>
        <time>2016-04-02T03:49:18Z</time>
      </trkpt>
      <trkpt lat="44.1816" lon="6.63245">
        <ele>1324</ele>
        <time>2016-04-02T03:51:18Z</time>
      </trkpt>
      <trkpt lat="44.18157" lon="6.63244">
        <ele>1323</ele>
        <time>2016-04-02T03:53:18Z</time>
      </trkpt>
      <trkpt lat="44.18152" lon="6.63243">
        <ele>1323</ele>
        <time>2016-04-02T03:55:18Z</time>
      </trkpt>
      <trkpt lat="44.18144" lon="6.63242">
        <ele>1322</ele>
        <time>2016-04-02T03:57:18Z</time>
      </trkpt>
      <trkpt lat="44.18136" lon="6.6324">
        <ele>1321</ele>
        <time>2016-04-02T03:59:18Z</time>
      </trkpt>
      <trkpt lat="44.18127" lon="6.63238">
        <ele>1320</ele>
        <time>2016-04-02T04:01:18Z</time>
      </trkpt>
      <trkpt lat="44.18118" lon="6.63239">
        <ele>1320</ele>
        <time>2016-04-02T04:03:18Z</time>
      </trkpt>
      <trkpt lat="44.18109" lon="6.63241">
        <ele>1321</ele>
        <time>2016-04-02T04:05:18Z</time>
      </trkpt>
      <trkpt lat="44.18098" lon="6.63247">
        <ele>1322</ele>
        <time>2016-04-02T04:07:18Z</time>
      </trkpt>
      <trkpt lat="44.18089" lon="6.63249">
        <ele>1323</ele>
        <time>2016-04-02T04:09:18Z</time>
      </trkpt>
      <trkpt lat="44.18077" lon="6.6325">
        <ele>1323</ele>
        <time>2016-04-02T04:11:18Z</time>
      </trkpt>
      <trkpt lat="44.18069" lon="6.63253">
        <ele>1324</ele>
        <time>2016-04-02T04:13:18Z</time>
      </trkpt>
      <trkpt lat="44.18058" lon="6.63258">
        <ele>1325</ele>
        <time>2016-04-02T04:15:18Z</time>
      </trkpt>
      <trkpt lat="44.18048" lon="6.63263">
        <ele>1327</ele>
        <time>2016-04-02T04:17:18Z</time>
      </trkpt>
      <trkpt lat="44.18041" lon="6.63264">
        <ele>1327</ele>
        <time>2016-04-02T04:19:18Z</time>
      </trkpt>
      <trkpt lat="44.18034" lon="6.63263">
        <ele>1327</ele>
        <time>2016-04-02T04:21:18Z</time>
      </trkpt>
      <trkpt lat="44.18026" lon="6.63261">
        <ele>1325</ele>
        <time>2016-04-02T04:23:18Z</time>
      </trkpt>
      <trkpt lat="44.18018" lon="6.63258">
        <ele>1324</ele>
        <time>2016-04-02T04:25:18Z</time>
      </trkpt>
      <trkpt lat="44.18011" lon="6.63256">
        <ele>1322</ele>
        <time>2016-04-02T04:27:18Z</time>
      </trkpt>
      <trkpt lat="44.18003" lon="6.63254">
        <ele>1321</ele>
        <time>2016-04-02T04:29:18Z</time>
      </trkpt>
      <trkpt lat="44.17997" lon="6.63253">
        <ele>1320</ele>
        <time>2016-04-02T04:31:18Z</time>
      </trkpt>
      <trkpt lat="44.17987" lon="6.63252">
        <ele>1319</ele>
        <time>2016-04-02T04:33:18Z</time>
      </trkpt>
      <trkpt lat="44.17984" lon="6.6325">
        <ele>1318</ele>
        <time>2016-04-02T04:35:18Z</time>
      </trkpt>
      <trkpt lat="44.17983" lon="6.63244">
        <ele>1316</ele>
        <time>2016-04-02T04:37:18Z</time>
      </trkpt>
      <trkpt lat="44.17983" lon="6.63244">
        <ele>1316</ele>
        <time>2016-04-02T04:39:18Z</time>
      </trkpt>
      <trkpt lat="44.17985" lon="6.63241">
        <ele>1315</ele>
        <time>2016-04-02T04:41:18Z</time>
      </trkpt>
      <trkpt lat="44.17988" lon="6.6324">
        <ele>1315</ele>
        <time>2016-04-02T04:43:18Z</time>
      </trkpt>
      <trkpt lat="44.17992" lon="6.63239">
        <ele>1315</ele>
        <time>2016-04-02T04:45:18Z</time>
      </trkpt>
      <trkpt lat="44.18001" lon="6.63241">
        <ele>1316</ele>
        <time>2016-04-02T04:47:18Z</time>
      </trkpt>
      <trkpt lat="44.18014" lon="6.63242">
        <ele>1317</ele>
        <time>2016-04-02T04:49:18Z</time>
      </trkpt>
      <trkpt lat="44.18031" lon="6.63238">
        <ele>1316</ele>
        <time>2016-04-02T04:51:18Z</time>
      </trkpt>
      <trkpt lat="44.18043" lon="6.63234">
        <ele>1316</ele>
        <time>2016-04-02T04:53:18Z</time>
      </trkpt>
      <trkpt lat="44.18049" lon="6.6323">
        <ele>1314</ele>
        <time>2016-04-02T04:55:18Z</time>
      </trkpt>
      <trkpt lat="44.18059" lon="6.63223">
        <ele>1313</ele>
        <time>2016-04-02T04:57:18Z</time>
      </trkpt>
      <trkpt lat="44.18093" lon="6.63194">
        <ele>1304</ele>
        <time>2016-04-02T04:59:18Z</time>
      </trkpt>
      <trkpt lat="44.18101" lon="6.63189">
        <ele>1302</ele>
        <time>2016-04-02T05:01:18Z</time>
      </trkpt>
      <trkpt lat="44.18108" lon="6.63187">
        <ele>1301</ele>
        <time>2016-04-02T05:03:18Z</time>
      </trkpt>
      <trkpt lat="44.18117" lon="6.63185">
        <ele>1301</ele>
        <time>2016-04-02T05:05:18Z</time>
      </trkpt>
      <trkpt lat="44.18149" lon="6.63182">
        <ele>1300</ele>
        <time>2016-04-02T05:07:18Z</time>
      </trkpt>
      <trkpt lat="44.18174" lon="6.63181">
        <ele>1299</ele>
        <time>2016-04-02T05:09:18Z</time>
      </trkpt>
      <trkpt lat="44.18212" lon="6.63179">
        <ele>1296</ele>
        <time>2016-04-02T05:11:18Z</time>
      </trkpt>
      <trkpt lat="44.18224" lon="6.63179">
        <ele>1295</ele>
        <time>2016-04-02T05:13:18Z</time>
      </trkpt>
      <trkpt lat="44.18234" lon="6.63177">
        <ele>1294</ele>
        <time>2016-04-02T05:15:18Z</time>
      </trkpt>
      <trkpt lat="44.18244" lon="6.63174">
        <ele>1292</ele>
        <time>2016-04-02T05:17:18Z</time>
      </trkpt>
      <trkpt lat="44.18257" lon="6.63167">
        <ele>1289</ele>
        <time>2016-04-02T05:19:18Z</time>
      </trkpt>
      <trkpt lat="44.18267" lon="6.63161">
        <ele>1288</ele>
        <time>2016-04-02T05:21:18Z</time>
      </trkpt>
      <trkpt lat="44.18273" lon="6.63158">
        <ele>1288</ele>
        <time>2016-04-02T05:23:18Z</time>
      </trkpt>
      <trkpt lat="44.18278" lon="6.63156">
        <ele>1288</ele>
        <time>2016-04-02T05:25:18Z</time>
      </trkpt>
      <trkpt lat="44.18282" lon="6.63155">
        <ele>1287</ele>
        <time>2016-04-02T05:27:18Z</time>
      </trkpt>
      <trkpt lat="44.18289" lon="6.63152">
        <ele>1287</ele>
        <time>2016-04-02T05:29:18Z</time>
      </trkpt>
      <trkpt lat="44.18298" lon="6.63148">
        <ele>1287</ele>
        <time>2016-04-02T05:31:18Z</time>
      </trkpt>
      <trkpt lat="44.183" lon="6.63146">
        <ele>1286</ele>
        <time>2016-04-02T05:33:18Z</time>
      </trkpt>
      <trkpt lat="44.18313" lon="6.63137">
        <ele>1285</ele>
        <time>2016-04-02T05:35:18Z</time>
      </trkpt>
      <trkpt lat="44.18322" lon="6.63129">
        <ele>1284</ele>
        <time>2016-04-02T05:37:18Z</time>
      </trkpt>
      <trkpt lat="44.18329" lon="6.63121">
        <ele>1283</ele>
        <time>2016-04-02T05:39:18Z</time>
      </trkpt>
      <trkpt lat="44.18335" lon="6.63113">
        <ele>1282</ele>
        <time>2016-04-02T05:41:18Z</time>
      </trkpt>
      <trkpt lat="44.18339" lon="6.63103">
        <ele>1279</ele>
        <time>2016-04-02T05:43:18Z</time>
      </trkpt>
      <trkpt lat="44.18343" lon="6.63093">
        <ele>1277</ele>
        <time>2016-04-02T05:45:18Z</time>
      </trkpt>
      <trkpt lat="44.18345" lon="6.63083">
        <ele>1275</ele>
        <time>2016-04-02T05:47:18Z</time>
      </trkpt>
      <trkpt lat="44.18347" lon="6.63074">
        <ele>1274</ele>
        <time>2016-04-02T05:49:18Z</time>
      </trkpt>
      <trkpt lat="44.18347" lon="6.63067">
        <ele>1273</ele>
        <time>2016-04-02T05:51:18Z</time>
      </trkpt>
      <trkpt lat="44.18347" lon="6.63062">
        <ele>1273</ele>
        <time>2016-04-02T05:53:18Z</time>
      </trkpt>
      <trkpt lat="44.18347" lon="6.63049">
        <ele>1272</ele>
        <time>2016-04-02T05:55:18Z</time>
      </trkpt>
      <trkpt lat="44.18347" lon="6.63038">
        <ele>1271</ele>
        <time>2016-04-02T05:57:18Z</time>
      </trkpt>
      <trkpt lat="44.18349" lon="6.6303">
        <ele>1271</ele>
        <time>2016-04-02T05:59:18Z</time>
      </trkpt>
      <trkpt lat="44.1835" lon="6.63026">
        <ele>1270</ele>
        <time>2016-04-02T06:01:18Z</time>
      </trkpt>
      <trkpt lat="44.18352" lon="6.63024">
        <ele>1270</ele>
        <time>2016-04-02T06:03:18Z</time>
      </trkpt>
      <trkpt lat="44.18354" lon="6.63021">
        <ele>1270</ele>
        <time>2016-04-02T06:05:18Z</time>
      </trkpt>
      <trkpt lat="44.18355" lon="6.6302">
        <ele>1269</ele>
        <time>2016-04-02T06:07:18Z</time>
      </trkpt>
      <trkpt lat="44.18356" lon="6.63017">
        <ele>1269</ele>
        <time>2016-04-02T06:09:18Z</time>
      </trkpt>
      <trkpt lat="44.18357" lon="6.63014">
        <ele>1269</ele>
        <time>2016-04-02T06:11:18Z</time>
      </trkpt>
      <trkpt lat="44.18359" lon="6.63006">
        <ele>1268</ele>
        <time>2016-04-02T06:13:18Z</time>
      </trkpt>
      <trkpt lat="44.18359" lon="6.63006">
        <ele>1268</ele>
        <time>2016-04-02T06:15:18Z</time>
      </trkpt>
      <trkpt lat="44.18356" lon="6.63002">
        <ele>1268</ele>
        <time>2016-04-02T06:17:18Z</time>
      </trkpt>
      <trkpt lat="44.18352" lon="6.62999">
        <ele>1268</ele>
        <time>2016-04-02T06:19:18Z</time>
      </trkpt>
      <trkpt lat="44.1835" lon="6.62999">
        <ele>1269</ele>
        <time>2016-04-02T06:21:18Z</time>
      </trkpt>
      <trkpt lat="44.18347" lon="6.62998">
        <ele>1269</ele>
        <time>2016-04-02T06:23:18Z</time>
      </trkpt>
      <trkpt lat="44.18341" lon="6.62998">
        <ele>1269</ele>
        <time>2016-04-02T06:25:18Z</time>
      </trkpt>
      <trkpt lat="44.18334" lon="6.63002">
        <ele>1270</ele>
        <time>2016-04-02T06:27:18Z</time>
      </trkpt>
      <trkpt lat="44.18305" lon="6.6302">
        <ele>1268</ele>
        <time>2016-04-02T06:29:18Z</time>
      </trkpt>
      <trkpt lat="44.18271" lon="6.63044">
        <ele>1266</ele>
        <time>2016-04-02T06:31:18Z</time>
      </trkpt>
      <trkpt lat="44.18255" lon="6.6305">
        <ele>1265</ele>
        <time>2016-04-02T06:33:18Z</time>
      </trkpt>
      <trkpt lat="44.18244" lon="6.63054">
        <ele>1265</ele>
        <time>2016-04-02T06:35:18Z</time>
      </trkpt>
      <trkpt lat="44.18242" lon="6.63055">
        <ele>1265</ele>
        <time>2016-04-02T06:37:18Z</time>
      </trkpt>
    </trkseg>
  </trk>
</gpx>